﻿<?xml version="1.0" encoding="UTF-8"?>
<gpx xmlns="http://www.topografix.com/GPX/1/1" creator="HOLUX ezTour Plus" version="1.1">
<metadata>
<link href="http://www.holux.com"><text>HOLUX Technology, Inc.</text></link>
<time>2013-11-27T20:35:13Z</time></metadata>
<trk>
<name><![CDATA[Holux2013/11/22_08:06]]></name>
<trkseg>
<trkpt lat="30.618669510" lon="34.801616669">
<ele>860.906250</ele>
<time>2013-11-22T06:06:28Z</time>
<speed>0.040000</speed>
<extensions>
<speed>0.0</speed>
<temp>0.00</temp>
<bpm>0</bpm>
<rpm>0.00</rpm>
</extensions>
</trkpt>
<trkpt lat="30.618673325" lon="34.801620483">
<ele>860.156250</ele>
<time>2013-11-22T06:06:33Z</time>
<extensions>
<speed>0.0</speed>
<temp>0.00</temp>
<bpm>0</bpm>
<rpm>0.00</rpm>
</extensions>
</trkpt>
<trkpt lat="30.618682861" lon="34.801620483">
<ele>858.718750</ele>
<time>2013-11-22T06:06:38Z</time>
<extensions>
<speed>0.0</speed>
<temp>0.00</temp>
<bpm>0</bpm>
<rpm>0.00</rpm>
</extensions>
</trkpt>
<trkpt lat="30.618680954" lon="34.801612854">
<ele>859.312500</ele>
<time>2013-11-22T06:06:43Z</time>
<extensions>
<speed>0.0</speed>
<temp>0.00</temp>
<bpm>0</bpm>
<rpm>0.00</rpm>
</extensions>
</trkpt>
<trkpt lat="30.618682861" lon="34.801605225">
<ele>858.890625</ele>
<time>2013-11-22T06:06:48Z</time>
<extensions>
<speed>0.0</speed>
<temp>0.00</temp>
<bpm>0</bpm>
<rpm>0.00</rpm>
</extensions>
</trkpt>
<trkpt lat="30.618671417" lon="34.801597595">
<ele>857.140625</ele>
<time>2013-11-22T06:06:53Z</time>
<speed>0.010000</speed>
<extensions>
<speed>0.0</speed>
<temp>0.00</temp>
<bpm>0</bpm>
<rpm>0.00</rpm>
</extensions>
</trkpt>
<trkpt lat="30.618663788" lon="34.801593781">
<ele>857.234375</ele>
<time>2013-11-22T06:06:58Z</time>
<extensions>
<speed>0.0</speed>
<temp>0.00</temp>
<bpm>0</bpm>
<rpm>0.00</rpm>
</extensions>
</trkpt>
<trkpt lat="30.618661880" lon="34.801593781">
<ele>856.890625</ele>
<time>2013-11-22T06:07:03Z</time>
<extensions>
<speed>0.0</speed>
<temp>0.00</temp>
<bpm>0</bpm>
<rpm>0.00</rpm>
</extensions>
</trkpt>
<trkpt lat="30.618661880" lon="34.801593781">
<ele>856.796875</ele>
<time>2013-11-22T06:07:08Z</time>
<speed>0.010000</speed>
<extensions>
<speed>0.0</speed>
<temp>0.00</temp>
<bpm>0</bpm>
<rpm>0.00</rpm>
</extensions>
</trkpt>
<trkpt lat="30.618661880" lon="34.801593781">
<ele>856.687500</ele>
<time>2013-11-22T06:07:13Z</time>
<extensions>
<speed>0.0</speed>
<temp>0.00</temp>
<bpm>0</bpm>
<rpm>0.00</rpm>
</extensions>
</trkpt>
<trkpt lat="30.618661880" lon="34.801593781">
<ele>856.593750</ele>
<time>2013-11-22T06:07:18Z</time>
<extensions>
<speed>0.0</speed>
<temp>0.00</temp>
<bpm>0</bpm>
<rpm>0.00</rpm>
</extensions>
</trkpt>
<trkpt lat="30.618661880" lon="34.801597595">
<ele>856.562500</ele>
<time>2013-11-22T06:07:23Z</time>
<extensions>
<speed>0.0</speed>
<temp>0.00</temp>
<bpm>0</bpm>
<rpm>0.00</rpm>
</extensions>
</trkpt>
<trkpt lat="30.618661880" lon="34.801597595">
<ele>856.546875</ele>
<time>2013-11-22T06:07:28Z</time>
<extensions>
<speed>0.0</speed>
<temp>0.00</temp>
<bpm>0</bpm>
<rpm>0.00</rpm>
</extensions>
</trkpt>
<trkpt lat="30.618661880" lon="34.801597595">
<ele>856.531250</ele>
<time>2013-11-22T06:07:33Z</time>
<extensions>
<speed>0.0</speed>
<temp>0.00</temp>
<bpm>0</bpm>
<rpm>0.00</rpm>
</extensions>
</trkpt>
<trkpt lat="30.618661880" lon="34.801597595">
<ele>856.515625</ele>
<time>2013-11-22T06:07:38Z</time>
<extensions>
<speed>0.0</speed>
<temp>0.00</temp>
<bpm>0</bpm>
<rpm>0.00</rpm>
</extensions>
</trkpt>
<trkpt lat="30.618663788" lon="34.801597595">
<ele>856.531250</ele>
<time>2013-11-22T06:07:43Z</time>
<extensions>
<speed>0.0</speed>
<temp>0.00</temp>
<bpm>0</bpm>
<rpm>0.00</rpm>
</extensions>
</trkpt>
<trkpt lat="30.618663788" lon="34.801597595">
<ele>856.515625</ele>
<time>2013-11-22T06:07:48Z</time>
<extensions>
<speed>0.0</speed>
<temp>0.00</temp>
<bpm>0</bpm>
<rpm>0.00</rpm>
</extensions>
</trkpt>
<trkpt lat="30.618663788" lon="34.801597595">
<ele>856.515625</ele>
<time>2013-11-22T06:07:53Z</time>
<extensions>
<speed>0.0</speed>
<temp>0.00</temp>
<bpm>0</bpm>
<rpm>0.00</rpm>
</extensions>
</trkpt>
<trkpt lat="30.618663788" lon="34.801597595">
<ele>856.531250</ele>
<time>2013-11-22T06:07:58Z</time>
<extensions>
<speed>0.0</speed>
<temp>0.00</temp>
<bpm>0</bpm>
<rpm>0.00</rpm>
</extensions>
</trkpt>
<trkpt lat="30.618661880" lon="34.801597595">
<ele>856.531250</ele>
<time>2013-11-22T06:08:03Z</time>
<speed>0.010000</speed>
<extensions>
<speed>0.0</speed>
<temp>0.00</temp>
<bpm>0</bpm>
<rpm>0.00</rpm>
</extensions>
</trkpt>
<trkpt lat="30.618661880" lon="34.801597595">
<ele>856.531250</ele>
<time>2013-11-22T06:08:08Z</time>
<extensions>
<speed>0.0</speed>
<temp>0.00</temp>
<bpm>0</bpm>
<rpm>0.00</rpm>
</extensions>
</trkpt>
<trkpt lat="30.618661880" lon="34.801597595">
<ele>856.531250</ele>
<time>2013-11-22T06:08:13Z</time>
<extensions>
<speed>0.0</speed>
<temp>0.00</temp>
<bpm>0</bpm>
<rpm>0.00</rpm>
</extensions>
</trkpt>
<trkpt lat="30.618661880" lon="34.801597595">
<ele>856.531250</ele>
<time>2013-11-22T06:08:18Z</time>
<extensions>
<speed>0.0</speed>
<temp>0.00</temp>
<bpm>0</bpm>
<rpm>0.00</rpm>
</extensions>
</trkpt>
<trkpt lat="30.618661880" lon="34.801597595">
<ele>856.515625</ele>
<time>2013-11-22T06:08:23Z</time>
<speed>0.030000</speed>
<extensions>
<speed>0.0</speed>
<temp>0.00</temp>
<bpm>0</bpm>
<rpm>0.00</rpm>
</extensions>
</trkpt>
<trkpt lat="30.618661880" lon="34.801597595">
<ele>856.468750</ele>
<time>2013-11-22T06:08:28Z</time>
<speed>0.020000</speed>
<extensions>
<speed>0.0</speed>
<temp>0.00</temp>
<bpm>0</bpm>
<rpm>0.00</rpm>
</extensions>
</trkpt>
<trkpt lat="30.618659973" lon="34.801597595">
<ele>856.375000</ele>
<time>2013-11-22T06:08:33Z</time>
<speed>0.160000</speed>
<extensions>
<speed>0.2</speed>
<temp>0.00</temp>
<bpm>0</bpm>
<rpm>0.00</rpm>
</extensions>
</trkpt>
<trkpt lat="30.618659973" lon="34.801597595">
<ele>856.359375</ele>
<time>2013-11-22T06:08:38Z</time>
<extensions>
<speed>0.0</speed>
<temp>0.00</temp>
<bpm>0</bpm>
<rpm>0.00</rpm>
</extensions>
</trkpt>
<trkpt lat="30.618659973" lon="34.801597595">
<ele>856.359375</ele>
<time>2013-11-22T06:08:43Z</time>
<speed>0.010000</speed>
<extensions>
<speed>0.0</speed>
<temp>0.00</temp>
<bpm>0</bpm>
<rpm>0.00</rpm>
</extensions>
</trkpt>
<trkpt lat="30.618659973" lon="34.801597595">
<ele>856.328125</ele>
<time>2013-11-22T06:08:48Z</time>
<speed>0.010000</speed>
<extensions>
<speed>0.0</speed>
<temp>0.00</temp>
<bpm>0</bpm>
<rpm>0.00</rpm>
</extensions>
</trkpt>
<trkpt lat="30.618656158" lon="34.801597595">
<ele>856.218750</ele>
<time>2013-11-22T06:08:53Z</time>
<speed>0.120000</speed>
<extensions>
<speed>0.1</speed>
<temp>0.00</temp>
<bpm>0</bpm>
<rpm>0.00</rpm>
</extensions>
</trkpt>
<trkpt lat="30.618648529" lon="34.801597595">
<ele>856.031250</ele>
<time>2013-11-22T06:08:58Z</time>
<speed>0.200000</speed>
<extensions>
<speed>0.2</speed>
<temp>0.00</temp>
<bpm>0</bpm>
<rpm>0.00</rpm>
</extensions>
</trkpt>
<trkpt lat="30.618637085" lon="34.801601410">
<ele>855.656250</ele>
<time>2013-11-22T06:09:03Z</time>
<speed>0.020000</speed>
<extensions>
<speed>0.0</speed>
<temp>0.00</temp>
<bpm>0</bpm>
<rpm>0.00</rpm>
</extensions>
</trkpt>
<trkpt lat="30.618623734" lon="34.801601410">
<ele>855.031250</ele>
<time>2013-11-22T06:09:08Z</time>
<speed>0.180000</speed>
<extensions>
<speed>0.2</speed>
<temp>0.00</temp>
<bpm>0</bpm>
<rpm>0.00</rpm>
</extensions>
</trkpt>
<trkpt lat="30.618625641" lon="34.801597595">
<ele>854.875000</ele>
<time>2013-11-22T06:09:13Z</time>
<speed>0.060000</speed>
<extensions>
<speed>0.1</speed>
<temp>0.00</temp>
<bpm>0</bpm>
<rpm>0.00</rpm>
</extensions>
</trkpt>
<trkpt lat="30.618629456" lon="34.801597595">
<ele>854.593750</ele>
<time>2013-11-22T06:09:18Z</time>
<speed>0.010000</speed>
<extensions>
<speed>0.0</speed>
<temp>0.00</temp>
<bpm>0</bpm>
<rpm>0.00</rpm>
</extensions>
</trkpt>
<trkpt lat="30.618629456" lon="34.801601410">
<ele>854.531250</ele>
<time>2013-11-22T06:09:23Z</time>
<speed>0.020000</speed>
<extensions>
<speed>0.0</speed>
<temp>0.00</temp>
<bpm>0</bpm>
<rpm>0.00</rpm>
</extensions>
</trkpt>
<trkpt lat="30.618629456" lon="34.801601410">
<ele>854.468750</ele>
<time>2013-11-22T06:09:28Z</time>
<speed>0.010000</speed>
<extensions>
<speed>0.0</speed>
<temp>0.00</temp>
<bpm>0</bpm>
<rpm>0.00</rpm>
</extensions>
</trkpt>
<trkpt lat="30.618629456" lon="34.801601410">
<ele>854.406250</ele>
<time>2013-11-22T06:09:33Z</time>
<speed>0.010000</speed>
<extensions>
<speed>0.0</speed>
<temp>0.00</temp>
<bpm>0</bpm>
<rpm>0.00</rpm>
</extensions>
</trkpt>
<trkpt lat="30.618625641" lon="34.801605225">
<ele>854.250000</ele>
<time>2013-11-22T06:09:38Z</time>
<speed>0.100000</speed>
<extensions>
<speed>0.1</speed>
<temp>0.00</temp>
<bpm>0</bpm>
<rpm>0.00</rpm>
</extensions>
</trkpt>
<trkpt lat="30.618612289" lon="34.801609039">
<ele>854.515625</ele>
<time>2013-11-22T06:09:43Z</time>
<speed>0.090000</speed>
<extensions>
<speed>0.1</speed>
<temp>0.00</temp>
<bpm>0</bpm>
<rpm>0.00</rpm>
</extensions>
</trkpt>
<trkpt lat="30.618587494" lon="34.801609039">
<ele>855.328125</ele>
<time>2013-11-22T06:09:48Z</time>
<speed>0.070000</speed>
<extensions>
<speed>0.1</speed>
<temp>0.00</temp>
<bpm>0</bpm>
<rpm>0.00</rpm>
</extensions>
</trkpt>
<trkpt lat="30.618568420" lon="34.801612854">
<ele>856.015625</ele>
<time>2013-11-22T06:09:53Z</time>
<speed>0.080000</speed>
<extensions>
<speed>0.1</speed>
<temp>0.00</temp>
<bpm>0</bpm>
<rpm>0.00</rpm>
</extensions>
</trkpt>
<trkpt lat="30.618551254" lon="34.801624298">
<ele>856.156250</ele>
<time>2013-11-22T06:09:58Z</time>
<speed>0.020000</speed>
<extensions>
<speed>0.0</speed>
<temp>0.00</temp>
<bpm>0</bpm>
<rpm>0.00</rpm>
</extensions>
</trkpt>
<trkpt lat="30.618534088" lon="34.801631927">
<ele>856.234375</ele>
<time>2013-11-22T06:10:03Z</time>
<speed>0.050000</speed>
<extensions>
<speed>0.1</speed>
<temp>0.00</temp>
<bpm>0</bpm>
<rpm>0.00</rpm>
</extensions>
</trkpt>
<trkpt lat="30.618513107" lon="34.801631927">
<ele>856.875000</ele>
<time>2013-11-22T06:10:08Z</time>
<extensions>
<speed>0.0</speed>
<temp>0.00</temp>
<bpm>0</bpm>
<rpm>0.00</rpm>
</extensions>
</trkpt>
<trkpt lat="30.618488312" lon="34.801631927">
<ele>857.984375</ele>
<time>2013-11-22T06:10:13Z</time>
<extensions>
<speed>0.0</speed>
<temp>0.00</temp>
<bpm>0</bpm>
<rpm>0.00</rpm>
</extensions>
</trkpt>
<trkpt lat="30.618467331" lon="34.801620483">
<ele>859.171875</ele>
<time>2013-11-22T06:10:18Z</time>
<speed>0.020000</speed>
<extensions>
<speed>0.0</speed>
<temp>0.00</temp>
<bpm>0</bpm>
<rpm>0.00</rpm>
</extensions>
</trkpt>
<trkpt lat="30.618463516" lon="34.801620483">
<ele>859.406250</ele>
<time>2013-11-22T06:10:23Z</time>
<speed>0.010000</speed>
<extensions>
<speed>0.0</speed>
<temp>0.00</temp>
<bpm>0</bpm>
<rpm>0.00</rpm>
</extensions>
</trkpt>
<trkpt lat="30.618465424" lon="34.801616669">
<ele>859.390625</ele>
<time>2013-11-22T06:10:28Z</time>
<speed>0.080000</speed>
<extensions>
<speed>0.1</speed>
<temp>0.00</temp>
<bpm>0</bpm>
<rpm>0.00</rpm>
</extensions>
</trkpt>
<trkpt lat="30.618465424" lon="34.801612854">
<ele>859.375000</ele>
<time>2013-11-22T06:10:33Z</time>
<speed>0.080000</speed>
<extensions>
<speed>0.1</speed>
<temp>0.00</temp>
<bpm>0</bpm>
<rpm>0.00</rpm>
</extensions>
</trkpt>
<trkpt lat="30.618473053" lon="34.801612854">
<ele>859.328125</ele>
<time>2013-11-22T06:10:38Z</time>
<speed>0.210000</speed>
<extensions>
<speed>0.2</speed>
<temp>0.00</temp>
<bpm>0</bpm>
<rpm>0.00</rpm>
</extensions>
</trkpt>
<trkpt lat="30.618478775" lon="34.801605225">
<ele>859.234375</ele>
<time>2013-11-22T06:10:43Z</time>
<speed>0.280000</speed>
<extensions>
<speed>0.3</speed>
<temp>0.00</temp>
<bpm>0</bpm>
<rpm>0.00</rpm>
</extensions>
</trkpt>
<trkpt lat="30.618484497" lon="34.801597595">
<ele>859.015625</ele>
<time>2013-11-22T06:10:48Z</time>
<speed>0.290000</speed>
<extensions>
<speed>0.3</speed>
<temp>0.00</temp>
<bpm>0</bpm>
<rpm>0.00</rpm>
</extensions>
</trkpt>
<trkpt lat="30.618465424" lon="34.801597595">
<ele>859.343750</ele>
<time>2013-11-22T06:10:53Z</time>
<speed>0.080000</speed>
<extensions>
<speed>0.1</speed>
<temp>0.00</temp>
<bpm>0</bpm>
<rpm>0.00</rpm>
</extensions>
</trkpt>
<trkpt lat="30.618465424" lon="34.801601410">
<ele>859.171875</ele>
<time>2013-11-22T06:10:58Z</time>
<speed>0.060000</speed>
<extensions>
<speed>0.1</speed>
<temp>0.00</temp>
<bpm>0</bpm>
<rpm>0.00</rpm>
</extensions>
</trkpt>
<trkpt lat="30.618461609" lon="34.801597595">
<ele>858.890625</ele>
<time>2013-11-22T06:11:03Z</time>
<speed>0.140000</speed>
<extensions>
<speed>0.1</speed>
<temp>0.00</temp>
<bpm>0</bpm>
<rpm>0.00</rpm>
</extensions>
</trkpt>
<trkpt lat="30.618455887" lon="34.801593781">
<ele>858.515625</ele>
<time>2013-11-22T06:11:08Z</time>
<speed>0.070000</speed>
<extensions>
<speed>0.1</speed>
<temp>0.00</temp>
<bpm>0</bpm>
<rpm>0.00</rpm>
</extensions>
</trkpt>
<trkpt lat="30.618459702" lon="34.801593781">
<ele>858.203125</ele>
<time>2013-11-22T06:11:13Z</time>
<extensions>
<speed>0.0</speed>
<temp>0.00</temp>
<bpm>0</bpm>
<rpm>0.00</rpm>
</extensions>
</trkpt>
<trkpt lat="30.618459702" lon="34.801597595">
<ele>857.859375</ele>
<time>2013-11-22T06:11:18Z</time>
<speed>0.090000</speed>
<extensions>
<speed>0.1</speed>
<temp>0.00</temp>
<bpm>0</bpm>
<rpm>0.00</rpm>
</extensions>
</trkpt>
<trkpt lat="30.618459702" lon="34.801597595">
<ele>857.500000</ele>
<time>2013-11-22T06:11:23Z</time>
<speed>0.010000</speed>
<extensions>
<speed>0.0</speed>
<temp>0.00</temp>
<bpm>0</bpm>
<rpm>0.00</rpm>
</extensions>
</trkpt>
<trkpt lat="30.618459702" lon="34.801597595">
<ele>857.296875</ele>
<time>2013-11-22T06:11:28Z</time>
<speed>0.010000</speed>
<extensions>
<speed>0.0</speed>
<temp>0.00</temp>
<bpm>0</bpm>
<rpm>0.00</rpm>
</extensions>
</trkpt>
<trkpt lat="30.618459702" lon="34.801601410">
<ele>857.312500</ele>
<time>2013-11-22T06:11:33Z</time>
<speed>0.030000</speed>
<extensions>
<speed>0.0</speed>
<temp>0.00</temp>
<bpm>0</bpm>
<rpm>0.00</rpm>
</extensions>
</trkpt>
<trkpt lat="30.618461609" lon="34.801601410">
<ele>857.296875</ele>
<time>2013-11-22T06:11:38Z</time>
<speed>0.040000</speed>
<extensions>
<speed>0.0</speed>
<temp>0.00</temp>
<bpm>0</bpm>
<rpm>0.00</rpm>
</extensions>
</trkpt>
<trkpt lat="30.618463516" lon="34.801601410">
<ele>857.296875</ele>
<time>2013-11-22T06:11:43Z</time>
<speed>0.060000</speed>
<extensions>
<speed>0.1</speed>
<temp>0.00</temp>
<bpm>0</bpm>
<rpm>0.00</rpm>
</extensions>
</trkpt>
<trkpt lat="30.618465424" lon="34.801605225">
<ele>857.250000</ele>
<time>2013-11-22T06:11:48Z</time>
<speed>0.050000</speed>
<extensions>
<speed>0.1</speed>
<temp>0.00</temp>
<bpm>0</bpm>
<rpm>0.00</rpm>
</extensions>
</trkpt>
<trkpt lat="30.618467331" lon="34.801609039">
<ele>857.171875</ele>
<time>2013-11-22T06:11:53Z</time>
<speed>0.060000</speed>
<extensions>
<speed>0.1</speed>
<temp>0.00</temp>
<bpm>0</bpm>
<rpm>0.00</rpm>
</extensions>
</trkpt>
<trkpt lat="30.618465424" lon="34.801612854">
<ele>857.062500</ele>
<time>2013-11-22T06:11:58Z</time>
<speed>0.050000</speed>
<extensions>
<speed>0.1</speed>
<temp>0.00</temp>
<bpm>0</bpm>
<rpm>0.00</rpm>
</extensions>
</trkpt>
<trkpt lat="30.618465424" lon="34.801612854">
<ele>857.062500</ele>
<time>2013-11-22T06:12:03Z</time>
<speed>0.010000</speed>
<extensions>
<speed>0.0</speed>
<temp>0.00</temp>
<bpm>0</bpm>
<rpm>0.00</rpm>
</extensions>
</trkpt>
<trkpt lat="30.618467331" lon="34.801609039">
<ele>857.046875</ele>
<time>2013-11-22T06:12:08Z</time>
<speed>0.100000</speed>
<extensions>
<speed>0.1</speed>
<temp>0.00</temp>
<bpm>0</bpm>
<rpm>0.00</rpm>
</extensions>
</trkpt>
<trkpt lat="30.618469238" lon="34.801605225">
<ele>857.015625</ele>
<time>2013-11-22T06:12:13Z</time>
<speed>0.120000</speed>
<extensions>
<speed>0.1</speed>
<temp>0.00</temp>
<bpm>0</bpm>
<rpm>0.00</rpm>
</extensions>
</trkpt>
<trkpt lat="30.618474960" lon="34.801605225">
<ele>856.906250</ele>
<time>2013-11-22T06:12:18Z</time>
<speed>0.120000</speed>
<extensions>
<speed>0.1</speed>
<temp>0.00</temp>
<bpm>0</bpm>
<rpm>0.00</rpm>
</extensions>
</trkpt>
<trkpt lat="30.618480682" lon="34.801605225">
<ele>856.734375</ele>
<time>2013-11-22T06:12:23Z</time>
<speed>0.150000</speed>
<extensions>
<speed>0.2</speed>
<temp>0.00</temp>
<bpm>0</bpm>
<rpm>0.00</rpm>
</extensions>
</trkpt>
<trkpt lat="30.618490219" lon="34.801605225">
<ele>856.500000</ele>
<time>2013-11-22T06:12:28Z</time>
<speed>0.210000</speed>
<extensions>
<speed>0.2</speed>
<temp>0.00</temp>
<bpm>0</bpm>
<rpm>0.00</rpm>
</extensions>
</trkpt>
<trkpt lat="30.618501663" lon="34.801605225">
<ele>856.218750</ele>
<time>2013-11-22T06:12:33Z</time>
<speed>0.240000</speed>
<extensions>
<speed>0.2</speed>
<temp>0.00</temp>
<bpm>0</bpm>
<rpm>0.00</rpm>
</extensions>
</trkpt>
<trkpt lat="30.618511200" lon="34.801605225">
<ele>855.890625</ele>
<time>2013-11-22T06:12:38Z</time>
<speed>0.180000</speed>
<extensions>
<speed>0.2</speed>
<temp>0.00</temp>
<bpm>0</bpm>
<rpm>0.00</rpm>
</extensions>
</trkpt>
<trkpt lat="30.618520737" lon="34.801605225">
<ele>855.546875</ele>
<time>2013-11-22T06:12:43Z</time>
<speed>0.240000</speed>
<extensions>
<speed>0.2</speed>
<temp>0.00</temp>
<bpm>0</bpm>
<rpm>0.00</rpm>
</extensions>
</trkpt>
<trkpt lat="30.618532181" lon="34.801605225">
<ele>855.171875</ele>
<time>2013-11-22T06:12:48Z</time>
<speed>0.150000</speed>
<extensions>
<speed>0.2</speed>
<temp>0.00</temp>
<bpm>0</bpm>
<rpm>0.00</rpm>
</extensions>
</trkpt>
<trkpt lat="30.618537903" lon="34.801605225">
<ele>854.765625</ele>
<time>2013-11-22T06:12:53Z</time>
<speed>0.090000</speed>
<extensions>
<speed>0.1</speed>
<temp>0.00</temp>
<bpm>0</bpm>
<rpm>0.00</rpm>
</extensions>
</trkpt>
<trkpt lat="30.618541718" lon="34.801605225">
<ele>854.359375</ele>
<time>2013-11-22T06:12:58Z</time>
<speed>0.080000</speed>
<extensions>
<speed>0.1</speed>
<temp>0.00</temp>
<bpm>0</bpm>
<rpm>0.00</rpm>
</extensions>
</trkpt>
<trkpt lat="30.618543625" lon="34.801605225">
<ele>853.921875</ele>
<time>2013-11-22T06:13:03Z</time>
<speed>0.050000</speed>
<extensions>
<speed>0.1</speed>
<temp>0.00</temp>
<bpm>0</bpm>
<rpm>0.00</rpm>
</extensions>
</trkpt>
<trkpt lat="30.618545532" lon="34.801605225">
<ele>853.437500</ele>
<time>2013-11-22T06:13:08Z</time>
<speed>0.040000</speed>
<extensions>
<speed>0.0</speed>
<temp>0.00</temp>
<bpm>0</bpm>
<rpm>0.00</rpm>
</extensions>
</trkpt>
<trkpt lat="30.618549347" lon="34.801605225">
<ele>852.875000</ele>
<time>2013-11-22T06:13:13Z</time>
<speed>0.100000</speed>
<extensions>
<speed>0.1</speed>
<temp>0.00</temp>
<bpm>0</bpm>
<rpm>0.00</rpm>
</extensions>
</trkpt>
<trkpt lat="30.618553162" lon="34.801605225">
<ele>852.406250</ele>
<time>2013-11-22T06:13:18Z</time>
<speed>0.080000</speed>
<extensions>
<speed>0.1</speed>
<temp>0.00</temp>
<bpm>0</bpm>
<rpm>0.00</rpm>
</extensions>
</trkpt>
<trkpt lat="30.618556976" lon="34.801601410">
<ele>851.937500</ele>
<time>2013-11-22T06:13:23Z</time>
<speed>0.090000</speed>
<extensions>
<speed>0.1</speed>
<temp>0.00</temp>
<bpm>0</bpm>
<rpm>0.00</rpm>
</extensions>
</trkpt>
<trkpt lat="30.618562698" lon="34.801601410">
<ele>851.421875</ele>
<time>2013-11-22T06:13:28Z</time>
<speed>0.090000</speed>
<extensions>
<speed>0.1</speed>
<temp>0.00</temp>
<bpm>0</bpm>
<rpm>0.00</rpm>
</extensions>
</trkpt>
<trkpt lat="30.618566513" lon="34.801601410">
<ele>850.828125</ele>
<time>2013-11-22T06:13:33Z</time>
<speed>0.090000</speed>
<extensions>
<speed>0.1</speed>
<temp>0.00</temp>
<bpm>0</bpm>
<rpm>0.00</rpm>
</extensions>
</trkpt>
<trkpt lat="30.618570328" lon="34.801601410">
<ele>850.171875</ele>
<time>2013-11-22T06:13:38Z</time>
<speed>0.090000</speed>
<extensions>
<speed>0.1</speed>
<temp>0.00</temp>
<bpm>0</bpm>
<rpm>0.00</rpm>
</extensions>
</trkpt>
<trkpt lat="30.618574142" lon="34.801601410">
<ele>849.437500</ele>
<time>2013-11-22T06:13:43Z</time>
<speed>0.100000</speed>
<extensions>
<speed>0.1</speed>
<temp>0.00</temp>
<bpm>0</bpm>
<rpm>0.00</rpm>
</extensions>
</trkpt>
<trkpt lat="30.618579865" lon="34.801601410">
<ele>848.625000</ele>
<time>2013-11-22T06:13:48Z</time>
<speed>0.100000</speed>
<extensions>
<speed>0.1</speed>
<temp>0.00</temp>
<bpm>0</bpm>
<rpm>0.00</rpm>
</extensions>
</trkpt>
<trkpt lat="30.618583679" lon="34.801601410">
<ele>847.859375</ele>
<time>2013-11-22T06:13:53Z</time>
<speed>0.100000</speed>
<extensions>
<speed>0.1</speed>
<temp>0.00</temp>
<bpm>0</bpm>
<rpm>0.00</rpm>
</extensions>
</trkpt>
<trkpt lat="30.618587494" lon="34.801601410">
<ele>847.156250</ele>
<time>2013-11-22T06:13:58Z</time>
<speed>0.090000</speed>
<extensions>
<speed>0.1</speed>
<temp>0.00</temp>
<bpm>0</bpm>
<rpm>0.00</rpm>
</extensions>
</trkpt>
<trkpt lat="30.618591309" lon="34.801601410">
<ele>846.578125</ele>
<time>2013-11-22T06:14:03Z</time>
<speed>0.040000</speed>
<extensions>
<speed>0.0</speed>
<temp>0.00</temp>
<bpm>0</bpm>
<rpm>0.00</rpm>
</extensions>
</trkpt>
<trkpt lat="30.618591309" lon="34.801601410">
<ele>846.125000</ele>
<time>2013-11-22T06:14:08Z</time>
<speed>0.040000</speed>
<extensions>
<speed>0.0</speed>
<temp>0.00</temp>
<bpm>0</bpm>
<rpm>0.00</rpm>
</extensions>
</trkpt>
<trkpt lat="30.618593216" lon="34.801601410">
<ele>845.718750</ele>
<time>2013-11-22T06:14:13Z</time>
<speed>0.050000</speed>
<extensions>
<speed>0.1</speed>
<temp>0.00</temp>
<bpm>0</bpm>
<rpm>0.00</rpm>
</extensions>
</trkpt>
<trkpt lat="30.618595123" lon="34.801605225">
<ele>845.296875</ele>
<time>2013-11-22T06:14:18Z</time>
<speed>0.070000</speed>
<extensions>
<speed>0.1</speed>
<temp>0.00</temp>
<bpm>0</bpm>
<rpm>0.00</rpm>
</extensions>
</trkpt>
<trkpt lat="30.618598938" lon="34.801609039">
<ele>844.828125</ele>
<time>2013-11-22T06:14:23Z</time>
<speed>0.080000</speed>
<extensions>
<speed>0.1</speed>
<temp>0.00</temp>
<bpm>0</bpm>
<rpm>0.00</rpm>
</extensions>
</trkpt>
<trkpt lat="30.618600845" lon="34.801612854">
<ele>844.296875</ele>
<time>2013-11-22T06:14:28Z</time>
<speed>0.060000</speed>
<extensions>
<speed>0.1</speed>
<temp>0.00</temp>
<bpm>0</bpm>
<rpm>0.00</rpm>
</extensions>
</trkpt>
<trkpt lat="30.618602753" lon="34.801612854">
<ele>843.750000</ele>
<time>2013-11-22T06:14:33Z</time>
<speed>0.040000</speed>
<extensions>
<speed>0.0</speed>
<temp>0.00</temp>
<bpm>0</bpm>
<rpm>0.00</rpm>
</extensions>
</trkpt>
<trkpt lat="30.618604660" lon="34.801616669">
<ele>843.234375</ele>
<time>2013-11-22T06:14:38Z</time>
<speed>0.070000</speed>
<extensions>
<speed>0.1</speed>
<temp>0.00</temp>
<bpm>0</bpm>
<rpm>0.00</rpm>
</extensions>
</trkpt>
<trkpt lat="30.618606567" lon="34.801616669">
<ele>842.781250</ele>
<time>2013-11-22T06:14:43Z</time>
<speed>0.050000</speed>
<extensions>
<speed>0.1</speed>
<temp>0.00</temp>
<bpm>0</bpm>
<rpm>0.00</rpm>
</extensions>
</trkpt>
<trkpt lat="30.618608475" lon="34.801620483">
<ele>842.437500</ele>
<time>2013-11-22T06:14:48Z</time>
<speed>0.040000</speed>
<extensions>
<speed>0.0</speed>
<temp>0.00</temp>
<bpm>0</bpm>
<rpm>0.00</rpm>
</extensions>
</trkpt>
<trkpt lat="30.618610382" lon="34.801620483">
<ele>842.125000</ele>
<time>2013-11-22T06:14:53Z</time>
<speed>0.050000</speed>
<extensions>
<speed>0.1</speed>
<temp>0.00</temp>
<bpm>0</bpm>
<rpm>0.00</rpm>
</extensions>
</trkpt>
<trkpt lat="30.618612289" lon="34.801620483">
<ele>841.796875</ele>
<time>2013-11-22T06:14:58Z</time>
<speed>0.070000</speed>
<extensions>
<speed>0.1</speed>
<temp>0.00</temp>
<bpm>0</bpm>
<rpm>0.00</rpm>
</extensions>
</trkpt>
<trkpt lat="30.618616104" lon="34.801624298">
<ele>841.406250</ele>
<time>2013-11-22T06:15:03Z</time>
<speed>0.040000</speed>
<extensions>
<speed>0.0</speed>
<temp>0.00</temp>
<bpm>0</bpm>
<rpm>0.00</rpm>
</extensions>
</trkpt>
<trkpt lat="30.618616104" lon="34.801624298">
<ele>840.937500</ele>
<time>2013-11-22T06:15:08Z</time>
<speed>0.050000</speed>
<extensions>
<speed>0.1</speed>
<temp>0.00</temp>
<bpm>0</bpm>
<rpm>0.00</rpm>
</extensions>
</trkpt>
<trkpt lat="30.618618011" lon="34.801624298">
<ele>840.421875</ele>
<time>2013-11-22T06:15:13Z</time>
<speed>0.110000</speed>
<extensions>
<speed>0.1</speed>
<temp>0.00</temp>
<bpm>0</bpm>
<rpm>0.00</rpm>
</extensions>
</trkpt>
<trkpt lat="30.618616104" lon="34.801620483">
<ele>839.843750</ele>
<time>2013-11-22T06:15:18Z</time>
<speed>0.070000</speed>
<extensions>
<speed>0.1</speed>
<temp>0.00</temp>
<bpm>0</bpm>
<rpm>0.00</rpm>
</extensions>
</trkpt>
<trkpt lat="30.618608475" lon="34.801624298">
<ele>839.359375</ele>
<time>2013-11-22T06:15:23Z</time>
<speed>0.230000</speed>
<extensions>
<speed>0.2</speed>
<temp>0.00</temp>
<bpm>0</bpm>
<rpm>0.00</rpm>
</extensions>
</trkpt>
<trkpt lat="30.618591309" lon="34.801624298">
<ele>839.468750</ele>
<time>2013-11-22T06:15:28Z</time>
<speed>0.360000</speed>
<extensions>
<speed>0.4</speed>
<temp>0.00</temp>
<bpm>0</bpm>
<rpm>0.00</rpm>
</extensions>
</trkpt>
<trkpt lat="30.618591309" lon="34.801689148">
<ele>838.515625</ele>
<time>2013-11-22T06:15:33Z</time>
<speed>1.780000</speed>
<extensions>
<speed>1.8</speed>
<temp>0.00</temp>
<bpm>0</bpm>
<rpm>0.00</rpm>
</extensions>
</trkpt>
<trkpt lat="30.618577957" lon="34.801753998">
<ele>838.781250</ele>
<time>2013-11-22T06:15:38Z</time>
<speed>1.320000</speed>
<extensions>
<speed>1.3</speed>
<temp>0.00</temp>
<bpm>0</bpm>
<rpm>0.00</rpm>
</extensions>
</trkpt>
<trkpt lat="30.618539810" lon="34.801742554">
<ele>836.625000</ele>
<time>2013-11-22T06:15:43Z</time>
<speed>2.000000</speed>
<extensions>
<speed>2.0</speed>
<temp>0.00</temp>
<bpm>0</bpm>
<rpm>0.00</rpm>
</extensions>
</trkpt>
<trkpt lat="30.618560791" lon="34.801620483">
<ele>834.750000</ele>
<time>2013-11-22T06:15:48Z</time>
<speed>2.860000</speed>
<extensions>
<speed>2.9</speed>
<temp>0.00</temp>
<bpm>0</bpm>
<rpm>0.00</rpm>
</extensions>
</trkpt>
<trkpt lat="30.618570328" lon="34.801460266">
<ele>833.218750</ele>
<time>2013-11-22T06:15:53Z</time>
<speed>3.630000</speed>
<extensions>
<speed>3.6</speed>
<temp>0.00</temp>
<bpm>0</bpm>
<rpm>0.00</rpm>
</extensions>
</trkpt>
<trkpt lat="30.618558884" lon="34.801269531">
<ele>831.421875</ele>
<time>2013-11-22T06:15:58Z</time>
<speed>2.930000</speed>
<extensions>
<speed>2.9</speed>
<temp>0.00</temp>
<bpm>0</bpm>
<rpm>0.00</rpm>
</extensions>
</trkpt>
<trkpt lat="30.618558884" lon="34.801113129">
<ele>830.343750</ele>
<time>2013-11-22T06:16:03Z</time>
<speed>3.470000</speed>
<extensions>
<speed>3.5</speed>
<temp>0.00</temp>
<bpm>0</bpm>
<rpm>0.00</rpm>
</extensions>
</trkpt>
<trkpt lat="30.618537903" lon="34.800903320">
<ele>828.343750</ele>
<time>2013-11-22T06:16:08Z</time>
<speed>4.320000</speed>
<extensions>
<speed>4.3</speed>
<temp>0.00</temp>
<bpm>0</bpm>
<rpm>0.00</rpm>
</extensions>
</trkpt>
<trkpt lat="30.618535995" lon="34.800666809">
<ele>826.234375</ele>
<time>2013-11-22T06:16:13Z</time>
<speed>4.880000</speed>
<extensions>
<speed>4.9</speed>
<temp>0.00</temp>
<bpm>0</bpm>
<rpm>0.00</rpm>
</extensions>
</trkpt>
<trkpt lat="30.618461609" lon="34.800464630">
<ele>825.562500</ele>
<time>2013-11-22T06:16:18Z</time>
<speed>4.010000</speed>
<extensions>
<speed>4.0</speed>
<temp>0.00</temp>
<bpm>0</bpm>
<rpm>0.00</rpm>
</extensions>
</trkpt>
<trkpt lat="30.618316650" lon="34.800411224">
<ele>827.328125</ele>
<time>2013-11-22T06:16:23Z</time>
<speed>3.690000</speed>
<extensions>
<speed>3.7</speed>
<temp>0.00</temp>
<bpm>0</bpm>
<rpm>0.00</rpm>
</extensions>
</trkpt>
<trkpt lat="30.618133545" lon="34.800464630">
<ele>828.359375</ele>
<time>2013-11-22T06:16:28Z</time>
<speed>4.500000</speed>
<extensions>
<speed>4.5</speed>
<temp>0.00</temp>
<bpm>0</bpm>
<rpm>0.00</rpm>
</extensions>
</trkpt>
<trkpt lat="30.617954254" lon="34.800533295">
<ele>829.562500</ele>
<time>2013-11-22T06:16:33Z</time>
<speed>3.930000</speed>
<extensions>
<speed>3.9</speed>
<temp>0.00</temp>
<bpm>0</bpm>
<rpm>0.00</rpm>
</extensions>
</trkpt>
<trkpt lat="30.617763519" lon="34.800579071">
<ele>829.718750</ele>
<time>2013-11-22T06:16:38Z</time>
<speed>4.150000</speed>
<extensions>
<speed>4.1</speed>
<temp>0.00</temp>
<bpm>0</bpm>
<rpm>0.00</rpm>
</extensions>
</trkpt>
<trkpt lat="30.617610931" lon="34.800605774">
<ele>830.562500</ele>
<time>2013-11-22T06:16:43Z</time>
<speed>2.770000</speed>
<extensions>
<speed>2.8</speed>
<temp>0.00</temp>
<bpm>0</bpm>
<rpm>0.00</rpm>
</extensions>
</trkpt>
<trkpt lat="30.617536545" lon="34.800605774">
<ele>829.968750</ele>
<time>2013-11-22T06:16:48Z</time>
<speed>0.110000</speed>
<extensions>
<speed>0.1</speed>
<temp>0.00</temp>
<bpm>0</bpm>
<rpm>0.00</rpm>
</extensions>
</trkpt>
<trkpt lat="30.617536545" lon="34.800605774">
<ele>829.593750</ele>
<time>2013-11-22T06:16:53Z</time>
<speed>0.030000</speed>
<extensions>
<speed>0.0</speed>
<temp>0.00</temp>
<bpm>0</bpm>
<rpm>0.00</rpm>
</extensions>
</trkpt>
<trkpt lat="30.617498398" lon="34.800613403">
<ele>829.656250</ele>
<time>2013-11-22T06:16:58Z</time>
<speed>2.240000</speed>
<extensions>
<speed>2.2</speed>
<temp>0.00</temp>
<bpm>0</bpm>
<rpm>0.00</rpm>
</extensions>
</trkpt>
<trkpt lat="30.617355347" lon="34.800613403">
<ele>829.703125</ele>
<time>2013-11-22T06:17:03Z</time>
<speed>3.710000</speed>
<extensions>
<speed>3.7</speed>
<temp>0.00</temp>
<bpm>0</bpm>
<rpm>0.00</rpm>
</extensions>
</trkpt>
<trkpt lat="30.617191315" lon="34.800609589">
<ele>829.718750</ele>
<time>2013-11-22T06:17:08Z</time>
<speed>3.810000</speed>
<extensions>
<speed>3.8</speed>
<temp>0.00</temp>
<bpm>0</bpm>
<rpm>0.00</rpm>
</extensions>
</trkpt>
<trkpt lat="30.617015839" lon="34.800575256">
<ele>829.625000</ele>
<time>2013-11-22T06:17:13Z</time>
<speed>3.990000</speed>
<extensions>
<speed>4.0</speed>
<temp>0.00</temp>
<bpm>0</bpm>
<rpm>0.00</rpm>
</extensions>
</trkpt>
<trkpt lat="30.616867065" lon="34.800525665">
<ele>829.093750</ele>
<time>2013-11-22T06:17:18Z</time>
<speed>2.640000</speed>
<extensions>
<speed>2.6</speed>
<temp>0.00</temp>
<bpm>0</bpm>
<rpm>0.00</rpm>
</extensions>
</trkpt>
<trkpt lat="30.616792679" lon="34.800491333">
<ele>828.562500</ele>
<time>2013-11-22T06:17:23Z</time>
<speed>1.670000</speed>
<extensions>
<speed>1.7</speed>
<temp>0.00</temp>
<bpm>0</bpm>
<rpm>0.00</rpm>
</extensions>
</trkpt>
<trkpt lat="30.616729736" lon="34.800464630">
<ele>828.062500</ele>
<time>2013-11-22T06:17:28Z</time>
<speed>1.820000</speed>
<extensions>
<speed>1.8</speed>
<temp>0.00</temp>
<bpm>0</bpm>
<rpm>0.00</rpm>
</extensions>
</trkpt>
<trkpt lat="30.616638184" lon="34.800506592">
<ele>829.421875</ele>
<time>2013-11-22T06:17:33Z</time>
<speed>2.830000</speed>
<extensions>
<speed>2.8</speed>
<temp>0.00</temp>
<bpm>0</bpm>
<rpm>0.00</rpm>
</extensions>
</trkpt>
<trkpt lat="30.616525650" lon="34.800598145">
<ele>830.250000</ele>
<time>2013-11-22T06:17:38Z</time>
<speed>3.230000</speed>
<extensions>
<speed>3.2</speed>
<temp>0.00</temp>
<bpm>0</bpm>
<rpm>0.00</rpm>
</extensions>
</trkpt>
<trkpt lat="30.616485596" lon="34.800750732">
<ele>831.125000</ele>
<time>2013-11-22T06:17:43Z</time>
<speed>2.600000</speed>
<extensions>
<speed>2.6</speed>
<temp>0.00</temp>
<bpm>0</bpm>
<rpm>0.00</rpm>
</extensions>
</trkpt>
<trkpt lat="30.616460800" lon="34.800910950">
<ele>831.765625</ele>
<time>2013-11-22T06:17:48Z</time>
<speed>3.090000</speed>
<extensions>
<speed>3.1</speed>
<temp>0.00</temp>
<bpm>0</bpm>
<rpm>0.00</rpm>
</extensions>
</trkpt>
<trkpt lat="30.616436005" lon="34.801067352">
<ele>832.765625</ele>
<time>2013-11-22T06:17:53Z</time>
<speed>3.000000</speed>
<extensions>
<speed>3.0</speed>
<temp>0.00</temp>
<bpm>0</bpm>
<rpm>0.00</rpm>
</extensions>
</trkpt>
<trkpt lat="30.616407394" lon="34.801197052">
<ele>833.296875</ele>
<time>2013-11-22T06:17:58Z</time>
<speed>1.690000</speed>
<extensions>
<speed>1.7</speed>
<temp>0.00</temp>
<bpm>0</bpm>
<rpm>0.00</rpm>
</extensions>
</trkpt>
<trkpt lat="30.616390228" lon="34.801296234">
<ele>833.828125</ele>
<time>2013-11-22T06:18:03Z</time>
<speed>2.260000</speed>
<extensions>
<speed>2.3</speed>
<temp>0.00</temp>
<bpm>0</bpm>
<rpm>0.00</rpm>
</extensions>
</trkpt>
<trkpt lat="30.616374969" lon="34.801441193">
<ele>834.781250</ele>
<time>2013-11-22T06:18:08Z</time>
<speed>3.240000</speed>
<extensions>
<speed>3.2</speed>
<temp>0.00</temp>
<bpm>0</bpm>
<rpm>0.00</rpm>
</extensions>
</trkpt>
<trkpt lat="30.616348267" lon="34.801616669">
<ele>835.437500</ele>
<time>2013-11-22T06:18:13Z</time>
<speed>3.550000</speed>
<extensions>
<speed>3.5</speed>
<temp>0.00</temp>
<bpm>0</bpm>
<rpm>0.00</rpm>
</extensions>
</trkpt>
<trkpt lat="30.616323471" lon="34.801811218">
<ele>836.203125</ele>
<time>2013-11-22T06:18:18Z</time>
<speed>3.850000</speed>
<extensions>
<speed>3.8</speed>
<temp>0.00</temp>
<bpm>0</bpm>
<rpm>0.00</rpm>
</extensions>
</trkpt>
<trkpt lat="30.616306305" lon="34.802021027">
<ele>836.906250</ele>
<time>2013-11-22T06:18:23Z</time>
<speed>4.190000</speed>
<extensions>
<speed>4.2</speed>
<temp>0.00</temp>
<bpm>0</bpm>
<rpm>0.00</rpm>
</extensions>
</trkpt>
<trkpt lat="30.616281509" lon="34.802234650">
<ele>837.375000</ele>
<time>2013-11-22T06:18:28Z</time>
<speed>4.170000</speed>
<extensions>
<speed>4.2</speed>
<temp>0.00</temp>
<bpm>0</bpm>
<rpm>0.00</rpm>
</extensions>
</trkpt>
<trkpt lat="30.616268158" lon="34.802448273">
<ele>837.453125</ele>
<time>2013-11-22T06:18:33Z</time>
<speed>4.250000</speed>
<extensions>
<speed>4.3</speed>
<temp>0.00</temp>
<bpm>0</bpm>
<rpm>0.00</rpm>
</extensions>
</trkpt>
<trkpt lat="30.616250992" lon="34.802684784">
<ele>836.765625</ele>
<time>2013-11-22T06:18:38Z</time>
<speed>4.750000</speed>
<extensions>
<speed>4.8</speed>
<temp>0.00</temp>
<bpm>0</bpm>
<rpm>0.00</rpm>
</extensions>
</trkpt>
<trkpt lat="30.616230011" lon="34.802913666">
<ele>836.578125</ele>
<time>2013-11-22T06:18:43Z</time>
<speed>4.210000</speed>
<extensions>
<speed>4.2</speed>
<temp>0.00</temp>
<bpm>0</bpm>
<rpm>0.00</rpm>
</extensions>
</trkpt>
<trkpt lat="30.616224289" lon="34.803127289">
<ele>836.203125</ele>
<time>2013-11-22T06:18:48Z</time>
<speed>3.930000</speed>
<extensions>
<speed>3.9</speed>
<temp>0.00</temp>
<bpm>0</bpm>
<rpm>0.00</rpm>
</extensions>
</trkpt>
<trkpt lat="30.616222382" lon="34.803321838">
<ele>836.015625</ele>
<time>2013-11-22T06:18:53Z</time>
<speed>3.620000</speed>
<extensions>
<speed>3.6</speed>
<temp>0.00</temp>
<bpm>0</bpm>
<rpm>0.00</rpm>
</extensions>
</trkpt>
<trkpt lat="30.616119385" lon="34.803440094">
<ele>835.828125</ele>
<time>2013-11-22T06:18:58Z</time>
<speed>3.480000</speed>
<extensions>
<speed>3.5</speed>
<temp>0.00</temp>
<bpm>0</bpm>
<rpm>0.00</rpm>
</extensions>
</trkpt>
<trkpt lat="30.615972519" lon="34.803436279">
<ele>835.578125</ele>
<time>2013-11-22T06:19:03Z</time>
<speed>3.160000</speed>
<extensions>
<speed>3.2</speed>
<temp>0.00</temp>
<bpm>0</bpm>
<rpm>0.00</rpm>
</extensions>
</trkpt>
<trkpt lat="30.615837097" lon="34.803428650">
<ele>835.343750</ele>
<time>2013-11-22T06:19:08Z</time>
<speed>2.960000</speed>
<extensions>
<speed>3.0</speed>
<temp>0.00</temp>
<bpm>0</bpm>
<rpm>0.00</rpm>
</extensions>
</trkpt>
<trkpt lat="30.615703583" lon="34.803428650">
<ele>834.968750</ele>
<time>2013-11-22T06:19:13Z</time>
<speed>2.950000</speed>
<extensions>
<speed>2.9</speed>
<temp>0.00</temp>
<bpm>0</bpm>
<rpm>0.00</rpm>
</extensions>
</trkpt>
<trkpt lat="30.615560532" lon="34.803432465">
<ele>834.593750</ele>
<time>2013-11-22T06:19:18Z</time>
<speed>3.010000</speed>
<extensions>
<speed>3.0</speed>
<temp>0.00</temp>
<bpm>0</bpm>
<rpm>0.00</rpm>
</extensions>
</trkpt>
<trkpt lat="30.615419388" lon="34.803413391">
<ele>834.187500</ele>
<time>2013-11-22T06:19:23Z</time>
<speed>3.130000</speed>
<extensions>
<speed>3.1</speed>
<temp>0.00</temp>
<bpm>0</bpm>
<rpm>0.00</rpm>
</extensions>
</trkpt>
<trkpt lat="30.615268707" lon="34.803417206">
<ele>833.578125</ele>
<time>2013-11-22T06:19:28Z</time>
<speed>3.560000</speed>
<extensions>
<speed>3.6</speed>
<temp>0.00</temp>
<bpm>0</bpm>
<rpm>0.00</rpm>
</extensions>
</trkpt>
<trkpt lat="30.615110397" lon="34.803421021">
<ele>833.265625</ele>
<time>2013-11-22T06:19:33Z</time>
<speed>3.720000</speed>
<extensions>
<speed>3.7</speed>
<temp>0.00</temp>
<bpm>0</bpm>
<rpm>0.00</rpm>
</extensions>
</trkpt>
<trkpt lat="30.614938736" lon="34.803424835">
<ele>832.593750</ele>
<time>2013-11-22T06:19:38Z</time>
<speed>4.120000</speed>
<extensions>
<speed>4.1</speed>
<temp>0.00</temp>
<bpm>0</bpm>
<rpm>0.00</rpm>
</extensions>
</trkpt>
<trkpt lat="30.614736557" lon="34.803436279">
<ele>831.953125</ele>
<time>2013-11-22T06:19:43Z</time>
<speed>4.740000</speed>
<extensions>
<speed>4.7</speed>
<temp>0.00</temp>
<bpm>0</bpm>
<rpm>0.00</rpm>
</extensions>
</trkpt>
<trkpt lat="30.614522934" lon="34.803451538">
<ele>831.312500</ele>
<time>2013-11-22T06:19:48Z</time>
<speed>4.720000</speed>
<extensions>
<speed>4.7</speed>
<temp>0.00</temp>
<bpm>0</bpm>
<rpm>0.00</rpm>
</extensions>
</trkpt>
<trkpt lat="30.614309311" lon="34.803459167">
<ele>831.156250</ele>
<time>2013-11-22T06:19:53Z</time>
<speed>4.740000</speed>
<extensions>
<speed>4.7</speed>
<temp>0.00</temp>
<bpm>0</bpm>
<rpm>0.00</rpm>
</extensions>
</trkpt>
<trkpt lat="30.614089966" lon="34.803508759">
<ele>830.671875</ele>
<time>2013-11-22T06:19:58Z</time>
<speed>4.900000</speed>
<extensions>
<speed>4.9</speed>
<temp>0.00</temp>
<bpm>0</bpm>
<rpm>0.00</rpm>
</extensions>
</trkpt>
<trkpt lat="30.613872528" lon="34.803565979">
<ele>830.234375</ele>
<time>2013-11-22T06:20:03Z</time>
<speed>4.810000</speed>
<extensions>
<speed>4.8</speed>
<temp>0.00</temp>
<bpm>0</bpm>
<rpm>0.00</rpm>
</extensions>
</trkpt>
<trkpt lat="30.613672256" lon="34.803623199">
<ele>830.328125</ele>
<time>2013-11-22T06:20:08Z</time>
<speed>4.070000</speed>
<extensions>
<speed>4.1</speed>
<temp>0.00</temp>
<bpm>0</bpm>
<rpm>0.00</rpm>
</extensions>
</trkpt>
<trkpt lat="30.613515854" lon="34.803684235">
<ele>830.625000</ele>
<time>2013-11-22T06:20:13Z</time>
<speed>2.860000</speed>
<extensions>
<speed>2.9</speed>
<temp>0.00</temp>
<bpm>0</bpm>
<rpm>0.00</rpm>
</extensions>
</trkpt>
<trkpt lat="30.613395691" lon="34.803741455">
<ele>831.609375</ele>
<time>2013-11-22T06:20:18Z</time>
<speed>3.040000</speed>
<extensions>
<speed>3.0</speed>
<temp>0.00</temp>
<bpm>0</bpm>
<rpm>0.00</rpm>
</extensions>
</trkpt>
<trkpt lat="30.613275528" lon="34.803783417">
<ele>832.375000</ele>
<time>2013-11-22T06:20:23Z</time>
<speed>2.250000</speed>
<extensions>
<speed>2.3</speed>
<temp>0.00</temp>
<bpm>0</bpm>
<rpm>0.00</rpm>
</extensions>
</trkpt>
<trkpt lat="30.613157272" lon="34.803764343">
<ele>832.109375</ele>
<time>2013-11-22T06:20:28Z</time>
<speed>3.050000</speed>
<extensions>
<speed>3.0</speed>
<temp>0.00</temp>
<bpm>0</bpm>
<rpm>0.00</rpm>
</extensions>
</trkpt>
<trkpt lat="30.613037109" lon="34.803684235">
<ele>831.546875</ele>
<time>2013-11-22T06:20:33Z</time>
<speed>3.270000</speed>
<extensions>
<speed>3.3</speed>
<temp>0.00</temp>
<bpm>0</bpm>
<rpm>0.00</rpm>
</extensions>
</trkpt>
<trkpt lat="30.612930298" lon="34.803642273">
<ele>831.656250</ele>
<time>2013-11-22T06:20:38Z</time>
<speed>1.680000</speed>
<extensions>
<speed>1.7</speed>
<temp>0.00</temp>
<bpm>0</bpm>
<rpm>0.00</rpm>
</extensions>
</trkpt>
<trkpt lat="30.612886429" lon="34.803619385">
<ele>831.796875</ele>
<time>2013-11-22T06:20:43Z</time>
<speed>1.360000</speed>
<extensions>
<speed>1.4</speed>
<temp>0.00</temp>
<bpm>0</bpm>
<rpm>0.00</rpm>
</extensions>
</trkpt>
<trkpt lat="30.612823486" lon="34.803623199">
<ele>832.171875</ele>
<time>2013-11-22T06:20:48Z</time>
<speed>2.180000</speed>
<extensions>
<speed>2.2</speed>
<temp>0.00</temp>
<bpm>0</bpm>
<rpm>0.00</rpm>
</extensions>
</trkpt>
<trkpt lat="30.612731934" lon="34.803699493">
<ele>832.859375</ele>
<time>2013-11-22T06:20:53Z</time>
<speed>3.110000</speed>
<extensions>
<speed>3.1</speed>
<temp>0.00</temp>
<bpm>0</bpm>
<rpm>0.00</rpm>
</extensions>
</trkpt>
<trkpt lat="30.612628937" lon="34.803821564">
<ele>833.687500</ele>
<time>2013-11-22T06:20:58Z</time>
<speed>3.230000</speed>
<extensions>
<speed>3.2</speed>
<temp>0.00</temp>
<bpm>0</bpm>
<rpm>0.00</rpm>
</extensions>
</trkpt>
<trkpt lat="30.612596512" lon="34.803985596">
<ele>833.984375</ele>
<time>2013-11-22T06:21:03Z</time>
<speed>3.260000</speed>
<extensions>
<speed>3.3</speed>
<temp>0.00</temp>
<bpm>0</bpm>
<rpm>0.00</rpm>
</extensions>
</trkpt>
<trkpt lat="30.612615585" lon="34.804145813">
<ele>833.437500</ele>
<time>2013-11-22T06:21:08Z</time>
<speed>3.240000</speed>
<extensions>
<speed>3.2</speed>
<temp>0.00</temp>
<bpm>0</bpm>
<rpm>0.00</rpm>
</extensions>
</trkpt>
<trkpt lat="30.612573624" lon="34.804233551">
<ele>833.734375</ele>
<time>2013-11-22T06:21:13Z</time>
<speed>1.510000</speed>
<extensions>
<speed>1.5</speed>
<temp>0.00</temp>
<bpm>0</bpm>
<rpm>0.00</rpm>
</extensions>
</trkpt>
<trkpt lat="30.612525940" lon="34.804252625">
<ele>834.125000</ele>
<time>2013-11-22T06:21:18Z</time>
<speed>1.060000</speed>
<extensions>
<speed>1.1</speed>
<temp>0.00</temp>
<bpm>0</bpm>
<rpm>0.00</rpm>
</extensions>
</trkpt>
<trkpt lat="30.612455368" lon="34.804286957">
<ele>834.281250</ele>
<time>2013-11-22T06:21:23Z</time>
<speed>2.510000</speed>
<extensions>
<speed>2.5</speed>
<temp>0.00</temp>
<bpm>0</bpm>
<rpm>0.00</rpm>
</extensions>
</trkpt>
<trkpt lat="30.612371445" lon="34.804355621">
<ele>835.062500</ele>
<time>2013-11-22T06:21:28Z</time>
<speed>1.820000</speed>
<extensions>
<speed>1.8</speed>
<temp>0.00</temp>
<bpm>0</bpm>
<rpm>0.00</rpm>
</extensions>
</trkpt>
<trkpt lat="30.612304688" lon="34.804405212">
<ele>835.453125</ele>
<time>2013-11-22T06:21:33Z</time>
<speed>1.760000</speed>
<extensions>
<speed>1.8</speed>
<temp>0.00</temp>
<bpm>0</bpm>
<rpm>0.00</rpm>
</extensions>
</trkpt>
<trkpt lat="30.612266541" lon="34.804447174">
<ele>836.734375</ele>
<time>2013-11-22T06:21:38Z</time>
<speed>1.600000</speed>
<extensions>
<speed>1.6</speed>
<temp>0.00</temp>
<bpm>0</bpm>
<rpm>0.00</rpm>
</extensions>
</trkpt>
<trkpt lat="30.612298965" lon="34.804546356">
<ele>836.296875</ele>
<time>2013-11-22T06:21:43Z</time>
<speed>2.320000</speed>
<extensions>
<speed>2.3</speed>
<temp>0.00</temp>
<bpm>0</bpm>
<rpm>0.00</rpm>
</extensions>
</trkpt>
<trkpt lat="30.612396240" lon="34.804645538">
<ele>835.703125</ele>
<time>2013-11-22T06:21:48Z</time>
<speed>2.940000</speed>
<extensions>
<speed>2.9</speed>
<temp>0.00</temp>
<bpm>0</bpm>
<rpm>0.00</rpm>
</extensions>
</trkpt>
<trkpt lat="30.612426758" lon="34.804695129">
<ele>835.468750</ele>
<time>2013-11-22T06:21:53Z</time>
<speed>0.360000</speed>
<extensions>
<speed>0.4</speed>
<temp>0.00</temp>
<bpm>0</bpm>
<rpm>0.00</rpm>
</extensions>
</trkpt>
<trkpt lat="30.612426758" lon="34.804698944">
<ele>835.218750</ele>
<time>2013-11-22T06:21:58Z</time>
<speed>0.800000</speed>
<extensions>
<speed>0.8</speed>
<temp>0.00</temp>
<bpm>0</bpm>
<rpm>0.00</rpm>
</extensions>
</trkpt>
<trkpt lat="30.612417221" lon="34.804721832">
<ele>834.609375</ele>
<time>2013-11-22T06:22:03Z</time>
<speed>0.110000</speed>
<extensions>
<speed>0.1</speed>
<temp>0.00</temp>
<bpm>0</bpm>
<rpm>0.00</rpm>
</extensions>
</trkpt>
<trkpt lat="30.612419128" lon="34.804725647">
<ele>834.328125</ele>
<time>2013-11-22T06:22:08Z</time>
<speed>0.150000</speed>
<extensions>
<speed>0.2</speed>
<temp>0.00</temp>
<bpm>0</bpm>
<rpm>0.00</rpm>
</extensions>
</trkpt>
<trkpt lat="30.612422943" lon="34.804729462">
<ele>834.125000</ele>
<time>2013-11-22T06:22:13Z</time>
<speed>0.150000</speed>
<extensions>
<speed>0.2</speed>
<temp>0.00</temp>
<bpm>0</bpm>
<rpm>0.00</rpm>
</extensions>
</trkpt>
<trkpt lat="30.612428665" lon="34.804737091">
<ele>834.062500</ele>
<time>2013-11-22T06:22:18Z</time>
<speed>0.390000</speed>
<extensions>
<speed>0.4</speed>
<temp>0.00</temp>
<bpm>0</bpm>
<rpm>0.00</rpm>
</extensions>
</trkpt>
<trkpt lat="30.612422943" lon="34.804733276">
<ele>834.343750</ele>
<time>2013-11-22T06:22:23Z</time>
<speed>0.220000</speed>
<extensions>
<speed>0.2</speed>
<temp>0.00</temp>
<bpm>0</bpm>
<rpm>0.00</rpm>
</extensions>
</trkpt>
<trkpt lat="30.612424850" lon="34.804744720">
<ele>834.312500</ele>
<time>2013-11-22T06:22:28Z</time>
<speed>0.200000</speed>
<extensions>
<speed>0.2</speed>
<temp>0.00</temp>
<bpm>0</bpm>
<rpm>0.00</rpm>
</extensions>
</trkpt>
<trkpt lat="30.612428665" lon="34.804748535">
<ele>834.203125</ele>
<time>2013-11-22T06:22:33Z</time>
<speed>0.100000</speed>
<extensions>
<speed>0.1</speed>
<temp>0.00</temp>
<bpm>0</bpm>
<rpm>0.00</rpm>
</extensions>
</trkpt>
<trkpt lat="30.612430573" lon="34.804752350">
<ele>834.125000</ele>
<time>2013-11-22T06:22:38Z</time>
<speed>0.100000</speed>
<extensions>
<speed>0.1</speed>
<temp>0.00</temp>
<bpm>0</bpm>
<rpm>0.00</rpm>
</extensions>
</trkpt>
<trkpt lat="30.612434387" lon="34.804756165">
<ele>834.031250</ele>
<time>2013-11-22T06:22:43Z</time>
<speed>0.040000</speed>
<extensions>
<speed>0.0</speed>
<temp>0.00</temp>
<bpm>0</bpm>
<rpm>0.00</rpm>
</extensions>
</trkpt>
<trkpt lat="30.612432480" lon="34.804752350">
<ele>833.953125</ele>
<time>2013-11-22T06:22:48Z</time>
<speed>0.010000</speed>
<extensions>
<speed>0.0</speed>
<temp>0.00</temp>
<bpm>0</bpm>
<rpm>0.00</rpm>
</extensions>
</trkpt>
<trkpt lat="30.612432480" lon="34.804752350">
<ele>833.890625</ele>
<time>2013-11-22T06:22:53Z</time>
<speed>0.010000</speed>
<extensions>
<speed>0.0</speed>
<temp>0.00</temp>
<bpm>0</bpm>
<rpm>0.00</rpm>
</extensions>
</trkpt>
<trkpt lat="30.612432480" lon="34.804752350">
<ele>833.906250</ele>
<time>2013-11-22T06:22:58Z</time>
<speed>0.020000</speed>
<extensions>
<speed>0.0</speed>
<temp>0.00</temp>
<bpm>0</bpm>
<rpm>0.00</rpm>
</extensions>
</trkpt>
<trkpt lat="30.612432480" lon="34.804752350">
<ele>833.906250</ele>
<time>2013-11-22T06:23:03Z</time>
<speed>0.010000</speed>
<extensions>
<speed>0.0</speed>
<temp>0.00</temp>
<bpm>0</bpm>
<rpm>0.00</rpm>
</extensions>
</trkpt>
<trkpt lat="30.612432480" lon="34.804752350">
<ele>833.921875</ele>
<time>2013-11-22T06:23:08Z</time>
<speed>0.010000</speed>
<extensions>
<speed>0.0</speed>
<temp>0.00</temp>
<bpm>0</bpm>
<rpm>0.00</rpm>
</extensions>
</trkpt>
<trkpt lat="30.612432480" lon="34.804748535">
<ele>833.921875</ele>
<time>2013-11-22T06:23:13Z</time>
<speed>0.020000</speed>
<extensions>
<speed>0.0</speed>
<temp>0.00</temp>
<bpm>0</bpm>
<rpm>0.00</rpm>
</extensions>
</trkpt>
<trkpt lat="30.612432480" lon="34.804748535">
<ele>833.937500</ele>
<time>2013-11-22T06:23:18Z</time>
<speed>0.020000</speed>
<extensions>
<speed>0.0</speed>
<temp>0.00</temp>
<bpm>0</bpm>
<rpm>0.00</rpm>
</extensions>
</trkpt>
<trkpt lat="30.612432480" lon="34.804748535">
<ele>833.937500</ele>
<time>2013-11-22T06:23:23Z</time>
<extensions>
<speed>0.0</speed>
<temp>0.00</temp>
<bpm>0</bpm>
<rpm>0.00</rpm>
</extensions>
</trkpt>
<trkpt lat="30.612432480" lon="34.804748535">
<ele>833.937500</ele>
<time>2013-11-22T06:23:28Z</time>
<extensions>
<speed>0.0</speed>
<temp>0.00</temp>
<bpm>0</bpm>
<rpm>0.00</rpm>
</extensions>
</trkpt>
<trkpt lat="30.612432480" lon="34.804748535">
<ele>833.937500</ele>
<time>2013-11-22T06:23:33Z</time>
<speed>0.010000</speed>
<extensions>
<speed>0.0</speed>
<temp>0.00</temp>
<bpm>0</bpm>
<rpm>0.00</rpm>
</extensions>
</trkpt>
<trkpt lat="30.612432480" lon="34.804748535">
<ele>833.921875</ele>
<time>2013-11-22T06:23:38Z</time>
<speed>0.020000</speed>
<extensions>
<speed>0.0</speed>
<temp>0.00</temp>
<bpm>0</bpm>
<rpm>0.00</rpm>
</extensions>
</trkpt>
<trkpt lat="30.612430573" lon="34.804748535">
<ele>833.921875</ele>
<time>2013-11-22T06:23:43Z</time>
<extensions>
<speed>0.0</speed>
<temp>0.00</temp>
<bpm>0</bpm>
<rpm>0.00</rpm>
</extensions>
</trkpt>
<trkpt lat="30.612430573" lon="34.804748535">
<ele>833.906250</ele>
<time>2013-11-22T06:23:48Z</time>
<speed>0.020000</speed>
<extensions>
<speed>0.0</speed>
<temp>0.00</temp>
<bpm>0</bpm>
<rpm>0.00</rpm>
</extensions>
</trkpt>
<trkpt lat="30.612430573" lon="34.804748535">
<ele>833.890625</ele>
<time>2013-11-22T06:23:53Z</time>
<speed>0.010000</speed>
<extensions>
<speed>0.0</speed>
<temp>0.00</temp>
<bpm>0</bpm>
<rpm>0.00</rpm>
</extensions>
</trkpt>
<trkpt lat="30.612430573" lon="34.804748535">
<ele>833.875000</ele>
<time>2013-11-22T06:23:58Z</time>
<extensions>
<speed>0.0</speed>
<temp>0.00</temp>
<bpm>0</bpm>
<rpm>0.00</rpm>
</extensions>
</trkpt>
<trkpt lat="30.612430573" lon="34.804748535">
<ele>833.875000</ele>
<time>2013-11-22T06:24:03Z</time>
<speed>0.010000</speed>
<extensions>
<speed>0.0</speed>
<temp>0.00</temp>
<bpm>0</bpm>
<rpm>0.00</rpm>
</extensions>
</trkpt>
<trkpt lat="30.612430573" lon="34.804744720">
<ele>833.859375</ele>
<time>2013-11-22T06:24:08Z</time>
<speed>0.010000</speed>
<extensions>
<speed>0.0</speed>
<temp>0.00</temp>
<bpm>0</bpm>
<rpm>0.00</rpm>
</extensions>
</trkpt>
<trkpt lat="30.612430573" lon="34.804748535">
<ele>833.859375</ele>
<time>2013-11-22T06:24:13Z</time>
<extensions>
<speed>0.0</speed>
<temp>0.00</temp>
<bpm>0</bpm>
<rpm>0.00</rpm>
</extensions>
</trkpt>
<trkpt lat="30.612430573" lon="34.804748535">
<ele>833.875000</ele>
<time>2013-11-22T06:24:18Z</time>
<extensions>
<speed>0.0</speed>
<temp>0.00</temp>
<bpm>0</bpm>
<rpm>0.00</rpm>
</extensions>
</trkpt>
<trkpt lat="30.612430573" lon="34.804748535">
<ele>833.875000</ele>
<time>2013-11-22T06:24:23Z</time>
<speed>0.010000</speed>
<extensions>
<speed>0.0</speed>
<temp>0.00</temp>
<bpm>0</bpm>
<rpm>0.00</rpm>
</extensions>
</trkpt>
<trkpt lat="30.612430573" lon="34.804744720">
<ele>833.859375</ele>
<time>2013-11-22T06:24:28Z</time>
<extensions>
<speed>0.0</speed>
<temp>0.00</temp>
<bpm>0</bpm>
<rpm>0.00</rpm>
</extensions>
</trkpt>
<trkpt lat="30.612430573" lon="34.804744720">
<ele>833.843750</ele>
<time>2013-11-22T06:24:33Z</time>
<extensions>
<speed>0.0</speed>
<temp>0.00</temp>
<bpm>0</bpm>
<rpm>0.00</rpm>
</extensions>
</trkpt>
<trkpt lat="30.612430573" lon="34.804744720">
<ele>833.843750</ele>
<time>2013-11-22T06:24:38Z</time>
<extensions>
<speed>0.0</speed>
<temp>0.00</temp>
<bpm>0</bpm>
<rpm>0.00</rpm>
</extensions>
</trkpt>
<trkpt lat="30.612430573" lon="34.804744720">
<ele>833.859375</ele>
<time>2013-11-22T06:24:43Z</time>
<extensions>
<speed>0.0</speed>
<temp>0.00</temp>
<bpm>0</bpm>
<rpm>0.00</rpm>
</extensions>
</trkpt>
<trkpt lat="30.612430573" lon="34.804744720">
<ele>833.859375</ele>
<time>2013-11-22T06:24:48Z</time>
<speed>0.010000</speed>
<extensions>
<speed>0.0</speed>
<temp>0.00</temp>
<bpm>0</bpm>
<rpm>0.00</rpm>
</extensions>
</trkpt>
<trkpt lat="30.612430573" lon="34.804744720">
<ele>833.859375</ele>
<time>2013-11-22T06:24:53Z</time>
<speed>0.010000</speed>
<extensions>
<speed>0.0</speed>
<temp>0.00</temp>
<bpm>0</bpm>
<rpm>0.00</rpm>
</extensions>
</trkpt>
<trkpt lat="30.612430573" lon="34.804744720">
<ele>833.875000</ele>
<time>2013-11-22T06:24:58Z</time>
<extensions>
<speed>0.0</speed>
<temp>0.00</temp>
<bpm>0</bpm>
<rpm>0.00</rpm>
</extensions>
</trkpt>
<trkpt lat="30.612430573" lon="34.804744720">
<ele>833.890625</ele>
<time>2013-11-22T06:25:03Z</time>
<extensions>
<speed>0.0</speed>
<temp>0.00</temp>
<bpm>0</bpm>
<rpm>0.00</rpm>
</extensions>
</trkpt>
<trkpt lat="30.612430573" lon="34.804744720">
<ele>833.906250</ele>
<time>2013-11-22T06:25:08Z</time>
<extensions>
<speed>0.0</speed>
<temp>0.00</temp>
<bpm>0</bpm>
<rpm>0.00</rpm>
</extensions>
</trkpt>
<trkpt lat="30.612430573" lon="34.804744720">
<ele>833.906250</ele>
<time>2013-11-22T06:25:13Z</time>
<extensions>
<speed>0.0</speed>
<temp>0.00</temp>
<bpm>0</bpm>
<rpm>0.00</rpm>
</extensions>
</trkpt>
<trkpt lat="30.612422943" lon="34.804729462">
<ele>834.640625</ele>
<time>2013-11-22T06:25:18Z</time>
<extensions>
<speed>0.0</speed>
<temp>0.00</temp>
<bpm>0</bpm>
<rpm>0.00</rpm>
</extensions>
</trkpt>
<trkpt lat="30.612422943" lon="34.804725647">
<ele>835.093750</ele>
<time>2013-11-22T06:25:23Z</time>
<speed>0.010000</speed>
<extensions>
<speed>0.0</speed>
<temp>0.00</temp>
<bpm>0</bpm>
<rpm>0.00</rpm>
</extensions>
</trkpt>
<trkpt lat="30.612422943" lon="34.804725647">
<ele>835.359375</ele>
<time>2013-11-22T06:25:28Z</time>
<speed>0.010000</speed>
<extensions>
<speed>0.0</speed>
<temp>0.00</temp>
<bpm>0</bpm>
<rpm>0.00</rpm>
</extensions>
</trkpt>
<trkpt lat="30.612415314" lon="34.804718018">
<ele>836.078125</ele>
<time>2013-11-22T06:25:33Z</time>
<extensions>
<speed>0.0</speed>
<temp>0.00</temp>
<bpm>0</bpm>
<rpm>0.00</rpm>
</extensions>
</trkpt>
<trkpt lat="30.612409592" lon="34.804718018">
<ele>836.375000</ele>
<time>2013-11-22T06:25:38Z</time>
<speed>0.010000</speed>
<extensions>
<speed>0.0</speed>
<temp>0.00</temp>
<bpm>0</bpm>
<rpm>0.00</rpm>
</extensions>
</trkpt>
<trkpt lat="30.612390518" lon="34.804702759">
<ele>837.796875</ele>
<time>2013-11-22T06:25:43Z</time>
<extensions>
<speed>0.0</speed>
<temp>0.00</temp>
<bpm>0</bpm>
<rpm>0.00</rpm>
</extensions>
</trkpt>
<trkpt lat="30.612356186" lon="34.804664612">
<ele>840.062500</ele>
<time>2013-11-22T06:25:48Z</time>
<extensions>
<speed>0.0</speed>
<temp>0.00</temp>
<bpm>0</bpm>
<rpm>0.00</rpm>
</extensions>
</trkpt>
<trkpt lat="30.612327576" lon="34.804641724">
<ele>841.859375</ele>
<time>2013-11-22T06:25:53Z</time>
<speed>0.010000</speed>
<extensions>
<speed>0.0</speed>
<temp>0.00</temp>
<bpm>0</bpm>
<rpm>0.00</rpm>
</extensions>
</trkpt>
<trkpt lat="30.612297058" lon="34.804622650">
<ele>843.937500</ele>
<time>2013-11-22T06:25:58Z</time>
<speed>0.010000</speed>
<extensions>
<speed>0.0</speed>
<temp>0.00</temp>
<bpm>0</bpm>
<rpm>0.00</rpm>
</extensions>
</trkpt>
<trkpt lat="30.612297058" lon="34.804622650">
<ele>843.953125</ele>
<time>2013-11-22T06:26:03Z</time>
<extensions>
<speed>0.0</speed>
<temp>0.00</temp>
<bpm>0</bpm>
<rpm>0.00</rpm>
</extensions>
</trkpt>
<trkpt lat="30.612297058" lon="34.804622650">
<ele>843.984375</ele>
<time>2013-11-22T06:26:08Z</time>
<extensions>
<speed>0.0</speed>
<temp>0.00</temp>
<bpm>0</bpm>
<rpm>0.00</rpm>
</extensions>
</trkpt>
<trkpt lat="30.612297058" lon="34.804622650">
<ele>844.000000</ele>
<time>2013-11-22T06:26:13Z</time>
<speed>0.010000</speed>
<extensions>
<speed>0.0</speed>
<temp>0.00</temp>
<bpm>0</bpm>
<rpm>0.00</rpm>
</extensions>
</trkpt>
<trkpt lat="30.612297058" lon="34.804622650">
<ele>844.031250</ele>
<time>2013-11-22T06:26:18Z</time>
<extensions>
<speed>0.0</speed>
<temp>0.00</temp>
<bpm>0</bpm>
<rpm>0.00</rpm>
</extensions>
</trkpt>
<trkpt lat="30.612297058" lon="34.804622650">
<ele>844.046875</ele>
<time>2013-11-22T06:26:23Z</time>
<extensions>
<speed>0.0</speed>
<temp>0.00</temp>
<bpm>0</bpm>
<rpm>0.00</rpm>
</extensions>
</trkpt>
<trkpt lat="30.612297058" lon="34.804622650">
<ele>844.062500</ele>
<time>2013-11-22T06:26:28Z</time>
<extensions>
<speed>0.0</speed>
<temp>0.00</temp>
<bpm>0</bpm>
<rpm>0.00</rpm>
</extensions>
</trkpt>
<trkpt lat="30.612297058" lon="34.804622650">
<ele>844.078125</ele>
<time>2013-11-22T06:26:33Z</time>
<extensions>
<speed>0.0</speed>
<temp>0.00</temp>
<bpm>0</bpm>
<rpm>0.00</rpm>
</extensions>
</trkpt>
<trkpt lat="30.612297058" lon="34.804622650">
<ele>844.078125</ele>
<time>2013-11-22T06:26:38Z</time>
<extensions>
<speed>0.0</speed>
<temp>0.00</temp>
<bpm>0</bpm>
<rpm>0.00</rpm>
</extensions>
</trkpt>
<trkpt lat="30.612297058" lon="34.804622650">
<ele>844.093750</ele>
<time>2013-11-22T06:26:43Z</time>
<extensions>
<speed>0.0</speed>
<temp>0.00</temp>
<bpm>0</bpm>
<rpm>0.00</rpm>
</extensions>
</trkpt>
<trkpt lat="30.612297058" lon="34.804622650">
<ele>844.109375</ele>
<time>2013-11-22T06:26:48Z</time>
<extensions>
<speed>0.0</speed>
<temp>0.00</temp>
<bpm>0</bpm>
<rpm>0.00</rpm>
</extensions>
</trkpt>
<trkpt lat="30.612297058" lon="34.804622650">
<ele>844.125000</ele>
<time>2013-11-22T06:26:53Z</time>
<extensions>
<speed>0.0</speed>
<temp>0.00</temp>
<bpm>0</bpm>
<rpm>0.00</rpm>
</extensions>
</trkpt>
<trkpt lat="30.612295151" lon="34.804622650">
<ele>844.109375</ele>
<time>2013-11-22T06:26:58Z</time>
<extensions>
<speed>0.0</speed>
<temp>0.00</temp>
<bpm>0</bpm>
<rpm>0.00</rpm>
</extensions>
</trkpt>
<trkpt lat="30.612295151" lon="34.804622650">
<ele>844.109375</ele>
<time>2013-11-22T06:27:03Z</time>
<speed>0.010000</speed>
<extensions>
<speed>0.0</speed>
<temp>0.00</temp>
<bpm>0</bpm>
<rpm>0.00</rpm>
</extensions>
</trkpt>
<trkpt lat="30.612295151" lon="34.804618835">
<ele>844.109375</ele>
<time>2013-11-22T06:27:08Z</time>
<speed>0.010000</speed>
<extensions>
<speed>0.0</speed>
<temp>0.00</temp>
<bpm>0</bpm>
<rpm>0.00</rpm>
</extensions>
</trkpt>
<trkpt lat="30.612295151" lon="34.804618835">
<ele>844.125000</ele>
<time>2013-11-22T06:27:13Z</time>
<speed>0.010000</speed>
<extensions>
<speed>0.0</speed>
<temp>0.00</temp>
<bpm>0</bpm>
<rpm>0.00</rpm>
</extensions>
</trkpt>
<trkpt lat="30.612295151" lon="34.804618835">
<ele>844.140625</ele>
<time>2013-11-22T06:27:18Z</time>
<extensions>
<speed>0.0</speed>
<temp>0.00</temp>
<bpm>0</bpm>
<rpm>0.00</rpm>
</extensions>
</trkpt>
<trkpt lat="30.612295151" lon="34.804618835">
<ele>844.140625</ele>
<time>2013-11-22T06:27:23Z</time>
<extensions>
<speed>0.0</speed>
<temp>0.00</temp>
<bpm>0</bpm>
<rpm>0.00</rpm>
</extensions>
</trkpt>
<trkpt lat="30.612295151" lon="34.804618835">
<ele>844.140625</ele>
<time>2013-11-22T06:27:28Z</time>
<extensions>
<speed>0.0</speed>
<temp>0.00</temp>
<bpm>0</bpm>
<rpm>0.00</rpm>
</extensions>
</trkpt>
<trkpt lat="30.612295151" lon="34.804618835">
<ele>844.156250</ele>
<time>2013-11-22T06:27:33Z</time>
<extensions>
<speed>0.0</speed>
<temp>0.00</temp>
<bpm>0</bpm>
<rpm>0.00</rpm>
</extensions>
</trkpt>
<trkpt lat="30.612295151" lon="34.804618835">
<ele>844.140625</ele>
<time>2013-11-22T06:27:38Z</time>
<extensions>
<speed>0.0</speed>
<temp>0.00</temp>
<bpm>0</bpm>
<rpm>0.00</rpm>
</extensions>
</trkpt>
<trkpt lat="30.612295151" lon="34.804618835">
<ele>844.140625</ele>
<time>2013-11-22T06:27:43Z</time>
<speed>0.010000</speed>
<extensions>
<speed>0.0</speed>
<temp>0.00</temp>
<bpm>0</bpm>
<rpm>0.00</rpm>
</extensions>
</trkpt>
<trkpt lat="30.612295151" lon="34.804618835">
<ele>844.140625</ele>
<time>2013-11-22T06:27:48Z</time>
<speed>0.010000</speed>
<extensions>
<speed>0.0</speed>
<temp>0.00</temp>
<bpm>0</bpm>
<rpm>0.00</rpm>
</extensions>
</trkpt>
<trkpt lat="30.612295151" lon="34.804618835">
<ele>844.125000</ele>
<time>2013-11-22T06:27:53Z</time>
<speed>0.010000</speed>
<extensions>
<speed>0.0</speed>
<temp>0.00</temp>
<bpm>0</bpm>
<rpm>0.00</rpm>
</extensions>
</trkpt>
<trkpt lat="30.612295151" lon="34.804618835">
<ele>844.125000</ele>
<time>2013-11-22T06:27:58Z</time>
<speed>0.010000</speed>
<extensions>
<speed>0.0</speed>
<temp>0.00</temp>
<bpm>0</bpm>
<rpm>0.00</rpm>
</extensions>
</trkpt>
<trkpt lat="30.612295151" lon="34.804618835">
<ele>844.109375</ele>
<time>2013-11-22T06:28:03Z</time>
<speed>0.010000</speed>
<extensions>
<speed>0.0</speed>
<temp>0.00</temp>
<bpm>0</bpm>
<rpm>0.00</rpm>
</extensions>
</trkpt>
<trkpt lat="30.612297058" lon="34.804618835">
<ele>844.093750</ele>
<time>2013-11-22T06:28:08Z</time>
<extensions>
<speed>0.0</speed>
<temp>0.00</temp>
<bpm>0</bpm>
<rpm>0.00</rpm>
</extensions>
</trkpt>
<trkpt lat="30.612297058" lon="34.804618835">
<ele>844.078125</ele>
<time>2013-11-22T06:28:13Z</time>
<extensions>
<speed>0.0</speed>
<temp>0.00</temp>
<bpm>0</bpm>
<rpm>0.00</rpm>
</extensions>
</trkpt>
<trkpt lat="30.612297058" lon="34.804618835">
<ele>844.062500</ele>
<time>2013-11-22T06:28:18Z</time>
<speed>0.010000</speed>
<extensions>
<speed>0.0</speed>
<temp>0.00</temp>
<bpm>0</bpm>
<rpm>0.00</rpm>
</extensions>
</trkpt>
<trkpt lat="30.612297058" lon="34.804622650">
<ele>844.078125</ele>
<time>2013-11-22T06:28:23Z</time>
<speed>0.010000</speed>
<extensions>
<speed>0.0</speed>
<temp>0.00</temp>
<bpm>0</bpm>
<rpm>0.00</rpm>
</extensions>
</trkpt>
<trkpt lat="30.612297058" lon="34.804622650">
<ele>844.062500</ele>
<time>2013-11-22T06:28:28Z</time>
<speed>0.020000</speed>
<extensions>
<speed>0.0</speed>
<temp>0.00</temp>
<bpm>0</bpm>
<rpm>0.00</rpm>
</extensions>
</trkpt>
<trkpt lat="30.612297058" lon="34.804622650">
<ele>844.062500</ele>
<time>2013-11-22T06:28:33Z</time>
<speed>0.020000</speed>
<extensions>
<speed>0.0</speed>
<temp>0.00</temp>
<bpm>0</bpm>
<rpm>0.00</rpm>
</extensions>
</trkpt>
<trkpt lat="30.612297058" lon="34.804622650">
<ele>844.062500</ele>
<time>2013-11-22T06:28:38Z</time>
<speed>0.030000</speed>
<extensions>
<speed>0.0</speed>
<temp>0.00</temp>
<bpm>0</bpm>
<rpm>0.00</rpm>
</extensions>
</trkpt>
<trkpt lat="30.612297058" lon="34.804622650">
<ele>844.046875</ele>
<time>2013-11-22T06:28:43Z</time>
<speed>0.010000</speed>
<extensions>
<speed>0.0</speed>
<temp>0.00</temp>
<bpm>0</bpm>
<rpm>0.00</rpm>
</extensions>
</trkpt>
<trkpt lat="30.612297058" lon="34.804622650">
<ele>844.046875</ele>
<time>2013-11-22T06:28:48Z</time>
<extensions>
<speed>0.0</speed>
<temp>0.00</temp>
<bpm>0</bpm>
<rpm>0.00</rpm>
</extensions>
</trkpt>
<trkpt lat="30.612297058" lon="34.804622650">
<ele>844.031250</ele>
<time>2013-11-22T06:28:53Z</time>
<speed>0.070000</speed>
<extensions>
<speed>0.1</speed>
<temp>0.00</temp>
<bpm>0</bpm>
<rpm>0.00</rpm>
</extensions>
</trkpt>
<trkpt lat="30.612297058" lon="34.804622650">
<ele>844.031250</ele>
<time>2013-11-22T06:28:58Z</time>
<extensions>
<speed>0.0</speed>
<temp>0.00</temp>
<bpm>0</bpm>
<rpm>0.00</rpm>
</extensions>
</trkpt>
<trkpt lat="30.612297058" lon="34.804622650">
<ele>844.046875</ele>
<time>2013-11-22T06:29:03Z</time>
<extensions>
<speed>0.0</speed>
<temp>0.00</temp>
<bpm>0</bpm>
<rpm>0.00</rpm>
</extensions>
</trkpt>
<trkpt lat="30.612297058" lon="34.804622650">
<ele>844.031250</ele>
<time>2013-11-22T06:29:08Z</time>
<speed>0.010000</speed>
<extensions>
<speed>0.0</speed>
<temp>0.00</temp>
<bpm>0</bpm>
<rpm>0.00</rpm>
</extensions>
</trkpt>
<trkpt lat="30.612297058" lon="34.804622650">
<ele>844.031250</ele>
<time>2013-11-22T06:29:13Z</time>
<extensions>
<speed>0.0</speed>
<temp>0.00</temp>
<bpm>0</bpm>
<rpm>0.00</rpm>
</extensions>
</trkpt>
<trkpt lat="30.612297058" lon="34.804622650">
<ele>844.031250</ele>
<time>2013-11-22T06:29:18Z</time>
<extensions>
<speed>0.0</speed>
<temp>0.00</temp>
<bpm>0</bpm>
<rpm>0.00</rpm>
</extensions>
</trkpt>
<trkpt lat="30.612297058" lon="34.804622650">
<ele>844.015625</ele>
<time>2013-11-22T06:29:23Z</time>
<extensions>
<speed>0.0</speed>
<temp>0.00</temp>
<bpm>0</bpm>
<rpm>0.00</rpm>
</extensions>
</trkpt>
<trkpt lat="30.612297058" lon="34.804622650">
<ele>844.015625</ele>
<time>2013-11-22T06:29:28Z</time>
<extensions>
<speed>0.0</speed>
<temp>0.00</temp>
<bpm>0</bpm>
<rpm>0.00</rpm>
</extensions>
</trkpt>
<trkpt lat="30.612297058" lon="34.804622650">
<ele>844.046875</ele>
<time>2013-11-22T06:29:33Z</time>
<speed>0.020000</speed>
<extensions>
<speed>0.0</speed>
<temp>0.00</temp>
<bpm>0</bpm>
<rpm>0.00</rpm>
</extensions>
</trkpt>
<trkpt lat="30.612297058" lon="34.804622650">
<ele>844.046875</ele>
<time>2013-11-22T06:29:38Z</time>
<speed>0.010000</speed>
<extensions>
<speed>0.0</speed>
<temp>0.00</temp>
<bpm>0</bpm>
<rpm>0.00</rpm>
</extensions>
</trkpt>
<trkpt lat="30.612297058" lon="34.804622650">
<ele>844.046875</ele>
<time>2013-11-22T06:29:43Z</time>
<extensions>
<speed>0.0</speed>
<temp>0.00</temp>
<bpm>0</bpm>
<rpm>0.00</rpm>
</extensions>
</trkpt>
<trkpt lat="30.612295151" lon="34.804622650">
<ele>844.046875</ele>
<time>2013-11-22T06:29:48Z</time>
<speed>0.040000</speed>
<extensions>
<speed>0.0</speed>
<temp>0.00</temp>
<bpm>0</bpm>
<rpm>0.00</rpm>
</extensions>
</trkpt>
<trkpt lat="30.612293243" lon="34.804618835">
<ele>844.046875</ele>
<time>2013-11-22T06:29:53Z</time>
<speed>0.080000</speed>
<extensions>
<speed>0.1</speed>
<temp>0.00</temp>
<bpm>0</bpm>
<rpm>0.00</rpm>
</extensions>
</trkpt>
<trkpt lat="30.612293243" lon="34.804615021">
<ele>844.031250</ele>
<time>2013-11-22T06:29:58Z</time>
<speed>0.080000</speed>
<extensions>
<speed>0.1</speed>
<temp>0.00</temp>
<bpm>0</bpm>
<rpm>0.00</rpm>
</extensions>
</trkpt>
<trkpt lat="30.612291336" lon="34.804611206">
<ele>844.031250</ele>
<time>2013-11-22T06:30:03Z</time>
<speed>0.040000</speed>
<extensions>
<speed>0.0</speed>
<temp>0.00</temp>
<bpm>0</bpm>
<rpm>0.00</rpm>
</extensions>
</trkpt>
<trkpt lat="30.612289429" lon="34.804611206">
<ele>844.031250</ele>
<time>2013-11-22T06:30:08Z</time>
<speed>0.020000</speed>
<extensions>
<speed>0.0</speed>
<temp>0.00</temp>
<bpm>0</bpm>
<rpm>0.00</rpm>
</extensions>
</trkpt>
<trkpt lat="30.612289429" lon="34.804611206">
<ele>844.015625</ele>
<time>2013-11-22T06:30:13Z</time>
<speed>0.020000</speed>
<extensions>
<speed>0.0</speed>
<temp>0.00</temp>
<bpm>0</bpm>
<rpm>0.00</rpm>
</extensions>
</trkpt>
<trkpt lat="30.612291336" lon="34.804611206">
<ele>844.015625</ele>
<time>2013-11-22T06:30:18Z</time>
<speed>0.050000</speed>
<extensions>
<speed>0.1</speed>
<temp>0.00</temp>
<bpm>0</bpm>
<rpm>0.00</rpm>
</extensions>
</trkpt>
<trkpt lat="30.612293243" lon="34.804611206">
<ele>844.031250</ele>
<time>2013-11-22T06:30:23Z</time>
<speed>0.020000</speed>
<extensions>
<speed>0.0</speed>
<temp>0.00</temp>
<bpm>0</bpm>
<rpm>0.00</rpm>
</extensions>
</trkpt>
<trkpt lat="30.612293243" lon="34.804615021">
<ele>844.000000</ele>
<time>2013-11-22T06:30:28Z</time>
<speed>0.050000</speed>
<extensions>
<speed>0.1</speed>
<temp>0.00</temp>
<bpm>0</bpm>
<rpm>0.00</rpm>
</extensions>
</trkpt>
<trkpt lat="30.612291336" lon="34.804615021">
<ele>843.921875</ele>
<time>2013-11-22T06:30:33Z</time>
<speed>0.050000</speed>
<extensions>
<speed>0.1</speed>
<temp>0.00</temp>
<bpm>0</bpm>
<rpm>0.00</rpm>
</extensions>
</trkpt>
<trkpt lat="30.612300873" lon="34.804618835">
<ele>843.843750</ele>
<time>2013-11-22T06:30:38Z</time>
<speed>0.290000</speed>
<extensions>
<speed>0.3</speed>
<temp>0.00</temp>
<bpm>0</bpm>
<rpm>0.00</rpm>
</extensions>
</trkpt>
<trkpt lat="30.612339020" lon="34.804626465">
<ele>843.578125</ele>
<time>2013-11-22T06:30:43Z</time>
<speed>0.460000</speed>
<extensions>
<speed>0.5</speed>
<temp>0.00</temp>
<bpm>0</bpm>
<rpm>0.00</rpm>
</extensions>
</trkpt>
<trkpt lat="30.612415314" lon="34.804649353">
<ele>842.875000</ele>
<time>2013-11-22T06:30:48Z</time>
<speed>1.200000</speed>
<extensions>
<speed>1.2</speed>
<temp>0.00</temp>
<bpm>0</bpm>
<rpm>0.00</rpm>
</extensions>
</trkpt>
<trkpt lat="30.612493515" lon="34.804637909">
<ele>842.375000</ele>
<time>2013-11-22T06:30:53Z</time>
<speed>1.790000</speed>
<extensions>
<speed>1.8</speed>
<temp>0.00</temp>
<bpm>0</bpm>
<rpm>0.00</rpm>
</extensions>
</trkpt>
<trkpt lat="30.612579346" lon="34.804592133">
<ele>842.296875</ele>
<time>2013-11-22T06:30:58Z</time>
<speed>2.090000</speed>
<extensions>
<speed>2.1</speed>
<temp>0.00</temp>
<bpm>0</bpm>
<rpm>0.00</rpm>
</extensions>
</trkpt>
<trkpt lat="30.612579346" lon="34.804504395">
<ele>840.656250</ele>
<time>2013-11-22T06:31:03Z</time>
<speed>2.370000</speed>
<extensions>
<speed>2.4</speed>
<temp>0.00</temp>
<bpm>0</bpm>
<rpm>0.00</rpm>
</extensions>
</trkpt>
<trkpt lat="30.612487793" lon="34.804466248">
<ele>840.078125</ele>
<time>2013-11-22T06:31:08Z</time>
<speed>2.060000</speed>
<extensions>
<speed>2.1</speed>
<temp>0.00</temp>
<bpm>0</bpm>
<rpm>0.00</rpm>
</extensions>
</trkpt>
<trkpt lat="30.612369537" lon="34.804477692">
<ele>841.093750</ele>
<time>2013-11-22T06:31:13Z</time>
<speed>3.080000</speed>
<extensions>
<speed>3.1</speed>
<temp>0.00</temp>
<bpm>0</bpm>
<rpm>0.00</rpm>
</extensions>
</trkpt>
<trkpt lat="30.612268448" lon="34.804443359">
<ele>838.765625</ele>
<time>2013-11-22T06:31:18Z</time>
<speed>2.160000</speed>
<extensions>
<speed>2.2</speed>
<temp>0.00</temp>
<bpm>0</bpm>
<rpm>0.00</rpm>
</extensions>
</trkpt>
<trkpt lat="30.612312317" lon="34.804336548">
<ele>838.171875</ele>
<time>2013-11-22T06:31:23Z</time>
<speed>3.510000</speed>
<extensions>
<speed>3.5</speed>
<temp>0.00</temp>
<bpm>0</bpm>
<rpm>0.00</rpm>
</extensions>
</trkpt>
<trkpt lat="30.612508774" lon="34.804256439">
<ele>838.062500</ele>
<time>2013-11-22T06:31:28Z</time>
<speed>5.610000</speed>
<extensions>
<speed>5.6</speed>
<temp>0.00</temp>
<bpm>0</bpm>
<rpm>0.00</rpm>
</extensions>
</trkpt>
<trkpt lat="30.612764359" lon="34.804332733">
<ele>835.531250</ele>
<time>2013-11-22T06:31:33Z</time>
<speed>5.350000</speed>
<extensions>
<speed>5.4</speed>
<temp>0.00</temp>
<bpm>0</bpm>
<rpm>0.00</rpm>
</extensions>
</trkpt>
<trkpt lat="30.612918854" lon="34.804412842">
<ele>834.468750</ele>
<time>2013-11-22T06:31:38Z</time>
<speed>1.320000</speed>
<extensions>
<speed>1.3</speed>
<temp>0.00</temp>
<bpm>0</bpm>
<rpm>0.00</rpm>
</extensions>
</trkpt>
<trkpt lat="30.612915039" lon="34.804412842">
<ele>833.718750</ele>
<time>2013-11-22T06:31:43Z</time>
<speed>0.080000</speed>
<extensions>
<speed>0.1</speed>
<temp>0.00</temp>
<bpm>0</bpm>
<rpm>0.00</rpm>
</extensions>
</trkpt>
<trkpt lat="30.612903595" lon="34.804401398">
<ele>832.843750</ele>
<time>2013-11-22T06:31:48Z</time>
<speed>0.030000</speed>
<extensions>
<speed>0.0</speed>
<temp>0.00</temp>
<bpm>0</bpm>
<rpm>0.00</rpm>
</extensions>
</trkpt>
<trkpt lat="30.612901688" lon="34.804382324">
<ele>831.156250</ele>
<time>2013-11-22T06:31:53Z</time>
<speed>0.090000</speed>
<extensions>
<speed>0.1</speed>
<temp>0.00</temp>
<bpm>0</bpm>
<rpm>0.00</rpm>
</extensions>
</trkpt>
<trkpt lat="30.612895966" lon="34.804378510">
<ele>831.406250</ele>
<time>2013-11-22T06:31:58Z</time>
<speed>0.010000</speed>
<extensions>
<speed>0.0</speed>
<temp>0.00</temp>
<bpm>0</bpm>
<rpm>0.00</rpm>
</extensions>
</trkpt>
<trkpt lat="30.612901688" lon="34.804382324">
<ele>830.437500</ele>
<time>2013-11-22T06:32:03Z</time>
<speed>0.040000</speed>
<extensions>
<speed>0.0</speed>
<temp>0.00</temp>
<bpm>0</bpm>
<rpm>0.00</rpm>
</extensions>
</trkpt>
<trkpt lat="30.612903595" lon="34.804378510">
<ele>829.765625</ele>
<time>2013-11-22T06:32:08Z</time>
<speed>0.040000</speed>
<extensions>
<speed>0.0</speed>
<temp>0.00</temp>
<bpm>0</bpm>
<rpm>0.00</rpm>
</extensions>
</trkpt>
<trkpt lat="30.612905502" lon="34.804382324">
<ele>829.296875</ele>
<time>2013-11-22T06:32:13Z</time>
<speed>0.050000</speed>
<extensions>
<speed>0.1</speed>
<temp>0.00</temp>
<bpm>0</bpm>
<rpm>0.00</rpm>
</extensions>
</trkpt>
<trkpt lat="30.612905502" lon="34.804382324">
<ele>829.312500</ele>
<time>2013-11-22T06:32:18Z</time>
<speed>0.020000</speed>
<extensions>
<speed>0.0</speed>
<temp>0.00</temp>
<bpm>0</bpm>
<rpm>0.00</rpm>
</extensions>
</trkpt>
<trkpt lat="30.612905502" lon="34.804382324">
<ele>829.312500</ele>
<time>2013-11-22T06:32:23Z</time>
<extensions>
<speed>0.0</speed>
<temp>0.00</temp>
<bpm>0</bpm>
<rpm>0.00</rpm>
</extensions>
</trkpt>
<trkpt lat="30.612905502" lon="34.804382324">
<ele>829.312500</ele>
<time>2013-11-22T06:32:28Z</time>
<speed>0.010000</speed>
<extensions>
<speed>0.0</speed>
<temp>0.00</temp>
<bpm>0</bpm>
<rpm>0.00</rpm>
</extensions>
</trkpt>
<trkpt lat="30.612905502" lon="34.804382324">
<ele>829.343750</ele>
<time>2013-11-22T06:32:33Z</time>
<speed>0.010000</speed>
<extensions>
<speed>0.0</speed>
<temp>0.00</temp>
<bpm>0</bpm>
<rpm>0.00</rpm>
</extensions>
</trkpt>
<trkpt lat="30.612903595" lon="34.804382324">
<ele>829.343750</ele>
<time>2013-11-22T06:32:38Z</time>
<speed>0.020000</speed>
<extensions>
<speed>0.0</speed>
<temp>0.00</temp>
<bpm>0</bpm>
<rpm>0.00</rpm>
</extensions>
</trkpt>
<trkpt lat="30.612913132" lon="34.804382324">
<ele>829.515625</ele>
<time>2013-11-22T06:32:43Z</time>
<speed>1.260000</speed>
<extensions>
<speed>1.3</speed>
<temp>0.00</temp>
<bpm>0</bpm>
<rpm>0.00</rpm>
</extensions>
</trkpt>
<trkpt lat="30.612987518" lon="34.804393768">
<ele>830.843750</ele>
<time>2013-11-22T06:32:48Z</time>
<speed>0.170000</speed>
<extensions>
<speed>0.2</speed>
<temp>0.00</temp>
<bpm>0</bpm>
<rpm>0.00</rpm>
</extensions>
</trkpt>
<trkpt lat="30.612968445" lon="34.804389954">
<ele>832.000000</ele>
<time>2013-11-22T06:32:53Z</time>
<speed>0.320000</speed>
<extensions>
<speed>0.3</speed>
<temp>0.00</temp>
<bpm>0</bpm>
<rpm>0.00</rpm>
</extensions>
</trkpt>
<trkpt lat="30.612987518" lon="34.804401398">
<ele>832.984375</ele>
<time>2013-11-22T06:32:58Z</time>
<speed>2.330000</speed>
<extensions>
<speed>2.3</speed>
<temp>0.00</temp>
<bpm>0</bpm>
<rpm>0.00</rpm>
</extensions>
</trkpt>
<trkpt lat="30.613126755" lon="34.804485321">
<ele>832.796875</ele>
<time>2013-11-22T06:33:03Z</time>
<speed>3.900000</speed>
<extensions>
<speed>3.9</speed>
<temp>0.00</temp>
<bpm>0</bpm>
<rpm>0.00</rpm>
</extensions>
</trkpt>
<trkpt lat="30.613368988" lon="34.804618835">
<ele>831.234375</ele>
<time>2013-11-22T06:33:08Z</time>
<speed>6.480000</speed>
<extensions>
<speed>6.5</speed>
<temp>0.00</temp>
<bpm>0</bpm>
<rpm>0.00</rpm>
</extensions>
</trkpt>
<trkpt lat="30.613571167" lon="34.804790497">
<ele>829.812500</ele>
<time>2013-11-22T06:33:13Z</time>
<speed>2.920000</speed>
<extensions>
<speed>2.9</speed>
<temp>0.00</temp>
<bpm>0</bpm>
<rpm>0.00</rpm>
</extensions>
</trkpt>
<trkpt lat="30.613603592" lon="34.804817200">
<ele>828.734375</ele>
<time>2013-11-22T06:33:18Z</time>
<speed>0.030000</speed>
<extensions>
<speed>0.0</speed>
<temp>0.00</temp>
<bpm>0</bpm>
<rpm>0.00</rpm>
</extensions>
</trkpt>
<trkpt lat="30.613605499" lon="34.804821014">
<ele>828.593750</ele>
<time>2013-11-22T06:33:23Z</time>
<speed>0.020000</speed>
<extensions>
<speed>0.0</speed>
<temp>0.00</temp>
<bpm>0</bpm>
<rpm>0.00</rpm>
</extensions>
</trkpt>
<trkpt lat="30.613607407" lon="34.804821014">
<ele>828.484375</ele>
<time>2013-11-22T06:33:28Z</time>
<extensions>
<speed>0.0</speed>
<temp>0.00</temp>
<bpm>0</bpm>
<rpm>0.00</rpm>
</extensions>
</trkpt>
<trkpt lat="30.613607407" lon="34.804821014">
<ele>828.406250</ele>
<time>2013-11-22T06:33:33Z</time>
<speed>0.010000</speed>
<extensions>
<speed>0.0</speed>
<temp>0.00</temp>
<bpm>0</bpm>
<rpm>0.00</rpm>
</extensions>
</trkpt>
<trkpt lat="30.613643646" lon="34.804851532">
<ele>827.843750</ele>
<time>2013-11-22T06:33:38Z</time>
<speed>2.380000</speed>
<extensions>
<speed>2.4</speed>
<temp>0.00</temp>
<bpm>0</bpm>
<rpm>0.00</rpm>
</extensions>
</trkpt>
<trkpt lat="30.613758087" lon="34.804969788">
<ele>827.625000</ele>
<time>2013-11-22T06:33:43Z</time>
<speed>3.250000</speed>
<extensions>
<speed>3.2</speed>
<temp>0.00</temp>
<bpm>0</bpm>
<rpm>0.00</rpm>
</extensions>
</trkpt>
<trkpt lat="30.613828659" lon="34.805042267">
<ele>826.921875</ele>
<time>2013-11-22T06:33:48Z</time>
<speed>1.060000</speed>
<extensions>
<speed>1.1</speed>
<temp>0.00</temp>
<bpm>0</bpm>
<rpm>0.00</rpm>
</extensions>
</trkpt>
<trkpt lat="30.613840103" lon="34.805042267">
<ele>826.593750</ele>
<time>2013-11-22T06:33:53Z</time>
<speed>0.220000</speed>
<extensions>
<speed>0.2</speed>
<temp>0.00</temp>
<bpm>0</bpm>
<rpm>0.00</rpm>
</extensions>
</trkpt>
<trkpt lat="30.613840103" lon="34.805042267">
<ele>826.593750</ele>
<time>2013-11-22T06:33:58Z</time>
<speed>0.110000</speed>
<extensions>
<speed>0.1</speed>
<temp>0.00</temp>
<bpm>0</bpm>
<rpm>0.00</rpm>
</extensions>
</trkpt>
<trkpt lat="30.613843918" lon="34.805046082">
<ele>826.546875</ele>
<time>2013-11-22T06:34:03Z</time>
<speed>0.020000</speed>
<extensions>
<speed>0.0</speed>
<temp>0.00</temp>
<bpm>0</bpm>
<rpm>0.00</rpm>
</extensions>
</trkpt>
<trkpt lat="30.613843918" lon="34.805046082">
<ele>826.437500</ele>
<time>2013-11-22T06:34:08Z</time>
<extensions>
<speed>0.0</speed>
<temp>0.00</temp>
<bpm>0</bpm>
<rpm>0.00</rpm>
</extensions>
</trkpt>
<trkpt lat="30.613874435" lon="34.805088043">
<ele>826.171875</ele>
<time>2013-11-22T06:34:13Z</time>
<speed>2.050000</speed>
<extensions>
<speed>2.1</speed>
<temp>0.00</temp>
<bpm>0</bpm>
<rpm>0.00</rpm>
</extensions>
</trkpt>
<trkpt lat="30.613981247" lon="34.805225372">
<ele>825.796875</ele>
<time>2013-11-22T06:34:18Z</time>
<speed>3.910000</speed>
<extensions>
<speed>3.9</speed>
<temp>0.00</temp>
<bpm>0</bpm>
<rpm>0.00</rpm>
</extensions>
</trkpt>
<trkpt lat="30.614137650" lon="34.805374146">
<ele>825.921875</ele>
<time>2013-11-22T06:34:23Z</time>
<speed>3.470000</speed>
<extensions>
<speed>3.5</speed>
<temp>0.00</temp>
<bpm>0</bpm>
<rpm>0.00</rpm>
</extensions>
</trkpt>
<trkpt lat="30.614261627" lon="34.805461884">
<ele>825.609375</ele>
<time>2013-11-22T06:34:28Z</time>
<speed>3.200000</speed>
<extensions>
<speed>3.2</speed>
<temp>0.00</temp>
<bpm>0</bpm>
<rpm>0.00</rpm>
</extensions>
</trkpt>
<trkpt lat="30.614370346" lon="34.805496216">
<ele>825.859375</ele>
<time>2013-11-22T06:34:33Z</time>
<speed>1.850000</speed>
<extensions>
<speed>1.8</speed>
<temp>0.00</temp>
<bpm>0</bpm>
<rpm>0.00</rpm>
</extensions>
</trkpt>
<trkpt lat="30.614444733" lon="34.805503845">
<ele>827.625000</ele>
<time>2013-11-22T06:34:38Z</time>
<speed>2.120000</speed>
<extensions>
<speed>2.1</speed>
<temp>0.00</temp>
<bpm>0</bpm>
<rpm>0.00</rpm>
</extensions>
</trkpt>
<trkpt lat="30.614526749" lon="34.805580139">
<ele>830.125000</ele>
<time>2013-11-22T06:34:43Z</time>
<speed>1.670000</speed>
<extensions>
<speed>1.7</speed>
<temp>0.00</temp>
<bpm>0</bpm>
<rpm>0.00</rpm>
</extensions>
</trkpt>
<trkpt lat="30.614589691" lon="34.805610657">
<ele>829.234375</ele>
<time>2013-11-22T06:34:48Z</time>
<speed>1.160000</speed>
<extensions>
<speed>1.2</speed>
<temp>0.00</temp>
<bpm>0</bpm>
<rpm>0.00</rpm>
</extensions>
</trkpt>
<trkpt lat="30.614622116" lon="34.805633545">
<ele>828.015625</ele>
<time>2013-11-22T06:34:53Z</time>
<speed>0.520000</speed>
<extensions>
<speed>0.5</speed>
<temp>0.00</temp>
<bpm>0</bpm>
<rpm>0.00</rpm>
</extensions>
</trkpt>
<trkpt lat="30.614625931" lon="34.805641174">
<ele>826.875000</ele>
<time>2013-11-22T06:34:58Z</time>
<extensions>
<speed>0.0</speed>
<temp>0.00</temp>
<bpm>0</bpm>
<rpm>0.00</rpm>
</extensions>
</trkpt>
<trkpt lat="30.614625931" lon="34.805641174">
<ele>826.921875</ele>
<time>2013-11-22T06:35:03Z</time>
<extensions>
<speed>0.0</speed>
<temp>0.00</temp>
<bpm>0</bpm>
<rpm>0.00</rpm>
</extensions>
</trkpt>
<trkpt lat="30.614614487" lon="34.805652618">
<ele>826.984375</ele>
<time>2013-11-22T06:35:08Z</time>
<speed>1.150000</speed>
<extensions>
<speed>1.1</speed>
<temp>0.00</temp>
<bpm>0</bpm>
<rpm>0.00</rpm>
</extensions>
</trkpt>
<trkpt lat="30.614576340" lon="34.805728912">
<ele>827.093750</ele>
<time>2013-11-22T06:35:13Z</time>
<speed>2.820000</speed>
<extensions>
<speed>2.8</speed>
<temp>0.00</temp>
<bpm>0</bpm>
<rpm>0.00</rpm>
</extensions>
</trkpt>
<trkpt lat="30.614612579" lon="34.805889130">
<ele>827.765625</ele>
<time>2013-11-22T06:35:18Z</time>
<speed>3.080000</speed>
<extensions>
<speed>3.1</speed>
<temp>0.00</temp>
<bpm>0</bpm>
<rpm>0.00</rpm>
</extensions>
</trkpt>
<trkpt lat="30.614643097" lon="34.806087494">
<ele>828.687500</ele>
<time>2013-11-22T06:35:23Z</time>
<speed>3.590000</speed>
<extensions>
<speed>3.6</speed>
<temp>0.00</temp>
<bpm>0</bpm>
<rpm>0.00</rpm>
</extensions>
</trkpt>
<trkpt lat="30.614622116" lon="34.806121826">
<ele>829.156250</ele>
<time>2013-11-22T06:35:28Z</time>
<speed>0.230000</speed>
<extensions>
<speed>0.2</speed>
<temp>0.00</temp>
<bpm>0</bpm>
<rpm>0.00</rpm>
</extensions>
</trkpt>
<trkpt lat="30.614610672" lon="34.806167603">
<ele>829.015625</ele>
<time>2013-11-22T06:35:33Z</time>
<speed>2.020000</speed>
<extensions>
<speed>2.0</speed>
<temp>0.00</temp>
<bpm>0</bpm>
<rpm>0.00</rpm>
</extensions>
</trkpt>
<trkpt lat="30.614591599" lon="34.806339264">
<ele>829.531250</ele>
<time>2013-11-22T06:35:38Z</time>
<speed>3.490000</speed>
<extensions>
<speed>3.5</speed>
<temp>0.00</temp>
<bpm>0</bpm>
<rpm>0.00</rpm>
</extensions>
</trkpt>
<trkpt lat="30.614524841" lon="34.806510925">
<ele>830.312500</ele>
<time>2013-11-22T06:35:43Z</time>
<speed>3.690000</speed>
<extensions>
<speed>3.7</speed>
<temp>0.00</temp>
<bpm>0</bpm>
<rpm>0.00</rpm>
</extensions>
</trkpt>
<trkpt lat="30.614469528" lon="34.806682587">
<ele>830.843750</ele>
<time>2013-11-22T06:35:48Z</time>
<speed>3.290000</speed>
<extensions>
<speed>3.3</speed>
<temp>0.00</temp>
<bpm>0</bpm>
<rpm>0.00</rpm>
</extensions>
</trkpt>
<trkpt lat="30.614452362" lon="34.806842804">
<ele>829.937500</ele>
<time>2013-11-22T06:35:53Z</time>
<speed>2.570000</speed>
<extensions>
<speed>2.6</speed>
<temp>0.00</temp>
<bpm>0</bpm>
<rpm>0.00</rpm>
</extensions>
</trkpt>
<trkpt lat="30.614450455" lon="34.806938171">
<ele>830.203125</ele>
<time>2013-11-22T06:35:58Z</time>
<speed>1.200000</speed>
<extensions>
<speed>1.2</speed>
<temp>0.00</temp>
<bpm>0</bpm>
<rpm>0.00</rpm>
</extensions>
</trkpt>
<trkpt lat="30.614444733" lon="34.806945801">
<ele>828.890625</ele>
<time>2013-11-22T06:36:03Z</time>
<speed>0.020000</speed>
<extensions>
<speed>0.0</speed>
<temp>0.00</temp>
<bpm>0</bpm>
<rpm>0.00</rpm>
</extensions>
</trkpt>
<trkpt lat="30.614446640" lon="34.806949615">
<ele>828.890625</ele>
<time>2013-11-22T06:36:08Z</time>
<speed>0.010000</speed>
<extensions>
<speed>0.0</speed>
<temp>0.00</temp>
<bpm>0</bpm>
<rpm>0.00</rpm>
</extensions>
</trkpt>
<trkpt lat="30.614448547" lon="34.806949615">
<ele>828.812500</ele>
<time>2013-11-22T06:36:13Z</time>
<speed>0.380000</speed>
<extensions>
<speed>0.4</speed>
<temp>0.00</temp>
<bpm>0</bpm>
<rpm>0.00</rpm>
</extensions>
</trkpt>
<trkpt lat="30.614452362" lon="34.806953430">
<ele>828.640625</ele>
<time>2013-11-22T06:36:18Z</time>
<speed>0.010000</speed>
<extensions>
<speed>0.0</speed>
<temp>0.00</temp>
<bpm>0</bpm>
<rpm>0.00</rpm>
</extensions>
</trkpt>
<trkpt lat="30.614452362" lon="34.806953430">
<ele>828.500000</ele>
<time>2013-11-22T06:36:23Z</time>
<speed>0.020000</speed>
<extensions>
<speed>0.0</speed>
<temp>0.00</temp>
<bpm>0</bpm>
<rpm>0.00</rpm>
</extensions>
</trkpt>
<trkpt lat="30.614452362" lon="34.806953430">
<ele>828.484375</ele>
<time>2013-11-22T06:36:28Z</time>
<speed>0.050000</speed>
<extensions>
<speed>0.1</speed>
<temp>0.00</temp>
<bpm>0</bpm>
<rpm>0.00</rpm>
</extensions>
</trkpt>
<trkpt lat="30.614452362" lon="34.806953430">
<ele>828.500000</ele>
<time>2013-11-22T06:36:33Z</time>
<speed>0.080000</speed>
<extensions>
<speed>0.1</speed>
<temp>0.00</temp>
<bpm>0</bpm>
<rpm>0.00</rpm>
</extensions>
</trkpt>
<trkpt lat="30.614452362" lon="34.806953430">
<ele>828.500000</ele>
<time>2013-11-22T06:36:38Z</time>
<speed>0.010000</speed>
<extensions>
<speed>0.0</speed>
<temp>0.00</temp>
<bpm>0</bpm>
<rpm>0.00</rpm>
</extensions>
</trkpt>
<trkpt lat="30.614452362" lon="34.806953430">
<ele>828.468750</ele>
<time>2013-11-22T06:36:43Z</time>
<speed>0.040000</speed>
<extensions>
<speed>0.0</speed>
<temp>0.00</temp>
<bpm>0</bpm>
<rpm>0.00</rpm>
</extensions>
</trkpt>
<trkpt lat="30.614452362" lon="34.806953430">
<ele>828.468750</ele>
<time>2013-11-22T06:36:48Z</time>
<extensions>
<speed>0.0</speed>
<temp>0.00</temp>
<bpm>0</bpm>
<rpm>0.00</rpm>
</extensions>
</trkpt>
<trkpt lat="30.614452362" lon="34.806953430">
<ele>828.453125</ele>
<time>2013-11-22T06:36:53Z</time>
<extensions>
<speed>0.0</speed>
<temp>0.00</temp>
<bpm>0</bpm>
<rpm>0.00</rpm>
</extensions>
</trkpt>
<trkpt lat="30.614452362" lon="34.806953430">
<ele>828.453125</ele>
<time>2013-11-22T06:36:58Z</time>
<speed>0.020000</speed>
<extensions>
<speed>0.0</speed>
<temp>0.00</temp>
<bpm>0</bpm>
<rpm>0.00</rpm>
</extensions>
</trkpt>
<trkpt lat="30.614452362" lon="34.806953430">
<ele>828.437500</ele>
<time>2013-11-22T06:37:03Z</time>
<speed>0.010000</speed>
<extensions>
<speed>0.0</speed>
<temp>0.00</temp>
<bpm>0</bpm>
<rpm>0.00</rpm>
</extensions>
</trkpt>
<trkpt lat="30.614452362" lon="34.806953430">
<ele>828.421875</ele>
<time>2013-11-22T06:37:08Z</time>
<extensions>
<speed>0.0</speed>
<temp>0.00</temp>
<bpm>0</bpm>
<rpm>0.00</rpm>
</extensions>
</trkpt>
<trkpt lat="30.614452362" lon="34.806953430">
<ele>828.421875</ele>
<time>2013-11-22T06:37:13Z</time>
<speed>0.010000</speed>
<extensions>
<speed>0.0</speed>
<temp>0.00</temp>
<bpm>0</bpm>
<rpm>0.00</rpm>
</extensions>
</trkpt>
<trkpt lat="30.614452362" lon="34.806953430">
<ele>828.421875</ele>
<time>2013-11-22T06:37:18Z</time>
<extensions>
<speed>0.0</speed>
<temp>0.00</temp>
<bpm>0</bpm>
<rpm>0.00</rpm>
</extensions>
</trkpt>
<trkpt lat="30.614452362" lon="34.806953430">
<ele>828.421875</ele>
<time>2013-11-22T06:37:23Z</time>
<speed>0.020000</speed>
<extensions>
<speed>0.0</speed>
<temp>0.00</temp>
<bpm>0</bpm>
<rpm>0.00</rpm>
</extensions>
</trkpt>
<trkpt lat="30.614452362" lon="34.806953430">
<ele>828.421875</ele>
<time>2013-11-22T06:37:28Z</time>
<speed>0.020000</speed>
<extensions>
<speed>0.0</speed>
<temp>0.00</temp>
<bpm>0</bpm>
<rpm>0.00</rpm>
</extensions>
</trkpt>
<trkpt lat="30.614452362" lon="34.806953430">
<ele>828.421875</ele>
<time>2013-11-22T06:37:33Z</time>
<speed>0.010000</speed>
<extensions>
<speed>0.0</speed>
<temp>0.00</temp>
<bpm>0</bpm>
<rpm>0.00</rpm>
</extensions>
</trkpt>
<trkpt lat="30.614452362" lon="34.806953430">
<ele>828.406250</ele>
<time>2013-11-22T06:37:38Z</time>
<speed>0.010000</speed>
<extensions>
<speed>0.0</speed>
<temp>0.00</temp>
<bpm>0</bpm>
<rpm>0.00</rpm>
</extensions>
</trkpt>
<trkpt lat="30.614452362" lon="34.806953430">
<ele>828.406250</ele>
<time>2013-11-22T06:37:43Z</time>
<extensions>
<speed>0.0</speed>
<temp>0.00</temp>
<bpm>0</bpm>
<rpm>0.00</rpm>
</extensions>
</trkpt>
<trkpt lat="30.614452362" lon="34.806953430">
<ele>828.390625</ele>
<time>2013-11-22T06:37:48Z</time>
<extensions>
<speed>0.0</speed>
<temp>0.00</temp>
<bpm>0</bpm>
<rpm>0.00</rpm>
</extensions>
</trkpt>
<trkpt lat="30.614452362" lon="34.806953430">
<ele>828.390625</ele>
<time>2013-11-22T06:37:53Z</time>
<speed>0.010000</speed>
<extensions>
<speed>0.0</speed>
<temp>0.00</temp>
<bpm>0</bpm>
<rpm>0.00</rpm>
</extensions>
</trkpt>
<trkpt lat="30.614452362" lon="34.806953430">
<ele>828.375000</ele>
<time>2013-11-22T06:37:58Z</time>
<extensions>
<speed>0.0</speed>
<temp>0.00</temp>
<bpm>0</bpm>
<rpm>0.00</rpm>
</extensions>
</trkpt>
<trkpt lat="30.614452362" lon="34.806953430">
<ele>828.375000</ele>
<time>2013-11-22T06:38:03Z</time>
<speed>0.010000</speed>
<extensions>
<speed>0.0</speed>
<temp>0.00</temp>
<bpm>0</bpm>
<rpm>0.00</rpm>
</extensions>
</trkpt>
<trkpt lat="30.614452362" lon="34.806953430">
<ele>828.375000</ele>
<time>2013-11-22T06:38:08Z</time>
<speed>0.010000</speed>
<extensions>
<speed>0.0</speed>
<temp>0.00</temp>
<bpm>0</bpm>
<rpm>0.00</rpm>
</extensions>
</trkpt>
<trkpt lat="30.614452362" lon="34.806953430">
<ele>828.375000</ele>
<time>2013-11-22T06:38:13Z</time>
<speed>0.010000</speed>
<extensions>
<speed>0.0</speed>
<temp>0.00</temp>
<bpm>0</bpm>
<rpm>0.00</rpm>
</extensions>
</trkpt>
<trkpt lat="30.614452362" lon="34.806953430">
<ele>828.390625</ele>
<time>2013-11-22T06:38:18Z</time>
<speed>0.010000</speed>
<extensions>
<speed>0.0</speed>
<temp>0.00</temp>
<bpm>0</bpm>
<rpm>0.00</rpm>
</extensions>
</trkpt>
<trkpt lat="30.614452362" lon="34.806953430">
<ele>828.390625</ele>
<time>2013-11-22T06:38:23Z</time>
<extensions>
<speed>0.0</speed>
<temp>0.00</temp>
<bpm>0</bpm>
<rpm>0.00</rpm>
</extensions>
</trkpt>
<trkpt lat="30.614452362" lon="34.806953430">
<ele>828.375000</ele>
<time>2013-11-22T06:38:28Z</time>
<speed>0.010000</speed>
<extensions>
<speed>0.0</speed>
<temp>0.00</temp>
<bpm>0</bpm>
<rpm>0.00</rpm>
</extensions>
</trkpt>
<trkpt lat="30.614452362" lon="34.806953430">
<ele>828.375000</ele>
<time>2013-11-22T06:38:33Z</time>
<extensions>
<speed>0.0</speed>
<temp>0.00</temp>
<bpm>0</bpm>
<rpm>0.00</rpm>
</extensions>
</trkpt>
<trkpt lat="30.614452362" lon="34.806953430">
<ele>828.375000</ele>
<time>2013-11-22T06:38:38Z</time>
<extensions>
<speed>0.0</speed>
<temp>0.00</temp>
<bpm>0</bpm>
<rpm>0.00</rpm>
</extensions>
</trkpt>
<trkpt lat="30.614452362" lon="34.806953430">
<ele>828.375000</ele>
<time>2013-11-22T06:38:43Z</time>
<extensions>
<speed>0.0</speed>
<temp>0.00</temp>
<bpm>0</bpm>
<rpm>0.00</rpm>
</extensions>
</trkpt>
<trkpt lat="30.614452362" lon="34.806953430">
<ele>828.375000</ele>
<time>2013-11-22T06:38:48Z</time>
<speed>0.090000</speed>
<extensions>
<speed>0.1</speed>
<temp>0.00</temp>
<bpm>0</bpm>
<rpm>0.00</rpm>
</extensions>
</trkpt>
<trkpt lat="30.614452362" lon="34.806953430">
<ele>828.375000</ele>
<time>2013-11-22T06:38:53Z</time>
<extensions>
<speed>0.0</speed>
<temp>0.00</temp>
<bpm>0</bpm>
<rpm>0.00</rpm>
</extensions>
</trkpt>
<trkpt lat="30.614452362" lon="34.806953430">
<ele>828.359375</ele>
<time>2013-11-22T06:38:58Z</time>
<extensions>
<speed>0.0</speed>
<temp>0.00</temp>
<bpm>0</bpm>
<rpm>0.00</rpm>
</extensions>
</trkpt>
<trkpt lat="30.614452362" lon="34.806953430">
<ele>828.343750</ele>
<time>2013-11-22T06:39:03Z</time>
<speed>0.050000</speed>
<extensions>
<speed>0.1</speed>
<temp>0.00</temp>
<bpm>0</bpm>
<rpm>0.00</rpm>
</extensions>
</trkpt>
<trkpt lat="30.614452362" lon="34.806953430">
<ele>828.343750</ele>
<time>2013-11-22T06:39:08Z</time>
<speed>0.030000</speed>
<extensions>
<speed>0.0</speed>
<temp>0.00</temp>
<bpm>0</bpm>
<rpm>0.00</rpm>
</extensions>
</trkpt>
<trkpt lat="30.614452362" lon="34.806953430">
<ele>828.343750</ele>
<time>2013-11-22T06:39:13Z</time>
<speed>0.010000</speed>
<extensions>
<speed>0.0</speed>
<temp>0.00</temp>
<bpm>0</bpm>
<rpm>0.00</rpm>
</extensions>
</trkpt>
<trkpt lat="30.614452362" lon="34.806953430">
<ele>828.328125</ele>
<time>2013-11-22T06:39:18Z</time>
<speed>0.020000</speed>
<extensions>
<speed>0.0</speed>
<temp>0.00</temp>
<bpm>0</bpm>
<rpm>0.00</rpm>
</extensions>
</trkpt>
<trkpt lat="30.614452362" lon="34.806953430">
<ele>828.328125</ele>
<time>2013-11-22T06:39:23Z</time>
<speed>0.040000</speed>
<extensions>
<speed>0.0</speed>
<temp>0.00</temp>
<bpm>0</bpm>
<rpm>0.00</rpm>
</extensions>
</trkpt>
<trkpt lat="30.614452362" lon="34.806953430">
<ele>828.328125</ele>
<time>2013-11-22T06:39:28Z</time>
<extensions>
<speed>0.0</speed>
<temp>0.00</temp>
<bpm>0</bpm>
<rpm>0.00</rpm>
</extensions>
</trkpt>
<trkpt lat="30.614452362" lon="34.806953430">
<ele>828.328125</ele>
<time>2013-11-22T06:39:33Z</time>
<speed>0.010000</speed>
<extensions>
<speed>0.0</speed>
<temp>0.00</temp>
<bpm>0</bpm>
<rpm>0.00</rpm>
</extensions>
</trkpt>
<trkpt lat="30.614452362" lon="34.806953430">
<ele>828.343750</ele>
<time>2013-11-22T06:39:38Z</time>
<extensions>
<speed>0.0</speed>
<temp>0.00</temp>
<bpm>0</bpm>
<rpm>0.00</rpm>
</extensions>
</trkpt>
<trkpt lat="30.614452362" lon="34.806953430">
<ele>828.343750</ele>
<time>2013-11-22T06:39:43Z</time>
<extensions>
<speed>0.0</speed>
<temp>0.00</temp>
<bpm>0</bpm>
<rpm>0.00</rpm>
</extensions>
</trkpt>
<trkpt lat="30.614454269" lon="34.806953430">
<ele>828.359375</ele>
<time>2013-11-22T06:39:48Z</time>
<extensions>
<speed>0.0</speed>
<temp>0.00</temp>
<bpm>0</bpm>
<rpm>0.00</rpm>
</extensions>
</trkpt>
<trkpt lat="30.614454269" lon="34.806953430">
<ele>828.328125</ele>
<time>2013-11-22T06:39:53Z</time>
<extensions>
<speed>0.0</speed>
<temp>0.00</temp>
<bpm>0</bpm>
<rpm>0.00</rpm>
</extensions>
</trkpt>
<trkpt lat="30.614454269" lon="34.806953430">
<ele>828.328125</ele>
<time>2013-11-22T06:39:58Z</time>
<speed>0.030000</speed>
<extensions>
<speed>0.0</speed>
<temp>0.00</temp>
<bpm>0</bpm>
<rpm>0.00</rpm>
</extensions>
</trkpt>
<trkpt lat="30.614454269" lon="34.806953430">
<ele>828.328125</ele>
<time>2013-11-22T06:40:03Z</time>
<speed>0.050000</speed>
<extensions>
<speed>0.1</speed>
<temp>0.00</temp>
<bpm>0</bpm>
<rpm>0.00</rpm>
</extensions>
</trkpt>
<trkpt lat="30.614452362" lon="34.806953430">
<ele>828.312500</ele>
<time>2013-11-22T06:40:08Z</time>
<speed>0.040000</speed>
<extensions>
<speed>0.0</speed>
<temp>0.00</temp>
<bpm>0</bpm>
<rpm>0.00</rpm>
</extensions>
</trkpt>
<trkpt lat="30.614450455" lon="34.806995392">
<ele>828.156250</ele>
<time>2013-11-22T06:40:13Z</time>
<speed>1.760000</speed>
<extensions>
<speed>1.8</speed>
<temp>0.00</temp>
<bpm>0</bpm>
<rpm>0.00</rpm>
</extensions>
</trkpt>
<trkpt lat="30.614393234" lon="34.807079315">
<ele>827.046875</ele>
<time>2013-11-22T06:40:18Z</time>
<speed>2.040000</speed>
<extensions>
<speed>2.0</speed>
<temp>0.00</temp>
<bpm>0</bpm>
<rpm>0.00</rpm>
</extensions>
</trkpt>
<trkpt lat="30.614292145" lon="34.807205200">
<ele>825.781250</ele>
<time>2013-11-22T06:40:23Z</time>
<speed>2.000000</speed>
<extensions>
<speed>2.0</speed>
<temp>0.00</temp>
<bpm>0</bpm>
<rpm>0.00</rpm>
</extensions>
</trkpt>
<trkpt lat="30.614189148" lon="34.807350159">
<ele>824.437500</ele>
<time>2013-11-22T06:40:28Z</time>
<speed>1.960000</speed>
<extensions>
<speed>2.0</speed>
<temp>0.00</temp>
<bpm>0</bpm>
<rpm>0.00</rpm>
</extensions>
</trkpt>
<trkpt lat="30.614091873" lon="34.807476044">
<ele>823.671875</ele>
<time>2013-11-22T06:40:33Z</time>
<speed>2.050000</speed>
<extensions>
<speed>2.1</speed>
<temp>0.00</temp>
<bpm>0</bpm>
<rpm>0.00</rpm>
</extensions>
</trkpt>
<trkpt lat="30.614089966" lon="34.807586670">
<ele>822.437500</ele>
<time>2013-11-22T06:40:38Z</time>
<speed>2.140000</speed>
<extensions>
<speed>2.1</speed>
<temp>0.00</temp>
<bpm>0</bpm>
<rpm>0.00</rpm>
</extensions>
</trkpt>
<trkpt lat="30.614126205" lon="34.807723999">
<ele>821.734375</ele>
<time>2013-11-22T06:40:43Z</time>
<speed>2.340000</speed>
<extensions>
<speed>2.3</speed>
<temp>0.00</temp>
<bpm>0</bpm>
<rpm>0.00</rpm>
</extensions>
</trkpt>
<trkpt lat="30.614162445" lon="34.807834625">
<ele>821.968750</ele>
<time>2013-11-22T06:40:48Z</time>
<speed>1.470000</speed>
<extensions>
<speed>1.5</speed>
<temp>0.00</temp>
<bpm>0</bpm>
<rpm>0.00</rpm>
</extensions>
</trkpt>
<trkpt lat="30.614168167" lon="34.807933807">
<ele>822.390625</ele>
<time>2013-11-22T06:40:53Z</time>
<speed>1.410000</speed>
<extensions>
<speed>1.4</speed>
<temp>0.00</temp>
<bpm>0</bpm>
<rpm>0.00</rpm>
</extensions>
</trkpt>
<trkpt lat="30.614231110" lon="34.807991028">
<ele>822.875000</ele>
<time>2013-11-22T06:40:58Z</time>
<speed>2.240000</speed>
<extensions>
<speed>2.2</speed>
<temp>0.00</temp>
<bpm>0</bpm>
<rpm>0.00</rpm>
</extensions>
</trkpt>
<trkpt lat="30.614265442" lon="34.808074951">
<ele>823.125000</ele>
<time>2013-11-22T06:41:03Z</time>
<speed>1.720000</speed>
<extensions>
<speed>1.7</speed>
<temp>0.00</temp>
<bpm>0</bpm>
<rpm>0.00</rpm>
</extensions>
</trkpt>
<trkpt lat="30.614286423" lon="34.808109283">
<ele>821.843750</ele>
<time>2013-11-22T06:41:08Z</time>
<speed>0.030000</speed>
<extensions>
<speed>0.0</speed>
<temp>0.00</temp>
<bpm>0</bpm>
<rpm>0.00</rpm>
</extensions>
</trkpt>
<trkpt lat="30.614295959" lon="34.808101654">
<ele>820.593750</ele>
<time>2013-11-22T06:41:13Z</time>
<speed>0.010000</speed>
<extensions>
<speed>0.0</speed>
<temp>0.00</temp>
<bpm>0</bpm>
<rpm>0.00</rpm>
</extensions>
</trkpt>
<trkpt lat="30.614295959" lon="34.808105469">
<ele>820.671875</ele>
<time>2013-11-22T06:41:18Z</time>
<speed>0.450000</speed>
<extensions>
<speed>0.5</speed>
<temp>0.00</temp>
<bpm>0</bpm>
<rpm>0.00</rpm>
</extensions>
</trkpt>
<trkpt lat="30.614339828" lon="34.808155060">
<ele>821.843750</ele>
<time>2013-11-22T06:41:23Z</time>
<speed>2.150000</speed>
<extensions>
<speed>2.1</speed>
<temp>0.00</temp>
<bpm>0</bpm>
<rpm>0.00</rpm>
</extensions>
</trkpt>
<trkpt lat="30.614423752" lon="34.808200836">
<ele>822.265625</ele>
<time>2013-11-22T06:41:28Z</time>
<speed>1.790000</speed>
<extensions>
<speed>1.8</speed>
<temp>0.00</temp>
<bpm>0</bpm>
<rpm>0.00</rpm>
</extensions>
</trkpt>
<trkpt lat="30.614479065" lon="34.808265686">
<ele>821.968750</ele>
<time>2013-11-22T06:41:33Z</time>
<speed>1.650000</speed>
<extensions>
<speed>1.7</speed>
<temp>0.00</temp>
<bpm>0</bpm>
<rpm>0.00</rpm>
</extensions>
</trkpt>
<trkpt lat="30.614511490" lon="34.808322906">
<ele>822.312500</ele>
<time>2013-11-22T06:41:38Z</time>
<speed>0.520000</speed>
<extensions>
<speed>0.5</speed>
<temp>0.00</temp>
<bpm>0</bpm>
<rpm>0.00</rpm>
</extensions>
</trkpt>
<trkpt lat="30.614513397" lon="34.808315277">
<ele>822.281250</ele>
<time>2013-11-22T06:41:43Z</time>
<speed>0.090000</speed>
<extensions>
<speed>0.1</speed>
<temp>0.00</temp>
<bpm>0</bpm>
<rpm>0.00</rpm>
</extensions>
</trkpt>
<trkpt lat="30.614511490" lon="34.808315277">
<ele>822.343750</ele>
<time>2013-11-22T06:41:48Z</time>
<speed>0.020000</speed>
<extensions>
<speed>0.0</speed>
<temp>0.00</temp>
<bpm>0</bpm>
<rpm>0.00</rpm>
</extensions>
</trkpt>
<trkpt lat="30.614532471" lon="34.808319092">
<ele>822.250000</ele>
<time>2013-11-22T06:41:53Z</time>
<speed>1.200000</speed>
<extensions>
<speed>1.2</speed>
<temp>0.00</temp>
<bpm>0</bpm>
<rpm>0.00</rpm>
</extensions>
</trkpt>
<trkpt lat="30.614654541" lon="34.808349609">
<ele>822.328125</ele>
<time>2013-11-22T06:41:58Z</time>
<speed>3.120000</speed>
<extensions>
<speed>3.1</speed>
<temp>0.00</temp>
<bpm>0</bpm>
<rpm>0.00</rpm>
</extensions>
</trkpt>
<trkpt lat="30.614774704" lon="34.808284760">
<ele>820.484375</ele>
<time>2013-11-22T06:42:03Z</time>
<speed>2.830000</speed>
<extensions>
<speed>2.8</speed>
<temp>0.00</temp>
<bpm>0</bpm>
<rpm>0.00</rpm>
</extensions>
</trkpt>
<trkpt lat="30.614879608" lon="34.808238983">
<ele>818.843750</ele>
<time>2013-11-22T06:42:08Z</time>
<speed>2.820000</speed>
<extensions>
<speed>2.8</speed>
<temp>0.00</temp>
<bpm>0</bpm>
<rpm>0.00</rpm>
</extensions>
</trkpt>
<trkpt lat="30.614923477" lon="34.808246613">
<ele>820.093750</ele>
<time>2013-11-22T06:42:13Z</time>
<speed>0.030000</speed>
<extensions>
<speed>0.0</speed>
<temp>0.00</temp>
<bpm>0</bpm>
<rpm>0.00</rpm>
</extensions>
</trkpt>
<trkpt lat="30.614923477" lon="34.808246613">
<ele>820.765625</ele>
<time>2013-11-22T06:42:18Z</time>
<speed>0.020000</speed>
<extensions>
<speed>0.0</speed>
<temp>0.00</temp>
<bpm>0</bpm>
<rpm>0.00</rpm>
</extensions>
</trkpt>
<trkpt lat="30.614923477" lon="34.808246613">
<ele>820.718750</ele>
<time>2013-11-22T06:42:23Z</time>
<extensions>
<speed>0.0</speed>
<temp>0.00</temp>
<bpm>0</bpm>
<rpm>0.00</rpm>
</extensions>
</trkpt>
<trkpt lat="30.614940643" lon="34.808235168">
<ele>820.734375</ele>
<time>2013-11-22T06:42:28Z</time>
<speed>0.530000</speed>
<extensions>
<speed>0.5</speed>
<temp>0.00</temp>
<bpm>0</bpm>
<rpm>0.00</rpm>
</extensions>
</trkpt>
<trkpt lat="30.614984512" lon="34.808238983">
<ele>821.015625</ele>
<time>2013-11-22T06:42:33Z</time>
<speed>1.680000</speed>
<extensions>
<speed>1.7</speed>
<temp>0.00</temp>
<bpm>0</bpm>
<rpm>0.00</rpm>
</extensions>
</trkpt>
<trkpt lat="30.615097046" lon="34.808189392">
<ele>820.703125</ele>
<time>2013-11-22T06:42:38Z</time>
<speed>3.220000</speed>
<extensions>
<speed>3.2</speed>
<temp>0.00</temp>
<bpm>0</bpm>
<rpm>0.00</rpm>
</extensions>
</trkpt>
<trkpt lat="30.615205765" lon="34.808109283">
<ele>820.484375</ele>
<time>2013-11-22T06:42:43Z</time>
<speed>2.010000</speed>
<extensions>
<speed>2.0</speed>
<temp>0.00</temp>
<bpm>0</bpm>
<rpm>0.00</rpm>
</extensions>
</trkpt>
<trkpt lat="30.615251541" lon="34.808040619">
<ele>820.812500</ele>
<time>2013-11-22T06:42:48Z</time>
<speed>1.660000</speed>
<extensions>
<speed>1.7</speed>
<temp>0.00</temp>
<bpm>0</bpm>
<rpm>0.00</rpm>
</extensions>
</trkpt>
<trkpt lat="30.615255356" lon="34.807937622">
<ele>821.828125</ele>
<time>2013-11-22T06:42:53Z</time>
<speed>1.680000</speed>
<extensions>
<speed>1.7</speed>
<temp>0.00</temp>
<bpm>0</bpm>
<rpm>0.00</rpm>
</extensions>
</trkpt>
<trkpt lat="30.615247726" lon="34.807842255">
<ele>822.328125</ele>
<time>2013-11-22T06:42:58Z</time>
<speed>2.090000</speed>
<extensions>
<speed>2.1</speed>
<temp>0.00</temp>
<bpm>0</bpm>
<rpm>0.00</rpm>
</extensions>
</trkpt>
<trkpt lat="30.615381241" lon="34.807796478">
<ele>823.062500</ele>
<time>2013-11-22T06:43:03Z</time>
<speed>3.150000</speed>
<extensions>
<speed>3.2</speed>
<temp>0.00</temp>
<bpm>0</bpm>
<rpm>0.00</rpm>
</extensions>
</trkpt>
<trkpt lat="30.615531921" lon="34.807731628">
<ele>824.343750</ele>
<time>2013-11-22T06:43:08Z</time>
<speed>3.570000</speed>
<extensions>
<speed>3.6</speed>
<temp>0.00</temp>
<bpm>0</bpm>
<rpm>0.00</rpm>
</extensions>
</trkpt>
<trkpt lat="30.615722656" lon="34.807689667">
<ele>825.953125</ele>
<time>2013-11-22T06:43:13Z</time>
<speed>4.500000</speed>
<extensions>
<speed>4.5</speed>
<temp>0.00</temp>
<bpm>0</bpm>
<rpm>0.00</rpm>
</extensions>
</trkpt>
<trkpt lat="30.615926743" lon="34.807662964">
<ele>826.046875</ele>
<time>2013-11-22T06:43:18Z</time>
<speed>4.840000</speed>
<extensions>
<speed>4.8</speed>
<temp>0.00</temp>
<bpm>0</bpm>
<rpm>0.00</rpm>
</extensions>
</trkpt>
<trkpt lat="30.616132736" lon="34.807540894">
<ele>825.125000</ele>
<time>2013-11-22T06:43:23Z</time>
<speed>3.950000</speed>
<extensions>
<speed>4.0</speed>
<temp>0.00</temp>
<bpm>0</bpm>
<rpm>0.00</rpm>
</extensions>
</trkpt>
<trkpt lat="30.616237640" lon="34.807559967">
<ele>823.296875</ele>
<time>2013-11-22T06:43:28Z</time>
<speed>2.170000</speed>
<extensions>
<speed>2.2</speed>
<temp>0.00</temp>
<bpm>0</bpm>
<rpm>0.00</rpm>
</extensions>
</trkpt>
<trkpt lat="30.616325378" lon="34.807632446">
<ele>824.203125</ele>
<time>2013-11-22T06:43:33Z</time>
<speed>2.390000</speed>
<extensions>
<speed>2.4</speed>
<temp>0.00</temp>
<bpm>0</bpm>
<rpm>0.00</rpm>
</extensions>
</trkpt>
<trkpt lat="30.616403580" lon="34.807609558">
<ele>826.437500</ele>
<time>2013-11-22T06:43:38Z</time>
<speed>1.690000</speed>
<extensions>
<speed>1.7</speed>
<temp>0.00</temp>
<bpm>0</bpm>
<rpm>0.00</rpm>
</extensions>
</trkpt>
<trkpt lat="30.616477966" lon="34.807556152">
<ele>825.593750</ele>
<time>2013-11-22T06:43:43Z</time>
<speed>1.830000</speed>
<extensions>
<speed>1.8</speed>
<temp>0.00</temp>
<bpm>0</bpm>
<rpm>0.00</rpm>
</extensions>
</trkpt>
<trkpt lat="30.616542816" lon="34.807647705">
<ele>824.718750</ele>
<time>2013-11-22T06:43:48Z</time>
<speed>3.140000</speed>
<extensions>
<speed>3.1</speed>
<temp>0.00</temp>
<bpm>0</bpm>
<rpm>0.00</rpm>
</extensions>
</trkpt>
<trkpt lat="30.616640091" lon="34.807765961">
<ele>825.328125</ele>
<time>2013-11-22T06:43:53Z</time>
<speed>4.040000</speed>
<extensions>
<speed>4.0</speed>
<temp>0.00</temp>
<bpm>0</bpm>
<rpm>0.00</rpm>
</extensions>
</trkpt>
<trkpt lat="30.616769791" lon="34.807899475">
<ele>825.546875</ele>
<time>2013-11-22T06:43:58Z</time>
<speed>3.470000</speed>
<extensions>
<speed>3.5</speed>
<temp>0.00</temp>
<bpm>0</bpm>
<rpm>0.00</rpm>
</extensions>
</trkpt>
<trkpt lat="30.616893768" lon="34.808048248">
<ele>825.421875</ele>
<time>2013-11-22T06:44:03Z</time>
<speed>3.520000</speed>
<extensions>
<speed>3.5</speed>
<temp>0.00</temp>
<bpm>0</bpm>
<rpm>0.00</rpm>
</extensions>
</trkpt>
<trkpt lat="30.617006302" lon="34.808193207">
<ele>823.234375</ele>
<time>2013-11-22T06:44:08Z</time>
<speed>4.500000</speed>
<extensions>
<speed>4.5</speed>
<temp>0.00</temp>
<bpm>0</bpm>
<rpm>0.00</rpm>
</extensions>
</trkpt>
<trkpt lat="30.617033005" lon="34.808368683">
<ele>823.078125</ele>
<time>2013-11-22T06:44:13Z</time>
<speed>1.710000</speed>
<extensions>
<speed>1.7</speed>
<temp>0.00</temp>
<bpm>0</bpm>
<rpm>0.00</rpm>
</extensions>
</trkpt>
<trkpt lat="30.617012024" lon="34.808494568">
<ele>822.375000</ele>
<time>2013-11-22T06:44:18Z</time>
<speed>2.840000</speed>
<extensions>
<speed>2.8</speed>
<temp>0.00</temp>
<bpm>0</bpm>
<rpm>0.00</rpm>
</extensions>
</trkpt>
<trkpt lat="30.616989136" lon="34.808666229">
<ele>824.031250</ele>
<time>2013-11-22T06:44:23Z</time>
<speed>3.160000</speed>
<extensions>
<speed>3.2</speed>
<temp>0.00</temp>
<bpm>0</bpm>
<rpm>0.00</rpm>
</extensions>
</trkpt>
<trkpt lat="30.616970062" lon="34.808818817">
<ele>824.078125</ele>
<time>2013-11-22T06:44:28Z</time>
<speed>2.550000</speed>
<extensions>
<speed>2.6</speed>
<temp>0.00</temp>
<bpm>0</bpm>
<rpm>0.00</rpm>
</extensions>
</trkpt>
<trkpt lat="30.616977692" lon="34.808982849">
<ele>824.468750</ele>
<time>2013-11-22T06:44:33Z</time>
<speed>3.050000</speed>
<extensions>
<speed>3.0</speed>
<temp>0.00</temp>
<bpm>0</bpm>
<rpm>0.00</rpm>
</extensions>
</trkpt>
<trkpt lat="30.617031097" lon="34.809135437">
<ele>825.203125</ele>
<time>2013-11-22T06:44:38Z</time>
<speed>3.140000</speed>
<extensions>
<speed>3.1</speed>
<temp>0.00</temp>
<bpm>0</bpm>
<rpm>0.00</rpm>
</extensions>
</trkpt>
<trkpt lat="30.617092133" lon="34.809291840">
<ele>822.171875</ele>
<time>2013-11-22T06:44:43Z</time>
<speed>3.240000</speed>
<extensions>
<speed>3.2</speed>
<temp>0.00</temp>
<bpm>0</bpm>
<rpm>0.00</rpm>
</extensions>
</trkpt>
<trkpt lat="30.617166519" lon="34.809440613">
<ele>821.609375</ele>
<time>2013-11-22T06:44:48Z</time>
<speed>3.300000</speed>
<extensions>
<speed>3.3</speed>
<temp>0.00</temp>
<bpm>0</bpm>
<rpm>0.00</rpm>
</extensions>
</trkpt>
<trkpt lat="30.617246628" lon="34.809551239">
<ele>819.875000</ele>
<time>2013-11-22T06:44:53Z</time>
<speed>2.450000</speed>
<extensions>
<speed>2.4</speed>
<temp>0.00</temp>
<bpm>0</bpm>
<rpm>0.00</rpm>
</extensions>
</trkpt>
<trkpt lat="30.617338181" lon="34.809627533">
<ele>820.328125</ele>
<time>2013-11-22T06:44:58Z</time>
<speed>2.290000</speed>
<extensions>
<speed>2.3</speed>
<temp>0.00</temp>
<bpm>0</bpm>
<rpm>0.00</rpm>
</extensions>
</trkpt>
<trkpt lat="30.617414474" lon="34.809707642">
<ele>820.875000</ele>
<time>2013-11-22T06:45:03Z</time>
<speed>2.890000</speed>
<extensions>
<speed>2.9</speed>
<temp>0.00</temp>
<bpm>0</bpm>
<rpm>0.00</rpm>
</extensions>
</trkpt>
<trkpt lat="30.617513657" lon="34.809814453">
<ele>820.593750</ele>
<time>2013-11-22T06:45:08Z</time>
<speed>3.010000</speed>
<extensions>
<speed>3.0</speed>
<temp>0.00</temp>
<bpm>0</bpm>
<rpm>0.00</rpm>
</extensions>
</trkpt>
<trkpt lat="30.617626190" lon="34.809921265">
<ele>819.531250</ele>
<time>2013-11-22T06:45:13Z</time>
<speed>3.240000</speed>
<extensions>
<speed>3.2</speed>
<temp>0.00</temp>
<bpm>0</bpm>
<rpm>0.00</rpm>
</extensions>
</trkpt>
<trkpt lat="30.617778778" lon="34.809986115">
<ele>819.093750</ele>
<time>2013-11-22T06:45:18Z</time>
<speed>3.190000</speed>
<extensions>
<speed>3.2</speed>
<temp>0.00</temp>
<bpm>0</bpm>
<rpm>0.00</rpm>
</extensions>
</trkpt>
<trkpt lat="30.617914200" lon="34.810035706">
<ele>819.062500</ele>
<time>2013-11-22T06:45:23Z</time>
<speed>2.750000</speed>
<extensions>
<speed>2.7</speed>
<temp>0.00</temp>
<bpm>0</bpm>
<rpm>0.00</rpm>
</extensions>
</trkpt>
<trkpt lat="30.617998123" lon="34.810153961">
<ele>819.062500</ele>
<time>2013-11-22T06:45:28Z</time>
<speed>2.950000</speed>
<extensions>
<speed>2.9</speed>
<temp>0.00</temp>
<bpm>0</bpm>
<rpm>0.00</rpm>
</extensions>
</trkpt>
<trkpt lat="30.618034363" lon="34.810241699">
<ele>820.281250</ele>
<time>2013-11-22T06:45:33Z</time>
<speed>1.870000</speed>
<extensions>
<speed>1.9</speed>
<temp>0.00</temp>
<bpm>0</bpm>
<rpm>0.00</rpm>
</extensions>
</trkpt>
<trkpt lat="30.618097305" lon="34.810340881">
<ele>819.156250</ele>
<time>2013-11-22T06:45:38Z</time>
<speed>2.550000</speed>
<extensions>
<speed>2.6</speed>
<temp>0.00</temp>
<bpm>0</bpm>
<rpm>0.00</rpm>
</extensions>
</trkpt>
<trkpt lat="30.618219376" lon="34.810447693">
<ele>817.859375</ele>
<time>2013-11-22T06:45:43Z</time>
<speed>3.290000</speed>
<extensions>
<speed>3.3</speed>
<temp>0.00</temp>
<bpm>0</bpm>
<rpm>0.00</rpm>
</extensions>
</trkpt>
<trkpt lat="30.618307114" lon="34.810569763">
<ele>815.531250</ele>
<time>2013-11-22T06:45:48Z</time>
<speed>3.270000</speed>
<extensions>
<speed>3.3</speed>
<temp>0.00</temp>
<bpm>0</bpm>
<rpm>0.00</rpm>
</extensions>
</trkpt>
<trkpt lat="30.618438721" lon="34.810665131">
<ele>813.796875</ele>
<time>2013-11-22T06:45:53Z</time>
<speed>3.120000</speed>
<extensions>
<speed>3.1</speed>
<temp>0.00</temp>
<bpm>0</bpm>
<rpm>0.00</rpm>
</extensions>
</trkpt>
<trkpt lat="30.618577957" lon="34.810710907">
<ele>813.578125</ele>
<time>2013-11-22T06:45:58Z</time>
<speed>3.640000</speed>
<extensions>
<speed>3.6</speed>
<temp>0.00</temp>
<bpm>0</bpm>
<rpm>0.00</rpm>
</extensions>
</trkpt>
<trkpt lat="30.618717194" lon="34.810825348">
<ele>813.796875</ele>
<time>2013-11-22T06:46:03Z</time>
<speed>3.410000</speed>
<extensions>
<speed>3.4</speed>
<temp>0.00</temp>
<bpm>0</bpm>
<rpm>0.00</rpm>
</extensions>
</trkpt>
<trkpt lat="30.618831635" lon="34.810874939">
<ele>814.406250</ele>
<time>2013-11-22T06:46:08Z</time>
<speed>2.800000</speed>
<extensions>
<speed>2.8</speed>
<temp>0.00</temp>
<bpm>0</bpm>
<rpm>0.00</rpm>
</extensions>
</trkpt>
<trkpt lat="30.618936539" lon="34.810962677">
<ele>813.609375</ele>
<time>2013-11-22T06:46:13Z</time>
<speed>2.420000</speed>
<extensions>
<speed>2.4</speed>
<temp>0.00</temp>
<bpm>0</bpm>
<rpm>0.00</rpm>
</extensions>
</trkpt>
<trkpt lat="30.619010925" lon="34.811054230">
<ele>812.125000</ele>
<time>2013-11-22T06:46:18Z</time>
<speed>2.420000</speed>
<extensions>
<speed>2.4</speed>
<temp>0.00</temp>
<bpm>0</bpm>
<rpm>0.00</rpm>
</extensions>
</trkpt>
<trkpt lat="30.619081497" lon="34.811214447">
<ele>811.937500</ele>
<time>2013-11-22T06:46:23Z</time>
<speed>3.670000</speed>
<extensions>
<speed>3.7</speed>
<temp>0.00</temp>
<bpm>0</bpm>
<rpm>0.00</rpm>
</extensions>
</trkpt>
<trkpt lat="30.619167328" lon="34.811382294">
<ele>812.375000</ele>
<time>2013-11-22T06:46:28Z</time>
<speed>3.590000</speed>
<extensions>
<speed>3.6</speed>
<temp>0.00</temp>
<bpm>0</bpm>
<rpm>0.00</rpm>
</extensions>
</trkpt>
<trkpt lat="30.619329453" lon="34.811515808">
<ele>811.734375</ele>
<time>2013-11-22T06:46:33Z</time>
<speed>4.790000</speed>
<extensions>
<speed>4.8</speed>
<temp>0.00</temp>
<bpm>0</bpm>
<rpm>0.00</rpm>
</extensions>
</trkpt>
<trkpt lat="30.619529724" lon="34.811626434">
<ele>812.171875</ele>
<time>2013-11-22T06:46:38Z</time>
<speed>4.730000</speed>
<extensions>
<speed>4.7</speed>
<temp>0.00</temp>
<bpm>0</bpm>
<rpm>0.00</rpm>
</extensions>
</trkpt>
<trkpt lat="30.619737625" lon="34.811717987">
<ele>812.046875</ele>
<time>2013-11-22T06:46:43Z</time>
<speed>4.620000</speed>
<extensions>
<speed>4.6</speed>
<temp>0.00</temp>
<bpm>0</bpm>
<rpm>0.00</rpm>
</extensions>
</trkpt>
<trkpt lat="30.619894028" lon="34.811889648">
<ele>813.015625</ele>
<time>2013-11-22T06:46:48Z</time>
<speed>4.630000</speed>
<extensions>
<speed>4.6</speed>
<temp>0.00</temp>
<bpm>0</bpm>
<rpm>0.00</rpm>
</extensions>
</trkpt>
<trkpt lat="30.619918823" lon="34.812137604">
<ele>813.421875</ele>
<time>2013-11-22T06:46:53Z</time>
<speed>4.140000</speed>
<extensions>
<speed>4.1</speed>
<temp>0.00</temp>
<bpm>0</bpm>
<rpm>0.00</rpm>
</extensions>
</trkpt>
<trkpt lat="30.619821548" lon="34.812347412">
<ele>813.718750</ele>
<time>2013-11-22T06:46:58Z</time>
<speed>4.310000</speed>
<extensions>
<speed>4.3</speed>
<temp>0.00</temp>
<bpm>0</bpm>
<rpm>0.00</rpm>
</extensions>
</trkpt>
<trkpt lat="30.619859695" lon="34.812572479">
<ele>813.703125</ele>
<time>2013-11-22T06:47:03Z</time>
<speed>4.160000</speed>
<extensions>
<speed>4.2</speed>
<temp>0.00</temp>
<bpm>0</bpm>
<rpm>0.00</rpm>
</extensions>
</trkpt>
<trkpt lat="30.619792938" lon="34.812751770">
<ele>813.671875</ele>
<time>2013-11-22T06:47:08Z</time>
<speed>3.720000</speed>
<extensions>
<speed>3.7</speed>
<temp>0.00</temp>
<bpm>0</bpm>
<rpm>0.00</rpm>
</extensions>
</trkpt>
<trkpt lat="30.619813919" lon="34.812923431">
<ele>812.671875</ele>
<time>2013-11-22T06:47:13Z</time>
<speed>2.940000</speed>
<extensions>
<speed>2.9</speed>
<temp>0.00</temp>
<bpm>0</bpm>
<rpm>0.00</rpm>
</extensions>
</trkpt>
<trkpt lat="30.619874954" lon="34.813041687">
<ele>811.406250</ele>
<time>2013-11-22T06:47:18Z</time>
<speed>3.060000</speed>
<extensions>
<speed>3.1</speed>
<temp>0.00</temp>
<bpm>0</bpm>
<rpm>0.00</rpm>
</extensions>
</trkpt>
<trkpt lat="30.619899750" lon="34.813171387">
<ele>809.796875</ele>
<time>2013-11-22T06:47:23Z</time>
<speed>2.800000</speed>
<extensions>
<speed>2.8</speed>
<temp>0.00</temp>
<bpm>0</bpm>
<rpm>0.00</rpm>
</extensions>
</trkpt>
<trkpt lat="30.619892120" lon="34.813297272">
<ele>811.390625</ele>
<time>2013-11-22T06:47:28Z</time>
<speed>2.110000</speed>
<extensions>
<speed>2.1</speed>
<temp>0.00</temp>
<bpm>0</bpm>
<rpm>0.00</rpm>
</extensions>
</trkpt>
<trkpt lat="30.619876862" lon="34.813411713">
<ele>812.234375</ele>
<time>2013-11-22T06:47:33Z</time>
<speed>1.670000</speed>
<extensions>
<speed>1.7</speed>
<temp>0.00</temp>
<bpm>0</bpm>
<rpm>0.00</rpm>
</extensions>
</trkpt>
<trkpt lat="30.619863510" lon="34.813507080">
<ele>813.250000</ele>
<time>2013-11-22T06:47:38Z</time>
<speed>1.460000</speed>
<extensions>
<speed>1.5</speed>
<temp>0.00</temp>
<bpm>0</bpm>
<rpm>0.00</rpm>
</extensions>
</trkpt>
<trkpt lat="30.619873047" lon="34.813560486">
<ele>815.046875</ele>
<time>2013-11-22T06:47:43Z</time>
<speed>1.330000</speed>
<extensions>
<speed>1.3</speed>
<temp>0.00</temp>
<bpm>0</bpm>
<rpm>0.00</rpm>
</extensions>
</trkpt>
<trkpt lat="30.619892120" lon="34.813583374">
<ele>815.062500</ele>
<time>2013-11-22T06:47:48Z</time>
<speed>0.160000</speed>
<extensions>
<speed>0.2</speed>
<temp>0.00</temp>
<bpm>0</bpm>
<rpm>0.00</rpm>
</extensions>
</trkpt>
<trkpt lat="30.619894028" lon="34.813587189">
<ele>815.140625</ele>
<time>2013-11-22T06:47:53Z</time>
<speed>0.010000</speed>
<extensions>
<speed>0.0</speed>
<temp>0.00</temp>
<bpm>0</bpm>
<rpm>0.00</rpm>
</extensions>
</trkpt>
<trkpt lat="30.619892120" lon="34.813587189">
<ele>815.062500</ele>
<time>2013-11-22T06:47:58Z</time>
<speed>0.050000</speed>
<extensions>
<speed>0.1</speed>
<temp>0.00</temp>
<bpm>0</bpm>
<rpm>0.00</rpm>
</extensions>
</trkpt>
<trkpt lat="30.619895935" lon="34.813583374">
<ele>814.875000</ele>
<time>2013-11-22T06:48:03Z</time>
<speed>0.040000</speed>
<extensions>
<speed>0.0</speed>
<temp>0.00</temp>
<bpm>0</bpm>
<rpm>0.00</rpm>
</extensions>
</trkpt>
<trkpt lat="30.619903564" lon="34.813591003">
<ele>814.843750</ele>
<time>2013-11-22T06:48:08Z</time>
<speed>1.120000</speed>
<extensions>
<speed>1.1</speed>
<temp>0.00</temp>
<bpm>0</bpm>
<rpm>0.00</rpm>
</extensions>
</trkpt>
<trkpt lat="30.619968414" lon="34.813606262">
<ele>814.468750</ele>
<time>2013-11-22T06:48:13Z</time>
<speed>1.920000</speed>
<extensions>
<speed>1.9</speed>
<temp>0.00</temp>
<bpm>0</bpm>
<rpm>0.00</rpm>
</extensions>
</trkpt>
<trkpt lat="30.620061874" lon="34.813648224">
<ele>814.546875</ele>
<time>2013-11-22T06:48:18Z</time>
<speed>2.140000</speed>
<extensions>
<speed>2.1</speed>
<temp>0.00</temp>
<bpm>0</bpm>
<rpm>0.00</rpm>
</extensions>
</trkpt>
<trkpt lat="30.620145798" lon="34.813705444">
<ele>816.890625</ele>
<time>2013-11-22T06:48:23Z</time>
<speed>1.960000</speed>
<extensions>
<speed>2.0</speed>
<temp>0.00</temp>
<bpm>0</bpm>
<rpm>0.00</rpm>
</extensions>
</trkpt>
<trkpt lat="30.620195389" lon="34.813781738">
<ele>817.968750</ele>
<time>2013-11-22T06:48:28Z</time>
<speed>2.230000</speed>
<extensions>
<speed>2.2</speed>
<temp>0.00</temp>
<bpm>0</bpm>
<rpm>0.00</rpm>
</extensions>
</trkpt>
<trkpt lat="30.620252609" lon="34.813877106">
<ele>818.609375</ele>
<time>2013-11-22T06:48:33Z</time>
<speed>1.960000</speed>
<extensions>
<speed>2.0</speed>
<temp>0.00</temp>
<bpm>0</bpm>
<rpm>0.00</rpm>
</extensions>
</trkpt>
<trkpt lat="30.620330811" lon="34.813941956">
<ele>816.968750</ele>
<time>2013-11-22T06:48:38Z</time>
<speed>1.560000</speed>
<extensions>
<speed>1.6</speed>
<temp>0.00</temp>
<bpm>0</bpm>
<rpm>0.00</rpm>
</extensions>
</trkpt>
<trkpt lat="30.620397568" lon="34.814010620">
<ele>817.625000</ele>
<time>2013-11-22T06:48:43Z</time>
<speed>1.930000</speed>
<extensions>
<speed>1.9</speed>
<temp>0.00</temp>
<bpm>0</bpm>
<rpm>0.00</rpm>
</extensions>
</trkpt>
<trkpt lat="30.620458603" lon="34.814075470">
<ele>817.343750</ele>
<time>2013-11-22T06:48:48Z</time>
<speed>2.100000</speed>
<extensions>
<speed>2.1</speed>
<temp>0.00</temp>
<bpm>0</bpm>
<rpm>0.00</rpm>
</extensions>
</trkpt>
<trkpt lat="30.620529175" lon="34.814144135">
<ele>817.484375</ele>
<time>2013-11-22T06:48:53Z</time>
<speed>2.540000</speed>
<extensions>
<speed>2.5</speed>
<temp>0.00</temp>
<bpm>0</bpm>
<rpm>0.00</rpm>
</extensions>
</trkpt>
<trkpt lat="30.620605469" lon="34.814239502">
<ele>818.375000</ele>
<time>2013-11-22T06:48:58Z</time>
<speed>1.810000</speed>
<extensions>
<speed>1.8</speed>
<temp>0.00</temp>
<bpm>0</bpm>
<rpm>0.00</rpm>
</extensions>
</trkpt>
<trkpt lat="30.620687485" lon="34.814300537">
<ele>817.843750</ele>
<time>2013-11-22T06:49:03Z</time>
<speed>2.690000</speed>
<extensions>
<speed>2.7</speed>
<temp>0.00</temp>
<bpm>0</bpm>
<rpm>0.00</rpm>
</extensions>
</trkpt>
<trkpt lat="30.620786667" lon="34.814361572">
<ele>816.328125</ele>
<time>2013-11-22T06:49:08Z</time>
<speed>2.480000</speed>
<extensions>
<speed>2.5</speed>
<temp>0.00</temp>
<bpm>0</bpm>
<rpm>0.00</rpm>
</extensions>
</trkpt>
<trkpt lat="30.620853424" lon="34.814411163">
<ele>816.781250</ele>
<time>2013-11-22T06:49:13Z</time>
<speed>1.460000</speed>
<extensions>
<speed>1.5</speed>
<temp>0.00</temp>
<bpm>0</bpm>
<rpm>0.00</rpm>
</extensions>
</trkpt>
<trkpt lat="30.620943069" lon="34.814441681">
<ele>814.343750</ele>
<time>2013-11-22T06:49:18Z</time>
<speed>2.420000</speed>
<extensions>
<speed>2.4</speed>
<temp>0.00</temp>
<bpm>0</bpm>
<rpm>0.00</rpm>
</extensions>
</trkpt>
<trkpt lat="30.621065140" lon="34.814445496">
<ele>813.875000</ele>
<time>2013-11-22T06:49:23Z</time>
<speed>2.670000</speed>
<extensions>
<speed>2.7</speed>
<temp>0.00</temp>
<bpm>0</bpm>
<rpm>0.00</rpm>
</extensions>
</trkpt>
<trkpt lat="30.621189117" lon="34.814479828">
<ele>812.375000</ele>
<time>2013-11-22T06:49:28Z</time>
<speed>2.480000</speed>
<extensions>
<speed>2.5</speed>
<temp>0.00</temp>
<bpm>0</bpm>
<rpm>0.00</rpm>
</extensions>
</trkpt>
<trkpt lat="30.621284485" lon="34.814548492">
<ele>811.484375</ele>
<time>2013-11-22T06:49:33Z</time>
<speed>2.050000</speed>
<extensions>
<speed>2.1</speed>
<temp>0.00</temp>
<bpm>0</bpm>
<rpm>0.00</rpm>
</extensions>
</trkpt>
<trkpt lat="30.621335983" lon="34.814624786">
<ele>810.187500</ele>
<time>2013-11-22T06:49:38Z</time>
<speed>2.680000</speed>
<extensions>
<speed>2.7</speed>
<temp>0.00</temp>
<bpm>0</bpm>
<rpm>0.00</rpm>
</extensions>
</trkpt>
<trkpt lat="30.621419907" lon="34.814704895">
<ele>808.406250</ele>
<time>2013-11-22T06:49:43Z</time>
<speed>2.510000</speed>
<extensions>
<speed>2.5</speed>
<temp>0.00</temp>
<bpm>0</bpm>
<rpm>0.00</rpm>
</extensions>
</trkpt>
<trkpt lat="30.621461868" lon="34.814826965">
<ele>806.484375</ele>
<time>2013-11-22T06:49:48Z</time>
<speed>2.940000</speed>
<extensions>
<speed>2.9</speed>
<temp>0.00</temp>
<bpm>0</bpm>
<rpm>0.00</rpm>
</extensions>
</trkpt>
<trkpt lat="30.621562958" lon="34.814922333">
<ele>805.656250</ele>
<time>2013-11-22T06:49:53Z</time>
<speed>2.440000</speed>
<extensions>
<speed>2.4</speed>
<temp>0.00</temp>
<bpm>0</bpm>
<rpm>0.00</rpm>
</extensions>
</trkpt>
<trkpt lat="30.621637344" lon="34.814990997">
<ele>805.343750</ele>
<time>2013-11-22T06:49:58Z</time>
<speed>1.770000</speed>
<extensions>
<speed>1.8</speed>
<temp>0.00</temp>
<bpm>0</bpm>
<rpm>0.00</rpm>
</extensions>
</trkpt>
<trkpt lat="30.621707916" lon="34.815055847">
<ele>804.718750</ele>
<time>2013-11-22T06:50:03Z</time>
<speed>1.680000</speed>
<extensions>
<speed>1.7</speed>
<temp>0.00</temp>
<bpm>0</bpm>
<rpm>0.00</rpm>
</extensions>
</trkpt>
<trkpt lat="30.621784210" lon="34.815124512">
<ele>805.625000</ele>
<time>2013-11-22T06:50:08Z</time>
<speed>2.170000</speed>
<extensions>
<speed>2.2</speed>
<temp>0.00</temp>
<bpm>0</bpm>
<rpm>0.00</rpm>
</extensions>
</trkpt>
<trkpt lat="30.621889114" lon="34.815208435">
<ele>805.515625</ele>
<time>2013-11-22T06:50:13Z</time>
<speed>2.920000</speed>
<extensions>
<speed>2.9</speed>
<temp>0.00</temp>
<bpm>0</bpm>
<rpm>0.00</rpm>
</extensions>
</trkpt>
<trkpt lat="30.621971130" lon="34.815216064">
<ele>804.125000</ele>
<time>2013-11-22T06:50:18Z</time>
<speed>1.020000</speed>
<extensions>
<speed>1.0</speed>
<temp>0.00</temp>
<bpm>0</bpm>
<rpm>0.00</rpm>
</extensions>
</trkpt>
<trkpt lat="30.621973038" lon="34.815200806">
<ele>806.265625</ele>
<time>2013-11-22T06:50:23Z</time>
<speed>0.020000</speed>
<extensions>
<speed>0.0</speed>
<temp>0.00</temp>
<bpm>0</bpm>
<rpm>0.00</rpm>
</extensions>
</trkpt>
<trkpt lat="30.621973038" lon="34.815200806">
<ele>806.203125</ele>
<time>2013-11-22T06:50:28Z</time>
<extensions>
<speed>0.0</speed>
<temp>0.00</temp>
<bpm>0</bpm>
<rpm>0.00</rpm>
</extensions>
</trkpt>
<trkpt lat="30.621974945" lon="34.815200806">
<ele>806.171875</ele>
<time>2013-11-22T06:50:33Z</time>
<speed>0.020000</speed>
<extensions>
<speed>0.0</speed>
<temp>0.00</temp>
<bpm>0</bpm>
<rpm>0.00</rpm>
</extensions>
</trkpt>
<trkpt lat="30.621974945" lon="34.815200806">
<ele>806.171875</ele>
<time>2013-11-22T06:50:38Z</time>
<extensions>
<speed>0.0</speed>
<temp>0.00</temp>
<bpm>0</bpm>
<rpm>0.00</rpm>
</extensions>
</trkpt>
<trkpt lat="30.621974945" lon="34.815200806">
<ele>806.156250</ele>
<time>2013-11-22T06:50:43Z</time>
<speed>0.040000</speed>
<extensions>
<speed>0.0</speed>
<temp>0.00</temp>
<bpm>0</bpm>
<rpm>0.00</rpm>
</extensions>
</trkpt>
<trkpt lat="30.622009277" lon="34.815223694">
<ele>806.046875</ele>
<time>2013-11-22T06:50:48Z</time>
<speed>1.400000</speed>
<extensions>
<speed>1.4</speed>
<temp>0.00</temp>
<bpm>0</bpm>
<rpm>0.00</rpm>
</extensions>
</trkpt>
<trkpt lat="30.622106552" lon="34.815265656">
<ele>806.328125</ele>
<time>2013-11-22T06:50:53Z</time>
<speed>2.480000</speed>
<extensions>
<speed>2.5</speed>
<temp>0.00</temp>
<bpm>0</bpm>
<rpm>0.00</rpm>
</extensions>
</trkpt>
<trkpt lat="30.622203827" lon="34.815330505">
<ele>806.937500</ele>
<time>2013-11-22T06:50:58Z</time>
<speed>2.240000</speed>
<extensions>
<speed>2.2</speed>
<temp>0.00</temp>
<bpm>0</bpm>
<rpm>0.00</rpm>
</extensions>
</trkpt>
<trkpt lat="30.622310638" lon="34.815399170">
<ele>806.109375</ele>
<time>2013-11-22T06:51:03Z</time>
<speed>2.020000</speed>
<extensions>
<speed>2.0</speed>
<temp>0.00</temp>
<bpm>0</bpm>
<rpm>0.00</rpm>
</extensions>
</trkpt>
<trkpt lat="30.622406006" lon="34.815448761">
<ele>805.671875</ele>
<time>2013-11-22T06:51:08Z</time>
<speed>1.800000</speed>
<extensions>
<speed>1.8</speed>
<temp>0.00</temp>
<bpm>0</bpm>
<rpm>0.00</rpm>
</extensions>
</trkpt>
<trkpt lat="30.622488022" lon="34.815483093">
<ele>806.265625</ele>
<time>2013-11-22T06:51:13Z</time>
<speed>2.010000</speed>
<extensions>
<speed>2.0</speed>
<temp>0.00</temp>
<bpm>0</bpm>
<rpm>0.00</rpm>
</extensions>
</trkpt>
<trkpt lat="30.622558594" lon="34.815505981">
<ele>804.906250</ele>
<time>2013-11-22T06:51:18Z</time>
<speed>1.500000</speed>
<extensions>
<speed>1.5</speed>
<temp>0.00</temp>
<bpm>0</bpm>
<rpm>0.00</rpm>
</extensions>
</trkpt>
<trkpt lat="30.622632980" lon="34.815521240">
<ele>805.640625</ele>
<time>2013-11-22T06:51:23Z</time>
<speed>1.710000</speed>
<extensions>
<speed>1.7</speed>
<temp>0.00</temp>
<bpm>0</bpm>
<rpm>0.00</rpm>
</extensions>
</trkpt>
<trkpt lat="30.622713089" lon="34.815540314">
<ele>804.968750</ele>
<time>2013-11-22T06:51:28Z</time>
<speed>1.860000</speed>
<extensions>
<speed>1.9</speed>
<temp>0.00</temp>
<bpm>0</bpm>
<rpm>0.00</rpm>
</extensions>
</trkpt>
<trkpt lat="30.622840881" lon="34.815597534">
<ele>805.687500</ele>
<time>2013-11-22T06:51:33Z</time>
<speed>3.490000</speed>
<extensions>
<speed>3.5</speed>
<temp>0.00</temp>
<bpm>0</bpm>
<rpm>0.00</rpm>
</extensions>
</trkpt>
<trkpt lat="30.623003006" lon="34.815654755">
<ele>806.265625</ele>
<time>2013-11-22T06:51:38Z</time>
<speed>4.170000</speed>
<extensions>
<speed>4.2</speed>
<temp>0.00</temp>
<bpm>0</bpm>
<rpm>0.00</rpm>
</extensions>
</trkpt>
<trkpt lat="30.623180389" lon="34.815715790">
<ele>805.625000</ele>
<time>2013-11-22T06:51:43Z</time>
<speed>3.910000</speed>
<extensions>
<speed>3.9</speed>
<temp>0.00</temp>
<bpm>0</bpm>
<rpm>0.00</rpm>
</extensions>
</trkpt>
<trkpt lat="30.623294830" lon="34.815891266">
<ele>805.390625</ele>
<time>2013-11-22T06:51:48Z</time>
<speed>4.230000</speed>
<extensions>
<speed>4.2</speed>
<temp>0.00</temp>
<bpm>0</bpm>
<rpm>0.00</rpm>
</extensions>
</trkpt>
<trkpt lat="30.623392105" lon="34.816059113">
<ele>805.890625</ele>
<time>2013-11-22T06:51:53Z</time>
<speed>3.240000</speed>
<extensions>
<speed>3.2</speed>
<temp>0.00</temp>
<bpm>0</bpm>
<rpm>0.00</rpm>
</extensions>
</trkpt>
<trkpt lat="30.623477936" lon="34.816204071">
<ele>805.078125</ele>
<time>2013-11-22T06:51:58Z</time>
<speed>3.430000</speed>
<extensions>
<speed>3.4</speed>
<temp>0.00</temp>
<bpm>0</bpm>
<rpm>0.00</rpm>
</extensions>
</trkpt>
<trkpt lat="30.623630524" lon="34.816272736">
<ele>805.515625</ele>
<time>2013-11-22T06:52:03Z</time>
<speed>3.100000</speed>
<extensions>
<speed>3.1</speed>
<temp>0.00</temp>
<bpm>0</bpm>
<rpm>0.00</rpm>
</extensions>
</trkpt>
<trkpt lat="30.623773575" lon="34.816383362">
<ele>801.015625</ele>
<time>2013-11-22T06:52:08Z</time>
<speed>3.730000</speed>
<extensions>
<speed>3.7</speed>
<temp>0.00</temp>
<bpm>0</bpm>
<rpm>0.00</rpm>
</extensions>
</trkpt>
<trkpt lat="30.623947144" lon="34.816452026">
<ele>798.796875</ele>
<time>2013-11-22T06:52:13Z</time>
<speed>3.850000</speed>
<extensions>
<speed>3.8</speed>
<temp>0.00</temp>
<bpm>0</bpm>
<rpm>0.00</rpm>
</extensions>
</trkpt>
<trkpt lat="30.624107361" lon="34.816520691">
<ele>798.171875</ele>
<time>2013-11-22T06:52:18Z</time>
<speed>3.780000</speed>
<extensions>
<speed>3.8</speed>
<temp>0.00</temp>
<bpm>0</bpm>
<rpm>0.00</rpm>
</extensions>
</trkpt>
<trkpt lat="30.624237061" lon="34.816638947">
<ele>797.953125</ele>
<time>2013-11-22T06:52:23Z</time>
<speed>3.490000</speed>
<extensions>
<speed>3.5</speed>
<temp>0.00</temp>
<bpm>0</bpm>
<rpm>0.00</rpm>
</extensions>
</trkpt>
<trkpt lat="30.624374390" lon="34.816722870">
<ele>799.406250</ele>
<time>2013-11-22T06:52:28Z</time>
<speed>3.340000</speed>
<extensions>
<speed>3.3</speed>
<temp>0.00</temp>
<bpm>0</bpm>
<rpm>0.00</rpm>
</extensions>
</trkpt>
<trkpt lat="30.624490738" lon="34.816806793">
<ele>797.515625</ele>
<time>2013-11-22T06:52:33Z</time>
<speed>2.890000</speed>
<extensions>
<speed>2.9</speed>
<temp>0.00</temp>
<bpm>0</bpm>
<rpm>0.00</rpm>
</extensions>
</trkpt>
<trkpt lat="30.624637604" lon="34.816860199">
<ele>799.421875</ele>
<time>2013-11-22T06:52:38Z</time>
<speed>3.650000</speed>
<extensions>
<speed>3.7</speed>
<temp>0.00</temp>
<bpm>0</bpm>
<rpm>0.00</rpm>
</extensions>
</trkpt>
<trkpt lat="30.624834061" lon="34.816902161">
<ele>800.187500</ele>
<time>2013-11-22T06:52:43Z</time>
<speed>3.880000</speed>
<extensions>
<speed>3.9</speed>
<temp>0.00</temp>
<bpm>0</bpm>
<rpm>0.00</rpm>
</extensions>
</trkpt>
<trkpt lat="30.624975204" lon="34.817089081">
<ele>800.046875</ele>
<time>2013-11-22T06:52:48Z</time>
<speed>4.380000</speed>
<extensions>
<speed>4.4</speed>
<temp>0.00</temp>
<bpm>0</bpm>
<rpm>0.00</rpm>
</extensions>
</trkpt>
<trkpt lat="30.625049591" lon="34.817272186">
<ele>800.937500</ele>
<time>2013-11-22T06:52:53Z</time>
<speed>3.150000</speed>
<extensions>
<speed>3.2</speed>
<temp>0.00</temp>
<bpm>0</bpm>
<rpm>0.00</rpm>
</extensions>
</trkpt>
<trkpt lat="30.625173569" lon="34.817394257">
<ele>799.734375</ele>
<time>2013-11-22T06:52:58Z</time>
<speed>4.370000</speed>
<extensions>
<speed>4.4</speed>
<temp>0.00</temp>
<bpm>0</bpm>
<rpm>0.00</rpm>
</extensions>
</trkpt>
<trkpt lat="30.625328064" lon="34.817520142">
<ele>800.015625</ele>
<time>2013-11-22T06:53:03Z</time>
<speed>4.230000</speed>
<extensions>
<speed>4.2</speed>
<temp>0.00</temp>
<bpm>0</bpm>
<rpm>0.00</rpm>
</extensions>
</trkpt>
<trkpt lat="30.625467300" lon="34.817646027">
<ele>798.593750</ele>
<time>2013-11-22T06:53:08Z</time>
<speed>4.190000</speed>
<extensions>
<speed>4.2</speed>
<temp>0.00</temp>
<bpm>0</bpm>
<rpm>0.00</rpm>
</extensions>
</trkpt>
<trkpt lat="30.625526428" lon="34.817878723">
<ele>799.812500</ele>
<time>2013-11-22T06:53:13Z</time>
<speed>4.180000</speed>
<extensions>
<speed>4.2</speed>
<temp>0.00</temp>
<bpm>0</bpm>
<rpm>0.00</rpm>
</extensions>
</trkpt>
<trkpt lat="30.625595093" lon="34.818027496">
<ele>800.421875</ele>
<time>2013-11-22T06:53:18Z</time>
<speed>2.710000</speed>
<extensions>
<speed>2.7</speed>
<temp>0.00</temp>
<bpm>0</bpm>
<rpm>0.00</rpm>
</extensions>
</trkpt>
<trkpt lat="30.625690460" lon="34.818149567">
<ele>801.781250</ele>
<time>2013-11-22T06:53:23Z</time>
<speed>3.680000</speed>
<extensions>
<speed>3.7</speed>
<temp>0.00</temp>
<bpm>0</bpm>
<rpm>0.00</rpm>
</extensions>
</trkpt>
<trkpt lat="30.625814438" lon="34.818264008">
<ele>803.812500</ele>
<time>2013-11-22T06:53:28Z</time>
<speed>3.140000</speed>
<extensions>
<speed>3.1</speed>
<temp>0.00</temp>
<bpm>0</bpm>
<rpm>0.00</rpm>
</extensions>
</trkpt>
<trkpt lat="30.625928879" lon="34.818344116">
<ele>802.375000</ele>
<time>2013-11-22T06:53:33Z</time>
<speed>4.040000</speed>
<extensions>
<speed>4.0</speed>
<temp>0.00</temp>
<bpm>0</bpm>
<rpm>0.00</rpm>
</extensions>
</trkpt>
<trkpt lat="30.626058578" lon="34.818454742">
<ele>801.718750</ele>
<time>2013-11-22T06:53:38Z</time>
<speed>3.770000</speed>
<extensions>
<speed>3.8</speed>
<temp>0.00</temp>
<bpm>0</bpm>
<rpm>0.00</rpm>
</extensions>
</trkpt>
<trkpt lat="30.626205444" lon="34.818531036">
<ele>799.312500</ele>
<time>2013-11-22T06:53:43Z</time>
<speed>3.320000</speed>
<extensions>
<speed>3.3</speed>
<temp>0.00</temp>
<bpm>0</bpm>
<rpm>0.00</rpm>
</extensions>
</trkpt>
<trkpt lat="30.626335144" lon="34.818603516">
<ele>798.984375</ele>
<time>2013-11-22T06:53:48Z</time>
<speed>4.090000</speed>
<extensions>
<speed>4.1</speed>
<temp>0.00</temp>
<bpm>0</bpm>
<rpm>0.00</rpm>
</extensions>
</trkpt>
<trkpt lat="30.626476288" lon="34.818717957">
<ele>798.828125</ele>
<time>2013-11-22T06:53:53Z</time>
<speed>3.680000</speed>
<extensions>
<speed>3.7</speed>
<temp>0.00</temp>
<bpm>0</bpm>
<rpm>0.00</rpm>
</extensions>
</trkpt>
<trkpt lat="30.626590729" lon="34.818843842">
<ele>799.265625</ele>
<time>2013-11-22T06:53:58Z</time>
<speed>3.000000</speed>
<extensions>
<speed>3.0</speed>
<temp>0.00</temp>
<bpm>0</bpm>
<rpm>0.00</rpm>
</extensions>
</trkpt>
<trkpt lat="30.626688004" lon="34.818958282">
<ele>800.968750</ele>
<time>2013-11-22T06:54:03Z</time>
<speed>3.550000</speed>
<extensions>
<speed>3.5</speed>
<temp>0.00</temp>
<bpm>0</bpm>
<rpm>0.00</rpm>
</extensions>
</trkpt>
<trkpt lat="30.626798630" lon="34.819099426">
<ele>801.484375</ele>
<time>2013-11-22T06:54:08Z</time>
<speed>3.870000</speed>
<extensions>
<speed>3.9</speed>
<temp>0.00</temp>
<bpm>0</bpm>
<rpm>0.00</rpm>
</extensions>
</trkpt>
<trkpt lat="30.626901627" lon="34.819244385">
<ele>797.859375</ele>
<time>2013-11-22T06:54:13Z</time>
<speed>3.520000</speed>
<extensions>
<speed>3.5</speed>
<temp>0.00</temp>
<bpm>0</bpm>
<rpm>0.00</rpm>
</extensions>
</trkpt>
<trkpt lat="30.627056122" lon="34.819305420">
<ele>799.281250</ele>
<time>2013-11-22T06:54:18Z</time>
<speed>3.610000</speed>
<extensions>
<speed>3.6</speed>
<temp>0.00</temp>
<bpm>0</bpm>
<rpm>0.00</rpm>
</extensions>
</trkpt>
<trkpt lat="30.627220154" lon="34.819355011">
<ele>797.531250</ele>
<time>2013-11-22T06:54:23Z</time>
<speed>4.030000</speed>
<extensions>
<speed>4.0</speed>
<temp>0.00</temp>
<bpm>0</bpm>
<rpm>0.00</rpm>
</extensions>
</trkpt>
<trkpt lat="30.627342224" lon="34.819507599">
<ele>798.546875</ele>
<time>2013-11-22T06:54:28Z</time>
<speed>4.510000</speed>
<extensions>
<speed>4.5</speed>
<temp>0.00</temp>
<bpm>0</bpm>
<rpm>0.00</rpm>
</extensions>
</trkpt>
<trkpt lat="30.627481461" lon="34.819664001">
<ele>799.843750</ele>
<time>2013-11-22T06:54:33Z</time>
<speed>3.870000</speed>
<extensions>
<speed>3.9</speed>
<temp>0.00</temp>
<bpm>0</bpm>
<rpm>0.00</rpm>
</extensions>
</trkpt>
<trkpt lat="30.627597809" lon="34.819801331">
<ele>798.500000</ele>
<time>2013-11-22T06:54:38Z</time>
<speed>3.480000</speed>
<extensions>
<speed>3.5</speed>
<temp>0.00</temp>
<bpm>0</bpm>
<rpm>0.00</rpm>
</extensions>
</trkpt>
<trkpt lat="30.627712250" lon="34.819839478">
<ele>796.500000</ele>
<time>2013-11-22T06:54:43Z</time>
<speed>2.490000</speed>
<extensions>
<speed>2.5</speed>
<temp>0.00</temp>
<bpm>0</bpm>
<rpm>0.00</rpm>
</extensions>
</trkpt>
<trkpt lat="30.627851486" lon="34.819858551">
<ele>793.921875</ele>
<time>2013-11-22T06:54:48Z</time>
<speed>3.280000</speed>
<extensions>
<speed>3.3</speed>
<temp>0.00</temp>
<bpm>0</bpm>
<rpm>0.00</rpm>
</extensions>
</trkpt>
<trkpt lat="30.628017426" lon="34.819862366">
<ele>793.250000</ele>
<time>2013-11-22T06:54:53Z</time>
<speed>3.620000</speed>
<extensions>
<speed>3.6</speed>
<temp>0.00</temp>
<bpm>0</bpm>
<rpm>0.00</rpm>
</extensions>
</trkpt>
<trkpt lat="30.628164291" lon="34.819953918">
<ele>794.640625</ele>
<time>2013-11-22T06:54:58Z</time>
<speed>3.590000</speed>
<extensions>
<speed>3.6</speed>
<temp>0.00</temp>
<bpm>0</bpm>
<rpm>0.00</rpm>
</extensions>
</trkpt>
<trkpt lat="30.628271103" lon="34.820121765">
<ele>794.578125</ele>
<time>2013-11-22T06:55:03Z</time>
<speed>3.770000</speed>
<extensions>
<speed>3.8</speed>
<temp>0.00</temp>
<bpm>0</bpm>
<rpm>0.00</rpm>
</extensions>
</trkpt>
<trkpt lat="30.628395081" lon="34.820240021">
<ele>796.812500</ele>
<time>2013-11-22T06:55:08Z</time>
<speed>2.330000</speed>
<extensions>
<speed>2.3</speed>
<temp>0.00</temp>
<bpm>0</bpm>
<rpm>0.00</rpm>
</extensions>
</trkpt>
<trkpt lat="30.628471375" lon="34.820262909">
<ele>794.015625</ele>
<time>2013-11-22T06:55:13Z</time>
<speed>2.210000</speed>
<extensions>
<speed>2.2</speed>
<temp>0.00</temp>
<bpm>0</bpm>
<rpm>0.00</rpm>
</extensions>
</trkpt>
<trkpt lat="30.628564835" lon="34.820323944">
<ele>794.390625</ele>
<time>2013-11-22T06:55:18Z</time>
<speed>2.020000</speed>
<extensions>
<speed>2.0</speed>
<temp>0.00</temp>
<bpm>0</bpm>
<rpm>0.00</rpm>
</extensions>
</trkpt>
<trkpt lat="30.628606796" lon="34.820415497">
<ele>795.234375</ele>
<time>2013-11-22T06:55:23Z</time>
<speed>1.310000</speed>
<extensions>
<speed>1.3</speed>
<temp>0.00</temp>
<bpm>0</bpm>
<rpm>0.00</rpm>
</extensions>
</trkpt>
<trkpt lat="30.628694534" lon="34.820461273">
<ele>796.796875</ele>
<time>2013-11-22T06:55:28Z</time>
<speed>2.460000</speed>
<extensions>
<speed>2.5</speed>
<temp>0.00</temp>
<bpm>0</bpm>
<rpm>0.00</rpm>
</extensions>
</trkpt>
<trkpt lat="30.628839493" lon="34.820510864">
<ele>795.984375</ele>
<time>2013-11-22T06:55:33Z</time>
<speed>2.880000</speed>
<extensions>
<speed>2.9</speed>
<temp>0.00</temp>
<bpm>0</bpm>
<rpm>0.00</rpm>
</extensions>
</trkpt>
<trkpt lat="30.628961563" lon="34.820579529">
<ele>795.937500</ele>
<time>2013-11-22T06:55:38Z</time>
<speed>2.980000</speed>
<extensions>
<speed>3.0</speed>
<temp>0.00</temp>
<bpm>0</bpm>
<rpm>0.00</rpm>
</extensions>
</trkpt>
<trkpt lat="30.629095078" lon="34.820640564">
<ele>794.687500</ele>
<time>2013-11-22T06:55:43Z</time>
<speed>1.560000</speed>
<extensions>
<speed>1.6</speed>
<temp>0.00</temp>
<bpm>0</bpm>
<rpm>0.00</rpm>
</extensions>
</trkpt>
<trkpt lat="30.629100800" lon="34.820652008">
<ele>792.562500</ele>
<time>2013-11-22T06:55:48Z</time>
<speed>0.020000</speed>
<extensions>
<speed>0.0</speed>
<temp>0.00</temp>
<bpm>0</bpm>
<rpm>0.00</rpm>
</extensions>
</trkpt>
<trkpt lat="30.629100800" lon="34.820652008">
<ele>792.453125</ele>
<time>2013-11-22T06:55:53Z</time>
<speed>0.020000</speed>
<extensions>
<speed>0.0</speed>
<temp>0.00</temp>
<bpm>0</bpm>
<rpm>0.00</rpm>
</extensions>
</trkpt>
<trkpt lat="30.629100800" lon="34.820652008">
<ele>792.375000</ele>
<time>2013-11-22T06:55:58Z</time>
<extensions>
<speed>0.0</speed>
<temp>0.00</temp>
<bpm>0</bpm>
<rpm>0.00</rpm>
</extensions>
</trkpt>
<trkpt lat="30.629100800" lon="34.820652008">
<ele>792.312500</ele>
<time>2013-11-22T06:56:03Z</time>
<speed>0.030000</speed>
<extensions>
<speed>0.0</speed>
<temp>0.00</temp>
<bpm>0</bpm>
<rpm>0.00</rpm>
</extensions>
</trkpt>
<trkpt lat="30.629182816" lon="34.820674896">
<ele>791.796875</ele>
<time>2013-11-22T06:56:08Z</time>
<speed>3.340000</speed>
<extensions>
<speed>3.3</speed>
<temp>0.00</temp>
<bpm>0</bpm>
<rpm>0.00</rpm>
</extensions>
</trkpt>
<trkpt lat="30.629308701" lon="34.820644379">
<ele>790.140625</ele>
<time>2013-11-22T06:56:13Z</time>
<speed>3.100000</speed>
<extensions>
<speed>3.1</speed>
<temp>0.00</temp>
<bpm>0</bpm>
<rpm>0.00</rpm>
</extensions>
</trkpt>
<trkpt lat="30.629350662" lon="34.820510864">
<ele>788.531250</ele>
<time>2013-11-22T06:56:18Z</time>
<speed>3.420000</speed>
<extensions>
<speed>3.4</speed>
<temp>0.00</temp>
<bpm>0</bpm>
<rpm>0.00</rpm>
</extensions>
</trkpt>
<trkpt lat="30.629367828" lon="34.820320129">
<ele>786.500000</ele>
<time>2013-11-22T06:56:23Z</time>
<speed>3.870000</speed>
<extensions>
<speed>3.9</speed>
<temp>0.00</temp>
<bpm>0</bpm>
<rpm>0.00</rpm>
</extensions>
</trkpt>
<trkpt lat="30.629365921" lon="34.820125580">
<ele>783.250000</ele>
<time>2013-11-22T06:56:28Z</time>
<speed>3.230000</speed>
<extensions>
<speed>3.2</speed>
<temp>0.00</temp>
<bpm>0</bpm>
<rpm>0.00</rpm>
</extensions>
</trkpt>
<trkpt lat="30.629352570" lon="34.819950104">
<ele>783.218750</ele>
<time>2013-11-22T06:56:33Z</time>
<speed>3.740000</speed>
<extensions>
<speed>3.7</speed>
<temp>0.00</temp>
<bpm>0</bpm>
<rpm>0.00</rpm>
</extensions>
</trkpt>
<trkpt lat="30.629367828" lon="34.819728851">
<ele>782.203125</ele>
<time>2013-11-22T06:56:38Z</time>
<speed>3.980000</speed>
<extensions>
<speed>4.0</speed>
<temp>0.00</temp>
<bpm>0</bpm>
<rpm>0.00</rpm>
</extensions>
</trkpt>
<trkpt lat="30.629358292" lon="34.819568634">
<ele>782.312500</ele>
<time>2013-11-22T06:56:43Z</time>
<speed>1.970000</speed>
<extensions>
<speed>2.0</speed>
<temp>0.00</temp>
<bpm>0</bpm>
<rpm>0.00</rpm>
</extensions>
</trkpt>
<trkpt lat="30.629306793" lon="34.819469452">
<ele>783.359375</ele>
<time>2013-11-22T06:56:48Z</time>
<speed>2.160000</speed>
<extensions>
<speed>2.2</speed>
<temp>0.00</temp>
<bpm>0</bpm>
<rpm>0.00</rpm>
</extensions>
</trkpt>
<trkpt lat="30.629259109" lon="34.819366455">
<ele>783.218750</ele>
<time>2013-11-22T06:56:53Z</time>
<speed>2.380000</speed>
<extensions>
<speed>2.4</speed>
<temp>0.00</temp>
<bpm>0</bpm>
<rpm>0.00</rpm>
</extensions>
</trkpt>
<trkpt lat="30.629213333" lon="34.819282532">
<ele>783.468750</ele>
<time>2013-11-22T06:56:58Z</time>
<speed>1.730000</speed>
<extensions>
<speed>1.7</speed>
<temp>0.00</temp>
<bpm>0</bpm>
<rpm>0.00</rpm>
</extensions>
</trkpt>
<trkpt lat="30.629159927" lon="34.819198608">
<ele>782.562500</ele>
<time>2013-11-22T06:57:03Z</time>
<speed>2.140000</speed>
<extensions>
<speed>2.1</speed>
<temp>0.00</temp>
<bpm>0</bpm>
<rpm>0.00</rpm>
</extensions>
</trkpt>
<trkpt lat="30.629087448" lon="34.819114685">
<ele>783.296875</ele>
<time>2013-11-22T06:57:08Z</time>
<speed>2.170000</speed>
<extensions>
<speed>2.2</speed>
<temp>0.00</temp>
<bpm>0</bpm>
<rpm>0.00</rpm>
</extensions>
</trkpt>
<trkpt lat="30.629009247" lon="34.819046021">
<ele>783.828125</ele>
<time>2013-11-22T06:57:13Z</time>
<speed>2.290000</speed>
<extensions>
<speed>2.3</speed>
<temp>0.00</temp>
<bpm>0</bpm>
<rpm>0.00</rpm>
</extensions>
</trkpt>
<trkpt lat="30.628917694" lon="34.818977356">
<ele>784.671875</ele>
<time>2013-11-22T06:57:18Z</time>
<speed>2.290000</speed>
<extensions>
<speed>2.3</speed>
<temp>0.00</temp>
<bpm>0</bpm>
<rpm>0.00</rpm>
</extensions>
</trkpt>
<trkpt lat="30.628841400" lon="34.818881989">
<ele>786.250000</ele>
<time>2013-11-22T06:57:23Z</time>
<speed>2.140000</speed>
<extensions>
<speed>2.1</speed>
<temp>0.00</temp>
<bpm>0</bpm>
<rpm>0.00</rpm>
</extensions>
</trkpt>
<trkpt lat="30.628816605" lon="34.818782806">
<ele>788.312500</ele>
<time>2013-11-22T06:57:28Z</time>
<speed>2.110000</speed>
<extensions>
<speed>2.1</speed>
<temp>0.00</temp>
<bpm>0</bpm>
<rpm>0.00</rpm>
</extensions>
</trkpt>
<trkpt lat="30.628890991" lon="34.818733215">
<ele>789.859375</ele>
<time>2013-11-22T06:57:33Z</time>
<speed>2.010000</speed>
<extensions>
<speed>2.0</speed>
<temp>0.00</temp>
<bpm>0</bpm>
<rpm>0.00</rpm>
</extensions>
</trkpt>
<trkpt lat="30.628974915" lon="34.818740845">
<ele>790.125000</ele>
<time>2013-11-22T06:57:38Z</time>
<speed>2.010000</speed>
<extensions>
<speed>2.0</speed>
<temp>0.00</temp>
<bpm>0</bpm>
<rpm>0.00</rpm>
</extensions>
</trkpt>
<trkpt lat="30.629083633" lon="34.818763733">
<ele>789.250000</ele>
<time>2013-11-22T06:57:43Z</time>
<speed>2.100000</speed>
<extensions>
<speed>2.1</speed>
<temp>0.00</temp>
<bpm>0</bpm>
<rpm>0.00</rpm>
</extensions>
</trkpt>
<trkpt lat="30.629186630" lon="34.818737030">
<ele>792.109375</ele>
<time>2013-11-22T06:57:48Z</time>
<speed>2.050000</speed>
<extensions>
<speed>2.1</speed>
<temp>0.00</temp>
<bpm>0</bpm>
<rpm>0.00</rpm>
</extensions>
</trkpt>
<trkpt lat="30.629262924" lon="34.818679810">
<ele>792.875000</ele>
<time>2013-11-22T06:57:53Z</time>
<speed>1.650000</speed>
<extensions>
<speed>1.7</speed>
<temp>0.00</temp>
<bpm>0</bpm>
<rpm>0.00</rpm>
</extensions>
</trkpt>
<trkpt lat="30.629325867" lon="34.818721771">
<ele>792.968750</ele>
<time>2013-11-22T06:57:58Z</time>
<speed>1.890000</speed>
<extensions>
<speed>1.9</speed>
<temp>0.00</temp>
<bpm>0</bpm>
<rpm>0.00</rpm>
</extensions>
</trkpt>
<trkpt lat="30.629398346" lon="34.818756104">
<ele>794.593750</ele>
<time>2013-11-22T06:58:03Z</time>
<speed>1.660000</speed>
<extensions>
<speed>1.7</speed>
<temp>0.00</temp>
<bpm>0</bpm>
<rpm>0.00</rpm>
</extensions>
</trkpt>
<trkpt lat="30.629480362" lon="34.818782806">
<ele>793.750000</ele>
<time>2013-11-22T06:58:08Z</time>
<speed>1.820000</speed>
<extensions>
<speed>1.8</speed>
<temp>0.00</temp>
<bpm>0</bpm>
<rpm>0.00</rpm>
</extensions>
</trkpt>
<trkpt lat="30.629585266" lon="34.818763733">
<ele>792.671875</ele>
<time>2013-11-22T06:58:13Z</time>
<speed>2.340000</speed>
<extensions>
<speed>2.3</speed>
<temp>0.00</temp>
<bpm>0</bpm>
<rpm>0.00</rpm>
</extensions>
</trkpt>
<trkpt lat="30.629667282" lon="34.818733215">
<ele>792.593750</ele>
<time>2013-11-22T06:58:18Z</time>
<speed>1.540000</speed>
<extensions>
<speed>1.5</speed>
<temp>0.00</temp>
<bpm>0</bpm>
<rpm>0.00</rpm>
</extensions>
</trkpt>
<trkpt lat="30.629714966" lon="34.818790436">
<ele>792.859375</ele>
<time>2013-11-22T06:58:23Z</time>
<speed>2.020000</speed>
<extensions>
<speed>2.0</speed>
<temp>0.00</temp>
<bpm>0</bpm>
<rpm>0.00</rpm>
</extensions>
</trkpt>
<trkpt lat="30.629739761" lon="34.818881989">
<ele>793.640625</ele>
<time>2013-11-22T06:58:28Z</time>
<speed>1.520000</speed>
<extensions>
<speed>1.5</speed>
<temp>0.00</temp>
<bpm>0</bpm>
<rpm>0.00</rpm>
</extensions>
</trkpt>
<trkpt lat="30.629777908" lon="34.818977356">
<ele>794.171875</ele>
<time>2013-11-22T06:58:33Z</time>
<speed>2.100000</speed>
<extensions>
<speed>2.1</speed>
<temp>0.00</temp>
<bpm>0</bpm>
<rpm>0.00</rpm>
</extensions>
</trkpt>
<trkpt lat="30.629838943" lon="34.819061279">
<ele>797.109375</ele>
<time>2013-11-22T06:58:38Z</time>
<speed>1.770000</speed>
<extensions>
<speed>1.8</speed>
<temp>0.00</temp>
<bpm>0</bpm>
<rpm>0.00</rpm>
</extensions>
</trkpt>
<trkpt lat="30.629907608" lon="34.819137573">
<ele>800.421875</ele>
<time>2013-11-22T06:58:43Z</time>
<speed>1.540000</speed>
<extensions>
<speed>1.5</speed>
<temp>0.00</temp>
<bpm>0</bpm>
<rpm>0.00</rpm>
</extensions>
</trkpt>
<trkpt lat="30.629964828" lon="34.819171906">
<ele>801.906250</ele>
<time>2013-11-22T06:58:48Z</time>
<speed>1.910000</speed>
<extensions>
<speed>1.9</speed>
<temp>0.00</temp>
<bpm>0</bpm>
<rpm>0.00</rpm>
</extensions>
</trkpt>
<trkpt lat="30.630046844" lon="34.819217682">
<ele>802.187500</ele>
<time>2013-11-22T06:58:53Z</time>
<speed>2.030000</speed>
<extensions>
<speed>2.0</speed>
<temp>0.00</temp>
<bpm>0</bpm>
<rpm>0.00</rpm>
</extensions>
</trkpt>
<trkpt lat="30.630098343" lon="34.819263458">
<ele>802.718750</ele>
<time>2013-11-22T06:58:58Z</time>
<speed>1.800000</speed>
<extensions>
<speed>1.8</speed>
<temp>0.00</temp>
<bpm>0</bpm>
<rpm>0.00</rpm>
</extensions>
</trkpt>
<trkpt lat="30.630155563" lon="34.819324493">
<ele>802.359375</ele>
<time>2013-11-22T06:59:03Z</time>
<speed>1.680000</speed>
<extensions>
<speed>1.7</speed>
<temp>0.00</temp>
<bpm>0</bpm>
<rpm>0.00</rpm>
</extensions>
</trkpt>
<trkpt lat="30.630189896" lon="34.819366455">
<ele>800.890625</ele>
<time>2013-11-22T06:59:08Z</time>
<speed>1.540000</speed>
<extensions>
<speed>1.5</speed>
<temp>0.00</temp>
<bpm>0</bpm>
<rpm>0.00</rpm>
</extensions>
</trkpt>
<trkpt lat="30.630210876" lon="34.819477081">
<ele>800.390625</ele>
<time>2013-11-22T06:59:13Z</time>
<speed>2.220000</speed>
<extensions>
<speed>2.2</speed>
<temp>0.00</temp>
<bpm>0</bpm>
<rpm>0.00</rpm>
</extensions>
</trkpt>
<trkpt lat="30.630214691" lon="34.819610596">
<ele>799.890625</ele>
<time>2013-11-22T06:59:18Z</time>
<speed>2.330000</speed>
<extensions>
<speed>2.3</speed>
<temp>0.00</temp>
<bpm>0</bpm>
<rpm>0.00</rpm>
</extensions>
</trkpt>
<trkpt lat="30.630201340" lon="34.819736481">
<ele>800.890625</ele>
<time>2013-11-22T06:59:23Z</time>
<speed>2.240000</speed>
<extensions>
<speed>2.2</speed>
<temp>0.00</temp>
<bpm>0</bpm>
<rpm>0.00</rpm>
</extensions>
</trkpt>
<trkpt lat="30.630247116" lon="34.819828033">
<ele>798.812500</ele>
<time>2013-11-22T06:59:28Z</time>
<speed>3.110000</speed>
<extensions>
<speed>3.1</speed>
<temp>0.00</temp>
<bpm>0</bpm>
<rpm>0.00</rpm>
</extensions>
</trkpt>
<trkpt lat="30.630373001" lon="34.819816589">
<ele>796.828125</ele>
<time>2013-11-22T06:59:33Z</time>
<speed>2.840000</speed>
<extensions>
<speed>2.8</speed>
<temp>0.00</temp>
<bpm>0</bpm>
<rpm>0.00</rpm>
</extensions>
</trkpt>
<trkpt lat="30.630514145" lon="34.819847107">
<ele>794.093750</ele>
<time>2013-11-22T06:59:38Z</time>
<speed>2.660000</speed>
<extensions>
<speed>2.7</speed>
<temp>0.00</temp>
<bpm>0</bpm>
<rpm>0.00</rpm>
</extensions>
</trkpt>
<trkpt lat="30.630620956" lon="34.819854736">
<ele>791.984375</ele>
<time>2013-11-22T06:59:43Z</time>
<speed>2.820000</speed>
<extensions>
<speed>2.8</speed>
<temp>0.00</temp>
<bpm>0</bpm>
<rpm>0.00</rpm>
</extensions>
</trkpt>
<trkpt lat="30.630750656" lon="34.819869995">
<ele>790.671875</ele>
<time>2013-11-22T06:59:48Z</time>
<speed>3.130000</speed>
<extensions>
<speed>3.1</speed>
<temp>0.00</temp>
<bpm>0</bpm>
<rpm>0.00</rpm>
</extensions>
</trkpt>
<trkpt lat="30.630874634" lon="34.819931030">
<ele>793.984375</ele>
<time>2013-11-22T06:59:53Z</time>
<speed>2.940000</speed>
<extensions>
<speed>2.9</speed>
<temp>0.00</temp>
<bpm>0</bpm>
<rpm>0.00</rpm>
</extensions>
</trkpt>
<trkpt lat="30.630994797" lon="34.820011139">
<ele>794.218750</ele>
<time>2013-11-22T06:59:58Z</time>
<speed>3.060000</speed>
<extensions>
<speed>3.1</speed>
<temp>0.00</temp>
<bpm>0</bpm>
<rpm>0.00</rpm>
</extensions>
</trkpt>
<trkpt lat="30.631105423" lon="34.820079803">
<ele>795.718750</ele>
<time>2013-11-22T07:00:03Z</time>
<speed>2.600000</speed>
<extensions>
<speed>2.6</speed>
<temp>0.00</temp>
<bpm>0</bpm>
<rpm>0.00</rpm>
</extensions>
</trkpt>
<trkpt lat="30.631206512" lon="34.820125580">
<ele>796.203125</ele>
<time>2013-11-22T07:00:08Z</time>
<speed>2.580000</speed>
<extensions>
<speed>2.6</speed>
<temp>0.00</temp>
<bpm>0</bpm>
<rpm>0.00</rpm>
</extensions>
</trkpt>
<trkpt lat="30.631309509" lon="34.820148468">
<ele>796.046875</ele>
<time>2013-11-22T07:00:13Z</time>
<speed>1.850000</speed>
<extensions>
<speed>1.8</speed>
<temp>0.00</temp>
<bpm>0</bpm>
<rpm>0.00</rpm>
</extensions>
</trkpt>
<trkpt lat="30.631381989" lon="34.820175171">
<ele>796.546875</ele>
<time>2013-11-22T07:00:18Z</time>
<speed>2.450000</speed>
<extensions>
<speed>2.4</speed>
<temp>0.00</temp>
<bpm>0</bpm>
<rpm>0.00</rpm>
</extensions>
</trkpt>
<trkpt lat="30.631484985" lon="34.820213318">
<ele>796.203125</ele>
<time>2013-11-22T07:00:23Z</time>
<speed>2.610000</speed>
<extensions>
<speed>2.6</speed>
<temp>0.00</temp>
<bpm>0</bpm>
<rpm>0.00</rpm>
</extensions>
</trkpt>
<trkpt lat="30.631576538" lon="34.820281982">
<ele>796.656250</ele>
<time>2013-11-22T07:00:28Z</time>
<speed>2.450000</speed>
<extensions>
<speed>2.4</speed>
<temp>0.00</temp>
<bpm>0</bpm>
<rpm>0.00</rpm>
</extensions>
</trkpt>
<trkpt lat="30.631658554" lon="34.820350647">
<ele>796.812500</ele>
<time>2013-11-22T07:00:33Z</time>
<speed>2.390000</speed>
<extensions>
<speed>2.4</speed>
<temp>0.00</temp>
<bpm>0</bpm>
<rpm>0.00</rpm>
</extensions>
</trkpt>
<trkpt lat="30.631746292" lon="34.820426941">
<ele>796.296875</ele>
<time>2013-11-22T07:00:38Z</time>
<speed>2.160000</speed>
<extensions>
<speed>2.2</speed>
<temp>0.00</temp>
<bpm>0</bpm>
<rpm>0.00</rpm>
</extensions>
</trkpt>
<trkpt lat="30.631816864" lon="34.820499420">
<ele>797.546875</ele>
<time>2013-11-22T07:00:43Z</time>
<speed>2.560000</speed>
<extensions>
<speed>2.6</speed>
<temp>0.00</temp>
<bpm>0</bpm>
<rpm>0.00</rpm>
</extensions>
</trkpt>
<trkpt lat="30.631893158" lon="34.820564270">
<ele>797.671875</ele>
<time>2013-11-22T07:00:48Z</time>
<speed>2.120000</speed>
<extensions>
<speed>2.1</speed>
<temp>0.00</temp>
<bpm>0</bpm>
<rpm>0.00</rpm>
</extensions>
</trkpt>
<trkpt lat="30.631973267" lon="34.820617676">
<ele>796.453125</ele>
<time>2013-11-22T07:00:53Z</time>
<speed>2.020000</speed>
<extensions>
<speed>2.0</speed>
<temp>0.00</temp>
<bpm>0</bpm>
<rpm>0.00</rpm>
</extensions>
</trkpt>
<trkpt lat="30.632074356" lon="34.820686340">
<ele>795.437500</ele>
<time>2013-11-22T07:00:58Z</time>
<speed>2.860000</speed>
<extensions>
<speed>2.9</speed>
<temp>0.00</temp>
<bpm>0</bpm>
<rpm>0.00</rpm>
</extensions>
</trkpt>
<trkpt lat="30.632219315" lon="34.820755005">
<ele>794.859375</ele>
<time>2013-11-22T07:01:03Z</time>
<speed>3.880000</speed>
<extensions>
<speed>3.9</speed>
<temp>0.00</temp>
<bpm>0</bpm>
<rpm>0.00</rpm>
</extensions>
</trkpt>
<trkpt lat="30.632427216" lon="34.820755005">
<ele>793.921875</ele>
<time>2013-11-22T07:01:08Z</time>
<speed>4.360000</speed>
<extensions>
<speed>4.4</speed>
<temp>0.00</temp>
<bpm>0</bpm>
<rpm>0.00</rpm>
</extensions>
</trkpt>
<trkpt lat="30.632593155" lon="34.820785522">
<ele>793.359375</ele>
<time>2013-11-22T07:01:13Z</time>
<speed>3.100000</speed>
<extensions>
<speed>3.1</speed>
<temp>0.00</temp>
<bpm>0</bpm>
<rpm>0.00</rpm>
</extensions>
</trkpt>
<trkpt lat="30.632730484" lon="34.820827484">
<ele>791.265625</ele>
<time>2013-11-22T07:01:18Z</time>
<speed>3.200000</speed>
<extensions>
<speed>3.2</speed>
<temp>0.00</temp>
<bpm>0</bpm>
<rpm>0.00</rpm>
</extensions>
</trkpt>
<trkpt lat="30.632850647" lon="34.820854187">
<ele>792.578125</ele>
<time>2013-11-22T07:01:23Z</time>
<speed>1.940000</speed>
<extensions>
<speed>1.9</speed>
<temp>0.00</temp>
<bpm>0</bpm>
<rpm>0.00</rpm>
</extensions>
</trkpt>
<trkpt lat="30.632963181" lon="34.820880890">
<ele>791.593750</ele>
<time>2013-11-22T07:01:28Z</time>
<speed>3.010000</speed>
<extensions>
<speed>3.0</speed>
<temp>0.00</temp>
<bpm>0</bpm>
<rpm>0.00</rpm>
</extensions>
</trkpt>
<trkpt lat="30.633098602" lon="34.820907593">
<ele>790.187500</ele>
<time>2013-11-22T07:01:33Z</time>
<speed>2.860000</speed>
<extensions>
<speed>2.9</speed>
<temp>0.00</temp>
<bpm>0</bpm>
<rpm>0.00</rpm>
</extensions>
</trkpt>
<trkpt lat="30.633220673" lon="34.820934296">
<ele>789.156250</ele>
<time>2013-11-22T07:01:38Z</time>
<speed>3.150000</speed>
<extensions>
<speed>3.2</speed>
<temp>0.00</temp>
<bpm>0</bpm>
<rpm>0.00</rpm>
</extensions>
</trkpt>
<trkpt lat="30.633373260" lon="34.820972443">
<ele>788.453125</ele>
<time>2013-11-22T07:01:43Z</time>
<speed>3.390000</speed>
<extensions>
<speed>3.4</speed>
<temp>0.00</temp>
<bpm>0</bpm>
<rpm>0.00</rpm>
</extensions>
</trkpt>
<trkpt lat="30.633529663" lon="34.820949554">
<ele>789.406250</ele>
<time>2013-11-22T07:01:48Z</time>
<speed>3.660000</speed>
<extensions>
<speed>3.7</speed>
<temp>0.00</temp>
<bpm>0</bpm>
<rpm>0.00</rpm>
</extensions>
</trkpt>
<trkpt lat="30.633705139" lon="34.820892334">
<ele>790.437500</ele>
<time>2013-11-22T07:01:53Z</time>
<speed>4.120000</speed>
<extensions>
<speed>4.1</speed>
<temp>0.00</temp>
<bpm>0</bpm>
<rpm>0.00</rpm>
</extensions>
</trkpt>
<trkpt lat="30.633874893" lon="34.820816040">
<ele>791.531250</ele>
<time>2013-11-22T07:01:58Z</time>
<speed>3.740000</speed>
<extensions>
<speed>3.7</speed>
<temp>0.00</temp>
<bpm>0</bpm>
<rpm>0.00</rpm>
</extensions>
</trkpt>
<trkpt lat="30.634029388" lon="34.820755005">
<ele>791.734375</ele>
<time>2013-11-22T07:02:03Z</time>
<speed>3.490000</speed>
<extensions>
<speed>3.5</speed>
<temp>0.00</temp>
<bpm>0</bpm>
<rpm>0.00</rpm>
</extensions>
</trkpt>
<trkpt lat="30.634180069" lon="34.820693970">
<ele>792.750000</ele>
<time>2013-11-22T07:02:08Z</time>
<speed>3.740000</speed>
<extensions>
<speed>3.7</speed>
<temp>0.00</temp>
<bpm>0</bpm>
<rpm>0.00</rpm>
</extensions>
</trkpt>
<trkpt lat="30.634357452" lon="34.820644379">
<ele>793.562500</ele>
<time>2013-11-22T07:02:13Z</time>
<speed>3.490000</speed>
<extensions>
<speed>3.5</speed>
<temp>0.00</temp>
<bpm>0</bpm>
<rpm>0.00</rpm>
</extensions>
</trkpt>
<trkpt lat="30.634506226" lon="34.820598602">
<ele>792.000000</ele>
<time>2013-11-22T07:02:18Z</time>
<speed>3.400000</speed>
<extensions>
<speed>3.4</speed>
<temp>0.00</temp>
<bpm>0</bpm>
<rpm>0.00</rpm>
</extensions>
</trkpt>
<trkpt lat="30.634668350" lon="34.820587158">
<ele>791.156250</ele>
<time>2013-11-22T07:02:23Z</time>
<speed>3.870000</speed>
<extensions>
<speed>3.9</speed>
<temp>0.00</temp>
<bpm>0</bpm>
<rpm>0.00</rpm>
</extensions>
</trkpt>
<trkpt lat="30.634843826" lon="34.820606232">
<ele>790.906250</ele>
<time>2013-11-22T07:02:28Z</time>
<speed>3.780000</speed>
<extensions>
<speed>3.8</speed>
<temp>0.00</temp>
<bpm>0</bpm>
<rpm>0.00</rpm>
</extensions>
</trkpt>
<trkpt lat="30.635004044" lon="34.820667267">
<ele>790.984375</ele>
<time>2013-11-22T07:02:33Z</time>
<speed>3.920000</speed>
<extensions>
<speed>3.9</speed>
<temp>0.00</temp>
<bpm>0</bpm>
<rpm>0.00</rpm>
</extensions>
</trkpt>
<trkpt lat="30.635160446" lon="34.820762634">
<ele>791.625000</ele>
<time>2013-11-22T07:02:38Z</time>
<speed>3.980000</speed>
<extensions>
<speed>4.0</speed>
<temp>0.00</temp>
<bpm>0</bpm>
<rpm>0.00</rpm>
</extensions>
</trkpt>
<trkpt lat="30.635328293" lon="34.820873260">
<ele>791.015625</ele>
<time>2013-11-22T07:02:43Z</time>
<speed>4.360000</speed>
<extensions>
<speed>4.4</speed>
<temp>0.00</temp>
<bpm>0</bpm>
<rpm>0.00</rpm>
</extensions>
</trkpt>
<trkpt lat="30.635505676" lon="34.821006775">
<ele>792.843750</ele>
<time>2013-11-22T07:02:48Z</time>
<speed>5.100000</speed>
<extensions>
<speed>5.1</speed>
<temp>0.00</temp>
<bpm>0</bpm>
<rpm>0.00</rpm>
</extensions>
</trkpt>
<trkpt lat="30.635663986" lon="34.821208954">
<ele>793.296875</ele>
<time>2013-11-22T07:02:53Z</time>
<speed>5.240000</speed>
<extensions>
<speed>5.2</speed>
<temp>0.00</temp>
<bpm>0</bpm>
<rpm>0.00</rpm>
</extensions>
</trkpt>
<trkpt lat="30.635837555" lon="34.821426392">
<ele>792.921875</ele>
<time>2013-11-22T07:02:58Z</time>
<speed>5.350000</speed>
<extensions>
<speed>5.4</speed>
<temp>0.00</temp>
<bpm>0</bpm>
<rpm>0.00</rpm>
</extensions>
</trkpt>
<trkpt lat="30.636018753" lon="34.821594238">
<ele>791.859375</ele>
<time>2013-11-22T07:03:03Z</time>
<speed>5.220000</speed>
<extensions>
<speed>5.2</speed>
<temp>0.00</temp>
<bpm>0</bpm>
<rpm>0.00</rpm>
</extensions>
</trkpt>
<trkpt lat="30.636188507" lon="34.821735382">
<ele>792.656250</ele>
<time>2013-11-22T07:03:08Z</time>
<speed>4.470000</speed>
<extensions>
<speed>4.5</speed>
<temp>0.00</temp>
<bpm>0</bpm>
<rpm>0.00</rpm>
</extensions>
</trkpt>
<trkpt lat="30.636356354" lon="34.821838379">
<ele>792.046875</ele>
<time>2013-11-22T07:03:13Z</time>
<speed>4.330000</speed>
<extensions>
<speed>4.3</speed>
<temp>0.00</temp>
<bpm>0</bpm>
<rpm>0.00</rpm>
</extensions>
</trkpt>
<trkpt lat="30.636548996" lon="34.821933746">
<ele>789.328125</ele>
<time>2013-11-22T07:03:18Z</time>
<speed>4.880000</speed>
<extensions>
<speed>4.9</speed>
<temp>0.00</temp>
<bpm>0</bpm>
<rpm>0.00</rpm>
</extensions>
</trkpt>
<trkpt lat="30.636743546" lon="34.822040558">
<ele>789.437500</ele>
<time>2013-11-22T07:03:23Z</time>
<speed>4.640000</speed>
<extensions>
<speed>4.6</speed>
<temp>0.00</temp>
<bpm>0</bpm>
<rpm>0.00</rpm>
</extensions>
</trkpt>
<trkpt lat="30.636930466" lon="34.822116852">
<ele>786.421875</ele>
<time>2013-11-22T07:03:28Z</time>
<speed>4.630000</speed>
<extensions>
<speed>4.6</speed>
<temp>0.00</temp>
<bpm>0</bpm>
<rpm>0.00</rpm>
</extensions>
</trkpt>
<trkpt lat="30.637140274" lon="34.822208405">
<ele>787.421875</ele>
<time>2013-11-22T07:03:33Z</time>
<speed>4.920000</speed>
<extensions>
<speed>4.9</speed>
<temp>0.00</temp>
<bpm>0</bpm>
<rpm>0.00</rpm>
</extensions>
</trkpt>
<trkpt lat="30.637357712" lon="34.822269440">
<ele>785.562500</ele>
<time>2013-11-22T07:03:38Z</time>
<speed>5.390000</speed>
<extensions>
<speed>5.4</speed>
<temp>0.00</temp>
<bpm>0</bpm>
<rpm>0.00</rpm>
</extensions>
</trkpt>
<trkpt lat="30.637578964" lon="34.822341919">
<ele>784.859375</ele>
<time>2013-11-22T07:03:43Z</time>
<speed>5.210000</speed>
<extensions>
<speed>5.2</speed>
<temp>0.00</temp>
<bpm>0</bpm>
<rpm>0.00</rpm>
</extensions>
</trkpt>
<trkpt lat="30.637794495" lon="34.822441101">
<ele>783.312500</ele>
<time>2013-11-22T07:03:48Z</time>
<speed>5.150000</speed>
<extensions>
<speed>5.2</speed>
<temp>0.00</temp>
<bpm>0</bpm>
<rpm>0.00</rpm>
</extensions>
</trkpt>
<trkpt lat="30.637973785" lon="34.822551727">
<ele>784.109375</ele>
<time>2013-11-22T07:03:53Z</time>
<speed>3.540000</speed>
<extensions>
<speed>3.5</speed>
<temp>0.00</temp>
<bpm>0</bpm>
<rpm>0.00</rpm>
</extensions>
</trkpt>
<trkpt lat="30.638078690" lon="34.822677612">
<ele>784.703125</ele>
<time>2013-11-22T07:03:58Z</time>
<speed>3.350000</speed>
<extensions>
<speed>3.4</speed>
<temp>0.00</temp>
<bpm>0</bpm>
<rpm>0.00</rpm>
</extensions>
</trkpt>
<trkpt lat="30.638174057" lon="34.822830200">
<ele>784.890625</ele>
<time>2013-11-22T07:04:03Z</time>
<speed>4.220000</speed>
<extensions>
<speed>4.2</speed>
<temp>0.00</temp>
<bpm>0</bpm>
<rpm>0.00</rpm>
</extensions>
</trkpt>
<trkpt lat="30.638290405" lon="34.823001862">
<ele>784.937500</ele>
<time>2013-11-22T07:04:08Z</time>
<speed>4.160000</speed>
<extensions>
<speed>4.2</speed>
<temp>0.00</temp>
<bpm>0</bpm>
<rpm>0.00</rpm>
</extensions>
</trkpt>
<trkpt lat="30.638387680" lon="34.823173523">
<ele>786.046875</ele>
<time>2013-11-22T07:04:13Z</time>
<speed>3.540000</speed>
<extensions>
<speed>3.5</speed>
<temp>0.00</temp>
<bpm>0</bpm>
<rpm>0.00</rpm>
</extensions>
</trkpt>
<trkpt lat="30.638534546" lon="34.823280334">
<ele>785.125000</ele>
<time>2013-11-22T07:04:18Z</time>
<speed>5.150000</speed>
<extensions>
<speed>5.2</speed>
<temp>0.00</temp>
<bpm>0</bpm>
<rpm>0.00</rpm>
</extensions>
</trkpt>
<trkpt lat="30.638772964" lon="34.823402405">
<ele>781.671875</ele>
<time>2013-11-22T07:04:23Z</time>
<speed>6.740000</speed>
<extensions>
<speed>6.7</speed>
<temp>0.00</temp>
<bpm>0</bpm>
<rpm>0.00</rpm>
</extensions>
</trkpt>
<trkpt lat="30.639020920" lon="34.823631287">
<ele>780.812500</ele>
<time>2013-11-22T07:04:28Z</time>
<speed>6.110000</speed>
<extensions>
<speed>6.1</speed>
<temp>0.00</temp>
<bpm>0</bpm>
<rpm>0.00</rpm>
</extensions>
</trkpt>
<trkpt lat="30.639230728" lon="34.823875427">
<ele>779.968750</ele>
<time>2013-11-22T07:04:33Z</time>
<speed>7.000000</speed>
<extensions>
<speed>7.0</speed>
<temp>0.00</temp>
<bpm>0</bpm>
<rpm>0.00</rpm>
</extensions>
</trkpt>
<trkpt lat="30.639455795" lon="34.824131012">
<ele>778.828125</ele>
<time>2013-11-22T07:04:38Z</time>
<speed>7.100000</speed>
<extensions>
<speed>7.1</speed>
<temp>0.00</temp>
<bpm>0</bpm>
<rpm>0.00</rpm>
</extensions>
</trkpt>
<trkpt lat="30.639688492" lon="34.824394226">
<ele>775.093750</ele>
<time>2013-11-22T07:04:43Z</time>
<speed>7.300000</speed>
<extensions>
<speed>7.3</speed>
<temp>0.00</temp>
<bpm>0</bpm>
<rpm>0.00</rpm>
</extensions>
</trkpt>
<trkpt lat="30.639966965" lon="34.824607849">
<ele>774.218750</ele>
<time>2013-11-22T07:04:48Z</time>
<speed>7.340000</speed>
<extensions>
<speed>7.3</speed>
<temp>0.00</temp>
<bpm>0</bpm>
<rpm>0.00</rpm>
</extensions>
</trkpt>
<trkpt lat="30.640224457" lon="34.824859619">
<ele>776.171875</ele>
<time>2013-11-22T07:04:53Z</time>
<speed>6.210000</speed>
<extensions>
<speed>6.2</speed>
<temp>0.00</temp>
<bpm>0</bpm>
<rpm>0.00</rpm>
</extensions>
</trkpt>
<trkpt lat="30.640384674" lon="34.825016022">
<ele>776.828125</ele>
<time>2013-11-22T07:04:58Z</time>
<speed>3.800000</speed>
<extensions>
<speed>3.8</speed>
<temp>0.00</temp>
<bpm>0</bpm>
<rpm>0.00</rpm>
</extensions>
</trkpt>
<trkpt lat="30.640426636" lon="34.825073242">
<ele>777.500000</ele>
<time>2013-11-22T07:05:03Z</time>
<speed>0.250000</speed>
<extensions>
<speed>0.2</speed>
<temp>0.00</temp>
<bpm>0</bpm>
<rpm>0.00</rpm>
</extensions>
</trkpt>
<trkpt lat="30.640422821" lon="34.825073242">
<ele>777.531250</ele>
<time>2013-11-22T07:05:08Z</time>
<speed>0.190000</speed>
<extensions>
<speed>0.2</speed>
<temp>0.00</temp>
<bpm>0</bpm>
<rpm>0.00</rpm>
</extensions>
</trkpt>
<trkpt lat="30.640420914" lon="34.825073242">
<ele>777.593750</ele>
<time>2013-11-22T07:05:13Z</time>
<speed>0.070000</speed>
<extensions>
<speed>0.1</speed>
<temp>0.00</temp>
<bpm>0</bpm>
<rpm>0.00</rpm>
</extensions>
</trkpt>
<trkpt lat="30.640411377" lon="34.825084686">
<ele>777.796875</ele>
<time>2013-11-22T07:05:18Z</time>
<speed>0.740000</speed>
<extensions>
<speed>0.7</speed>
<temp>0.00</temp>
<bpm>0</bpm>
<rpm>0.00</rpm>
</extensions>
</trkpt>
<trkpt lat="30.640409470" lon="34.825103760">
<ele>779.031250</ele>
<time>2013-11-22T07:05:23Z</time>
<speed>0.130000</speed>
<extensions>
<speed>0.1</speed>
<temp>0.00</temp>
<bpm>0</bpm>
<rpm>0.00</rpm>
</extensions>
</trkpt>
<trkpt lat="30.640415192" lon="34.825096130">
<ele>779.250000</ele>
<time>2013-11-22T07:05:28Z</time>
<speed>0.100000</speed>
<extensions>
<speed>0.1</speed>
<temp>0.00</temp>
<bpm>0</bpm>
<rpm>0.00</rpm>
</extensions>
</trkpt>
<trkpt lat="30.640420914" lon="34.825084686">
<ele>779.593750</ele>
<time>2013-11-22T07:05:33Z</time>
<speed>0.240000</speed>
<extensions>
<speed>0.2</speed>
<temp>0.00</temp>
<bpm>0</bpm>
<rpm>0.00</rpm>
</extensions>
</trkpt>
<trkpt lat="30.640419006" lon="34.825080872">
<ele>779.593750</ele>
<time>2013-11-22T07:05:38Z</time>
<speed>0.080000</speed>
<extensions>
<speed>0.1</speed>
<temp>0.00</temp>
<bpm>0</bpm>
<rpm>0.00</rpm>
</extensions>
</trkpt>
<trkpt lat="30.640419006" lon="34.825084686">
<ele>779.515625</ele>
<time>2013-11-22T07:05:43Z</time>
<speed>0.050000</speed>
<extensions>
<speed>0.1</speed>
<temp>0.00</temp>
<bpm>0</bpm>
<rpm>0.00</rpm>
</extensions>
</trkpt>
<trkpt lat="30.640422821" lon="34.825080872">
<ele>779.546875</ele>
<time>2013-11-22T07:05:48Z</time>
<speed>0.020000</speed>
<extensions>
<speed>0.0</speed>
<temp>0.00</temp>
<bpm>0</bpm>
<rpm>0.00</rpm>
</extensions>
</trkpt>
<trkpt lat="30.640422821" lon="34.825080872">
<ele>779.578125</ele>
<time>2013-11-22T07:05:53Z</time>
<speed>0.100000</speed>
<extensions>
<speed>0.1</speed>
<temp>0.00</temp>
<bpm>0</bpm>
<rpm>0.00</rpm>
</extensions>
</trkpt>
<trkpt lat="30.640415192" lon="34.825073242">
<ele>780.031250</ele>
<time>2013-11-22T07:05:58Z</time>
<speed>0.210000</speed>
<extensions>
<speed>0.2</speed>
<temp>0.00</temp>
<bpm>0</bpm>
<rpm>0.00</rpm>
</extensions>
</trkpt>
<trkpt lat="30.640413284" lon="34.825080872">
<ele>780.500000</ele>
<time>2013-11-22T07:06:03Z</time>
<speed>0.030000</speed>
<extensions>
<speed>0.0</speed>
<temp>0.00</temp>
<bpm>0</bpm>
<rpm>0.00</rpm>
</extensions>
</trkpt>
<trkpt lat="30.640409470" lon="34.825084686">
<ele>780.625000</ele>
<time>2013-11-22T07:06:08Z</time>
<speed>0.080000</speed>
<extensions>
<speed>0.1</speed>
<temp>0.00</temp>
<bpm>0</bpm>
<rpm>0.00</rpm>
</extensions>
</trkpt>
<trkpt lat="30.640405655" lon="34.825084686">
<ele>780.578125</ele>
<time>2013-11-22T07:06:13Z</time>
<speed>0.090000</speed>
<extensions>
<speed>0.1</speed>
<temp>0.00</temp>
<bpm>0</bpm>
<rpm>0.00</rpm>
</extensions>
</trkpt>
<trkpt lat="30.640407562" lon="34.825084686">
<ele>780.468750</ele>
<time>2013-11-22T07:06:18Z</time>
<speed>0.050000</speed>
<extensions>
<speed>0.1</speed>
<temp>0.00</temp>
<bpm>0</bpm>
<rpm>0.00</rpm>
</extensions>
</trkpt>
<trkpt lat="30.640407562" lon="34.825084686">
<ele>780.328125</ele>
<time>2013-11-22T07:06:23Z</time>
<speed>0.050000</speed>
<extensions>
<speed>0.1</speed>
<temp>0.00</temp>
<bpm>0</bpm>
<rpm>0.00</rpm>
</extensions>
</trkpt>
<trkpt lat="30.640407562" lon="34.825084686">
<ele>780.312500</ele>
<time>2013-11-22T07:06:28Z</time>
<speed>0.030000</speed>
<extensions>
<speed>0.0</speed>
<temp>0.00</temp>
<bpm>0</bpm>
<rpm>0.00</rpm>
</extensions>
</trkpt>
<trkpt lat="30.640407562" lon="34.825084686">
<ele>780.281250</ele>
<time>2013-11-22T07:06:33Z</time>
<speed>0.010000</speed>
<extensions>
<speed>0.0</speed>
<temp>0.00</temp>
<bpm>0</bpm>
<rpm>0.00</rpm>
</extensions>
</trkpt>
<trkpt lat="30.640407562" lon="34.825084686">
<ele>780.281250</ele>
<time>2013-11-22T07:06:38Z</time>
<extensions>
<speed>0.0</speed>
<temp>0.00</temp>
<bpm>0</bpm>
<rpm>0.00</rpm>
</extensions>
</trkpt>
<trkpt lat="30.640407562" lon="34.825084686">
<ele>780.250000</ele>
<time>2013-11-22T07:06:43Z</time>
<extensions>
<speed>0.0</speed>
<temp>0.00</temp>
<bpm>0</bpm>
<rpm>0.00</rpm>
</extensions>
</trkpt>
<trkpt lat="30.640407562" lon="34.825084686">
<ele>780.250000</ele>
<time>2013-11-22T07:06:48Z</time>
<extensions>
<speed>0.0</speed>
<temp>0.00</temp>
<bpm>0</bpm>
<rpm>0.00</rpm>
</extensions>
</trkpt>
<trkpt lat="30.640407562" lon="34.825084686">
<ele>780.234375</ele>
<time>2013-11-22T07:06:53Z</time>
<speed>0.020000</speed>
<extensions>
<speed>0.0</speed>
<temp>0.00</temp>
<bpm>0</bpm>
<rpm>0.00</rpm>
</extensions>
</trkpt>
<trkpt lat="30.640407562" lon="34.825084686">
<ele>780.218750</ele>
<time>2013-11-22T07:06:58Z</time>
<speed>0.050000</speed>
<extensions>
<speed>0.1</speed>
<temp>0.00</temp>
<bpm>0</bpm>
<rpm>0.00</rpm>
</extensions>
</trkpt>
<trkpt lat="30.640407562" lon="34.825084686">
<ele>780.203125</ele>
<time>2013-11-22T07:07:03Z</time>
<extensions>
<speed>0.0</speed>
<temp>0.00</temp>
<bpm>0</bpm>
<rpm>0.00</rpm>
</extensions>
</trkpt>
<trkpt lat="30.640409470" lon="34.825084686">
<ele>780.187500</ele>
<time>2013-11-22T07:07:08Z</time>
<extensions>
<speed>0.0</speed>
<temp>0.00</temp>
<bpm>0</bpm>
<rpm>0.00</rpm>
</extensions>
</trkpt>
<trkpt lat="30.640409470" lon="34.825084686">
<ele>780.187500</ele>
<time>2013-11-22T07:07:13Z</time>
<extensions>
<speed>0.0</speed>
<temp>0.00</temp>
<bpm>0</bpm>
<rpm>0.00</rpm>
</extensions>
</trkpt>
<trkpt lat="30.640409470" lon="34.825084686">
<ele>780.171875</ele>
<time>2013-11-22T07:07:18Z</time>
<speed>0.030000</speed>
<extensions>
<speed>0.0</speed>
<temp>0.00</temp>
<bpm>0</bpm>
<rpm>0.00</rpm>
</extensions>
</trkpt>
<trkpt lat="30.640409470" lon="34.825084686">
<ele>780.171875</ele>
<time>2013-11-22T07:07:23Z</time>
<extensions>
<speed>0.0</speed>
<temp>0.00</temp>
<bpm>0</bpm>
<rpm>0.00</rpm>
</extensions>
</trkpt>
<trkpt lat="30.640409470" lon="34.825084686">
<ele>780.156250</ele>
<time>2013-11-22T07:07:28Z</time>
<speed>0.010000</speed>
<extensions>
<speed>0.0</speed>
<temp>0.00</temp>
<bpm>0</bpm>
<rpm>0.00</rpm>
</extensions>
</trkpt>
<trkpt lat="30.640409470" lon="34.825084686">
<ele>780.156250</ele>
<time>2013-11-22T07:07:33Z</time>
<speed>0.010000</speed>
<extensions>
<speed>0.0</speed>
<temp>0.00</temp>
<bpm>0</bpm>
<rpm>0.00</rpm>
</extensions>
</trkpt>
<trkpt lat="30.640409470" lon="34.825084686">
<ele>780.140625</ele>
<time>2013-11-22T07:07:38Z</time>
<speed>0.010000</speed>
<extensions>
<speed>0.0</speed>
<temp>0.00</temp>
<bpm>0</bpm>
<rpm>0.00</rpm>
</extensions>
</trkpt>
<trkpt lat="30.640409470" lon="34.825084686">
<ele>780.125000</ele>
<time>2013-11-22T07:07:43Z</time>
<speed>0.010000</speed>
<extensions>
<speed>0.0</speed>
<temp>0.00</temp>
<bpm>0</bpm>
<rpm>0.00</rpm>
</extensions>
</trkpt>
<trkpt lat="30.640409470" lon="34.825084686">
<ele>780.125000</ele>
<time>2013-11-22T07:07:48Z</time>
<speed>0.060000</speed>
<extensions>
<speed>0.1</speed>
<temp>0.00</temp>
<bpm>0</bpm>
<rpm>0.00</rpm>
</extensions>
</trkpt>
<trkpt lat="30.640409470" lon="34.825084686">
<ele>780.125000</ele>
<time>2013-11-22T07:07:53Z</time>
<extensions>
<speed>0.0</speed>
<temp>0.00</temp>
<bpm>0</bpm>
<rpm>0.00</rpm>
</extensions>
</trkpt>
<trkpt lat="30.640409470" lon="34.825084686">
<ele>780.125000</ele>
<time>2013-11-22T07:07:58Z</time>
<speed>0.010000</speed>
<extensions>
<speed>0.0</speed>
<temp>0.00</temp>
<bpm>0</bpm>
<rpm>0.00</rpm>
</extensions>
</trkpt>
<trkpt lat="30.640409470" lon="34.825084686">
<ele>780.109375</ele>
<time>2013-11-22T07:08:03Z</time>
<speed>0.030000</speed>
<extensions>
<speed>0.0</speed>
<temp>0.00</temp>
<bpm>0</bpm>
<rpm>0.00</rpm>
</extensions>
</trkpt>
<trkpt lat="30.640409470" lon="34.825084686">
<ele>780.109375</ele>
<time>2013-11-22T07:08:08Z</time>
<speed>0.010000</speed>
<extensions>
<speed>0.0</speed>
<temp>0.00</temp>
<bpm>0</bpm>
<rpm>0.00</rpm>
</extensions>
</trkpt>
<trkpt lat="30.640409470" lon="34.825084686">
<ele>780.109375</ele>
<time>2013-11-22T07:08:13Z</time>
<extensions>
<speed>0.0</speed>
<temp>0.00</temp>
<bpm>0</bpm>
<rpm>0.00</rpm>
</extensions>
</trkpt>
<trkpt lat="30.640411377" lon="34.825080872">
<ele>779.906250</ele>
<time>2013-11-22T07:08:18Z</time>
<speed>0.330000</speed>
<extensions>
<speed>0.3</speed>
<temp>0.00</temp>
<bpm>0</bpm>
<rpm>0.00</rpm>
</extensions>
</trkpt>
<trkpt lat="30.640419006" lon="34.825080872">
<ele>780.046875</ele>
<time>2013-11-22T07:08:23Z</time>
<extensions>
<speed>0.0</speed>
<temp>0.00</temp>
<bpm>0</bpm>
<rpm>0.00</rpm>
</extensions>
</trkpt>
<trkpt lat="30.640419006" lon="34.825080872">
<ele>780.046875</ele>
<time>2013-11-22T07:08:28Z</time>
<speed>0.040000</speed>
<extensions>
<speed>0.0</speed>
<temp>0.00</temp>
<bpm>0</bpm>
<rpm>0.00</rpm>
</extensions>
</trkpt>
<trkpt lat="30.640419006" lon="34.825080872">
<ele>780.046875</ele>
<time>2013-11-22T07:08:33Z</time>
<speed>0.280000</speed>
<extensions>
<speed>0.3</speed>
<temp>0.00</temp>
<bpm>0</bpm>
<rpm>0.00</rpm>
</extensions>
</trkpt>
<trkpt lat="30.640419006" lon="34.825077057">
<ele>779.968750</ele>
<time>2013-11-22T07:08:38Z</time>
<speed>0.120000</speed>
<extensions>
<speed>0.1</speed>
<temp>0.00</temp>
<bpm>0</bpm>
<rpm>0.00</rpm>
</extensions>
</trkpt>
<trkpt lat="30.640419006" lon="34.825077057">
<ele>779.843750</ele>
<time>2013-11-22T07:08:43Z</time>
<speed>0.340000</speed>
<extensions>
<speed>0.3</speed>
<temp>0.00</temp>
<bpm>0</bpm>
<rpm>0.00</rpm>
</extensions>
</trkpt>
<trkpt lat="30.640411377" lon="34.825080872">
<ele>780.734375</ele>
<time>2013-11-22T07:08:48Z</time>
<speed>0.140000</speed>
<extensions>
<speed>0.1</speed>
<temp>0.00</temp>
<bpm>0</bpm>
<rpm>0.00</rpm>
</extensions>
</trkpt>
<trkpt lat="30.640417099" lon="34.825080872">
<ele>781.046875</ele>
<time>2013-11-22T07:08:53Z</time>
<speed>0.100000</speed>
<extensions>
<speed>0.1</speed>
<temp>0.00</temp>
<bpm>0</bpm>
<rpm>0.00</rpm>
</extensions>
</trkpt>
<trkpt lat="30.640415192" lon="34.825088501">
<ele>781.109375</ele>
<time>2013-11-22T07:08:58Z</time>
<speed>0.090000</speed>
<extensions>
<speed>0.1</speed>
<temp>0.00</temp>
<bpm>0</bpm>
<rpm>0.00</rpm>
</extensions>
</trkpt>
<trkpt lat="30.640419006" lon="34.825088501">
<ele>781.468750</ele>
<time>2013-11-22T07:09:03Z</time>
<speed>0.020000</speed>
<extensions>
<speed>0.0</speed>
<temp>0.00</temp>
<bpm>0</bpm>
<rpm>0.00</rpm>
</extensions>
</trkpt>
<trkpt lat="30.640419006" lon="34.825088501">
<ele>781.562500</ele>
<time>2013-11-22T07:09:08Z</time>
<speed>0.020000</speed>
<extensions>
<speed>0.0</speed>
<temp>0.00</temp>
<bpm>0</bpm>
<rpm>0.00</rpm>
</extensions>
</trkpt>
<trkpt lat="30.640419006" lon="34.825088501">
<ele>781.546875</ele>
<time>2013-11-22T07:09:13Z</time>
<speed>0.020000</speed>
<extensions>
<speed>0.0</speed>
<temp>0.00</temp>
<bpm>0</bpm>
<rpm>0.00</rpm>
</extensions>
</trkpt>
<trkpt lat="30.640419006" lon="34.825088501">
<ele>781.531250</ele>
<time>2013-11-22T07:09:18Z</time>
<extensions>
<speed>0.0</speed>
<temp>0.00</temp>
<bpm>0</bpm>
<rpm>0.00</rpm>
</extensions>
</trkpt>
<trkpt lat="30.640419006" lon="34.825088501">
<ele>781.531250</ele>
<time>2013-11-22T07:09:23Z</time>
<speed>0.010000</speed>
<extensions>
<speed>0.0</speed>
<temp>0.00</temp>
<bpm>0</bpm>
<rpm>0.00</rpm>
</extensions>
</trkpt>
<trkpt lat="30.640419006" lon="34.825088501">
<ele>781.531250</ele>
<time>2013-11-22T07:09:28Z</time>
<extensions>
<speed>0.0</speed>
<temp>0.00</temp>
<bpm>0</bpm>
<rpm>0.00</rpm>
</extensions>
</trkpt>
<trkpt lat="30.640419006" lon="34.825088501">
<ele>781.531250</ele>
<time>2013-11-22T07:09:33Z</time>
<extensions>
<speed>0.0</speed>
<temp>0.00</temp>
<bpm>0</bpm>
<rpm>0.00</rpm>
</extensions>
</trkpt>
<trkpt lat="30.640419006" lon="34.825088501">
<ele>781.531250</ele>
<time>2013-11-22T07:09:38Z</time>
<speed>0.010000</speed>
<extensions>
<speed>0.0</speed>
<temp>0.00</temp>
<bpm>0</bpm>
<rpm>0.00</rpm>
</extensions>
</trkpt>
<trkpt lat="30.640419006" lon="34.825088501">
<ele>781.531250</ele>
<time>2013-11-22T07:09:43Z</time>
<speed>0.020000</speed>
<extensions>
<speed>0.0</speed>
<temp>0.00</temp>
<bpm>0</bpm>
<rpm>0.00</rpm>
</extensions>
</trkpt>
<trkpt lat="30.640419006" lon="34.825088501">
<ele>781.531250</ele>
<time>2013-11-22T07:09:48Z</time>
<speed>0.010000</speed>
<extensions>
<speed>0.0</speed>
<temp>0.00</temp>
<bpm>0</bpm>
<rpm>0.00</rpm>
</extensions>
</trkpt>
<trkpt lat="30.640419006" lon="34.825088501">
<ele>781.531250</ele>
<time>2013-11-22T07:09:53Z</time>
<extensions>
<speed>0.0</speed>
<temp>0.00</temp>
<bpm>0</bpm>
<rpm>0.00</rpm>
</extensions>
</trkpt>
<trkpt lat="30.640420914" lon="34.825088501">
<ele>781.546875</ele>
<time>2013-11-22T07:09:58Z</time>
<extensions>
<speed>0.0</speed>
<temp>0.00</temp>
<bpm>0</bpm>
<rpm>0.00</rpm>
</extensions>
</trkpt>
<trkpt lat="30.640420914" lon="34.825088501">
<ele>781.546875</ele>
<time>2013-11-22T07:10:03Z</time>
<extensions>
<speed>0.0</speed>
<temp>0.00</temp>
<bpm>0</bpm>
<rpm>0.00</rpm>
</extensions>
</trkpt>
<trkpt lat="30.640420914" lon="34.825088501">
<ele>781.546875</ele>
<time>2013-11-22T07:10:08Z</time>
<extensions>
<speed>0.0</speed>
<temp>0.00</temp>
<bpm>0</bpm>
<rpm>0.00</rpm>
</extensions>
</trkpt>
<trkpt lat="30.640420914" lon="34.825088501">
<ele>781.531250</ele>
<time>2013-11-22T07:10:13Z</time>
<extensions>
<speed>0.0</speed>
<temp>0.00</temp>
<bpm>0</bpm>
<rpm>0.00</rpm>
</extensions>
</trkpt>
<trkpt lat="30.640420914" lon="34.825088501">
<ele>781.515625</ele>
<time>2013-11-22T07:10:18Z</time>
<extensions>
<speed>0.0</speed>
<temp>0.00</temp>
<bpm>0</bpm>
<rpm>0.00</rpm>
</extensions>
</trkpt>
<trkpt lat="30.640420914" lon="34.825088501">
<ele>781.515625</ele>
<time>2013-11-22T07:10:23Z</time>
<speed>0.040000</speed>
<extensions>
<speed>0.0</speed>
<temp>0.00</temp>
<bpm>0</bpm>
<rpm>0.00</rpm>
</extensions>
</trkpt>
<trkpt lat="30.640420914" lon="34.825088501">
<ele>781.500000</ele>
<time>2013-11-22T07:10:28Z</time>
<extensions>
<speed>0.0</speed>
<temp>0.00</temp>
<bpm>0</bpm>
<rpm>0.00</rpm>
</extensions>
</trkpt>
<trkpt lat="30.640420914" lon="34.825088501">
<ele>781.500000</ele>
<time>2013-11-22T07:10:33Z</time>
<speed>0.010000</speed>
<extensions>
<speed>0.0</speed>
<temp>0.00</temp>
<bpm>0</bpm>
<rpm>0.00</rpm>
</extensions>
</trkpt>
<trkpt lat="30.640422821" lon="34.825088501">
<ele>781.500000</ele>
<time>2013-11-22T07:10:38Z</time>
<extensions>
<speed>0.0</speed>
<temp>0.00</temp>
<bpm>0</bpm>
<rpm>0.00</rpm>
</extensions>
</trkpt>
<trkpt lat="30.640422821" lon="34.825088501">
<ele>781.500000</ele>
<time>2013-11-22T07:10:43Z</time>
<speed>0.010000</speed>
<extensions>
<speed>0.0</speed>
<temp>0.00</temp>
<bpm>0</bpm>
<rpm>0.00</rpm>
</extensions>
</trkpt>
<trkpt lat="30.640422821" lon="34.825088501">
<ele>781.500000</ele>
<time>2013-11-22T07:10:48Z</time>
<speed>0.010000</speed>
<extensions>
<speed>0.0</speed>
<temp>0.00</temp>
<bpm>0</bpm>
<rpm>0.00</rpm>
</extensions>
</trkpt>
<trkpt lat="30.640422821" lon="34.825088501">
<ele>781.500000</ele>
<time>2013-11-22T07:10:53Z</time>
<speed>0.010000</speed>
<extensions>
<speed>0.0</speed>
<temp>0.00</temp>
<bpm>0</bpm>
<rpm>0.00</rpm>
</extensions>
</trkpt>
<trkpt lat="30.640422821" lon="34.825088501">
<ele>781.500000</ele>
<time>2013-11-22T07:10:58Z</time>
<speed>0.020000</speed>
<extensions>
<speed>0.0</speed>
<temp>0.00</temp>
<bpm>0</bpm>
<rpm>0.00</rpm>
</extensions>
</trkpt>
<trkpt lat="30.640422821" lon="34.825088501">
<ele>781.500000</ele>
<time>2013-11-22T07:11:03Z</time>
<speed>0.030000</speed>
<extensions>
<speed>0.0</speed>
<temp>0.00</temp>
<bpm>0</bpm>
<rpm>0.00</rpm>
</extensions>
</trkpt>
<trkpt lat="30.640422821" lon="34.825088501">
<ele>781.500000</ele>
<time>2013-11-22T07:11:08Z</time>
<speed>0.030000</speed>
<extensions>
<speed>0.0</speed>
<temp>0.00</temp>
<bpm>0</bpm>
<rpm>0.00</rpm>
</extensions>
</trkpt>
<trkpt lat="30.640424728" lon="34.825088501">
<ele>781.500000</ele>
<time>2013-11-22T07:11:13Z</time>
<speed>0.250000</speed>
<extensions>
<speed>0.2</speed>
<temp>0.00</temp>
<bpm>0</bpm>
<rpm>0.00</rpm>
</extensions>
</trkpt>
<trkpt lat="30.640497208" lon="34.825187683">
<ele>781.484375</ele>
<time>2013-11-22T07:11:18Z</time>
<speed>2.760000</speed>
<extensions>
<speed>2.8</speed>
<temp>0.00</temp>
<bpm>0</bpm>
<rpm>0.00</rpm>
</extensions>
</trkpt>
<trkpt lat="30.640583038" lon="34.825332642">
<ele>781.296875</ele>
<time>2013-11-22T07:11:23Z</time>
<speed>3.040000</speed>
<extensions>
<speed>3.0</speed>
<temp>0.00</temp>
<bpm>0</bpm>
<rpm>0.00</rpm>
</extensions>
</trkpt>
<trkpt lat="30.640655518" lon="34.825466156">
<ele>780.921875</ele>
<time>2013-11-22T07:11:28Z</time>
<speed>2.130000</speed>
<extensions>
<speed>2.1</speed>
<temp>0.00</temp>
<bpm>0</bpm>
<rpm>0.00</rpm>
</extensions>
</trkpt>
<trkpt lat="30.640710831" lon="34.825561523">
<ele>781.093750</ele>
<time>2013-11-22T07:11:33Z</time>
<speed>2.450000</speed>
<extensions>
<speed>2.4</speed>
<temp>0.00</temp>
<bpm>0</bpm>
<rpm>0.00</rpm>
</extensions>
</trkpt>
<trkpt lat="30.640768051" lon="34.825656891">
<ele>781.531250</ele>
<time>2013-11-22T07:11:38Z</time>
<speed>1.940000</speed>
<extensions>
<speed>1.9</speed>
<temp>0.00</temp>
<bpm>0</bpm>
<rpm>0.00</rpm>
</extensions>
</trkpt>
<trkpt lat="30.640802383" lon="34.825706482">
<ele>781.125000</ele>
<time>2013-11-22T07:11:43Z</time>
<speed>0.160000</speed>
<extensions>
<speed>0.2</speed>
<temp>0.00</temp>
<bpm>0</bpm>
<rpm>0.00</rpm>
</extensions>
</trkpt>
<trkpt lat="30.640800476" lon="34.825702667">
<ele>781.234375</ele>
<time>2013-11-22T07:11:48Z</time>
<speed>0.060000</speed>
<extensions>
<speed>0.1</speed>
<temp>0.00</temp>
<bpm>0</bpm>
<rpm>0.00</rpm>
</extensions>
</trkpt>
<trkpt lat="30.640800476" lon="34.825702667">
<ele>781.234375</ele>
<time>2013-11-22T07:11:53Z</time>
<speed>0.030000</speed>
<extensions>
<speed>0.0</speed>
<temp>0.00</temp>
<bpm>0</bpm>
<rpm>0.00</rpm>
</extensions>
</trkpt>
<trkpt lat="30.640800476" lon="34.825702667">
<ele>781.234375</ele>
<time>2013-11-22T07:11:58Z</time>
<speed>0.010000</speed>
<extensions>
<speed>0.0</speed>
<temp>0.00</temp>
<bpm>0</bpm>
<rpm>0.00</rpm>
</extensions>
</trkpt>
<trkpt lat="30.640800476" lon="34.825702667">
<ele>781.234375</ele>
<time>2013-11-22T07:12:03Z</time>
<speed>0.010000</speed>
<extensions>
<speed>0.0</speed>
<temp>0.00</temp>
<bpm>0</bpm>
<rpm>0.00</rpm>
</extensions>
</trkpt>
<trkpt lat="30.640800476" lon="34.825702667">
<ele>781.250000</ele>
<time>2013-11-22T07:12:08Z</time>
<extensions>
<speed>0.0</speed>
<temp>0.00</temp>
<bpm>0</bpm>
<rpm>0.00</rpm>
</extensions>
</trkpt>
<trkpt lat="30.640800476" lon="34.825702667">
<ele>781.250000</ele>
<time>2013-11-22T07:12:13Z</time>
<extensions>
<speed>0.0</speed>
<temp>0.00</temp>
<bpm>0</bpm>
<rpm>0.00</rpm>
</extensions>
</trkpt>
<trkpt lat="30.640800476" lon="34.825702667">
<ele>781.234375</ele>
<time>2013-11-22T07:12:18Z</time>
<speed>0.110000</speed>
<extensions>
<speed>0.1</speed>
<temp>0.00</temp>
<bpm>0</bpm>
<rpm>0.00</rpm>
</extensions>
</trkpt>
<trkpt lat="30.640800476" lon="34.825702667">
<ele>781.234375</ele>
<time>2013-11-22T07:12:23Z</time>
<speed>0.070000</speed>
<extensions>
<speed>0.1</speed>
<temp>0.00</temp>
<bpm>0</bpm>
<rpm>0.00</rpm>
</extensions>
</trkpt>
<trkpt lat="30.640840530" lon="34.825759888">
<ele>781.046875</ele>
<time>2013-11-22T07:12:28Z</time>
<speed>2.350000</speed>
<extensions>
<speed>2.4</speed>
<temp>0.00</temp>
<bpm>0</bpm>
<rpm>0.00</rpm>
</extensions>
</trkpt>
<trkpt lat="30.640920639" lon="34.825881958">
<ele>781.890625</ele>
<time>2013-11-22T07:12:33Z</time>
<speed>2.250000</speed>
<extensions>
<speed>2.3</speed>
<temp>0.00</temp>
<bpm>0</bpm>
<rpm>0.00</rpm>
</extensions>
</trkpt>
<trkpt lat="30.641006470" lon="34.826019287">
<ele>782.125000</ele>
<time>2013-11-22T07:12:38Z</time>
<speed>2.680000</speed>
<extensions>
<speed>2.7</speed>
<temp>0.00</temp>
<bpm>0</bpm>
<rpm>0.00</rpm>
</extensions>
</trkpt>
<trkpt lat="30.641105652" lon="34.826076508">
<ele>784.468750</ele>
<time>2013-11-22T07:12:43Z</time>
<speed>2.300000</speed>
<extensions>
<speed>2.3</speed>
<temp>0.00</temp>
<bpm>0</bpm>
<rpm>0.00</rpm>
</extensions>
</trkpt>
<trkpt lat="30.641202927" lon="34.826114655">
<ele>784.171875</ele>
<time>2013-11-22T07:12:48Z</time>
<speed>2.090000</speed>
<extensions>
<speed>2.1</speed>
<temp>0.00</temp>
<bpm>0</bpm>
<rpm>0.00</rpm>
</extensions>
</trkpt>
<trkpt lat="30.641290665" lon="34.826183319">
<ele>785.000000</ele>
<time>2013-11-22T07:12:53Z</time>
<speed>2.170000</speed>
<extensions>
<speed>2.2</speed>
<temp>0.00</temp>
<bpm>0</bpm>
<rpm>0.00</rpm>
</extensions>
</trkpt>
<trkpt lat="30.641382217" lon="34.826217651">
<ele>786.203125</ele>
<time>2013-11-22T07:12:58Z</time>
<speed>2.170000</speed>
<extensions>
<speed>2.2</speed>
<temp>0.00</temp>
<bpm>0</bpm>
<rpm>0.00</rpm>
</extensions>
</trkpt>
<trkpt lat="30.641462326" lon="34.826240540">
<ele>787.484375</ele>
<time>2013-11-22T07:13:03Z</time>
<speed>2.380000</speed>
<extensions>
<speed>2.4</speed>
<temp>0.00</temp>
<bpm>0</bpm>
<rpm>0.00</rpm>
</extensions>
</trkpt>
<trkpt lat="30.641527176" lon="34.826274872">
<ele>789.515625</ele>
<time>2013-11-22T07:13:08Z</time>
<speed>0.760000</speed>
<extensions>
<speed>0.8</speed>
<temp>0.00</temp>
<bpm>0</bpm>
<rpm>0.00</rpm>
</extensions>
</trkpt>
<trkpt lat="30.641590118" lon="34.826293945">
<ele>790.968750</ele>
<time>2013-11-22T07:13:13Z</time>
<speed>1.910000</speed>
<extensions>
<speed>1.9</speed>
<temp>0.00</temp>
<bpm>0</bpm>
<rpm>0.00</rpm>
</extensions>
</trkpt>
<trkpt lat="30.641675949" lon="34.826370239">
<ele>791.281250</ele>
<time>2013-11-22T07:13:18Z</time>
<speed>2.800000</speed>
<extensions>
<speed>2.8</speed>
<temp>0.00</temp>
<bpm>0</bpm>
<rpm>0.00</rpm>
</extensions>
</trkpt>
<trkpt lat="30.641742706" lon="34.826454163">
<ele>791.968750</ele>
<time>2013-11-22T07:13:23Z</time>
<speed>2.050000</speed>
<extensions>
<speed>2.1</speed>
<temp>0.00</temp>
<bpm>0</bpm>
<rpm>0.00</rpm>
</extensions>
</trkpt>
<trkpt lat="30.641794205" lon="34.826507568">
<ele>792.500000</ele>
<time>2013-11-22T07:13:28Z</time>
<speed>0.210000</speed>
<extensions>
<speed>0.2</speed>
<temp>0.00</temp>
<bpm>0</bpm>
<rpm>0.00</rpm>
</extensions>
</trkpt>
<trkpt lat="30.641803741" lon="34.826522827">
<ele>791.265625</ele>
<time>2013-11-22T07:13:33Z</time>
<speed>0.340000</speed>
<extensions>
<speed>0.3</speed>
<temp>0.00</temp>
<bpm>0</bpm>
<rpm>0.00</rpm>
</extensions>
</trkpt>
<trkpt lat="30.641822815" lon="34.826545715">
<ele>790.968750</ele>
<time>2013-11-22T07:13:38Z</time>
<speed>1.420000</speed>
<extensions>
<speed>1.4</speed>
<temp>0.00</temp>
<bpm>0</bpm>
<rpm>0.00</rpm>
</extensions>
</trkpt>
<trkpt lat="30.641889572" lon="34.826602936">
<ele>791.109375</ele>
<time>2013-11-22T07:13:43Z</time>
<speed>1.790000</speed>
<extensions>
<speed>1.8</speed>
<temp>0.00</temp>
<bpm>0</bpm>
<rpm>0.00</rpm>
</extensions>
</trkpt>
<trkpt lat="30.641946793" lon="34.826652527">
<ele>790.625000</ele>
<time>2013-11-22T07:13:48Z</time>
<speed>1.850000</speed>
<extensions>
<speed>1.8</speed>
<temp>0.00</temp>
<bpm>0</bpm>
<rpm>0.00</rpm>
</extensions>
</trkpt>
<trkpt lat="30.642013550" lon="34.826721191">
<ele>790.218750</ele>
<time>2013-11-22T07:13:53Z</time>
<speed>2.480000</speed>
<extensions>
<speed>2.5</speed>
<temp>0.00</temp>
<bpm>0</bpm>
<rpm>0.00</rpm>
</extensions>
</trkpt>
<trkpt lat="30.642099380" lon="34.826824188">
<ele>788.562500</ele>
<time>2013-11-22T07:13:58Z</time>
<speed>3.100000</speed>
<extensions>
<speed>3.1</speed>
<temp>0.00</temp>
<bpm>0</bpm>
<rpm>0.00</rpm>
</extensions>
</trkpt>
<trkpt lat="30.642211914" lon="34.826911926">
<ele>786.812500</ele>
<time>2013-11-22T07:14:03Z</time>
<speed>2.890000</speed>
<extensions>
<speed>2.9</speed>
<temp>0.00</temp>
<bpm>0</bpm>
<rpm>0.00</rpm>
</extensions>
</trkpt>
<trkpt lat="30.642326355" lon="34.826999664">
<ele>784.656250</ele>
<time>2013-11-22T07:14:08Z</time>
<speed>2.950000</speed>
<extensions>
<speed>2.9</speed>
<temp>0.00</temp>
<bpm>0</bpm>
<rpm>0.00</rpm>
</extensions>
</trkpt>
<trkpt lat="30.642438889" lon="34.827098846">
<ele>783.500000</ele>
<time>2013-11-22T07:14:13Z</time>
<speed>3.140000</speed>
<extensions>
<speed>3.1</speed>
<temp>0.00</temp>
<bpm>0</bpm>
<rpm>0.00</rpm>
</extensions>
</trkpt>
<trkpt lat="30.642547607" lon="34.827224731">
<ele>782.515625</ele>
<time>2013-11-22T07:14:18Z</time>
<speed>4.010000</speed>
<extensions>
<speed>4.0</speed>
<temp>0.00</temp>
<bpm>0</bpm>
<rpm>0.00</rpm>
</extensions>
</trkpt>
<trkpt lat="30.642669678" lon="34.827400208">
<ele>781.546875</ele>
<time>2013-11-22T07:14:23Z</time>
<speed>4.530000</speed>
<extensions>
<speed>4.5</speed>
<temp>0.00</temp>
<bpm>0</bpm>
<rpm>0.00</rpm>
</extensions>
</trkpt>
<trkpt lat="30.642772675" lon="34.827617645">
<ele>780.375000</ele>
<time>2013-11-22T07:14:28Z</time>
<speed>4.600000</speed>
<extensions>
<speed>4.6</speed>
<temp>0.00</temp>
<bpm>0</bpm>
<rpm>0.00</rpm>
</extensions>
</trkpt>
<trkpt lat="30.642847061" lon="34.827819824">
<ele>780.906250</ele>
<time>2013-11-22T07:14:33Z</time>
<speed>3.380000</speed>
<extensions>
<speed>3.4</speed>
<temp>0.00</temp>
<bpm>0</bpm>
<rpm>0.00</rpm>
</extensions>
</trkpt>
<trkpt lat="30.642894745" lon="34.827972412">
<ele>779.390625</ele>
<time>2013-11-22T07:14:38Z</time>
<speed>3.480000</speed>
<extensions>
<speed>3.5</speed>
<temp>0.00</temp>
<bpm>0</bpm>
<rpm>0.00</rpm>
</extensions>
</trkpt>
<trkpt lat="30.642967224" lon="34.828159332">
<ele>777.640625</ele>
<time>2013-11-22T07:14:43Z</time>
<speed>3.880000</speed>
<extensions>
<speed>3.9</speed>
<temp>0.00</temp>
<bpm>0</bpm>
<rpm>0.00</rpm>
</extensions>
</trkpt>
<trkpt lat="30.643014908" lon="34.828338623">
<ele>775.843750</ele>
<time>2013-11-22T07:14:48Z</time>
<speed>3.440000</speed>
<extensions>
<speed>3.4</speed>
<temp>0.00</temp>
<bpm>0</bpm>
<rpm>0.00</rpm>
</extensions>
</trkpt>
<trkpt lat="30.643112183" lon="34.828521729">
<ele>775.062500</ele>
<time>2013-11-22T07:14:53Z</time>
<speed>3.960000</speed>
<extensions>
<speed>4.0</speed>
<temp>0.00</temp>
<bpm>0</bpm>
<rpm>0.00</rpm>
</extensions>
</trkpt>
<trkpt lat="30.643213272" lon="34.828674316">
<ele>774.468750</ele>
<time>2013-11-22T07:14:58Z</time>
<speed>3.130000</speed>
<extensions>
<speed>3.1</speed>
<temp>0.00</temp>
<bpm>0</bpm>
<rpm>0.00</rpm>
</extensions>
</trkpt>
<trkpt lat="30.643289566" lon="34.828754425">
<ele>772.562500</ele>
<time>2013-11-22T07:15:03Z</time>
<speed>2.250000</speed>
<extensions>
<speed>2.3</speed>
<temp>0.00</temp>
<bpm>0</bpm>
<rpm>0.00</rpm>
</extensions>
</trkpt>
<trkpt lat="30.643354416" lon="34.828823090">
<ele>772.765625</ele>
<time>2013-11-22T07:15:08Z</time>
<speed>2.650000</speed>
<extensions>
<speed>2.6</speed>
<temp>0.00</temp>
<bpm>0</bpm>
<rpm>0.00</rpm>
</extensions>
</trkpt>
<trkpt lat="30.643409729" lon="34.828907013">
<ele>772.609375</ele>
<time>2013-11-22T07:15:13Z</time>
<speed>2.130000</speed>
<extensions>
<speed>2.1</speed>
<temp>0.00</temp>
<bpm>0</bpm>
<rpm>0.00</rpm>
</extensions>
</trkpt>
<trkpt lat="30.643453598" lon="34.829059601">
<ele>770.921875</ele>
<time>2013-11-22T07:15:18Z</time>
<speed>3.560000</speed>
<extensions>
<speed>3.6</speed>
<temp>0.00</temp>
<bpm>0</bpm>
<rpm>0.00</rpm>
</extensions>
</trkpt>
<trkpt lat="30.643491745" lon="34.829254150">
<ele>770.921875</ele>
<time>2013-11-22T07:15:23Z</time>
<speed>3.100000</speed>
<extensions>
<speed>3.1</speed>
<temp>0.00</temp>
<bpm>0</bpm>
<rpm>0.00</rpm>
</extensions>
</trkpt>
<trkpt lat="30.643526077" lon="34.829395294">
<ele>771.890625</ele>
<time>2013-11-22T07:15:28Z</time>
<speed>3.110000</speed>
<extensions>
<speed>3.1</speed>
<temp>0.00</temp>
<bpm>0</bpm>
<rpm>0.00</rpm>
</extensions>
</trkpt>
<trkpt lat="30.643573761" lon="34.829547882">
<ele>772.500000</ele>
<time>2013-11-22T07:15:33Z</time>
<speed>3.200000</speed>
<extensions>
<speed>3.2</speed>
<temp>0.00</temp>
<bpm>0</bpm>
<rpm>0.00</rpm>
</extensions>
</trkpt>
<trkpt lat="30.643596649" lon="34.829734802">
<ele>772.687500</ele>
<time>2013-11-22T07:15:38Z</time>
<speed>3.720000</speed>
<extensions>
<speed>3.7</speed>
<temp>0.00</temp>
<bpm>0</bpm>
<rpm>0.00</rpm>
</extensions>
</trkpt>
<trkpt lat="30.643629074" lon="34.829925537">
<ele>772.906250</ele>
<time>2013-11-22T07:15:43Z</time>
<speed>3.550000</speed>
<extensions>
<speed>3.5</speed>
<temp>0.00</temp>
<bpm>0</bpm>
<rpm>0.00</rpm>
</extensions>
</trkpt>
<trkpt lat="30.643661499" lon="34.830120087">
<ele>773.250000</ele>
<time>2013-11-22T07:15:48Z</time>
<speed>3.770000</speed>
<extensions>
<speed>3.8</speed>
<temp>0.00</temp>
<bpm>0</bpm>
<rpm>0.00</rpm>
</extensions>
</trkpt>
<trkpt lat="30.643716812" lon="34.830318451">
<ele>773.812500</ele>
<time>2013-11-22T07:15:53Z</time>
<speed>3.800000</speed>
<extensions>
<speed>3.8</speed>
<temp>0.00</temp>
<bpm>0</bpm>
<rpm>0.00</rpm>
</extensions>
</trkpt>
<trkpt lat="30.643810272" lon="34.830497742">
<ele>773.921875</ele>
<time>2013-11-22T07:15:58Z</time>
<speed>4.530000</speed>
<extensions>
<speed>4.5</speed>
<temp>0.00</temp>
<bpm>0</bpm>
<rpm>0.00</rpm>
</extensions>
</trkpt>
<trkpt lat="30.643962860" lon="34.830692291">
<ele>770.671875</ele>
<time>2013-11-22T07:16:03Z</time>
<speed>4.850000</speed>
<extensions>
<speed>4.8</speed>
<temp>0.00</temp>
<bpm>0</bpm>
<rpm>0.00</rpm>
</extensions>
</trkpt>
<trkpt lat="30.644083023" lon="34.830902100">
<ele>768.609375</ele>
<time>2013-11-22T07:16:08Z</time>
<speed>5.080000</speed>
<extensions>
<speed>5.1</speed>
<temp>0.00</temp>
<bpm>0</bpm>
<rpm>0.00</rpm>
</extensions>
</trkpt>
<trkpt lat="30.644229889" lon="34.831077576">
<ele>766.046875</ele>
<time>2013-11-22T07:16:13Z</time>
<speed>5.040000</speed>
<extensions>
<speed>5.0</speed>
<temp>0.00</temp>
<bpm>0</bpm>
<rpm>0.00</rpm>
</extensions>
</trkpt>
<trkpt lat="30.644414902" lon="34.831272125">
<ele>765.046875</ele>
<time>2013-11-22T07:16:18Z</time>
<speed>5.680000</speed>
<extensions>
<speed>5.7</speed>
<temp>0.00</temp>
<bpm>0</bpm>
<rpm>0.00</rpm>
</extensions>
</trkpt>
<trkpt lat="30.644624710" lon="34.831455231">
<ele>764.437500</ele>
<time>2013-11-22T07:16:23Z</time>
<speed>6.650000</speed>
<extensions>
<speed>6.7</speed>
<temp>0.00</temp>
<bpm>0</bpm>
<rpm>0.00</rpm>
</extensions>
</trkpt>
<trkpt lat="30.644845963" lon="34.831687927">
<ele>763.375000</ele>
<time>2013-11-22T07:16:28Z</time>
<speed>6.240000</speed>
<extensions>
<speed>6.2</speed>
<temp>0.00</temp>
<bpm>0</bpm>
<rpm>0.00</rpm>
</extensions>
</trkpt>
<trkpt lat="30.645027161" lon="34.831916809">
<ele>763.015625</ele>
<time>2013-11-22T07:16:33Z</time>
<speed>5.330000</speed>
<extensions>
<speed>5.3</speed>
<temp>0.00</temp>
<bpm>0</bpm>
<rpm>0.00</rpm>
</extensions>
</trkpt>
<trkpt lat="30.645130157" lon="34.832084656">
<ele>762.968750</ele>
<time>2013-11-22T07:16:38Z</time>
<speed>3.780000</speed>
<extensions>
<speed>3.8</speed>
<temp>0.00</temp>
<bpm>0</bpm>
<rpm>0.00</rpm>
</extensions>
</trkpt>
<trkpt lat="30.645223618" lon="34.832214355">
<ele>762.734375</ele>
<time>2013-11-22T07:16:43Z</time>
<speed>3.810000</speed>
<extensions>
<speed>3.8</speed>
<temp>0.00</temp>
<bpm>0</bpm>
<rpm>0.00</rpm>
</extensions>
</trkpt>
<trkpt lat="30.645277023" lon="34.832401276">
<ele>761.250000</ele>
<time>2013-11-22T07:16:48Z</time>
<speed>4.040000</speed>
<extensions>
<speed>4.0</speed>
<temp>0.00</temp>
<bpm>0</bpm>
<rpm>0.00</rpm>
</extensions>
</trkpt>
<trkpt lat="30.645324707" lon="34.832618713">
<ele>763.281250</ele>
<time>2013-11-22T07:16:53Z</time>
<speed>4.040000</speed>
<extensions>
<speed>4.0</speed>
<temp>0.00</temp>
<bpm>0</bpm>
<rpm>0.00</rpm>
</extensions>
</trkpt>
<trkpt lat="30.645374298" lon="34.832805634">
<ele>764.468750</ele>
<time>2013-11-22T07:16:58Z</time>
<speed>3.860000</speed>
<extensions>
<speed>3.9</speed>
<temp>0.00</temp>
<bpm>0</bpm>
<rpm>0.00</rpm>
</extensions>
</trkpt>
<trkpt lat="30.645450592" lon="34.832992554">
<ele>766.640625</ele>
<time>2013-11-22T07:17:03Z</time>
<speed>3.520000</speed>
<extensions>
<speed>3.5</speed>
<temp>0.00</temp>
<bpm>0</bpm>
<rpm>0.00</rpm>
</extensions>
</trkpt>
<trkpt lat="30.645454407" lon="34.833164215">
<ele>766.734375</ele>
<time>2013-11-22T07:17:08Z</time>
<speed>2.930000</speed>
<extensions>
<speed>2.9</speed>
<temp>0.00</temp>
<bpm>0</bpm>
<rpm>0.00</rpm>
</extensions>
</trkpt>
<trkpt lat="30.645454407" lon="34.833301544">
<ele>765.687500</ele>
<time>2013-11-22T07:17:13Z</time>
<speed>1.560000</speed>
<extensions>
<speed>1.6</speed>
<temp>0.00</temp>
<bpm>0</bpm>
<rpm>0.00</rpm>
</extensions>
</trkpt>
<trkpt lat="30.645465851" lon="34.833415985">
<ele>766.109375</ele>
<time>2013-11-22T07:17:18Z</time>
<speed>2.910000</speed>
<extensions>
<speed>2.9</speed>
<temp>0.00</temp>
<bpm>0</bpm>
<rpm>0.00</rpm>
</extensions>
</trkpt>
<trkpt lat="30.645483017" lon="34.833583832">
<ele>766.000000</ele>
<time>2013-11-22T07:17:23Z</time>
<speed>3.200000</speed>
<extensions>
<speed>3.2</speed>
<temp>0.00</temp>
<bpm>0</bpm>
<rpm>0.00</rpm>
</extensions>
</trkpt>
<trkpt lat="30.645505905" lon="34.833755493">
<ele>766.203125</ele>
<time>2013-11-22T07:17:28Z</time>
<speed>3.470000</speed>
<extensions>
<speed>3.5</speed>
<temp>0.00</temp>
<bpm>0</bpm>
<rpm>0.00</rpm>
</extensions>
</trkpt>
<trkpt lat="30.645538330" lon="34.833915710">
<ele>767.781250</ele>
<time>2013-11-22T07:17:33Z</time>
<speed>3.100000</speed>
<extensions>
<speed>3.1</speed>
<temp>0.00</temp>
<bpm>0</bpm>
<rpm>0.00</rpm>
</extensions>
</trkpt>
<trkpt lat="30.645565033" lon="34.834045410">
<ele>769.828125</ele>
<time>2013-11-22T07:17:38Z</time>
<speed>2.440000</speed>
<extensions>
<speed>2.4</speed>
<temp>0.00</temp>
<bpm>0</bpm>
<rpm>0.00</rpm>
</extensions>
</trkpt>
<trkpt lat="30.645597458" lon="34.834152222">
<ele>768.343750</ele>
<time>2013-11-22T07:17:43Z</time>
<speed>2.400000</speed>
<extensions>
<speed>2.4</speed>
<temp>0.00</temp>
<bpm>0</bpm>
<rpm>0.00</rpm>
</extensions>
</trkpt>
<trkpt lat="30.645624161" lon="34.834251404">
<ele>767.531250</ele>
<time>2013-11-22T07:17:48Z</time>
<speed>1.710000</speed>
<extensions>
<speed>1.7</speed>
<temp>0.00</temp>
<bpm>0</bpm>
<rpm>0.00</rpm>
</extensions>
</trkpt>
<trkpt lat="30.645643234" lon="34.834331512">
<ele>767.156250</ele>
<time>2013-11-22T07:17:53Z</time>
<speed>1.740000</speed>
<extensions>
<speed>1.7</speed>
<temp>0.00</temp>
<bpm>0</bpm>
<rpm>0.00</rpm>
</extensions>
</trkpt>
<trkpt lat="30.645664215" lon="34.834438324">
<ele>767.281250</ele>
<time>2013-11-22T07:17:58Z</time>
<speed>2.100000</speed>
<extensions>
<speed>2.1</speed>
<temp>0.00</temp>
<bpm>0</bpm>
<rpm>0.00</rpm>
</extensions>
</trkpt>
<trkpt lat="30.645685196" lon="34.834548950">
<ele>766.937500</ele>
<time>2013-11-22T07:18:03Z</time>
<speed>2.120000</speed>
<extensions>
<speed>2.1</speed>
<temp>0.00</temp>
<bpm>0</bpm>
<rpm>0.00</rpm>
</extensions>
</trkpt>
<trkpt lat="30.645719528" lon="34.834655762">
<ele>768.312500</ele>
<time>2013-11-22T07:18:08Z</time>
<speed>2.310000</speed>
<extensions>
<speed>2.3</speed>
<temp>0.00</temp>
<bpm>0</bpm>
<rpm>0.00</rpm>
</extensions>
</trkpt>
<trkpt lat="30.645750046" lon="34.834777832">
<ele>769.046875</ele>
<time>2013-11-22T07:18:13Z</time>
<speed>2.560000</speed>
<extensions>
<speed>2.6</speed>
<temp>0.00</temp>
<bpm>0</bpm>
<rpm>0.00</rpm>
</extensions>
</trkpt>
<trkpt lat="30.645801544" lon="34.834903717">
<ele>769.703125</ele>
<time>2013-11-22T07:18:18Z</time>
<speed>2.670000</speed>
<extensions>
<speed>2.7</speed>
<temp>0.00</temp>
<bpm>0</bpm>
<rpm>0.00</rpm>
</extensions>
</trkpt>
<trkpt lat="30.645896912" lon="34.835037231">
<ele>770.296875</ele>
<time>2013-11-22T07:18:23Z</time>
<speed>3.190000</speed>
<extensions>
<speed>3.2</speed>
<temp>0.00</temp>
<bpm>0</bpm>
<rpm>0.00</rpm>
</extensions>
</trkpt>
<trkpt lat="30.645938873" lon="34.835182190">
<ele>770.890625</ele>
<time>2013-11-22T07:18:28Z</time>
<speed>2.600000</speed>
<extensions>
<speed>2.6</speed>
<temp>0.00</temp>
<bpm>0</bpm>
<rpm>0.00</rpm>
</extensions>
</trkpt>
<trkpt lat="30.646001816" lon="34.835308075">
<ele>772.828125</ele>
<time>2013-11-22T07:18:33Z</time>
<speed>2.750000</speed>
<extensions>
<speed>2.7</speed>
<temp>0.00</temp>
<bpm>0</bpm>
<rpm>0.00</rpm>
</extensions>
</trkpt>
<trkpt lat="30.646045685" lon="34.835441589">
<ele>772.203125</ele>
<time>2013-11-22T07:18:38Z</time>
<speed>2.980000</speed>
<extensions>
<speed>3.0</speed>
<temp>0.00</temp>
<bpm>0</bpm>
<rpm>0.00</rpm>
</extensions>
</trkpt>
<trkpt lat="30.646093369" lon="34.835586548">
<ele>771.953125</ele>
<time>2013-11-22T07:18:43Z</time>
<speed>3.080000</speed>
<extensions>
<speed>3.1</speed>
<temp>0.00</temp>
<bpm>0</bpm>
<rpm>0.00</rpm>
</extensions>
</trkpt>
<trkpt lat="30.646152496" lon="34.835731506">
<ele>773.656250</ele>
<time>2013-11-22T07:18:48Z</time>
<speed>2.630000</speed>
<extensions>
<speed>2.6</speed>
<temp>0.00</temp>
<bpm>0</bpm>
<rpm>0.00</rpm>
</extensions>
</trkpt>
<trkpt lat="30.646175385" lon="34.835784912">
<ele>775.187500</ele>
<time>2013-11-22T07:18:53Z</time>
<speed>0.100000</speed>
<extensions>
<speed>0.1</speed>
<temp>0.00</temp>
<bpm>0</bpm>
<rpm>0.00</rpm>
</extensions>
</trkpt>
<trkpt lat="30.646177292" lon="34.835784912">
<ele>775.218750</ele>
<time>2013-11-22T07:18:58Z</time>
<speed>0.350000</speed>
<extensions>
<speed>0.3</speed>
<temp>0.00</temp>
<bpm>0</bpm>
<rpm>0.00</rpm>
</extensions>
</trkpt>
<trkpt lat="30.646177292" lon="34.835792542">
<ele>775.296875</ele>
<time>2013-11-22T07:19:03Z</time>
<speed>0.050000</speed>
<extensions>
<speed>0.1</speed>
<temp>0.00</temp>
<bpm>0</bpm>
<rpm>0.00</rpm>
</extensions>
</trkpt>
<trkpt lat="30.646181107" lon="34.835792542">
<ele>775.328125</ele>
<time>2013-11-22T07:19:08Z</time>
<speed>0.080000</speed>
<extensions>
<speed>0.1</speed>
<temp>0.00</temp>
<bpm>0</bpm>
<rpm>0.00</rpm>
</extensions>
</trkpt>
<trkpt lat="30.646179199" lon="34.835792542">
<ele>775.375000</ele>
<time>2013-11-22T07:19:13Z</time>
<speed>0.010000</speed>
<extensions>
<speed>0.0</speed>
<temp>0.00</temp>
<bpm>0</bpm>
<rpm>0.00</rpm>
</extensions>
</trkpt>
<trkpt lat="30.646179199" lon="34.835792542">
<ele>775.406250</ele>
<time>2013-11-22T07:19:18Z</time>
<speed>0.060000</speed>
<extensions>
<speed>0.1</speed>
<temp>0.00</temp>
<bpm>0</bpm>
<rpm>0.00</rpm>
</extensions>
</trkpt>
<trkpt lat="30.646181107" lon="34.835792542">
<ele>775.453125</ele>
<time>2013-11-22T07:19:23Z</time>
<speed>0.080000</speed>
<extensions>
<speed>0.1</speed>
<temp>0.00</temp>
<bpm>0</bpm>
<rpm>0.00</rpm>
</extensions>
</trkpt>
<trkpt lat="30.646181107" lon="34.835796356">
<ele>775.468750</ele>
<time>2013-11-22T07:19:28Z</time>
<speed>0.030000</speed>
<extensions>
<speed>0.0</speed>
<temp>0.00</temp>
<bpm>0</bpm>
<rpm>0.00</rpm>
</extensions>
</trkpt>
<trkpt lat="30.646181107" lon="34.835796356">
<ele>775.484375</ele>
<time>2013-11-22T07:19:33Z</time>
<speed>0.030000</speed>
<extensions>
<speed>0.0</speed>
<temp>0.00</temp>
<bpm>0</bpm>
<rpm>0.00</rpm>
</extensions>
</trkpt>
<trkpt lat="30.646183014" lon="34.835796356">
<ele>775.484375</ele>
<time>2013-11-22T07:19:38Z</time>
<speed>0.020000</speed>
<extensions>
<speed>0.0</speed>
<temp>0.00</temp>
<bpm>0</bpm>
<rpm>0.00</rpm>
</extensions>
</trkpt>
<trkpt lat="30.646183014" lon="34.835796356">
<ele>775.484375</ele>
<time>2013-11-22T07:19:43Z</time>
<speed>0.010000</speed>
<extensions>
<speed>0.0</speed>
<temp>0.00</temp>
<bpm>0</bpm>
<rpm>0.00</rpm>
</extensions>
</trkpt>
<trkpt lat="30.646183014" lon="34.835796356">
<ele>775.500000</ele>
<time>2013-11-22T07:19:48Z</time>
<extensions>
<speed>0.0</speed>
<temp>0.00</temp>
<bpm>0</bpm>
<rpm>0.00</rpm>
</extensions>
</trkpt>
<trkpt lat="30.646183014" lon="34.835796356">
<ele>775.515625</ele>
<time>2013-11-22T07:19:53Z</time>
<extensions>
<speed>0.0</speed>
<temp>0.00</temp>
<bpm>0</bpm>
<rpm>0.00</rpm>
</extensions>
</trkpt>
<trkpt lat="30.646183014" lon="34.835796356">
<ele>775.515625</ele>
<time>2013-11-22T07:19:58Z</time>
<extensions>
<speed>0.0</speed>
<temp>0.00</temp>
<bpm>0</bpm>
<rpm>0.00</rpm>
</extensions>
</trkpt>
<trkpt lat="30.646183014" lon="34.835796356">
<ele>775.515625</ele>
<time>2013-11-22T07:20:03Z</time>
<extensions>
<speed>0.0</speed>
<temp>0.00</temp>
<bpm>0</bpm>
<rpm>0.00</rpm>
</extensions>
</trkpt>
<trkpt lat="30.646181107" lon="34.835796356">
<ele>775.500000</ele>
<time>2013-11-22T07:20:08Z</time>
<speed>0.010000</speed>
<extensions>
<speed>0.0</speed>
<temp>0.00</temp>
<bpm>0</bpm>
<rpm>0.00</rpm>
</extensions>
</trkpt>
<trkpt lat="30.646181107" lon="34.835796356">
<ele>775.484375</ele>
<time>2013-11-22T07:20:13Z</time>
<extensions>
<speed>0.0</speed>
<temp>0.00</temp>
<bpm>0</bpm>
<rpm>0.00</rpm>
</extensions>
</trkpt>
<trkpt lat="30.646181107" lon="34.835796356">
<ele>775.468750</ele>
<time>2013-11-22T07:20:18Z</time>
<extensions>
<speed>0.0</speed>
<temp>0.00</temp>
<bpm>0</bpm>
<rpm>0.00</rpm>
</extensions>
</trkpt>
<trkpt lat="30.646181107" lon="34.835796356">
<ele>775.453125</ele>
<time>2013-11-22T07:20:23Z</time>
<speed>0.010000</speed>
<extensions>
<speed>0.0</speed>
<temp>0.00</temp>
<bpm>0</bpm>
<rpm>0.00</rpm>
</extensions>
</trkpt>
<trkpt lat="30.646181107" lon="34.835796356">
<ele>775.453125</ele>
<time>2013-11-22T07:20:28Z</time>
<speed>0.010000</speed>
<extensions>
<speed>0.0</speed>
<temp>0.00</temp>
<bpm>0</bpm>
<rpm>0.00</rpm>
</extensions>
</trkpt>
<trkpt lat="30.646183014" lon="34.835811615">
<ele>775.500000</ele>
<time>2013-11-22T07:20:33Z</time>
<speed>1.720000</speed>
<extensions>
<speed>1.7</speed>
<temp>0.00</temp>
<bpm>0</bpm>
<rpm>0.00</rpm>
</extensions>
</trkpt>
<trkpt lat="30.646200180" lon="34.835933685">
<ele>776.031250</ele>
<time>2013-11-22T07:20:38Z</time>
<speed>2.390000</speed>
<extensions>
<speed>2.4</speed>
<temp>0.00</temp>
<bpm>0</bpm>
<rpm>0.00</rpm>
</extensions>
</trkpt>
<trkpt lat="30.646226883" lon="34.836086273">
<ele>775.156250</ele>
<time>2013-11-22T07:20:43Z</time>
<speed>2.710000</speed>
<extensions>
<speed>2.7</speed>
<temp>0.00</temp>
<bpm>0</bpm>
<rpm>0.00</rpm>
</extensions>
</trkpt>
<trkpt lat="30.646249771" lon="34.836250305">
<ele>773.875000</ele>
<time>2013-11-22T07:20:48Z</time>
<speed>3.230000</speed>
<extensions>
<speed>3.2</speed>
<temp>0.00</temp>
<bpm>0</bpm>
<rpm>0.00</rpm>
</extensions>
</trkpt>
<trkpt lat="30.646251678" lon="34.836429596">
<ele>772.500000</ele>
<time>2013-11-22T07:20:53Z</time>
<speed>3.530000</speed>
<extensions>
<speed>3.5</speed>
<temp>0.00</temp>
<bpm>0</bpm>
<rpm>0.00</rpm>
</extensions>
</trkpt>
<trkpt lat="30.646280289" lon="34.836612701">
<ele>769.875000</ele>
<time>2013-11-22T07:20:58Z</time>
<speed>3.210000</speed>
<extensions>
<speed>3.2</speed>
<temp>0.00</temp>
<bpm>0</bpm>
<rpm>0.00</rpm>
</extensions>
</trkpt>
<trkpt lat="30.646299362" lon="34.836776733">
<ele>767.718750</ele>
<time>2013-11-22T07:21:03Z</time>
<speed>3.270000</speed>
<extensions>
<speed>3.3</speed>
<temp>0.00</temp>
<bpm>0</bpm>
<rpm>0.00</rpm>
</extensions>
</trkpt>
<trkpt lat="30.646320343" lon="34.836929321">
<ele>767.343750</ele>
<time>2013-11-22T07:21:08Z</time>
<speed>3.110000</speed>
<extensions>
<speed>3.1</speed>
<temp>0.00</temp>
<bpm>0</bpm>
<rpm>0.00</rpm>
</extensions>
</trkpt>
<trkpt lat="30.646354675" lon="34.837100983">
<ele>767.828125</ele>
<time>2013-11-22T07:21:13Z</time>
<speed>4.190000</speed>
<extensions>
<speed>4.2</speed>
<temp>0.00</temp>
<bpm>0</bpm>
<rpm>0.00</rpm>
</extensions>
</trkpt>
<trkpt lat="30.646406174" lon="34.837280273">
<ele>765.015625</ele>
<time>2013-11-22T07:21:18Z</time>
<speed>2.990000</speed>
<extensions>
<speed>3.0</speed>
<temp>0.00</temp>
<bpm>0</bpm>
<rpm>0.00</rpm>
</extensions>
</trkpt>
<trkpt lat="30.646440506" lon="34.837425232">
<ele>766.625000</ele>
<time>2013-11-22T07:21:23Z</time>
<speed>2.890000</speed>
<extensions>
<speed>2.9</speed>
<temp>0.00</temp>
<bpm>0</bpm>
<rpm>0.00</rpm>
</extensions>
</trkpt>
<trkpt lat="30.646482468" lon="34.837574005">
<ele>766.078125</ele>
<time>2013-11-22T07:21:28Z</time>
<speed>3.460000</speed>
<extensions>
<speed>3.5</speed>
<temp>0.00</temp>
<bpm>0</bpm>
<rpm>0.00</rpm>
</extensions>
</trkpt>
<trkpt lat="30.646524429" lon="34.837749481">
<ele>764.390625</ele>
<time>2013-11-22T07:21:33Z</time>
<speed>3.710000</speed>
<extensions>
<speed>3.7</speed>
<temp>0.00</temp>
<bpm>0</bpm>
<rpm>0.00</rpm>
</extensions>
</trkpt>
<trkpt lat="30.646587372" lon="34.837917328">
<ele>767.390625</ele>
<time>2013-11-22T07:21:38Z</time>
<speed>3.730000</speed>
<extensions>
<speed>3.7</speed>
<temp>0.00</temp>
<bpm>0</bpm>
<rpm>0.00</rpm>
</extensions>
</trkpt>
<trkpt lat="30.646629333" lon="34.838134766">
<ele>767.234375</ele>
<time>2013-11-22T07:21:43Z</time>
<speed>4.270000</speed>
<extensions>
<speed>4.3</speed>
<temp>0.00</temp>
<bpm>0</bpm>
<rpm>0.00</rpm>
</extensions>
</trkpt>
<trkpt lat="30.646661758" lon="34.838325500">
<ele>767.140625</ele>
<time>2013-11-22T07:21:48Z</time>
<speed>3.140000</speed>
<extensions>
<speed>3.1</speed>
<temp>0.00</temp>
<bpm>0</bpm>
<rpm>0.00</rpm>
</extensions>
</trkpt>
<trkpt lat="30.646671295" lon="34.838485718">
<ele>765.968750</ele>
<time>2013-11-22T07:21:53Z</time>
<speed>2.750000</speed>
<extensions>
<speed>2.7</speed>
<temp>0.00</temp>
<bpm>0</bpm>
<rpm>0.00</rpm>
</extensions>
</trkpt>
<trkpt lat="30.646707535" lon="34.838634491">
<ele>764.859375</ele>
<time>2013-11-22T07:21:58Z</time>
<speed>3.260000</speed>
<extensions>
<speed>3.3</speed>
<temp>0.00</temp>
<bpm>0</bpm>
<rpm>0.00</rpm>
</extensions>
</trkpt>
<trkpt lat="30.646762848" lon="34.838794708">
<ele>766.312500</ele>
<time>2013-11-22T07:22:03Z</time>
<speed>3.790000</speed>
<extensions>
<speed>3.8</speed>
<temp>0.00</temp>
<bpm>0</bpm>
<rpm>0.00</rpm>
</extensions>
</trkpt>
<trkpt lat="30.646854401" lon="34.838954926">
<ele>765.515625</ele>
<time>2013-11-22T07:22:08Z</time>
<speed>3.290000</speed>
<extensions>
<speed>3.3</speed>
<temp>0.00</temp>
<bpm>0</bpm>
<rpm>0.00</rpm>
</extensions>
</trkpt>
<trkpt lat="30.646949768" lon="34.839057922">
<ele>765.968750</ele>
<time>2013-11-22T07:22:13Z</time>
<speed>3.280000</speed>
<extensions>
<speed>3.3</speed>
<temp>0.00</temp>
<bpm>0</bpm>
<rpm>0.00</rpm>
</extensions>
</trkpt>
<trkpt lat="30.647089005" lon="34.839160919">
<ele>764.500000</ele>
<time>2013-11-22T07:22:18Z</time>
<speed>3.490000</speed>
<extensions>
<speed>3.5</speed>
<temp>0.00</temp>
<bpm>0</bpm>
<rpm>0.00</rpm>
</extensions>
</trkpt>
<trkpt lat="30.647176743" lon="34.839286804">
<ele>761.468750</ele>
<time>2013-11-22T07:22:23Z</time>
<speed>2.950000</speed>
<extensions>
<speed>2.9</speed>
<temp>0.00</temp>
<bpm>0</bpm>
<rpm>0.00</rpm>
</extensions>
</trkpt>
<trkpt lat="30.647230148" lon="34.839427948">
<ele>760.375000</ele>
<time>2013-11-22T07:22:28Z</time>
<speed>2.480000</speed>
<extensions>
<speed>2.5</speed>
<temp>0.00</temp>
<bpm>0</bpm>
<rpm>0.00</rpm>
</extensions>
</trkpt>
<trkpt lat="30.647270203" lon="34.839580536">
<ele>760.625000</ele>
<time>2013-11-22T07:22:33Z</time>
<speed>2.910000</speed>
<extensions>
<speed>2.9</speed>
<temp>0.00</temp>
<bpm>0</bpm>
<rpm>0.00</rpm>
</extensions>
</trkpt>
<trkpt lat="30.647323608" lon="34.839763641">
<ele>758.765625</ele>
<time>2013-11-22T07:22:38Z</time>
<speed>4.070000</speed>
<extensions>
<speed>4.1</speed>
<temp>0.00</temp>
<bpm>0</bpm>
<rpm>0.00</rpm>
</extensions>
</trkpt>
<trkpt lat="30.647432327" lon="34.839962006">
<ele>759.609375</ele>
<time>2013-11-22T07:22:43Z</time>
<speed>4.530000</speed>
<extensions>
<speed>4.5</speed>
<temp>0.00</temp>
<bpm>0</bpm>
<rpm>0.00</rpm>
</extensions>
</trkpt>
<trkpt lat="30.647558212" lon="34.840133667">
<ele>761.218750</ele>
<time>2013-11-22T07:22:48Z</time>
<speed>4.060000</speed>
<extensions>
<speed>4.1</speed>
<temp>0.00</temp>
<bpm>0</bpm>
<rpm>0.00</rpm>
</extensions>
</trkpt>
<trkpt lat="30.647680283" lon="34.840328217">
<ele>762.421875</ele>
<time>2013-11-22T07:22:53Z</time>
<speed>4.840000</speed>
<extensions>
<speed>4.8</speed>
<temp>0.00</temp>
<bpm>0</bpm>
<rpm>0.00</rpm>
</extensions>
</trkpt>
<trkpt lat="30.647830963" lon="34.840522766">
<ele>761.984375</ele>
<time>2013-11-22T07:22:58Z</time>
<speed>5.220000</speed>
<extensions>
<speed>5.2</speed>
<temp>0.00</temp>
<bpm>0</bpm>
<rpm>0.00</rpm>
</extensions>
</trkpt>
<trkpt lat="30.647970200" lon="34.840705872">
<ele>762.000000</ele>
<time>2013-11-22T07:23:03Z</time>
<speed>4.390000</speed>
<extensions>
<speed>4.4</speed>
<temp>0.00</temp>
<bpm>0</bpm>
<rpm>0.00</rpm>
</extensions>
</trkpt>
<trkpt lat="30.648105621" lon="34.840854645">
<ele>763.218750</ele>
<time>2013-11-22T07:23:08Z</time>
<speed>3.760000</speed>
<extensions>
<speed>3.8</speed>
<temp>0.00</temp>
<bpm>0</bpm>
<rpm>0.00</rpm>
</extensions>
</trkpt>
<trkpt lat="30.648237228" lon="34.840995789">
<ele>764.625000</ele>
<time>2013-11-22T07:23:13Z</time>
<speed>4.470000</speed>
<extensions>
<speed>4.5</speed>
<temp>0.00</temp>
<bpm>0</bpm>
<rpm>0.00</rpm>
</extensions>
</trkpt>
<trkpt lat="30.648443222" lon="34.841098785">
<ele>762.031250</ele>
<time>2013-11-22T07:23:18Z</time>
<speed>4.340000</speed>
<extensions>
<speed>4.3</speed>
<temp>0.00</temp>
<bpm>0</bpm>
<rpm>0.00</rpm>
</extensions>
</trkpt>
<trkpt lat="30.648538589" lon="34.841243744">
<ele>762.578125</ele>
<time>2013-11-22T07:23:23Z</time>
<speed>4.030000</speed>
<extensions>
<speed>4.0</speed>
<temp>0.00</temp>
<bpm>0</bpm>
<rpm>0.00</rpm>
</extensions>
</trkpt>
<trkpt lat="30.648679733" lon="34.841434479">
<ele>760.828125</ele>
<time>2013-11-22T07:23:28Z</time>
<speed>5.110000</speed>
<extensions>
<speed>5.1</speed>
<temp>0.00</temp>
<bpm>0</bpm>
<rpm>0.00</rpm>
</extensions>
</trkpt>
<trkpt lat="30.648788452" lon="34.841537476">
<ele>759.828125</ele>
<time>2013-11-22T07:23:33Z</time>
<speed>1.760000</speed>
<extensions>
<speed>1.8</speed>
<temp>0.00</temp>
<bpm>0</bpm>
<rpm>0.00</rpm>
</extensions>
</trkpt>
<trkpt lat="30.648811340" lon="34.841548920">
<ele>759.328125</ele>
<time>2013-11-22T07:23:38Z</time>
<speed>0.020000</speed>
<extensions>
<speed>0.0</speed>
<temp>0.00</temp>
<bpm>0</bpm>
<rpm>0.00</rpm>
</extensions>
</trkpt>
<trkpt lat="30.648809433" lon="34.841533661">
<ele>759.484375</ele>
<time>2013-11-22T07:23:43Z</time>
<speed>0.560000</speed>
<extensions>
<speed>0.6</speed>
<temp>0.00</temp>
<bpm>0</bpm>
<rpm>0.00</rpm>
</extensions>
</trkpt>
<trkpt lat="30.648805618" lon="34.841518402">
<ele>759.687500</ele>
<time>2013-11-22T07:23:48Z</time>
<speed>0.010000</speed>
<extensions>
<speed>0.0</speed>
<temp>0.00</temp>
<bpm>0</bpm>
<rpm>0.00</rpm>
</extensions>
</trkpt>
<trkpt lat="30.648805618" lon="34.841518402">
<ele>759.828125</ele>
<time>2013-11-22T07:23:53Z</time>
<speed>0.010000</speed>
<extensions>
<speed>0.0</speed>
<temp>0.00</temp>
<bpm>0</bpm>
<rpm>0.00</rpm>
</extensions>
</trkpt>
<trkpt lat="30.648805618" lon="34.841514587">
<ele>759.890625</ele>
<time>2013-11-22T07:23:58Z</time>
<speed>0.010000</speed>
<extensions>
<speed>0.0</speed>
<temp>0.00</temp>
<bpm>0</bpm>
<rpm>0.00</rpm>
</extensions>
</trkpt>
<trkpt lat="30.648805618" lon="34.841514587">
<ele>759.890625</ele>
<time>2013-11-22T07:24:03Z</time>
<speed>0.020000</speed>
<extensions>
<speed>0.0</speed>
<temp>0.00</temp>
<bpm>0</bpm>
<rpm>0.00</rpm>
</extensions>
</trkpt>
<trkpt lat="30.648805618" lon="34.841514587">
<ele>759.875000</ele>
<time>2013-11-22T07:24:08Z</time>
<extensions>
<speed>0.0</speed>
<temp>0.00</temp>
<bpm>0</bpm>
<rpm>0.00</rpm>
</extensions>
</trkpt>
<trkpt lat="30.648805618" lon="34.841514587">
<ele>759.875000</ele>
<time>2013-11-22T07:24:13Z</time>
<speed>0.020000</speed>
<extensions>
<speed>0.0</speed>
<temp>0.00</temp>
<bpm>0</bpm>
<rpm>0.00</rpm>
</extensions>
</trkpt>
<trkpt lat="30.648805618" lon="34.841514587">
<ele>759.875000</ele>
<time>2013-11-22T07:24:18Z</time>
<extensions>
<speed>0.0</speed>
<temp>0.00</temp>
<bpm>0</bpm>
<rpm>0.00</rpm>
</extensions>
</trkpt>
<trkpt lat="30.648805618" lon="34.841514587">
<ele>759.875000</ele>
<time>2013-11-22T07:24:23Z</time>
<speed>0.010000</speed>
<extensions>
<speed>0.0</speed>
<temp>0.00</temp>
<bpm>0</bpm>
<rpm>0.00</rpm>
</extensions>
</trkpt>
<trkpt lat="30.648805618" lon="34.841514587">
<ele>759.875000</ele>
<time>2013-11-22T07:24:28Z</time>
<speed>0.010000</speed>
<extensions>
<speed>0.0</speed>
<temp>0.00</temp>
<bpm>0</bpm>
<rpm>0.00</rpm>
</extensions>
</trkpt>
<trkpt lat="30.648805618" lon="34.841514587">
<ele>759.859375</ele>
<time>2013-11-22T07:24:33Z</time>
<speed>0.010000</speed>
<extensions>
<speed>0.0</speed>
<temp>0.00</temp>
<bpm>0</bpm>
<rpm>0.00</rpm>
</extensions>
</trkpt>
<trkpt lat="30.648805618" lon="34.841514587">
<ele>759.859375</ele>
<time>2013-11-22T07:24:38Z</time>
<speed>0.010000</speed>
<extensions>
<speed>0.0</speed>
<temp>0.00</temp>
<bpm>0</bpm>
<rpm>0.00</rpm>
</extensions>
</trkpt>
<trkpt lat="30.648805618" lon="34.841514587">
<ele>759.859375</ele>
<time>2013-11-22T07:24:43Z</time>
<speed>0.010000</speed>
<extensions>
<speed>0.0</speed>
<temp>0.00</temp>
<bpm>0</bpm>
<rpm>0.00</rpm>
</extensions>
</trkpt>
<trkpt lat="30.648805618" lon="34.841514587">
<ele>759.859375</ele>
<time>2013-11-22T07:24:48Z</time>
<speed>0.010000</speed>
<extensions>
<speed>0.0</speed>
<temp>0.00</temp>
<bpm>0</bpm>
<rpm>0.00</rpm>
</extensions>
</trkpt>
<trkpt lat="30.648805618" lon="34.841514587">
<ele>759.859375</ele>
<time>2013-11-22T07:24:53Z</time>
<extensions>
<speed>0.0</speed>
<temp>0.00</temp>
<bpm>0</bpm>
<rpm>0.00</rpm>
</extensions>
</trkpt>
<trkpt lat="30.648805618" lon="34.841514587">
<ele>759.875000</ele>
<time>2013-11-22T07:24:58Z</time>
<extensions>
<speed>0.0</speed>
<temp>0.00</temp>
<bpm>0</bpm>
<rpm>0.00</rpm>
</extensions>
</trkpt>
<trkpt lat="30.648805618" lon="34.841514587">
<ele>759.875000</ele>
<time>2013-11-22T07:25:03Z</time>
<extensions>
<speed>0.0</speed>
<temp>0.00</temp>
<bpm>0</bpm>
<rpm>0.00</rpm>
</extensions>
</trkpt>
<trkpt lat="30.648805618" lon="34.841514587">
<ele>759.890625</ele>
<time>2013-11-22T07:25:08Z</time>
<extensions>
<speed>0.0</speed>
<temp>0.00</temp>
<bpm>0</bpm>
<rpm>0.00</rpm>
</extensions>
</trkpt>
<trkpt lat="30.648805618" lon="34.841514587">
<ele>759.906250</ele>
<time>2013-11-22T07:25:13Z</time>
<speed>0.010000</speed>
<extensions>
<speed>0.0</speed>
<temp>0.00</temp>
<bpm>0</bpm>
<rpm>0.00</rpm>
</extensions>
</trkpt>
<trkpt lat="30.648805618" lon="34.841514587">
<ele>759.890625</ele>
<time>2013-11-22T07:25:18Z</time>
<speed>0.020000</speed>
<extensions>
<speed>0.0</speed>
<temp>0.00</temp>
<bpm>0</bpm>
<rpm>0.00</rpm>
</extensions>
</trkpt>
<trkpt lat="30.648805618" lon="34.841514587">
<ele>759.875000</ele>
<time>2013-11-22T07:25:23Z</time>
<extensions>
<speed>0.0</speed>
<temp>0.00</temp>
<bpm>0</bpm>
<rpm>0.00</rpm>
</extensions>
</trkpt>
<trkpt lat="30.648805618" lon="34.841514587">
<ele>759.875000</ele>
<time>2013-11-22T07:25:28Z</time>
<extensions>
<speed>0.0</speed>
<temp>0.00</temp>
<bpm>0</bpm>
<rpm>0.00</rpm>
</extensions>
</trkpt>
<trkpt lat="30.648805618" lon="34.841514587">
<ele>759.890625</ele>
<time>2013-11-22T07:25:33Z</time>
<speed>0.010000</speed>
<extensions>
<speed>0.0</speed>
<temp>0.00</temp>
<bpm>0</bpm>
<rpm>0.00</rpm>
</extensions>
</trkpt>
<trkpt lat="30.648805618" lon="34.841514587">
<ele>759.875000</ele>
<time>2013-11-22T07:25:38Z</time>
<extensions>
<speed>0.0</speed>
<temp>0.00</temp>
<bpm>0</bpm>
<rpm>0.00</rpm>
</extensions>
</trkpt>
<trkpt lat="30.648805618" lon="34.841514587">
<ele>759.890625</ele>
<time>2013-11-22T07:25:43Z</time>
<speed>0.010000</speed>
<extensions>
<speed>0.0</speed>
<temp>0.00</temp>
<bpm>0</bpm>
<rpm>0.00</rpm>
</extensions>
</trkpt>
<trkpt lat="30.648805618" lon="34.841514587">
<ele>759.875000</ele>
<time>2013-11-22T07:25:48Z</time>
<extensions>
<speed>0.0</speed>
<temp>0.00</temp>
<bpm>0</bpm>
<rpm>0.00</rpm>
</extensions>
</trkpt>
<trkpt lat="30.648805618" lon="34.841514587">
<ele>759.875000</ele>
<time>2013-11-22T07:25:53Z</time>
<speed>0.010000</speed>
<extensions>
<speed>0.0</speed>
<temp>0.00</temp>
<bpm>0</bpm>
<rpm>0.00</rpm>
</extensions>
</trkpt>
<trkpt lat="30.648805618" lon="34.841514587">
<ele>759.875000</ele>
<time>2013-11-22T07:25:58Z</time>
<speed>0.010000</speed>
<extensions>
<speed>0.0</speed>
<temp>0.00</temp>
<bpm>0</bpm>
<rpm>0.00</rpm>
</extensions>
</trkpt>
<trkpt lat="30.648805618" lon="34.841514587">
<ele>759.875000</ele>
<time>2013-11-22T07:26:03Z</time>
<extensions>
<speed>0.0</speed>
<temp>0.00</temp>
<bpm>0</bpm>
<rpm>0.00</rpm>
</extensions>
</trkpt>
<trkpt lat="30.648805618" lon="34.841514587">
<ele>759.859375</ele>
<time>2013-11-22T07:26:08Z</time>
<extensions>
<speed>0.0</speed>
<temp>0.00</temp>
<bpm>0</bpm>
<rpm>0.00</rpm>
</extensions>
</trkpt>
<trkpt lat="30.648805618" lon="34.841514587">
<ele>759.859375</ele>
<time>2013-11-22T07:26:13Z</time>
<speed>0.010000</speed>
<extensions>
<speed>0.0</speed>
<temp>0.00</temp>
<bpm>0</bpm>
<rpm>0.00</rpm>
</extensions>
</trkpt>
<trkpt lat="30.648805618" lon="34.841514587">
<ele>759.859375</ele>
<time>2013-11-22T07:26:18Z</time>
<extensions>
<speed>0.0</speed>
<temp>0.00</temp>
<bpm>0</bpm>
<rpm>0.00</rpm>
</extensions>
</trkpt>
<trkpt lat="30.648805618" lon="34.841514587">
<ele>759.859375</ele>
<time>2013-11-22T07:26:23Z</time>
<speed>0.010000</speed>
<extensions>
<speed>0.0</speed>
<temp>0.00</temp>
<bpm>0</bpm>
<rpm>0.00</rpm>
</extensions>
</trkpt>
<trkpt lat="30.648805618" lon="34.841514587">
<ele>759.859375</ele>
<time>2013-11-22T07:26:28Z</time>
<extensions>
<speed>0.0</speed>
<temp>0.00</temp>
<bpm>0</bpm>
<rpm>0.00</rpm>
</extensions>
</trkpt>
<trkpt lat="30.648805618" lon="34.841514587">
<ele>759.843750</ele>
<time>2013-11-22T07:26:33Z</time>
<extensions>
<speed>0.0</speed>
<temp>0.00</temp>
<bpm>0</bpm>
<rpm>0.00</rpm>
</extensions>
</trkpt>
<trkpt lat="30.648805618" lon="34.841514587">
<ele>759.843750</ele>
<time>2013-11-22T07:26:38Z</time>
<extensions>
<speed>0.0</speed>
<temp>0.00</temp>
<bpm>0</bpm>
<rpm>0.00</rpm>
</extensions>
</trkpt>
<trkpt lat="30.648805618" lon="34.841514587">
<ele>759.812500</ele>
<time>2013-11-22T07:26:43Z</time>
<extensions>
<speed>0.0</speed>
<temp>0.00</temp>
<bpm>0</bpm>
<rpm>0.00</rpm>
</extensions>
</trkpt>
<trkpt lat="30.648805618" lon="34.841514587">
<ele>759.828125</ele>
<time>2013-11-22T07:26:48Z</time>
<speed>0.010000</speed>
<extensions>
<speed>0.0</speed>
<temp>0.00</temp>
<bpm>0</bpm>
<rpm>0.00</rpm>
</extensions>
</trkpt>
<trkpt lat="30.648803711" lon="34.841514587">
<ele>759.828125</ele>
<time>2013-11-22T07:26:53Z</time>
<speed>0.010000</speed>
<extensions>
<speed>0.0</speed>
<temp>0.00</temp>
<bpm>0</bpm>
<rpm>0.00</rpm>
</extensions>
</trkpt>
<trkpt lat="30.648803711" lon="34.841514587">
<ele>759.828125</ele>
<time>2013-11-22T07:26:58Z</time>
<extensions>
<speed>0.0</speed>
<temp>0.00</temp>
<bpm>0</bpm>
<rpm>0.00</rpm>
</extensions>
</trkpt>
<trkpt lat="30.648803711" lon="34.841514587">
<ele>759.828125</ele>
<time>2013-11-22T07:27:03Z</time>
<speed>0.010000</speed>
<extensions>
<speed>0.0</speed>
<temp>0.00</temp>
<bpm>0</bpm>
<rpm>0.00</rpm>
</extensions>
</trkpt>
<trkpt lat="30.648803711" lon="34.841514587">
<ele>759.812500</ele>
<time>2013-11-22T07:27:08Z</time>
<speed>0.010000</speed>
<extensions>
<speed>0.0</speed>
<temp>0.00</temp>
<bpm>0</bpm>
<rpm>0.00</rpm>
</extensions>
</trkpt>
<trkpt lat="30.648803711" lon="34.841514587">
<ele>759.828125</ele>
<time>2013-11-22T07:27:13Z</time>
<extensions>
<speed>0.0</speed>
<temp>0.00</temp>
<bpm>0</bpm>
<rpm>0.00</rpm>
</extensions>
</trkpt>
<trkpt lat="30.648803711" lon="34.841514587">
<ele>759.828125</ele>
<time>2013-11-22T07:27:18Z</time>
<extensions>
<speed>0.0</speed>
<temp>0.00</temp>
<bpm>0</bpm>
<rpm>0.00</rpm>
</extensions>
</trkpt>
<trkpt lat="30.648803711" lon="34.841514587">
<ele>759.812500</ele>
<time>2013-11-22T07:27:23Z</time>
<extensions>
<speed>0.0</speed>
<temp>0.00</temp>
<bpm>0</bpm>
<rpm>0.00</rpm>
</extensions>
</trkpt>
<trkpt lat="30.648803711" lon="34.841514587">
<ele>759.796875</ele>
<time>2013-11-22T07:27:28Z</time>
<extensions>
<speed>0.0</speed>
<temp>0.00</temp>
<bpm>0</bpm>
<rpm>0.00</rpm>
</extensions>
</trkpt>
<trkpt lat="30.648803711" lon="34.841514587">
<ele>759.781250</ele>
<time>2013-11-22T07:27:33Z</time>
<extensions>
<speed>0.0</speed>
<temp>0.00</temp>
<bpm>0</bpm>
<rpm>0.00</rpm>
</extensions>
</trkpt>
<trkpt lat="30.648803711" lon="34.841514587">
<ele>759.781250</ele>
<time>2013-11-22T07:27:38Z</time>
<extensions>
<speed>0.0</speed>
<temp>0.00</temp>
<bpm>0</bpm>
<rpm>0.00</rpm>
</extensions>
</trkpt>
<trkpt lat="30.648803711" lon="34.841514587">
<ele>759.781250</ele>
<time>2013-11-22T07:27:43Z</time>
<extensions>
<speed>0.0</speed>
<temp>0.00</temp>
<bpm>0</bpm>
<rpm>0.00</rpm>
</extensions>
</trkpt>
<trkpt lat="30.648803711" lon="34.841514587">
<ele>759.781250</ele>
<time>2013-11-22T07:27:48Z</time>
<extensions>
<speed>0.0</speed>
<temp>0.00</temp>
<bpm>0</bpm>
<rpm>0.00</rpm>
</extensions>
</trkpt>
<trkpt lat="30.648803711" lon="34.841514587">
<ele>759.765625</ele>
<time>2013-11-22T07:27:53Z</time>
<speed>0.010000</speed>
<extensions>
<speed>0.0</speed>
<temp>0.00</temp>
<bpm>0</bpm>
<rpm>0.00</rpm>
</extensions>
</trkpt>
<trkpt lat="30.648803711" lon="34.841514587">
<ele>759.750000</ele>
<time>2013-11-22T07:27:58Z</time>
<speed>0.010000</speed>
<extensions>
<speed>0.0</speed>
<temp>0.00</temp>
<bpm>0</bpm>
<rpm>0.00</rpm>
</extensions>
</trkpt>
<trkpt lat="30.648834229" lon="34.841552734">
<ele>759.437500</ele>
<time>2013-11-22T07:28:03Z</time>
<speed>3.040000</speed>
<extensions>
<speed>3.0</speed>
<temp>0.00</temp>
<bpm>0</bpm>
<rpm>0.00</rpm>
</extensions>
</trkpt>
<trkpt lat="30.648977280" lon="34.841697693">
<ele>758.921875</ele>
<time>2013-11-22T07:28:08Z</time>
<speed>4.000000</speed>
<extensions>
<speed>4.0</speed>
<temp>0.00</temp>
<bpm>0</bpm>
<rpm>0.00</rpm>
</extensions>
</trkpt>
<trkpt lat="30.649103165" lon="34.841815948">
<ele>759.140625</ele>
<time>2013-11-22T07:28:13Z</time>
<speed>2.840000</speed>
<extensions>
<speed>2.8</speed>
<temp>0.00</temp>
<bpm>0</bpm>
<rpm>0.00</rpm>
</extensions>
</trkpt>
<trkpt lat="30.649261475" lon="34.841903687">
<ele>759.546875</ele>
<time>2013-11-22T07:28:18Z</time>
<speed>3.150000</speed>
<extensions>
<speed>3.2</speed>
<temp>0.00</temp>
<bpm>0</bpm>
<rpm>0.00</rpm>
</extensions>
</trkpt>
<trkpt lat="30.649408340" lon="34.841987610">
<ele>758.609375</ele>
<time>2013-11-22T07:28:23Z</time>
<speed>4.140000</speed>
<extensions>
<speed>4.1</speed>
<temp>0.00</temp>
<bpm>0</bpm>
<rpm>0.00</rpm>
</extensions>
</trkpt>
<trkpt lat="30.649589539" lon="34.842056274">
<ele>757.562500</ele>
<time>2013-11-22T07:28:28Z</time>
<speed>3.920000</speed>
<extensions>
<speed>3.9</speed>
<temp>0.00</temp>
<bpm>0</bpm>
<rpm>0.00</rpm>
</extensions>
</trkpt>
<trkpt lat="30.649749756" lon="34.842082977">
<ele>756.609375</ele>
<time>2013-11-22T07:28:33Z</time>
<speed>3.580000</speed>
<extensions>
<speed>3.6</speed>
<temp>0.00</temp>
<bpm>0</bpm>
<rpm>0.00</rpm>
</extensions>
</trkpt>
<trkpt lat="30.649919510" lon="34.842090607">
<ele>756.000000</ele>
<time>2013-11-22T07:28:38Z</time>
<speed>3.770000</speed>
<extensions>
<speed>3.8</speed>
<temp>0.00</temp>
<bpm>0</bpm>
<rpm>0.00</rpm>
</extensions>
</trkpt>
<trkpt lat="30.650083542" lon="34.842121124">
<ele>753.937500</ele>
<time>2013-11-22T07:28:43Z</time>
<speed>3.680000</speed>
<extensions>
<speed>3.7</speed>
<temp>0.00</temp>
<bpm>0</bpm>
<rpm>0.00</rpm>
</extensions>
</trkpt>
<trkpt lat="30.650232315" lon="34.842163086">
<ele>753.546875</ele>
<time>2013-11-22T07:28:48Z</time>
<speed>3.840000</speed>
<extensions>
<speed>3.8</speed>
<temp>0.00</temp>
<bpm>0</bpm>
<rpm>0.00</rpm>
</extensions>
</trkpt>
<trkpt lat="30.650405884" lon="34.842227936">
<ele>753.968750</ele>
<time>2013-11-22T07:28:53Z</time>
<speed>3.580000</speed>
<extensions>
<speed>3.6</speed>
<temp>0.00</temp>
<bpm>0</bpm>
<rpm>0.00</rpm>
</extensions>
</trkpt>
<trkpt lat="30.650556564" lon="34.842300415">
<ele>756.531250</ele>
<time>2013-11-22T07:28:58Z</time>
<speed>2.320000</speed>
<extensions>
<speed>2.3</speed>
<temp>0.00</temp>
<bpm>0</bpm>
<rpm>0.00</rpm>
</extensions>
</trkpt>
<trkpt lat="30.650642395" lon="34.842323303">
<ele>762.187500</ele>
<time>2013-11-22T07:29:03Z</time>
<speed>2.320000</speed>
<extensions>
<speed>2.3</speed>
<temp>0.00</temp>
<bpm>0</bpm>
<rpm>0.00</rpm>
</extensions>
</trkpt>
<trkpt lat="30.650787354" lon="34.842338562">
<ele>763.515625</ele>
<time>2013-11-22T07:29:08Z</time>
<speed>3.680000</speed>
<extensions>
<speed>3.7</speed>
<temp>0.00</temp>
<bpm>0</bpm>
<rpm>0.00</rpm>
</extensions>
</trkpt>
<trkpt lat="30.650934219" lon="34.842346191">
<ele>760.390625</ele>
<time>2013-11-22T07:29:13Z</time>
<speed>3.960000</speed>
<extensions>
<speed>4.0</speed>
<temp>0.00</temp>
<bpm>0</bpm>
<rpm>0.00</rpm>
</extensions>
</trkpt>
<trkpt lat="30.651109695" lon="34.842418671">
<ele>759.515625</ele>
<time>2013-11-22T07:29:18Z</time>
<speed>4.090000</speed>
<extensions>
<speed>4.1</speed>
<temp>0.00</temp>
<bpm>0</bpm>
<rpm>0.00</rpm>
</extensions>
</trkpt>
<trkpt lat="30.651283264" lon="34.842491150">
<ele>759.578125</ele>
<time>2013-11-22T07:29:23Z</time>
<speed>4.200000</speed>
<extensions>
<speed>4.2</speed>
<temp>0.00</temp>
<bpm>0</bpm>
<rpm>0.00</rpm>
</extensions>
</trkpt>
<trkpt lat="30.651449203" lon="34.842521667">
<ele>758.437500</ele>
<time>2013-11-22T07:29:28Z</time>
<speed>3.280000</speed>
<extensions>
<speed>3.3</speed>
<temp>0.00</temp>
<bpm>0</bpm>
<rpm>0.00</rpm>
</extensions>
</trkpt>
<trkpt lat="30.651546478" lon="34.842559814">
<ele>757.890625</ele>
<time>2013-11-22T07:29:33Z</time>
<speed>1.430000</speed>
<extensions>
<speed>1.4</speed>
<temp>0.00</temp>
<bpm>0</bpm>
<rpm>0.00</rpm>
</extensions>
</trkpt>
<trkpt lat="30.651605606" lon="34.842575073">
<ele>758.031250</ele>
<time>2013-11-22T07:29:38Z</time>
<speed>1.800000</speed>
<extensions>
<speed>1.8</speed>
<temp>0.00</temp>
<bpm>0</bpm>
<rpm>0.00</rpm>
</extensions>
</trkpt>
<trkpt lat="30.651710510" lon="34.842594147">
<ele>757.250000</ele>
<time>2013-11-22T07:29:43Z</time>
<speed>2.320000</speed>
<extensions>
<speed>2.3</speed>
<temp>0.00</temp>
<bpm>0</bpm>
<rpm>0.00</rpm>
</extensions>
</trkpt>
<trkpt lat="30.651807785" lon="34.842601776">
<ele>757.828125</ele>
<time>2013-11-22T07:29:48Z</time>
<speed>1.820000</speed>
<extensions>
<speed>1.8</speed>
<temp>0.00</temp>
<bpm>0</bpm>
<rpm>0.00</rpm>
</extensions>
</trkpt>
<trkpt lat="30.651899338" lon="34.842620850">
<ele>759.156250</ele>
<time>2013-11-22T07:29:53Z</time>
<speed>2.280000</speed>
<extensions>
<speed>2.3</speed>
<temp>0.00</temp>
<bpm>0</bpm>
<rpm>0.00</rpm>
</extensions>
</trkpt>
<trkpt lat="30.652000427" lon="34.842678070">
<ele>758.875000</ele>
<time>2013-11-22T07:29:58Z</time>
<speed>2.370000</speed>
<extensions>
<speed>2.4</speed>
<temp>0.00</temp>
<bpm>0</bpm>
<rpm>0.00</rpm>
</extensions>
</trkpt>
<trkpt lat="30.652078629" lon="34.842720032">
<ele>759.218750</ele>
<time>2013-11-22T07:30:03Z</time>
<speed>1.710000</speed>
<extensions>
<speed>1.7</speed>
<temp>0.00</temp>
<bpm>0</bpm>
<rpm>0.00</rpm>
</extensions>
</trkpt>
<trkpt lat="30.652147293" lon="34.842761993">
<ele>759.718750</ele>
<time>2013-11-22T07:30:08Z</time>
<speed>1.960000</speed>
<extensions>
<speed>2.0</speed>
<temp>0.00</temp>
<bpm>0</bpm>
<rpm>0.00</rpm>
</extensions>
</trkpt>
<trkpt lat="30.652227402" lon="34.842811584">
<ele>760.578125</ele>
<time>2013-11-22T07:30:13Z</time>
<speed>2.120000</speed>
<extensions>
<speed>2.1</speed>
<temp>0.00</temp>
<bpm>0</bpm>
<rpm>0.00</rpm>
</extensions>
</trkpt>
<trkpt lat="30.652303696" lon="34.842838287">
<ele>762.468750</ele>
<time>2013-11-22T07:30:18Z</time>
<speed>1.720000</speed>
<extensions>
<speed>1.7</speed>
<temp>0.00</temp>
<bpm>0</bpm>
<rpm>0.00</rpm>
</extensions>
</trkpt>
<trkpt lat="30.652387619" lon="34.842830658">
<ele>762.406250</ele>
<time>2013-11-22T07:30:23Z</time>
<speed>1.680000</speed>
<extensions>
<speed>1.7</speed>
<temp>0.00</temp>
<bpm>0</bpm>
<rpm>0.00</rpm>
</extensions>
</trkpt>
<trkpt lat="30.652460098" lon="34.842853546">
<ele>764.515625</ele>
<time>2013-11-22T07:30:28Z</time>
<speed>1.340000</speed>
<extensions>
<speed>1.3</speed>
<temp>0.00</temp>
<bpm>0</bpm>
<rpm>0.00</rpm>
</extensions>
</trkpt>
<trkpt lat="30.652532578" lon="34.842849731">
<ele>763.609375</ele>
<time>2013-11-22T07:30:33Z</time>
<speed>1.560000</speed>
<extensions>
<speed>1.6</speed>
<temp>0.00</temp>
<bpm>0</bpm>
<rpm>0.00</rpm>
</extensions>
</trkpt>
<trkpt lat="30.652591705" lon="34.842826843">
<ele>764.421875</ele>
<time>2013-11-22T07:30:38Z</time>
<speed>1.610000</speed>
<extensions>
<speed>1.6</speed>
<temp>0.00</temp>
<bpm>0</bpm>
<rpm>0.00</rpm>
</extensions>
</trkpt>
<trkpt lat="30.652702332" lon="34.842842102">
<ele>767.296875</ele>
<time>2013-11-22T07:30:43Z</time>
<speed>2.810000</speed>
<extensions>
<speed>2.8</speed>
<temp>0.00</temp>
<bpm>0</bpm>
<rpm>0.00</rpm>
</extensions>
</trkpt>
<trkpt lat="30.652824402" lon="34.842887878">
<ele>768.734375</ele>
<time>2013-11-22T07:30:48Z</time>
<speed>3.370000</speed>
<extensions>
<speed>3.4</speed>
<temp>0.00</temp>
<bpm>0</bpm>
<rpm>0.00</rpm>
</extensions>
</trkpt>
<trkpt lat="30.652976990" lon="34.842914581">
<ele>768.734375</ele>
<time>2013-11-22T07:30:53Z</time>
<speed>4.260000</speed>
<extensions>
<speed>4.3</speed>
<temp>0.00</temp>
<bpm>0</bpm>
<rpm>0.00</rpm>
</extensions>
</trkpt>
<trkpt lat="30.653160095" lon="34.842891693">
<ele>769.312500</ele>
<time>2013-11-22T07:30:58Z</time>
<speed>3.230000</speed>
<extensions>
<speed>3.2</speed>
<temp>0.00</temp>
<bpm>0</bpm>
<rpm>0.00</rpm>
</extensions>
</trkpt>
<trkpt lat="30.653303146" lon="34.842868805">
<ele>769.406250</ele>
<time>2013-11-22T07:31:03Z</time>
<speed>2.820000</speed>
<extensions>
<speed>2.8</speed>
<temp>0.00</temp>
<bpm>0</bpm>
<rpm>0.00</rpm>
</extensions>
</trkpt>
<trkpt lat="30.653442383" lon="34.842857361">
<ele>769.296875</ele>
<time>2013-11-22T07:31:08Z</time>
<speed>3.620000</speed>
<extensions>
<speed>3.6</speed>
<temp>0.00</temp>
<bpm>0</bpm>
<rpm>0.00</rpm>
</extensions>
</trkpt>
<trkpt lat="30.653617859" lon="34.842872620">
<ele>768.578125</ele>
<time>2013-11-22T07:31:13Z</time>
<speed>3.710000</speed>
<extensions>
<speed>3.7</speed>
<temp>0.00</temp>
<bpm>0</bpm>
<rpm>0.00</rpm>
</extensions>
</trkpt>
<trkpt lat="30.653795242" lon="34.842887878">
<ele>769.000000</ele>
<time>2013-11-22T07:31:18Z</time>
<speed>4.410000</speed>
<extensions>
<speed>4.4</speed>
<temp>0.00</temp>
<bpm>0</bpm>
<rpm>0.00</rpm>
</extensions>
</trkpt>
<trkpt lat="30.654001236" lon="34.842983246">
<ele>764.890625</ele>
<time>2013-11-22T07:31:23Z</time>
<speed>3.990000</speed>
<extensions>
<speed>4.0</speed>
<temp>0.00</temp>
<bpm>0</bpm>
<rpm>0.00</rpm>
</extensions>
</trkpt>
<trkpt lat="30.654155731" lon="34.843070984">
<ele>762.390625</ele>
<time>2013-11-22T07:31:28Z</time>
<speed>2.070000</speed>
<extensions>
<speed>2.1</speed>
<temp>0.00</temp>
<bpm>0</bpm>
<rpm>0.00</rpm>
</extensions>
</trkpt>
<trkpt lat="30.654237747" lon="34.843120575">
<ele>763.625000</ele>
<time>2013-11-22T07:31:33Z</time>
<speed>1.740000</speed>
<extensions>
<speed>1.7</speed>
<temp>0.00</temp>
<bpm>0</bpm>
<rpm>0.00</rpm>
</extensions>
</trkpt>
<trkpt lat="30.654319763" lon="34.843158722">
<ele>761.703125</ele>
<time>2013-11-22T07:31:38Z</time>
<speed>1.850000</speed>
<extensions>
<speed>1.8</speed>
<temp>0.00</temp>
<bpm>0</bpm>
<rpm>0.00</rpm>
</extensions>
</trkpt>
<trkpt lat="30.654401779" lon="34.843235016">
<ele>757.968750</ele>
<time>2013-11-22T07:31:43Z</time>
<speed>2.350000</speed>
<extensions>
<speed>2.4</speed>
<temp>0.00</temp>
<bpm>0</bpm>
<rpm>0.00</rpm>
</extensions>
</trkpt>
<trkpt lat="30.654445648" lon="34.843410492">
<ele>757.484375</ele>
<time>2013-11-22T07:31:48Z</time>
<speed>4.010000</speed>
<extensions>
<speed>4.0</speed>
<temp>0.00</temp>
<bpm>0</bpm>
<rpm>0.00</rpm>
</extensions>
</trkpt>
<trkpt lat="30.654523849" lon="34.843570709">
<ele>756.453125</ele>
<time>2013-11-22T07:31:53Z</time>
<speed>3.290000</speed>
<extensions>
<speed>3.3</speed>
<temp>0.00</temp>
<bpm>0</bpm>
<rpm>0.00</rpm>
</extensions>
</trkpt>
<trkpt lat="30.654693604" lon="34.843673706">
<ele>755.765625</ele>
<time>2013-11-22T07:31:58Z</time>
<speed>2.380000</speed>
<extensions>
<speed>2.4</speed>
<temp>0.00</temp>
<bpm>0</bpm>
<rpm>0.00</rpm>
</extensions>
</trkpt>
<trkpt lat="30.654718399" lon="34.843681335">
<ele>760.484375</ele>
<time>2013-11-22T07:32:03Z</time>
<speed>0.010000</speed>
<extensions>
<speed>0.0</speed>
<temp>0.00</temp>
<bpm>0</bpm>
<rpm>0.00</rpm>
</extensions>
</trkpt>
<trkpt lat="30.654720306" lon="34.843681335">
<ele>760.453125</ele>
<time>2013-11-22T07:32:08Z</time>
<speed>0.040000</speed>
<extensions>
<speed>0.0</speed>
<temp>0.00</temp>
<bpm>0</bpm>
<rpm>0.00</rpm>
</extensions>
</trkpt>
<trkpt lat="30.654777527" lon="34.843658447">
<ele>760.781250</ele>
<time>2013-11-22T07:32:13Z</time>
<speed>2.710000</speed>
<extensions>
<speed>2.7</speed>
<temp>0.00</temp>
<bpm>0</bpm>
<rpm>0.00</rpm>
</extensions>
</trkpt>
<trkpt lat="30.654880524" lon="34.843727112">
<ele>759.406250</ele>
<time>2013-11-22T07:32:18Z</time>
<speed>2.170000</speed>
<extensions>
<speed>2.2</speed>
<temp>0.00</temp>
<bpm>0</bpm>
<rpm>0.00</rpm>
</extensions>
</trkpt>
<trkpt lat="30.654996872" lon="34.843753815">
<ele>756.312500</ele>
<time>2013-11-22T07:32:23Z</time>
<speed>4.490000</speed>
<extensions>
<speed>4.5</speed>
<temp>0.00</temp>
<bpm>0</bpm>
<rpm>0.00</rpm>
</extensions>
</trkpt>
<trkpt lat="30.655218124" lon="34.843738556">
<ele>753.515625</ele>
<time>2013-11-22T07:32:28Z</time>
<speed>3.920000</speed>
<extensions>
<speed>3.9</speed>
<temp>0.00</temp>
<bpm>0</bpm>
<rpm>0.00</rpm>
</extensions>
</trkpt>
<trkpt lat="30.655382156" lon="34.843784332">
<ele>751.734375</ele>
<time>2013-11-22T07:32:33Z</time>
<speed>3.900000</speed>
<extensions>
<speed>3.9</speed>
<temp>0.00</temp>
<bpm>0</bpm>
<rpm>0.00</rpm>
</extensions>
</trkpt>
<trkpt lat="30.655536652" lon="34.843772888">
<ele>750.375000</ele>
<time>2013-11-22T07:32:38Z</time>
<speed>4.150000</speed>
<extensions>
<speed>4.1</speed>
<temp>0.00</temp>
<bpm>0</bpm>
<rpm>0.00</rpm>
</extensions>
</trkpt>
<trkpt lat="30.655771255" lon="34.843750000">
<ele>747.578125</ele>
<time>2013-11-22T07:32:43Z</time>
<speed>5.320000</speed>
<extensions>
<speed>5.3</speed>
<temp>0.00</temp>
<bpm>0</bpm>
<rpm>0.00</rpm>
</extensions>
</trkpt>
<trkpt lat="30.655961990" lon="34.843727112">
<ele>745.328125</ele>
<time>2013-11-22T07:32:48Z</time>
<speed>3.390000</speed>
<extensions>
<speed>3.4</speed>
<temp>0.00</temp>
<bpm>0</bpm>
<rpm>0.00</rpm>
</extensions>
</trkpt>
<trkpt lat="30.656127930" lon="34.843772888">
<ele>744.812500</ele>
<time>2013-11-22T07:32:53Z</time>
<speed>4.230000</speed>
<extensions>
<speed>4.2</speed>
<temp>0.00</temp>
<bpm>0</bpm>
<rpm>0.00</rpm>
</extensions>
</trkpt>
<trkpt lat="30.656297684" lon="34.843887329">
<ele>742.843750</ele>
<time>2013-11-22T07:32:58Z</time>
<speed>5.540000</speed>
<extensions>
<speed>5.5</speed>
<temp>0.00</temp>
<bpm>0</bpm>
<rpm>0.00</rpm>
</extensions>
</trkpt>
<trkpt lat="30.656515121" lon="34.844036102">
<ele>742.812500</ele>
<time>2013-11-22T07:33:03Z</time>
<speed>5.400000</speed>
<extensions>
<speed>5.4</speed>
<temp>0.00</temp>
<bpm>0</bpm>
<rpm>0.00</rpm>
</extensions>
</trkpt>
<trkpt lat="30.656721115" lon="34.844234467">
<ele>737.687500</ele>
<time>2013-11-22T07:33:08Z</time>
<speed>5.700000</speed>
<extensions>
<speed>5.7</speed>
<temp>0.00</temp>
<bpm>0</bpm>
<rpm>0.00</rpm>
</extensions>
</trkpt>
<trkpt lat="30.656864166" lon="34.844448090">
<ele>738.500000</ele>
<time>2013-11-22T07:33:13Z</time>
<speed>4.850000</speed>
<extensions>
<speed>4.8</speed>
<temp>0.00</temp>
<bpm>0</bpm>
<rpm>0.00</rpm>
</extensions>
</trkpt>
<trkpt lat="30.656986237" lon="34.844669342">
<ele>737.187500</ele>
<time>2013-11-22T07:33:18Z</time>
<speed>4.940000</speed>
<extensions>
<speed>4.9</speed>
<temp>0.00</temp>
<bpm>0</bpm>
<rpm>0.00</rpm>
</extensions>
</trkpt>
<trkpt lat="30.657083511" lon="34.844894409">
<ele>735.687500</ele>
<time>2013-11-22T07:33:23Z</time>
<speed>4.070000</speed>
<extensions>
<speed>4.1</speed>
<temp>0.00</temp>
<bpm>0</bpm>
<rpm>0.00</rpm>
</extensions>
</trkpt>
<trkpt lat="30.657178879" lon="34.845031738">
<ele>733.828125</ele>
<time>2013-11-22T07:33:28Z</time>
<speed>2.140000</speed>
<extensions>
<speed>2.1</speed>
<temp>0.00</temp>
<bpm>0</bpm>
<rpm>0.00</rpm>
</extensions>
</trkpt>
<trkpt lat="30.657194138" lon="34.845035553">
<ele>734.593750</ele>
<time>2013-11-22T07:33:33Z</time>
<speed>0.050000</speed>
<extensions>
<speed>0.1</speed>
<temp>0.00</temp>
<bpm>0</bpm>
<rpm>0.00</rpm>
</extensions>
</trkpt>
<trkpt lat="30.657194138" lon="34.845035553">
<ele>734.421875</ele>
<time>2013-11-22T07:33:38Z</time>
<speed>0.090000</speed>
<extensions>
<speed>0.1</speed>
<temp>0.00</temp>
<bpm>0</bpm>
<rpm>0.00</rpm>
</extensions>
</trkpt>
<trkpt lat="30.657194138" lon="34.845035553">
<ele>734.437500</ele>
<time>2013-11-22T07:33:43Z</time>
<speed>0.040000</speed>
<extensions>
<speed>0.0</speed>
<temp>0.00</temp>
<bpm>0</bpm>
<rpm>0.00</rpm>
</extensions>
</trkpt>
<trkpt lat="30.657194138" lon="34.845035553">
<ele>734.484375</ele>
<time>2013-11-22T07:33:48Z</time>
<extensions>
<speed>0.0</speed>
<temp>0.00</temp>
<bpm>0</bpm>
<rpm>0.00</rpm>
</extensions>
</trkpt>
<trkpt lat="30.657194138" lon="34.845035553">
<ele>734.515625</ele>
<time>2013-11-22T07:33:53Z</time>
<speed>0.010000</speed>
<extensions>
<speed>0.0</speed>
<temp>0.00</temp>
<bpm>0</bpm>
<rpm>0.00</rpm>
</extensions>
</trkpt>
<trkpt lat="30.657194138" lon="34.845035553">
<ele>734.546875</ele>
<time>2013-11-22T07:33:58Z</time>
<extensions>
<speed>0.0</speed>
<temp>0.00</temp>
<bpm>0</bpm>
<rpm>0.00</rpm>
</extensions>
</trkpt>
<trkpt lat="30.657194138" lon="34.845031738">
<ele>734.578125</ele>
<time>2013-11-22T07:34:03Z</time>
<speed>0.010000</speed>
<extensions>
<speed>0.0</speed>
<temp>0.00</temp>
<bpm>0</bpm>
<rpm>0.00</rpm>
</extensions>
</trkpt>
<trkpt lat="30.657194138" lon="34.845031738">
<ele>734.593750</ele>
<time>2013-11-22T07:34:08Z</time>
<speed>0.020000</speed>
<extensions>
<speed>0.0</speed>
<temp>0.00</temp>
<bpm>0</bpm>
<rpm>0.00</rpm>
</extensions>
</trkpt>
<trkpt lat="30.657194138" lon="34.845031738">
<ele>734.593750</ele>
<time>2013-11-22T07:34:13Z</time>
<extensions>
<speed>0.0</speed>
<temp>0.00</temp>
<bpm>0</bpm>
<rpm>0.00</rpm>
</extensions>
</trkpt>
<trkpt lat="30.657194138" lon="34.845031738">
<ele>734.609375</ele>
<time>2013-11-22T07:34:18Z</time>
<speed>0.010000</speed>
<extensions>
<speed>0.0</speed>
<temp>0.00</temp>
<bpm>0</bpm>
<rpm>0.00</rpm>
</extensions>
</trkpt>
<trkpt lat="30.657194138" lon="34.845031738">
<ele>734.609375</ele>
<time>2013-11-22T07:34:23Z</time>
<extensions>
<speed>0.0</speed>
<temp>0.00</temp>
<bpm>0</bpm>
<rpm>0.00</rpm>
</extensions>
</trkpt>
<trkpt lat="30.657194138" lon="34.845031738">
<ele>734.640625</ele>
<time>2013-11-22T07:34:28Z</time>
<extensions>
<speed>0.0</speed>
<temp>0.00</temp>
<bpm>0</bpm>
<rpm>0.00</rpm>
</extensions>
</trkpt>
<trkpt lat="30.657194138" lon="34.845031738">
<ele>734.687500</ele>
<time>2013-11-22T07:34:33Z</time>
<speed>0.020000</speed>
<extensions>
<speed>0.0</speed>
<temp>0.00</temp>
<bpm>0</bpm>
<rpm>0.00</rpm>
</extensions>
</trkpt>
<trkpt lat="30.657194138" lon="34.845031738">
<ele>734.703125</ele>
<time>2013-11-22T07:34:38Z</time>
<speed>0.010000</speed>
<extensions>
<speed>0.0</speed>
<temp>0.00</temp>
<bpm>0</bpm>
<rpm>0.00</rpm>
</extensions>
</trkpt>
<trkpt lat="30.657194138" lon="34.845031738">
<ele>734.734375</ele>
<time>2013-11-22T07:34:43Z</time>
<extensions>
<speed>0.0</speed>
<temp>0.00</temp>
<bpm>0</bpm>
<rpm>0.00</rpm>
</extensions>
</trkpt>
<trkpt lat="30.657194138" lon="34.845031738">
<ele>734.750000</ele>
<time>2013-11-22T07:34:48Z</time>
<speed>0.020000</speed>
<extensions>
<speed>0.0</speed>
<temp>0.00</temp>
<bpm>0</bpm>
<rpm>0.00</rpm>
</extensions>
</trkpt>
<trkpt lat="30.657194138" lon="34.845031738">
<ele>734.750000</ele>
<time>2013-11-22T07:34:53Z</time>
<speed>0.010000</speed>
<extensions>
<speed>0.0</speed>
<temp>0.00</temp>
<bpm>0</bpm>
<rpm>0.00</rpm>
</extensions>
</trkpt>
<trkpt lat="30.657194138" lon="34.845031738">
<ele>734.750000</ele>
<time>2013-11-22T07:34:58Z</time>
<speed>0.020000</speed>
<extensions>
<speed>0.0</speed>
<temp>0.00</temp>
<bpm>0</bpm>
<rpm>0.00</rpm>
</extensions>
</trkpt>
<trkpt lat="30.657197952" lon="34.845046997">
<ele>735.718750</ele>
<time>2013-11-22T07:35:03Z</time>
<speed>1.600000</speed>
<extensions>
<speed>1.6</speed>
<temp>0.00</temp>
<bpm>0</bpm>
<rpm>0.00</rpm>
</extensions>
</trkpt>
<trkpt lat="30.657308578" lon="34.845172882">
<ele>735.609375</ele>
<time>2013-11-22T07:35:08Z</time>
<speed>4.960000</speed>
<extensions>
<speed>5.0</speed>
<temp>0.00</temp>
<bpm>0</bpm>
<rpm>0.00</rpm>
</extensions>
</trkpt>
<trkpt lat="30.657520294" lon="34.845260620">
<ele>734.781250</ele>
<time>2013-11-22T07:35:13Z</time>
<speed>5.760000</speed>
<extensions>
<speed>5.8</speed>
<temp>0.00</temp>
<bpm>0</bpm>
<rpm>0.00</rpm>
</extensions>
</trkpt>
<trkpt lat="30.657712936" lon="34.845405579">
<ele>733.000000</ele>
<time>2013-11-22T07:35:18Z</time>
<speed>4.430000</speed>
<extensions>
<speed>4.4</speed>
<temp>0.00</temp>
<bpm>0</bpm>
<rpm>0.00</rpm>
</extensions>
</trkpt>
<trkpt lat="30.657878876" lon="34.845531464">
<ele>734.078125</ele>
<time>2013-11-22T07:35:23Z</time>
<speed>4.520000</speed>
<extensions>
<speed>4.5</speed>
<temp>0.00</temp>
<bpm>0</bpm>
<rpm>0.00</rpm>
</extensions>
</trkpt>
<trkpt lat="30.658035278" lon="34.845672607">
<ele>733.484375</ele>
<time>2013-11-22T07:35:28Z</time>
<speed>4.190000</speed>
<extensions>
<speed>4.2</speed>
<temp>0.00</temp>
<bpm>0</bpm>
<rpm>0.00</rpm>
</extensions>
</trkpt>
<trkpt lat="30.658191681" lon="34.845813751">
<ele>731.968750</ele>
<time>2013-11-22T07:35:33Z</time>
<speed>3.910000</speed>
<extensions>
<speed>3.9</speed>
<temp>0.00</temp>
<bpm>0</bpm>
<rpm>0.00</rpm>
</extensions>
</trkpt>
<trkpt lat="30.658344269" lon="34.845951080">
<ele>731.406250</ele>
<time>2013-11-22T07:35:38Z</time>
<speed>4.430000</speed>
<extensions>
<speed>4.4</speed>
<temp>0.00</temp>
<bpm>0</bpm>
<rpm>0.00</rpm>
</extensions>
</trkpt>
<trkpt lat="30.658521652" lon="34.846073151">
<ele>731.484375</ele>
<time>2013-11-22T07:35:43Z</time>
<speed>4.380000</speed>
<extensions>
<speed>4.4</speed>
<temp>0.00</temp>
<bpm>0</bpm>
<rpm>0.00</rpm>
</extensions>
</trkpt>
<trkpt lat="30.658672333" lon="34.846153259">
<ele>732.671875</ele>
<time>2013-11-22T07:35:48Z</time>
<speed>3.020000</speed>
<extensions>
<speed>3.0</speed>
<temp>0.00</temp>
<bpm>0</bpm>
<rpm>0.00</rpm>
</extensions>
</trkpt>
<trkpt lat="30.658771515" lon="34.846218109">
<ele>732.203125</ele>
<time>2013-11-22T07:35:53Z</time>
<speed>2.810000</speed>
<extensions>
<speed>2.8</speed>
<temp>0.00</temp>
<bpm>0</bpm>
<rpm>0.00</rpm>
</extensions>
</trkpt>
<trkpt lat="30.658880234" lon="34.846336365">
<ele>732.718750</ele>
<time>2013-11-22T07:35:58Z</time>
<speed>3.440000</speed>
<extensions>
<speed>3.4</speed>
<temp>0.00</temp>
<bpm>0</bpm>
<rpm>0.00</rpm>
</extensions>
</trkpt>
<trkpt lat="30.659032822" lon="34.846527100">
<ele>731.984375</ele>
<time>2013-11-22T07:36:03Z</time>
<speed>5.130000</speed>
<extensions>
<speed>5.1</speed>
<temp>0.00</temp>
<bpm>0</bpm>
<rpm>0.00</rpm>
</extensions>
</trkpt>
<trkpt lat="30.659166336" lon="34.846694946">
<ele>733.015625</ele>
<time>2013-11-22T07:36:08Z</time>
<speed>3.740000</speed>
<extensions>
<speed>3.7</speed>
<temp>0.00</temp>
<bpm>0</bpm>
<rpm>0.00</rpm>
</extensions>
</trkpt>
<trkpt lat="30.659265518" lon="34.846832275">
<ele>732.390625</ele>
<time>2013-11-22T07:36:13Z</time>
<speed>3.560000</speed>
<extensions>
<speed>3.6</speed>
<temp>0.00</temp>
<bpm>0</bpm>
<rpm>0.00</rpm>
</extensions>
</trkpt>
<trkpt lat="30.659421921" lon="34.846939087">
<ele>730.781250</ele>
<time>2013-11-22T07:36:18Z</time>
<speed>4.290000</speed>
<extensions>
<speed>4.3</speed>
<temp>0.00</temp>
<bpm>0</bpm>
<rpm>0.00</rpm>
</extensions>
</trkpt>
<trkpt lat="30.659595490" lon="34.847026825">
<ele>730.703125</ele>
<time>2013-11-22T07:36:23Z</time>
<speed>4.070000</speed>
<extensions>
<speed>4.1</speed>
<temp>0.00</temp>
<bpm>0</bpm>
<rpm>0.00</rpm>
</extensions>
</trkpt>
<trkpt lat="30.659778595" lon="34.847057343">
<ele>730.296875</ele>
<time>2013-11-22T07:36:28Z</time>
<speed>4.180000</speed>
<extensions>
<speed>4.2</speed>
<temp>0.00</temp>
<bpm>0</bpm>
<rpm>0.00</rpm>
</extensions>
</trkpt>
<trkpt lat="30.659959793" lon="34.847114563">
<ele>730.796875</ele>
<time>2013-11-22T07:36:33Z</time>
<speed>4.800000</speed>
<extensions>
<speed>4.8</speed>
<temp>0.00</temp>
<bpm>0</bpm>
<rpm>0.00</rpm>
</extensions>
</trkpt>
<trkpt lat="30.660217285" lon="34.847156525">
<ele>732.125000</ele>
<time>2013-11-22T07:36:38Z</time>
<speed>6.440000</speed>
<extensions>
<speed>6.4</speed>
<temp>0.00</temp>
<bpm>0</bpm>
<rpm>0.00</rpm>
</extensions>
</trkpt>
<trkpt lat="30.660472870" lon="34.847267151">
<ele>733.375000</ele>
<time>2013-11-22T07:36:43Z</time>
<speed>5.650000</speed>
<extensions>
<speed>5.7</speed>
<temp>0.00</temp>
<bpm>0</bpm>
<rpm>0.00</rpm>
</extensions>
</trkpt>
<trkpt lat="30.660701752" lon="34.847297668">
<ele>727.406250</ele>
<time>2013-11-22T07:36:48Z</time>
<speed>4.550000</speed>
<extensions>
<speed>4.5</speed>
<temp>0.00</temp>
<bpm>0</bpm>
<rpm>0.00</rpm>
</extensions>
</trkpt>
<trkpt lat="30.660907745" lon="34.847339630">
<ele>729.828125</ele>
<time>2013-11-22T07:36:53Z</time>
<speed>4.750000</speed>
<extensions>
<speed>4.8</speed>
<temp>0.00</temp>
<bpm>0</bpm>
<rpm>0.00</rpm>
</extensions>
</trkpt>
<trkpt lat="30.661111832" lon="34.847324371">
<ele>735.390625</ele>
<time>2013-11-22T07:36:58Z</time>
<speed>4.330000</speed>
<extensions>
<speed>4.3</speed>
<temp>0.00</temp>
<bpm>0</bpm>
<rpm>0.00</rpm>
</extensions>
</trkpt>
<trkpt lat="30.661294937" lon="34.847221375">
<ele>738.234375</ele>
<time>2013-11-22T07:37:03Z</time>
<speed>4.280000</speed>
<extensions>
<speed>4.3</speed>
<temp>0.00</temp>
<bpm>0</bpm>
<rpm>0.00</rpm>
</extensions>
</trkpt>
<trkpt lat="30.661479950" lon="34.847129822">
<ele>742.000000</ele>
<time>2013-11-22T07:37:08Z</time>
<speed>4.390000</speed>
<extensions>
<speed>4.4</speed>
<temp>0.00</temp>
<bpm>0</bpm>
<rpm>0.00</rpm>
</extensions>
</trkpt>
<trkpt lat="30.661678314" lon="34.847080231">
<ele>741.484375</ele>
<time>2013-11-22T07:37:13Z</time>
<speed>3.880000</speed>
<extensions>
<speed>3.9</speed>
<temp>0.00</temp>
<bpm>0</bpm>
<rpm>0.00</rpm>
</extensions>
</trkpt>
<trkpt lat="30.661844254" lon="34.847076416">
<ele>739.343750</ele>
<time>2013-11-22T07:37:18Z</time>
<speed>4.170000</speed>
<extensions>
<speed>4.2</speed>
<temp>0.00</temp>
<bpm>0</bpm>
<rpm>0.00</rpm>
</extensions>
</trkpt>
<trkpt lat="30.662019730" lon="34.847110748">
<ele>735.421875</ele>
<time>2013-11-22T07:37:23Z</time>
<speed>3.830000</speed>
<extensions>
<speed>3.8</speed>
<temp>0.00</temp>
<bpm>0</bpm>
<rpm>0.00</rpm>
</extensions>
</trkpt>
<trkpt lat="30.662174225" lon="34.847145081">
<ele>733.218750</ele>
<time>2013-11-22T07:37:28Z</time>
<speed>2.780000</speed>
<extensions>
<speed>2.8</speed>
<temp>0.00</temp>
<bpm>0</bpm>
<rpm>0.00</rpm>
</extensions>
</trkpt>
<trkpt lat="30.662281036" lon="34.847187042">
<ele>731.750000</ele>
<time>2013-11-22T07:37:33Z</time>
<speed>1.840000</speed>
<extensions>
<speed>1.8</speed>
<temp>0.00</temp>
<bpm>0</bpm>
<rpm>0.00</rpm>
</extensions>
</trkpt>
<trkpt lat="30.662336349" lon="34.847217560">
<ele>729.484375</ele>
<time>2013-11-22T07:37:38Z</time>
<speed>1.740000</speed>
<extensions>
<speed>1.7</speed>
<temp>0.00</temp>
<bpm>0</bpm>
<rpm>0.00</rpm>
</extensions>
</trkpt>
<trkpt lat="30.662427902" lon="34.847244263">
<ele>729.625000</ele>
<time>2013-11-22T07:37:43Z</time>
<speed>1.860000</speed>
<extensions>
<speed>1.9</speed>
<temp>0.00</temp>
<bpm>0</bpm>
<rpm>0.00</rpm>
</extensions>
</trkpt>
<trkpt lat="30.662500381" lon="34.847286224">
<ele>728.078125</ele>
<time>2013-11-22T07:37:48Z</time>
<speed>1.700000</speed>
<extensions>
<speed>1.7</speed>
<temp>0.00</temp>
<bpm>0</bpm>
<rpm>0.00</rpm>
</extensions>
</trkpt>
<trkpt lat="30.662553787" lon="34.847373962">
<ele>727.500000</ele>
<time>2013-11-22T07:37:53Z</time>
<speed>2.020000</speed>
<extensions>
<speed>2.0</speed>
<temp>0.00</temp>
<bpm>0</bpm>
<rpm>0.00</rpm>
</extensions>
</trkpt>
<trkpt lat="30.662544250" lon="34.847503662">
<ele>728.062500</ele>
<time>2013-11-22T07:37:58Z</time>
<speed>2.450000</speed>
<extensions>
<speed>2.4</speed>
<temp>0.00</temp>
<bpm>0</bpm>
<rpm>0.00</rpm>
</extensions>
</trkpt>
<trkpt lat="30.662492752" lon="34.847614288">
<ele>729.406250</ele>
<time>2013-11-22T07:38:03Z</time>
<speed>2.760000</speed>
<extensions>
<speed>2.8</speed>
<temp>0.00</temp>
<bpm>0</bpm>
<rpm>0.00</rpm>
</extensions>
</trkpt>
<trkpt lat="30.662521362" lon="34.847747803">
<ele>731.234375</ele>
<time>2013-11-22T07:38:08Z</time>
<speed>3.110000</speed>
<extensions>
<speed>3.1</speed>
<temp>0.00</temp>
<bpm>0</bpm>
<rpm>0.00</rpm>
</extensions>
</trkpt>
<trkpt lat="30.662517548" lon="34.847892761">
<ele>731.000000</ele>
<time>2013-11-22T07:38:13Z</time>
<speed>2.930000</speed>
<extensions>
<speed>2.9</speed>
<temp>0.00</temp>
<bpm>0</bpm>
<rpm>0.00</rpm>
</extensions>
</trkpt>
<trkpt lat="30.662469864" lon="34.848037720">
<ele>731.109375</ele>
<time>2013-11-22T07:38:18Z</time>
<speed>2.220000</speed>
<extensions>
<speed>2.2</speed>
<temp>0.00</temp>
<bpm>0</bpm>
<rpm>0.00</rpm>
</extensions>
</trkpt>
<trkpt lat="30.662452698" lon="34.848060608">
<ele>729.781250</ele>
<time>2013-11-22T07:38:23Z</time>
<speed>0.040000</speed>
<extensions>
<speed>0.0</speed>
<temp>0.00</temp>
<bpm>0</bpm>
<rpm>0.00</rpm>
</extensions>
</trkpt>
<trkpt lat="30.662450790" lon="34.848060608">
<ele>729.656250</ele>
<time>2013-11-22T07:38:28Z</time>
<speed>0.050000</speed>
<extensions>
<speed>0.1</speed>
<temp>0.00</temp>
<bpm>0</bpm>
<rpm>0.00</rpm>
</extensions>
</trkpt>
<trkpt lat="30.662450790" lon="34.848060608">
<ele>729.640625</ele>
<time>2013-11-22T07:38:33Z</time>
<speed>0.080000</speed>
<extensions>
<speed>0.1</speed>
<temp>0.00</temp>
<bpm>0</bpm>
<rpm>0.00</rpm>
</extensions>
</trkpt>
<trkpt lat="30.662448883" lon="34.848064423">
<ele>729.593750</ele>
<time>2013-11-22T07:38:38Z</time>
<speed>0.060000</speed>
<extensions>
<speed>0.1</speed>
<temp>0.00</temp>
<bpm>0</bpm>
<rpm>0.00</rpm>
</extensions>
</trkpt>
<trkpt lat="30.662448883" lon="34.848064423">
<ele>729.531250</ele>
<time>2013-11-22T07:38:43Z</time>
<speed>0.070000</speed>
<extensions>
<speed>0.1</speed>
<temp>0.00</temp>
<bpm>0</bpm>
<rpm>0.00</rpm>
</extensions>
</trkpt>
<trkpt lat="30.662450790" lon="34.848068237">
<ele>729.484375</ele>
<time>2013-11-22T07:38:48Z</time>
<speed>0.790000</speed>
<extensions>
<speed>0.8</speed>
<temp>0.00</temp>
<bpm>0</bpm>
<rpm>0.00</rpm>
</extensions>
</trkpt>
<trkpt lat="30.662427902" lon="34.848159790">
<ele>730.468750</ele>
<time>2013-11-22T07:38:53Z</time>
<speed>1.660000</speed>
<extensions>
<speed>1.7</speed>
<temp>0.00</temp>
<bpm>0</bpm>
<rpm>0.00</rpm>
</extensions>
</trkpt>
<trkpt lat="30.662374496" lon="34.848243713">
<ele>733.546875</ele>
<time>2013-11-22T07:38:58Z</time>
<speed>2.320000</speed>
<extensions>
<speed>2.3</speed>
<temp>0.00</temp>
<bpm>0</bpm>
<rpm>0.00</rpm>
</extensions>
</trkpt>
<trkpt lat="30.662298203" lon="34.848304749">
<ele>734.250000</ele>
<time>2013-11-22T07:39:03Z</time>
<speed>2.000000</speed>
<extensions>
<speed>2.0</speed>
<temp>0.00</temp>
<bpm>0</bpm>
<rpm>0.00</rpm>
</extensions>
</trkpt>
<trkpt lat="30.662298203" lon="34.848430634">
<ele>733.359375</ele>
<time>2013-11-22T07:39:08Z</time>
<speed>2.410000</speed>
<extensions>
<speed>2.4</speed>
<temp>0.00</temp>
<bpm>0</bpm>
<rpm>0.00</rpm>
</extensions>
</trkpt>
<trkpt lat="30.662305832" lon="34.848579407">
<ele>733.625000</ele>
<time>2013-11-22T07:39:13Z</time>
<speed>3.260000</speed>
<extensions>
<speed>3.3</speed>
<temp>0.00</temp>
<bpm>0</bpm>
<rpm>0.00</rpm>
</extensions>
</trkpt>
<trkpt lat="30.662269592" lon="34.848720551">
<ele>734.390625</ele>
<time>2013-11-22T07:39:18Z</time>
<speed>2.070000</speed>
<extensions>
<speed>2.1</speed>
<temp>0.00</temp>
<bpm>0</bpm>
<rpm>0.00</rpm>
</extensions>
</trkpt>
<trkpt lat="30.662235260" lon="34.848861694">
<ele>737.031250</ele>
<time>2013-11-22T07:39:23Z</time>
<speed>3.500000</speed>
<extensions>
<speed>3.5</speed>
<temp>0.00</temp>
<bpm>0</bpm>
<rpm>0.00</rpm>
</extensions>
</trkpt>
<trkpt lat="30.662153244" lon="34.849006653">
<ele>737.453125</ele>
<time>2013-11-22T07:39:28Z</time>
<speed>2.130000</speed>
<extensions>
<speed>2.1</speed>
<temp>0.00</temp>
<bpm>0</bpm>
<rpm>0.00</rpm>
</extensions>
</trkpt>
<trkpt lat="30.662204742" lon="34.849094391">
<ele>737.843750</ele>
<time>2013-11-22T07:39:33Z</time>
<speed>1.810000</speed>
<extensions>
<speed>1.8</speed>
<temp>0.00</temp>
<bpm>0</bpm>
<rpm>0.00</rpm>
</extensions>
</trkpt>
<trkpt lat="30.662189484" lon="34.849193573">
<ele>738.562500</ele>
<time>2013-11-22T07:39:38Z</time>
<speed>2.360000</speed>
<extensions>
<speed>2.4</speed>
<temp>0.00</temp>
<bpm>0</bpm>
<rpm>0.00</rpm>
</extensions>
</trkpt>
<trkpt lat="30.662078857" lon="34.849296570">
<ele>740.046875</ele>
<time>2013-11-22T07:39:43Z</time>
<speed>3.120000</speed>
<extensions>
<speed>3.1</speed>
<temp>0.00</temp>
<bpm>0</bpm>
<rpm>0.00</rpm>
</extensions>
</trkpt>
<trkpt lat="30.661981583" lon="34.849399567">
<ele>741.421875</ele>
<time>2013-11-22T07:39:48Z</time>
<speed>2.190000</speed>
<extensions>
<speed>2.2</speed>
<temp>0.00</temp>
<bpm>0</bpm>
<rpm>0.00</rpm>
</extensions>
</trkpt>
<trkpt lat="30.662027359" lon="34.849521637">
<ele>741.296875</ele>
<time>2013-11-22T07:39:53Z</time>
<speed>2.650000</speed>
<extensions>
<speed>2.6</speed>
<temp>0.00</temp>
<bpm>0</bpm>
<rpm>0.00</rpm>
</extensions>
</trkpt>
<trkpt lat="30.662061691" lon="34.849662781">
<ele>741.828125</ele>
<time>2013-11-22T07:39:58Z</time>
<speed>2.950000</speed>
<extensions>
<speed>2.9</speed>
<temp>0.00</temp>
<bpm>0</bpm>
<rpm>0.00</rpm>
</extensions>
</trkpt>
<trkpt lat="30.661996841" lon="34.849773407">
<ele>742.718750</ele>
<time>2013-11-22T07:40:03Z</time>
<speed>2.550000</speed>
<extensions>
<speed>2.6</speed>
<temp>0.00</temp>
<bpm>0</bpm>
<rpm>0.00</rpm>
</extensions>
</trkpt>
<trkpt lat="30.661897659" lon="34.849884033">
<ele>741.250000</ele>
<time>2013-11-22T07:40:08Z</time>
<speed>3.090000</speed>
<extensions>
<speed>3.1</speed>
<temp>0.00</temp>
<bpm>0</bpm>
<rpm>0.00</rpm>
</extensions>
</trkpt>
<trkpt lat="30.661874771" lon="34.850044250">
<ele>738.968750</ele>
<time>2013-11-22T07:40:13Z</time>
<speed>3.500000</speed>
<extensions>
<speed>3.5</speed>
<temp>0.00</temp>
<bpm>0</bpm>
<rpm>0.00</rpm>
</extensions>
</trkpt>
<trkpt lat="30.661838531" lon="34.850185394">
<ele>740.468750</ele>
<time>2013-11-22T07:40:18Z</time>
<speed>2.220000</speed>
<extensions>
<speed>2.2</speed>
<temp>0.00</temp>
<bpm>0</bpm>
<rpm>0.00</rpm>
</extensions>
</trkpt>
<trkpt lat="30.661754608" lon="34.850242615">
<ele>738.859375</ele>
<time>2013-11-22T07:40:23Z</time>
<speed>2.350000</speed>
<extensions>
<speed>2.4</speed>
<temp>0.00</temp>
<bpm>0</bpm>
<rpm>0.00</rpm>
</extensions>
</trkpt>
<trkpt lat="30.661670685" lon="34.850326538">
<ele>739.156250</ele>
<time>2013-11-22T07:40:28Z</time>
<speed>2.910000</speed>
<extensions>
<speed>2.9</speed>
<temp>0.00</temp>
<bpm>0</bpm>
<rpm>0.00</rpm>
</extensions>
</trkpt>
<trkpt lat="30.661643982" lon="34.850448608">
<ele>738.843750</ele>
<time>2013-11-22T07:40:33Z</time>
<speed>2.310000</speed>
<extensions>
<speed>2.3</speed>
<temp>0.00</temp>
<bpm>0</bpm>
<rpm>0.00</rpm>
</extensions>
</trkpt>
<trkpt lat="30.661544800" lon="34.850532532">
<ele>736.468750</ele>
<time>2013-11-22T07:40:38Z</time>
<speed>3.820000</speed>
<extensions>
<speed>3.8</speed>
<temp>0.00</temp>
<bpm>0</bpm>
<rpm>0.00</rpm>
</extensions>
</trkpt>
<trkpt lat="30.661436081" lon="34.850589752">
<ele>736.421875</ele>
<time>2013-11-22T07:40:43Z</time>
<speed>1.410000</speed>
<extensions>
<speed>1.4</speed>
<temp>0.00</temp>
<bpm>0</bpm>
<rpm>0.00</rpm>
</extensions>
</trkpt>
<trkpt lat="30.661436081" lon="34.850605011">
<ele>736.203125</ele>
<time>2013-11-22T07:40:48Z</time>
<speed>0.050000</speed>
<extensions>
<speed>0.1</speed>
<temp>0.00</temp>
<bpm>0</bpm>
<rpm>0.00</rpm>
</extensions>
</trkpt>
<trkpt lat="30.661436081" lon="34.850605011">
<ele>736.203125</ele>
<time>2013-11-22T07:40:53Z</time>
<speed>0.030000</speed>
<extensions>
<speed>0.0</speed>
<temp>0.00</temp>
<bpm>0</bpm>
<rpm>0.00</rpm>
</extensions>
</trkpt>
<trkpt lat="30.661436081" lon="34.850601196">
<ele>736.203125</ele>
<time>2013-11-22T07:40:58Z</time>
<speed>0.060000</speed>
<extensions>
<speed>0.1</speed>
<temp>0.00</temp>
<bpm>0</bpm>
<rpm>0.00</rpm>
</extensions>
</trkpt>
<trkpt lat="30.661434174" lon="34.850605011">
<ele>736.187500</ele>
<time>2013-11-22T07:41:03Z</time>
<speed>0.020000</speed>
<extensions>
<speed>0.0</speed>
<temp>0.00</temp>
<bpm>0</bpm>
<rpm>0.00</rpm>
</extensions>
</trkpt>
<trkpt lat="30.661432266" lon="34.850612640">
<ele>736.171875</ele>
<time>2013-11-22T07:41:08Z</time>
<speed>1.790000</speed>
<extensions>
<speed>1.8</speed>
<temp>0.00</temp>
<bpm>0</bpm>
<rpm>0.00</rpm>
</extensions>
</trkpt>
<trkpt lat="30.661437988" lon="34.850780487">
<ele>736.656250</ele>
<time>2013-11-22T07:41:13Z</time>
<speed>2.660000</speed>
<extensions>
<speed>2.7</speed>
<temp>0.00</temp>
<bpm>0</bpm>
<rpm>0.00</rpm>
</extensions>
</trkpt>
<trkpt lat="30.661460876" lon="34.850887299">
<ele>736.718750</ele>
<time>2013-11-22T07:41:18Z</time>
<speed>1.470000</speed>
<extensions>
<speed>1.5</speed>
<temp>0.00</temp>
<bpm>0</bpm>
<rpm>0.00</rpm>
</extensions>
</trkpt>
<trkpt lat="30.661466599" lon="34.850906372">
<ele>737.390625</ele>
<time>2013-11-22T07:41:23Z</time>
<speed>0.730000</speed>
<extensions>
<speed>0.7</speed>
<temp>0.00</temp>
<bpm>0</bpm>
<rpm>0.00</rpm>
</extensions>
</trkpt>
<trkpt lat="30.661443710" lon="34.850990295">
<ele>738.406250</ele>
<time>2013-11-22T07:41:28Z</time>
<speed>2.490000</speed>
<extensions>
<speed>2.5</speed>
<temp>0.00</temp>
<bpm>0</bpm>
<rpm>0.00</rpm>
</extensions>
</trkpt>
<trkpt lat="30.661396027" lon="34.851139069">
<ele>739.968750</ele>
<time>2013-11-22T07:41:33Z</time>
<speed>3.730000</speed>
<extensions>
<speed>3.7</speed>
<temp>0.00</temp>
<bpm>0</bpm>
<rpm>0.00</rpm>
</extensions>
</trkpt>
<trkpt lat="30.661300659" lon="34.851341248">
<ele>741.671875</ele>
<time>2013-11-22T07:41:38Z</time>
<speed>4.410000</speed>
<extensions>
<speed>4.4</speed>
<temp>0.00</temp>
<bpm>0</bpm>
<rpm>0.00</rpm>
</extensions>
</trkpt>
<trkpt lat="30.661233902" lon="34.851539612">
<ele>742.421875</ele>
<time>2013-11-22T07:41:43Z</time>
<speed>3.770000</speed>
<extensions>
<speed>3.8</speed>
<temp>0.00</temp>
<bpm>0</bpm>
<rpm>0.00</rpm>
</extensions>
</trkpt>
<trkpt lat="30.661153793" lon="34.851711273">
<ele>744.421875</ele>
<time>2013-11-22T07:41:48Z</time>
<speed>3.710000</speed>
<extensions>
<speed>3.7</speed>
<temp>0.00</temp>
<bpm>0</bpm>
<rpm>0.00</rpm>
</extensions>
</trkpt>
<trkpt lat="30.661146164" lon="34.852012634">
<ele>742.890625</ele>
<time>2013-11-22T07:41:53Z</time>
<speed>6.720000</speed>
<extensions>
<speed>6.7</speed>
<temp>0.00</temp>
<bpm>0</bpm>
<rpm>0.00</rpm>
</extensions>
</trkpt>
<trkpt lat="30.661054611" lon="34.852363586">
<ele>742.562500</ele>
<time>2013-11-22T07:41:58Z</time>
<speed>6.950000</speed>
<extensions>
<speed>7.0</speed>
<temp>0.00</temp>
<bpm>0</bpm>
<rpm>0.00</rpm>
</extensions>
</trkpt>
<trkpt lat="30.660963058" lon="34.852645874">
<ele>740.718750</ele>
<time>2013-11-22T07:42:03Z</time>
<speed>5.160000</speed>
<extensions>
<speed>5.2</speed>
<temp>0.00</temp>
<bpm>0</bpm>
<rpm>0.00</rpm>
</extensions>
</trkpt>
<trkpt lat="30.660852432" lon="34.852851868">
<ele>740.140625</ele>
<time>2013-11-22T07:42:08Z</time>
<speed>4.390000</speed>
<extensions>
<speed>4.4</speed>
<temp>0.00</temp>
<bpm>0</bpm>
<rpm>0.00</rpm>
</extensions>
</trkpt>
<trkpt lat="30.660783768" lon="34.853073120">
<ele>739.984375</ele>
<time>2013-11-22T07:42:13Z</time>
<speed>4.750000</speed>
<extensions>
<speed>4.8</speed>
<temp>0.00</temp>
<bpm>0</bpm>
<rpm>0.00</rpm>
</extensions>
</trkpt>
<trkpt lat="30.660703659" lon="34.853309631">
<ele>738.468750</ele>
<time>2013-11-22T07:42:18Z</time>
<speed>4.720000</speed>
<extensions>
<speed>4.7</speed>
<temp>0.00</temp>
<bpm>0</bpm>
<rpm>0.00</rpm>
</extensions>
</trkpt>
<trkpt lat="30.660612106" lon="34.853538513">
<ele>738.046875</ele>
<time>2013-11-22T07:42:23Z</time>
<speed>4.310000</speed>
<extensions>
<speed>4.3</speed>
<temp>0.00</temp>
<bpm>0</bpm>
<rpm>0.00</rpm>
</extensions>
</trkpt>
<trkpt lat="30.660526276" lon="34.853736877">
<ele>736.390625</ele>
<time>2013-11-22T07:42:28Z</time>
<speed>4.010000</speed>
<extensions>
<speed>4.0</speed>
<temp>0.00</temp>
<bpm>0</bpm>
<rpm>0.00</rpm>
</extensions>
</trkpt>
<trkpt lat="30.660484314" lon="34.853870392">
<ele>737.640625</ele>
<time>2013-11-22T07:42:33Z</time>
<speed>2.610000</speed>
<extensions>
<speed>2.6</speed>
<temp>0.00</temp>
<bpm>0</bpm>
<rpm>0.00</rpm>
</extensions>
</trkpt>
<trkpt lat="30.660442352" lon="34.854061127">
<ele>737.468750</ele>
<time>2013-11-22T07:42:38Z</time>
<speed>4.690000</speed>
<extensions>
<speed>4.7</speed>
<temp>0.00</temp>
<bpm>0</bpm>
<rpm>0.00</rpm>
</extensions>
</trkpt>
<trkpt lat="30.660388947" lon="34.854259491">
<ele>736.875000</ele>
<time>2013-11-22T07:42:43Z</time>
<speed>4.460000</speed>
<extensions>
<speed>4.5</speed>
<temp>0.00</temp>
<bpm>0</bpm>
<rpm>0.00</rpm>
</extensions>
</trkpt>
<trkpt lat="30.660337448" lon="34.854469299">
<ele>736.390625</ele>
<time>2013-11-22T07:42:48Z</time>
<speed>3.890000</speed>
<extensions>
<speed>3.9</speed>
<temp>0.00</temp>
<bpm>0</bpm>
<rpm>0.00</rpm>
</extensions>
</trkpt>
<trkpt lat="30.660299301" lon="34.854682922">
<ele>736.890625</ele>
<time>2013-11-22T07:42:53Z</time>
<speed>4.590000</speed>
<extensions>
<speed>4.6</speed>
<temp>0.00</temp>
<bpm>0</bpm>
<rpm>0.00</rpm>
</extensions>
</trkpt>
<trkpt lat="30.660230637" lon="34.854904175">
<ele>734.890625</ele>
<time>2013-11-22T07:42:58Z</time>
<speed>3.260000</speed>
<extensions>
<speed>3.3</speed>
<temp>0.00</temp>
<bpm>0</bpm>
<rpm>0.00</rpm>
</extensions>
</trkpt>
<trkpt lat="30.660140991" lon="34.855003357">
<ele>734.343750</ele>
<time>2013-11-22T07:43:03Z</time>
<speed>2.430000</speed>
<extensions>
<speed>2.4</speed>
<temp>0.00</temp>
<bpm>0</bpm>
<rpm>0.00</rpm>
</extensions>
</trkpt>
<trkpt lat="30.660049438" lon="34.855083466">
<ele>731.921875</ele>
<time>2013-11-22T07:43:08Z</time>
<speed>3.100000</speed>
<extensions>
<speed>3.1</speed>
<temp>0.00</temp>
<bpm>0</bpm>
<rpm>0.00</rpm>
</extensions>
</trkpt>
<trkpt lat="30.659948349" lon="34.855224609">
<ele>731.062500</ele>
<time>2013-11-22T07:43:13Z</time>
<speed>4.140000</speed>
<extensions>
<speed>4.1</speed>
<temp>0.00</temp>
<bpm>0</bpm>
<rpm>0.00</rpm>
</extensions>
</trkpt>
<trkpt lat="30.659847260" lon="34.855434418">
<ele>728.984375</ele>
<time>2013-11-22T07:43:18Z</time>
<speed>4.670000</speed>
<extensions>
<speed>4.7</speed>
<temp>0.00</temp>
<bpm>0</bpm>
<rpm>0.00</rpm>
</extensions>
</trkpt>
<trkpt lat="30.659641266" lon="34.855545044">
<ele>727.468750</ele>
<time>2013-11-22T07:43:23Z</time>
<speed>4.510000</speed>
<extensions>
<speed>4.5</speed>
<temp>0.00</temp>
<bpm>0</bpm>
<rpm>0.00</rpm>
</extensions>
</trkpt>
<trkpt lat="30.659458160" lon="34.855564117">
<ele>727.906250</ele>
<time>2013-11-22T07:43:28Z</time>
<speed>4.530000</speed>
<extensions>
<speed>4.5</speed>
<temp>0.00</temp>
<bpm>0</bpm>
<rpm>0.00</rpm>
</extensions>
</trkpt>
<trkpt lat="30.659255981" lon="34.855579376">
<ele>728.578125</ele>
<time>2013-11-22T07:43:33Z</time>
<speed>4.310000</speed>
<extensions>
<speed>4.3</speed>
<temp>0.00</temp>
<bpm>0</bpm>
<rpm>0.00</rpm>
</extensions>
</trkpt>
<trkpt lat="30.659070969" lon="34.855564117">
<ele>728.437500</ele>
<time>2013-11-22T07:43:38Z</time>
<speed>4.060000</speed>
<extensions>
<speed>4.1</speed>
<temp>0.00</temp>
<bpm>0</bpm>
<rpm>0.00</rpm>
</extensions>
</trkpt>
<trkpt lat="30.658885956" lon="34.855598450">
<ele>728.390625</ele>
<time>2013-11-22T07:43:43Z</time>
<speed>4.370000</speed>
<extensions>
<speed>4.4</speed>
<temp>0.00</temp>
<bpm>0</bpm>
<rpm>0.00</rpm>
</extensions>
</trkpt>
<trkpt lat="30.658718109" lon="34.855693817">
<ele>728.453125</ele>
<time>2013-11-22T07:43:48Z</time>
<speed>3.830000</speed>
<extensions>
<speed>3.8</speed>
<temp>0.00</temp>
<bpm>0</bpm>
<rpm>0.00</rpm>
</extensions>
</trkpt>
<trkpt lat="30.658590317" lon="34.855724335">
<ele>727.828125</ele>
<time>2013-11-22T07:43:53Z</time>
<speed>1.980000</speed>
<extensions>
<speed>2.0</speed>
<temp>0.00</temp>
<bpm>0</bpm>
<rpm>0.00</rpm>
</extensions>
</trkpt>
<trkpt lat="30.658559799" lon="34.855751038">
<ele>728.093750</ele>
<time>2013-11-22T07:43:58Z</time>
<speed>0.360000</speed>
<extensions>
<speed>0.4</speed>
<temp>0.00</temp>
<bpm>0</bpm>
<rpm>0.00</rpm>
</extensions>
</trkpt>
<trkpt lat="30.658555984" lon="34.855751038">
<ele>728.328125</ele>
<time>2013-11-22T07:44:03Z</time>
<speed>0.050000</speed>
<extensions>
<speed>0.1</speed>
<temp>0.00</temp>
<bpm>0</bpm>
<rpm>0.00</rpm>
</extensions>
</trkpt>
<trkpt lat="30.658555984" lon="34.855751038">
<ele>728.218750</ele>
<time>2013-11-22T07:44:08Z</time>
<speed>0.080000</speed>
<extensions>
<speed>0.1</speed>
<temp>0.00</temp>
<bpm>0</bpm>
<rpm>0.00</rpm>
</extensions>
</trkpt>
<trkpt lat="30.658555984" lon="34.855751038">
<ele>728.171875</ele>
<time>2013-11-22T07:44:13Z</time>
<speed>0.010000</speed>
<extensions>
<speed>0.0</speed>
<temp>0.00</temp>
<bpm>0</bpm>
<rpm>0.00</rpm>
</extensions>
</trkpt>
<trkpt lat="30.658555984" lon="34.855751038">
<ele>728.140625</ele>
<time>2013-11-22T07:44:18Z</time>
<speed>0.030000</speed>
<extensions>
<speed>0.0</speed>
<temp>0.00</temp>
<bpm>0</bpm>
<rpm>0.00</rpm>
</extensions>
</trkpt>
<trkpt lat="30.658552170" lon="34.855758667">
<ele>728.140625</ele>
<time>2013-11-22T07:44:23Z</time>
<speed>1.520000</speed>
<extensions>
<speed>1.5</speed>
<temp>0.00</temp>
<bpm>0</bpm>
<rpm>0.00</rpm>
</extensions>
</trkpt>
<trkpt lat="30.658529282" lon="34.855918884">
<ele>728.343750</ele>
<time>2013-11-22T07:44:28Z</time>
<speed>3.530000</speed>
<extensions>
<speed>3.5</speed>
<temp>0.00</temp>
<bpm>0</bpm>
<rpm>0.00</rpm>
</extensions>
</trkpt>
<trkpt lat="30.658569336" lon="34.856140137">
<ele>729.390625</ele>
<time>2013-11-22T07:44:33Z</time>
<speed>4.190000</speed>
<extensions>
<speed>4.2</speed>
<temp>0.00</temp>
<bpm>0</bpm>
<rpm>0.00</rpm>
</extensions>
</trkpt>
<trkpt lat="30.658592224" lon="34.856338501">
<ele>730.968750</ele>
<time>2013-11-22T07:44:38Z</time>
<speed>4.010000</speed>
<extensions>
<speed>4.0</speed>
<temp>0.00</temp>
<bpm>0</bpm>
<rpm>0.00</rpm>
</extensions>
</trkpt>
<trkpt lat="30.658559799" lon="34.856552124">
<ele>733.390625</ele>
<time>2013-11-22T07:44:43Z</time>
<speed>4.420000</speed>
<extensions>
<speed>4.4</speed>
<temp>0.00</temp>
<bpm>0</bpm>
<rpm>0.00</rpm>
</extensions>
</trkpt>
<trkpt lat="30.658536911" lon="34.856731415">
<ele>734.718750</ele>
<time>2013-11-22T07:44:48Z</time>
<speed>3.300000</speed>
<extensions>
<speed>3.3</speed>
<temp>0.00</temp>
<bpm>0</bpm>
<rpm>0.00</rpm>
</extensions>
</trkpt>
<trkpt lat="30.658485413" lon="34.856933594">
<ele>734.625000</ele>
<time>2013-11-22T07:44:53Z</time>
<speed>4.010000</speed>
<extensions>
<speed>4.0</speed>
<temp>0.00</temp>
<bpm>0</bpm>
<rpm>0.00</rpm>
</extensions>
</trkpt>
<trkpt lat="30.658432007" lon="34.857170105">
<ele>734.453125</ele>
<time>2013-11-22T07:44:58Z</time>
<speed>4.220000</speed>
<extensions>
<speed>4.2</speed>
<temp>0.00</temp>
<bpm>0</bpm>
<rpm>0.00</rpm>
</extensions>
</trkpt>
<trkpt lat="30.658430099" lon="34.857398987">
<ele>734.687500</ele>
<time>2013-11-22T07:45:03Z</time>
<speed>4.130000</speed>
<extensions>
<speed>4.1</speed>
<temp>0.00</temp>
<bpm>0</bpm>
<rpm>0.00</rpm>
</extensions>
</trkpt>
<trkpt lat="30.658439636" lon="34.857643127">
<ele>737.343750</ele>
<time>2013-11-22T07:45:08Z</time>
<speed>4.630000</speed>
<extensions>
<speed>4.6</speed>
<temp>0.00</temp>
<bpm>0</bpm>
<rpm>0.00</rpm>
</extensions>
</trkpt>
<trkpt lat="30.658460617" lon="34.857791901">
<ele>740.984375</ele>
<time>2013-11-22T07:45:13Z</time>
<speed>2.070000</speed>
<extensions>
<speed>2.1</speed>
<temp>0.00</temp>
<bpm>0</bpm>
<rpm>0.00</rpm>
</extensions>
</trkpt>
<trkpt lat="30.658481598" lon="34.857925415">
<ele>741.500000</ele>
<time>2013-11-22T07:45:18Z</time>
<speed>2.970000</speed>
<extensions>
<speed>3.0</speed>
<temp>0.00</temp>
<bpm>0</bpm>
<rpm>0.00</rpm>
</extensions>
</trkpt>
<trkpt lat="30.658540726" lon="34.858066559">
<ele>741.046875</ele>
<time>2013-11-22T07:45:23Z</time>
<speed>3.220000</speed>
<extensions>
<speed>3.2</speed>
<temp>0.00</temp>
<bpm>0</bpm>
<rpm>0.00</rpm>
</extensions>
</trkpt>
<trkpt lat="30.658617020" lon="34.858219147">
<ele>740.328125</ele>
<time>2013-11-22T07:45:28Z</time>
<speed>3.240000</speed>
<extensions>
<speed>3.2</speed>
<temp>0.00</temp>
<bpm>0</bpm>
<rpm>0.00</rpm>
</extensions>
</trkpt>
<trkpt lat="30.658693314" lon="34.858356476">
<ele>739.890625</ele>
<time>2013-11-22T07:45:33Z</time>
<speed>2.890000</speed>
<extensions>
<speed>2.9</speed>
<temp>0.00</temp>
<bpm>0</bpm>
<rpm>0.00</rpm>
</extensions>
</trkpt>
<trkpt lat="30.658754349" lon="34.858493805">
<ele>737.171875</ele>
<time>2013-11-22T07:45:38Z</time>
<speed>2.570000</speed>
<extensions>
<speed>2.6</speed>
<temp>0.00</temp>
<bpm>0</bpm>
<rpm>0.00</rpm>
</extensions>
</trkpt>
<trkpt lat="30.658811569" lon="34.858627319">
<ele>736.671875</ele>
<time>2013-11-22T07:45:43Z</time>
<speed>2.660000</speed>
<extensions>
<speed>2.7</speed>
<temp>0.00</temp>
<bpm>0</bpm>
<rpm>0.00</rpm>
</extensions>
</trkpt>
<trkpt lat="30.658859253" lon="34.858734131">
<ele>736.734375</ele>
<time>2013-11-22T07:45:48Z</time>
<speed>1.710000</speed>
<extensions>
<speed>1.7</speed>
<temp>0.00</temp>
<bpm>0</bpm>
<rpm>0.00</rpm>
</extensions>
</trkpt>
<trkpt lat="30.658897400" lon="34.858810425">
<ele>736.265625</ele>
<time>2013-11-22T07:45:53Z</time>
<speed>1.540000</speed>
<extensions>
<speed>1.5</speed>
<temp>0.00</temp>
<bpm>0</bpm>
<rpm>0.00</rpm>
</extensions>
</trkpt>
<trkpt lat="30.658945084" lon="34.858890533">
<ele>736.093750</ele>
<time>2013-11-22T07:45:58Z</time>
<speed>2.440000</speed>
<extensions>
<speed>2.4</speed>
<temp>0.00</temp>
<bpm>0</bpm>
<rpm>0.00</rpm>
</extensions>
</trkpt>
<trkpt lat="30.659009933" lon="34.859008789">
<ele>736.609375</ele>
<time>2013-11-22T07:46:03Z</time>
<speed>2.630000</speed>
<extensions>
<speed>2.6</speed>
<temp>0.00</temp>
<bpm>0</bpm>
<rpm>0.00</rpm>
</extensions>
</trkpt>
<trkpt lat="30.659074783" lon="34.859115601">
<ele>736.828125</ele>
<time>2013-11-22T07:46:08Z</time>
<speed>3.130000</speed>
<extensions>
<speed>3.1</speed>
<temp>0.00</temp>
<bpm>0</bpm>
<rpm>0.00</rpm>
</extensions>
</trkpt>
<trkpt lat="30.659154892" lon="34.859226227">
<ele>736.984375</ele>
<time>2013-11-22T07:46:13Z</time>
<speed>3.010000</speed>
<extensions>
<speed>3.0</speed>
<temp>0.00</temp>
<bpm>0</bpm>
<rpm>0.00</rpm>
</extensions>
</trkpt>
<trkpt lat="30.659248352" lon="34.859355927">
<ele>737.921875</ele>
<time>2013-11-22T07:46:18Z</time>
<speed>3.620000</speed>
<extensions>
<speed>3.6</speed>
<temp>0.00</temp>
<bpm>0</bpm>
<rpm>0.00</rpm>
</extensions>
</trkpt>
<trkpt lat="30.659349442" lon="34.859477997">
<ele>733.156250</ele>
<time>2013-11-22T07:46:23Z</time>
<speed>2.220000</speed>
<extensions>
<speed>2.2</speed>
<temp>0.00</temp>
<bpm>0</bpm>
<rpm>0.00</rpm>
</extensions>
</trkpt>
<trkpt lat="30.659402847" lon="34.859577179">
<ele>731.468750</ele>
<time>2013-11-22T07:46:28Z</time>
<speed>2.030000</speed>
<extensions>
<speed>2.0</speed>
<temp>0.00</temp>
<bpm>0</bpm>
<rpm>0.00</rpm>
</extensions>
</trkpt>
<trkpt lat="30.659450531" lon="34.859699249">
<ele>732.812500</ele>
<time>2013-11-22T07:46:33Z</time>
<speed>2.170000</speed>
<extensions>
<speed>2.2</speed>
<temp>0.00</temp>
<bpm>0</bpm>
<rpm>0.00</rpm>
</extensions>
</trkpt>
<trkpt lat="30.659463882" lon="34.859809875">
<ele>733.843750</ele>
<time>2013-11-22T07:46:38Z</time>
<speed>2.620000</speed>
<extensions>
<speed>2.6</speed>
<temp>0.00</temp>
<bpm>0</bpm>
<rpm>0.00</rpm>
</extensions>
</trkpt>
<trkpt lat="30.659505844" lon="34.859947205">
<ele>735.031250</ele>
<time>2013-11-22T07:46:43Z</time>
<speed>2.570000</speed>
<extensions>
<speed>2.6</speed>
<temp>0.00</temp>
<bpm>0</bpm>
<rpm>0.00</rpm>
</extensions>
</trkpt>
<trkpt lat="30.659559250" lon="34.860057831">
<ele>737.968750</ele>
<time>2013-11-22T07:46:48Z</time>
<speed>2.430000</speed>
<extensions>
<speed>2.4</speed>
<temp>0.00</temp>
<bpm>0</bpm>
<rpm>0.00</rpm>
</extensions>
</trkpt>
<trkpt lat="30.659629822" lon="34.860164642">
<ele>742.906250</ele>
<time>2013-11-22T07:46:53Z</time>
<speed>2.980000</speed>
<extensions>
<speed>3.0</speed>
<temp>0.00</temp>
<bpm>0</bpm>
<rpm>0.00</rpm>
</extensions>
</trkpt>
<trkpt lat="30.659709930" lon="34.860290527">
<ele>743.640625</ele>
<time>2013-11-22T07:46:58Z</time>
<speed>2.500000</speed>
<extensions>
<speed>2.5</speed>
<temp>0.00</temp>
<bpm>0</bpm>
<rpm>0.00</rpm>
</extensions>
</trkpt>
<trkpt lat="30.659769058" lon="34.860397339">
<ele>746.046875</ele>
<time>2013-11-22T07:47:03Z</time>
<speed>2.210000</speed>
<extensions>
<speed>2.2</speed>
<temp>0.00</temp>
<bpm>0</bpm>
<rpm>0.00</rpm>
</extensions>
</trkpt>
<trkpt lat="30.659816742" lon="34.860481262">
<ele>744.875000</ele>
<time>2013-11-22T07:47:08Z</time>
<speed>1.810000</speed>
<extensions>
<speed>1.8</speed>
<temp>0.00</temp>
<bpm>0</bpm>
<rpm>0.00</rpm>
</extensions>
</trkpt>
<trkpt lat="30.659883499" lon="34.860561371">
<ele>742.734375</ele>
<time>2013-11-22T07:47:13Z</time>
<speed>2.290000</speed>
<extensions>
<speed>2.3</speed>
<temp>0.00</temp>
<bpm>0</bpm>
<rpm>0.00</rpm>
</extensions>
</trkpt>
<trkpt lat="30.659963608" lon="34.860610962">
<ele>742.125000</ele>
<time>2013-11-22T07:47:18Z</time>
<speed>2.040000</speed>
<extensions>
<speed>2.0</speed>
<temp>0.00</temp>
<bpm>0</bpm>
<rpm>0.00</rpm>
</extensions>
</trkpt>
<trkpt lat="30.660036087" lon="34.860656738">
<ele>742.718750</ele>
<time>2013-11-22T07:47:23Z</time>
<speed>1.560000</speed>
<extensions>
<speed>1.6</speed>
<temp>0.00</temp>
<bpm>0</bpm>
<rpm>0.00</rpm>
</extensions>
</trkpt>
<trkpt lat="30.660135269" lon="34.860687256">
<ele>741.171875</ele>
<time>2013-11-22T07:47:28Z</time>
<speed>2.920000</speed>
<extensions>
<speed>2.9</speed>
<temp>0.00</temp>
<bpm>0</bpm>
<rpm>0.00</rpm>
</extensions>
</trkpt>
<trkpt lat="30.660274506" lon="34.860683441">
<ele>741.625000</ele>
<time>2013-11-22T07:47:33Z</time>
<speed>3.460000</speed>
<extensions>
<speed>3.5</speed>
<temp>0.00</temp>
<bpm>0</bpm>
<rpm>0.00</rpm>
</extensions>
</trkpt>
<trkpt lat="30.660484314" lon="34.860675812">
<ele>740.406250</ele>
<time>2013-11-22T07:47:38Z</time>
<speed>5.540000</speed>
<extensions>
<speed>5.5</speed>
<temp>0.00</temp>
<bpm>0</bpm>
<rpm>0.00</rpm>
</extensions>
</trkpt>
<trkpt lat="30.660753250" lon="34.860713959">
<ele>739.093750</ele>
<time>2013-11-22T07:47:43Z</time>
<speed>6.110000</speed>
<extensions>
<speed>6.1</speed>
<temp>0.00</temp>
<bpm>0</bpm>
<rpm>0.00</rpm>
</extensions>
</trkpt>
<trkpt lat="30.660984039" lon="34.860855103">
<ele>738.421875</ele>
<time>2013-11-22T07:47:48Z</time>
<speed>5.600000</speed>
<extensions>
<speed>5.6</speed>
<temp>0.00</temp>
<bpm>0</bpm>
<rpm>0.00</rpm>
</extensions>
</trkpt>
<trkpt lat="30.661144257" lon="34.861042023">
<ele>737.390625</ele>
<time>2013-11-22T07:47:53Z</time>
<speed>4.230000</speed>
<extensions>
<speed>4.2</speed>
<temp>0.00</temp>
<bpm>0</bpm>
<rpm>0.00</rpm>
</extensions>
</trkpt>
<trkpt lat="30.661209106" lon="34.861141205">
<ele>737.015625</ele>
<time>2013-11-22T07:47:58Z</time>
<speed>1.720000</speed>
<extensions>
<speed>1.7</speed>
<temp>0.00</temp>
<bpm>0</bpm>
<rpm>0.00</rpm>
</extensions>
</trkpt>
<trkpt lat="30.661241531" lon="34.861217499">
<ele>736.812500</ele>
<time>2013-11-22T07:48:03Z</time>
<speed>0.030000</speed>
<extensions>
<speed>0.0</speed>
<temp>0.00</temp>
<bpm>0</bpm>
<rpm>0.00</rpm>
</extensions>
</trkpt>
<trkpt lat="30.661241531" lon="34.861217499">
<ele>736.984375</ele>
<time>2013-11-22T07:48:08Z</time>
<speed>0.010000</speed>
<extensions>
<speed>0.0</speed>
<temp>0.00</temp>
<bpm>0</bpm>
<rpm>0.00</rpm>
</extensions>
</trkpt>
<trkpt lat="30.661241531" lon="34.861217499">
<ele>736.953125</ele>
<time>2013-11-22T07:48:13Z</time>
<speed>0.020000</speed>
<extensions>
<speed>0.0</speed>
<temp>0.00</temp>
<bpm>0</bpm>
<rpm>0.00</rpm>
</extensions>
</trkpt>
<trkpt lat="30.661239624" lon="34.861248016">
<ele>736.890625</ele>
<time>2013-11-22T07:48:18Z</time>
<speed>1.960000</speed>
<extensions>
<speed>2.0</speed>
<temp>0.00</temp>
<bpm>0</bpm>
<rpm>0.00</rpm>
</extensions>
</trkpt>
<trkpt lat="30.661252975" lon="34.861362457">
<ele>737.343750</ele>
<time>2013-11-22T07:48:23Z</time>
<speed>2.150000</speed>
<extensions>
<speed>2.1</speed>
<temp>0.00</temp>
<bpm>0</bpm>
<rpm>0.00</rpm>
</extensions>
</trkpt>
<trkpt lat="30.661224365" lon="34.861499786">
<ele>738.703125</ele>
<time>2013-11-22T07:48:28Z</time>
<speed>3.460000</speed>
<extensions>
<speed>3.5</speed>
<temp>0.00</temp>
<bpm>0</bpm>
<rpm>0.00</rpm>
</extensions>
</trkpt>
<trkpt lat="30.661140442" lon="34.861690521">
<ele>740.734375</ele>
<time>2013-11-22T07:48:33Z</time>
<speed>3.260000</speed>
<extensions>
<speed>3.3</speed>
<temp>0.00</temp>
<bpm>0</bpm>
<rpm>0.00</rpm>
</extensions>
</trkpt>
<trkpt lat="30.661123276" lon="34.861816406">
<ele>739.843750</ele>
<time>2013-11-22T07:48:38Z</time>
<speed>2.480000</speed>
<extensions>
<speed>2.5</speed>
<temp>0.00</temp>
<bpm>0</bpm>
<rpm>0.00</rpm>
</extensions>
</trkpt>
<trkpt lat="30.661169052" lon="34.862041473">
<ele>741.218750</ele>
<time>2013-11-22T07:48:43Z</time>
<speed>5.000000</speed>
<extensions>
<speed>5.0</speed>
<temp>0.00</temp>
<bpm>0</bpm>
<rpm>0.00</rpm>
</extensions>
</trkpt>
<trkpt lat="30.661180496" lon="34.862312317">
<ele>741.750000</ele>
<time>2013-11-22T07:48:48Z</time>
<speed>4.830000</speed>
<extensions>
<speed>4.8</speed>
<temp>0.00</temp>
<bpm>0</bpm>
<rpm>0.00</rpm>
</extensions>
</trkpt>
<trkpt lat="30.661207199" lon="34.862537384">
<ele>741.296875</ele>
<time>2013-11-22T07:48:53Z</time>
<speed>4.410000</speed>
<extensions>
<speed>4.4</speed>
<temp>0.00</temp>
<bpm>0</bpm>
<rpm>0.00</rpm>
</extensions>
</trkpt>
<trkpt lat="30.661275864" lon="34.862789154">
<ele>740.578125</ele>
<time>2013-11-22T07:48:58Z</time>
<speed>4.980000</speed>
<extensions>
<speed>5.0</speed>
<temp>0.00</temp>
<bpm>0</bpm>
<rpm>0.00</rpm>
</extensions>
</trkpt>
<trkpt lat="30.661342621" lon="34.863018036">
<ele>740.156250</ele>
<time>2013-11-22T07:49:03Z</time>
<speed>3.810000</speed>
<extensions>
<speed>3.8</speed>
<temp>0.00</temp>
<bpm>0</bpm>
<rpm>0.00</rpm>
</extensions>
</trkpt>
<trkpt lat="30.661403656" lon="34.863201141">
<ele>738.796875</ele>
<time>2013-11-22T07:49:08Z</time>
<speed>3.760000</speed>
<extensions>
<speed>3.8</speed>
<temp>0.00</temp>
<bpm>0</bpm>
<rpm>0.00</rpm>
</extensions>
</trkpt>
<trkpt lat="30.661451340" lon="34.863391876">
<ele>739.875000</ele>
<time>2013-11-22T07:49:13Z</time>
<speed>3.820000</speed>
<extensions>
<speed>3.8</speed>
<temp>0.00</temp>
<bpm>0</bpm>
<rpm>0.00</rpm>
</extensions>
</trkpt>
<trkpt lat="30.661464691" lon="34.863544464">
<ele>740.218750</ele>
<time>2013-11-22T07:49:18Z</time>
<speed>2.660000</speed>
<extensions>
<speed>2.7</speed>
<temp>0.00</temp>
<bpm>0</bpm>
<rpm>0.00</rpm>
</extensions>
</trkpt>
<trkpt lat="30.661506653" lon="34.863697052">
<ele>738.468750</ele>
<time>2013-11-22T07:49:23Z</time>
<speed>3.850000</speed>
<extensions>
<speed>3.8</speed>
<temp>0.00</temp>
<bpm>0</bpm>
<rpm>0.00</rpm>
</extensions>
</trkpt>
<trkpt lat="30.661525726" lon="34.863895416">
<ele>739.093750</ele>
<time>2013-11-22T07:49:28Z</time>
<speed>4.360000</speed>
<extensions>
<speed>4.4</speed>
<temp>0.00</temp>
<bpm>0</bpm>
<rpm>0.00</rpm>
</extensions>
</trkpt>
<trkpt lat="30.661579132" lon="34.864089966">
<ele>736.812500</ele>
<time>2013-11-22T07:49:33Z</time>
<speed>3.280000</speed>
<extensions>
<speed>3.3</speed>
<temp>0.00</temp>
<bpm>0</bpm>
<rpm>0.00</rpm>
</extensions>
</trkpt>
<trkpt lat="30.661630630" lon="34.864284515">
<ele>735.875000</ele>
<time>2013-11-22T07:49:38Z</time>
<speed>4.260000</speed>
<extensions>
<speed>4.3</speed>
<temp>0.00</temp>
<bpm>0</bpm>
<rpm>0.00</rpm>
</extensions>
</trkpt>
<trkpt lat="30.661672592" lon="34.864486694">
<ele>734.718750</ele>
<time>2013-11-22T07:49:43Z</time>
<speed>2.920000</speed>
<extensions>
<speed>2.9</speed>
<temp>0.00</temp>
<bpm>0</bpm>
<rpm>0.00</rpm>
</extensions>
</trkpt>
<trkpt lat="30.661710739" lon="34.864601135">
<ele>735.578125</ele>
<time>2013-11-22T07:49:48Z</time>
<speed>2.570000</speed>
<extensions>
<speed>2.6</speed>
<temp>0.00</temp>
<bpm>0</bpm>
<rpm>0.00</rpm>
</extensions>
</trkpt>
<trkpt lat="30.661764145" lon="34.864734650">
<ele>737.140625</ele>
<time>2013-11-22T07:49:53Z</time>
<speed>3.450000</speed>
<extensions>
<speed>3.5</speed>
<temp>0.00</temp>
<bpm>0</bpm>
<rpm>0.00</rpm>
</extensions>
</trkpt>
<trkpt lat="30.661842346" lon="34.864871979">
<ele>737.421875</ele>
<time>2013-11-22T07:49:58Z</time>
<speed>3.610000</speed>
<extensions>
<speed>3.6</speed>
<temp>0.00</temp>
<bpm>0</bpm>
<rpm>0.00</rpm>
</extensions>
</trkpt>
<trkpt lat="30.661949158" lon="34.864986420">
<ele>737.437500</ele>
<time>2013-11-22T07:50:03Z</time>
<speed>3.330000</speed>
<extensions>
<speed>3.3</speed>
<temp>0.00</temp>
<bpm>0</bpm>
<rpm>0.00</rpm>
</extensions>
</trkpt>
<trkpt lat="30.662050247" lon="34.865108490">
<ele>735.187500</ele>
<time>2013-11-22T07:50:08Z</time>
<speed>2.470000</speed>
<extensions>
<speed>2.5</speed>
<temp>0.00</temp>
<bpm>0</bpm>
<rpm>0.00</rpm>
</extensions>
</trkpt>
<trkpt lat="30.662118912" lon="34.865215302">
<ele>735.453125</ele>
<time>2013-11-22T07:50:13Z</time>
<speed>2.620000</speed>
<extensions>
<speed>2.6</speed>
<temp>0.00</temp>
<bpm>0</bpm>
<rpm>0.00</rpm>
</extensions>
</trkpt>
<trkpt lat="30.662197113" lon="34.865322113">
<ele>735.078125</ele>
<time>2013-11-22T07:50:18Z</time>
<speed>2.650000</speed>
<extensions>
<speed>2.6</speed>
<temp>0.00</temp>
<bpm>0</bpm>
<rpm>0.00</rpm>
</extensions>
</trkpt>
<trkpt lat="30.662267685" lon="34.865440369">
<ele>736.578125</ele>
<time>2013-11-22T07:50:23Z</time>
<speed>3.150000</speed>
<extensions>
<speed>3.2</speed>
<temp>0.00</temp>
<bpm>0</bpm>
<rpm>0.00</rpm>
</extensions>
</trkpt>
<trkpt lat="30.662334442" lon="34.865550995">
<ele>737.781250</ele>
<time>2013-11-22T07:50:28Z</time>
<speed>1.700000</speed>
<extensions>
<speed>1.7</speed>
<temp>0.00</temp>
<bpm>0</bpm>
<rpm>0.00</rpm>
</extensions>
</trkpt>
<trkpt lat="30.662368774" lon="34.865623474">
<ele>738.250000</ele>
<time>2013-11-22T07:50:33Z</time>
<speed>2.320000</speed>
<extensions>
<speed>2.3</speed>
<temp>0.00</temp>
<bpm>0</bpm>
<rpm>0.00</rpm>
</extensions>
</trkpt>
<trkpt lat="30.662443161" lon="34.865703583">
<ele>738.375000</ele>
<time>2013-11-22T07:50:38Z</time>
<speed>2.140000</speed>
<extensions>
<speed>2.1</speed>
<temp>0.00</temp>
<bpm>0</bpm>
<rpm>0.00</rpm>
</extensions>
</trkpt>
<trkpt lat="30.662496567" lon="34.865741730">
<ele>739.390625</ele>
<time>2013-11-22T07:50:43Z</time>
<speed>1.520000</speed>
<extensions>
<speed>1.5</speed>
<temp>0.00</temp>
<bpm>0</bpm>
<rpm>0.00</rpm>
</extensions>
</trkpt>
<trkpt lat="30.662559509" lon="34.865810394">
<ele>739.640625</ele>
<time>2013-11-22T07:50:48Z</time>
<speed>2.140000</speed>
<extensions>
<speed>2.1</speed>
<temp>0.00</temp>
<bpm>0</bpm>
<rpm>0.00</rpm>
</extensions>
</trkpt>
<trkpt lat="30.662624359" lon="34.865901947">
<ele>739.765625</ele>
<time>2013-11-22T07:50:53Z</time>
<speed>2.460000</speed>
<extensions>
<speed>2.5</speed>
<temp>0.00</temp>
<bpm>0</bpm>
<rpm>0.00</rpm>
</extensions>
</trkpt>
<trkpt lat="30.662702560" lon="34.866012573">
<ele>740.515625</ele>
<time>2013-11-22T07:50:58Z</time>
<speed>2.500000</speed>
<extensions>
<speed>2.5</speed>
<temp>0.00</temp>
<bpm>0</bpm>
<rpm>0.00</rpm>
</extensions>
</trkpt>
<trkpt lat="30.662784576" lon="34.866119385">
<ele>739.687500</ele>
<time>2013-11-22T07:51:03Z</time>
<speed>3.010000</speed>
<extensions>
<speed>3.0</speed>
<temp>0.00</temp>
<bpm>0</bpm>
<rpm>0.00</rpm>
</extensions>
</trkpt>
<trkpt lat="30.662849426" lon="34.866214752">
<ele>740.609375</ele>
<time>2013-11-22T07:51:08Z</time>
<speed>2.420000</speed>
<extensions>
<speed>2.4</speed>
<temp>0.00</temp>
<bpm>0</bpm>
<rpm>0.00</rpm>
</extensions>
</trkpt>
<trkpt lat="30.662908554" lon="34.866344452">
<ele>740.656250</ele>
<time>2013-11-22T07:51:13Z</time>
<speed>2.460000</speed>
<extensions>
<speed>2.5</speed>
<temp>0.00</temp>
<bpm>0</bpm>
<rpm>0.00</rpm>
</extensions>
</trkpt>
<trkpt lat="30.662961960" lon="34.866447449">
<ele>743.093750</ele>
<time>2013-11-22T07:51:18Z</time>
<speed>2.700000</speed>
<extensions>
<speed>2.7</speed>
<temp>0.00</temp>
<bpm>0</bpm>
<rpm>0.00</rpm>
</extensions>
</trkpt>
<trkpt lat="30.663013458" lon="34.866573334">
<ele>743.312500</ele>
<time>2013-11-22T07:51:23Z</time>
<speed>2.280000</speed>
<extensions>
<speed>2.3</speed>
<temp>0.00</temp>
<bpm>0</bpm>
<rpm>0.00</rpm>
</extensions>
</trkpt>
<trkpt lat="30.663042068" lon="34.866641998">
<ele>745.093750</ele>
<time>2013-11-22T07:51:28Z</time>
<speed>1.520000</speed>
<extensions>
<speed>1.5</speed>
<temp>0.00</temp>
<bpm>0</bpm>
<rpm>0.00</rpm>
</extensions>
</trkpt>
<trkpt lat="30.663059235" lon="34.866729736">
<ele>746.671875</ele>
<time>2013-11-22T07:51:33Z</time>
<speed>1.410000</speed>
<extensions>
<speed>1.4</speed>
<temp>0.00</temp>
<bpm>0</bpm>
<rpm>0.00</rpm>
</extensions>
</trkpt>
<trkpt lat="30.663091660" lon="34.866802216">
<ele>747.937500</ele>
<time>2013-11-22T07:51:38Z</time>
<speed>1.330000</speed>
<extensions>
<speed>1.3</speed>
<temp>0.00</temp>
<bpm>0</bpm>
<rpm>0.00</rpm>
</extensions>
</trkpt>
<trkpt lat="30.663101196" lon="34.866867065">
<ele>747.765625</ele>
<time>2013-11-22T07:51:43Z</time>
<speed>1.540000</speed>
<extensions>
<speed>1.5</speed>
<temp>0.00</temp>
<bpm>0</bpm>
<rpm>0.00</rpm>
</extensions>
</trkpt>
<trkpt lat="30.663120270" lon="34.866950989">
<ele>747.265625</ele>
<time>2013-11-22T07:51:48Z</time>
<speed>1.600000</speed>
<extensions>
<speed>1.6</speed>
<temp>0.00</temp>
<bpm>0</bpm>
<rpm>0.00</rpm>
</extensions>
</trkpt>
<trkpt lat="30.663137436" lon="34.867042542">
<ele>750.046875</ele>
<time>2013-11-22T07:51:53Z</time>
<speed>1.660000</speed>
<extensions>
<speed>1.7</speed>
<temp>0.00</temp>
<bpm>0</bpm>
<rpm>0.00</rpm>
</extensions>
</trkpt>
<trkpt lat="30.663135529" lon="34.867118835">
<ele>752.328125</ele>
<time>2013-11-22T07:51:58Z</time>
<speed>1.510000</speed>
<extensions>
<speed>1.5</speed>
<temp>0.00</temp>
<bpm>0</bpm>
<rpm>0.00</rpm>
</extensions>
</trkpt>
<trkpt lat="30.663164139" lon="34.867191315">
<ele>754.578125</ele>
<time>2013-11-22T07:52:03Z</time>
<speed>1.600000</speed>
<extensions>
<speed>1.6</speed>
<temp>0.00</temp>
<bpm>0</bpm>
<rpm>0.00</rpm>
</extensions>
</trkpt>
<trkpt lat="30.663198471" lon="34.867256165">
<ele>756.343750</ele>
<time>2013-11-22T07:52:08Z</time>
<speed>1.500000</speed>
<extensions>
<speed>1.5</speed>
<temp>0.00</temp>
<bpm>0</bpm>
<rpm>0.00</rpm>
</extensions>
</trkpt>
<trkpt lat="30.663217545" lon="34.867321014">
<ele>757.890625</ele>
<time>2013-11-22T07:52:13Z</time>
<speed>1.470000</speed>
<extensions>
<speed>1.5</speed>
<temp>0.00</temp>
<bpm>0</bpm>
<rpm>0.00</rpm>
</extensions>
</trkpt>
<trkpt lat="30.663242340" lon="34.867389679">
<ele>758.359375</ele>
<time>2013-11-22T07:52:18Z</time>
<speed>1.210000</speed>
<extensions>
<speed>1.2</speed>
<temp>0.00</temp>
<bpm>0</bpm>
<rpm>0.00</rpm>
</extensions>
</trkpt>
<trkpt lat="30.663255692" lon="34.867454529">
<ele>759.875000</ele>
<time>2013-11-22T07:52:23Z</time>
<speed>1.700000</speed>
<extensions>
<speed>1.7</speed>
<temp>0.00</temp>
<bpm>0</bpm>
<rpm>0.00</rpm>
</extensions>
</trkpt>
<trkpt lat="30.663270950" lon="34.867549896">
<ele>760.890625</ele>
<time>2013-11-22T07:52:28Z</time>
<speed>1.490000</speed>
<extensions>
<speed>1.5</speed>
<temp>0.00</temp>
<bpm>0</bpm>
<rpm>0.00</rpm>
</extensions>
</trkpt>
<trkpt lat="30.663299561" lon="34.867649078">
<ele>762.609375</ele>
<time>2013-11-22T07:52:33Z</time>
<speed>2.140000</speed>
<extensions>
<speed>2.1</speed>
<temp>0.00</temp>
<bpm>0</bpm>
<rpm>0.00</rpm>
</extensions>
</trkpt>
<trkpt lat="30.663333893" lon="34.867778778">
<ele>761.828125</ele>
<time>2013-11-22T07:52:38Z</time>
<speed>2.330000</speed>
<extensions>
<speed>2.3</speed>
<temp>0.00</temp>
<bpm>0</bpm>
<rpm>0.00</rpm>
</extensions>
</trkpt>
<trkpt lat="30.663391113" lon="34.867870331">
<ele>760.515625</ele>
<time>2013-11-22T07:52:43Z</time>
<speed>1.840000</speed>
<extensions>
<speed>1.8</speed>
<temp>0.00</temp>
<bpm>0</bpm>
<rpm>0.00</rpm>
</extensions>
</trkpt>
<trkpt lat="30.663419724" lon="34.867965698">
<ele>761.156250</ele>
<time>2013-11-22T07:52:48Z</time>
<speed>2.160000</speed>
<extensions>
<speed>2.2</speed>
<temp>0.00</temp>
<bpm>0</bpm>
<rpm>0.00</rpm>
</extensions>
</trkpt>
<trkpt lat="30.663421631" lon="34.868072510">
<ele>761.187500</ele>
<time>2013-11-22T07:52:53Z</time>
<speed>2.100000</speed>
<extensions>
<speed>2.1</speed>
<temp>0.00</temp>
<bpm>0</bpm>
<rpm>0.00</rpm>
</extensions>
</trkpt>
<trkpt lat="30.663444519" lon="34.868221283">
<ele>758.109375</ele>
<time>2013-11-22T07:52:58Z</time>
<speed>2.970000</speed>
<extensions>
<speed>3.0</speed>
<temp>0.00</temp>
<bpm>0</bpm>
<rpm>0.00</rpm>
</extensions>
</trkpt>
<trkpt lat="30.663496017" lon="34.868381500">
<ele>758.531250</ele>
<time>2013-11-22T07:53:03Z</time>
<speed>3.290000</speed>
<extensions>
<speed>3.3</speed>
<temp>0.00</temp>
<bpm>0</bpm>
<rpm>0.00</rpm>
</extensions>
</trkpt>
<trkpt lat="30.663522720" lon="34.868511200">
<ele>761.687500</ele>
<time>2013-11-22T07:53:08Z</time>
<speed>2.130000</speed>
<extensions>
<speed>2.1</speed>
<temp>0.00</temp>
<bpm>0</bpm>
<rpm>0.00</rpm>
</extensions>
</trkpt>
<trkpt lat="30.663564682" lon="34.868633270">
<ele>762.562500</ele>
<time>2013-11-22T07:53:13Z</time>
<speed>2.250000</speed>
<extensions>
<speed>2.3</speed>
<temp>0.00</temp>
<bpm>0</bpm>
<rpm>0.00</rpm>
</extensions>
</trkpt>
<trkpt lat="30.663612366" lon="34.868743896">
<ele>761.765625</ele>
<time>2013-11-22T07:53:18Z</time>
<speed>1.660000</speed>
<extensions>
<speed>1.7</speed>
<temp>0.00</temp>
<bpm>0</bpm>
<rpm>0.00</rpm>
</extensions>
</trkpt>
<trkpt lat="30.663673401" lon="34.868831635">
<ele>759.625000</ele>
<time>2013-11-22T07:53:23Z</time>
<speed>2.700000</speed>
<extensions>
<speed>2.7</speed>
<temp>0.00</temp>
<bpm>0</bpm>
<rpm>0.00</rpm>
</extensions>
</trkpt>
<trkpt lat="30.663732529" lon="34.868980408">
<ele>759.359375</ele>
<time>2013-11-22T07:53:28Z</time>
<speed>3.030000</speed>
<extensions>
<speed>3.0</speed>
<temp>0.00</temp>
<bpm>0</bpm>
<rpm>0.00</rpm>
</extensions>
</trkpt>
<trkpt lat="30.663734436" lon="34.869102478">
<ele>761.906250</ele>
<time>2013-11-22T07:53:33Z</time>
<speed>2.410000</speed>
<extensions>
<speed>2.4</speed>
<temp>0.00</temp>
<bpm>0</bpm>
<rpm>0.00</rpm>
</extensions>
</trkpt>
<trkpt lat="30.663703918" lon="34.869224548">
<ele>759.390625</ele>
<time>2013-11-22T07:53:38Z</time>
<speed>2.710000</speed>
<extensions>
<speed>2.7</speed>
<temp>0.00</temp>
<bpm>0</bpm>
<rpm>0.00</rpm>
</extensions>
</trkpt>
<trkpt lat="30.663692474" lon="34.869342804">
<ele>759.609375</ele>
<time>2013-11-22T07:53:43Z</time>
<speed>1.440000</speed>
<extensions>
<speed>1.4</speed>
<temp>0.00</temp>
<bpm>0</bpm>
<rpm>0.00</rpm>
</extensions>
</trkpt>
<trkpt lat="30.663686752" lon="34.869338989">
<ele>757.906250</ele>
<time>2013-11-22T07:53:48Z</time>
<speed>0.130000</speed>
<extensions>
<speed>0.1</speed>
<temp>0.00</temp>
<bpm>0</bpm>
<rpm>0.00</rpm>
</extensions>
</trkpt>
<trkpt lat="30.663686752" lon="34.869335175">
<ele>757.812500</ele>
<time>2013-11-22T07:53:53Z</time>
<speed>0.060000</speed>
<extensions>
<speed>0.1</speed>
<temp>0.00</temp>
<bpm>0</bpm>
<rpm>0.00</rpm>
</extensions>
</trkpt>
<trkpt lat="30.663682938" lon="34.869335175">
<ele>757.734375</ele>
<time>2013-11-22T07:53:58Z</time>
<speed>0.310000</speed>
<extensions>
<speed>0.3</speed>
<temp>0.00</temp>
<bpm>0</bpm>
<rpm>0.00</rpm>
</extensions>
</trkpt>
<trkpt lat="30.663679123" lon="34.869403839">
<ele>758.343750</ele>
<time>2013-11-22T07:54:03Z</time>
<speed>2.680000</speed>
<extensions>
<speed>2.7</speed>
<temp>0.00</temp>
<bpm>0</bpm>
<rpm>0.00</rpm>
</extensions>
</trkpt>
<trkpt lat="30.663684845" lon="34.869537354">
<ele>759.421875</ele>
<time>2013-11-22T07:54:08Z</time>
<speed>2.570000</speed>
<extensions>
<speed>2.6</speed>
<temp>0.00</temp>
<bpm>0</bpm>
<rpm>0.00</rpm>
</extensions>
</trkpt>
<trkpt lat="30.663719177" lon="34.869716644">
<ele>757.765625</ele>
<time>2013-11-22T07:54:13Z</time>
<speed>3.240000</speed>
<extensions>
<speed>3.2</speed>
<temp>0.00</temp>
<bpm>0</bpm>
<rpm>0.00</rpm>
</extensions>
</trkpt>
<trkpt lat="30.663698196" lon="34.869850159">
<ele>759.421875</ele>
<time>2013-11-22T07:54:18Z</time>
<speed>2.740000</speed>
<extensions>
<speed>2.7</speed>
<temp>0.00</temp>
<bpm>0</bpm>
<rpm>0.00</rpm>
</extensions>
</trkpt>
<trkpt lat="30.663640976" lon="34.870018005">
<ele>757.781250</ele>
<time>2013-11-22T07:54:23Z</time>
<speed>3.040000</speed>
<extensions>
<speed>3.0</speed>
<temp>0.00</temp>
<bpm>0</bpm>
<rpm>0.00</rpm>
</extensions>
</trkpt>
<trkpt lat="30.663562775" lon="34.870208740">
<ele>757.671875</ele>
<time>2013-11-22T07:54:28Z</time>
<speed>4.750000</speed>
<extensions>
<speed>4.8</speed>
<temp>0.00</temp>
<bpm>0</bpm>
<rpm>0.00</rpm>
</extensions>
</trkpt>
<trkpt lat="30.663539886" lon="34.870414734">
<ele>757.234375</ele>
<time>2013-11-22T07:54:33Z</time>
<speed>3.370000</speed>
<extensions>
<speed>3.4</speed>
<temp>0.00</temp>
<bpm>0</bpm>
<rpm>0.00</rpm>
</extensions>
</trkpt>
<trkpt lat="30.663585663" lon="34.870567322">
<ele>756.750000</ele>
<time>2013-11-22T07:54:38Z</time>
<speed>3.180000</speed>
<extensions>
<speed>3.2</speed>
<temp>0.00</temp>
<bpm>0</bpm>
<rpm>0.00</rpm>
</extensions>
</trkpt>
<trkpt lat="30.663618088" lon="34.870685577">
<ele>758.437500</ele>
<time>2013-11-22T07:54:43Z</time>
<speed>2.030000</speed>
<extensions>
<speed>2.0</speed>
<temp>0.00</temp>
<bpm>0</bpm>
<rpm>0.00</rpm>
</extensions>
</trkpt>
<trkpt lat="30.663686752" lon="34.870765686">
<ele>759.296875</ele>
<time>2013-11-22T07:54:48Z</time>
<speed>2.590000</speed>
<extensions>
<speed>2.6</speed>
<temp>0.00</temp>
<bpm>0</bpm>
<rpm>0.00</rpm>
</extensions>
</trkpt>
<trkpt lat="30.663738251" lon="34.870880127">
<ele>759.250000</ele>
<time>2013-11-22T07:54:53Z</time>
<speed>1.770000</speed>
<extensions>
<speed>1.8</speed>
<temp>0.00</temp>
<bpm>0</bpm>
<rpm>0.00</rpm>
</extensions>
</trkpt>
<trkpt lat="30.663753510" lon="34.870956421">
<ele>762.406250</ele>
<time>2013-11-22T07:54:58Z</time>
<speed>1.640000</speed>
<extensions>
<speed>1.6</speed>
<temp>0.00</temp>
<bpm>0</bpm>
<rpm>0.00</rpm>
</extensions>
</trkpt>
<trkpt lat="30.663776398" lon="34.871032715">
<ele>761.062500</ele>
<time>2013-11-22T07:55:03Z</time>
<speed>1.520000</speed>
<extensions>
<speed>1.5</speed>
<temp>0.00</temp>
<bpm>0</bpm>
<rpm>0.00</rpm>
</extensions>
</trkpt>
<trkpt lat="30.663833618" lon="34.871131897">
<ele>759.000000</ele>
<time>2013-11-22T07:55:08Z</time>
<speed>2.130000</speed>
<extensions>
<speed>2.1</speed>
<temp>0.00</temp>
<bpm>0</bpm>
<rpm>0.00</rpm>
</extensions>
</trkpt>
<trkpt lat="30.663864136" lon="34.871212006">
<ele>757.078125</ele>
<time>2013-11-22T07:55:13Z</time>
<speed>1.520000</speed>
<extensions>
<speed>1.5</speed>
<temp>0.00</temp>
<bpm>0</bpm>
<rpm>0.00</rpm>
</extensions>
</trkpt>
<trkpt lat="30.663887024" lon="34.871322632">
<ele>755.656250</ele>
<time>2013-11-22T07:55:18Z</time>
<speed>2.450000</speed>
<extensions>
<speed>2.4</speed>
<temp>0.00</temp>
<bpm>0</bpm>
<rpm>0.00</rpm>
</extensions>
</trkpt>
<trkpt lat="30.663888931" lon="34.871452332">
<ele>756.125000</ele>
<time>2013-11-22T07:55:23Z</time>
<speed>2.430000</speed>
<extensions>
<speed>2.4</speed>
<temp>0.00</temp>
<bpm>0</bpm>
<rpm>0.00</rpm>
</extensions>
</trkpt>
<trkpt lat="30.663904190" lon="34.871604919">
<ele>755.203125</ele>
<time>2013-11-22T07:55:28Z</time>
<speed>3.060000</speed>
<extensions>
<speed>3.1</speed>
<temp>0.00</temp>
<bpm>0</bpm>
<rpm>0.00</rpm>
</extensions>
</trkpt>
<trkpt lat="30.663959503" lon="34.871788025">
<ele>752.687500</ele>
<time>2013-11-22T07:55:33Z</time>
<speed>3.520000</speed>
<extensions>
<speed>3.5</speed>
<temp>0.00</temp>
<bpm>0</bpm>
<rpm>0.00</rpm>
</extensions>
</trkpt>
<trkpt lat="30.664003372" lon="34.871929169">
<ele>754.890625</ele>
<time>2013-11-22T07:55:38Z</time>
<speed>2.650000</speed>
<extensions>
<speed>2.6</speed>
<temp>0.00</temp>
<bpm>0</bpm>
<rpm>0.00</rpm>
</extensions>
</trkpt>
<trkpt lat="30.664028168" lon="34.872074127">
<ele>756.406250</ele>
<time>2013-11-22T07:55:43Z</time>
<speed>3.110000</speed>
<extensions>
<speed>3.1</speed>
<temp>0.00</temp>
<bpm>0</bpm>
<rpm>0.00</rpm>
</extensions>
</trkpt>
<trkpt lat="30.664024353" lon="34.872219086">
<ele>758.437500</ele>
<time>2013-11-22T07:55:48Z</time>
<speed>3.060000</speed>
<extensions>
<speed>3.1</speed>
<temp>0.00</temp>
<bpm>0</bpm>
<rpm>0.00</rpm>
</extensions>
</trkpt>
<trkpt lat="30.664007187" lon="34.872390747">
<ele>758.562500</ele>
<time>2013-11-22T07:55:53Z</time>
<speed>3.460000</speed>
<extensions>
<speed>3.5</speed>
<temp>0.00</temp>
<bpm>0</bpm>
<rpm>0.00</rpm>
</extensions>
</trkpt>
<trkpt lat="30.664062500" lon="34.872562408">
<ele>759.406250</ele>
<time>2013-11-22T07:55:58Z</time>
<speed>3.860000</speed>
<extensions>
<speed>3.9</speed>
<temp>0.00</temp>
<bpm>0</bpm>
<rpm>0.00</rpm>
</extensions>
</trkpt>
<trkpt lat="30.664169312" lon="34.872734070">
<ele>757.328125</ele>
<time>2013-11-22T07:56:03Z</time>
<speed>3.360000</speed>
<extensions>
<speed>3.4</speed>
<temp>0.00</temp>
<bpm>0</bpm>
<rpm>0.00</rpm>
</extensions>
</trkpt>
<trkpt lat="30.664251328" lon="34.872875214">
<ele>755.203125</ele>
<time>2013-11-22T07:56:08Z</time>
<speed>3.220000</speed>
<extensions>
<speed>3.2</speed>
<temp>0.00</temp>
<bpm>0</bpm>
<rpm>0.00</rpm>
</extensions>
</trkpt>
<trkpt lat="30.664323807" lon="34.873012543">
<ele>750.859375</ele>
<time>2013-11-22T07:56:13Z</time>
<speed>2.660000</speed>
<extensions>
<speed>2.7</speed>
<temp>0.00</temp>
<bpm>0</bpm>
<rpm>0.00</rpm>
</extensions>
</trkpt>
<trkpt lat="30.664329529" lon="34.873092651">
<ele>752.656250</ele>
<time>2013-11-22T07:56:18Z</time>
<speed>1.130000</speed>
<extensions>
<speed>1.1</speed>
<temp>0.00</temp>
<bpm>0</bpm>
<rpm>0.00</rpm>
</extensions>
</trkpt>
<trkpt lat="30.664314270" lon="34.873100281">
<ele>752.562500</ele>
<time>2013-11-22T07:56:23Z</time>
<speed>0.050000</speed>
<extensions>
<speed>0.1</speed>
<temp>0.00</temp>
<bpm>0</bpm>
<rpm>0.00</rpm>
</extensions>
</trkpt>
<trkpt lat="30.664314270" lon="34.873100281">
<ele>752.625000</ele>
<time>2013-11-22T07:56:28Z</time>
<speed>0.040000</speed>
<extensions>
<speed>0.0</speed>
<temp>0.00</temp>
<bpm>0</bpm>
<rpm>0.00</rpm>
</extensions>
</trkpt>
<trkpt lat="30.664310455" lon="34.873096466">
<ele>752.656250</ele>
<time>2013-11-22T07:56:33Z</time>
<extensions>
<speed>0.0</speed>
<temp>0.00</temp>
<bpm>0</bpm>
<rpm>0.00</rpm>
</extensions>
</trkpt>
<trkpt lat="30.664310455" lon="34.873096466">
<ele>752.656250</ele>
<time>2013-11-22T07:56:38Z</time>
<speed>0.180000</speed>
<extensions>
<speed>0.2</speed>
<temp>0.00</temp>
<bpm>0</bpm>
<rpm>0.00</rpm>
</extensions>
</trkpt>
<trkpt lat="30.664312363" lon="34.873111725">
<ele>752.640625</ele>
<time>2013-11-22T07:56:43Z</time>
<speed>0.430000</speed>
<extensions>
<speed>0.4</speed>
<temp>0.00</temp>
<bpm>0</bpm>
<rpm>0.00</rpm>
</extensions>
</trkpt>
<trkpt lat="30.664274216" lon="34.873165131">
<ele>752.796875</ele>
<time>2013-11-22T07:56:48Z</time>
<speed>2.270000</speed>
<extensions>
<speed>2.3</speed>
<temp>0.00</temp>
<bpm>0</bpm>
<rpm>0.00</rpm>
</extensions>
</trkpt>
<trkpt lat="30.664182663" lon="34.873275757">
<ele>753.265625</ele>
<time>2013-11-22T07:56:53Z</time>
<speed>2.830000</speed>
<extensions>
<speed>2.8</speed>
<temp>0.00</temp>
<bpm>0</bpm>
<rpm>0.00</rpm>
</extensions>
</trkpt>
<trkpt lat="30.664068222" lon="34.873355865">
<ele>752.453125</ele>
<time>2013-11-22T07:56:58Z</time>
<speed>2.470000</speed>
<extensions>
<speed>2.5</speed>
<temp>0.00</temp>
<bpm>0</bpm>
<rpm>0.00</rpm>
</extensions>
</trkpt>
<trkpt lat="30.663969040" lon="34.873439789">
<ele>751.078125</ele>
<time>2013-11-22T07:57:03Z</time>
<speed>2.700000</speed>
<extensions>
<speed>2.7</speed>
<temp>0.00</temp>
<bpm>0</bpm>
<rpm>0.00</rpm>
</extensions>
</trkpt>
<trkpt lat="30.663883209" lon="34.873512268">
<ele>750.281250</ele>
<time>2013-11-22T07:57:08Z</time>
<speed>1.600000</speed>
<extensions>
<speed>1.6</speed>
<temp>0.00</temp>
<bpm>0</bpm>
<rpm>0.00</rpm>
</extensions>
</trkpt>
<trkpt lat="30.663818359" lon="34.873561859">
<ele>750.531250</ele>
<time>2013-11-22T07:57:13Z</time>
<speed>1.520000</speed>
<extensions>
<speed>1.5</speed>
<temp>0.00</temp>
<bpm>0</bpm>
<rpm>0.00</rpm>
</extensions>
</trkpt>
<trkpt lat="30.663814545" lon="34.873596191">
<ele>750.812500</ele>
<time>2013-11-22T07:57:18Z</time>
<speed>0.410000</speed>
<extensions>
<speed>0.4</speed>
<temp>0.00</temp>
<bpm>0</bpm>
<rpm>0.00</rpm>
</extensions>
</trkpt>
<trkpt lat="30.663797379" lon="34.873615265">
<ele>750.875000</ele>
<time>2013-11-22T07:57:23Z</time>
<speed>0.480000</speed>
<extensions>
<speed>0.5</speed>
<temp>0.00</temp>
<bpm>0</bpm>
<rpm>0.00</rpm>
</extensions>
</trkpt>
<trkpt lat="30.663785934" lon="34.873630524">
<ele>750.328125</ele>
<time>2013-11-22T07:57:28Z</time>
<speed>0.220000</speed>
<extensions>
<speed>0.2</speed>
<temp>0.00</temp>
<bpm>0</bpm>
<rpm>0.00</rpm>
</extensions>
</trkpt>
<trkpt lat="30.663785934" lon="34.873638153">
<ele>749.578125</ele>
<time>2013-11-22T07:57:33Z</time>
<speed>0.040000</speed>
<extensions>
<speed>0.0</speed>
<temp>0.00</temp>
<bpm>0</bpm>
<rpm>0.00</rpm>
</extensions>
</trkpt>
<trkpt lat="30.663785934" lon="34.873638153">
<ele>749.328125</ele>
<time>2013-11-22T07:57:38Z</time>
<speed>0.040000</speed>
<extensions>
<speed>0.0</speed>
<temp>0.00</temp>
<bpm>0</bpm>
<rpm>0.00</rpm>
</extensions>
</trkpt>
<trkpt lat="30.663787842" lon="34.873638153">
<ele>749.078125</ele>
<time>2013-11-22T07:57:43Z</time>
<speed>0.060000</speed>
<extensions>
<speed>0.1</speed>
<temp>0.00</temp>
<bpm>0</bpm>
<rpm>0.00</rpm>
</extensions>
</trkpt>
<trkpt lat="30.663789749" lon="34.873641968">
<ele>748.921875</ele>
<time>2013-11-22T07:57:48Z</time>
<speed>0.010000</speed>
<extensions>
<speed>0.0</speed>
<temp>0.00</temp>
<bpm>0</bpm>
<rpm>0.00</rpm>
</extensions>
</trkpt>
<trkpt lat="30.663789749" lon="34.873641968">
<ele>748.890625</ele>
<time>2013-11-22T07:57:53Z</time>
<speed>0.020000</speed>
<extensions>
<speed>0.0</speed>
<temp>0.00</temp>
<bpm>0</bpm>
<rpm>0.00</rpm>
</extensions>
</trkpt>
<trkpt lat="30.663789749" lon="34.873641968">
<ele>748.875000</ele>
<time>2013-11-22T07:57:58Z</time>
<speed>0.020000</speed>
<extensions>
<speed>0.0</speed>
<temp>0.00</temp>
<bpm>0</bpm>
<rpm>0.00</rpm>
</extensions>
</trkpt>
<trkpt lat="30.663789749" lon="34.873641968">
<ele>748.859375</ele>
<time>2013-11-22T07:58:03Z</time>
<speed>0.010000</speed>
<extensions>
<speed>0.0</speed>
<temp>0.00</temp>
<bpm>0</bpm>
<rpm>0.00</rpm>
</extensions>
</trkpt>
<trkpt lat="30.663789749" lon="34.873641968">
<ele>748.843750</ele>
<time>2013-11-22T07:58:08Z</time>
<speed>0.020000</speed>
<extensions>
<speed>0.0</speed>
<temp>0.00</temp>
<bpm>0</bpm>
<rpm>0.00</rpm>
</extensions>
</trkpt>
<trkpt lat="30.663789749" lon="34.873641968">
<ele>748.812500</ele>
<time>2013-11-22T07:58:13Z</time>
<speed>0.010000</speed>
<extensions>
<speed>0.0</speed>
<temp>0.00</temp>
<bpm>0</bpm>
<rpm>0.00</rpm>
</extensions>
</trkpt>
<trkpt lat="30.663789749" lon="34.873638153">
<ele>748.781250</ele>
<time>2013-11-22T07:58:18Z</time>
<extensions>
<speed>0.0</speed>
<temp>0.00</temp>
<bpm>0</bpm>
<rpm>0.00</rpm>
</extensions>
</trkpt>
<trkpt lat="30.663789749" lon="34.873638153">
<ele>748.765625</ele>
<time>2013-11-22T07:58:23Z</time>
<extensions>
<speed>0.0</speed>
<temp>0.00</temp>
<bpm>0</bpm>
<rpm>0.00</rpm>
</extensions>
</trkpt>
<trkpt lat="30.663789749" lon="34.873638153">
<ele>748.750000</ele>
<time>2013-11-22T07:58:28Z</time>
<speed>0.010000</speed>
<extensions>
<speed>0.0</speed>
<temp>0.00</temp>
<bpm>0</bpm>
<rpm>0.00</rpm>
</extensions>
</trkpt>
<trkpt lat="30.663789749" lon="34.873638153">
<ele>748.750000</ele>
<time>2013-11-22T07:58:33Z</time>
<extensions>
<speed>0.0</speed>
<temp>0.00</temp>
<bpm>0</bpm>
<rpm>0.00</rpm>
</extensions>
</trkpt>
<trkpt lat="30.663789749" lon="34.873638153">
<ele>748.734375</ele>
<time>2013-11-22T07:58:38Z</time>
<speed>0.010000</speed>
<extensions>
<speed>0.0</speed>
<temp>0.00</temp>
<bpm>0</bpm>
<rpm>0.00</rpm>
</extensions>
</trkpt>
<trkpt lat="30.663789749" lon="34.873638153">
<ele>748.718750</ele>
<time>2013-11-22T07:58:43Z</time>
<speed>0.010000</speed>
<extensions>
<speed>0.0</speed>
<temp>0.00</temp>
<bpm>0</bpm>
<rpm>0.00</rpm>
</extensions>
</trkpt>
<trkpt lat="30.663789749" lon="34.873638153">
<ele>748.687500</ele>
<time>2013-11-22T07:58:48Z</time>
<speed>0.020000</speed>
<extensions>
<speed>0.0</speed>
<temp>0.00</temp>
<bpm>0</bpm>
<rpm>0.00</rpm>
</extensions>
</trkpt>
<trkpt lat="30.663789749" lon="34.873638153">
<ele>748.671875</ele>
<time>2013-11-22T07:58:53Z</time>
<speed>0.010000</speed>
<extensions>
<speed>0.0</speed>
<temp>0.00</temp>
<bpm>0</bpm>
<rpm>0.00</rpm>
</extensions>
</trkpt>
<trkpt lat="30.663789749" lon="34.873638153">
<ele>748.640625</ele>
<time>2013-11-22T07:58:58Z</time>
<speed>0.020000</speed>
<extensions>
<speed>0.0</speed>
<temp>0.00</temp>
<bpm>0</bpm>
<rpm>0.00</rpm>
</extensions>
</trkpt>
<trkpt lat="30.663789749" lon="34.873638153">
<ele>748.593750</ele>
<time>2013-11-22T07:59:03Z</time>
<speed>0.020000</speed>
<extensions>
<speed>0.0</speed>
<temp>0.00</temp>
<bpm>0</bpm>
<rpm>0.00</rpm>
</extensions>
</trkpt>
<trkpt lat="30.663789749" lon="34.873638153">
<ele>748.578125</ele>
<time>2013-11-22T07:59:08Z</time>
<speed>0.030000</speed>
<extensions>
<speed>0.0</speed>
<temp>0.00</temp>
<bpm>0</bpm>
<rpm>0.00</rpm>
</extensions>
</trkpt>
<trkpt lat="30.663791656" lon="34.873638153">
<ele>748.546875</ele>
<time>2013-11-22T07:59:13Z</time>
<speed>0.030000</speed>
<extensions>
<speed>0.0</speed>
<temp>0.00</temp>
<bpm>0</bpm>
<rpm>0.00</rpm>
</extensions>
</trkpt>
<trkpt lat="30.663791656" lon="34.873638153">
<ele>748.515625</ele>
<time>2013-11-22T07:59:18Z</time>
<speed>0.010000</speed>
<extensions>
<speed>0.0</speed>
<temp>0.00</temp>
<bpm>0</bpm>
<rpm>0.00</rpm>
</extensions>
</trkpt>
<trkpt lat="30.663791656" lon="34.873638153">
<ele>748.484375</ele>
<time>2013-11-22T07:59:23Z</time>
<speed>0.010000</speed>
<extensions>
<speed>0.0</speed>
<temp>0.00</temp>
<bpm>0</bpm>
<rpm>0.00</rpm>
</extensions>
</trkpt>
<trkpt lat="30.663791656" lon="34.873638153">
<ele>748.484375</ele>
<time>2013-11-22T07:59:28Z</time>
<speed>0.010000</speed>
<extensions>
<speed>0.0</speed>
<temp>0.00</temp>
<bpm>0</bpm>
<rpm>0.00</rpm>
</extensions>
</trkpt>
<trkpt lat="30.663791656" lon="34.873638153">
<ele>748.453125</ele>
<time>2013-11-22T07:59:33Z</time>
<extensions>
<speed>0.0</speed>
<temp>0.00</temp>
<bpm>0</bpm>
<rpm>0.00</rpm>
</extensions>
</trkpt>
<trkpt lat="30.663791656" lon="34.873638153">
<ele>748.437500</ele>
<time>2013-11-22T07:59:38Z</time>
<extensions>
<speed>0.0</speed>
<temp>0.00</temp>
<bpm>0</bpm>
<rpm>0.00</rpm>
</extensions>
</trkpt>
<trkpt lat="30.663791656" lon="34.873638153">
<ele>748.421875</ele>
<time>2013-11-22T07:59:43Z</time>
<extensions>
<speed>0.0</speed>
<temp>0.00</temp>
<bpm>0</bpm>
<rpm>0.00</rpm>
</extensions>
</trkpt>
<trkpt lat="30.663791656" lon="34.873638153">
<ele>748.390625</ele>
<time>2013-11-22T07:59:48Z</time>
<extensions>
<speed>0.0</speed>
<temp>0.00</temp>
<bpm>0</bpm>
<rpm>0.00</rpm>
</extensions>
</trkpt>
<trkpt lat="30.663791656" lon="34.873638153">
<ele>748.375000</ele>
<time>2013-11-22T07:59:53Z</time>
<extensions>
<speed>0.0</speed>
<temp>0.00</temp>
<bpm>0</bpm>
<rpm>0.00</rpm>
</extensions>
</trkpt>
<trkpt lat="30.663791656" lon="34.873638153">
<ele>748.359375</ele>
<time>2013-11-22T07:59:58Z</time>
<extensions>
<speed>0.0</speed>
<temp>0.00</temp>
<bpm>0</bpm>
<rpm>0.00</rpm>
</extensions>
</trkpt>
<trkpt lat="30.663791656" lon="34.873638153">
<ele>748.328125</ele>
<time>2013-11-22T08:00:03Z</time>
<extensions>
<speed>0.0</speed>
<temp>0.00</temp>
<bpm>0</bpm>
<rpm>0.00</rpm>
</extensions>
</trkpt>
<trkpt lat="30.663791656" lon="34.873638153">
<ele>748.328125</ele>
<time>2013-11-22T08:00:08Z</time>
<speed>0.010000</speed>
<extensions>
<speed>0.0</speed>
<temp>0.00</temp>
<bpm>0</bpm>
<rpm>0.00</rpm>
</extensions>
</trkpt>
<trkpt lat="30.663791656" lon="34.873638153">
<ele>748.328125</ele>
<time>2013-11-22T08:00:13Z</time>
<speed>0.030000</speed>
<extensions>
<speed>0.0</speed>
<temp>0.00</temp>
<bpm>0</bpm>
<rpm>0.00</rpm>
</extensions>
</trkpt>
<trkpt lat="30.663791656" lon="34.873638153">
<ele>748.328125</ele>
<time>2013-11-22T08:00:18Z</time>
<speed>0.020000</speed>
<extensions>
<speed>0.0</speed>
<temp>0.00</temp>
<bpm>0</bpm>
<rpm>0.00</rpm>
</extensions>
</trkpt>
<trkpt lat="30.663793564" lon="34.873638153">
<ele>748.328125</ele>
<time>2013-11-22T08:00:23Z</time>
<extensions>
<speed>0.0</speed>
<temp>0.00</temp>
<bpm>0</bpm>
<rpm>0.00</rpm>
</extensions>
</trkpt>
<trkpt lat="30.663793564" lon="34.873638153">
<ele>748.328125</ele>
<time>2013-11-22T08:00:28Z</time>
<extensions>
<speed>0.0</speed>
<temp>0.00</temp>
<bpm>0</bpm>
<rpm>0.00</rpm>
</extensions>
</trkpt>
<trkpt lat="30.663791656" lon="34.873638153">
<ele>748.359375</ele>
<time>2013-11-22T08:00:33Z</time>
<extensions>
<speed>0.0</speed>
<temp>0.00</temp>
<bpm>0</bpm>
<rpm>0.00</rpm>
</extensions>
</trkpt>
<trkpt lat="30.663791656" lon="34.873638153">
<ele>748.359375</ele>
<time>2013-11-22T08:00:38Z</time>
<extensions>
<speed>0.0</speed>
<temp>0.00</temp>
<bpm>0</bpm>
<rpm>0.00</rpm>
</extensions>
</trkpt>
<trkpt lat="30.663791656" lon="34.873638153">
<ele>748.390625</ele>
<time>2013-11-22T08:00:43Z</time>
<extensions>
<speed>0.0</speed>
<temp>0.00</temp>
<bpm>0</bpm>
<rpm>0.00</rpm>
</extensions>
</trkpt>
<trkpt lat="30.663789749" lon="34.873638153">
<ele>748.390625</ele>
<time>2013-11-22T08:00:48Z</time>
<extensions>
<speed>0.0</speed>
<temp>0.00</temp>
<bpm>0</bpm>
<rpm>0.00</rpm>
</extensions>
</trkpt>
<trkpt lat="30.663789749" lon="34.873638153">
<ele>748.406250</ele>
<time>2013-11-22T08:00:53Z</time>
<extensions>
<speed>0.0</speed>
<temp>0.00</temp>
<bpm>0</bpm>
<rpm>0.00</rpm>
</extensions>
</trkpt>
<trkpt lat="30.663789749" lon="34.873638153">
<ele>748.421875</ele>
<time>2013-11-22T08:00:58Z</time>
<extensions>
<speed>0.0</speed>
<temp>0.00</temp>
<bpm>0</bpm>
<rpm>0.00</rpm>
</extensions>
</trkpt>
<trkpt lat="30.663789749" lon="34.873638153">
<ele>748.421875</ele>
<time>2013-11-22T08:01:03Z</time>
<extensions>
<speed>0.0</speed>
<temp>0.00</temp>
<bpm>0</bpm>
<rpm>0.00</rpm>
</extensions>
</trkpt>
<trkpt lat="30.663789749" lon="34.873638153">
<ele>748.421875</ele>
<time>2013-11-22T08:01:08Z</time>
<extensions>
<speed>0.0</speed>
<temp>0.00</temp>
<bpm>0</bpm>
<rpm>0.00</rpm>
</extensions>
</trkpt>
<trkpt lat="30.663789749" lon="34.873638153">
<ele>748.437500</ele>
<time>2013-11-22T08:01:13Z</time>
<extensions>
<speed>0.0</speed>
<temp>0.00</temp>
<bpm>0</bpm>
<rpm>0.00</rpm>
</extensions>
</trkpt>
<trkpt lat="30.663789749" lon="34.873638153">
<ele>748.437500</ele>
<time>2013-11-22T08:01:18Z</time>
<extensions>
<speed>0.0</speed>
<temp>0.00</temp>
<bpm>0</bpm>
<rpm>0.00</rpm>
</extensions>
</trkpt>
<trkpt lat="30.663789749" lon="34.873638153">
<ele>748.437500</ele>
<time>2013-11-22T08:01:23Z</time>
<extensions>
<speed>0.0</speed>
<temp>0.00</temp>
<bpm>0</bpm>
<rpm>0.00</rpm>
</extensions>
</trkpt>
<trkpt lat="30.663789749" lon="34.873638153">
<ele>748.437500</ele>
<time>2013-11-22T08:01:28Z</time>
<extensions>
<speed>0.0</speed>
<temp>0.00</temp>
<bpm>0</bpm>
<rpm>0.00</rpm>
</extensions>
</trkpt>
<trkpt lat="30.663789749" lon="34.873638153">
<ele>748.453125</ele>
<time>2013-11-22T08:01:33Z</time>
<extensions>
<speed>0.0</speed>
<temp>0.00</temp>
<bpm>0</bpm>
<rpm>0.00</rpm>
</extensions>
</trkpt>
<trkpt lat="30.663787842" lon="34.873638153">
<ele>748.468750</ele>
<time>2013-11-22T08:01:38Z</time>
<extensions>
<speed>0.0</speed>
<temp>0.00</temp>
<bpm>0</bpm>
<rpm>0.00</rpm>
</extensions>
</trkpt>
<trkpt lat="30.663787842" lon="34.873638153">
<ele>748.468750</ele>
<time>2013-11-22T08:01:43Z</time>
<extensions>
<speed>0.0</speed>
<temp>0.00</temp>
<bpm>0</bpm>
<rpm>0.00</rpm>
</extensions>
</trkpt>
<trkpt lat="30.663787842" lon="34.873638153">
<ele>748.468750</ele>
<time>2013-11-22T08:01:48Z</time>
<extensions>
<speed>0.0</speed>
<temp>0.00</temp>
<bpm>0</bpm>
<rpm>0.00</rpm>
</extensions>
</trkpt>
<trkpt lat="30.663787842" lon="34.873638153">
<ele>748.484375</ele>
<time>2013-11-22T08:01:53Z</time>
<extensions>
<speed>0.0</speed>
<temp>0.00</temp>
<bpm>0</bpm>
<rpm>0.00</rpm>
</extensions>
</trkpt>
<trkpt lat="30.663787842" lon="34.873638153">
<ele>748.484375</ele>
<time>2013-11-22T08:01:58Z</time>
<extensions>
<speed>0.0</speed>
<temp>0.00</temp>
<bpm>0</bpm>
<rpm>0.00</rpm>
</extensions>
</trkpt>
<trkpt lat="30.663787842" lon="34.873638153">
<ele>748.484375</ele>
<time>2013-11-22T08:02:03Z</time>
<extensions>
<speed>0.0</speed>
<temp>0.00</temp>
<bpm>0</bpm>
<rpm>0.00</rpm>
</extensions>
</trkpt>
<trkpt lat="30.663787842" lon="34.873638153">
<ele>748.484375</ele>
<time>2013-11-22T08:02:08Z</time>
<extensions>
<speed>0.0</speed>
<temp>0.00</temp>
<bpm>0</bpm>
<rpm>0.00</rpm>
</extensions>
</trkpt>
<trkpt lat="30.663787842" lon="34.873638153">
<ele>748.484375</ele>
<time>2013-11-22T08:02:13Z</time>
<extensions>
<speed>0.0</speed>
<temp>0.00</temp>
<bpm>0</bpm>
<rpm>0.00</rpm>
</extensions>
</trkpt>
<trkpt lat="30.663787842" lon="34.873638153">
<ele>748.484375</ele>
<time>2013-11-22T08:02:18Z</time>
<extensions>
<speed>0.0</speed>
<temp>0.00</temp>
<bpm>0</bpm>
<rpm>0.00</rpm>
</extensions>
</trkpt>
<trkpt lat="30.663787842" lon="34.873638153">
<ele>748.484375</ele>
<time>2013-11-22T08:02:23Z</time>
<speed>0.010000</speed>
<extensions>
<speed>0.0</speed>
<temp>0.00</temp>
<bpm>0</bpm>
<rpm>0.00</rpm>
</extensions>
</trkpt>
<trkpt lat="30.663787842" lon="34.873638153">
<ele>748.500000</ele>
<time>2013-11-22T08:02:28Z</time>
<extensions>
<speed>0.0</speed>
<temp>0.00</temp>
<bpm>0</bpm>
<rpm>0.00</rpm>
</extensions>
</trkpt>
<trkpt lat="30.663787842" lon="34.873638153">
<ele>748.500000</ele>
<time>2013-11-22T08:02:33Z</time>
<extensions>
<speed>0.0</speed>
<temp>0.00</temp>
<bpm>0</bpm>
<rpm>0.00</rpm>
</extensions>
</trkpt>
<trkpt lat="30.663787842" lon="34.873638153">
<ele>748.515625</ele>
<time>2013-11-22T08:02:38Z</time>
<extensions>
<speed>0.0</speed>
<temp>0.00</temp>
<bpm>0</bpm>
<rpm>0.00</rpm>
</extensions>
</trkpt>
<trkpt lat="30.663787842" lon="34.873638153">
<ele>748.531250</ele>
<time>2013-11-22T08:02:43Z</time>
<extensions>
<speed>0.0</speed>
<temp>0.00</temp>
<bpm>0</bpm>
<rpm>0.00</rpm>
</extensions>
</trkpt>
<trkpt lat="30.663785934" lon="34.873638153">
<ele>748.546875</ele>
<time>2013-11-22T08:02:48Z</time>
<speed>0.010000</speed>
<extensions>
<speed>0.0</speed>
<temp>0.00</temp>
<bpm>0</bpm>
<rpm>0.00</rpm>
</extensions>
</trkpt>
<trkpt lat="30.663785934" lon="34.873638153">
<ele>748.562500</ele>
<time>2013-11-22T08:02:53Z</time>
<speed>0.010000</speed>
<extensions>
<speed>0.0</speed>
<temp>0.00</temp>
<bpm>0</bpm>
<rpm>0.00</rpm>
</extensions>
</trkpt>
<trkpt lat="30.663785934" lon="34.873638153">
<ele>748.562500</ele>
<time>2013-11-22T08:02:58Z</time>
<speed>0.020000</speed>
<extensions>
<speed>0.0</speed>
<temp>0.00</temp>
<bpm>0</bpm>
<rpm>0.00</rpm>
</extensions>
</trkpt>
<trkpt lat="30.663785934" lon="34.873638153">
<ele>748.546875</ele>
<time>2013-11-22T08:03:03Z</time>
<speed>0.070000</speed>
<extensions>
<speed>0.1</speed>
<temp>0.00</temp>
<bpm>0</bpm>
<rpm>0.00</rpm>
</extensions>
</trkpt>
<trkpt lat="30.663785934" lon="34.873634338">
<ele>748.593750</ele>
<time>2013-11-22T08:03:08Z</time>
<speed>0.030000</speed>
<extensions>
<speed>0.0</speed>
<temp>0.00</temp>
<bpm>0</bpm>
<rpm>0.00</rpm>
</extensions>
</trkpt>
<trkpt lat="30.663785934" lon="34.873634338">
<ele>748.562500</ele>
<time>2013-11-22T08:03:13Z</time>
<speed>0.020000</speed>
<extensions>
<speed>0.0</speed>
<temp>0.00</temp>
<bpm>0</bpm>
<rpm>0.00</rpm>
</extensions>
</trkpt>
<trkpt lat="30.663785934" lon="34.873634338">
<ele>748.562500</ele>
<time>2013-11-22T08:03:18Z</time>
<extensions>
<speed>0.0</speed>
<temp>0.00</temp>
<bpm>0</bpm>
<rpm>0.00</rpm>
</extensions>
</trkpt>
<trkpt lat="30.663785934" lon="34.873634338">
<ele>748.562500</ele>
<time>2013-11-22T08:03:23Z</time>
<speed>0.010000</speed>
<extensions>
<speed>0.0</speed>
<temp>0.00</temp>
<bpm>0</bpm>
<rpm>0.00</rpm>
</extensions>
</trkpt>
<trkpt lat="30.663785934" lon="34.873634338">
<ele>748.562500</ele>
<time>2013-11-22T08:03:28Z</time>
<extensions>
<speed>0.0</speed>
<temp>0.00</temp>
<bpm>0</bpm>
<rpm>0.00</rpm>
</extensions>
</trkpt>
<trkpt lat="30.663785934" lon="34.873634338">
<ele>748.562500</ele>
<time>2013-11-22T08:03:33Z</time>
<extensions>
<speed>0.0</speed>
<temp>0.00</temp>
<bpm>0</bpm>
<rpm>0.00</rpm>
</extensions>
</trkpt>
<trkpt lat="30.663785934" lon="34.873634338">
<ele>748.562500</ele>
<time>2013-11-22T08:03:38Z</time>
<extensions>
<speed>0.0</speed>
<temp>0.00</temp>
<bpm>0</bpm>
<rpm>0.00</rpm>
</extensions>
</trkpt>
<trkpt lat="30.663785934" lon="34.873634338">
<ele>748.562500</ele>
<time>2013-11-22T08:03:43Z</time>
<extensions>
<speed>0.0</speed>
<temp>0.00</temp>
<bpm>0</bpm>
<rpm>0.00</rpm>
</extensions>
</trkpt>
<trkpt lat="30.663785934" lon="34.873634338">
<ele>748.562500</ele>
<time>2013-11-22T08:03:48Z</time>
<extensions>
<speed>0.0</speed>
<temp>0.00</temp>
<bpm>0</bpm>
<rpm>0.00</rpm>
</extensions>
</trkpt>
<trkpt lat="30.663785934" lon="34.873634338">
<ele>748.562500</ele>
<time>2013-11-22T08:03:53Z</time>
<extensions>
<speed>0.0</speed>
<temp>0.00</temp>
<bpm>0</bpm>
<rpm>0.00</rpm>
</extensions>
</trkpt>
<trkpt lat="30.663785934" lon="34.873634338">
<ele>748.578125</ele>
<time>2013-11-22T08:03:58Z</time>
<extensions>
<speed>0.0</speed>
<temp>0.00</temp>
<bpm>0</bpm>
<rpm>0.00</rpm>
</extensions>
</trkpt>
<trkpt lat="30.663785934" lon="34.873634338">
<ele>748.578125</ele>
<time>2013-11-22T08:04:03Z</time>
<speed>0.010000</speed>
<extensions>
<speed>0.0</speed>
<temp>0.00</temp>
<bpm>0</bpm>
<rpm>0.00</rpm>
</extensions>
</trkpt>
<trkpt lat="30.663785934" lon="34.873634338">
<ele>748.578125</ele>
<time>2013-11-22T08:04:08Z</time>
<extensions>
<speed>0.0</speed>
<temp>0.00</temp>
<bpm>0</bpm>
<rpm>0.00</rpm>
</extensions>
</trkpt>
<trkpt lat="30.663785934" lon="34.873634338">
<ele>748.578125</ele>
<time>2013-11-22T08:04:13Z</time>
<speed>0.010000</speed>
<extensions>
<speed>0.0</speed>
<temp>0.00</temp>
<bpm>0</bpm>
<rpm>0.00</rpm>
</extensions>
</trkpt>
<trkpt lat="30.663785934" lon="34.873634338">
<ele>748.578125</ele>
<time>2013-11-22T08:04:18Z</time>
<speed>0.010000</speed>
<extensions>
<speed>0.0</speed>
<temp>0.00</temp>
<bpm>0</bpm>
<rpm>0.00</rpm>
</extensions>
</trkpt>
<trkpt lat="30.663785934" lon="34.873634338">
<ele>748.593750</ele>
<time>2013-11-22T08:04:23Z</time>
<extensions>
<speed>0.0</speed>
<temp>0.00</temp>
<bpm>0</bpm>
<rpm>0.00</rpm>
</extensions>
</trkpt>
<trkpt lat="30.663785934" lon="34.873634338">
<ele>748.593750</ele>
<time>2013-11-22T08:04:28Z</time>
<extensions>
<speed>0.0</speed>
<temp>0.00</temp>
<bpm>0</bpm>
<rpm>0.00</rpm>
</extensions>
</trkpt>
<trkpt lat="30.663785934" lon="34.873634338">
<ele>748.593750</ele>
<time>2013-11-22T08:04:33Z</time>
<speed>0.010000</speed>
<extensions>
<speed>0.0</speed>
<temp>0.00</temp>
<bpm>0</bpm>
<rpm>0.00</rpm>
</extensions>
</trkpt>
<trkpt lat="30.663785934" lon="34.873634338">
<ele>748.609375</ele>
<time>2013-11-22T08:04:38Z</time>
<extensions>
<speed>0.0</speed>
<temp>0.00</temp>
<bpm>0</bpm>
<rpm>0.00</rpm>
</extensions>
</trkpt>
<trkpt lat="30.663785934" lon="34.873634338">
<ele>748.609375</ele>
<time>2013-11-22T08:04:43Z</time>
<speed>0.010000</speed>
<extensions>
<speed>0.0</speed>
<temp>0.00</temp>
<bpm>0</bpm>
<rpm>0.00</rpm>
</extensions>
</trkpt>
<trkpt lat="30.663785934" lon="34.873634338">
<ele>748.609375</ele>
<time>2013-11-22T08:04:48Z</time>
<extensions>
<speed>0.0</speed>
<temp>0.00</temp>
<bpm>0</bpm>
<rpm>0.00</rpm>
</extensions>
</trkpt>
<trkpt lat="30.663785934" lon="34.873634338">
<ele>748.593750</ele>
<time>2013-11-22T08:04:53Z</time>
<speed>0.010000</speed>
<extensions>
<speed>0.0</speed>
<temp>0.00</temp>
<bpm>0</bpm>
<rpm>0.00</rpm>
</extensions>
</trkpt>
<trkpt lat="30.663785934" lon="34.873634338">
<ele>748.609375</ele>
<time>2013-11-22T08:04:58Z</time>
<extensions>
<speed>0.0</speed>
<temp>0.00</temp>
<bpm>0</bpm>
<rpm>0.00</rpm>
</extensions>
</trkpt>
<trkpt lat="30.663785934" lon="34.873634338">
<ele>748.625000</ele>
<time>2013-11-22T08:05:03Z</time>
<speed>0.010000</speed>
<extensions>
<speed>0.0</speed>
<temp>0.00</temp>
<bpm>0</bpm>
<rpm>0.00</rpm>
</extensions>
</trkpt>
<trkpt lat="30.663785934" lon="34.873634338">
<ele>748.625000</ele>
<time>2013-11-22T08:05:08Z</time>
<extensions>
<speed>0.0</speed>
<temp>0.00</temp>
<bpm>0</bpm>
<rpm>0.00</rpm>
</extensions>
</trkpt>
<trkpt lat="30.663787842" lon="34.873634338">
<ele>748.640625</ele>
<time>2013-11-22T08:05:13Z</time>
<extensions>
<speed>0.0</speed>
<temp>0.00</temp>
<bpm>0</bpm>
<rpm>0.00</rpm>
</extensions>
</trkpt>
<trkpt lat="30.663787842" lon="34.873634338">
<ele>748.640625</ele>
<time>2013-11-22T08:05:18Z</time>
<extensions>
<speed>0.0</speed>
<temp>0.00</temp>
<bpm>0</bpm>
<rpm>0.00</rpm>
</extensions>
</trkpt>
<trkpt lat="30.663787842" lon="34.873634338">
<ele>748.656250</ele>
<time>2013-11-22T08:05:23Z</time>
<extensions>
<speed>0.0</speed>
<temp>0.00</temp>
<bpm>0</bpm>
<rpm>0.00</rpm>
</extensions>
</trkpt>
<trkpt lat="30.663787842" lon="34.873634338">
<ele>748.656250</ele>
<time>2013-11-22T08:05:28Z</time>
<speed>0.010000</speed>
<extensions>
<speed>0.0</speed>
<temp>0.00</temp>
<bpm>0</bpm>
<rpm>0.00</rpm>
</extensions>
</trkpt>
<trkpt lat="30.663787842" lon="34.873634338">
<ele>748.656250</ele>
<time>2013-11-22T08:05:33Z</time>
<speed>0.010000</speed>
<extensions>
<speed>0.0</speed>
<temp>0.00</temp>
<bpm>0</bpm>
<rpm>0.00</rpm>
</extensions>
</trkpt>
<trkpt lat="30.663787842" lon="34.873634338">
<ele>748.671875</ele>
<time>2013-11-22T08:05:38Z</time>
<extensions>
<speed>0.0</speed>
<temp>0.00</temp>
<bpm>0</bpm>
<rpm>0.00</rpm>
</extensions>
</trkpt>
<trkpt lat="30.663787842" lon="34.873634338">
<ele>748.656250</ele>
<time>2013-11-22T08:05:43Z</time>
<extensions>
<speed>0.0</speed>
<temp>0.00</temp>
<bpm>0</bpm>
<rpm>0.00</rpm>
</extensions>
</trkpt>
<trkpt lat="30.663787842" lon="34.873634338">
<ele>748.656250</ele>
<time>2013-11-22T08:05:48Z</time>
<extensions>
<speed>0.0</speed>
<temp>0.00</temp>
<bpm>0</bpm>
<rpm>0.00</rpm>
</extensions>
</trkpt>
<trkpt lat="30.663787842" lon="34.873634338">
<ele>748.656250</ele>
<time>2013-11-22T08:05:53Z</time>
<extensions>
<speed>0.0</speed>
<temp>0.00</temp>
<bpm>0</bpm>
<rpm>0.00</rpm>
</extensions>
</trkpt>
<trkpt lat="30.663787842" lon="34.873634338">
<ele>748.671875</ele>
<time>2013-11-22T08:05:58Z</time>
<extensions>
<speed>0.0</speed>
<temp>0.00</temp>
<bpm>0</bpm>
<rpm>0.00</rpm>
</extensions>
</trkpt>
<trkpt lat="30.663787842" lon="34.873634338">
<ele>748.671875</ele>
<time>2013-11-22T08:06:03Z</time>
<extensions>
<speed>0.0</speed>
<temp>0.00</temp>
<bpm>0</bpm>
<rpm>0.00</rpm>
</extensions>
</trkpt>
<trkpt lat="30.663787842" lon="34.873634338">
<ele>748.671875</ele>
<time>2013-11-22T08:06:08Z</time>
<extensions>
<speed>0.0</speed>
<temp>0.00</temp>
<bpm>0</bpm>
<rpm>0.00</rpm>
</extensions>
</trkpt>
<trkpt lat="30.663787842" lon="34.873634338">
<ele>748.671875</ele>
<time>2013-11-22T08:06:13Z</time>
<extensions>
<speed>0.0</speed>
<temp>0.00</temp>
<bpm>0</bpm>
<rpm>0.00</rpm>
</extensions>
</trkpt>
<trkpt lat="30.663787842" lon="34.873634338">
<ele>748.671875</ele>
<time>2013-11-22T08:06:18Z</time>
<extensions>
<speed>0.0</speed>
<temp>0.00</temp>
<bpm>0</bpm>
<rpm>0.00</rpm>
</extensions>
</trkpt>
<trkpt lat="30.663787842" lon="34.873634338">
<ele>748.671875</ele>
<time>2013-11-22T08:06:23Z</time>
<extensions>
<speed>0.0</speed>
<temp>0.00</temp>
<bpm>0</bpm>
<rpm>0.00</rpm>
</extensions>
</trkpt>
<trkpt lat="30.663787842" lon="34.873634338">
<ele>748.671875</ele>
<time>2013-11-22T08:06:28Z</time>
<extensions>
<speed>0.0</speed>
<temp>0.00</temp>
<bpm>0</bpm>
<rpm>0.00</rpm>
</extensions>
</trkpt>
<trkpt lat="30.663787842" lon="34.873634338">
<ele>748.671875</ele>
<time>2013-11-22T08:06:33Z</time>
<extensions>
<speed>0.0</speed>
<temp>0.00</temp>
<bpm>0</bpm>
<rpm>0.00</rpm>
</extensions>
</trkpt>
<trkpt lat="30.663787842" lon="34.873634338">
<ele>748.656250</ele>
<time>2013-11-22T08:06:38Z</time>
<extensions>
<speed>0.0</speed>
<temp>0.00</temp>
<bpm>0</bpm>
<rpm>0.00</rpm>
</extensions>
</trkpt>
<trkpt lat="30.663787842" lon="34.873634338">
<ele>748.656250</ele>
<time>2013-11-22T08:06:43Z</time>
<extensions>
<speed>0.0</speed>
<temp>0.00</temp>
<bpm>0</bpm>
<rpm>0.00</rpm>
</extensions>
</trkpt>
<trkpt lat="30.663787842" lon="34.873634338">
<ele>748.656250</ele>
<time>2013-11-22T08:06:48Z</time>
<extensions>
<speed>0.0</speed>
<temp>0.00</temp>
<bpm>0</bpm>
<rpm>0.00</rpm>
</extensions>
</trkpt>
<trkpt lat="30.663787842" lon="34.873634338">
<ele>748.656250</ele>
<time>2013-11-22T08:06:53Z</time>
<extensions>
<speed>0.0</speed>
<temp>0.00</temp>
<bpm>0</bpm>
<rpm>0.00</rpm>
</extensions>
</trkpt>
<trkpt lat="30.663787842" lon="34.873634338">
<ele>748.656250</ele>
<time>2013-11-22T08:06:58Z</time>
<extensions>
<speed>0.0</speed>
<temp>0.00</temp>
<bpm>0</bpm>
<rpm>0.00</rpm>
</extensions>
</trkpt>
<trkpt lat="30.663787842" lon="34.873634338">
<ele>748.656250</ele>
<time>2013-11-22T08:07:03Z</time>
<extensions>
<speed>0.0</speed>
<temp>0.00</temp>
<bpm>0</bpm>
<rpm>0.00</rpm>
</extensions>
</trkpt>
<trkpt lat="30.663787842" lon="34.873634338">
<ele>748.656250</ele>
<time>2013-11-22T08:07:08Z</time>
<extensions>
<speed>0.0</speed>
<temp>0.00</temp>
<bpm>0</bpm>
<rpm>0.00</rpm>
</extensions>
</trkpt>
<trkpt lat="30.663787842" lon="34.873634338">
<ele>748.671875</ele>
<time>2013-11-22T08:07:13Z</time>
<extensions>
<speed>0.0</speed>
<temp>0.00</temp>
<bpm>0</bpm>
<rpm>0.00</rpm>
</extensions>
</trkpt>
<trkpt lat="30.663787842" lon="34.873634338">
<ele>748.671875</ele>
<time>2013-11-22T08:07:18Z</time>
<extensions>
<speed>0.0</speed>
<temp>0.00</temp>
<bpm>0</bpm>
<rpm>0.00</rpm>
</extensions>
</trkpt>
<trkpt lat="30.663787842" lon="34.873634338">
<ele>748.671875</ele>
<time>2013-11-22T08:07:23Z</time>
<extensions>
<speed>0.0</speed>
<temp>0.00</temp>
<bpm>0</bpm>
<rpm>0.00</rpm>
</extensions>
</trkpt>
<trkpt lat="30.663787842" lon="34.873634338">
<ele>748.671875</ele>
<time>2013-11-22T08:07:28Z</time>
<extensions>
<speed>0.0</speed>
<temp>0.00</temp>
<bpm>0</bpm>
<rpm>0.00</rpm>
</extensions>
</trkpt>
<trkpt lat="30.663789749" lon="34.873634338">
<ele>748.671875</ele>
<time>2013-11-22T08:07:33Z</time>
<extensions>
<speed>0.0</speed>
<temp>0.00</temp>
<bpm>0</bpm>
<rpm>0.00</rpm>
</extensions>
</trkpt>
<trkpt lat="30.663789749" lon="34.873634338">
<ele>748.671875</ele>
<time>2013-11-22T08:07:38Z</time>
<extensions>
<speed>0.0</speed>
<temp>0.00</temp>
<bpm>0</bpm>
<rpm>0.00</rpm>
</extensions>
</trkpt>
<trkpt lat="30.663789749" lon="34.873634338">
<ele>748.687500</ele>
<time>2013-11-22T08:07:43Z</time>
<extensions>
<speed>0.0</speed>
<temp>0.00</temp>
<bpm>0</bpm>
<rpm>0.00</rpm>
</extensions>
</trkpt>
<trkpt lat="30.663789749" lon="34.873634338">
<ele>748.687500</ele>
<time>2013-11-22T08:07:48Z</time>
<extensions>
<speed>0.0</speed>
<temp>0.00</temp>
<bpm>0</bpm>
<rpm>0.00</rpm>
</extensions>
</trkpt>
<trkpt lat="30.663789749" lon="34.873634338">
<ele>748.687500</ele>
<time>2013-11-22T08:07:53Z</time>
<extensions>
<speed>0.0</speed>
<temp>0.00</temp>
<bpm>0</bpm>
<rpm>0.00</rpm>
</extensions>
</trkpt>
<trkpt lat="30.663789749" lon="34.873634338">
<ele>748.687500</ele>
<time>2013-11-22T08:07:58Z</time>
<extensions>
<speed>0.0</speed>
<temp>0.00</temp>
<bpm>0</bpm>
<rpm>0.00</rpm>
</extensions>
</trkpt>
<trkpt lat="30.663789749" lon="34.873634338">
<ele>748.687500</ele>
<time>2013-11-22T08:08:03Z</time>
<extensions>
<speed>0.0</speed>
<temp>0.00</temp>
<bpm>0</bpm>
<rpm>0.00</rpm>
</extensions>
</trkpt>
<trkpt lat="30.663789749" lon="34.873638153">
<ele>748.687500</ele>
<time>2013-11-22T08:08:08Z</time>
<extensions>
<speed>0.0</speed>
<temp>0.00</temp>
<bpm>0</bpm>
<rpm>0.00</rpm>
</extensions>
</trkpt>
<trkpt lat="30.663789749" lon="34.873638153">
<ele>748.687500</ele>
<time>2013-11-22T08:08:13Z</time>
<extensions>
<speed>0.0</speed>
<temp>0.00</temp>
<bpm>0</bpm>
<rpm>0.00</rpm>
</extensions>
</trkpt>
<trkpt lat="30.663789749" lon="34.873638153">
<ele>748.671875</ele>
<time>2013-11-22T08:08:18Z</time>
<speed>0.010000</speed>
<extensions>
<speed>0.0</speed>
<temp>0.00</temp>
<bpm>0</bpm>
<rpm>0.00</rpm>
</extensions>
</trkpt>
<trkpt lat="30.663789749" lon="34.873638153">
<ele>748.671875</ele>
<time>2013-11-22T08:08:23Z</time>
<speed>0.010000</speed>
<extensions>
<speed>0.0</speed>
<temp>0.00</temp>
<bpm>0</bpm>
<rpm>0.00</rpm>
</extensions>
</trkpt>
<trkpt lat="30.663789749" lon="34.873638153">
<ele>748.656250</ele>
<time>2013-11-22T08:08:28Z</time>
<extensions>
<speed>0.0</speed>
<temp>0.00</temp>
<bpm>0</bpm>
<rpm>0.00</rpm>
</extensions>
</trkpt>
<trkpt lat="30.663789749" lon="34.873638153">
<ele>748.656250</ele>
<time>2013-11-22T08:08:33Z</time>
<extensions>
<speed>0.0</speed>
<temp>0.00</temp>
<bpm>0</bpm>
<rpm>0.00</rpm>
</extensions>
</trkpt>
<trkpt lat="30.663789749" lon="34.873638153">
<ele>748.671875</ele>
<time>2013-11-22T08:08:38Z</time>
<extensions>
<speed>0.0</speed>
<temp>0.00</temp>
<bpm>0</bpm>
<rpm>0.00</rpm>
</extensions>
</trkpt>
<trkpt lat="30.663789749" lon="34.873638153">
<ele>748.656250</ele>
<time>2013-11-22T08:08:43Z</time>
<extensions>
<speed>0.0</speed>
<temp>0.00</temp>
<bpm>0</bpm>
<rpm>0.00</rpm>
</extensions>
</trkpt>
<trkpt lat="30.663789749" lon="34.873638153">
<ele>748.656250</ele>
<time>2013-11-22T08:08:48Z</time>
<extensions>
<speed>0.0</speed>
<temp>0.00</temp>
<bpm>0</bpm>
<rpm>0.00</rpm>
</extensions>
</trkpt>
<trkpt lat="30.663789749" lon="34.873638153">
<ele>748.656250</ele>
<time>2013-11-22T08:08:53Z</time>
<extensions>
<speed>0.0</speed>
<temp>0.00</temp>
<bpm>0</bpm>
<rpm>0.00</rpm>
</extensions>
</trkpt>
<trkpt lat="30.663789749" lon="34.873638153">
<ele>748.656250</ele>
<time>2013-11-22T08:08:58Z</time>
<extensions>
<speed>0.0</speed>
<temp>0.00</temp>
<bpm>0</bpm>
<rpm>0.00</rpm>
</extensions>
</trkpt>
<trkpt lat="30.663789749" lon="34.873638153">
<ele>748.656250</ele>
<time>2013-11-22T08:09:03Z</time>
<extensions>
<speed>0.0</speed>
<temp>0.00</temp>
<bpm>0</bpm>
<rpm>0.00</rpm>
</extensions>
</trkpt>
<trkpt lat="30.663789749" lon="34.873638153">
<ele>748.656250</ele>
<time>2013-11-22T08:09:08Z</time>
<extensions>
<speed>0.0</speed>
<temp>0.00</temp>
<bpm>0</bpm>
<rpm>0.00</rpm>
</extensions>
</trkpt>
<trkpt lat="30.663789749" lon="34.873638153">
<ele>748.656250</ele>
<time>2013-11-22T08:09:13Z</time>
<extensions>
<speed>0.0</speed>
<temp>0.00</temp>
<bpm>0</bpm>
<rpm>0.00</rpm>
</extensions>
</trkpt>
<trkpt lat="30.663789749" lon="34.873638153">
<ele>748.656250</ele>
<time>2013-11-22T08:09:18Z</time>
<extensions>
<speed>0.0</speed>
<temp>0.00</temp>
<bpm>0</bpm>
<rpm>0.00</rpm>
</extensions>
</trkpt>
<trkpt lat="30.663789749" lon="34.873638153">
<ele>748.671875</ele>
<time>2013-11-22T08:09:23Z</time>
<speed>0.010000</speed>
<extensions>
<speed>0.0</speed>
<temp>0.00</temp>
<bpm>0</bpm>
<rpm>0.00</rpm>
</extensions>
</trkpt>
<trkpt lat="30.663789749" lon="34.873638153">
<ele>748.671875</ele>
<time>2013-11-22T08:09:28Z</time>
<extensions>
<speed>0.0</speed>
<temp>0.00</temp>
<bpm>0</bpm>
<rpm>0.00</rpm>
</extensions>
</trkpt>
<trkpt lat="30.663789749" lon="34.873638153">
<ele>748.671875</ele>
<time>2013-11-22T08:09:33Z</time>
<extensions>
<speed>0.0</speed>
<temp>0.00</temp>
<bpm>0</bpm>
<rpm>0.00</rpm>
</extensions>
</trkpt>
<trkpt lat="30.663789749" lon="34.873638153">
<ele>748.671875</ele>
<time>2013-11-22T08:09:38Z</time>
<extensions>
<speed>0.0</speed>
<temp>0.00</temp>
<bpm>0</bpm>
<rpm>0.00</rpm>
</extensions>
</trkpt>
<trkpt lat="30.663789749" lon="34.873638153">
<ele>748.671875</ele>
<time>2013-11-22T08:09:43Z</time>
<extensions>
<speed>0.0</speed>
<temp>0.00</temp>
<bpm>0</bpm>
<rpm>0.00</rpm>
</extensions>
</trkpt>
<trkpt lat="30.663789749" lon="34.873638153">
<ele>748.671875</ele>
<time>2013-11-22T08:09:48Z</time>
<extensions>
<speed>0.0</speed>
<temp>0.00</temp>
<bpm>0</bpm>
<rpm>0.00</rpm>
</extensions>
</trkpt>
<trkpt lat="30.663789749" lon="34.873638153">
<ele>748.671875</ele>
<time>2013-11-22T08:09:53Z</time>
<extensions>
<speed>0.0</speed>
<temp>0.00</temp>
<bpm>0</bpm>
<rpm>0.00</rpm>
</extensions>
</trkpt>
<trkpt lat="30.663791656" lon="34.873638153">
<ele>748.687500</ele>
<time>2013-11-22T08:09:58Z</time>
<extensions>
<speed>0.0</speed>
<temp>0.00</temp>
<bpm>0</bpm>
<rpm>0.00</rpm>
</extensions>
</trkpt>
<trkpt lat="30.663791656" lon="34.873638153">
<ele>748.671875</ele>
<time>2013-11-22T08:10:03Z</time>
<extensions>
<speed>0.0</speed>
<temp>0.00</temp>
<bpm>0</bpm>
<rpm>0.00</rpm>
</extensions>
</trkpt>
<trkpt lat="30.663791656" lon="34.873638153">
<ele>748.671875</ele>
<time>2013-11-22T08:10:08Z</time>
<extensions>
<speed>0.0</speed>
<temp>0.00</temp>
<bpm>0</bpm>
<rpm>0.00</rpm>
</extensions>
</trkpt>
<trkpt lat="30.663791656" lon="34.873638153">
<ele>748.671875</ele>
<time>2013-11-22T08:10:13Z</time>
<extensions>
<speed>0.0</speed>
<temp>0.00</temp>
<bpm>0</bpm>
<rpm>0.00</rpm>
</extensions>
</trkpt>
<trkpt lat="30.663791656" lon="34.873638153">
<ele>748.671875</ele>
<time>2013-11-22T08:10:18Z</time>
<extensions>
<speed>0.0</speed>
<temp>0.00</temp>
<bpm>0</bpm>
<rpm>0.00</rpm>
</extensions>
</trkpt>
<trkpt lat="30.663791656" lon="34.873634338">
<ele>748.671875</ele>
<time>2013-11-22T08:10:23Z</time>
<extensions>
<speed>0.0</speed>
<temp>0.00</temp>
<bpm>0</bpm>
<rpm>0.00</rpm>
</extensions>
</trkpt>
<trkpt lat="30.663791656" lon="34.873634338">
<ele>748.671875</ele>
<time>2013-11-22T08:10:28Z</time>
<extensions>
<speed>0.0</speed>
<temp>0.00</temp>
<bpm>0</bpm>
<rpm>0.00</rpm>
</extensions>
</trkpt>
<trkpt lat="30.663791656" lon="34.873634338">
<ele>748.671875</ele>
<time>2013-11-22T08:10:33Z</time>
<extensions>
<speed>0.0</speed>
<temp>0.00</temp>
<bpm>0</bpm>
<rpm>0.00</rpm>
</extensions>
</trkpt>
<trkpt lat="30.663791656" lon="34.873634338">
<ele>748.687500</ele>
<time>2013-11-22T08:10:38Z</time>
<extensions>
<speed>0.0</speed>
<temp>0.00</temp>
<bpm>0</bpm>
<rpm>0.00</rpm>
</extensions>
</trkpt>
<trkpt lat="30.663791656" lon="34.873634338">
<ele>748.671875</ele>
<time>2013-11-22T08:10:43Z</time>
<extensions>
<speed>0.0</speed>
<temp>0.00</temp>
<bpm>0</bpm>
<rpm>0.00</rpm>
</extensions>
</trkpt>
<trkpt lat="30.663791656" lon="34.873634338">
<ele>748.671875</ele>
<time>2013-11-22T08:10:48Z</time>
<speed>0.010000</speed>
<extensions>
<speed>0.0</speed>
<temp>0.00</temp>
<bpm>0</bpm>
<rpm>0.00</rpm>
</extensions>
</trkpt>
<trkpt lat="30.663791656" lon="34.873634338">
<ele>748.671875</ele>
<time>2013-11-22T08:10:53Z</time>
<extensions>
<speed>0.0</speed>
<temp>0.00</temp>
<bpm>0</bpm>
<rpm>0.00</rpm>
</extensions>
</trkpt>
<trkpt lat="30.663791656" lon="34.873634338">
<ele>748.671875</ele>
<time>2013-11-22T08:10:58Z</time>
<extensions>
<speed>0.0</speed>
<temp>0.00</temp>
<bpm>0</bpm>
<rpm>0.00</rpm>
</extensions>
</trkpt>
<trkpt lat="30.663791656" lon="34.873634338">
<ele>748.671875</ele>
<time>2013-11-22T08:11:03Z</time>
<extensions>
<speed>0.0</speed>
<temp>0.00</temp>
<bpm>0</bpm>
<rpm>0.00</rpm>
</extensions>
</trkpt>
<trkpt lat="30.663791656" lon="34.873634338">
<ele>748.671875</ele>
<time>2013-11-22T08:11:08Z</time>
<extensions>
<speed>0.0</speed>
<temp>0.00</temp>
<bpm>0</bpm>
<rpm>0.00</rpm>
</extensions>
</trkpt>
<trkpt lat="30.663791656" lon="34.873634338">
<ele>748.671875</ele>
<time>2013-11-22T08:11:13Z</time>
<extensions>
<speed>0.0</speed>
<temp>0.00</temp>
<bpm>0</bpm>
<rpm>0.00</rpm>
</extensions>
</trkpt>
<trkpt lat="30.663791656" lon="34.873634338">
<ele>748.671875</ele>
<time>2013-11-22T08:11:18Z</time>
<extensions>
<speed>0.0</speed>
<temp>0.00</temp>
<bpm>0</bpm>
<rpm>0.00</rpm>
</extensions>
</trkpt>
<trkpt lat="30.663791656" lon="34.873634338">
<ele>748.671875</ele>
<time>2013-11-22T08:11:23Z</time>
<extensions>
<speed>0.0</speed>
<temp>0.00</temp>
<bpm>0</bpm>
<rpm>0.00</rpm>
</extensions>
</trkpt>
<trkpt lat="30.663791656" lon="34.873634338">
<ele>748.671875</ele>
<time>2013-11-22T08:11:28Z</time>
<extensions>
<speed>0.0</speed>
<temp>0.00</temp>
<bpm>0</bpm>
<rpm>0.00</rpm>
</extensions>
</trkpt>
<trkpt lat="30.663791656" lon="34.873634338">
<ele>748.671875</ele>
<time>2013-11-22T08:11:33Z</time>
<speed>0.010000</speed>
<extensions>
<speed>0.0</speed>
<temp>0.00</temp>
<bpm>0</bpm>
<rpm>0.00</rpm>
</extensions>
</trkpt>
<trkpt lat="30.663791656" lon="34.873634338">
<ele>748.671875</ele>
<time>2013-11-22T08:11:38Z</time>
<speed>0.010000</speed>
<extensions>
<speed>0.0</speed>
<temp>0.00</temp>
<bpm>0</bpm>
<rpm>0.00</rpm>
</extensions>
</trkpt>
<trkpt lat="30.663791656" lon="34.873634338">
<ele>748.687500</ele>
<time>2013-11-22T08:11:43Z</time>
<extensions>
<speed>0.0</speed>
<temp>0.00</temp>
<bpm>0</bpm>
<rpm>0.00</rpm>
</extensions>
</trkpt>
<trkpt lat="30.663791656" lon="34.873634338">
<ele>748.687500</ele>
<time>2013-11-22T08:11:48Z</time>
<extensions>
<speed>0.0</speed>
<temp>0.00</temp>
<bpm>0</bpm>
<rpm>0.00</rpm>
</extensions>
</trkpt>
<trkpt lat="30.663791656" lon="34.873634338">
<ele>748.703125</ele>
<time>2013-11-22T08:11:53Z</time>
<extensions>
<speed>0.0</speed>
<temp>0.00</temp>
<bpm>0</bpm>
<rpm>0.00</rpm>
</extensions>
</trkpt>
<trkpt lat="30.663791656" lon="34.873634338">
<ele>748.703125</ele>
<time>2013-11-22T08:11:58Z</time>
<extensions>
<speed>0.0</speed>
<temp>0.00</temp>
<bpm>0</bpm>
<rpm>0.00</rpm>
</extensions>
</trkpt>
<trkpt lat="30.663791656" lon="34.873634338">
<ele>748.703125</ele>
<time>2013-11-22T08:12:03Z</time>
<extensions>
<speed>0.0</speed>
<temp>0.00</temp>
<bpm>0</bpm>
<rpm>0.00</rpm>
</extensions>
</trkpt>
<trkpt lat="30.663791656" lon="34.873634338">
<ele>748.703125</ele>
<time>2013-11-22T08:12:08Z</time>
<speed>0.010000</speed>
<extensions>
<speed>0.0</speed>
<temp>0.00</temp>
<bpm>0</bpm>
<rpm>0.00</rpm>
</extensions>
</trkpt>
<trkpt lat="30.663791656" lon="34.873634338">
<ele>748.703125</ele>
<time>2013-11-22T08:12:13Z</time>
<extensions>
<speed>0.0</speed>
<temp>0.00</temp>
<bpm>0</bpm>
<rpm>0.00</rpm>
</extensions>
</trkpt>
<trkpt lat="30.663791656" lon="34.873634338">
<ele>748.703125</ele>
<time>2013-11-22T08:12:18Z</time>
<speed>0.010000</speed>
<extensions>
<speed>0.0</speed>
<temp>0.00</temp>
<bpm>0</bpm>
<rpm>0.00</rpm>
</extensions>
</trkpt>
<trkpt lat="30.663791656" lon="34.873634338">
<ele>748.718750</ele>
<time>2013-11-22T08:12:23Z</time>
<extensions>
<speed>0.0</speed>
<temp>0.00</temp>
<bpm>0</bpm>
<rpm>0.00</rpm>
</extensions>
</trkpt>
<trkpt lat="30.663791656" lon="34.873634338">
<ele>748.718750</ele>
<time>2013-11-22T08:12:28Z</time>
<extensions>
<speed>0.0</speed>
<temp>0.00</temp>
<bpm>0</bpm>
<rpm>0.00</rpm>
</extensions>
</trkpt>
<trkpt lat="30.663789749" lon="34.873634338">
<ele>748.718750</ele>
<time>2013-11-22T08:12:33Z</time>
<extensions>
<speed>0.0</speed>
<temp>0.00</temp>
<bpm>0</bpm>
<rpm>0.00</rpm>
</extensions>
</trkpt>
<trkpt lat="30.663789749" lon="34.873634338">
<ele>748.703125</ele>
<time>2013-11-22T08:12:38Z</time>
<extensions>
<speed>0.0</speed>
<temp>0.00</temp>
<bpm>0</bpm>
<rpm>0.00</rpm>
</extensions>
</trkpt>
<trkpt lat="30.663789749" lon="34.873634338">
<ele>748.718750</ele>
<time>2013-11-22T08:12:43Z</time>
<extensions>
<speed>0.0</speed>
<temp>0.00</temp>
<bpm>0</bpm>
<rpm>0.00</rpm>
</extensions>
</trkpt>
<trkpt lat="30.663789749" lon="34.873634338">
<ele>748.718750</ele>
<time>2013-11-22T08:12:48Z</time>
<extensions>
<speed>0.0</speed>
<temp>0.00</temp>
<bpm>0</bpm>
<rpm>0.00</rpm>
</extensions>
</trkpt>
<trkpt lat="30.663789749" lon="34.873634338">
<ele>748.718750</ele>
<time>2013-11-22T08:12:53Z</time>
<extensions>
<speed>0.0</speed>
<temp>0.00</temp>
<bpm>0</bpm>
<rpm>0.00</rpm>
</extensions>
</trkpt>
<trkpt lat="30.663789749" lon="34.873634338">
<ele>748.703125</ele>
<time>2013-11-22T08:12:58Z</time>
<extensions>
<speed>0.0</speed>
<temp>0.00</temp>
<bpm>0</bpm>
<rpm>0.00</rpm>
</extensions>
</trkpt>
<trkpt lat="30.663789749" lon="34.873634338">
<ele>748.703125</ele>
<time>2013-11-22T08:13:03Z</time>
<extensions>
<speed>0.0</speed>
<temp>0.00</temp>
<bpm>0</bpm>
<rpm>0.00</rpm>
</extensions>
</trkpt>
<trkpt lat="30.663789749" lon="34.873634338">
<ele>748.703125</ele>
<time>2013-11-22T08:13:08Z</time>
<extensions>
<speed>0.0</speed>
<temp>0.00</temp>
<bpm>0</bpm>
<rpm>0.00</rpm>
</extensions>
</trkpt>
<trkpt lat="30.663789749" lon="34.873630524">
<ele>748.703125</ele>
<time>2013-11-22T08:13:13Z</time>
<extensions>
<speed>0.0</speed>
<temp>0.00</temp>
<bpm>0</bpm>
<rpm>0.00</rpm>
</extensions>
</trkpt>
<trkpt lat="30.663789749" lon="34.873630524">
<ele>748.687500</ele>
<time>2013-11-22T08:13:18Z</time>
<extensions>
<speed>0.0</speed>
<temp>0.00</temp>
<bpm>0</bpm>
<rpm>0.00</rpm>
</extensions>
</trkpt>
<trkpt lat="30.663789749" lon="34.873630524">
<ele>748.703125</ele>
<time>2013-11-22T08:13:23Z</time>
<extensions>
<speed>0.0</speed>
<temp>0.00</temp>
<bpm>0</bpm>
<rpm>0.00</rpm>
</extensions>
</trkpt>
<trkpt lat="30.663789749" lon="34.873630524">
<ele>748.703125</ele>
<time>2013-11-22T08:13:28Z</time>
<extensions>
<speed>0.0</speed>
<temp>0.00</temp>
<bpm>0</bpm>
<rpm>0.00</rpm>
</extensions>
</trkpt>
<trkpt lat="30.663789749" lon="34.873630524">
<ele>748.703125</ele>
<time>2013-11-22T08:13:33Z</time>
<extensions>
<speed>0.0</speed>
<temp>0.00</temp>
<bpm>0</bpm>
<rpm>0.00</rpm>
</extensions>
</trkpt>
<trkpt lat="30.663789749" lon="34.873630524">
<ele>748.687500</ele>
<time>2013-11-22T08:13:38Z</time>
<extensions>
<speed>0.0</speed>
<temp>0.00</temp>
<bpm>0</bpm>
<rpm>0.00</rpm>
</extensions>
</trkpt>
<trkpt lat="30.663789749" lon="34.873630524">
<ele>748.687500</ele>
<time>2013-11-22T08:13:43Z</time>
<extensions>
<speed>0.0</speed>
<temp>0.00</temp>
<bpm>0</bpm>
<rpm>0.00</rpm>
</extensions>
</trkpt>
<trkpt lat="30.663789749" lon="34.873630524">
<ele>748.687500</ele>
<time>2013-11-22T08:13:48Z</time>
<extensions>
<speed>0.0</speed>
<temp>0.00</temp>
<bpm>0</bpm>
<rpm>0.00</rpm>
</extensions>
</trkpt>
<trkpt lat="30.663789749" lon="34.873630524">
<ele>748.687500</ele>
<time>2013-11-22T08:13:53Z</time>
<speed>0.010000</speed>
<extensions>
<speed>0.0</speed>
<temp>0.00</temp>
<bpm>0</bpm>
<rpm>0.00</rpm>
</extensions>
</trkpt>
<trkpt lat="30.663789749" lon="34.873630524">
<ele>748.703125</ele>
<time>2013-11-22T08:13:58Z</time>
<extensions>
<speed>0.0</speed>
<temp>0.00</temp>
<bpm>0</bpm>
<rpm>0.00</rpm>
</extensions>
</trkpt>
<trkpt lat="30.663789749" lon="34.873630524">
<ele>748.703125</ele>
<time>2013-11-22T08:14:03Z</time>
<extensions>
<speed>0.0</speed>
<temp>0.00</temp>
<bpm>0</bpm>
<rpm>0.00</rpm>
</extensions>
</trkpt>
<trkpt lat="30.663789749" lon="34.873630524">
<ele>748.703125</ele>
<time>2013-11-22T08:14:08Z</time>
<extensions>
<speed>0.0</speed>
<temp>0.00</temp>
<bpm>0</bpm>
<rpm>0.00</rpm>
</extensions>
</trkpt>
<trkpt lat="30.663789749" lon="34.873630524">
<ele>748.718750</ele>
<time>2013-11-22T08:14:13Z</time>
<speed>0.130000</speed>
<extensions>
<speed>0.1</speed>
<temp>0.00</temp>
<bpm>0</bpm>
<rpm>0.00</rpm>
</extensions>
</trkpt>
<trkpt lat="30.663791656" lon="34.873630524">
<ele>748.718750</ele>
<time>2013-11-22T08:14:18Z</time>
<speed>0.100000</speed>
<extensions>
<speed>0.1</speed>
<temp>0.00</temp>
<bpm>0</bpm>
<rpm>0.00</rpm>
</extensions>
</trkpt>
<trkpt lat="30.663791656" lon="34.873630524">
<ele>748.718750</ele>
<time>2013-11-22T08:14:23Z</time>
<speed>0.070000</speed>
<extensions>
<speed>0.1</speed>
<temp>0.00</temp>
<bpm>0</bpm>
<rpm>0.00</rpm>
</extensions>
</trkpt>
<trkpt lat="30.663801193" lon="34.873626709">
<ele>748.937500</ele>
<time>2013-11-22T08:14:28Z</time>
<speed>0.150000</speed>
<extensions>
<speed>0.2</speed>
<temp>0.00</temp>
<bpm>0</bpm>
<rpm>0.00</rpm>
</extensions>
</trkpt>
<trkpt lat="30.663803101" lon="34.873634338">
<ele>749.015625</ele>
<time>2013-11-22T08:14:33Z</time>
<speed>0.230000</speed>
<extensions>
<speed>0.2</speed>
<temp>0.00</temp>
<bpm>0</bpm>
<rpm>0.00</rpm>
</extensions>
</trkpt>
<trkpt lat="30.663799286" lon="34.873641968">
<ele>749.125000</ele>
<time>2013-11-22T08:14:38Z</time>
<speed>0.310000</speed>
<extensions>
<speed>0.3</speed>
<temp>0.00</temp>
<bpm>0</bpm>
<rpm>0.00</rpm>
</extensions>
</trkpt>
<trkpt lat="30.663797379" lon="34.873653412">
<ele>749.046875</ele>
<time>2013-11-22T08:14:43Z</time>
<speed>0.010000</speed>
<extensions>
<speed>0.0</speed>
<temp>0.00</temp>
<bpm>0</bpm>
<rpm>0.00</rpm>
</extensions>
</trkpt>
<trkpt lat="30.663803101" lon="34.873653412">
<ele>748.843750</ele>
<time>2013-11-22T08:14:48Z</time>
<speed>0.050000</speed>
<extensions>
<speed>0.1</speed>
<temp>0.00</temp>
<bpm>0</bpm>
<rpm>0.00</rpm>
</extensions>
</trkpt>
<trkpt lat="30.663803101" lon="34.873653412">
<ele>748.796875</ele>
<time>2013-11-22T08:14:53Z</time>
<speed>0.040000</speed>
<extensions>
<speed>0.0</speed>
<temp>0.00</temp>
<bpm>0</bpm>
<rpm>0.00</rpm>
</extensions>
</trkpt>
<trkpt lat="30.663805008" lon="34.873657227">
<ele>748.890625</ele>
<time>2013-11-22T08:14:58Z</time>
<speed>0.010000</speed>
<extensions>
<speed>0.0</speed>
<temp>0.00</temp>
<bpm>0</bpm>
<rpm>0.00</rpm>
</extensions>
</trkpt>
<trkpt lat="30.663803101" lon="34.873661041">
<ele>748.968750</ele>
<time>2013-11-22T08:15:03Z</time>
<speed>0.010000</speed>
<extensions>
<speed>0.0</speed>
<temp>0.00</temp>
<bpm>0</bpm>
<rpm>0.00</rpm>
</extensions>
</trkpt>
<trkpt lat="30.663805008" lon="34.873657227">
<ele>748.953125</ele>
<time>2013-11-22T08:15:08Z</time>
<speed>0.050000</speed>
<extensions>
<speed>0.1</speed>
<temp>0.00</temp>
<bpm>0</bpm>
<rpm>0.00</rpm>
</extensions>
</trkpt>
<trkpt lat="30.663805008" lon="34.873657227">
<ele>748.937500</ele>
<time>2013-11-22T08:15:13Z</time>
<speed>0.010000</speed>
<extensions>
<speed>0.0</speed>
<temp>0.00</temp>
<bpm>0</bpm>
<rpm>0.00</rpm>
</extensions>
</trkpt>
<trkpt lat="30.663805008" lon="34.873657227">
<ele>748.921875</ele>
<time>2013-11-22T08:15:18Z</time>
<speed>0.040000</speed>
<extensions>
<speed>0.0</speed>
<temp>0.00</temp>
<bpm>0</bpm>
<rpm>0.00</rpm>
</extensions>
</trkpt>
<trkpt lat="30.663805008" lon="34.873657227">
<ele>748.937500</ele>
<time>2013-11-22T08:15:23Z</time>
<speed>0.020000</speed>
<extensions>
<speed>0.0</speed>
<temp>0.00</temp>
<bpm>0</bpm>
<rpm>0.00</rpm>
</extensions>
</trkpt>
<trkpt lat="30.663805008" lon="34.873657227">
<ele>748.937500</ele>
<time>2013-11-22T08:15:28Z</time>
<speed>0.030000</speed>
<extensions>
<speed>0.0</speed>
<temp>0.00</temp>
<bpm>0</bpm>
<rpm>0.00</rpm>
</extensions>
</trkpt>
<trkpt lat="30.663805008" lon="34.873657227">
<ele>748.937500</ele>
<time>2013-11-22T08:15:33Z</time>
<extensions>
<speed>0.0</speed>
<temp>0.00</temp>
<bpm>0</bpm>
<rpm>0.00</rpm>
</extensions>
</trkpt>
<trkpt lat="30.663805008" lon="34.873657227">
<ele>748.937500</ele>
<time>2013-11-22T08:15:38Z</time>
<extensions>
<speed>0.0</speed>
<temp>0.00</temp>
<bpm>0</bpm>
<rpm>0.00</rpm>
</extensions>
</trkpt>
<trkpt lat="30.663806915" lon="34.873657227">
<ele>748.953125</ele>
<time>2013-11-22T08:15:43Z</time>
<extensions>
<speed>0.0</speed>
<temp>0.00</temp>
<bpm>0</bpm>
<rpm>0.00</rpm>
</extensions>
</trkpt>
<trkpt lat="30.663806915" lon="34.873657227">
<ele>748.953125</ele>
<time>2013-11-22T08:15:48Z</time>
<speed>0.010000</speed>
<extensions>
<speed>0.0</speed>
<temp>0.00</temp>
<bpm>0</bpm>
<rpm>0.00</rpm>
</extensions>
</trkpt>
<trkpt lat="30.663806915" lon="34.873657227">
<ele>748.968750</ele>
<time>2013-11-22T08:15:53Z</time>
<speed>0.010000</speed>
<extensions>
<speed>0.0</speed>
<temp>0.00</temp>
<bpm>0</bpm>
<rpm>0.00</rpm>
</extensions>
</trkpt>
<trkpt lat="30.663806915" lon="34.873657227">
<ele>748.968750</ele>
<time>2013-11-22T08:15:58Z</time>
<extensions>
<speed>0.0</speed>
<temp>0.00</temp>
<bpm>0</bpm>
<rpm>0.00</rpm>
</extensions>
</trkpt>
<trkpt lat="30.663806915" lon="34.873657227">
<ele>748.984375</ele>
<time>2013-11-22T08:16:03Z</time>
<speed>0.010000</speed>
<extensions>
<speed>0.0</speed>
<temp>0.00</temp>
<bpm>0</bpm>
<rpm>0.00</rpm>
</extensions>
</trkpt>
<trkpt lat="30.663806915" lon="34.873657227">
<ele>749.000000</ele>
<time>2013-11-22T08:16:08Z</time>
<speed>0.010000</speed>
<extensions>
<speed>0.0</speed>
<temp>0.00</temp>
<bpm>0</bpm>
<rpm>0.00</rpm>
</extensions>
</trkpt>
<trkpt lat="30.663806915" lon="34.873657227">
<ele>749.031250</ele>
<time>2013-11-22T08:16:13Z</time>
<extensions>
<speed>0.0</speed>
<temp>0.00</temp>
<bpm>0</bpm>
<rpm>0.00</rpm>
</extensions>
</trkpt>
<trkpt lat="30.663806915" lon="34.873657227">
<ele>749.046875</ele>
<time>2013-11-22T08:16:18Z</time>
<speed>0.040000</speed>
<extensions>
<speed>0.0</speed>
<temp>0.00</temp>
<bpm>0</bpm>
<rpm>0.00</rpm>
</extensions>
</trkpt>
<trkpt lat="30.663806915" lon="34.873657227">
<ele>749.046875</ele>
<time>2013-11-22T08:16:23Z</time>
<extensions>
<speed>0.0</speed>
<temp>0.00</temp>
<bpm>0</bpm>
<rpm>0.00</rpm>
</extensions>
</trkpt>
<trkpt lat="30.663808823" lon="34.873657227">
<ele>749.046875</ele>
<time>2013-11-22T08:16:28Z</time>
<speed>0.020000</speed>
<extensions>
<speed>0.0</speed>
<temp>0.00</temp>
<bpm>0</bpm>
<rpm>0.00</rpm>
</extensions>
</trkpt>
<trkpt lat="30.663808823" lon="34.873657227">
<ele>749.046875</ele>
<time>2013-11-22T08:16:33Z</time>
<extensions>
<speed>0.0</speed>
<temp>0.00</temp>
<bpm>0</bpm>
<rpm>0.00</rpm>
</extensions>
</trkpt>
<trkpt lat="30.663808823" lon="34.873657227">
<ele>749.046875</ele>
<time>2013-11-22T08:16:38Z</time>
<speed>0.010000</speed>
<extensions>
<speed>0.0</speed>
<temp>0.00</temp>
<bpm>0</bpm>
<rpm>0.00</rpm>
</extensions>
</trkpt>
<trkpt lat="30.663808823" lon="34.873657227">
<ele>749.046875</ele>
<time>2013-11-22T08:16:43Z</time>
<speed>0.090000</speed>
<extensions>
<speed>0.1</speed>
<temp>0.00</temp>
<bpm>0</bpm>
<rpm>0.00</rpm>
</extensions>
</trkpt>
<trkpt lat="30.663820267" lon="34.873645782">
<ele>748.859375</ele>
<time>2013-11-22T08:16:48Z</time>
<speed>0.480000</speed>
<extensions>
<speed>0.5</speed>
<temp>0.00</temp>
<bpm>0</bpm>
<rpm>0.00</rpm>
</extensions>
</trkpt>
<trkpt lat="30.663837433" lon="34.873611450">
<ele>748.609375</ele>
<time>2013-11-22T08:16:53Z</time>
<speed>1.030000</speed>
<extensions>
<speed>1.0</speed>
<temp>0.00</temp>
<bpm>0</bpm>
<rpm>0.00</rpm>
</extensions>
</trkpt>
<trkpt lat="30.663871765" lon="34.873569489">
<ele>748.406250</ele>
<time>2013-11-22T08:16:58Z</time>
<speed>0.620000</speed>
<extensions>
<speed>0.6</speed>
<temp>0.00</temp>
<bpm>0</bpm>
<rpm>0.00</rpm>
</extensions>
</trkpt>
<trkpt lat="30.663875580" lon="34.873561859">
<ele>748.031250</ele>
<time>2013-11-22T08:17:03Z</time>
<speed>0.050000</speed>
<extensions>
<speed>0.1</speed>
<temp>0.00</temp>
<bpm>0</bpm>
<rpm>0.00</rpm>
</extensions>
</trkpt>
<trkpt lat="30.663887024" lon="34.873538971">
<ele>748.031250</ele>
<time>2013-11-22T08:17:08Z</time>
<speed>0.850000</speed>
<extensions>
<speed>0.8</speed>
<temp>0.00</temp>
<bpm>0</bpm>
<rpm>0.00</rpm>
</extensions>
</trkpt>
<trkpt lat="30.663894653" lon="34.873519897">
<ele>749.015625</ele>
<time>2013-11-22T08:17:13Z</time>
<speed>0.240000</speed>
<extensions>
<speed>0.2</speed>
<temp>0.00</temp>
<bpm>0</bpm>
<rpm>0.00</rpm>
</extensions>
</trkpt>
<trkpt lat="30.663894653" lon="34.873519897">
<ele>750.250000</ele>
<time>2013-11-22T08:17:18Z</time>
<speed>0.040000</speed>
<extensions>
<speed>0.0</speed>
<temp>0.00</temp>
<bpm>0</bpm>
<rpm>0.00</rpm>
</extensions>
</trkpt>
<trkpt lat="30.663892746" lon="34.873519897">
<ele>750.671875</ele>
<time>2013-11-22T08:17:23Z</time>
<speed>0.040000</speed>
<extensions>
<speed>0.0</speed>
<temp>0.00</temp>
<bpm>0</bpm>
<rpm>0.00</rpm>
</extensions>
</trkpt>
<trkpt lat="30.663890839" lon="34.873523712">
<ele>751.187500</ele>
<time>2013-11-22T08:17:28Z</time>
<speed>0.050000</speed>
<extensions>
<speed>0.1</speed>
<temp>0.00</temp>
<bpm>0</bpm>
<rpm>0.00</rpm>
</extensions>
</trkpt>
<trkpt lat="30.663890839" lon="34.873527527">
<ele>751.750000</ele>
<time>2013-11-22T08:17:33Z</time>
<speed>0.060000</speed>
<extensions>
<speed>0.1</speed>
<temp>0.00</temp>
<bpm>0</bpm>
<rpm>0.00</rpm>
</extensions>
</trkpt>
<trkpt lat="30.663888931" lon="34.873531342">
<ele>752.375000</ele>
<time>2013-11-22T08:17:38Z</time>
<speed>0.080000</speed>
<extensions>
<speed>0.1</speed>
<temp>0.00</temp>
<bpm>0</bpm>
<rpm>0.00</rpm>
</extensions>
</trkpt>
<trkpt lat="30.663887024" lon="34.873531342">
<ele>752.921875</ele>
<time>2013-11-22T08:17:43Z</time>
<speed>0.090000</speed>
<extensions>
<speed>0.1</speed>
<temp>0.00</temp>
<bpm>0</bpm>
<rpm>0.00</rpm>
</extensions>
</trkpt>
<trkpt lat="30.663888931" lon="34.873531342">
<ele>753.234375</ele>
<time>2013-11-22T08:17:48Z</time>
<speed>0.250000</speed>
<extensions>
<speed>0.2</speed>
<temp>0.00</temp>
<bpm>0</bpm>
<rpm>0.00</rpm>
</extensions>
</trkpt>
<trkpt lat="30.663959503" lon="34.873485565">
<ele>752.515625</ele>
<time>2013-11-22T08:17:53Z</time>
<speed>2.440000</speed>
<extensions>
<speed>2.4</speed>
<temp>0.00</temp>
<bpm>0</bpm>
<rpm>0.00</rpm>
</extensions>
</trkpt>
<trkpt lat="30.664049149" lon="34.873405457">
<ele>754.406250</ele>
<time>2013-11-22T08:17:58Z</time>
<speed>2.740000</speed>
<extensions>
<speed>2.7</speed>
<temp>0.00</temp>
<bpm>0</bpm>
<rpm>0.00</rpm>
</extensions>
</trkpt>
<trkpt lat="30.664171219" lon="34.873310089">
<ele>754.734375</ele>
<time>2013-11-22T08:18:03Z</time>
<speed>3.590000</speed>
<extensions>
<speed>3.6</speed>
<temp>0.00</temp>
<bpm>0</bpm>
<rpm>0.00</rpm>
</extensions>
</trkpt>
<trkpt lat="30.664281845" lon="34.873157501">
<ele>755.109375</ele>
<time>2013-11-22T08:18:08Z</time>
<speed>2.840000</speed>
<extensions>
<speed>2.8</speed>
<temp>0.00</temp>
<bpm>0</bpm>
<rpm>0.00</rpm>
</extensions>
</trkpt>
<trkpt lat="30.664382935" lon="34.873107910">
<ele>756.078125</ele>
<time>2013-11-22T08:18:13Z</time>
<speed>3.180000</speed>
<extensions>
<speed>3.2</speed>
<temp>0.00</temp>
<bpm>0</bpm>
<rpm>0.00</rpm>
</extensions>
</trkpt>
<trkpt lat="30.664466858" lon="34.873191833">
<ele>754.968750</ele>
<time>2013-11-22T08:18:18Z</time>
<speed>2.430000</speed>
<extensions>
<speed>2.4</speed>
<temp>0.00</temp>
<bpm>0</bpm>
<rpm>0.00</rpm>
</extensions>
</trkpt>
<trkpt lat="30.664514542" lon="34.873279572">
<ele>751.218750</ele>
<time>2013-11-22T08:18:23Z</time>
<speed>2.230000</speed>
<extensions>
<speed>2.2</speed>
<temp>0.00</temp>
<bpm>0</bpm>
<rpm>0.00</rpm>
</extensions>
</trkpt>
<trkpt lat="30.664546967" lon="34.873405457">
<ele>750.609375</ele>
<time>2013-11-22T08:18:28Z</time>
<speed>2.560000</speed>
<extensions>
<speed>2.6</speed>
<temp>0.00</temp>
<bpm>0</bpm>
<rpm>0.00</rpm>
</extensions>
</trkpt>
<trkpt lat="30.664571762" lon="34.873580933">
<ele>750.500000</ele>
<time>2013-11-22T08:18:33Z</time>
<speed>3.310000</speed>
<extensions>
<speed>3.3</speed>
<temp>0.00</temp>
<bpm>0</bpm>
<rpm>0.00</rpm>
</extensions>
</trkpt>
<trkpt lat="30.664617538" lon="34.873714447">
<ele>750.421875</ele>
<time>2013-11-22T08:18:38Z</time>
<speed>1.930000</speed>
<extensions>
<speed>1.9</speed>
<temp>0.00</temp>
<bpm>0</bpm>
<rpm>0.00</rpm>
</extensions>
</trkpt>
<trkpt lat="30.664632797" lon="34.873748779">
<ele>749.968750</ele>
<time>2013-11-22T08:18:43Z</time>
<speed>0.040000</speed>
<extensions>
<speed>0.0</speed>
<temp>0.00</temp>
<bpm>0</bpm>
<rpm>0.00</rpm>
</extensions>
</trkpt>
<trkpt lat="30.664634705" lon="34.873752594">
<ele>749.906250</ele>
<time>2013-11-22T08:18:48Z</time>
<speed>0.160000</speed>
<extensions>
<speed>0.2</speed>
<temp>0.00</temp>
<bpm>0</bpm>
<rpm>0.00</rpm>
</extensions>
</trkpt>
<trkpt lat="30.664632797" lon="34.873748779">
<ele>749.421875</ele>
<time>2013-11-22T08:18:53Z</time>
<speed>0.060000</speed>
<extensions>
<speed>0.1</speed>
<temp>0.00</temp>
<bpm>0</bpm>
<rpm>0.00</rpm>
</extensions>
</trkpt>
<trkpt lat="30.664632797" lon="34.873748779">
<ele>749.359375</ele>
<time>2013-11-22T08:18:58Z</time>
<speed>0.080000</speed>
<extensions>
<speed>0.1</speed>
<temp>0.00</temp>
<bpm>0</bpm>
<rpm>0.00</rpm>
</extensions>
</trkpt>
<trkpt lat="30.664634705" lon="34.873767853">
<ele>749.281250</ele>
<time>2013-11-22T08:19:03Z</time>
<speed>1.260000</speed>
<extensions>
<speed>1.3</speed>
<temp>0.00</temp>
<bpm>0</bpm>
<rpm>0.00</rpm>
</extensions>
</trkpt>
<trkpt lat="30.664718628" lon="34.873874664">
<ele>748.703125</ele>
<time>2013-11-22T08:19:08Z</time>
<speed>3.520000</speed>
<extensions>
<speed>3.5</speed>
<temp>0.00</temp>
<bpm>0</bpm>
<rpm>0.00</rpm>
</extensions>
</trkpt>
<trkpt lat="30.664823532" lon="34.874038696">
<ele>747.875000</ele>
<time>2013-11-22T08:19:13Z</time>
<speed>3.970000</speed>
<extensions>
<speed>4.0</speed>
<temp>0.00</temp>
<bpm>0</bpm>
<rpm>0.00</rpm>
</extensions>
</trkpt>
<trkpt lat="30.664987564" lon="34.874225616">
<ele>746.109375</ele>
<time>2013-11-22T08:19:18Z</time>
<speed>5.430000</speed>
<extensions>
<speed>5.4</speed>
<temp>0.00</temp>
<bpm>0</bpm>
<rpm>0.00</rpm>
</extensions>
</trkpt>
<trkpt lat="30.665109634" lon="34.874477386">
<ele>744.718750</ele>
<time>2013-11-22T08:19:23Z</time>
<speed>5.620000</speed>
<extensions>
<speed>5.6</speed>
<temp>0.00</temp>
<bpm>0</bpm>
<rpm>0.00</rpm>
</extensions>
</trkpt>
<trkpt lat="30.665283203" lon="34.874683380">
<ele>743.390625</ele>
<time>2013-11-22T08:19:28Z</time>
<speed>5.140000</speed>
<extensions>
<speed>5.1</speed>
<temp>0.00</temp>
<bpm>0</bpm>
<rpm>0.00</rpm>
</extensions>
</trkpt>
<trkpt lat="30.665285110" lon="34.874946594">
<ele>739.156250</ele>
<time>2013-11-22T08:19:33Z</time>
<speed>4.710000</speed>
<extensions>
<speed>4.7</speed>
<temp>0.00</temp>
<bpm>0</bpm>
<rpm>0.00</rpm>
</extensions>
</trkpt>
<trkpt lat="30.665321350" lon="34.875190735">
<ele>740.031250</ele>
<time>2013-11-22T08:19:38Z</time>
<speed>4.700000</speed>
<extensions>
<speed>4.7</speed>
<temp>0.00</temp>
<bpm>0</bpm>
<rpm>0.00</rpm>
</extensions>
</trkpt>
<trkpt lat="30.665405273" lon="34.875381470">
<ele>741.781250</ele>
<time>2013-11-22T08:19:43Z</time>
<speed>3.970000</speed>
<extensions>
<speed>4.0</speed>
<temp>0.00</temp>
<bpm>0</bpm>
<rpm>0.00</rpm>
</extensions>
</trkpt>
<trkpt lat="30.665422440" lon="34.875572205">
<ele>741.843750</ele>
<time>2013-11-22T08:19:48Z</time>
<speed>4.570000</speed>
<extensions>
<speed>4.6</speed>
<temp>0.00</temp>
<bpm>0</bpm>
<rpm>0.00</rpm>
</extensions>
</trkpt>
<trkpt lat="30.665504456" lon="34.875835419">
<ele>742.609375</ele>
<time>2013-11-22T08:19:53Z</time>
<speed>5.590000</speed>
<extensions>
<speed>5.6</speed>
<temp>0.00</temp>
<bpm>0</bpm>
<rpm>0.00</rpm>
</extensions>
</trkpt>
<trkpt lat="30.665578842" lon="34.876033783">
<ele>742.312500</ele>
<time>2013-11-22T08:19:58Z</time>
<speed>3.640000</speed>
<extensions>
<speed>3.6</speed>
<temp>0.00</temp>
<bpm>0</bpm>
<rpm>0.00</rpm>
</extensions>
</trkpt>
<trkpt lat="30.665611267" lon="34.876106262">
<ele>741.187500</ele>
<time>2013-11-22T08:20:03Z</time>
<speed>0.200000</speed>
<extensions>
<speed>0.2</speed>
<temp>0.00</temp>
<bpm>0</bpm>
<rpm>0.00</rpm>
</extensions>
</trkpt>
<trkpt lat="30.665601730" lon="34.876102448">
<ele>741.015625</ele>
<time>2013-11-22T08:20:08Z</time>
<speed>0.010000</speed>
<extensions>
<speed>0.0</speed>
<temp>0.00</temp>
<bpm>0</bpm>
<rpm>0.00</rpm>
</extensions>
</trkpt>
<trkpt lat="30.665620804" lon="34.876136780">
<ele>739.812500</ele>
<time>2013-11-22T08:20:13Z</time>
<speed>2.240000</speed>
<extensions>
<speed>2.2</speed>
<temp>0.00</temp>
<bpm>0</bpm>
<rpm>0.00</rpm>
</extensions>
</trkpt>
<trkpt lat="30.665622711" lon="34.876308441">
<ele>739.140625</ele>
<time>2013-11-22T08:20:18Z</time>
<speed>2.820000</speed>
<extensions>
<speed>2.8</speed>
<temp>0.00</temp>
<bpm>0</bpm>
<rpm>0.00</rpm>
</extensions>
</trkpt>
<trkpt lat="30.665611267" lon="34.876461029">
<ele>738.625000</ele>
<time>2013-11-22T08:20:23Z</time>
<speed>2.200000</speed>
<extensions>
<speed>2.2</speed>
<temp>0.00</temp>
<bpm>0</bpm>
<rpm>0.00</rpm>
</extensions>
</trkpt>
<trkpt lat="30.665588379" lon="34.876583099">
<ele>738.609375</ele>
<time>2013-11-22T08:20:28Z</time>
<speed>3.330000</speed>
<extensions>
<speed>3.3</speed>
<temp>0.00</temp>
<bpm>0</bpm>
<rpm>0.00</rpm>
</extensions>
</trkpt>
<trkpt lat="30.665565491" lon="34.876750946">
<ele>737.671875</ele>
<time>2013-11-22T08:20:33Z</time>
<speed>2.040000</speed>
<extensions>
<speed>2.0</speed>
<temp>0.00</temp>
<bpm>0</bpm>
<rpm>0.00</rpm>
</extensions>
</trkpt>
<trkpt lat="30.665569305" lon="34.876846313">
<ele>736.515625</ele>
<time>2013-11-22T08:20:38Z</time>
<speed>1.990000</speed>
<extensions>
<speed>2.0</speed>
<temp>0.00</temp>
<bpm>0</bpm>
<rpm>0.00</rpm>
</extensions>
</trkpt>
<trkpt lat="30.665588379" lon="34.876968384">
<ele>736.359375</ele>
<time>2013-11-22T08:20:43Z</time>
<speed>3.230000</speed>
<extensions>
<speed>3.2</speed>
<temp>0.00</temp>
<bpm>0</bpm>
<rpm>0.00</rpm>
</extensions>
</trkpt>
<trkpt lat="30.665655136" lon="34.877098083">
<ele>736.312500</ele>
<time>2013-11-22T08:20:48Z</time>
<speed>4.130000</speed>
<extensions>
<speed>4.1</speed>
<temp>0.00</temp>
<bpm>0</bpm>
<rpm>0.00</rpm>
</extensions>
</trkpt>
<trkpt lat="30.665800095" lon="34.877197266">
<ele>734.468750</ele>
<time>2013-11-22T08:20:53Z</time>
<speed>4.270000</speed>
<extensions>
<speed>4.3</speed>
<temp>0.00</temp>
<bpm>0</bpm>
<rpm>0.00</rpm>
</extensions>
</trkpt>
<trkpt lat="30.665863037" lon="34.877296448">
<ele>733.921875</ele>
<time>2013-11-22T08:20:58Z</time>
<speed>2.750000</speed>
<extensions>
<speed>2.7</speed>
<temp>0.00</temp>
<bpm>0</bpm>
<rpm>0.00</rpm>
</extensions>
</trkpt>
<trkpt lat="30.665906906" lon="34.877403259">
<ele>733.312500</ele>
<time>2013-11-22T08:21:03Z</time>
<speed>2.440000</speed>
<extensions>
<speed>2.4</speed>
<temp>0.00</temp>
<bpm>0</bpm>
<rpm>0.00</rpm>
</extensions>
</trkpt>
<trkpt lat="30.665937424" lon="34.877494812">
<ele>733.765625</ele>
<time>2013-11-22T08:21:08Z</time>
<speed>1.480000</speed>
<extensions>
<speed>1.5</speed>
<temp>0.00</temp>
<bpm>0</bpm>
<rpm>0.00</rpm>
</extensions>
</trkpt>
<trkpt lat="30.665956497" lon="34.877613068">
<ele>732.671875</ele>
<time>2013-11-22T08:21:13Z</time>
<speed>1.670000</speed>
<extensions>
<speed>1.7</speed>
<temp>0.00</temp>
<bpm>0</bpm>
<rpm>0.00</rpm>
</extensions>
</trkpt>
<trkpt lat="30.665969849" lon="34.877708435">
<ele>732.359375</ele>
<time>2013-11-22T08:21:18Z</time>
<speed>1.430000</speed>
<extensions>
<speed>1.4</speed>
<temp>0.00</temp>
<bpm>0</bpm>
<rpm>0.00</rpm>
</extensions>
</trkpt>
<trkpt lat="30.665975571" lon="34.877780914">
<ele>732.437500</ele>
<time>2013-11-22T08:21:23Z</time>
<speed>1.310000</speed>
<extensions>
<speed>1.3</speed>
<temp>0.00</temp>
<bpm>0</bpm>
<rpm>0.00</rpm>
</extensions>
</trkpt>
<trkpt lat="30.665929794" lon="34.877849579">
<ele>735.078125</ele>
<time>2013-11-22T08:21:28Z</time>
<speed>1.810000</speed>
<extensions>
<speed>1.8</speed>
<temp>0.00</temp>
<bpm>0</bpm>
<rpm>0.00</rpm>
</extensions>
</trkpt>
<trkpt lat="30.665872574" lon="34.877914429">
<ele>736.671875</ele>
<time>2013-11-22T08:21:33Z</time>
<speed>1.990000</speed>
<extensions>
<speed>2.0</speed>
<temp>0.00</temp>
<bpm>0</bpm>
<rpm>0.00</rpm>
</extensions>
</trkpt>
<trkpt lat="30.665819168" lon="34.877964020">
<ele>738.140625</ele>
<time>2013-11-22T08:21:38Z</time>
<speed>1.420000</speed>
<extensions>
<speed>1.4</speed>
<temp>0.00</temp>
<bpm>0</bpm>
<rpm>0.00</rpm>
</extensions>
</trkpt>
<trkpt lat="30.665802002" lon="34.878005981">
<ele>739.609375</ele>
<time>2013-11-22T08:21:43Z</time>
<speed>0.660000</speed>
<extensions>
<speed>0.7</speed>
<temp>0.00</temp>
<bpm>0</bpm>
<rpm>0.00</rpm>
</extensions>
</trkpt>
<trkpt lat="30.665767670" lon="34.878028870">
<ele>740.375000</ele>
<time>2013-11-22T08:21:48Z</time>
<speed>1.170000</speed>
<extensions>
<speed>1.2</speed>
<temp>0.00</temp>
<bpm>0</bpm>
<rpm>0.00</rpm>
</extensions>
</trkpt>
<trkpt lat="30.665697098" lon="34.878040314">
<ele>742.000000</ele>
<time>2013-11-22T08:21:53Z</time>
<speed>0.730000</speed>
<extensions>
<speed>0.7</speed>
<temp>0.00</temp>
<bpm>0</bpm>
<rpm>0.00</rpm>
</extensions>
</trkpt>
<trkpt lat="30.665676117" lon="34.878036499">
<ele>742.609375</ele>
<time>2013-11-22T08:21:58Z</time>
<speed>0.110000</speed>
<extensions>
<speed>0.1</speed>
<temp>0.00</temp>
<bpm>0</bpm>
<rpm>0.00</rpm>
</extensions>
</trkpt>
<trkpt lat="30.665676117" lon="34.878036499">
<ele>742.765625</ele>
<time>2013-11-22T08:22:03Z</time>
<speed>0.390000</speed>
<extensions>
<speed>0.4</speed>
<temp>0.00</temp>
<bpm>0</bpm>
<rpm>0.00</rpm>
</extensions>
</trkpt>
<trkpt lat="30.665685654" lon="34.878059387">
<ele>741.031250</ele>
<time>2013-11-22T08:22:08Z</time>
<speed>1.270000</speed>
<extensions>
<speed>1.3</speed>
<temp>0.00</temp>
<bpm>0</bpm>
<rpm>0.00</rpm>
</extensions>
</trkpt>
<trkpt lat="30.665767670" lon="34.878074646">
<ele>738.875000</ele>
<time>2013-11-22T08:22:13Z</time>
<speed>1.350000</speed>
<extensions>
<speed>1.4</speed>
<temp>0.00</temp>
<bpm>0</bpm>
<rpm>0.00</rpm>
</extensions>
</trkpt>
<trkpt lat="30.665790558" lon="34.878070831">
<ele>738.640625</ele>
<time>2013-11-22T08:22:18Z</time>
<speed>0.680000</speed>
<extensions>
<speed>0.7</speed>
<temp>0.00</temp>
<bpm>0</bpm>
<rpm>0.00</rpm>
</extensions>
</trkpt>
<trkpt lat="30.665826797" lon="34.878067017">
<ele>738.312500</ele>
<time>2013-11-22T08:22:23Z</time>
<speed>1.160000</speed>
<extensions>
<speed>1.2</speed>
<temp>0.00</temp>
<bpm>0</bpm>
<rpm>0.00</rpm>
</extensions>
</trkpt>
<trkpt lat="30.665895462" lon="34.878112793">
<ele>738.218750</ele>
<time>2013-11-22T08:22:28Z</time>
<speed>2.250000</speed>
<extensions>
<speed>2.3</speed>
<temp>0.00</temp>
<bpm>0</bpm>
<rpm>0.00</rpm>
</extensions>
</trkpt>
<trkpt lat="30.665973663" lon="34.878162384">
<ele>737.859375</ele>
<time>2013-11-22T08:22:33Z</time>
<speed>1.640000</speed>
<extensions>
<speed>1.6</speed>
<temp>0.00</temp>
<bpm>0</bpm>
<rpm>0.00</rpm>
</extensions>
</trkpt>
<trkpt lat="30.666028976" lon="34.878227234">
<ele>738.187500</ele>
<time>2013-11-22T08:22:38Z</time>
<speed>2.200000</speed>
<extensions>
<speed>2.2</speed>
<temp>0.00</temp>
<bpm>0</bpm>
<rpm>0.00</rpm>
</extensions>
</trkpt>
<trkpt lat="30.666086197" lon="34.878303528">
<ele>737.140625</ele>
<time>2013-11-22T08:22:43Z</time>
<speed>2.450000</speed>
<extensions>
<speed>2.4</speed>
<temp>0.00</temp>
<bpm>0</bpm>
<rpm>0.00</rpm>
</extensions>
</trkpt>
<trkpt lat="30.666147232" lon="34.878364563">
<ele>737.625000</ele>
<time>2013-11-22T08:22:48Z</time>
<speed>2.080000</speed>
<extensions>
<speed>2.1</speed>
<temp>0.00</temp>
<bpm>0</bpm>
<rpm>0.00</rpm>
</extensions>
</trkpt>
<trkpt lat="30.666193008" lon="34.878433228">
<ele>737.718750</ele>
<time>2013-11-22T08:22:53Z</time>
<speed>2.100000</speed>
<extensions>
<speed>2.1</speed>
<temp>0.00</temp>
<bpm>0</bpm>
<rpm>0.00</rpm>
</extensions>
</trkpt>
<trkpt lat="30.666252136" lon="34.878528595">
<ele>736.203125</ele>
<time>2013-11-22T08:22:58Z</time>
<speed>1.690000</speed>
<extensions>
<speed>1.7</speed>
<temp>0.00</temp>
<bpm>0</bpm>
<rpm>0.00</rpm>
</extensions>
</trkpt>
<trkpt lat="30.666332245" lon="34.878639221">
<ele>735.968750</ele>
<time>2013-11-22T08:23:03Z</time>
<speed>2.610000</speed>
<extensions>
<speed>2.6</speed>
<temp>0.00</temp>
<bpm>0</bpm>
<rpm>0.00</rpm>
</extensions>
</trkpt>
<trkpt lat="30.666421890" lon="34.878746033">
<ele>736.546875</ele>
<time>2013-11-22T08:23:08Z</time>
<speed>2.740000</speed>
<extensions>
<speed>2.7</speed>
<temp>0.00</temp>
<bpm>0</bpm>
<rpm>0.00</rpm>
</extensions>
</trkpt>
<trkpt lat="30.666494370" lon="34.878868103">
<ele>740.906250</ele>
<time>2013-11-22T08:23:13Z</time>
<speed>2.490000</speed>
<extensions>
<speed>2.5</speed>
<temp>0.00</temp>
<bpm>0</bpm>
<rpm>0.00</rpm>
</extensions>
</trkpt>
<trkpt lat="30.666547775" lon="34.878986359">
<ele>743.875000</ele>
<time>2013-11-22T08:23:18Z</time>
<speed>2.250000</speed>
<extensions>
<speed>2.3</speed>
<temp>0.00</temp>
<bpm>0</bpm>
<rpm>0.00</rpm>
</extensions>
</trkpt>
<trkpt lat="30.666582108" lon="34.879112244">
<ele>744.984375</ele>
<time>2013-11-22T08:23:23Z</time>
<speed>2.560000</speed>
<extensions>
<speed>2.6</speed>
<temp>0.00</temp>
<bpm>0</bpm>
<rpm>0.00</rpm>
</extensions>
</trkpt>
<trkpt lat="30.666593552" lon="34.879241943">
<ele>744.640625</ele>
<time>2013-11-22T08:23:28Z</time>
<speed>2.470000</speed>
<extensions>
<speed>2.5</speed>
<temp>0.00</temp>
<bpm>0</bpm>
<rpm>0.00</rpm>
</extensions>
</trkpt>
<trkpt lat="30.666608810" lon="34.879375458">
<ele>743.734375</ele>
<time>2013-11-22T08:23:33Z</time>
<speed>2.330000</speed>
<extensions>
<speed>2.3</speed>
<temp>0.00</temp>
<bpm>0</bpm>
<rpm>0.00</rpm>
</extensions>
</trkpt>
<trkpt lat="30.666612625" lon="34.879505157">
<ele>743.359375</ele>
<time>2013-11-22T08:23:38Z</time>
<speed>2.380000</speed>
<extensions>
<speed>2.4</speed>
<temp>0.00</temp>
<bpm>0</bpm>
<rpm>0.00</rpm>
</extensions>
</trkpt>
<trkpt lat="30.666625977" lon="34.879653931">
<ele>741.265625</ele>
<time>2013-11-22T08:23:43Z</time>
<speed>2.420000</speed>
<extensions>
<speed>2.4</speed>
<temp>0.00</temp>
<bpm>0</bpm>
<rpm>0.00</rpm>
</extensions>
</trkpt>
<trkpt lat="30.666618347" lon="34.879760742">
<ele>740.890625</ele>
<time>2013-11-22T08:23:48Z</time>
<speed>2.430000</speed>
<extensions>
<speed>2.4</speed>
<temp>0.00</temp>
<bpm>0</bpm>
<rpm>0.00</rpm>
</extensions>
</trkpt>
<trkpt lat="30.666616440" lon="34.879878998">
<ele>740.812500</ele>
<time>2013-11-22T08:23:53Z</time>
<speed>2.080000</speed>
<extensions>
<speed>2.1</speed>
<temp>0.00</temp>
<bpm>0</bpm>
<rpm>0.00</rpm>
</extensions>
</trkpt>
<trkpt lat="30.666610718" lon="34.879993439">
<ele>740.234375</ele>
<time>2013-11-22T08:23:58Z</time>
<speed>2.270000</speed>
<extensions>
<speed>2.3</speed>
<temp>0.00</temp>
<bpm>0</bpm>
<rpm>0.00</rpm>
</extensions>
</trkpt>
<trkpt lat="30.666606903" lon="34.880115509">
<ele>739.875000</ele>
<time>2013-11-22T08:24:03Z</time>
<speed>1.280000</speed>
<extensions>
<speed>1.3</speed>
<temp>0.00</temp>
<bpm>0</bpm>
<rpm>0.00</rpm>
</extensions>
</trkpt>
<trkpt lat="30.666629791" lon="34.880153656">
<ele>740.859375</ele>
<time>2013-11-22T08:24:08Z</time>
<speed>0.980000</speed>
<extensions>
<speed>1.0</speed>
<temp>0.00</temp>
<bpm>0</bpm>
<rpm>0.00</rpm>
</extensions>
</trkpt>
<trkpt lat="30.666633606" lon="34.880146027">
<ele>740.843750</ele>
<time>2013-11-22T08:24:13Z</time>
<speed>0.090000</speed>
<extensions>
<speed>0.1</speed>
<temp>0.00</temp>
<bpm>0</bpm>
<rpm>0.00</rpm>
</extensions>
</trkpt>
<trkpt lat="30.666639328" lon="34.880146027">
<ele>740.765625</ele>
<time>2013-11-22T08:24:18Z</time>
<speed>0.610000</speed>
<extensions>
<speed>0.6</speed>
<temp>0.00</temp>
<bpm>0</bpm>
<rpm>0.00</rpm>
</extensions>
</trkpt>
<trkpt lat="30.666635513" lon="34.880226135">
<ele>740.390625</ele>
<time>2013-11-22T08:24:23Z</time>
<speed>2.240000</speed>
<extensions>
<speed>2.2</speed>
<temp>0.00</temp>
<bpm>0</bpm>
<rpm>0.00</rpm>
</extensions>
</trkpt>
<trkpt lat="30.666645050" lon="34.880344391">
<ele>740.640625</ele>
<time>2013-11-22T08:24:28Z</time>
<speed>2.330000</speed>
<extensions>
<speed>2.3</speed>
<temp>0.00</temp>
<bpm>0</bpm>
<rpm>0.00</rpm>
</extensions>
</trkpt>
<trkpt lat="30.666673660" lon="34.880416870">
<ele>741.625000</ele>
<time>2013-11-22T08:24:33Z</time>
<speed>2.450000</speed>
<extensions>
<speed>2.4</speed>
<temp>0.00</temp>
<bpm>0</bpm>
<rpm>0.00</rpm>
</extensions>
</trkpt>
<trkpt lat="30.666738510" lon="34.880519867">
<ele>744.125000</ele>
<time>2013-11-22T08:24:38Z</time>
<speed>2.270000</speed>
<extensions>
<speed>2.3</speed>
<temp>0.00</temp>
<bpm>0</bpm>
<rpm>0.00</rpm>
</extensions>
</trkpt>
<trkpt lat="30.666784286" lon="34.880619049">
<ele>746.171875</ele>
<time>2013-11-22T08:24:43Z</time>
<speed>2.380000</speed>
<extensions>
<speed>2.4</speed>
<temp>0.00</temp>
<bpm>0</bpm>
<rpm>0.00</rpm>
</extensions>
</trkpt>
<trkpt lat="30.666837692" lon="34.880687714">
<ele>746.218750</ele>
<time>2013-11-22T08:24:48Z</time>
<speed>2.100000</speed>
<extensions>
<speed>2.1</speed>
<temp>0.00</temp>
<bpm>0</bpm>
<rpm>0.00</rpm>
</extensions>
</trkpt>
<trkpt lat="30.666898727" lon="34.880733490">
<ele>747.906250</ele>
<time>2013-11-22T08:24:53Z</time>
<speed>1.650000</speed>
<extensions>
<speed>1.7</speed>
<temp>0.00</temp>
<bpm>0</bpm>
<rpm>0.00</rpm>
</extensions>
</trkpt>
<trkpt lat="30.666950226" lon="34.880790710">
<ele>748.703125</ele>
<time>2013-11-22T08:24:58Z</time>
<speed>2.270000</speed>
<extensions>
<speed>2.3</speed>
<temp>0.00</temp>
<bpm>0</bpm>
<rpm>0.00</rpm>
</extensions>
</trkpt>
<trkpt lat="30.667005539" lon="34.880870819">
<ele>748.562500</ele>
<time>2013-11-22T08:25:03Z</time>
<speed>2.930000</speed>
<extensions>
<speed>2.9</speed>
<temp>0.00</temp>
<bpm>0</bpm>
<rpm>0.00</rpm>
</extensions>
</trkpt>
<trkpt lat="30.667087555" lon="34.880947113">
<ele>747.078125</ele>
<time>2013-11-22T08:25:08Z</time>
<speed>2.220000</speed>
<extensions>
<speed>2.2</speed>
<temp>0.00</temp>
<bpm>0</bpm>
<rpm>0.00</rpm>
</extensions>
</trkpt>
<trkpt lat="30.667179108" lon="34.881053925">
<ele>746.437500</ele>
<time>2013-11-22T08:25:13Z</time>
<speed>3.680000</speed>
<extensions>
<speed>3.7</speed>
<temp>0.00</temp>
<bpm>0</bpm>
<rpm>0.00</rpm>
</extensions>
</trkpt>
<trkpt lat="30.667238235" lon="34.881130219">
<ele>747.031250</ele>
<time>2013-11-22T08:25:18Z</time>
<speed>5.300000</speed>
<extensions>
<speed>5.3</speed>
<temp>0.00</temp>
<bpm>0</bpm>
<rpm>0.00</rpm>
</extensions>
</trkpt>
<trkpt lat="30.667343140" lon="34.881206512">
<ele>747.953125</ele>
<time>2013-11-22T08:25:23Z</time>
<speed>2.560000</speed>
<extensions>
<speed>2.6</speed>
<temp>0.00</temp>
<bpm>0</bpm>
<rpm>0.00</rpm>
</extensions>
</trkpt>
<trkpt lat="30.667503357" lon="34.881286621">
<ele>747.921875</ele>
<time>2013-11-22T08:25:28Z</time>
<speed>3.400000</speed>
<extensions>
<speed>3.4</speed>
<temp>0.00</temp>
<bpm>0</bpm>
<rpm>0.00</rpm>
</extensions>
</trkpt>
<trkpt lat="30.667650223" lon="34.881381989">
<ele>746.796875</ele>
<time>2013-11-22T08:25:33Z</time>
<speed>3.260000</speed>
<extensions>
<speed>3.3</speed>
<temp>0.00</temp>
<bpm>0</bpm>
<rpm>0.00</rpm>
</extensions>
</trkpt>
<trkpt lat="30.667797089" lon="34.881515503">
<ele>747.234375</ele>
<time>2013-11-22T08:25:38Z</time>
<speed>3.670000</speed>
<extensions>
<speed>3.7</speed>
<temp>0.00</temp>
<bpm>0</bpm>
<rpm>0.00</rpm>
</extensions>
</trkpt>
<trkpt lat="30.667934418" lon="34.881618500">
<ele>747.531250</ele>
<time>2013-11-22T08:25:43Z</time>
<speed>3.130000</speed>
<extensions>
<speed>3.1</speed>
<temp>0.00</temp>
<bpm>0</bpm>
<rpm>0.00</rpm>
</extensions>
</trkpt>
<trkpt lat="30.668069839" lon="34.881725311">
<ele>749.109375</ele>
<time>2013-11-22T08:25:48Z</time>
<speed>3.340000</speed>
<extensions>
<speed>3.3</speed>
<temp>0.00</temp>
<bpm>0</bpm>
<rpm>0.00</rpm>
</extensions>
</trkpt>
<trkpt lat="30.668170929" lon="34.881820679">
<ele>749.859375</ele>
<time>2013-11-22T08:25:53Z</time>
<speed>2.660000</speed>
<extensions>
<speed>2.7</speed>
<temp>0.00</temp>
<bpm>0</bpm>
<rpm>0.00</rpm>
</extensions>
</trkpt>
<trkpt lat="30.668252945" lon="34.881916046">
<ele>749.578125</ele>
<time>2013-11-22T08:25:58Z</time>
<speed>1.990000</speed>
<extensions>
<speed>2.0</speed>
<temp>0.00</temp>
<bpm>0</bpm>
<rpm>0.00</rpm>
</extensions>
</trkpt>
<trkpt lat="30.668281555" lon="34.881984711">
<ele>749.000000</ele>
<time>2013-11-22T08:26:03Z</time>
<speed>2.440000</speed>
<extensions>
<speed>2.4</speed>
<temp>0.00</temp>
<bpm>0</bpm>
<rpm>0.00</rpm>
</extensions>
</trkpt>
<trkpt lat="30.668355942" lon="34.882076263">
<ele>747.093750</ele>
<time>2013-11-22T08:26:08Z</time>
<speed>2.510000</speed>
<extensions>
<speed>2.5</speed>
<temp>0.00</temp>
<bpm>0</bpm>
<rpm>0.00</rpm>
</extensions>
</trkpt>
<trkpt lat="30.668483734" lon="34.882152557">
<ele>748.296875</ele>
<time>2013-11-22T08:26:13Z</time>
<speed>0.270000</speed>
<extensions>
<speed>0.3</speed>
<temp>0.00</temp>
<bpm>0</bpm>
<rpm>0.00</rpm>
</extensions>
</trkpt>
<trkpt lat="30.668495178" lon="34.882148743">
<ele>748.078125</ele>
<time>2013-11-22T08:26:18Z</time>
<speed>0.010000</speed>
<extensions>
<speed>0.0</speed>
<temp>0.00</temp>
<bpm>0</bpm>
<rpm>0.00</rpm>
</extensions>
</trkpt>
<trkpt lat="30.668489456" lon="34.882156372">
<ele>747.875000</ele>
<time>2013-11-22T08:26:23Z</time>
<speed>0.810000</speed>
<extensions>
<speed>0.8</speed>
<temp>0.00</temp>
<bpm>0</bpm>
<rpm>0.00</rpm>
</extensions>
</trkpt>
<trkpt lat="30.668470383" lon="34.882186890">
<ele>747.656250</ele>
<time>2013-11-22T08:26:28Z</time>
<speed>2.020000</speed>
<extensions>
<speed>2.0</speed>
<temp>0.00</temp>
<bpm>0</bpm>
<rpm>0.00</rpm>
</extensions>
</trkpt>
<trkpt lat="30.668457031" lon="34.882324219">
<ele>746.765625</ele>
<time>2013-11-22T08:26:33Z</time>
<speed>3.100000</speed>
<extensions>
<speed>3.1</speed>
<temp>0.00</temp>
<bpm>0</bpm>
<rpm>0.00</rpm>
</extensions>
</trkpt>
<trkpt lat="30.668504715" lon="34.882442474">
<ele>746.734375</ele>
<time>2013-11-22T08:26:38Z</time>
<speed>2.410000</speed>
<extensions>
<speed>2.4</speed>
<temp>0.00</temp>
<bpm>0</bpm>
<rpm>0.00</rpm>
</extensions>
</trkpt>
<trkpt lat="30.668521881" lon="34.882549286">
<ele>746.015625</ele>
<time>2013-11-22T08:26:43Z</time>
<speed>2.170000</speed>
<extensions>
<speed>2.2</speed>
<temp>0.00</temp>
<bpm>0</bpm>
<rpm>0.00</rpm>
</extensions>
</trkpt>
<trkpt lat="30.668565750" lon="34.882698059">
<ele>745.125000</ele>
<time>2013-11-22T08:26:48Z</time>
<speed>3.110000</speed>
<extensions>
<speed>3.1</speed>
<temp>0.00</temp>
<bpm>0</bpm>
<rpm>0.00</rpm>
</extensions>
</trkpt>
<trkpt lat="30.668615341" lon="34.882854462">
<ele>743.640625</ele>
<time>2013-11-22T08:26:53Z</time>
<speed>3.340000</speed>
<extensions>
<speed>3.3</speed>
<temp>0.00</temp>
<bpm>0</bpm>
<rpm>0.00</rpm>
</extensions>
</trkpt>
<trkpt lat="30.668666840" lon="34.883003235">
<ele>741.953125</ele>
<time>2013-11-22T08:26:58Z</time>
<speed>3.100000</speed>
<extensions>
<speed>3.1</speed>
<temp>0.00</temp>
<bpm>0</bpm>
<rpm>0.00</rpm>
</extensions>
</trkpt>
<trkpt lat="30.668708801" lon="34.883140564">
<ele>741.531250</ele>
<time>2013-11-22T08:27:03Z</time>
<speed>2.790000</speed>
<extensions>
<speed>2.8</speed>
<temp>0.00</temp>
<bpm>0</bpm>
<rpm>0.00</rpm>
</extensions>
</trkpt>
<trkpt lat="30.668733597" lon="34.883285522">
<ele>743.703125</ele>
<time>2013-11-22T08:27:08Z</time>
<speed>2.260000</speed>
<extensions>
<speed>2.3</speed>
<temp>0.00</temp>
<bpm>0</bpm>
<rpm>0.00</rpm>
</extensions>
</trkpt>
<trkpt lat="30.668722153" lon="34.883419037">
<ele>743.593750</ele>
<time>2013-11-22T08:27:13Z</time>
<speed>3.930000</speed>
<extensions>
<speed>3.9</speed>
<temp>0.00</temp>
<bpm>0</bpm>
<rpm>0.00</rpm>
</extensions>
</trkpt>
<trkpt lat="30.668752670" lon="34.883613586">
<ele>743.437500</ele>
<time>2013-11-22T08:27:18Z</time>
<speed>4.520000</speed>
<extensions>
<speed>4.5</speed>
<temp>0.00</temp>
<bpm>0</bpm>
<rpm>0.00</rpm>
</extensions>
</trkpt>
<trkpt lat="30.668836594" lon="34.883827209">
<ele>743.437500</ele>
<time>2013-11-22T08:27:23Z</time>
<speed>4.560000</speed>
<extensions>
<speed>4.6</speed>
<temp>0.00</temp>
<bpm>0</bpm>
<rpm>0.00</rpm>
</extensions>
</trkpt>
<trkpt lat="30.668899536" lon="34.884037018">
<ele>741.718750</ele>
<time>2013-11-22T08:27:28Z</time>
<speed>3.290000</speed>
<extensions>
<speed>3.3</speed>
<temp>0.00</temp>
<bpm>0</bpm>
<rpm>0.00</rpm>
</extensions>
</trkpt>
<trkpt lat="30.668916702" lon="34.884155273">
<ele>743.515625</ele>
<time>2013-11-22T08:27:33Z</time>
<speed>3.650000</speed>
<extensions>
<speed>3.7</speed>
<temp>0.00</temp>
<bpm>0</bpm>
<rpm>0.00</rpm>
</extensions>
</trkpt>
<trkpt lat="30.668949127" lon="34.884323120">
<ele>743.156250</ele>
<time>2013-11-22T08:27:38Z</time>
<speed>3.820000</speed>
<extensions>
<speed>3.8</speed>
<temp>0.00</temp>
<bpm>0</bpm>
<rpm>0.00</rpm>
</extensions>
</trkpt>
<trkpt lat="30.668994904" lon="34.884532928">
<ele>742.562500</ele>
<time>2013-11-22T08:27:43Z</time>
<speed>3.910000</speed>
<extensions>
<speed>3.9</speed>
<temp>0.00</temp>
<bpm>0</bpm>
<rpm>0.00</rpm>
</extensions>
</trkpt>
<trkpt lat="30.669019699" lon="34.884723663">
<ele>740.859375</ele>
<time>2013-11-22T08:27:48Z</time>
<speed>2.990000</speed>
<extensions>
<speed>3.0</speed>
<temp>0.00</temp>
<bpm>0</bpm>
<rpm>0.00</rpm>
</extensions>
</trkpt>
<trkpt lat="30.669078827" lon="34.884883881">
<ele>740.718750</ele>
<time>2013-11-22T08:27:53Z</time>
<speed>3.890000</speed>
<extensions>
<speed>3.9</speed>
<temp>0.00</temp>
<bpm>0</bpm>
<rpm>0.00</rpm>
</extensions>
</trkpt>
<trkpt lat="30.669122696" lon="34.885086060">
<ele>738.703125</ele>
<time>2013-11-22T08:27:58Z</time>
<speed>4.230000</speed>
<extensions>
<speed>4.2</speed>
<temp>0.00</temp>
<bpm>0</bpm>
<rpm>0.00</rpm>
</extensions>
</trkpt>
<trkpt lat="30.669174194" lon="34.885299683">
<ele>738.453125</ele>
<time>2013-11-22T08:28:03Z</time>
<speed>3.700000</speed>
<extensions>
<speed>3.7</speed>
<temp>0.00</temp>
<bpm>0</bpm>
<rpm>0.00</rpm>
</extensions>
</trkpt>
<trkpt lat="30.669200897" lon="34.885433197">
<ele>737.312500</ele>
<time>2013-11-22T08:28:08Z</time>
<speed>2.210000</speed>
<extensions>
<speed>2.2</speed>
<temp>0.00</temp>
<bpm>0</bpm>
<rpm>0.00</rpm>
</extensions>
</trkpt>
<trkpt lat="30.669235229" lon="34.885536194">
<ele>737.281250</ele>
<time>2013-11-22T08:28:13Z</time>
<speed>2.610000</speed>
<extensions>
<speed>2.6</speed>
<temp>0.00</temp>
<bpm>0</bpm>
<rpm>0.00</rpm>
</extensions>
</trkpt>
<trkpt lat="30.669286728" lon="34.885707855">
<ele>737.218750</ele>
<time>2013-11-22T08:28:18Z</time>
<speed>2.570000</speed>
<extensions>
<speed>2.6</speed>
<temp>0.00</temp>
<bpm>0</bpm>
<rpm>0.00</rpm>
</extensions>
</trkpt>
<trkpt lat="30.669324875" lon="34.885837555">
<ele>734.140625</ele>
<time>2013-11-22T08:28:23Z</time>
<speed>2.960000</speed>
<extensions>
<speed>3.0</speed>
<temp>0.00</temp>
<bpm>0</bpm>
<rpm>0.00</rpm>
</extensions>
</trkpt>
<trkpt lat="30.669387817" lon="34.886005402">
<ele>733.421875</ele>
<time>2013-11-22T08:28:28Z</time>
<speed>3.050000</speed>
<extensions>
<speed>3.0</speed>
<temp>0.00</temp>
<bpm>0</bpm>
<rpm>0.00</rpm>
</extensions>
</trkpt>
<trkpt lat="30.669454575" lon="34.886135101">
<ele>734.156250</ele>
<time>2013-11-22T08:28:33Z</time>
<speed>3.170000</speed>
<extensions>
<speed>3.2</speed>
<temp>0.00</temp>
<bpm>0</bpm>
<rpm>0.00</rpm>
</extensions>
</trkpt>
<trkpt lat="30.669530869" lon="34.886249542">
<ele>737.484375</ele>
<time>2013-11-22T08:28:38Z</time>
<speed>3.240000</speed>
<extensions>
<speed>3.2</speed>
<temp>0.00</temp>
<bpm>0</bpm>
<rpm>0.00</rpm>
</extensions>
</trkpt>
<trkpt lat="30.669618607" lon="34.886405945">
<ele>740.031250</ele>
<time>2013-11-22T08:28:43Z</time>
<speed>3.270000</speed>
<extensions>
<speed>3.3</speed>
<temp>0.00</temp>
<bpm>0</bpm>
<rpm>0.00</rpm>
</extensions>
</trkpt>
<trkpt lat="30.669708252" lon="34.886585236">
<ele>741.953125</ele>
<time>2013-11-22T08:28:48Z</time>
<speed>4.020000</speed>
<extensions>
<speed>4.0</speed>
<temp>0.00</temp>
<bpm>0</bpm>
<rpm>0.00</rpm>
</extensions>
</trkpt>
<trkpt lat="30.669813156" lon="34.886741638">
<ele>742.578125</ele>
<time>2013-11-22T08:28:53Z</time>
<speed>3.300000</speed>
<extensions>
<speed>3.3</speed>
<temp>0.00</temp>
<bpm>0</bpm>
<rpm>0.00</rpm>
</extensions>
</trkpt>
<trkpt lat="30.669874191" lon="34.886859894">
<ele>744.812500</ele>
<time>2013-11-22T08:28:58Z</time>
<speed>2.240000</speed>
<extensions>
<speed>2.2</speed>
<temp>0.00</temp>
<bpm>0</bpm>
<rpm>0.00</rpm>
</extensions>
</trkpt>
<trkpt lat="30.669929504" lon="34.886943817">
<ele>745.765625</ele>
<time>2013-11-22T08:29:03Z</time>
<speed>2.750000</speed>
<extensions>
<speed>2.7</speed>
<temp>0.00</temp>
<bpm>0</bpm>
<rpm>0.00</rpm>
</extensions>
</trkpt>
<trkpt lat="30.670019150" lon="34.887042999">
<ele>744.640625</ele>
<time>2013-11-22T08:29:08Z</time>
<speed>2.790000</speed>
<extensions>
<speed>2.8</speed>
<temp>0.00</temp>
<bpm>0</bpm>
<rpm>0.00</rpm>
</extensions>
</trkpt>
<trkpt lat="30.670093536" lon="34.887149811">
<ele>743.812500</ele>
<time>2013-11-22T08:29:13Z</time>
<speed>2.720000</speed>
<extensions>
<speed>2.7</speed>
<temp>0.00</temp>
<bpm>0</bpm>
<rpm>0.00</rpm>
</extensions>
</trkpt>
<trkpt lat="30.670177460" lon="34.887279510">
<ele>742.078125</ele>
<time>2013-11-22T08:29:18Z</time>
<speed>2.620000</speed>
<extensions>
<speed>2.6</speed>
<temp>0.00</temp>
<bpm>0</bpm>
<rpm>0.00</rpm>
</extensions>
</trkpt>
<trkpt lat="30.670259476" lon="34.887390137">
<ele>741.656250</ele>
<time>2013-11-22T08:29:23Z</time>
<speed>2.120000</speed>
<extensions>
<speed>2.1</speed>
<temp>0.00</temp>
<bpm>0</bpm>
<rpm>0.00</rpm>
</extensions>
</trkpt>
<trkpt lat="30.670307159" lon="34.887451172">
<ele>741.140625</ele>
<time>2013-11-22T08:29:28Z</time>
<speed>2.310000</speed>
<extensions>
<speed>2.3</speed>
<temp>0.00</temp>
<bpm>0</bpm>
<rpm>0.00</rpm>
</extensions>
</trkpt>
<trkpt lat="30.670373917" lon="34.887516022">
<ele>742.093750</ele>
<time>2013-11-22T08:29:33Z</time>
<speed>2.600000</speed>
<extensions>
<speed>2.6</speed>
<temp>0.00</temp>
<bpm>0</bpm>
<rpm>0.00</rpm>
</extensions>
</trkpt>
<trkpt lat="30.670446396" lon="34.887611389">
<ele>743.390625</ele>
<time>2013-11-22T08:29:38Z</time>
<speed>1.940000</speed>
<extensions>
<speed>1.9</speed>
<temp>0.00</temp>
<bpm>0</bpm>
<rpm>0.00</rpm>
</extensions>
</trkpt>
<trkpt lat="30.670549393" lon="34.887737274">
<ele>743.906250</ele>
<time>2013-11-22T08:29:43Z</time>
<speed>2.920000</speed>
<extensions>
<speed>2.9</speed>
<temp>0.00</temp>
<bpm>0</bpm>
<rpm>0.00</rpm>
</extensions>
</trkpt>
<trkpt lat="30.670640945" lon="34.887870789">
<ele>745.671875</ele>
<time>2013-11-22T08:29:48Z</time>
<speed>3.160000</speed>
<extensions>
<speed>3.2</speed>
<temp>0.00</temp>
<bpm>0</bpm>
<rpm>0.00</rpm>
</extensions>
</trkpt>
<trkpt lat="30.670711517" lon="34.887969971">
<ele>746.531250</ele>
<time>2013-11-22T08:29:53Z</time>
<speed>1.180000</speed>
<extensions>
<speed>1.2</speed>
<temp>0.00</temp>
<bpm>0</bpm>
<rpm>0.00</rpm>
</extensions>
</trkpt>
<trkpt lat="30.670717239" lon="34.887989044">
<ele>745.734375</ele>
<time>2013-11-22T08:29:58Z</time>
<speed>0.100000</speed>
<extensions>
<speed>0.1</speed>
<temp>0.00</temp>
<bpm>0</bpm>
<rpm>0.00</rpm>
</extensions>
</trkpt>
<trkpt lat="30.670719147" lon="34.887992859">
<ele>745.781250</ele>
<time>2013-11-22T08:30:03Z</time>
<speed>0.050000</speed>
<extensions>
<speed>0.1</speed>
<temp>0.00</temp>
<bpm>0</bpm>
<rpm>0.00</rpm>
</extensions>
</trkpt>
<trkpt lat="30.670717239" lon="34.887992859">
<ele>745.734375</ele>
<time>2013-11-22T08:30:08Z</time>
<speed>0.010000</speed>
<extensions>
<speed>0.0</speed>
<temp>0.00</temp>
<bpm>0</bpm>
<rpm>0.00</rpm>
</extensions>
</trkpt>
<trkpt lat="30.670711517" lon="34.887989044">
<ele>745.718750</ele>
<time>2013-11-22T08:30:13Z</time>
<speed>0.450000</speed>
<extensions>
<speed>0.5</speed>
<temp>0.00</temp>
<bpm>0</bpm>
<rpm>0.00</rpm>
</extensions>
</trkpt>
<trkpt lat="30.670783997" lon="34.888050079">
<ele>746.031250</ele>
<time>2013-11-22T08:30:18Z</time>
<speed>2.620000</speed>
<extensions>
<speed>2.6</speed>
<temp>0.00</temp>
<bpm>0</bpm>
<rpm>0.00</rpm>
</extensions>
</trkpt>
<trkpt lat="30.670913696" lon="34.888118744">
<ele>745.281250</ele>
<time>2013-11-22T08:30:23Z</time>
<speed>3.400000</speed>
<extensions>
<speed>3.4</speed>
<temp>0.00</temp>
<bpm>0</bpm>
<rpm>0.00</rpm>
</extensions>
</trkpt>
<trkpt lat="30.671060562" lon="34.888191223">
<ele>744.828125</ele>
<time>2013-11-22T08:30:28Z</time>
<speed>3.710000</speed>
<extensions>
<speed>3.7</speed>
<temp>0.00</temp>
<bpm>0</bpm>
<rpm>0.00</rpm>
</extensions>
</trkpt>
<trkpt lat="30.671262741" lon="34.888259888">
<ele>744.015625</ele>
<time>2013-11-22T08:30:33Z</time>
<speed>5.040000</speed>
<extensions>
<speed>5.0</speed>
<temp>0.00</temp>
<bpm>0</bpm>
<rpm>0.00</rpm>
</extensions>
</trkpt>
<trkpt lat="30.671518326" lon="34.888275146">
<ele>745.890625</ele>
<time>2013-11-22T08:30:38Z</time>
<speed>4.090000</speed>
<extensions>
<speed>4.1</speed>
<temp>0.00</temp>
<bpm>0</bpm>
<rpm>0.00</rpm>
</extensions>
</trkpt>
<trkpt lat="30.671693802" lon="34.888305664">
<ele>749.765625</ele>
<time>2013-11-22T08:30:43Z</time>
<speed>3.290000</speed>
<extensions>
<speed>3.3</speed>
<temp>0.00</temp>
<bpm>0</bpm>
<rpm>0.00</rpm>
</extensions>
</trkpt>
<trkpt lat="30.671834946" lon="34.888347626">
<ele>751.109375</ele>
<time>2013-11-22T08:30:48Z</time>
<speed>2.710000</speed>
<extensions>
<speed>2.7</speed>
<temp>0.00</temp>
<bpm>0</bpm>
<rpm>0.00</rpm>
</extensions>
</trkpt>
<trkpt lat="30.671987534" lon="34.888385773">
<ele>750.359375</ele>
<time>2013-11-22T08:30:53Z</time>
<speed>3.380000</speed>
<extensions>
<speed>3.4</speed>
<temp>0.00</temp>
<bpm>0</bpm>
<rpm>0.00</rpm>
</extensions>
</trkpt>
<trkpt lat="30.672136307" lon="34.888423920">
<ele>749.218750</ele>
<time>2013-11-22T08:30:58Z</time>
<speed>3.220000</speed>
<extensions>
<speed>3.2</speed>
<temp>0.00</temp>
<bpm>0</bpm>
<rpm>0.00</rpm>
</extensions>
</trkpt>
<trkpt lat="30.672279358" lon="34.888500214">
<ele>748.046875</ele>
<time>2013-11-22T08:31:03Z</time>
<speed>4.140000</speed>
<extensions>
<speed>4.1</speed>
<temp>0.00</temp>
<bpm>0</bpm>
<rpm>0.00</rpm>
</extensions>
</trkpt>
<trkpt lat="30.672414780" lon="34.888603210">
<ele>745.687500</ele>
<time>2013-11-22T08:31:08Z</time>
<speed>4.000000</speed>
<extensions>
<speed>4.0</speed>
<temp>0.00</temp>
<bpm>0</bpm>
<rpm>0.00</rpm>
</extensions>
</trkpt>
<trkpt lat="30.672569275" lon="34.888748169">
<ele>744.328125</ele>
<time>2013-11-22T08:31:13Z</time>
<speed>3.720000</speed>
<extensions>
<speed>3.7</speed>
<temp>0.00</temp>
<bpm>0</bpm>
<rpm>0.00</rpm>
</extensions>
</trkpt>
<trkpt lat="30.672729492" lon="34.888881683">
<ele>744.296875</ele>
<time>2013-11-22T08:31:18Z</time>
<speed>4.320000</speed>
<extensions>
<speed>4.3</speed>
<temp>0.00</temp>
<bpm>0</bpm>
<rpm>0.00</rpm>
</extensions>
</trkpt>
<trkpt lat="30.672872543" lon="34.889034271">
<ele>744.140625</ele>
<time>2013-11-22T08:31:23Z</time>
<speed>4.520000</speed>
<extensions>
<speed>4.5</speed>
<temp>0.00</temp>
<bpm>0</bpm>
<rpm>0.00</rpm>
</extensions>
</trkpt>
<trkpt lat="30.672918320" lon="34.889225006">
<ele>743.984375</ele>
<time>2013-11-22T08:31:28Z</time>
<speed>3.940000</speed>
<extensions>
<speed>3.9</speed>
<temp>0.00</temp>
<bpm>0</bpm>
<rpm>0.00</rpm>
</extensions>
</trkpt>
<trkpt lat="30.672929764" lon="34.889408112">
<ele>741.609375</ele>
<time>2013-11-22T08:31:33Z</time>
<speed>3.180000</speed>
<extensions>
<speed>3.2</speed>
<temp>0.00</temp>
<bpm>0</bpm>
<rpm>0.00</rpm>
</extensions>
</trkpt>
<trkpt lat="30.672918320" lon="34.889591217">
<ele>740.187500</ele>
<time>2013-11-22T08:31:38Z</time>
<speed>3.370000</speed>
<extensions>
<speed>3.4</speed>
<temp>0.00</temp>
<bpm>0</bpm>
<rpm>0.00</rpm>
</extensions>
</trkpt>
<trkpt lat="30.672910690" lon="34.889797211">
<ele>739.750000</ele>
<time>2013-11-22T08:31:43Z</time>
<speed>3.770000</speed>
<extensions>
<speed>3.8</speed>
<temp>0.00</temp>
<bpm>0</bpm>
<rpm>0.00</rpm>
</extensions>
</trkpt>
<trkpt lat="30.672878265" lon="34.889965057">
<ele>739.984375</ele>
<time>2013-11-22T08:31:48Z</time>
<speed>3.470000</speed>
<extensions>
<speed>3.5</speed>
<temp>0.00</temp>
<bpm>0</bpm>
<rpm>0.00</rpm>
</extensions>
</trkpt>
<trkpt lat="30.672843933" lon="34.890136719">
<ele>738.718750</ele>
<time>2013-11-22T08:31:53Z</time>
<speed>3.350000</speed>
<extensions>
<speed>3.4</speed>
<temp>0.00</temp>
<bpm>0</bpm>
<rpm>0.00</rpm>
</extensions>
</trkpt>
<trkpt lat="30.672809601" lon="34.890335083">
<ele>737.765625</ele>
<time>2013-11-22T08:31:58Z</time>
<speed>3.770000</speed>
<extensions>
<speed>3.8</speed>
<temp>0.00</temp>
<bpm>0</bpm>
<rpm>0.00</rpm>
</extensions>
</trkpt>
<trkpt lat="30.672786713" lon="34.890529633">
<ele>736.234375</ele>
<time>2013-11-22T08:32:03Z</time>
<speed>3.800000</speed>
<extensions>
<speed>3.8</speed>
<temp>0.00</temp>
<bpm>0</bpm>
<rpm>0.00</rpm>
</extensions>
</trkpt>
<trkpt lat="30.672773361" lon="34.890731812">
<ele>735.187500</ele>
<time>2013-11-22T08:32:08Z</time>
<speed>3.940000</speed>
<extensions>
<speed>3.9</speed>
<temp>0.00</temp>
<bpm>0</bpm>
<rpm>0.00</rpm>
</extensions>
</trkpt>
<trkpt lat="30.672788620" lon="34.890937805">
<ele>734.500000</ele>
<time>2013-11-22T08:32:13Z</time>
<speed>3.570000</speed>
<extensions>
<speed>3.6</speed>
<temp>0.00</temp>
<bpm>0</bpm>
<rpm>0.00</rpm>
</extensions>
</trkpt>
<trkpt lat="30.672832489" lon="34.891136169">
<ele>733.859375</ele>
<time>2013-11-22T08:32:18Z</time>
<speed>4.310000</speed>
<extensions>
<speed>4.3</speed>
<temp>0.00</temp>
<bpm>0</bpm>
<rpm>0.00</rpm>
</extensions>
</trkpt>
<trkpt lat="30.672908783" lon="34.891300201">
<ele>733.937500</ele>
<time>2013-11-22T08:32:23Z</time>
<speed>3.880000</speed>
<extensions>
<speed>3.9</speed>
<temp>0.00</temp>
<bpm>0</bpm>
<rpm>0.00</rpm>
</extensions>
</trkpt>
<trkpt lat="30.672996521" lon="34.891483307">
<ele>736.328125</ele>
<time>2013-11-22T08:32:28Z</time>
<speed>4.220000</speed>
<extensions>
<speed>4.2</speed>
<temp>0.00</temp>
<bpm>0</bpm>
<rpm>0.00</rpm>
</extensions>
</trkpt>
<trkpt lat="30.673061371" lon="34.891651154">
<ele>739.828125</ele>
<time>2013-11-22T08:32:33Z</time>
<speed>3.880000</speed>
<extensions>
<speed>3.9</speed>
<temp>0.00</temp>
<bpm>0</bpm>
<rpm>0.00</rpm>
</extensions>
</trkpt>
<trkpt lat="30.673173904" lon="34.891792297">
<ele>741.906250</ele>
<time>2013-11-22T08:32:38Z</time>
<speed>4.730000</speed>
<extensions>
<speed>4.7</speed>
<temp>0.00</temp>
<bpm>0</bpm>
<rpm>0.00</rpm>
</extensions>
</trkpt>
<trkpt lat="30.673244476" lon="34.891979218">
<ele>743.218750</ele>
<time>2013-11-22T08:32:43Z</time>
<speed>4.430000</speed>
<extensions>
<speed>4.4</speed>
<temp>0.00</temp>
<bpm>0</bpm>
<rpm>0.00</rpm>
</extensions>
</trkpt>
<trkpt lat="30.673206329" lon="34.892181396">
<ele>744.187500</ele>
<time>2013-11-22T08:32:48Z</time>
<speed>0.390000</speed>
<extensions>
<speed>0.4</speed>
<temp>0.00</temp>
<bpm>0</bpm>
<rpm>0.00</rpm>
</extensions>
</trkpt>
<trkpt lat="30.673200607" lon="34.892169952">
<ele>743.578125</ele>
<time>2013-11-22T08:32:53Z</time>
<speed>0.010000</speed>
<extensions>
<speed>0.0</speed>
<temp>0.00</temp>
<bpm>0</bpm>
<rpm>0.00</rpm>
</extensions>
</trkpt>
<trkpt lat="30.673198700" lon="34.892169952">
<ele>743.531250</ele>
<time>2013-11-22T08:32:58Z</time>
<speed>0.040000</speed>
<extensions>
<speed>0.0</speed>
<temp>0.00</temp>
<bpm>0</bpm>
<rpm>0.00</rpm>
</extensions>
</trkpt>
<trkpt lat="30.673202515" lon="34.892215729">
<ele>743.796875</ele>
<time>2013-11-22T08:33:03Z</time>
<speed>2.320000</speed>
<extensions>
<speed>2.3</speed>
<temp>0.00</temp>
<bpm>0</bpm>
<rpm>0.00</rpm>
</extensions>
</trkpt>
<trkpt lat="30.673244476" lon="34.892398834">
<ele>743.062500</ele>
<time>2013-11-22T08:33:08Z</time>
<speed>4.540000</speed>
<extensions>
<speed>4.5</speed>
<temp>0.00</temp>
<bpm>0</bpm>
<rpm>0.00</rpm>
</extensions>
</trkpt>
<trkpt lat="30.673341751" lon="34.892631531">
<ele>742.484375</ele>
<time>2013-11-22T08:33:13Z</time>
<speed>4.910000</speed>
<extensions>
<speed>4.9</speed>
<temp>0.00</temp>
<bpm>0</bpm>
<rpm>0.00</rpm>
</extensions>
</trkpt>
<trkpt lat="30.673442841" lon="34.893013000">
<ele>742.078125</ele>
<time>2013-11-22T08:33:18Z</time>
<speed>8.910000</speed>
<extensions>
<speed>8.9</speed>
<temp>0.00</temp>
<bpm>0</bpm>
<rpm>0.00</rpm>
</extensions>
</trkpt>
<trkpt lat="30.673540115" lon="34.893428802">
<ele>739.640625</ele>
<time>2013-11-22T08:33:23Z</time>
<speed>6.440000</speed>
<extensions>
<speed>6.4</speed>
<temp>0.00</temp>
<bpm>0</bpm>
<rpm>0.00</rpm>
</extensions>
</trkpt>
<trkpt lat="30.673563004" lon="34.893608093">
<ele>738.328125</ele>
<time>2013-11-22T08:33:28Z</time>
<speed>1.530000</speed>
<extensions>
<speed>1.5</speed>
<temp>0.00</temp>
<bpm>0</bpm>
<rpm>0.00</rpm>
</extensions>
</trkpt>
<trkpt lat="30.673572540" lon="34.893703461">
<ele>736.593750</ele>
<time>2013-11-22T08:33:33Z</time>
<speed>1.770000</speed>
<extensions>
<speed>1.8</speed>
<temp>0.00</temp>
<bpm>0</bpm>
<rpm>0.00</rpm>
</extensions>
</trkpt>
<trkpt lat="30.673591614" lon="34.893806458">
<ele>735.718750</ele>
<time>2013-11-22T08:33:38Z</time>
<speed>1.790000</speed>
<extensions>
<speed>1.8</speed>
<temp>0.00</temp>
<bpm>0</bpm>
<rpm>0.00</rpm>
</extensions>
</trkpt>
<trkpt lat="30.673601151" lon="34.893913269">
<ele>736.000000</ele>
<time>2013-11-22T08:33:43Z</time>
<speed>2.420000</speed>
<extensions>
<speed>2.4</speed>
<temp>0.00</temp>
<bpm>0</bpm>
<rpm>0.00</rpm>
</extensions>
</trkpt>
<trkpt lat="30.673627853" lon="34.894042969">
<ele>736.015625</ele>
<time>2013-11-22T08:33:48Z</time>
<speed>2.130000</speed>
<extensions>
<speed>2.1</speed>
<temp>0.00</temp>
<bpm>0</bpm>
<rpm>0.00</rpm>
</extensions>
</trkpt>
<trkpt lat="30.673675537" lon="34.894149780">
<ele>736.671875</ele>
<time>2013-11-22T08:33:53Z</time>
<speed>2.750000</speed>
<extensions>
<speed>2.7</speed>
<temp>0.00</temp>
<bpm>0</bpm>
<rpm>0.00</rpm>
</extensions>
</trkpt>
<trkpt lat="30.673725128" lon="34.894256592">
<ele>736.734375</ele>
<time>2013-11-22T08:33:58Z</time>
<speed>2.510000</speed>
<extensions>
<speed>2.5</speed>
<temp>0.00</temp>
<bpm>0</bpm>
<rpm>0.00</rpm>
</extensions>
</trkpt>
<trkpt lat="30.673757553" lon="34.894351959">
<ele>737.453125</ele>
<time>2013-11-22T08:34:03Z</time>
<speed>1.670000</speed>
<extensions>
<speed>1.7</speed>
<temp>0.00</temp>
<bpm>0</bpm>
<rpm>0.00</rpm>
</extensions>
</trkpt>
<trkpt lat="30.673755646" lon="34.894378662">
<ele>736.343750</ele>
<time>2013-11-22T08:34:08Z</time>
<speed>0.100000</speed>
<extensions>
<speed>0.1</speed>
<temp>0.00</temp>
<bpm>0</bpm>
<rpm>0.00</rpm>
</extensions>
</trkpt>
<trkpt lat="30.673753738" lon="34.894378662">
<ele>736.312500</ele>
<time>2013-11-22T08:34:13Z</time>
<speed>0.010000</speed>
<extensions>
<speed>0.0</speed>
<temp>0.00</temp>
<bpm>0</bpm>
<rpm>0.00</rpm>
</extensions>
</trkpt>
<trkpt lat="30.673751831" lon="34.894382477">
<ele>736.250000</ele>
<time>2013-11-22T08:34:18Z</time>
<speed>0.630000</speed>
<extensions>
<speed>0.6</speed>
<temp>0.00</temp>
<bpm>0</bpm>
<rpm>0.00</rpm>
</extensions>
</trkpt>
<trkpt lat="30.673831940" lon="34.894500732">
<ele>735.109375</ele>
<time>2013-11-22T08:34:23Z</time>
<speed>6.030000</speed>
<extensions>
<speed>6.0</speed>
<temp>0.00</temp>
<bpm>0</bpm>
<rpm>0.00</rpm>
</extensions>
</trkpt>
<trkpt lat="30.674112320" lon="34.894557953">
<ele>729.515625</ele>
<time>2013-11-22T08:34:28Z</time>
<speed>7.570000</speed>
<extensions>
<speed>7.6</speed>
<temp>0.00</temp>
<bpm>0</bpm>
<rpm>0.00</rpm>
</extensions>
</trkpt>
<trkpt lat="30.674489975" lon="34.894477844">
<ele>719.593750</ele>
<time>2013-11-22T08:34:33Z</time>
<speed>8.160000</speed>
<extensions>
<speed>8.2</speed>
<temp>0.00</temp>
<bpm>0</bpm>
<rpm>0.00</rpm>
</extensions>
</trkpt>
<trkpt lat="30.674903870" lon="34.894592285">
<ele>716.875000</ele>
<time>2013-11-22T08:34:38Z</time>
<speed>8.560000</speed>
<extensions>
<speed>8.6</speed>
<temp>0.00</temp>
<bpm>0</bpm>
<rpm>0.00</rpm>
</extensions>
</trkpt>
<trkpt lat="30.675285339" lon="34.894702911">
<ele>712.906250</ele>
<time>2013-11-22T08:34:43Z</time>
<speed>10.270000</speed>
<extensions>
<speed>10.3</speed>
<temp>0.00</temp>
<bpm>0</bpm>
<rpm>0.00</rpm>
</extensions>
</trkpt>
<trkpt lat="30.675704956" lon="34.894844055">
<ele>709.609375</ele>
<time>2013-11-22T08:34:48Z</time>
<speed>9.350000</speed>
<extensions>
<speed>9.3</speed>
<temp>0.00</temp>
<bpm>0</bpm>
<rpm>0.00</rpm>
</extensions>
</trkpt>
<trkpt lat="30.676082611" lon="34.895061493">
<ele>704.109375</ele>
<time>2013-11-22T08:34:53Z</time>
<speed>8.010000</speed>
<extensions>
<speed>8.0</speed>
<temp>0.00</temp>
<bpm>0</bpm>
<rpm>0.00</rpm>
</extensions>
</trkpt>
<trkpt lat="30.676383972" lon="34.895328522">
<ele>700.187500</ele>
<time>2013-11-22T08:34:58Z</time>
<speed>8.120000</speed>
<extensions>
<speed>8.1</speed>
<temp>0.00</temp>
<bpm>0</bpm>
<rpm>0.00</rpm>
</extensions>
</trkpt>
<trkpt lat="30.676664352" lon="34.895641327">
<ele>703.046875</ele>
<time>2013-11-22T08:35:03Z</time>
<speed>7.360000</speed>
<extensions>
<speed>7.4</speed>
<temp>0.00</temp>
<bpm>0</bpm>
<rpm>0.00</rpm>
</extensions>
</trkpt>
<trkpt lat="30.676807404" lon="34.895801544">
<ele>702.921875</ele>
<time>2013-11-22T08:35:08Z</time>
<speed>0.690000</speed>
<extensions>
<speed>0.7</speed>
<temp>0.00</temp>
<bpm>0</bpm>
<rpm>0.00</rpm>
</extensions>
</trkpt>
<trkpt lat="30.676815033" lon="34.895816803">
<ele>703.390625</ele>
<time>2013-11-22T08:35:13Z</time>
<speed>0.050000</speed>
<extensions>
<speed>0.1</speed>
<temp>0.00</temp>
<bpm>0</bpm>
<rpm>0.00</rpm>
</extensions>
</trkpt>
<trkpt lat="30.676860809" lon="34.895866394">
<ele>701.937500</ele>
<time>2013-11-22T08:35:18Z</time>
<speed>2.210000</speed>
<extensions>
<speed>2.2</speed>
<temp>0.00</temp>
<bpm>0</bpm>
<rpm>0.00</rpm>
</extensions>
</trkpt>
<trkpt lat="30.676946640" lon="34.895919800">
<ele>701.578125</ele>
<time>2013-11-22T08:35:23Z</time>
<speed>2.720000</speed>
<extensions>
<speed>2.7</speed>
<temp>0.00</temp>
<bpm>0</bpm>
<rpm>0.00</rpm>
</extensions>
</trkpt>
<trkpt lat="30.677101135" lon="34.896026611">
<ele>700.843750</ele>
<time>2013-11-22T08:35:28Z</time>
<speed>5.070000</speed>
<extensions>
<speed>5.1</speed>
<temp>0.00</temp>
<bpm>0</bpm>
<rpm>0.00</rpm>
</extensions>
</trkpt>
<trkpt lat="30.677289963" lon="34.896198273">
<ele>700.843750</ele>
<time>2013-11-22T08:35:33Z</time>
<speed>4.900000</speed>
<extensions>
<speed>4.9</speed>
<temp>0.00</temp>
<bpm>0</bpm>
<rpm>0.00</rpm>
</extensions>
</trkpt>
<trkpt lat="30.677436829" lon="34.896385193">
<ele>700.921875</ele>
<time>2013-11-22T08:35:38Z</time>
<speed>4.740000</speed>
<extensions>
<speed>4.7</speed>
<temp>0.00</temp>
<bpm>0</bpm>
<rpm>0.00</rpm>
</extensions>
</trkpt>
<trkpt lat="30.677604675" lon="34.896560669">
<ele>702.046875</ele>
<time>2013-11-22T08:35:43Z</time>
<speed>4.800000</speed>
<extensions>
<speed>4.8</speed>
<temp>0.00</temp>
<bpm>0</bpm>
<rpm>0.00</rpm>
</extensions>
</trkpt>
<trkpt lat="30.677766800" lon="34.896770477">
<ele>703.484375</ele>
<time>2013-11-22T08:35:48Z</time>
<speed>5.960000</speed>
<extensions>
<speed>6.0</speed>
<temp>0.00</temp>
<bpm>0</bpm>
<rpm>0.00</rpm>
</extensions>
</trkpt>
<trkpt lat="30.677974701" lon="34.896968842">
<ele>703.500000</ele>
<time>2013-11-22T08:35:53Z</time>
<speed>5.610000</speed>
<extensions>
<speed>5.6</speed>
<temp>0.00</temp>
<bpm>0</bpm>
<rpm>0.00</rpm>
</extensions>
</trkpt>
<trkpt lat="30.678188324" lon="34.897163391">
<ele>702.984375</ele>
<time>2013-11-22T08:35:58Z</time>
<speed>5.130000</speed>
<extensions>
<speed>5.1</speed>
<temp>0.00</temp>
<bpm>0</bpm>
<rpm>0.00</rpm>
</extensions>
</trkpt>
<trkpt lat="30.678339005" lon="34.897323608">
<ele>702.500000</ele>
<time>2013-11-22T08:36:03Z</time>
<speed>4.720000</speed>
<extensions>
<speed>4.7</speed>
<temp>0.00</temp>
<bpm>0</bpm>
<rpm>0.00</rpm>
</extensions>
</trkpt>
<trkpt lat="30.678436279" lon="34.897476196">
<ele>700.250000</ele>
<time>2013-11-22T08:36:08Z</time>
<speed>4.530000</speed>
<extensions>
<speed>4.5</speed>
<temp>0.00</temp>
<bpm>0</bpm>
<rpm>0.00</rpm>
</extensions>
</trkpt>
<trkpt lat="30.678562164" lon="34.897659302">
<ele>700.343750</ele>
<time>2013-11-22T08:36:13Z</time>
<speed>4.850000</speed>
<extensions>
<speed>4.8</speed>
<temp>0.00</temp>
<bpm>0</bpm>
<rpm>0.00</rpm>
</extensions>
</trkpt>
<trkpt lat="30.678710938" lon="34.897830963">
<ele>702.125000</ele>
<time>2013-11-22T08:36:18Z</time>
<speed>5.560000</speed>
<extensions>
<speed>5.6</speed>
<temp>0.00</temp>
<bpm>0</bpm>
<rpm>0.00</rpm>
</extensions>
</trkpt>
<trkpt lat="30.678863525" lon="34.898029327">
<ele>706.281250</ele>
<time>2013-11-22T08:36:23Z</time>
<speed>4.870000</speed>
<extensions>
<speed>4.9</speed>
<temp>0.00</temp>
<bpm>0</bpm>
<rpm>0.00</rpm>
</extensions>
</trkpt>
<trkpt lat="30.678979874" lon="34.898200989">
<ele>705.328125</ele>
<time>2013-11-22T08:36:28Z</time>
<speed>3.750000</speed>
<extensions>
<speed>3.8</speed>
<temp>0.00</temp>
<bpm>0</bpm>
<rpm>0.00</rpm>
</extensions>
</trkpt>
<trkpt lat="30.679103851" lon="34.898365021">
<ele>705.500000</ele>
<time>2013-11-22T08:36:33Z</time>
<speed>5.210000</speed>
<extensions>
<speed>5.2</speed>
<temp>0.00</temp>
<bpm>0</bpm>
<rpm>0.00</rpm>
</extensions>
</trkpt>
<trkpt lat="30.679227829" lon="34.898536682">
<ele>705.562500</ele>
<time>2013-11-22T08:36:38Z</time>
<speed>4.250000</speed>
<extensions>
<speed>4.3</speed>
<temp>0.00</temp>
<bpm>0</bpm>
<rpm>0.00</rpm>
</extensions>
</trkpt>
<trkpt lat="30.679351807" lon="34.898708344">
<ele>702.859375</ele>
<time>2013-11-22T08:36:43Z</time>
<speed>4.800000</speed>
<extensions>
<speed>4.8</speed>
<temp>0.00</temp>
<bpm>0</bpm>
<rpm>0.00</rpm>
</extensions>
</trkpt>
<trkpt lat="30.679553986" lon="34.898906708">
<ele>700.828125</ele>
<time>2013-11-22T08:36:48Z</time>
<speed>5.730000</speed>
<extensions>
<speed>5.7</speed>
<temp>0.00</temp>
<bpm>0</bpm>
<rpm>0.00</rpm>
</extensions>
</trkpt>
<trkpt lat="30.679704666" lon="34.899051666">
<ele>699.921875</ele>
<time>2013-11-22T08:36:53Z</time>
<speed>4.050000</speed>
<extensions>
<speed>4.0</speed>
<temp>0.00</temp>
<bpm>0</bpm>
<rpm>0.00</rpm>
</extensions>
</trkpt>
<trkpt lat="30.679821014" lon="34.899181366">
<ele>697.328125</ele>
<time>2013-11-22T08:36:58Z</time>
<speed>4.620000</speed>
<extensions>
<speed>4.6</speed>
<temp>0.00</temp>
<bpm>0</bpm>
<rpm>0.00</rpm>
</extensions>
</trkpt>
<trkpt lat="30.680019379" lon="34.899238586">
<ele>694.921875</ele>
<time>2013-11-22T08:37:03Z</time>
<speed>4.620000</speed>
<extensions>
<speed>4.6</speed>
<temp>0.00</temp>
<bpm>0</bpm>
<rpm>0.00</rpm>
</extensions>
</trkpt>
<trkpt lat="30.680225372" lon="34.899349213">
<ele>693.546875</ele>
<time>2013-11-22T08:37:08Z</time>
<speed>5.210000</speed>
<extensions>
<speed>5.2</speed>
<temp>0.00</temp>
<bpm>0</bpm>
<rpm>0.00</rpm>
</extensions>
</trkpt>
<trkpt lat="30.680393219" lon="34.899517059">
<ele>692.968750</ele>
<time>2013-11-22T08:37:13Z</time>
<speed>5.080000</speed>
<extensions>
<speed>5.1</speed>
<temp>0.00</temp>
<bpm>0</bpm>
<rpm>0.00</rpm>
</extensions>
</trkpt>
<trkpt lat="30.680582047" lon="34.899707794">
<ele>693.593750</ele>
<time>2013-11-22T08:37:18Z</time>
<speed>5.420000</speed>
<extensions>
<speed>5.4</speed>
<temp>0.00</temp>
<bpm>0</bpm>
<rpm>0.00</rpm>
</extensions>
</trkpt>
<trkpt lat="30.680757523" lon="34.899841309">
<ele>691.375000</ele>
<time>2013-11-22T08:37:23Z</time>
<speed>4.680000</speed>
<extensions>
<speed>4.7</speed>
<temp>0.00</temp>
<bpm>0</bpm>
<rpm>0.00</rpm>
</extensions>
</trkpt>
<trkpt lat="30.680913925" lon="34.899959564">
<ele>689.578125</ele>
<time>2013-11-22T08:37:28Z</time>
<speed>4.010000</speed>
<extensions>
<speed>4.0</speed>
<temp>0.00</temp>
<bpm>0</bpm>
<rpm>0.00</rpm>
</extensions>
</trkpt>
<trkpt lat="30.681060791" lon="34.900093079">
<ele>688.156250</ele>
<time>2013-11-22T08:37:33Z</time>
<speed>4.190000</speed>
<extensions>
<speed>4.2</speed>
<temp>0.00</temp>
<bpm>0</bpm>
<rpm>0.00</rpm>
</extensions>
</trkpt>
<trkpt lat="30.681203842" lon="34.900165558">
<ele>687.015625</ele>
<time>2013-11-22T08:37:38Z</time>
<speed>3.480000</speed>
<extensions>
<speed>3.5</speed>
<temp>0.00</temp>
<bpm>0</bpm>
<rpm>0.00</rpm>
</extensions>
</trkpt>
<trkpt lat="30.681354523" lon="34.900218964">
<ele>686.843750</ele>
<time>2013-11-22T08:37:43Z</time>
<speed>2.290000</speed>
<extensions>
<speed>2.3</speed>
<temp>0.00</temp>
<bpm>0</bpm>
<rpm>0.00</rpm>
</extensions>
</trkpt>
<trkpt lat="30.681461334" lon="34.900230408">
<ele>686.765625</ele>
<time>2013-11-22T08:37:48Z</time>
<speed>2.180000</speed>
<extensions>
<speed>2.2</speed>
<temp>0.00</temp>
<bpm>0</bpm>
<rpm>0.00</rpm>
</extensions>
</trkpt>
<trkpt lat="30.681512833" lon="34.900230408">
<ele>686.968750</ele>
<time>2013-11-22T08:37:53Z</time>
<speed>0.430000</speed>
<extensions>
<speed>0.4</speed>
<temp>0.00</temp>
<bpm>0</bpm>
<rpm>0.00</rpm>
</extensions>
</trkpt>
<trkpt lat="30.681510925" lon="34.900222778">
<ele>687.046875</ele>
<time>2013-11-22T08:37:58Z</time>
<speed>0.110000</speed>
<extensions>
<speed>0.1</speed>
<temp>0.00</temp>
<bpm>0</bpm>
<rpm>0.00</rpm>
</extensions>
</trkpt>
<trkpt lat="30.681514740" lon="34.900226593">
<ele>687.171875</ele>
<time>2013-11-22T08:38:03Z</time>
<speed>0.050000</speed>
<extensions>
<speed>0.1</speed>
<temp>0.00</temp>
<bpm>0</bpm>
<rpm>0.00</rpm>
</extensions>
</trkpt>
<trkpt lat="30.681510925" lon="34.900230408">
<ele>687.046875</ele>
<time>2013-11-22T08:38:08Z</time>
<speed>0.070000</speed>
<extensions>
<speed>0.1</speed>
<temp>0.00</temp>
<bpm>0</bpm>
<rpm>0.00</rpm>
</extensions>
</trkpt>
<trkpt lat="30.681510925" lon="34.900230408">
<ele>686.984375</ele>
<time>2013-11-22T08:38:13Z</time>
<speed>0.020000</speed>
<extensions>
<speed>0.0</speed>
<temp>0.00</temp>
<bpm>0</bpm>
<rpm>0.00</rpm>
</extensions>
</trkpt>
<trkpt lat="30.681510925" lon="34.900226593">
<ele>686.953125</ele>
<time>2013-11-22T08:38:18Z</time>
<speed>0.450000</speed>
<extensions>
<speed>0.5</speed>
<temp>0.00</temp>
<bpm>0</bpm>
<rpm>0.00</rpm>
</extensions>
</trkpt>
<trkpt lat="30.681512833" lon="34.900211334">
<ele>687.296875</ele>
<time>2013-11-22T08:38:23Z</time>
<speed>0.100000</speed>
<extensions>
<speed>0.1</speed>
<temp>0.00</temp>
<bpm>0</bpm>
<rpm>0.00</rpm>
</extensions>
</trkpt>
<trkpt lat="30.681512833" lon="34.900211334">
<ele>687.484375</ele>
<time>2013-11-22T08:38:28Z</time>
<speed>0.130000</speed>
<extensions>
<speed>0.1</speed>
<temp>0.00</temp>
<bpm>0</bpm>
<rpm>0.00</rpm>
</extensions>
</trkpt>
<trkpt lat="30.681510925" lon="34.900211334">
<ele>687.593750</ele>
<time>2013-11-22T08:38:33Z</time>
<speed>0.040000</speed>
<extensions>
<speed>0.0</speed>
<temp>0.00</temp>
<bpm>0</bpm>
<rpm>0.00</rpm>
</extensions>
</trkpt>
<trkpt lat="30.681516647" lon="34.900218964">
<ele>687.703125</ele>
<time>2013-11-22T08:38:38Z</time>
<speed>0.450000</speed>
<extensions>
<speed>0.5</speed>
<temp>0.00</temp>
<bpm>0</bpm>
<rpm>0.00</rpm>
</extensions>
</trkpt>
<trkpt lat="30.681522369" lon="34.900222778">
<ele>687.921875</ele>
<time>2013-11-22T08:38:43Z</time>
<speed>0.120000</speed>
<extensions>
<speed>0.1</speed>
<temp>0.00</temp>
<bpm>0</bpm>
<rpm>0.00</rpm>
</extensions>
</trkpt>
<trkpt lat="30.681524277" lon="34.900222778">
<ele>688.125000</ele>
<time>2013-11-22T08:38:48Z</time>
<speed>0.050000</speed>
<extensions>
<speed>0.1</speed>
<temp>0.00</temp>
<bpm>0</bpm>
<rpm>0.00</rpm>
</extensions>
</trkpt>
<trkpt lat="30.681526184" lon="34.900222778">
<ele>688.250000</ele>
<time>2013-11-22T08:38:53Z</time>
<speed>0.170000</speed>
<extensions>
<speed>0.2</speed>
<temp>0.00</temp>
<bpm>0</bpm>
<rpm>0.00</rpm>
</extensions>
</trkpt>
<trkpt lat="30.681529999" lon="34.900226593">
<ele>688.343750</ele>
<time>2013-11-22T08:38:58Z</time>
<speed>0.010000</speed>
<extensions>
<speed>0.0</speed>
<temp>0.00</temp>
<bpm>0</bpm>
<rpm>0.00</rpm>
</extensions>
</trkpt>
<trkpt lat="30.681528091" lon="34.900226593">
<ele>688.296875</ele>
<time>2013-11-22T08:39:03Z</time>
<speed>0.040000</speed>
<extensions>
<speed>0.0</speed>
<temp>0.00</temp>
<bpm>0</bpm>
<rpm>0.00</rpm>
</extensions>
</trkpt>
<trkpt lat="30.681528091" lon="34.900226593">
<ele>688.265625</ele>
<time>2013-11-22T08:39:08Z</time>
<speed>0.020000</speed>
<extensions>
<speed>0.0</speed>
<temp>0.00</temp>
<bpm>0</bpm>
<rpm>0.00</rpm>
</extensions>
</trkpt>
<trkpt lat="30.681529999" lon="34.900226593">
<ele>688.281250</ele>
<time>2013-11-22T08:39:13Z</time>
<speed>0.070000</speed>
<extensions>
<speed>0.1</speed>
<temp>0.00</temp>
<bpm>0</bpm>
<rpm>0.00</rpm>
</extensions>
</trkpt>
<trkpt lat="30.681529999" lon="34.900230408">
<ele>688.375000</ele>
<time>2013-11-22T08:39:18Z</time>
<speed>0.030000</speed>
<extensions>
<speed>0.0</speed>
<temp>0.00</temp>
<bpm>0</bpm>
<rpm>0.00</rpm>
</extensions>
</trkpt>
<trkpt lat="30.681529999" lon="34.900230408">
<ele>688.484375</ele>
<time>2013-11-22T08:39:23Z</time>
<speed>0.030000</speed>
<extensions>
<speed>0.0</speed>
<temp>0.00</temp>
<bpm>0</bpm>
<rpm>0.00</rpm>
</extensions>
</trkpt>
<trkpt lat="30.681529999" lon="34.900230408">
<ele>688.562500</ele>
<time>2013-11-22T08:39:28Z</time>
<speed>0.030000</speed>
<extensions>
<speed>0.0</speed>
<temp>0.00</temp>
<bpm>0</bpm>
<rpm>0.00</rpm>
</extensions>
</trkpt>
<trkpt lat="30.681529999" lon="34.900230408">
<ele>688.578125</ele>
<time>2013-11-22T08:39:33Z</time>
<speed>0.010000</speed>
<extensions>
<speed>0.0</speed>
<temp>0.00</temp>
<bpm>0</bpm>
<rpm>0.00</rpm>
</extensions>
</trkpt>
<trkpt lat="30.681529999" lon="34.900230408">
<ele>688.593750</ele>
<time>2013-11-22T08:39:38Z</time>
<speed>0.020000</speed>
<extensions>
<speed>0.0</speed>
<temp>0.00</temp>
<bpm>0</bpm>
<rpm>0.00</rpm>
</extensions>
</trkpt>
<trkpt lat="30.681529999" lon="34.900230408">
<ele>688.625000</ele>
<time>2013-11-22T08:39:43Z</time>
<speed>0.020000</speed>
<extensions>
<speed>0.0</speed>
<temp>0.00</temp>
<bpm>0</bpm>
<rpm>0.00</rpm>
</extensions>
</trkpt>
<trkpt lat="30.681529999" lon="34.900230408">
<ele>688.656250</ele>
<time>2013-11-22T08:39:48Z</time>
<speed>0.020000</speed>
<extensions>
<speed>0.0</speed>
<temp>0.00</temp>
<bpm>0</bpm>
<rpm>0.00</rpm>
</extensions>
</trkpt>
<trkpt lat="30.681554794" lon="34.900241852">
<ele>688.406250</ele>
<time>2013-11-22T08:39:53Z</time>
<speed>2.630000</speed>
<extensions>
<speed>2.6</speed>
<temp>0.00</temp>
<bpm>0</bpm>
<rpm>0.00</rpm>
</extensions>
</trkpt>
<trkpt lat="30.681697845" lon="34.900215149">
<ele>688.062500</ele>
<time>2013-11-22T08:39:58Z</time>
<speed>3.400000</speed>
<extensions>
<speed>3.4</speed>
<temp>0.00</temp>
<bpm>0</bpm>
<rpm>0.00</rpm>
</extensions>
</trkpt>
<trkpt lat="30.681831360" lon="34.900192261">
<ele>687.656250</ele>
<time>2013-11-22T08:40:03Z</time>
<speed>3.120000</speed>
<extensions>
<speed>3.1</speed>
<temp>0.00</temp>
<bpm>0</bpm>
<rpm>0.00</rpm>
</extensions>
</trkpt>
<trkpt lat="30.681972504" lon="34.900257111">
<ele>686.437500</ele>
<time>2013-11-22T08:40:08Z</time>
<speed>3.600000</speed>
<extensions>
<speed>3.6</speed>
<temp>0.00</temp>
<bpm>0</bpm>
<rpm>0.00</rpm>
</extensions>
</trkpt>
<trkpt lat="30.682117462" lon="34.900360107">
<ele>687.703125</ele>
<time>2013-11-22T08:40:13Z</time>
<speed>1.820000</speed>
<extensions>
<speed>1.8</speed>
<temp>0.00</temp>
<bpm>0</bpm>
<rpm>0.00</rpm>
</extensions>
</trkpt>
<trkpt lat="30.682220459" lon="34.900482178">
<ele>687.656250</ele>
<time>2013-11-22T08:40:18Z</time>
<speed>3.270000</speed>
<extensions>
<speed>3.3</speed>
<temp>0.00</temp>
<bpm>0</bpm>
<rpm>0.00</rpm>
</extensions>
</trkpt>
<trkpt lat="30.682315826" lon="34.900581360">
<ele>688.234375</ele>
<time>2013-11-22T08:40:23Z</time>
<speed>2.510000</speed>
<extensions>
<speed>2.5</speed>
<temp>0.00</temp>
<bpm>0</bpm>
<rpm>0.00</rpm>
</extensions>
</trkpt>
<trkpt lat="30.682418823" lon="34.900703430">
<ele>689.390625</ele>
<time>2013-11-22T08:40:28Z</time>
<speed>3.010000</speed>
<extensions>
<speed>3.0</speed>
<temp>0.00</temp>
<bpm>0</bpm>
<rpm>0.00</rpm>
</extensions>
</trkpt>
<trkpt lat="30.682477951" lon="34.900825500">
<ele>690.671875</ele>
<time>2013-11-22T08:40:33Z</time>
<speed>2.970000</speed>
<extensions>
<speed>3.0</speed>
<temp>0.00</temp>
<bpm>0</bpm>
<rpm>0.00</rpm>
</extensions>
</trkpt>
<trkpt lat="30.682538986" lon="34.900959015">
<ele>691.750000</ele>
<time>2013-11-22T08:40:38Z</time>
<speed>3.070000</speed>
<extensions>
<speed>3.1</speed>
<temp>0.00</temp>
<bpm>0</bpm>
<rpm>0.00</rpm>
</extensions>
</trkpt>
<trkpt lat="30.682619095" lon="34.901065826">
<ele>692.015625</ele>
<time>2013-11-22T08:40:43Z</time>
<speed>2.910000</speed>
<extensions>
<speed>2.9</speed>
<temp>0.00</temp>
<bpm>0</bpm>
<rpm>0.00</rpm>
</extensions>
</trkpt>
<trkpt lat="30.682727814" lon="34.901176453">
<ele>690.359375</ele>
<time>2013-11-22T08:40:48Z</time>
<speed>2.950000</speed>
<extensions>
<speed>2.9</speed>
<temp>0.00</temp>
<bpm>0</bpm>
<rpm>0.00</rpm>
</extensions>
</trkpt>
<trkpt lat="30.682872772" lon="34.901260376">
<ele>688.328125</ele>
<time>2013-11-22T08:40:53Z</time>
<speed>4.100000</speed>
<extensions>
<speed>4.1</speed>
<temp>0.00</temp>
<bpm>0</bpm>
<rpm>0.00</rpm>
</extensions>
</trkpt>
<trkpt lat="30.683038712" lon="34.901195526">
<ele>686.859375</ele>
<time>2013-11-22T08:40:58Z</time>
<speed>5.080000</speed>
<extensions>
<speed>5.1</speed>
<temp>0.00</temp>
<bpm>0</bpm>
<rpm>0.00</rpm>
</extensions>
</trkpt>
<trkpt lat="30.683191299" lon="34.901153564">
<ele>686.125000</ele>
<time>2013-11-22T08:41:03Z</time>
<speed>3.450000</speed>
<extensions>
<speed>3.5</speed>
<temp>0.00</temp>
<bpm>0</bpm>
<rpm>0.00</rpm>
</extensions>
</trkpt>
<trkpt lat="30.683345795" lon="34.901275635">
<ele>687.281250</ele>
<time>2013-11-22T08:41:08Z</time>
<speed>4.270000</speed>
<extensions>
<speed>4.3</speed>
<temp>0.00</temp>
<bpm>0</bpm>
<rpm>0.00</rpm>
</extensions>
</trkpt>
<trkpt lat="30.683485031" lon="34.901367188">
<ele>685.796875</ele>
<time>2013-11-22T08:41:13Z</time>
<speed>3.930000</speed>
<extensions>
<speed>3.9</speed>
<temp>0.00</temp>
<bpm>0</bpm>
<rpm>0.00</rpm>
</extensions>
</trkpt>
<trkpt lat="30.683614731" lon="34.901378632">
<ele>682.406250</ele>
<time>2013-11-22T08:41:18Z</time>
<speed>4.010000</speed>
<extensions>
<speed>4.0</speed>
<temp>0.00</temp>
<bpm>0</bpm>
<rpm>0.00</rpm>
</extensions>
</trkpt>
<trkpt lat="30.683773041" lon="34.901420593">
<ele>679.968750</ele>
<time>2013-11-22T08:41:23Z</time>
<speed>3.920000</speed>
<extensions>
<speed>3.9</speed>
<temp>0.00</temp>
<bpm>0</bpm>
<rpm>0.00</rpm>
</extensions>
</trkpt>
<trkpt lat="30.683927536" lon="34.901554108">
<ele>677.562500</ele>
<time>2013-11-22T08:41:28Z</time>
<speed>5.470000</speed>
<extensions>
<speed>5.5</speed>
<temp>0.00</temp>
<bpm>0</bpm>
<rpm>0.00</rpm>
</extensions>
</trkpt>
<trkpt lat="30.683965683" lon="34.901832581">
<ele>675.921875</ele>
<time>2013-11-22T08:41:33Z</time>
<speed>5.740000</speed>
<extensions>
<speed>5.7</speed>
<temp>0.00</temp>
<bpm>0</bpm>
<rpm>0.00</rpm>
</extensions>
</trkpt>
<trkpt lat="30.684072495" lon="34.902126312">
<ele>673.937500</ele>
<time>2013-11-22T08:41:38Z</time>
<speed>5.730000</speed>
<extensions>
<speed>5.7</speed>
<temp>0.00</temp>
<bpm>0</bpm>
<rpm>0.00</rpm>
</extensions>
</trkpt>
<trkpt lat="30.684192657" lon="34.902454376">
<ele>671.921875</ele>
<time>2013-11-22T08:41:43Z</time>
<speed>5.600000</speed>
<extensions>
<speed>5.6</speed>
<temp>0.00</temp>
<bpm>0</bpm>
<rpm>0.00</rpm>
</extensions>
</trkpt>
<trkpt lat="30.684242249" lon="34.902702332">
<ele>672.781250</ele>
<time>2013-11-22T08:41:48Z</time>
<speed>3.710000</speed>
<extensions>
<speed>3.7</speed>
<temp>0.00</temp>
<bpm>0</bpm>
<rpm>0.00</rpm>
</extensions>
</trkpt>
<trkpt lat="30.684371948" lon="34.902889252">
<ele>673.031250</ele>
<time>2013-11-22T08:41:53Z</time>
<speed>4.900000</speed>
<extensions>
<speed>4.9</speed>
<temp>0.00</temp>
<bpm>0</bpm>
<rpm>0.00</rpm>
</extensions>
</trkpt>
<trkpt lat="30.684551239" lon="34.903095245">
<ele>673.296875</ele>
<time>2013-11-22T08:41:58Z</time>
<speed>6.230000</speed>
<extensions>
<speed>6.2</speed>
<temp>0.00</temp>
<bpm>0</bpm>
<rpm>0.00</rpm>
</extensions>
</trkpt>
<trkpt lat="30.684703827" lon="34.903423309">
<ele>675.015625</ele>
<time>2013-11-22T08:42:03Z</time>
<speed>6.310000</speed>
<extensions>
<speed>6.3</speed>
<temp>0.00</temp>
<bpm>0</bpm>
<rpm>0.00</rpm>
</extensions>
</trkpt>
<trkpt lat="30.684740067" lon="34.903751373">
<ele>676.296875</ele>
<time>2013-11-22T08:42:08Z</time>
<speed>5.560000</speed>
<extensions>
<speed>5.6</speed>
<temp>0.00</temp>
<bpm>0</bpm>
<rpm>0.00</rpm>
</extensions>
</trkpt>
<trkpt lat="30.684705734" lon="34.904052734">
<ele>676.906250</ele>
<time>2013-11-22T08:42:13Z</time>
<speed>3.970000</speed>
<extensions>
<speed>4.0</speed>
<temp>0.00</temp>
<bpm>0</bpm>
<rpm>0.00</rpm>
</extensions>
</trkpt>
<trkpt lat="30.684686661" lon="34.904247284">
<ele>675.390625</ele>
<time>2013-11-22T08:42:18Z</time>
<speed>3.720000</speed>
<extensions>
<speed>3.7</speed>
<temp>0.00</temp>
<bpm>0</bpm>
<rpm>0.00</rpm>
</extensions>
</trkpt>
<trkpt lat="30.684667587" lon="34.904422760">
<ele>673.875000</ele>
<time>2013-11-22T08:42:23Z</time>
<speed>3.060000</speed>
<extensions>
<speed>3.1</speed>
<temp>0.00</temp>
<bpm>0</bpm>
<rpm>0.00</rpm>
</extensions>
</trkpt>
<trkpt lat="30.684652328" lon="34.904586792">
<ele>672.750000</ele>
<time>2013-11-22T08:42:28Z</time>
<speed>3.580000</speed>
<extensions>
<speed>3.6</speed>
<temp>0.00</temp>
<bpm>0</bpm>
<rpm>0.00</rpm>
</extensions>
</trkpt>
<trkpt lat="30.684638977" lon="34.904796600">
<ele>672.515625</ele>
<time>2013-11-22T08:42:33Z</time>
<speed>3.890000</speed>
<extensions>
<speed>3.9</speed>
<temp>0.00</temp>
<bpm>0</bpm>
<rpm>0.00</rpm>
</extensions>
</trkpt>
<trkpt lat="30.684675217" lon="34.904979706">
<ele>671.781250</ele>
<time>2013-11-22T08:42:38Z</time>
<speed>4.670000</speed>
<extensions>
<speed>4.7</speed>
<temp>0.00</temp>
<bpm>0</bpm>
<rpm>0.00</rpm>
</extensions>
</trkpt>
<trkpt lat="30.684799194" lon="34.905178070">
<ele>671.671875</ele>
<time>2013-11-22T08:42:43Z</time>
<speed>5.100000</speed>
<extensions>
<speed>5.1</speed>
<temp>0.00</temp>
<bpm>0</bpm>
<rpm>0.00</rpm>
</extensions>
</trkpt>
<trkpt lat="30.684974670" lon="34.905342102">
<ele>667.562500</ele>
<time>2013-11-22T08:42:48Z</time>
<speed>4.400000</speed>
<extensions>
<speed>4.4</speed>
<temp>0.00</temp>
<bpm>0</bpm>
<rpm>0.00</rpm>
</extensions>
</trkpt>
<trkpt lat="30.685140610" lon="34.905471802">
<ele>664.906250</ele>
<time>2013-11-22T08:42:53Z</time>
<speed>4.370000</speed>
<extensions>
<speed>4.4</speed>
<temp>0.00</temp>
<bpm>0</bpm>
<rpm>0.00</rpm>
</extensions>
</trkpt>
<trkpt lat="30.685276031" lon="34.905712128">
<ele>663.062500</ele>
<time>2013-11-22T08:42:58Z</time>
<speed>8.090000</speed>
<extensions>
<speed>8.1</speed>
<temp>0.00</temp>
<bpm>0</bpm>
<rpm>0.00</rpm>
</extensions>
</trkpt>
<trkpt lat="30.685441971" lon="34.905982971">
<ele>660.531250</ele>
<time>2013-11-22T08:43:03Z</time>
<speed>5.170000</speed>
<extensions>
<speed>5.2</speed>
<temp>0.00</temp>
<bpm>0</bpm>
<rpm>0.00</rpm>
</extensions>
</trkpt>
<trkpt lat="30.685548782" lon="34.906307220">
<ele>657.843750</ele>
<time>2013-11-22T08:43:08Z</time>
<speed>5.630000</speed>
<extensions>
<speed>5.6</speed>
<temp>0.00</temp>
<bpm>0</bpm>
<rpm>0.00</rpm>
</extensions>
</trkpt>
<trkpt lat="30.685676575" lon="34.906452179">
<ele>655.109375</ele>
<time>2013-11-22T08:43:13Z</time>
<speed>2.540000</speed>
<extensions>
<speed>2.5</speed>
<temp>0.00</temp>
<bpm>0</bpm>
<rpm>0.00</rpm>
</extensions>
</trkpt>
<trkpt lat="30.685749054" lon="34.906528473">
<ele>654.796875</ele>
<time>2013-11-22T08:43:18Z</time>
<speed>0.640000</speed>
<extensions>
<speed>0.6</speed>
<temp>0.00</temp>
<bpm>0</bpm>
<rpm>0.00</rpm>
</extensions>
</trkpt>
<trkpt lat="30.685760498" lon="34.906547546">
<ele>654.000000</ele>
<time>2013-11-22T08:43:23Z</time>
<speed>0.080000</speed>
<extensions>
<speed>0.1</speed>
<temp>0.00</temp>
<bpm>0</bpm>
<rpm>0.00</rpm>
</extensions>
</trkpt>
<trkpt lat="30.685823441" lon="34.906581879">
<ele>654.328125</ele>
<time>2013-11-22T08:43:28Z</time>
<speed>3.740000</speed>
<extensions>
<speed>3.7</speed>
<temp>0.00</temp>
<bpm>0</bpm>
<rpm>0.00</rpm>
</extensions>
</trkpt>
<trkpt lat="30.685987473" lon="34.906742096">
<ele>655.609375</ele>
<time>2013-11-22T08:43:33Z</time>
<speed>5.100000</speed>
<extensions>
<speed>5.1</speed>
<temp>0.00</temp>
<bpm>0</bpm>
<rpm>0.00</rpm>
</extensions>
</trkpt>
<trkpt lat="30.686113358" lon="34.907032013">
<ele>657.656250</ele>
<time>2013-11-22T08:43:38Z</time>
<speed>6.130000</speed>
<extensions>
<speed>6.1</speed>
<temp>0.00</temp>
<bpm>0</bpm>
<rpm>0.00</rpm>
</extensions>
</trkpt>
<trkpt lat="30.686183929" lon="34.907192230">
<ele>658.562500</ele>
<time>2013-11-22T08:43:43Z</time>
<speed>2.500000</speed>
<extensions>
<speed>2.5</speed>
<temp>0.00</temp>
<bpm>0</bpm>
<rpm>0.00</rpm>
</extensions>
</trkpt>
<trkpt lat="30.686223984" lon="34.907314301">
<ele>659.234375</ele>
<time>2013-11-22T08:43:48Z</time>
<speed>2.330000</speed>
<extensions>
<speed>2.3</speed>
<temp>0.00</temp>
<bpm>0</bpm>
<rpm>0.00</rpm>
</extensions>
</trkpt>
<trkpt lat="30.686265945" lon="34.907424927">
<ele>660.375000</ele>
<time>2013-11-22T08:43:53Z</time>
<speed>2.060000</speed>
<extensions>
<speed>2.1</speed>
<temp>0.00</temp>
<bpm>0</bpm>
<rpm>0.00</rpm>
</extensions>
</trkpt>
<trkpt lat="30.686283112" lon="34.907546997">
<ele>660.171875</ele>
<time>2013-11-22T08:43:58Z</time>
<speed>2.190000</speed>
<extensions>
<speed>2.2</speed>
<temp>0.00</temp>
<bpm>0</bpm>
<rpm>0.00</rpm>
</extensions>
</trkpt>
<trkpt lat="30.686286926" lon="34.907711029">
<ele>660.343750</ele>
<time>2013-11-22T08:44:03Z</time>
<speed>3.480000</speed>
<extensions>
<speed>3.5</speed>
<temp>0.00</temp>
<bpm>0</bpm>
<rpm>0.00</rpm>
</extensions>
</trkpt>
<trkpt lat="30.686361313" lon="34.907920837">
<ele>658.265625</ele>
<time>2013-11-22T08:44:08Z</time>
<speed>4.010000</speed>
<extensions>
<speed>4.0</speed>
<temp>0.00</temp>
<bpm>0</bpm>
<rpm>0.00</rpm>
</extensions>
</trkpt>
<trkpt lat="30.686477661" lon="34.908111572">
<ele>657.109375</ele>
<time>2013-11-22T08:44:13Z</time>
<speed>4.810000</speed>
<extensions>
<speed>4.8</speed>
<temp>0.00</temp>
<bpm>0</bpm>
<rpm>0.00</rpm>
</extensions>
</trkpt>
<trkpt lat="30.686519623" lon="34.908317566">
<ele>654.953125</ele>
<time>2013-11-22T08:44:18Z</time>
<speed>3.670000</speed>
<extensions>
<speed>3.7</speed>
<temp>0.00</temp>
<bpm>0</bpm>
<rpm>0.00</rpm>
</extensions>
</trkpt>
<trkpt lat="30.686571121" lon="34.908466339">
<ele>654.218750</ele>
<time>2013-11-22T08:44:23Z</time>
<speed>2.880000</speed>
<extensions>
<speed>2.9</speed>
<temp>0.00</temp>
<bpm>0</bpm>
<rpm>0.00</rpm>
</extensions>
</trkpt>
<trkpt lat="30.686620712" lon="34.908584595">
<ele>652.843750</ele>
<time>2013-11-22T08:44:28Z</time>
<speed>2.860000</speed>
<extensions>
<speed>2.9</speed>
<temp>0.00</temp>
<bpm>0</bpm>
<rpm>0.00</rpm>
</extensions>
</trkpt>
<trkpt lat="30.686693192" lon="34.908687592">
<ele>650.515625</ele>
<time>2013-11-22T08:44:33Z</time>
<speed>2.580000</speed>
<extensions>
<speed>2.6</speed>
<temp>0.00</temp>
<bpm>0</bpm>
<rpm>0.00</rpm>
</extensions>
</trkpt>
<trkpt lat="30.686893463" lon="34.908859253">
<ele>651.390625</ele>
<time>2013-11-22T08:44:38Z</time>
<speed>4.740000</speed>
<extensions>
<speed>4.7</speed>
<temp>0.00</temp>
<bpm>0</bpm>
<rpm>0.00</rpm>
</extensions>
</trkpt>
<trkpt lat="30.687061310" lon="34.908977509">
<ele>651.500000</ele>
<time>2013-11-22T08:44:43Z</time>
<speed>3.990000</speed>
<extensions>
<speed>4.0</speed>
<temp>0.00</temp>
<bpm>0</bpm>
<rpm>0.00</rpm>
</extensions>
</trkpt>
<trkpt lat="30.687173843" lon="34.909069061">
<ele>651.703125</ele>
<time>2013-11-22T08:44:48Z</time>
<speed>2.260000</speed>
<extensions>
<speed>2.3</speed>
<temp>0.00</temp>
<bpm>0</bpm>
<rpm>0.00</rpm>
</extensions>
</trkpt>
<trkpt lat="30.687269211" lon="34.909137726">
<ele>653.109375</ele>
<time>2013-11-22T08:44:53Z</time>
<speed>3.290000</speed>
<extensions>
<speed>3.3</speed>
<temp>0.00</temp>
<bpm>0</bpm>
<rpm>0.00</rpm>
</extensions>
</trkpt>
<trkpt lat="30.687410355" lon="34.909221649">
<ele>652.656250</ele>
<time>2013-11-22T08:44:58Z</time>
<speed>3.910000</speed>
<extensions>
<speed>3.9</speed>
<temp>0.00</temp>
<bpm>0</bpm>
<rpm>0.00</rpm>
</extensions>
</trkpt>
<trkpt lat="30.687599182" lon="34.909305573">
<ele>652.343750</ele>
<time>2013-11-22T08:45:03Z</time>
<speed>5.020000</speed>
<extensions>
<speed>5.0</speed>
<temp>0.00</temp>
<bpm>0</bpm>
<rpm>0.00</rpm>
</extensions>
</trkpt>
<trkpt lat="30.687797546" lon="34.909358978">
<ele>651.015625</ele>
<time>2013-11-22T08:45:08Z</time>
<speed>3.010000</speed>
<extensions>
<speed>3.0</speed>
<temp>0.00</temp>
<bpm>0</bpm>
<rpm>0.00</rpm>
</extensions>
</trkpt>
<trkpt lat="30.688001633" lon="34.909381866">
<ele>649.671875</ele>
<time>2013-11-22T08:45:13Z</time>
<speed>5.480000</speed>
<extensions>
<speed>5.5</speed>
<temp>0.00</temp>
<bpm>0</bpm>
<rpm>0.00</rpm>
</extensions>
</trkpt>
<trkpt lat="30.688337326" lon="34.909301758">
<ele>648.500000</ele>
<time>2013-11-22T08:45:18Z</time>
<speed>7.250000</speed>
<extensions>
<speed>7.3</speed>
<temp>0.00</temp>
<bpm>0</bpm>
<rpm>0.00</rpm>
</extensions>
</trkpt>
<trkpt lat="30.688524246" lon="34.909236908">
<ele>648.187500</ele>
<time>2013-11-22T08:45:23Z</time>
<speed>3.280000</speed>
<extensions>
<speed>3.3</speed>
<temp>0.00</temp>
<bpm>0</bpm>
<rpm>0.00</rpm>
</extensions>
</trkpt>
<trkpt lat="30.688671112" lon="34.909179688">
<ele>647.781250</ele>
<time>2013-11-22T08:45:28Z</time>
<speed>4.080000</speed>
<extensions>
<speed>4.1</speed>
<temp>0.00</temp>
<bpm>0</bpm>
<rpm>0.00</rpm>
</extensions>
</trkpt>
<trkpt lat="30.688817978" lon="34.909076691">
<ele>647.703125</ele>
<time>2013-11-22T08:45:33Z</time>
<speed>3.600000</speed>
<extensions>
<speed>3.6</speed>
<temp>0.00</temp>
<bpm>0</bpm>
<rpm>0.00</rpm>
</extensions>
</trkpt>
<trkpt lat="30.688911438" lon="34.908939362">
<ele>647.500000</ele>
<time>2013-11-22T08:45:38Z</time>
<speed>3.280000</speed>
<extensions>
<speed>3.3</speed>
<temp>0.00</temp>
<bpm>0</bpm>
<rpm>0.00</rpm>
</extensions>
</trkpt>
<trkpt lat="30.688962936" lon="34.908809662">
<ele>647.546875</ele>
<time>2013-11-22T08:45:43Z</time>
<speed>2.340000</speed>
<extensions>
<speed>2.3</speed>
<temp>0.00</temp>
<bpm>0</bpm>
<rpm>0.00</rpm>
</extensions>
</trkpt>
<trkpt lat="30.689054489" lon="34.908699036">
<ele>647.656250</ele>
<time>2013-11-22T08:45:48Z</time>
<speed>3.200000</speed>
<extensions>
<speed>3.2</speed>
<temp>0.00</temp>
<bpm>0</bpm>
<rpm>0.00</rpm>
</extensions>
</trkpt>
<trkpt lat="30.689186096" lon="34.908611298">
<ele>648.000000</ele>
<time>2013-11-22T08:45:53Z</time>
<speed>3.120000</speed>
<extensions>
<speed>3.1</speed>
<temp>0.00</temp>
<bpm>0</bpm>
<rpm>0.00</rpm>
</extensions>
</trkpt>
<trkpt lat="30.689334869" lon="34.908489227">
<ele>647.359375</ele>
<time>2013-11-22T08:45:58Z</time>
<speed>4.940000</speed>
<extensions>
<speed>4.9</speed>
<temp>0.00</temp>
<bpm>0</bpm>
<rpm>0.00</rpm>
</extensions>
</trkpt>
<trkpt lat="30.689451218" lon="34.908294678">
<ele>647.531250</ele>
<time>2013-11-22T08:46:03Z</time>
<speed>4.540000</speed>
<extensions>
<speed>4.5</speed>
<temp>0.00</temp>
<bpm>0</bpm>
<rpm>0.00</rpm>
</extensions>
</trkpt>
<trkpt lat="30.689554214" lon="34.908157349">
<ele>650.234375</ele>
<time>2013-11-22T08:46:08Z</time>
<speed>3.080000</speed>
<extensions>
<speed>3.1</speed>
<temp>0.00</temp>
<bpm>0</bpm>
<rpm>0.00</rpm>
</extensions>
</trkpt>
<trkpt lat="30.689548492" lon="34.908123016">
<ele>650.234375</ele>
<time>2013-11-22T08:46:13Z</time>
<speed>0.280000</speed>
<extensions>
<speed>0.3</speed>
<temp>0.00</temp>
<bpm>0</bpm>
<rpm>0.00</rpm>
</extensions>
</trkpt>
<trkpt lat="30.689542770" lon="34.908123016">
<ele>650.328125</ele>
<time>2013-11-22T08:46:18Z</time>
<speed>0.010000</speed>
<extensions>
<speed>0.0</speed>
<temp>0.00</temp>
<bpm>0</bpm>
<rpm>0.00</rpm>
</extensions>
</trkpt>
<trkpt lat="30.689540863" lon="34.908123016">
<ele>650.343750</ele>
<time>2013-11-22T08:46:23Z</time>
<speed>0.040000</speed>
<extensions>
<speed>0.0</speed>
<temp>0.00</temp>
<bpm>0</bpm>
<rpm>0.00</rpm>
</extensions>
</trkpt>
<trkpt lat="30.689538956" lon="34.908123016">
<ele>650.328125</ele>
<time>2013-11-22T08:46:28Z</time>
<speed>0.110000</speed>
<extensions>
<speed>0.1</speed>
<temp>0.00</temp>
<bpm>0</bpm>
<rpm>0.00</rpm>
</extensions>
</trkpt>
<trkpt lat="30.689537048" lon="34.908119202">
<ele>650.296875</ele>
<time>2013-11-22T08:46:33Z</time>
<speed>0.060000</speed>
<extensions>
<speed>0.1</speed>
<temp>0.00</temp>
<bpm>0</bpm>
<rpm>0.00</rpm>
</extensions>
</trkpt>
<trkpt lat="30.689535141" lon="34.908119202">
<ele>650.296875</ele>
<time>2013-11-22T08:46:38Z</time>
<speed>0.050000</speed>
<extensions>
<speed>0.1</speed>
<temp>0.00</temp>
<bpm>0</bpm>
<rpm>0.00</rpm>
</extensions>
</trkpt>
<trkpt lat="30.689537048" lon="34.908123016">
<ele>650.281250</ele>
<time>2013-11-22T08:46:43Z</time>
<speed>0.030000</speed>
<extensions>
<speed>0.0</speed>
<temp>0.00</temp>
<bpm>0</bpm>
<rpm>0.00</rpm>
</extensions>
</trkpt>
<trkpt lat="30.689537048" lon="34.908123016">
<ele>650.281250</ele>
<time>2013-11-22T08:46:48Z</time>
<speed>0.040000</speed>
<extensions>
<speed>0.0</speed>
<temp>0.00</temp>
<bpm>0</bpm>
<rpm>0.00</rpm>
</extensions>
</trkpt>
<trkpt lat="30.689535141" lon="34.908123016">
<ele>650.312500</ele>
<time>2013-11-22T08:46:53Z</time>
<speed>0.040000</speed>
<extensions>
<speed>0.0</speed>
<temp>0.00</temp>
<bpm>0</bpm>
<rpm>0.00</rpm>
</extensions>
</trkpt>
<trkpt lat="30.689535141" lon="34.908123016">
<ele>650.328125</ele>
<time>2013-11-22T08:46:58Z</time>
<speed>0.030000</speed>
<extensions>
<speed>0.0</speed>
<temp>0.00</temp>
<bpm>0</bpm>
<rpm>0.00</rpm>
</extensions>
</trkpt>
<trkpt lat="30.689533234" lon="34.908126831">
<ele>650.343750</ele>
<time>2013-11-22T08:47:03Z</time>
<speed>0.020000</speed>
<extensions>
<speed>0.0</speed>
<temp>0.00</temp>
<bpm>0</bpm>
<rpm>0.00</rpm>
</extensions>
</trkpt>
<trkpt lat="30.689533234" lon="34.908123016">
<ele>650.343750</ele>
<time>2013-11-22T08:47:08Z</time>
<speed>0.010000</speed>
<extensions>
<speed>0.0</speed>
<temp>0.00</temp>
<bpm>0</bpm>
<rpm>0.00</rpm>
</extensions>
</trkpt>
<trkpt lat="30.689533234" lon="34.908123016">
<ele>650.312500</ele>
<time>2013-11-22T08:47:13Z</time>
<extensions>
<speed>0.0</speed>
<temp>0.00</temp>
<bpm>0</bpm>
<rpm>0.00</rpm>
</extensions>
</trkpt>
<trkpt lat="30.689533234" lon="34.908123016">
<ele>650.312500</ele>
<time>2013-11-22T08:47:18Z</time>
<extensions>
<speed>0.0</speed>
<temp>0.00</temp>
<bpm>0</bpm>
<rpm>0.00</rpm>
</extensions>
</trkpt>
<trkpt lat="30.689533234" lon="34.908126831">
<ele>650.312500</ele>
<time>2013-11-22T08:47:23Z</time>
<extensions>
<speed>0.0</speed>
<temp>0.00</temp>
<bpm>0</bpm>
<rpm>0.00</rpm>
</extensions>
</trkpt>
<trkpt lat="30.689533234" lon="34.908126831">
<ele>650.312500</ele>
<time>2013-11-22T08:47:28Z</time>
<extensions>
<speed>0.0</speed>
<temp>0.00</temp>
<bpm>0</bpm>
<rpm>0.00</rpm>
</extensions>
</trkpt>
<trkpt lat="30.689533234" lon="34.908126831">
<ele>650.296875</ele>
<time>2013-11-22T08:47:33Z</time>
<speed>0.010000</speed>
<extensions>
<speed>0.0</speed>
<temp>0.00</temp>
<bpm>0</bpm>
<rpm>0.00</rpm>
</extensions>
</trkpt>
<trkpt lat="30.689533234" lon="34.908126831">
<ele>650.296875</ele>
<time>2013-11-22T08:47:38Z</time>
<extensions>
<speed>0.0</speed>
<temp>0.00</temp>
<bpm>0</bpm>
<rpm>0.00</rpm>
</extensions>
</trkpt>
<trkpt lat="30.689533234" lon="34.908126831">
<ele>650.281250</ele>
<time>2013-11-22T08:47:43Z</time>
<extensions>
<speed>0.0</speed>
<temp>0.00</temp>
<bpm>0</bpm>
<rpm>0.00</rpm>
</extensions>
</trkpt>
<trkpt lat="30.689533234" lon="34.908126831">
<ele>650.265625</ele>
<time>2013-11-22T08:47:48Z</time>
<extensions>
<speed>0.0</speed>
<temp>0.00</temp>
<bpm>0</bpm>
<rpm>0.00</rpm>
</extensions>
</trkpt>
<trkpt lat="30.689533234" lon="34.908126831">
<ele>650.265625</ele>
<time>2013-11-22T08:47:53Z</time>
<extensions>
<speed>0.0</speed>
<temp>0.00</temp>
<bpm>0</bpm>
<rpm>0.00</rpm>
</extensions>
</trkpt>
<trkpt lat="30.689533234" lon="34.908126831">
<ele>650.250000</ele>
<time>2013-11-22T08:47:58Z</time>
<extensions>
<speed>0.0</speed>
<temp>0.00</temp>
<bpm>0</bpm>
<rpm>0.00</rpm>
</extensions>
</trkpt>
<trkpt lat="30.689533234" lon="34.908126831">
<ele>650.234375</ele>
<time>2013-11-22T08:48:03Z</time>
<extensions>
<speed>0.0</speed>
<temp>0.00</temp>
<bpm>0</bpm>
<rpm>0.00</rpm>
</extensions>
</trkpt>
<trkpt lat="30.689533234" lon="34.908126831">
<ele>650.234375</ele>
<time>2013-11-22T08:48:08Z</time>
<extensions>
<speed>0.0</speed>
<temp>0.00</temp>
<bpm>0</bpm>
<rpm>0.00</rpm>
</extensions>
</trkpt>
<trkpt lat="30.689533234" lon="34.908126831">
<ele>650.234375</ele>
<time>2013-11-22T08:48:13Z</time>
<extensions>
<speed>0.0</speed>
<temp>0.00</temp>
<bpm>0</bpm>
<rpm>0.00</rpm>
</extensions>
</trkpt>
<trkpt lat="30.689533234" lon="34.908126831">
<ele>650.234375</ele>
<time>2013-11-22T08:48:18Z</time>
<extensions>
<speed>0.0</speed>
<temp>0.00</temp>
<bpm>0</bpm>
<rpm>0.00</rpm>
</extensions>
</trkpt>
<trkpt lat="30.689533234" lon="34.908123016">
<ele>650.218750</ele>
<time>2013-11-22T08:48:23Z</time>
<speed>0.010000</speed>
<extensions>
<speed>0.0</speed>
<temp>0.00</temp>
<bpm>0</bpm>
<rpm>0.00</rpm>
</extensions>
</trkpt>
<trkpt lat="30.689533234" lon="34.908123016">
<ele>650.218750</ele>
<time>2013-11-22T08:48:28Z</time>
<extensions>
<speed>0.0</speed>
<temp>0.00</temp>
<bpm>0</bpm>
<rpm>0.00</rpm>
</extensions>
</trkpt>
<trkpt lat="30.689533234" lon="34.908126831">
<ele>650.203125</ele>
<time>2013-11-22T08:48:33Z</time>
<speed>0.010000</speed>
<extensions>
<speed>0.0</speed>
<temp>0.00</temp>
<bpm>0</bpm>
<rpm>0.00</rpm>
</extensions>
</trkpt>
<trkpt lat="30.689533234" lon="34.908126831">
<ele>650.218750</ele>
<time>2013-11-22T08:48:38Z</time>
<extensions>
<speed>0.0</speed>
<temp>0.00</temp>
<bpm>0</bpm>
<rpm>0.00</rpm>
</extensions>
</trkpt>
<trkpt lat="30.689533234" lon="34.908126831">
<ele>650.203125</ele>
<time>2013-11-22T08:48:43Z</time>
<extensions>
<speed>0.0</speed>
<temp>0.00</temp>
<bpm>0</bpm>
<rpm>0.00</rpm>
</extensions>
</trkpt>
<trkpt lat="30.689535141" lon="34.908126831">
<ele>650.156250</ele>
<time>2013-11-22T08:48:48Z</time>
<speed>0.030000</speed>
<extensions>
<speed>0.0</speed>
<temp>0.00</temp>
<bpm>0</bpm>
<rpm>0.00</rpm>
</extensions>
</trkpt>
<trkpt lat="30.689535141" lon="34.908126831">
<ele>650.140625</ele>
<time>2013-11-22T08:48:53Z</time>
<extensions>
<speed>0.0</speed>
<temp>0.00</temp>
<bpm>0</bpm>
<rpm>0.00</rpm>
</extensions>
</trkpt>
<trkpt lat="30.689535141" lon="34.908126831">
<ele>650.093750</ele>
<time>2013-11-22T08:48:58Z</time>
<extensions>
<speed>0.0</speed>
<temp>0.00</temp>
<bpm>0</bpm>
<rpm>0.00</rpm>
</extensions>
</trkpt>
<trkpt lat="30.689535141" lon="34.908126831">
<ele>650.078125</ele>
<time>2013-11-22T08:49:03Z</time>
<speed>0.010000</speed>
<extensions>
<speed>0.0</speed>
<temp>0.00</temp>
<bpm>0</bpm>
<rpm>0.00</rpm>
</extensions>
</trkpt>
<trkpt lat="30.689535141" lon="34.908126831">
<ele>650.062500</ele>
<time>2013-11-22T08:49:08Z</time>
<speed>0.020000</speed>
<extensions>
<speed>0.0</speed>
<temp>0.00</temp>
<bpm>0</bpm>
<rpm>0.00</rpm>
</extensions>
</trkpt>
<trkpt lat="30.689556122" lon="34.908088684">
<ele>649.828125</ele>
<time>2013-11-22T08:49:13Z</time>
<speed>2.150000</speed>
<extensions>
<speed>2.1</speed>
<temp>0.00</temp>
<bpm>0</bpm>
<rpm>0.00</rpm>
</extensions>
</trkpt>
<trkpt lat="30.689626694" lon="34.907978058">
<ele>649.781250</ele>
<time>2013-11-22T08:49:18Z</time>
<speed>2.090000</speed>
<extensions>
<speed>2.1</speed>
<temp>0.00</temp>
<bpm>0</bpm>
<rpm>0.00</rpm>
</extensions>
</trkpt>
<trkpt lat="30.689702988" lon="34.907867432">
<ele>647.703125</ele>
<time>2013-11-22T08:49:23Z</time>
<speed>3.170000</speed>
<extensions>
<speed>3.2</speed>
<temp>0.00</temp>
<bpm>0</bpm>
<rpm>0.00</rpm>
</extensions>
</trkpt>
<trkpt lat="30.689853668" lon="34.907779694">
<ele>646.187500</ele>
<time>2013-11-22T08:49:28Z</time>
<speed>3.650000</speed>
<extensions>
<speed>3.7</speed>
<temp>0.00</temp>
<bpm>0</bpm>
<rpm>0.00</rpm>
</extensions>
</trkpt>
<trkpt lat="30.689983368" lon="34.907840729">
<ele>645.375000</ele>
<time>2013-11-22T08:49:33Z</time>
<speed>2.910000</speed>
<extensions>
<speed>2.9</speed>
<temp>0.00</temp>
<bpm>0</bpm>
<rpm>0.00</rpm>
</extensions>
</trkpt>
<trkpt lat="30.690137863" lon="34.907844543">
<ele>646.312500</ele>
<time>2013-11-22T08:49:38Z</time>
<speed>3.970000</speed>
<extensions>
<speed>4.0</speed>
<temp>0.00</temp>
<bpm>0</bpm>
<rpm>0.00</rpm>
</extensions>
</trkpt>
<trkpt lat="30.690334320" lon="34.907882690">
<ele>645.000000</ele>
<time>2013-11-22T08:49:43Z</time>
<speed>4.260000</speed>
<extensions>
<speed>4.3</speed>
<temp>0.00</temp>
<bpm>0</bpm>
<rpm>0.00</rpm>
</extensions>
</trkpt>
<trkpt lat="30.690515518" lon="34.908004761">
<ele>644.218750</ele>
<time>2013-11-22T08:49:48Z</time>
<speed>4.500000</speed>
<extensions>
<speed>4.5</speed>
<temp>0.00</temp>
<bpm>0</bpm>
<rpm>0.00</rpm>
</extensions>
</trkpt>
<trkpt lat="30.690639496" lon="34.908096313">
<ele>641.484375</ele>
<time>2013-11-22T08:49:53Z</time>
<speed>2.120000</speed>
<extensions>
<speed>2.1</speed>
<temp>0.00</temp>
<bpm>0</bpm>
<rpm>0.00</rpm>
</extensions>
</trkpt>
<trkpt lat="30.690725327" lon="34.908092499">
<ele>642.171875</ele>
<time>2013-11-22T08:49:58Z</time>
<speed>1.460000</speed>
<extensions>
<speed>1.5</speed>
<temp>0.00</temp>
<bpm>0</bpm>
<rpm>0.00</rpm>
</extensions>
</trkpt>
<trkpt lat="30.690790176" lon="34.908050537">
<ele>641.343750</ele>
<time>2013-11-22T08:50:03Z</time>
<speed>3.000000</speed>
<extensions>
<speed>3.0</speed>
<temp>0.00</temp>
<bpm>0</bpm>
<rpm>0.00</rpm>
</extensions>
</trkpt>
<trkpt lat="30.690866470" lon="34.907970428">
<ele>642.140625</ele>
<time>2013-11-22T08:50:08Z</time>
<speed>1.990000</speed>
<extensions>
<speed>2.0</speed>
<temp>0.00</temp>
<bpm>0</bpm>
<rpm>0.00</rpm>
</extensions>
</trkpt>
<trkpt lat="30.690946579" lon="34.907970428">
<ele>642.562500</ele>
<time>2013-11-22T08:50:13Z</time>
<speed>1.820000</speed>
<extensions>
<speed>1.8</speed>
<temp>0.00</temp>
<bpm>0</bpm>
<rpm>0.00</rpm>
</extensions>
</trkpt>
<trkpt lat="30.691007614" lon="34.908111572">
<ele>642.781250</ele>
<time>2013-11-22T08:50:18Z</time>
<speed>3.870000</speed>
<extensions>
<speed>3.9</speed>
<temp>0.00</temp>
<bpm>0</bpm>
<rpm>0.00</rpm>
</extensions>
</trkpt>
<trkpt lat="30.691114426" lon="34.908214569">
<ele>641.843750</ele>
<time>2013-11-22T08:50:23Z</time>
<speed>2.320000</speed>
<extensions>
<speed>2.3</speed>
<temp>0.00</temp>
<bpm>0</bpm>
<rpm>0.00</rpm>
</extensions>
</trkpt>
<trkpt lat="30.691219330" lon="34.908290863">
<ele>640.625000</ele>
<time>2013-11-22T08:50:28Z</time>
<speed>3.720000</speed>
<extensions>
<speed>3.7</speed>
<temp>0.00</temp>
<bpm>0</bpm>
<rpm>0.00</rpm>
</extensions>
</trkpt>
<trkpt lat="30.691312790" lon="34.908374786">
<ele>638.515625</ele>
<time>2013-11-22T08:50:33Z</time>
<speed>2.230000</speed>
<extensions>
<speed>2.2</speed>
<temp>0.00</temp>
<bpm>0</bpm>
<rpm>0.00</rpm>
</extensions>
</trkpt>
<trkpt lat="30.691389084" lon="34.908443451">
<ele>638.765625</ele>
<time>2013-11-22T08:50:38Z</time>
<speed>2.030000</speed>
<extensions>
<speed>2.0</speed>
<temp>0.00</temp>
<bpm>0</bpm>
<rpm>0.00</rpm>
</extensions>
</trkpt>
<trkpt lat="30.691442490" lon="34.908515930">
<ele>640.015625</ele>
<time>2013-11-22T08:50:43Z</time>
<speed>2.050000</speed>
<extensions>
<speed>2.1</speed>
<temp>0.00</temp>
<bpm>0</bpm>
<rpm>0.00</rpm>
</extensions>
</trkpt>
<trkpt lat="30.691526413" lon="34.908603668">
<ele>642.000000</ele>
<time>2013-11-22T08:50:48Z</time>
<speed>2.230000</speed>
<extensions>
<speed>2.2</speed>
<temp>0.00</temp>
<bpm>0</bpm>
<rpm>0.00</rpm>
</extensions>
</trkpt>
<trkpt lat="30.691646576" lon="34.908657074">
<ele>641.906250</ele>
<time>2013-11-22T08:50:53Z</time>
<speed>3.150000</speed>
<extensions>
<speed>3.2</speed>
<temp>0.00</temp>
<bpm>0</bpm>
<rpm>0.00</rpm>
</extensions>
</trkpt>
<trkpt lat="30.691802979" lon="34.908718109">
<ele>641.187500</ele>
<time>2013-11-22T08:50:58Z</time>
<speed>3.730000</speed>
<extensions>
<speed>3.7</speed>
<temp>0.00</temp>
<bpm>0</bpm>
<rpm>0.00</rpm>
</extensions>
</trkpt>
<trkpt lat="30.691963196" lon="34.908790588">
<ele>641.218750</ele>
<time>2013-11-22T08:51:03Z</time>
<speed>3.640000</speed>
<extensions>
<speed>3.6</speed>
<temp>0.00</temp>
<bpm>0</bpm>
<rpm>0.00</rpm>
</extensions>
</trkpt>
<trkpt lat="30.692113876" lon="34.908821106">
<ele>640.218750</ele>
<time>2013-11-22T08:51:08Z</time>
<speed>2.880000</speed>
<extensions>
<speed>2.9</speed>
<temp>0.00</temp>
<bpm>0</bpm>
<rpm>0.00</rpm>
</extensions>
</trkpt>
<trkpt lat="30.692272186" lon="34.908771515">
<ele>641.781250</ele>
<time>2013-11-22T08:51:13Z</time>
<speed>3.340000</speed>
<extensions>
<speed>3.3</speed>
<temp>0.00</temp>
<bpm>0</bpm>
<rpm>0.00</rpm>
</extensions>
</trkpt>
<trkpt lat="30.692420959" lon="34.908706665">
<ele>639.656250</ele>
<time>2013-11-22T08:51:18Z</time>
<speed>3.690000</speed>
<extensions>
<speed>3.7</speed>
<temp>0.00</temp>
<bpm>0</bpm>
<rpm>0.00</rpm>
</extensions>
</trkpt>
<trkpt lat="30.692604065" lon="34.908714294">
<ele>640.171875</ele>
<time>2013-11-22T08:51:23Z</time>
<speed>2.980000</speed>
<extensions>
<speed>3.0</speed>
<temp>0.00</temp>
<bpm>0</bpm>
<rpm>0.00</rpm>
</extensions>
</trkpt>
<trkpt lat="30.692716599" lon="34.908664703">
<ele>635.156250</ele>
<time>2013-11-22T08:51:28Z</time>
<speed>3.160000</speed>
<extensions>
<speed>3.2</speed>
<temp>0.00</temp>
<bpm>0</bpm>
<rpm>0.00</rpm>
</extensions>
</trkpt>
<trkpt lat="30.692846298" lon="34.908695221">
<ele>633.406250</ele>
<time>2013-11-22T08:51:33Z</time>
<speed>2.550000</speed>
<extensions>
<speed>2.6</speed>
<temp>0.00</temp>
<bpm>0</bpm>
<rpm>0.00</rpm>
</extensions>
</trkpt>
<trkpt lat="30.692956924" lon="34.908740997">
<ele>631.515625</ele>
<time>2013-11-22T08:51:38Z</time>
<speed>3.320000</speed>
<extensions>
<speed>3.3</speed>
<temp>0.00</temp>
<bpm>0</bpm>
<rpm>0.00</rpm>
</extensions>
</trkpt>
<trkpt lat="30.693092346" lon="34.908821106">
<ele>632.125000</ele>
<time>2013-11-22T08:51:43Z</time>
<speed>3.510000</speed>
<extensions>
<speed>3.5</speed>
<temp>0.00</temp>
<bpm>0</bpm>
<rpm>0.00</rpm>
</extensions>
</trkpt>
<trkpt lat="30.693258286" lon="34.908882141">
<ele>631.875000</ele>
<time>2013-11-22T08:51:48Z</time>
<speed>3.170000</speed>
<extensions>
<speed>3.2</speed>
<temp>0.00</temp>
<bpm>0</bpm>
<rpm>0.00</rpm>
</extensions>
</trkpt>
<trkpt lat="30.693428040" lon="34.908920288">
<ele>631.765625</ele>
<time>2013-11-22T08:51:53Z</time>
<speed>4.320000</speed>
<extensions>
<speed>4.3</speed>
<temp>0.00</temp>
<bpm>0</bpm>
<rpm>0.00</rpm>
</extensions>
</trkpt>
<trkpt lat="30.693611145" lon="34.908962250">
<ele>632.500000</ele>
<time>2013-11-22T08:51:58Z</time>
<speed>2.980000</speed>
<extensions>
<speed>3.0</speed>
<temp>0.00</temp>
<bpm>0</bpm>
<rpm>0.00</rpm>
</extensions>
</trkpt>
<trkpt lat="30.693756104" lon="34.909023285">
<ele>632.828125</ele>
<time>2013-11-22T08:52:03Z</time>
<speed>3.150000</speed>
<extensions>
<speed>3.2</speed>
<temp>0.00</temp>
<bpm>0</bpm>
<rpm>0.00</rpm>
</extensions>
</trkpt>
<trkpt lat="30.693925858" lon="34.909030914">
<ele>631.593750</ele>
<time>2013-11-22T08:52:08Z</time>
<speed>3.920000</speed>
<extensions>
<speed>3.9</speed>
<temp>0.00</temp>
<bpm>0</bpm>
<rpm>0.00</rpm>
</extensions>
</trkpt>
<trkpt lat="30.694135666" lon="34.909023285">
<ele>632.437500</ele>
<time>2013-11-22T08:52:13Z</time>
<speed>3.030000</speed>
<extensions>
<speed>3.0</speed>
<temp>0.00</temp>
<bpm>0</bpm>
<rpm>0.00</rpm>
</extensions>
</trkpt>
<trkpt lat="30.694276810" lon="34.909080505">
<ele>633.031250</ele>
<time>2013-11-22T08:52:18Z</time>
<speed>2.880000</speed>
<extensions>
<speed>2.9</speed>
<temp>0.00</temp>
<bpm>0</bpm>
<rpm>0.00</rpm>
</extensions>
</trkpt>
<trkpt lat="30.694370270" lon="34.909133911">
<ele>631.750000</ele>
<time>2013-11-22T08:52:23Z</time>
<speed>1.850000</speed>
<extensions>
<speed>1.8</speed>
<temp>0.00</temp>
<bpm>0</bpm>
<rpm>0.00</rpm>
</extensions>
</trkpt>
<trkpt lat="30.694494247" lon="34.909206390">
<ele>632.171875</ele>
<time>2013-11-22T08:52:28Z</time>
<speed>2.590000</speed>
<extensions>
<speed>2.6</speed>
<temp>0.00</temp>
<bpm>0</bpm>
<rpm>0.00</rpm>
</extensions>
</trkpt>
<trkpt lat="30.694574356" lon="34.909355164">
<ele>632.203125</ele>
<time>2013-11-22T08:52:33Z</time>
<speed>3.440000</speed>
<extensions>
<speed>3.4</speed>
<temp>0.00</temp>
<bpm>0</bpm>
<rpm>0.00</rpm>
</extensions>
</trkpt>
<trkpt lat="30.694620132" lon="34.909500122">
<ele>633.109375</ele>
<time>2013-11-22T08:52:38Z</time>
<speed>0.200000</speed>
<extensions>
<speed>0.2</speed>
<temp>0.00</temp>
<bpm>0</bpm>
<rpm>0.00</rpm>
</extensions>
</trkpt>
<trkpt lat="30.694629669" lon="34.909606934">
<ele>633.578125</ele>
<time>2013-11-22T08:52:43Z</time>
<speed>3.010000</speed>
<extensions>
<speed>3.0</speed>
<temp>0.00</temp>
<bpm>0</bpm>
<rpm>0.00</rpm>
</extensions>
</trkpt>
<trkpt lat="30.694585800" lon="34.909770966">
<ele>633.531250</ele>
<time>2013-11-22T08:52:48Z</time>
<speed>3.270000</speed>
<extensions>
<speed>3.3</speed>
<temp>0.00</temp>
<bpm>0</bpm>
<rpm>0.00</rpm>
</extensions>
</trkpt>
<trkpt lat="30.694604874" lon="34.909973145">
<ele>631.734375</ele>
<time>2013-11-22T08:52:53Z</time>
<speed>4.370000</speed>
<extensions>
<speed>4.4</speed>
<temp>0.00</temp>
<bpm>0</bpm>
<rpm>0.00</rpm>
</extensions>
</trkpt>
<trkpt lat="30.694583893" lon="34.910205841">
<ele>630.593750</ele>
<time>2013-11-22T08:52:58Z</time>
<speed>4.380000</speed>
<extensions>
<speed>4.4</speed>
<temp>0.00</temp>
<bpm>0</bpm>
<rpm>0.00</rpm>
</extensions>
</trkpt>
<trkpt lat="30.694545746" lon="34.910392761">
<ele>630.234375</ele>
<time>2013-11-22T08:53:03Z</time>
<speed>2.960000</speed>
<extensions>
<speed>3.0</speed>
<temp>0.00</temp>
<bpm>0</bpm>
<rpm>0.00</rpm>
</extensions>
</trkpt>
<trkpt lat="30.694551468" lon="34.910564423">
<ele>630.453125</ele>
<time>2013-11-22T08:53:08Z</time>
<speed>3.740000</speed>
<extensions>
<speed>3.7</speed>
<temp>0.00</temp>
<bpm>0</bpm>
<rpm>0.00</rpm>
</extensions>
</trkpt>
<trkpt lat="30.694564819" lon="34.910781860">
<ele>631.453125</ele>
<time>2013-11-22T08:53:13Z</time>
<speed>3.940000</speed>
<extensions>
<speed>3.9</speed>
<temp>0.00</temp>
<bpm>0</bpm>
<rpm>0.00</rpm>
</extensions>
</trkpt>
<trkpt lat="30.694538116" lon="34.910995483">
<ele>632.187500</ele>
<time>2013-11-22T08:53:18Z</time>
<speed>4.090000</speed>
<extensions>
<speed>4.1</speed>
<temp>0.00</temp>
<bpm>0</bpm>
<rpm>0.00</rpm>
</extensions>
</trkpt>
<trkpt lat="30.694505692" lon="34.911197662">
<ele>634.312500</ele>
<time>2013-11-22T08:53:23Z</time>
<speed>4.150000</speed>
<extensions>
<speed>4.1</speed>
<temp>0.00</temp>
<bpm>0</bpm>
<rpm>0.00</rpm>
</extensions>
</trkpt>
<trkpt lat="30.694408417" lon="34.911380768">
<ele>634.968750</ele>
<time>2013-11-22T08:53:28Z</time>
<speed>4.400000</speed>
<extensions>
<speed>4.4</speed>
<temp>0.00</temp>
<bpm>0</bpm>
<rpm>0.00</rpm>
</extensions>
</trkpt>
<trkpt lat="30.694316864" lon="34.911548615">
<ele>635.437500</ele>
<time>2013-11-22T08:53:33Z</time>
<speed>3.640000</speed>
<extensions>
<speed>3.6</speed>
<temp>0.00</temp>
<bpm>0</bpm>
<rpm>0.00</rpm>
</extensions>
</trkpt>
<trkpt lat="30.694269180" lon="34.911762238">
<ele>637.609375</ele>
<time>2013-11-22T08:53:38Z</time>
<speed>4.370000</speed>
<extensions>
<speed>4.4</speed>
<temp>0.00</temp>
<bpm>0</bpm>
<rpm>0.00</rpm>
</extensions>
</trkpt>
<trkpt lat="30.694215775" lon="34.911964417">
<ele>637.781250</ele>
<time>2013-11-22T08:53:43Z</time>
<speed>4.150000</speed>
<extensions>
<speed>4.1</speed>
<temp>0.00</temp>
<bpm>0</bpm>
<rpm>0.00</rpm>
</extensions>
</trkpt>
<trkpt lat="30.694156647" lon="34.912136078">
<ele>638.734375</ele>
<time>2013-11-22T08:53:48Z</time>
<speed>3.940000</speed>
<extensions>
<speed>3.9</speed>
<temp>0.00</temp>
<bpm>0</bpm>
<rpm>0.00</rpm>
</extensions>
</trkpt>
<trkpt lat="30.694082260" lon="34.912326813">
<ele>638.218750</ele>
<time>2013-11-22T08:53:53Z</time>
<speed>4.250000</speed>
<extensions>
<speed>4.3</speed>
<temp>0.00</temp>
<bpm>0</bpm>
<rpm>0.00</rpm>
</extensions>
</trkpt>
<trkpt lat="30.694030762" lon="34.912521362">
<ele>637.718750</ele>
<time>2013-11-22T08:53:58Z</time>
<speed>3.400000</speed>
<extensions>
<speed>3.4</speed>
<temp>0.00</temp>
<bpm>0</bpm>
<rpm>0.00</rpm>
</extensions>
</trkpt>
<trkpt lat="30.693996429" lon="34.912685394">
<ele>636.609375</ele>
<time>2013-11-22T08:54:03Z</time>
<speed>3.260000</speed>
<extensions>
<speed>3.3</speed>
<temp>0.00</temp>
<bpm>0</bpm>
<rpm>0.00</rpm>
</extensions>
</trkpt>
<trkpt lat="30.693983078" lon="34.912864685">
<ele>635.546875</ele>
<time>2013-11-22T08:54:08Z</time>
<speed>3.230000</speed>
<extensions>
<speed>3.2</speed>
<temp>0.00</temp>
<bpm>0</bpm>
<rpm>0.00</rpm>
</extensions>
</trkpt>
<trkpt lat="30.693962097" lon="34.913032532">
<ele>634.843750</ele>
<time>2013-11-22T08:54:13Z</time>
<speed>3.800000</speed>
<extensions>
<speed>3.8</speed>
<temp>0.00</temp>
<bpm>0</bpm>
<rpm>0.00</rpm>
</extensions>
</trkpt>
<trkpt lat="30.693950653" lon="34.913223267">
<ele>632.234375</ele>
<time>2013-11-22T08:54:18Z</time>
<speed>3.810000</speed>
<extensions>
<speed>3.8</speed>
<temp>0.00</temp>
<bpm>0</bpm>
<rpm>0.00</rpm>
</extensions>
</trkpt>
<trkpt lat="30.693954468" lon="34.913394928">
<ele>631.812500</ele>
<time>2013-11-22T08:54:23Z</time>
<speed>2.830000</speed>
<extensions>
<speed>2.8</speed>
<temp>0.00</temp>
<bpm>0</bpm>
<rpm>0.00</rpm>
</extensions>
</trkpt>
<trkpt lat="30.693962097" lon="34.913593292">
<ele>632.546875</ele>
<time>2013-11-22T08:54:28Z</time>
<speed>3.770000</speed>
<extensions>
<speed>3.8</speed>
<temp>0.00</temp>
<bpm>0</bpm>
<rpm>0.00</rpm>
</extensions>
</trkpt>
<trkpt lat="30.693923950" lon="34.913764954">
<ele>632.859375</ele>
<time>2013-11-22T08:54:33Z</time>
<speed>3.770000</speed>
<extensions>
<speed>3.8</speed>
<temp>0.00</temp>
<bpm>0</bpm>
<rpm>0.00</rpm>
</extensions>
</trkpt>
<trkpt lat="30.693836212" lon="34.913894653">
<ele>632.359375</ele>
<time>2013-11-22T08:54:38Z</time>
<speed>1.920000</speed>
<extensions>
<speed>1.9</speed>
<temp>0.00</temp>
<bpm>0</bpm>
<rpm>0.00</rpm>
</extensions>
</trkpt>
<trkpt lat="30.693777084" lon="34.913940430">
<ele>631.828125</ele>
<time>2013-11-22T08:54:43Z</time>
<speed>1.380000</speed>
<extensions>
<speed>1.4</speed>
<temp>0.00</temp>
<bpm>0</bpm>
<rpm>0.00</rpm>
</extensions>
</trkpt>
<trkpt lat="30.693723679" lon="34.913970947">
<ele>630.515625</ele>
<time>2013-11-22T08:54:48Z</time>
<speed>1.460000</speed>
<extensions>
<speed>1.5</speed>
<temp>0.00</temp>
<bpm>0</bpm>
<rpm>0.00</rpm>
</extensions>
</trkpt>
<trkpt lat="30.693672180" lon="34.914001465">
<ele>629.718750</ele>
<time>2013-11-22T08:54:53Z</time>
<speed>1.130000</speed>
<extensions>
<speed>1.1</speed>
<temp>0.00</temp>
<bpm>0</bpm>
<rpm>0.00</rpm>
</extensions>
</trkpt>
<trkpt lat="30.693632126" lon="34.914062500">
<ele>630.156250</ele>
<time>2013-11-22T08:54:58Z</time>
<speed>1.770000</speed>
<extensions>
<speed>1.8</speed>
<temp>0.00</temp>
<bpm>0</bpm>
<rpm>0.00</rpm>
</extensions>
</trkpt>
<trkpt lat="30.693584442" lon="34.914104462">
<ele>630.093750</ele>
<time>2013-11-22T08:55:03Z</time>
<speed>1.320000</speed>
<extensions>
<speed>1.3</speed>
<temp>0.00</temp>
<bpm>0</bpm>
<rpm>0.00</rpm>
</extensions>
</trkpt>
<trkpt lat="30.693553925" lon="34.914169312">
<ele>630.546875</ele>
<time>2013-11-22T08:55:08Z</time>
<speed>1.330000</speed>
<extensions>
<speed>1.3</speed>
<temp>0.00</temp>
<bpm>0</bpm>
<rpm>0.00</rpm>
</extensions>
</trkpt>
<trkpt lat="30.693515778" lon="34.914230347">
<ele>631.218750</ele>
<time>2013-11-22T08:55:13Z</time>
<speed>1.550000</speed>
<extensions>
<speed>1.5</speed>
<temp>0.00</temp>
<bpm>0</bpm>
<rpm>0.00</rpm>
</extensions>
</trkpt>
<trkpt lat="30.693462372" lon="34.914253235">
<ele>632.078125</ele>
<time>2013-11-22T08:55:18Z</time>
<speed>1.450000</speed>
<extensions>
<speed>1.4</speed>
<temp>0.00</temp>
<bpm>0</bpm>
<rpm>0.00</rpm>
</extensions>
</trkpt>
<trkpt lat="30.693412781" lon="34.914241791">
<ele>632.859375</ele>
<time>2013-11-22T08:55:23Z</time>
<speed>1.330000</speed>
<extensions>
<speed>1.3</speed>
<temp>0.00</temp>
<bpm>0</bpm>
<rpm>0.00</rpm>
</extensions>
</trkpt>
<trkpt lat="30.693361282" lon="34.914218903">
<ele>634.156250</ele>
<time>2013-11-22T08:55:28Z</time>
<speed>1.490000</speed>
<extensions>
<speed>1.5</speed>
<temp>0.00</temp>
<bpm>0</bpm>
<rpm>0.00</rpm>
</extensions>
</trkpt>
<trkpt lat="30.693304062" lon="34.914218903">
<ele>635.812500</ele>
<time>2013-11-22T08:55:33Z</time>
<speed>1.400000</speed>
<extensions>
<speed>1.4</speed>
<temp>0.00</temp>
<bpm>0</bpm>
<rpm>0.00</rpm>
</extensions>
</trkpt>
<trkpt lat="30.693244934" lon="34.914245605">
<ele>637.453125</ele>
<time>2013-11-22T08:55:38Z</time>
<speed>1.450000</speed>
<extensions>
<speed>1.4</speed>
<temp>0.00</temp>
<bpm>0</bpm>
<rpm>0.00</rpm>
</extensions>
</trkpt>
<trkpt lat="30.693181992" lon="34.914253235">
<ele>638.828125</ele>
<time>2013-11-22T08:55:43Z</time>
<speed>0.940000</speed>
<extensions>
<speed>0.9</speed>
<temp>0.00</temp>
<bpm>0</bpm>
<rpm>0.00</rpm>
</extensions>
</trkpt>
<trkpt lat="30.693134308" lon="34.914272308">
<ele>639.703125</ele>
<time>2013-11-22T08:55:48Z</time>
<speed>1.190000</speed>
<extensions>
<speed>1.2</speed>
<temp>0.00</temp>
<bpm>0</bpm>
<rpm>0.00</rpm>
</extensions>
</trkpt>
<trkpt lat="30.693073273" lon="34.914283752">
<ele>639.671875</ele>
<time>2013-11-22T08:55:53Z</time>
<speed>1.170000</speed>
<extensions>
<speed>1.2</speed>
<temp>0.00</temp>
<bpm>0</bpm>
<rpm>0.00</rpm>
</extensions>
</trkpt>
<trkpt lat="30.693016052" lon="34.914291382">
<ele>639.968750</ele>
<time>2013-11-22T08:55:58Z</time>
<speed>1.260000</speed>
<extensions>
<speed>1.3</speed>
<temp>0.00</temp>
<bpm>0</bpm>
<rpm>0.00</rpm>
</extensions>
</trkpt>
<trkpt lat="30.692962646" lon="34.914302826">
<ele>641.000000</ele>
<time>2013-11-22T08:56:03Z</time>
<speed>1.200000</speed>
<extensions>
<speed>1.2</speed>
<temp>0.00</temp>
<bpm>0</bpm>
<rpm>0.00</rpm>
</extensions>
</trkpt>
<trkpt lat="30.692897797" lon="34.914302826">
<ele>641.750000</ele>
<time>2013-11-22T08:56:08Z</time>
<speed>0.990000</speed>
<extensions>
<speed>1.0</speed>
<temp>0.00</temp>
<bpm>0</bpm>
<rpm>0.00</rpm>
</extensions>
</trkpt>
<trkpt lat="30.692850113" lon="34.914287567">
<ele>642.281250</ele>
<time>2013-11-22T08:56:13Z</time>
<speed>1.350000</speed>
<extensions>
<speed>1.4</speed>
<temp>0.00</temp>
<bpm>0</bpm>
<rpm>0.00</rpm>
</extensions>
</trkpt>
<trkpt lat="30.692790985" lon="34.914268494">
<ele>642.687500</ele>
<time>2013-11-22T08:56:18Z</time>
<speed>1.760000</speed>
<extensions>
<speed>1.8</speed>
<temp>0.00</temp>
<bpm>0</bpm>
<rpm>0.00</rpm>
</extensions>
</trkpt>
<trkpt lat="30.692726135" lon="34.914276123">
<ele>643.156250</ele>
<time>2013-11-22T08:56:23Z</time>
<speed>1.210000</speed>
<extensions>
<speed>1.2</speed>
<temp>0.00</temp>
<bpm>0</bpm>
<rpm>0.00</rpm>
</extensions>
</trkpt>
<trkpt lat="30.692670822" lon="34.914276123">
<ele>643.265625</ele>
<time>2013-11-22T08:56:28Z</time>
<speed>1.330000</speed>
<extensions>
<speed>1.3</speed>
<temp>0.00</temp>
<bpm>0</bpm>
<rpm>0.00</rpm>
</extensions>
</trkpt>
<trkpt lat="30.692611694" lon="34.914276123">
<ele>644.046875</ele>
<time>2013-11-22T08:56:33Z</time>
<speed>0.010000</speed>
<extensions>
<speed>0.0</speed>
<temp>0.00</temp>
<bpm>0</bpm>
<rpm>0.00</rpm>
</extensions>
</trkpt>
<trkpt lat="30.692607880" lon="34.914279938">
<ele>644.468750</ele>
<time>2013-11-22T08:56:38Z</time>
<speed>0.070000</speed>
<extensions>
<speed>0.1</speed>
<temp>0.00</temp>
<bpm>0</bpm>
<rpm>0.00</rpm>
</extensions>
</trkpt>
<trkpt lat="30.692590714" lon="34.914291382">
<ele>644.593750</ele>
<time>2013-11-22T08:56:43Z</time>
<speed>0.950000</speed>
<extensions>
<speed>1.0</speed>
<temp>0.00</temp>
<bpm>0</bpm>
<rpm>0.00</rpm>
</extensions>
</trkpt>
<trkpt lat="30.692544937" lon="34.914318085">
<ele>644.062500</ele>
<time>2013-11-22T08:56:48Z</time>
<speed>1.280000</speed>
<extensions>
<speed>1.3</speed>
<temp>0.00</temp>
<bpm>0</bpm>
<rpm>0.00</rpm>
</extensions>
</trkpt>
<trkpt lat="30.692481995" lon="34.914318085">
<ele>644.718750</ele>
<time>2013-11-22T08:56:53Z</time>
<speed>1.580000</speed>
<extensions>
<speed>1.6</speed>
<temp>0.00</temp>
<bpm>0</bpm>
<rpm>0.00</rpm>
</extensions>
</trkpt>
<trkpt lat="30.692428589" lon="34.914340973">
<ele>645.031250</ele>
<time>2013-11-22T08:56:58Z</time>
<speed>1.120000</speed>
<extensions>
<speed>1.1</speed>
<temp>0.00</temp>
<bpm>0</bpm>
<rpm>0.00</rpm>
</extensions>
</trkpt>
<trkpt lat="30.692380905" lon="34.914398193">
<ele>645.859375</ele>
<time>2013-11-22T08:57:03Z</time>
<speed>1.930000</speed>
<extensions>
<speed>1.9</speed>
<temp>0.00</temp>
<bpm>0</bpm>
<rpm>0.00</rpm>
</extensions>
</trkpt>
<trkpt lat="30.692296982" lon="34.914443970">
<ele>646.296875</ele>
<time>2013-11-22T08:57:08Z</time>
<speed>1.360000</speed>
<extensions>
<speed>1.4</speed>
<temp>0.00</temp>
<bpm>0</bpm>
<rpm>0.00</rpm>
</extensions>
</trkpt>
<trkpt lat="30.692230225" lon="34.914466858">
<ele>646.453125</ele>
<time>2013-11-22T08:57:13Z</time>
<speed>1.710000</speed>
<extensions>
<speed>1.7</speed>
<temp>0.00</temp>
<bpm>0</bpm>
<rpm>0.00</rpm>
</extensions>
</trkpt>
<trkpt lat="30.692176819" lon="34.914524078">
<ele>646.687500</ele>
<time>2013-11-22T08:57:18Z</time>
<speed>1.390000</speed>
<extensions>
<speed>1.4</speed>
<temp>0.00</temp>
<bpm>0</bpm>
<rpm>0.00</rpm>
</extensions>
</trkpt>
<trkpt lat="30.692111969" lon="34.914562225">
<ele>647.515625</ele>
<time>2013-11-22T08:57:23Z</time>
<speed>1.940000</speed>
<extensions>
<speed>1.9</speed>
<temp>0.00</temp>
<bpm>0</bpm>
<rpm>0.00</rpm>
</extensions>
</trkpt>
<trkpt lat="30.692022324" lon="34.914558411">
<ele>648.046875</ele>
<time>2013-11-22T08:57:28Z</time>
<speed>2.390000</speed>
<extensions>
<speed>2.4</speed>
<temp>0.00</temp>
<bpm>0</bpm>
<rpm>0.00</rpm>
</extensions>
</trkpt>
<trkpt lat="30.691955566" lon="34.914623260">
<ele>647.984375</ele>
<time>2013-11-22T08:57:33Z</time>
<speed>1.620000</speed>
<extensions>
<speed>1.6</speed>
<temp>0.00</temp>
<bpm>0</bpm>
<rpm>0.00</rpm>
</extensions>
</trkpt>
<trkpt lat="30.691926956" lon="34.914707184">
<ele>649.578125</ele>
<time>2013-11-22T08:57:38Z</time>
<speed>1.620000</speed>
<extensions>
<speed>1.6</speed>
<temp>0.00</temp>
<bpm>0</bpm>
<rpm>0.00</rpm>
</extensions>
</trkpt>
<trkpt lat="30.691913605" lon="34.914779663">
<ele>648.734375</ele>
<time>2013-11-22T08:57:43Z</time>
<speed>1.590000</speed>
<extensions>
<speed>1.6</speed>
<temp>0.00</temp>
<bpm>0</bpm>
<rpm>0.00</rpm>
</extensions>
</trkpt>
<trkpt lat="30.691898346" lon="34.914848328">
<ele>647.703125</ele>
<time>2013-11-22T08:57:48Z</time>
<speed>1.240000</speed>
<extensions>
<speed>1.2</speed>
<temp>0.00</temp>
<bpm>0</bpm>
<rpm>0.00</rpm>
</extensions>
</trkpt>
<trkpt lat="30.691900253" lon="34.914901733">
<ele>647.156250</ele>
<time>2013-11-22T08:57:53Z</time>
<speed>1.100000</speed>
<extensions>
<speed>1.1</speed>
<temp>0.00</temp>
<bpm>0</bpm>
<rpm>0.00</rpm>
</extensions>
</trkpt>
<trkpt lat="30.691892624" lon="34.914970398">
<ele>647.734375</ele>
<time>2013-11-22T08:57:58Z</time>
<speed>1.390000</speed>
<extensions>
<speed>1.4</speed>
<temp>0.00</temp>
<bpm>0</bpm>
<rpm>0.00</rpm>
</extensions>
</trkpt>
<trkpt lat="30.691923141" lon="34.915031433">
<ele>649.531250</ele>
<time>2013-11-22T08:58:03Z</time>
<speed>1.020000</speed>
<extensions>
<speed>1.0</speed>
<temp>0.00</temp>
<bpm>0</bpm>
<rpm>0.00</rpm>
</extensions>
</trkpt>
<trkpt lat="30.691898346" lon="34.915088654">
<ele>649.515625</ele>
<time>2013-11-22T08:58:08Z</time>
<speed>0.840000</speed>
<extensions>
<speed>0.8</speed>
<temp>0.00</temp>
<bpm>0</bpm>
<rpm>0.00</rpm>
</extensions>
</trkpt>
<trkpt lat="30.691852570" lon="34.915126801">
<ele>649.921875</ele>
<time>2013-11-22T08:58:13Z</time>
<speed>1.480000</speed>
<extensions>
<speed>1.5</speed>
<temp>0.00</temp>
<bpm>0</bpm>
<rpm>0.00</rpm>
</extensions>
</trkpt>
<trkpt lat="30.691822052" lon="34.915191650">
<ele>650.500000</ele>
<time>2013-11-22T08:58:18Z</time>
<speed>1.420000</speed>
<extensions>
<speed>1.4</speed>
<temp>0.00</temp>
<bpm>0</bpm>
<rpm>0.00</rpm>
</extensions>
</trkpt>
<trkpt lat="30.691802979" lon="34.915267944">
<ele>651.328125</ele>
<time>2013-11-22T08:58:23Z</time>
<speed>1.620000</speed>
<extensions>
<speed>1.6</speed>
<temp>0.00</temp>
<bpm>0</bpm>
<rpm>0.00</rpm>
</extensions>
</trkpt>
<trkpt lat="30.691780090" lon="34.915344238">
<ele>651.734375</ele>
<time>2013-11-22T08:58:28Z</time>
<speed>1.450000</speed>
<extensions>
<speed>1.4</speed>
<temp>0.00</temp>
<bpm>0</bpm>
<rpm>0.00</rpm>
</extensions>
</trkpt>
<trkpt lat="30.691799164" lon="34.915416718">
<ele>654.187500</ele>
<time>2013-11-22T08:58:33Z</time>
<speed>1.240000</speed>
<extensions>
<speed>1.2</speed>
<temp>0.00</temp>
<bpm>0</bpm>
<rpm>0.00</rpm>
</extensions>
</trkpt>
<trkpt lat="30.691820145" lon="34.915496826">
<ele>656.875000</ele>
<time>2013-11-22T08:58:38Z</time>
<speed>1.190000</speed>
<extensions>
<speed>1.2</speed>
<temp>0.00</temp>
<bpm>0</bpm>
<rpm>0.00</rpm>
</extensions>
</trkpt>
<trkpt lat="30.691823959" lon="34.915561676">
<ele>661.281250</ele>
<time>2013-11-22T08:58:43Z</time>
<speed>1.240000</speed>
<extensions>
<speed>1.2</speed>
<temp>0.00</temp>
<bpm>0</bpm>
<rpm>0.00</rpm>
</extensions>
</trkpt>
<trkpt lat="30.691829681" lon="34.915630341">
<ele>663.703125</ele>
<time>2013-11-22T08:58:48Z</time>
<speed>1.230000</speed>
<extensions>
<speed>1.2</speed>
<temp>0.00</temp>
<bpm>0</bpm>
<rpm>0.00</rpm>
</extensions>
</trkpt>
<trkpt lat="30.691835403" lon="34.915706635">
<ele>664.656250</ele>
<time>2013-11-22T08:58:53Z</time>
<speed>1.150000</speed>
<extensions>
<speed>1.1</speed>
<temp>0.00</temp>
<bpm>0</bpm>
<rpm>0.00</rpm>
</extensions>
</trkpt>
<trkpt lat="30.691841125" lon="34.915775299">
<ele>665.343750</ele>
<time>2013-11-22T08:58:58Z</time>
<speed>1.570000</speed>
<extensions>
<speed>1.6</speed>
<temp>0.00</temp>
<bpm>0</bpm>
<rpm>0.00</rpm>
</extensions>
</trkpt>
<trkpt lat="30.691846848" lon="34.915870667">
<ele>665.734375</ele>
<time>2013-11-22T08:59:03Z</time>
<speed>2.030000</speed>
<extensions>
<speed>2.0</speed>
<temp>0.00</temp>
<bpm>0</bpm>
<rpm>0.00</rpm>
</extensions>
</trkpt>
<trkpt lat="30.691850662" lon="34.915946960">
<ele>665.265625</ele>
<time>2013-11-22T08:59:08Z</time>
<speed>1.030000</speed>
<extensions>
<speed>1.0</speed>
<temp>0.00</temp>
<bpm>0</bpm>
<rpm>0.00</rpm>
</extensions>
</trkpt>
<trkpt lat="30.691862106" lon="34.916030884">
<ele>665.781250</ele>
<time>2013-11-22T08:59:13Z</time>
<speed>1.340000</speed>
<extensions>
<speed>1.3</speed>
<temp>0.00</temp>
<bpm>0</bpm>
<rpm>0.00</rpm>
</extensions>
</trkpt>
<trkpt lat="30.691835403" lon="34.916095734">
<ele>668.312500</ele>
<time>2013-11-22T08:59:18Z</time>
<speed>1.820000</speed>
<extensions>
<speed>1.8</speed>
<temp>0.00</temp>
<bpm>0</bpm>
<rpm>0.00</rpm>
</extensions>
</trkpt>
<trkpt lat="30.691795349" lon="34.916164398">
<ele>668.468750</ele>
<time>2013-11-22T08:59:23Z</time>
<speed>1.520000</speed>
<extensions>
<speed>1.5</speed>
<temp>0.00</temp>
<bpm>0</bpm>
<rpm>0.00</rpm>
</extensions>
</trkpt>
<trkpt lat="30.691743851" lon="34.916225433">
<ele>668.593750</ele>
<time>2013-11-22T08:59:28Z</time>
<speed>1.330000</speed>
<extensions>
<speed>1.3</speed>
<temp>0.00</temp>
<bpm>0</bpm>
<rpm>0.00</rpm>
</extensions>
</trkpt>
<trkpt lat="30.691705704" lon="34.916294098">
<ele>669.140625</ele>
<time>2013-11-22T08:59:33Z</time>
<speed>1.650000</speed>
<extensions>
<speed>1.7</speed>
<temp>0.00</temp>
<bpm>0</bpm>
<rpm>0.00</rpm>
</extensions>
</trkpt>
<trkpt lat="30.691692352" lon="34.916385651">
<ele>670.796875</ele>
<time>2013-11-22T08:59:38Z</time>
<speed>1.920000</speed>
<extensions>
<speed>1.9</speed>
<temp>0.00</temp>
<bpm>0</bpm>
<rpm>0.00</rpm>
</extensions>
</trkpt>
<trkpt lat="30.691675186" lon="34.916465759">
<ele>671.984375</ele>
<time>2013-11-22T08:59:43Z</time>
<speed>1.700000</speed>
<extensions>
<speed>1.7</speed>
<temp>0.00</temp>
<bpm>0</bpm>
<rpm>0.00</rpm>
</extensions>
</trkpt>
<trkpt lat="30.691633224" lon="34.916534424">
<ele>673.062500</ele>
<time>2013-11-22T08:59:48Z</time>
<speed>1.630000</speed>
<extensions>
<speed>1.6</speed>
<temp>0.00</temp>
<bpm>0</bpm>
<rpm>0.00</rpm>
</extensions>
</trkpt>
<trkpt lat="30.691596985" lon="34.916603088">
<ele>673.265625</ele>
<time>2013-11-22T08:59:53Z</time>
<speed>2.000000</speed>
<extensions>
<speed>2.0</speed>
<temp>0.00</temp>
<bpm>0</bpm>
<rpm>0.00</rpm>
</extensions>
</trkpt>
<trkpt lat="30.691566467" lon="34.916648865">
<ele>673.468750</ele>
<time>2013-11-22T08:59:58Z</time>
<speed>0.180000</speed>
<extensions>
<speed>0.2</speed>
<temp>0.00</temp>
<bpm>0</bpm>
<rpm>0.00</rpm>
</extensions>
</trkpt>
<trkpt lat="30.691558838" lon="34.916652679">
<ele>673.343750</ele>
<time>2013-11-22T09:00:03Z</time>
<speed>0.010000</speed>
<extensions>
<speed>0.0</speed>
<temp>0.00</temp>
<bpm>0</bpm>
<rpm>0.00</rpm>
</extensions>
</trkpt>
<trkpt lat="30.691558838" lon="34.916652679">
<ele>673.375000</ele>
<time>2013-11-22T09:00:08Z</time>
<extensions>
<speed>0.0</speed>
<temp>0.00</temp>
<bpm>0</bpm>
<rpm>0.00</rpm>
</extensions>
</trkpt>
<trkpt lat="30.691558838" lon="34.916652679">
<ele>673.390625</ele>
<time>2013-11-22T09:00:13Z</time>
<speed>0.050000</speed>
<extensions>
<speed>0.1</speed>
<temp>0.00</temp>
<bpm>0</bpm>
<rpm>0.00</rpm>
</extensions>
</trkpt>
<trkpt lat="30.691556931" lon="34.916652679">
<ele>673.328125</ele>
<time>2013-11-22T09:00:18Z</time>
<extensions>
<speed>0.0</speed>
<temp>0.00</temp>
<bpm>0</bpm>
<rpm>0.00</rpm>
</extensions>
</trkpt>
<trkpt lat="30.691556931" lon="34.916652679">
<ele>673.328125</ele>
<time>2013-11-22T09:00:23Z</time>
<speed>0.010000</speed>
<extensions>
<speed>0.0</speed>
<temp>0.00</temp>
<bpm>0</bpm>
<rpm>0.00</rpm>
</extensions>
</trkpt>
<trkpt lat="30.691556931" lon="34.916652679">
<ele>673.296875</ele>
<time>2013-11-22T09:00:28Z</time>
<extensions>
<speed>0.0</speed>
<temp>0.00</temp>
<bpm>0</bpm>
<rpm>0.00</rpm>
</extensions>
</trkpt>
<trkpt lat="30.691556931" lon="34.916652679">
<ele>673.281250</ele>
<time>2013-11-22T09:00:33Z</time>
<extensions>
<speed>0.0</speed>
<temp>0.00</temp>
<bpm>0</bpm>
<rpm>0.00</rpm>
</extensions>
</trkpt>
<trkpt lat="30.691556931" lon="34.916648865">
<ele>673.250000</ele>
<time>2013-11-22T09:00:38Z</time>
<speed>0.010000</speed>
<extensions>
<speed>0.0</speed>
<temp>0.00</temp>
<bpm>0</bpm>
<rpm>0.00</rpm>
</extensions>
</trkpt>
<trkpt lat="30.691556931" lon="34.916648865">
<ele>673.203125</ele>
<time>2013-11-22T09:00:43Z</time>
<extensions>
<speed>0.0</speed>
<temp>0.00</temp>
<bpm>0</bpm>
<rpm>0.00</rpm>
</extensions>
</trkpt>
<trkpt lat="30.691556931" lon="34.916648865">
<ele>673.171875</ele>
<time>2013-11-22T09:00:48Z</time>
<speed>0.010000</speed>
<extensions>
<speed>0.0</speed>
<temp>0.00</temp>
<bpm>0</bpm>
<rpm>0.00</rpm>
</extensions>
</trkpt>
<trkpt lat="30.691556931" lon="34.916648865">
<ele>673.140625</ele>
<time>2013-11-22T09:00:53Z</time>
<speed>0.010000</speed>
<extensions>
<speed>0.0</speed>
<temp>0.00</temp>
<bpm>0</bpm>
<rpm>0.00</rpm>
</extensions>
</trkpt>
<trkpt lat="30.691556931" lon="34.916648865">
<ele>673.109375</ele>
<time>2013-11-22T09:00:58Z</time>
<extensions>
<speed>0.0</speed>
<temp>0.00</temp>
<bpm>0</bpm>
<rpm>0.00</rpm>
</extensions>
</trkpt>
<trkpt lat="30.691556931" lon="34.916648865">
<ele>673.078125</ele>
<time>2013-11-22T09:01:03Z</time>
<speed>0.010000</speed>
<extensions>
<speed>0.0</speed>
<temp>0.00</temp>
<bpm>0</bpm>
<rpm>0.00</rpm>
</extensions>
</trkpt>
<trkpt lat="30.691555023" lon="34.916648865">
<ele>673.062500</ele>
<time>2013-11-22T09:01:08Z</time>
<speed>0.010000</speed>
<extensions>
<speed>0.0</speed>
<temp>0.00</temp>
<bpm>0</bpm>
<rpm>0.00</rpm>
</extensions>
</trkpt>
<trkpt lat="30.691555023" lon="34.916648865">
<ele>673.046875</ele>
<time>2013-11-22T09:01:13Z</time>
<speed>0.010000</speed>
<extensions>
<speed>0.0</speed>
<temp>0.00</temp>
<bpm>0</bpm>
<rpm>0.00</rpm>
</extensions>
</trkpt>
<trkpt lat="30.691555023" lon="34.916648865">
<ele>673.015625</ele>
<time>2013-11-22T09:01:18Z</time>
<extensions>
<speed>0.0</speed>
<temp>0.00</temp>
<bpm>0</bpm>
<rpm>0.00</rpm>
</extensions>
</trkpt>
<trkpt lat="30.691556931" lon="34.916648865">
<ele>673.015625</ele>
<time>2013-11-22T09:01:23Z</time>
<speed>1.340000</speed>
<extensions>
<speed>1.3</speed>
<temp>0.00</temp>
<bpm>0</bpm>
<rpm>0.00</rpm>
</extensions>
</trkpt>
<trkpt lat="30.691505432" lon="34.916728973">
<ele>673.671875</ele>
<time>2013-11-22T09:01:28Z</time>
<speed>2.140000</speed>
<extensions>
<speed>2.1</speed>
<temp>0.00</temp>
<bpm>0</bpm>
<rpm>0.00</rpm>
</extensions>
</trkpt>
<trkpt lat="30.691444397" lon="34.916824341">
<ele>673.765625</ele>
<time>2013-11-22T09:01:33Z</time>
<speed>2.070000</speed>
<extensions>
<speed>2.1</speed>
<temp>0.00</temp>
<bpm>0</bpm>
<rpm>0.00</rpm>
</extensions>
</trkpt>
<trkpt lat="30.691375732" lon="34.916889191">
<ele>674.218750</ele>
<time>2013-11-22T09:01:38Z</time>
<speed>1.440000</speed>
<extensions>
<speed>1.4</speed>
<temp>0.00</temp>
<bpm>0</bpm>
<rpm>0.00</rpm>
</extensions>
</trkpt>
<trkpt lat="30.691303253" lon="34.916893005">
<ele>674.359375</ele>
<time>2013-11-22T09:01:43Z</time>
<speed>0.930000</speed>
<extensions>
<speed>0.9</speed>
<temp>0.00</temp>
<bpm>0</bpm>
<rpm>0.00</rpm>
</extensions>
</trkpt>
<trkpt lat="30.691257477" lon="34.916862488">
<ele>675.093750</ele>
<time>2013-11-22T09:01:48Z</time>
<speed>1.100000</speed>
<extensions>
<speed>1.1</speed>
<temp>0.00</temp>
<bpm>0</bpm>
<rpm>0.00</rpm>
</extensions>
</trkpt>
<trkpt lat="30.691181183" lon="34.916831970">
<ele>675.125000</ele>
<time>2013-11-22T09:01:53Z</time>
<speed>1.690000</speed>
<extensions>
<speed>1.7</speed>
<temp>0.00</temp>
<bpm>0</bpm>
<rpm>0.00</rpm>
</extensions>
</trkpt>
<trkpt lat="30.691120148" lon="34.916778564">
<ele>675.437500</ele>
<time>2013-11-22T09:01:58Z</time>
<speed>1.480000</speed>
<extensions>
<speed>1.5</speed>
<temp>0.00</temp>
<bpm>0</bpm>
<rpm>0.00</rpm>
</extensions>
</trkpt>
<trkpt lat="30.691051483" lon="34.916725159">
<ele>675.250000</ele>
<time>2013-11-22T09:02:03Z</time>
<speed>1.670000</speed>
<extensions>
<speed>1.7</speed>
<temp>0.00</temp>
<bpm>0</bpm>
<rpm>0.00</rpm>
</extensions>
</trkpt>
<trkpt lat="30.690988541" lon="34.916683197">
<ele>676.312500</ele>
<time>2013-11-22T09:02:08Z</time>
<speed>1.760000</speed>
<extensions>
<speed>1.8</speed>
<temp>0.00</temp>
<bpm>0</bpm>
<rpm>0.00</rpm>
</extensions>
</trkpt>
<trkpt lat="30.690929413" lon="34.916648865">
<ele>677.843750</ele>
<time>2013-11-22T09:02:13Z</time>
<speed>2.000000</speed>
<extensions>
<speed>2.0</speed>
<temp>0.00</temp>
<bpm>0</bpm>
<rpm>0.00</rpm>
</extensions>
</trkpt>
<trkpt lat="30.690845490" lon="34.916641235">
<ele>679.062500</ele>
<time>2013-11-22T09:02:18Z</time>
<speed>2.020000</speed>
<extensions>
<speed>2.0</speed>
<temp>0.00</temp>
<bpm>0</bpm>
<rpm>0.00</rpm>
</extensions>
</trkpt>
<trkpt lat="30.690744400" lon="34.916625977">
<ele>679.734375</ele>
<time>2013-11-22T09:02:23Z</time>
<speed>1.670000</speed>
<extensions>
<speed>1.7</speed>
<temp>0.00</temp>
<bpm>0</bpm>
<rpm>0.00</rpm>
</extensions>
</trkpt>
<trkpt lat="30.690652847" lon="34.916652679">
<ele>680.453125</ele>
<time>2013-11-22T09:02:28Z</time>
<speed>2.010000</speed>
<extensions>
<speed>2.0</speed>
<temp>0.00</temp>
<bpm>0</bpm>
<rpm>0.00</rpm>
</extensions>
</trkpt>
<trkpt lat="30.690576553" lon="34.916702271">
<ele>681.828125</ele>
<time>2013-11-22T09:02:33Z</time>
<speed>2.020000</speed>
<extensions>
<speed>2.0</speed>
<temp>0.00</temp>
<bpm>0</bpm>
<rpm>0.00</rpm>
</extensions>
</trkpt>
<trkpt lat="30.690502167" lon="34.916740417">
<ele>682.593750</ele>
<time>2013-11-22T09:02:38Z</time>
<speed>2.040000</speed>
<extensions>
<speed>2.0</speed>
<temp>0.00</temp>
<bpm>0</bpm>
<rpm>0.00</rpm>
</extensions>
</trkpt>
<trkpt lat="30.690422058" lon="34.916782379">
<ele>682.703125</ele>
<time>2013-11-22T09:02:43Z</time>
<speed>2.140000</speed>
<extensions>
<speed>2.1</speed>
<temp>0.00</temp>
<bpm>0</bpm>
<rpm>0.00</rpm>
</extensions>
</trkpt>
<trkpt lat="30.690336227" lon="34.916831970">
<ele>683.187500</ele>
<time>2013-11-22T09:02:48Z</time>
<speed>2.080000</speed>
<extensions>
<speed>2.1</speed>
<temp>0.00</temp>
<bpm>0</bpm>
<rpm>0.00</rpm>
</extensions>
</trkpt>
<trkpt lat="30.690248489" lon="34.916885376">
<ele>684.843750</ele>
<time>2013-11-22T09:02:53Z</time>
<speed>1.820000</speed>
<extensions>
<speed>1.8</speed>
<temp>0.00</temp>
<bpm>0</bpm>
<rpm>0.00</rpm>
</extensions>
</trkpt>
<trkpt lat="30.690172195" lon="34.916946411">
<ele>684.140625</ele>
<time>2013-11-22T09:02:58Z</time>
<speed>1.850000</speed>
<extensions>
<speed>1.8</speed>
<temp>0.00</temp>
<bpm>0</bpm>
<rpm>0.00</rpm>
</extensions>
</trkpt>
<trkpt lat="30.690099716" lon="34.917030334">
<ele>684.750000</ele>
<time>2013-11-22T09:03:03Z</time>
<speed>2.060000</speed>
<extensions>
<speed>2.1</speed>
<temp>0.00</temp>
<bpm>0</bpm>
<rpm>0.00</rpm>
</extensions>
</trkpt>
<trkpt lat="30.690034866" lon="34.917114258">
<ele>685.312500</ele>
<time>2013-11-22T09:03:08Z</time>
<speed>2.210000</speed>
<extensions>
<speed>2.2</speed>
<temp>0.00</temp>
<bpm>0</bpm>
<rpm>0.00</rpm>
</extensions>
</trkpt>
<trkpt lat="30.689985275" lon="34.917190552">
<ele>684.312500</ele>
<time>2013-11-22T09:03:13Z</time>
<speed>1.870000</speed>
<extensions>
<speed>1.9</speed>
<temp>0.00</temp>
<bpm>0</bpm>
<rpm>0.00</rpm>
</extensions>
</trkpt>
<trkpt lat="30.689928055" lon="34.917266846">
<ele>684.156250</ele>
<time>2013-11-22T09:03:18Z</time>
<speed>2.050000</speed>
<extensions>
<speed>2.1</speed>
<temp>0.00</temp>
<bpm>0</bpm>
<rpm>0.00</rpm>
</extensions>
</trkpt>
<trkpt lat="30.689874649" lon="34.917346954">
<ele>684.390625</ele>
<time>2013-11-22T09:03:23Z</time>
<speed>1.780000</speed>
<extensions>
<speed>1.8</speed>
<temp>0.00</temp>
<bpm>0</bpm>
<rpm>0.00</rpm>
</extensions>
</trkpt>
<trkpt lat="30.689842224" lon="34.917430878">
<ele>683.406250</ele>
<time>2013-11-22T09:03:28Z</time>
<speed>2.120000</speed>
<extensions>
<speed>2.1</speed>
<temp>0.00</temp>
<bpm>0</bpm>
<rpm>0.00</rpm>
</extensions>
</trkpt>
<trkpt lat="30.689819336" lon="34.917541504">
<ele>683.328125</ele>
<time>2013-11-22T09:03:33Z</time>
<speed>2.090000</speed>
<extensions>
<speed>2.1</speed>
<temp>0.00</temp>
<bpm>0</bpm>
<rpm>0.00</rpm>
</extensions>
</trkpt>
<trkpt lat="30.689811707" lon="34.917659760">
<ele>682.796875</ele>
<time>2013-11-22T09:03:38Z</time>
<speed>2.630000</speed>
<extensions>
<speed>2.6</speed>
<temp>0.00</temp>
<bpm>0</bpm>
<rpm>0.00</rpm>
</extensions>
</trkpt>
<trkpt lat="30.689809799" lon="34.917789459">
<ele>681.531250</ele>
<time>2013-11-22T09:03:43Z</time>
<speed>2.330000</speed>
<extensions>
<speed>2.3</speed>
<temp>0.00</temp>
<bpm>0</bpm>
<rpm>0.00</rpm>
</extensions>
</trkpt>
<trkpt lat="30.689844131" lon="34.917938232">
<ele>682.062500</ele>
<time>2013-11-22T09:03:48Z</time>
<speed>3.330000</speed>
<extensions>
<speed>3.3</speed>
<temp>0.00</temp>
<bpm>0</bpm>
<rpm>0.00</rpm>
</extensions>
</trkpt>
<trkpt lat="30.689945221" lon="34.918087006">
<ele>683.062500</ele>
<time>2013-11-22T09:03:53Z</time>
<speed>2.830000</speed>
<extensions>
<speed>2.8</speed>
<temp>0.00</temp>
<bpm>0</bpm>
<rpm>0.00</rpm>
</extensions>
</trkpt>
<trkpt lat="30.690076828" lon="34.918128967">
<ele>684.625000</ele>
<time>2013-11-22T09:03:58Z</time>
<speed>3.570000</speed>
<extensions>
<speed>3.6</speed>
<temp>0.00</temp>
<bpm>0</bpm>
<rpm>0.00</rpm>
</extensions>
</trkpt>
<trkpt lat="30.690242767" lon="34.918121338">
<ele>685.375000</ele>
<time>2013-11-22T09:04:03Z</time>
<speed>3.560000</speed>
<extensions>
<speed>3.6</speed>
<temp>0.00</temp>
<bpm>0</bpm>
<rpm>0.00</rpm>
</extensions>
</trkpt>
<trkpt lat="30.690420151" lon="34.918109894">
<ele>684.546875</ele>
<time>2013-11-22T09:04:08Z</time>
<speed>4.020000</speed>
<extensions>
<speed>4.0</speed>
<temp>0.00</temp>
<bpm>0</bpm>
<rpm>0.00</rpm>
</extensions>
</trkpt>
<trkpt lat="30.690530777" lon="34.918251038">
<ele>684.578125</ele>
<time>2013-11-22T09:04:13Z</time>
<speed>3.640000</speed>
<extensions>
<speed>3.6</speed>
<temp>0.00</temp>
<bpm>0</bpm>
<rpm>0.00</rpm>
</extensions>
</trkpt>
<trkpt lat="30.690555573" lon="34.918388367">
<ele>684.078125</ele>
<time>2013-11-22T09:04:18Z</time>
<speed>1.630000</speed>
<extensions>
<speed>1.6</speed>
<temp>0.00</temp>
<bpm>0</bpm>
<rpm>0.00</rpm>
</extensions>
</trkpt>
<trkpt lat="30.690553665" lon="34.918460846">
<ele>684.968750</ele>
<time>2013-11-22T09:04:23Z</time>
<speed>1.520000</speed>
<extensions>
<speed>1.5</speed>
<temp>0.00</temp>
<bpm>0</bpm>
<rpm>0.00</rpm>
</extensions>
</trkpt>
<trkpt lat="30.690544128" lon="34.918533325">
<ele>685.843750</ele>
<time>2013-11-22T09:04:28Z</time>
<speed>1.380000</speed>
<extensions>
<speed>1.4</speed>
<temp>0.00</temp>
<bpm>0</bpm>
<rpm>0.00</rpm>
</extensions>
</trkpt>
<trkpt lat="30.690528870" lon="34.918609619">
<ele>686.125000</ele>
<time>2013-11-22T09:04:33Z</time>
<speed>1.670000</speed>
<extensions>
<speed>1.7</speed>
<temp>0.00</temp>
<bpm>0</bpm>
<rpm>0.00</rpm>
</extensions>
</trkpt>
<trkpt lat="30.690517426" lon="34.918708801">
<ele>686.421875</ele>
<time>2013-11-22T09:04:38Z</time>
<speed>2.140000</speed>
<extensions>
<speed>2.1</speed>
<temp>0.00</temp>
<bpm>0</bpm>
<rpm>0.00</rpm>
</extensions>
</trkpt>
<trkpt lat="30.690502167" lon="34.918823242">
<ele>687.140625</ele>
<time>2013-11-22T09:04:43Z</time>
<speed>2.230000</speed>
<extensions>
<speed>2.2</speed>
<temp>0.00</temp>
<bpm>0</bpm>
<rpm>0.00</rpm>
</extensions>
</trkpt>
<trkpt lat="30.690511703" lon="34.918945313">
<ele>687.703125</ele>
<time>2013-11-22T09:04:48Z</time>
<speed>2.600000</speed>
<extensions>
<speed>2.6</speed>
<temp>0.00</temp>
<bpm>0</bpm>
<rpm>0.00</rpm>
</extensions>
</trkpt>
<trkpt lat="30.690496445" lon="34.919086456">
<ele>686.921875</ele>
<time>2013-11-22T09:04:53Z</time>
<speed>2.230000</speed>
<extensions>
<speed>2.2</speed>
<temp>0.00</temp>
<bpm>0</bpm>
<rpm>0.00</rpm>
</extensions>
</trkpt>
<trkpt lat="30.690465927" lon="34.919208527">
<ele>687.109375</ele>
<time>2013-11-22T09:04:58Z</time>
<speed>2.350000</speed>
<extensions>
<speed>2.4</speed>
<temp>0.00</temp>
<bpm>0</bpm>
<rpm>0.00</rpm>
</extensions>
</trkpt>
<trkpt lat="30.690414429" lon="34.919303894">
<ele>687.609375</ele>
<time>2013-11-22T09:05:03Z</time>
<speed>2.300000</speed>
<extensions>
<speed>2.3</speed>
<temp>0.00</temp>
<bpm>0</bpm>
<rpm>0.00</rpm>
</extensions>
</trkpt>
<trkpt lat="30.690366745" lon="34.919429779">
<ele>689.140625</ele>
<time>2013-11-22T09:05:08Z</time>
<speed>2.740000</speed>
<extensions>
<speed>2.7</speed>
<temp>0.00</temp>
<bpm>0</bpm>
<rpm>0.00</rpm>
</extensions>
</trkpt>
<trkpt lat="30.690286636" lon="34.919528961">
<ele>689.953125</ele>
<time>2013-11-22T09:05:13Z</time>
<speed>2.200000</speed>
<extensions>
<speed>2.2</speed>
<temp>0.00</temp>
<bpm>0</bpm>
<rpm>0.00</rpm>
</extensions>
</trkpt>
<trkpt lat="30.690198898" lon="34.919631958">
<ele>690.562500</ele>
<time>2013-11-22T09:05:18Z</time>
<speed>2.470000</speed>
<extensions>
<speed>2.5</speed>
<temp>0.00</temp>
<bpm>0</bpm>
<rpm>0.00</rpm>
</extensions>
</trkpt>
<trkpt lat="30.690105438" lon="34.919715881">
<ele>691.390625</ele>
<time>2013-11-22T09:05:23Z</time>
<speed>2.000000</speed>
<extensions>
<speed>2.0</speed>
<temp>0.00</temp>
<bpm>0</bpm>
<rpm>0.00</rpm>
</extensions>
</trkpt>
<trkpt lat="30.690025330" lon="34.919761658">
<ele>691.656250</ele>
<time>2013-11-22T09:05:28Z</time>
<speed>2.160000</speed>
<extensions>
<speed>2.2</speed>
<temp>0.00</temp>
<bpm>0</bpm>
<rpm>0.00</rpm>
</extensions>
</trkpt>
<trkpt lat="30.689924240" lon="34.919799805">
<ele>691.343750</ele>
<time>2013-11-22T09:05:33Z</time>
<speed>2.060000</speed>
<extensions>
<speed>2.1</speed>
<temp>0.00</temp>
<bpm>0</bpm>
<rpm>0.00</rpm>
</extensions>
</trkpt>
<trkpt lat="30.689826965" lon="34.919837952">
<ele>691.562500</ele>
<time>2013-11-22T09:05:38Z</time>
<speed>2.220000</speed>
<extensions>
<speed>2.2</speed>
<temp>0.00</temp>
<bpm>0</bpm>
<rpm>0.00</rpm>
</extensions>
</trkpt>
<trkpt lat="30.689733505" lon="34.919876099">
<ele>692.375000</ele>
<time>2013-11-22T09:05:43Z</time>
<speed>2.310000</speed>
<extensions>
<speed>2.3</speed>
<temp>0.00</temp>
<bpm>0</bpm>
<rpm>0.00</rpm>
</extensions>
</trkpt>
<trkpt lat="30.689649582" lon="34.919925690">
<ele>692.375000</ele>
<time>2013-11-22T09:05:48Z</time>
<speed>1.830000</speed>
<extensions>
<speed>1.8</speed>
<temp>0.00</temp>
<bpm>0</bpm>
<rpm>0.00</rpm>
</extensions>
</trkpt>
<trkpt lat="30.689563751" lon="34.919975281">
<ele>692.531250</ele>
<time>2013-11-22T09:05:53Z</time>
<speed>1.880000</speed>
<extensions>
<speed>1.9</speed>
<temp>0.00</temp>
<bpm>0</bpm>
<rpm>0.00</rpm>
</extensions>
</trkpt>
<trkpt lat="30.689496994" lon="34.920051575">
<ele>692.937500</ele>
<time>2013-11-22T09:05:58Z</time>
<speed>2.310000</speed>
<extensions>
<speed>2.3</speed>
<temp>0.00</temp>
<bpm>0</bpm>
<rpm>0.00</rpm>
</extensions>
</trkpt>
<trkpt lat="30.689439774" lon="34.920139313">
<ele>694.140625</ele>
<time>2013-11-22T09:06:03Z</time>
<speed>2.060000</speed>
<extensions>
<speed>2.1</speed>
<temp>0.00</temp>
<bpm>0</bpm>
<rpm>0.00</rpm>
</extensions>
</trkpt>
<trkpt lat="30.689399719" lon="34.920211792">
<ele>695.453125</ele>
<time>2013-11-22T09:06:08Z</time>
<speed>1.670000</speed>
<extensions>
<speed>1.7</speed>
<temp>0.00</temp>
<bpm>0</bpm>
<rpm>0.00</rpm>
</extensions>
</trkpt>
<trkpt lat="30.689346313" lon="34.920284271">
<ele>696.093750</ele>
<time>2013-11-22T09:06:13Z</time>
<speed>1.840000</speed>
<extensions>
<speed>1.8</speed>
<temp>0.00</temp>
<bpm>0</bpm>
<rpm>0.00</rpm>
</extensions>
</trkpt>
<trkpt lat="30.689300537" lon="34.920375824">
<ele>696.765625</ele>
<time>2013-11-22T09:06:18Z</time>
<speed>2.140000</speed>
<extensions>
<speed>2.1</speed>
<temp>0.00</temp>
<bpm>0</bpm>
<rpm>0.00</rpm>
</extensions>
</trkpt>
<trkpt lat="30.689264297" lon="34.920471191">
<ele>696.312500</ele>
<time>2013-11-22T09:06:23Z</time>
<speed>2.280000</speed>
<extensions>
<speed>2.3</speed>
<temp>0.00</temp>
<bpm>0</bpm>
<rpm>0.00</rpm>
</extensions>
</trkpt>
<trkpt lat="30.689254761" lon="34.920581818">
<ele>695.453125</ele>
<time>2013-11-22T09:06:28Z</time>
<speed>2.140000</speed>
<extensions>
<speed>2.1</speed>
<temp>0.00</temp>
<bpm>0</bpm>
<rpm>0.00</rpm>
</extensions>
</trkpt>
<trkpt lat="30.689258575" lon="34.920696259">
<ele>694.296875</ele>
<time>2013-11-22T09:06:33Z</time>
<speed>2.070000</speed>
<extensions>
<speed>2.1</speed>
<temp>0.00</temp>
<bpm>0</bpm>
<rpm>0.00</rpm>
</extensions>
</trkpt>
<trkpt lat="30.689313889" lon="34.920783997">
<ele>692.656250</ele>
<time>2013-11-22T09:06:38Z</time>
<speed>2.310000</speed>
<extensions>
<speed>2.3</speed>
<temp>0.00</temp>
<bpm>0</bpm>
<rpm>0.00</rpm>
</extensions>
</trkpt>
<trkpt lat="30.689376831" lon="34.920867920">
<ele>691.859375</ele>
<time>2013-11-22T09:06:43Z</time>
<speed>2.130000</speed>
<extensions>
<speed>2.1</speed>
<temp>0.00</temp>
<bpm>0</bpm>
<rpm>0.00</rpm>
</extensions>
</trkpt>
<trkpt lat="30.689466476" lon="34.920944214">
<ele>689.890625</ele>
<time>2013-11-22T09:06:48Z</time>
<speed>1.710000</speed>
<extensions>
<speed>1.7</speed>
<temp>0.00</temp>
<bpm>0</bpm>
<rpm>0.00</rpm>
</extensions>
</trkpt>
<trkpt lat="30.689554214" lon="34.920993805">
<ele>689.218750</ele>
<time>2013-11-22T09:06:53Z</time>
<speed>2.040000</speed>
<extensions>
<speed>2.0</speed>
<temp>0.00</temp>
<bpm>0</bpm>
<rpm>0.00</rpm>
</extensions>
</trkpt>
<trkpt lat="30.689599991" lon="34.921066284">
<ele>688.515625</ele>
<time>2013-11-22T09:06:58Z</time>
<speed>1.930000</speed>
<extensions>
<speed>1.9</speed>
<temp>0.00</temp>
<bpm>0</bpm>
<rpm>0.00</rpm>
</extensions>
</trkpt>
<trkpt lat="30.689645767" lon="34.921180725">
<ele>687.296875</ele>
<time>2013-11-22T09:07:03Z</time>
<speed>3.060000</speed>
<extensions>
<speed>3.1</speed>
<temp>0.00</temp>
<bpm>0</bpm>
<rpm>0.00</rpm>
</extensions>
</trkpt>
<trkpt lat="30.689657211" lon="34.921333313">
<ele>685.859375</ele>
<time>2013-11-22T09:07:08Z</time>
<speed>3.630000</speed>
<extensions>
<speed>3.6</speed>
<temp>0.00</temp>
<bpm>0</bpm>
<rpm>0.00</rpm>
</extensions>
</trkpt>
<trkpt lat="30.689691544" lon="34.921527863">
<ele>684.765625</ele>
<time>2013-11-22T09:07:13Z</time>
<speed>3.210000</speed>
<extensions>
<speed>3.2</speed>
<temp>0.00</temp>
<bpm>0</bpm>
<rpm>0.00</rpm>
</extensions>
</trkpt>
<trkpt lat="30.689746857" lon="34.921718597">
<ele>683.578125</ele>
<time>2013-11-22T09:07:18Z</time>
<speed>3.240000</speed>
<extensions>
<speed>3.2</speed>
<temp>0.00</temp>
<bpm>0</bpm>
<rpm>0.00</rpm>
</extensions>
</trkpt>
<trkpt lat="30.689760208" lon="34.921802521">
<ele>684.562500</ele>
<time>2013-11-22T09:07:23Z</time>
<speed>0.620000</speed>
<extensions>
<speed>0.6</speed>
<temp>0.00</temp>
<bpm>0</bpm>
<rpm>0.00</rpm>
</extensions>
</trkpt>
<trkpt lat="30.689754486" lon="34.921798706">
<ele>684.968750</ele>
<time>2013-11-22T09:07:28Z</time>
<speed>0.120000</speed>
<extensions>
<speed>0.1</speed>
<temp>0.00</temp>
<bpm>0</bpm>
<rpm>0.00</rpm>
</extensions>
</trkpt>
<trkpt lat="30.689752579" lon="34.921798706">
<ele>685.125000</ele>
<time>2013-11-22T09:07:33Z</time>
<speed>0.510000</speed>
<extensions>
<speed>0.5</speed>
<temp>0.00</temp>
<bpm>0</bpm>
<rpm>0.00</rpm>
</extensions>
</trkpt>
<trkpt lat="30.689737320" lon="34.921813965">
<ele>685.218750</ele>
<time>2013-11-22T09:07:38Z</time>
<speed>0.100000</speed>
<extensions>
<speed>0.1</speed>
<temp>0.00</temp>
<bpm>0</bpm>
<rpm>0.00</rpm>
</extensions>
</trkpt>
<trkpt lat="30.689737320" lon="34.921813965">
<ele>685.265625</ele>
<time>2013-11-22T09:07:43Z</time>
<speed>0.010000</speed>
<extensions>
<speed>0.0</speed>
<temp>0.00</temp>
<bpm>0</bpm>
<rpm>0.00</rpm>
</extensions>
</trkpt>
<trkpt lat="30.689737320" lon="34.921813965">
<ele>685.281250</ele>
<time>2013-11-22T09:07:48Z</time>
<extensions>
<speed>0.0</speed>
<temp>0.00</temp>
<bpm>0</bpm>
<rpm>0.00</rpm>
</extensions>
</trkpt>
<trkpt lat="30.689737320" lon="34.921813965">
<ele>685.265625</ele>
<time>2013-11-22T09:07:53Z</time>
<speed>0.020000</speed>
<extensions>
<speed>0.0</speed>
<temp>0.00</temp>
<bpm>0</bpm>
<rpm>0.00</rpm>
</extensions>
</trkpt>
<trkpt lat="30.689737320" lon="34.921813965">
<ele>685.281250</ele>
<time>2013-11-22T09:07:58Z</time>
<speed>0.010000</speed>
<extensions>
<speed>0.0</speed>
<temp>0.00</temp>
<bpm>0</bpm>
<rpm>0.00</rpm>
</extensions>
</trkpt>
<trkpt lat="30.689737320" lon="34.921813965">
<ele>685.281250</ele>
<time>2013-11-22T09:08:03Z</time>
<speed>0.010000</speed>
<extensions>
<speed>0.0</speed>
<temp>0.00</temp>
<bpm>0</bpm>
<rpm>0.00</rpm>
</extensions>
</trkpt>
<trkpt lat="30.689737320" lon="34.921813965">
<ele>685.265625</ele>
<time>2013-11-22T09:08:08Z</time>
<extensions>
<speed>0.0</speed>
<temp>0.00</temp>
<bpm>0</bpm>
<rpm>0.00</rpm>
</extensions>
</trkpt>
<trkpt lat="30.689737320" lon="34.921813965">
<ele>685.296875</ele>
<time>2013-11-22T09:08:13Z</time>
<speed>0.010000</speed>
<extensions>
<speed>0.0</speed>
<temp>0.00</temp>
<bpm>0</bpm>
<rpm>0.00</rpm>
</extensions>
</trkpt>
<trkpt lat="30.689737320" lon="34.921813965">
<ele>685.296875</ele>
<time>2013-11-22T09:08:18Z</time>
<extensions>
<speed>0.0</speed>
<temp>0.00</temp>
<bpm>0</bpm>
<rpm>0.00</rpm>
</extensions>
</trkpt>
<trkpt lat="30.689737320" lon="34.921813965">
<ele>685.281250</ele>
<time>2013-11-22T09:08:23Z</time>
<extensions>
<speed>0.0</speed>
<temp>0.00</temp>
<bpm>0</bpm>
<rpm>0.00</rpm>
</extensions>
</trkpt>
<trkpt lat="30.689737320" lon="34.921813965">
<ele>685.296875</ele>
<time>2013-11-22T09:08:28Z</time>
<speed>0.010000</speed>
<extensions>
<speed>0.0</speed>
<temp>0.00</temp>
<bpm>0</bpm>
<rpm>0.00</rpm>
</extensions>
</trkpt>
<trkpt lat="30.689737320" lon="34.921813965">
<ele>685.296875</ele>
<time>2013-11-22T09:08:33Z</time>
<extensions>
<speed>0.0</speed>
<temp>0.00</temp>
<bpm>0</bpm>
<rpm>0.00</rpm>
</extensions>
</trkpt>
<trkpt lat="30.689737320" lon="34.921813965">
<ele>685.312500</ele>
<time>2013-11-22T09:08:38Z</time>
<extensions>
<speed>0.0</speed>
<temp>0.00</temp>
<bpm>0</bpm>
<rpm>0.00</rpm>
</extensions>
</trkpt>
<trkpt lat="30.689737320" lon="34.921813965">
<ele>685.312500</ele>
<time>2013-11-22T09:08:43Z</time>
<speed>0.010000</speed>
<extensions>
<speed>0.0</speed>
<temp>0.00</temp>
<bpm>0</bpm>
<rpm>0.00</rpm>
</extensions>
</trkpt>
<trkpt lat="30.689737320" lon="34.921813965">
<ele>685.328125</ele>
<time>2013-11-22T09:08:48Z</time>
<extensions>
<speed>0.0</speed>
<temp>0.00</temp>
<bpm>0</bpm>
<rpm>0.00</rpm>
</extensions>
</trkpt>
<trkpt lat="30.689737320" lon="34.921813965">
<ele>685.343750</ele>
<time>2013-11-22T09:08:53Z</time>
<extensions>
<speed>0.0</speed>
<temp>0.00</temp>
<bpm>0</bpm>
<rpm>0.00</rpm>
</extensions>
</trkpt>
<trkpt lat="30.689737320" lon="34.921813965">
<ele>685.375000</ele>
<time>2013-11-22T09:08:58Z</time>
<extensions>
<speed>0.0</speed>
<temp>0.00</temp>
<bpm>0</bpm>
<rpm>0.00</rpm>
</extensions>
</trkpt>
<trkpt lat="30.689737320" lon="34.921813965">
<ele>685.406250</ele>
<time>2013-11-22T09:09:03Z</time>
<extensions>
<speed>0.0</speed>
<temp>0.00</temp>
<bpm>0</bpm>
<rpm>0.00</rpm>
</extensions>
</trkpt>
<trkpt lat="30.689737320" lon="34.921810150">
<ele>685.421875</ele>
<time>2013-11-22T09:09:08Z</time>
<speed>0.010000</speed>
<extensions>
<speed>0.0</speed>
<temp>0.00</temp>
<bpm>0</bpm>
<rpm>0.00</rpm>
</extensions>
</trkpt>
<trkpt lat="30.689737320" lon="34.921810150">
<ele>685.437500</ele>
<time>2013-11-22T09:09:13Z</time>
<speed>0.020000</speed>
<extensions>
<speed>0.0</speed>
<temp>0.00</temp>
<bpm>0</bpm>
<rpm>0.00</rpm>
</extensions>
</trkpt>
<trkpt lat="30.689737320" lon="34.921810150">
<ele>685.453125</ele>
<time>2013-11-22T09:09:18Z</time>
<speed>0.020000</speed>
<extensions>
<speed>0.0</speed>
<temp>0.00</temp>
<bpm>0</bpm>
<rpm>0.00</rpm>
</extensions>
</trkpt>
<trkpt lat="30.689737320" lon="34.921810150">
<ele>685.468750</ele>
<time>2013-11-22T09:09:23Z</time>
<extensions>
<speed>0.0</speed>
<temp>0.00</temp>
<bpm>0</bpm>
<rpm>0.00</rpm>
</extensions>
</trkpt>
<trkpt lat="30.689737320" lon="34.921810150">
<ele>685.484375</ele>
<time>2013-11-22T09:09:28Z</time>
<extensions>
<speed>0.0</speed>
<temp>0.00</temp>
<bpm>0</bpm>
<rpm>0.00</rpm>
</extensions>
</trkpt>
<trkpt lat="30.689737320" lon="34.921810150">
<ele>685.500000</ele>
<time>2013-11-22T09:09:33Z</time>
<speed>0.010000</speed>
<extensions>
<speed>0.0</speed>
<temp>0.00</temp>
<bpm>0</bpm>
<rpm>0.00</rpm>
</extensions>
</trkpt>
<trkpt lat="30.689737320" lon="34.921810150">
<ele>685.500000</ele>
<time>2013-11-22T09:09:38Z</time>
<extensions>
<speed>0.0</speed>
<temp>0.00</temp>
<bpm>0</bpm>
<rpm>0.00</rpm>
</extensions>
</trkpt>
<trkpt lat="30.689737320" lon="34.921810150">
<ele>685.515625</ele>
<time>2013-11-22T09:09:43Z</time>
<extensions>
<speed>0.0</speed>
<temp>0.00</temp>
<bpm>0</bpm>
<rpm>0.00</rpm>
</extensions>
</trkpt>
<trkpt lat="30.689737320" lon="34.921810150">
<ele>685.515625</ele>
<time>2013-11-22T09:09:48Z</time>
<extensions>
<speed>0.0</speed>
<temp>0.00</temp>
<bpm>0</bpm>
<rpm>0.00</rpm>
</extensions>
</trkpt>
<trkpt lat="30.689737320" lon="34.921810150">
<ele>685.531250</ele>
<time>2013-11-22T09:09:53Z</time>
<speed>0.070000</speed>
<extensions>
<speed>0.1</speed>
<temp>0.00</temp>
<bpm>0</bpm>
<rpm>0.00</rpm>
</extensions>
</trkpt>
<trkpt lat="30.689737320" lon="34.921810150">
<ele>685.531250</ele>
<time>2013-11-22T09:09:58Z</time>
<speed>0.010000</speed>
<extensions>
<speed>0.0</speed>
<temp>0.00</temp>
<bpm>0</bpm>
<rpm>0.00</rpm>
</extensions>
</trkpt>
<trkpt lat="30.689737320" lon="34.921810150">
<ele>685.546875</ele>
<time>2013-11-22T09:10:03Z</time>
<extensions>
<speed>0.0</speed>
<temp>0.00</temp>
<bpm>0</bpm>
<rpm>0.00</rpm>
</extensions>
</trkpt>
<trkpt lat="30.689737320" lon="34.921810150">
<ele>685.546875</ele>
<time>2013-11-22T09:10:08Z</time>
<extensions>
<speed>0.0</speed>
<temp>0.00</temp>
<bpm>0</bpm>
<rpm>0.00</rpm>
</extensions>
</trkpt>
<trkpt lat="30.689737320" lon="34.921810150">
<ele>685.562500</ele>
<time>2013-11-22T09:10:13Z</time>
<extensions>
<speed>0.0</speed>
<temp>0.00</temp>
<bpm>0</bpm>
<rpm>0.00</rpm>
</extensions>
</trkpt>
<trkpt lat="30.689737320" lon="34.921810150">
<ele>685.578125</ele>
<time>2013-11-22T09:10:18Z</time>
<speed>0.010000</speed>
<extensions>
<speed>0.0</speed>
<temp>0.00</temp>
<bpm>0</bpm>
<rpm>0.00</rpm>
</extensions>
</trkpt>
<trkpt lat="30.689737320" lon="34.921810150">
<ele>685.578125</ele>
<time>2013-11-22T09:10:23Z</time>
<extensions>
<speed>0.0</speed>
<temp>0.00</temp>
<bpm>0</bpm>
<rpm>0.00</rpm>
</extensions>
</trkpt>
<trkpt lat="30.689737320" lon="34.921810150">
<ele>685.562500</ele>
<time>2013-11-22T09:10:28Z</time>
<speed>0.030000</speed>
<extensions>
<speed>0.0</speed>
<temp>0.00</temp>
<bpm>0</bpm>
<rpm>0.00</rpm>
</extensions>
</trkpt>
<trkpt lat="30.689737320" lon="34.921810150">
<ele>685.578125</ele>
<time>2013-11-22T09:10:33Z</time>
<speed>0.020000</speed>
<extensions>
<speed>0.0</speed>
<temp>0.00</temp>
<bpm>0</bpm>
<rpm>0.00</rpm>
</extensions>
</trkpt>
<trkpt lat="30.689748764" lon="34.921825409">
<ele>685.359375</ele>
<time>2013-11-22T09:10:38Z</time>
<speed>0.840000</speed>
<extensions>
<speed>0.8</speed>
<temp>0.00</temp>
<bpm>0</bpm>
<rpm>0.00</rpm>
</extensions>
</trkpt>
<trkpt lat="30.689785004" lon="34.921894073">
<ele>684.968750</ele>
<time>2013-11-22T09:10:43Z</time>
<speed>2.640000</speed>
<extensions>
<speed>2.6</speed>
<temp>0.00</temp>
<bpm>0</bpm>
<rpm>0.00</rpm>
</extensions>
</trkpt>
<trkpt lat="30.689842224" lon="34.922042847">
<ele>684.421875</ele>
<time>2013-11-22T09:10:48Z</time>
<speed>3.330000</speed>
<extensions>
<speed>3.3</speed>
<temp>0.00</temp>
<bpm>0</bpm>
<rpm>0.00</rpm>
</extensions>
</trkpt>
<trkpt lat="30.689855576" lon="34.922164917">
<ele>684.296875</ele>
<time>2013-11-22T09:10:53Z</time>
<speed>1.960000</speed>
<extensions>
<speed>2.0</speed>
<temp>0.00</temp>
<bpm>0</bpm>
<rpm>0.00</rpm>
</extensions>
</trkpt>
<trkpt lat="30.689823151" lon="34.922302246">
<ele>684.531250</ele>
<time>2013-11-22T09:10:58Z</time>
<speed>2.930000</speed>
<extensions>
<speed>2.9</speed>
<temp>0.00</temp>
<bpm>0</bpm>
<rpm>0.00</rpm>
</extensions>
</trkpt>
<trkpt lat="30.689657211" lon="34.922332764">
<ele>684.203125</ele>
<time>2013-11-22T09:11:03Z</time>
<speed>3.950000</speed>
<extensions>
<speed>4.0</speed>
<temp>0.00</temp>
<bpm>0</bpm>
<rpm>0.00</rpm>
</extensions>
</trkpt>
<trkpt lat="30.689483643" lon="34.922424316">
<ele>682.953125</ele>
<time>2013-11-22T09:11:08Z</time>
<speed>4.030000</speed>
<extensions>
<speed>4.0</speed>
<temp>0.00</temp>
<bpm>0</bpm>
<rpm>0.00</rpm>
</extensions>
</trkpt>
<trkpt lat="30.689397812" lon="34.922584534">
<ele>682.484375</ele>
<time>2013-11-22T09:11:13Z</time>
<speed>2.510000</speed>
<extensions>
<speed>2.5</speed>
<temp>0.00</temp>
<bpm>0</bpm>
<rpm>0.00</rpm>
</extensions>
</trkpt>
<trkpt lat="30.689348221" lon="34.922721863">
<ele>682.109375</ele>
<time>2013-11-22T09:11:18Z</time>
<speed>2.590000</speed>
<extensions>
<speed>2.6</speed>
<temp>0.00</temp>
<bpm>0</bpm>
<rpm>0.00</rpm>
</extensions>
</trkpt>
<trkpt lat="30.689315796" lon="34.922885895">
<ele>681.437500</ele>
<time>2013-11-22T09:11:23Z</time>
<speed>3.210000</speed>
<extensions>
<speed>3.2</speed>
<temp>0.00</temp>
<bpm>0</bpm>
<rpm>0.00</rpm>
</extensions>
</trkpt>
<trkpt lat="30.689332962" lon="34.923072815">
<ele>681.218750</ele>
<time>2013-11-22T09:11:28Z</time>
<speed>3.620000</speed>
<extensions>
<speed>3.6</speed>
<temp>0.00</temp>
<bpm>0</bpm>
<rpm>0.00</rpm>
</extensions>
</trkpt>
<trkpt lat="30.689401627" lon="34.923240662">
<ele>681.781250</ele>
<time>2013-11-22T09:11:33Z</time>
<speed>4.030000</speed>
<extensions>
<speed>4.0</speed>
<temp>0.00</temp>
<bpm>0</bpm>
<rpm>0.00</rpm>
</extensions>
</trkpt>
<trkpt lat="30.689485550" lon="34.923408508">
<ele>682.234375</ele>
<time>2013-11-22T09:11:38Z</time>
<speed>2.850000</speed>
<extensions>
<speed>2.9</speed>
<temp>0.00</temp>
<bpm>0</bpm>
<rpm>0.00</rpm>
</extensions>
</trkpt>
<trkpt lat="30.689565659" lon="34.923545837">
<ele>681.578125</ele>
<time>2013-11-22T09:11:43Z</time>
<speed>3.520000</speed>
<extensions>
<speed>3.5</speed>
<temp>0.00</temp>
<bpm>0</bpm>
<rpm>0.00</rpm>
</extensions>
</trkpt>
<trkpt lat="30.689624786" lon="34.923702240">
<ele>681.984375</ele>
<time>2013-11-22T09:11:48Z</time>
<speed>2.730000</speed>
<extensions>
<speed>2.7</speed>
<temp>0.00</temp>
<bpm>0</bpm>
<rpm>0.00</rpm>
</extensions>
</trkpt>
<trkpt lat="30.689680099" lon="34.923854828">
<ele>682.109375</ele>
<time>2013-11-22T09:11:53Z</time>
<speed>3.000000</speed>
<extensions>
<speed>3.0</speed>
<temp>0.00</temp>
<bpm>0</bpm>
<rpm>0.00</rpm>
</extensions>
</trkpt>
<trkpt lat="30.689781189" lon="34.923976898">
<ele>681.843750</ele>
<time>2013-11-22T09:11:58Z</time>
<speed>3.110000</speed>
<extensions>
<speed>3.1</speed>
<temp>0.00</temp>
<bpm>0</bpm>
<rpm>0.00</rpm>
</extensions>
</trkpt>
<trkpt lat="30.689928055" lon="34.924022675">
<ele>680.250000</ele>
<time>2013-11-22T09:12:03Z</time>
<speed>3.590000</speed>
<extensions>
<speed>3.6</speed>
<temp>0.00</temp>
<bpm>0</bpm>
<rpm>0.00</rpm>
</extensions>
</trkpt>
<trkpt lat="30.690078735" lon="34.924015045">
<ele>678.156250</ele>
<time>2013-11-22T09:12:08Z</time>
<speed>2.780000</speed>
<extensions>
<speed>2.8</speed>
<temp>0.00</temp>
<bpm>0</bpm>
<rpm>0.00</rpm>
</extensions>
</trkpt>
<trkpt lat="30.690132141" lon="34.924087524">
<ele>676.515625</ele>
<time>2013-11-22T09:12:13Z</time>
<speed>1.730000</speed>
<extensions>
<speed>1.7</speed>
<temp>0.00</temp>
<bpm>0</bpm>
<rpm>0.00</rpm>
</extensions>
</trkpt>
<trkpt lat="30.690139771" lon="34.924186707">
<ele>675.156250</ele>
<time>2013-11-22T09:12:18Z</time>
<speed>1.590000</speed>
<extensions>
<speed>1.6</speed>
<temp>0.00</temp>
<bpm>0</bpm>
<rpm>0.00</rpm>
</extensions>
</trkpt>
<trkpt lat="30.690170288" lon="34.924285889">
<ele>673.593750</ele>
<time>2013-11-22T09:12:23Z</time>
<speed>2.350000</speed>
<extensions>
<speed>2.4</speed>
<temp>0.00</temp>
<bpm>0</bpm>
<rpm>0.00</rpm>
</extensions>
</trkpt>
<trkpt lat="30.690332413" lon="34.924385071">
<ele>672.296875</ele>
<time>2013-11-22T09:12:28Z</time>
<speed>3.930000</speed>
<extensions>
<speed>3.9</speed>
<temp>0.00</temp>
<bpm>0</bpm>
<rpm>0.00</rpm>
</extensions>
</trkpt>
<trkpt lat="30.690490723" lon="34.924362183">
<ele>672.031250</ele>
<time>2013-11-22T09:12:33Z</time>
<speed>3.440000</speed>
<extensions>
<speed>3.4</speed>
<temp>0.00</temp>
<bpm>0</bpm>
<rpm>0.00</rpm>
</extensions>
</trkpt>
<trkpt lat="30.690616608" lon="34.924232483">
<ele>671.453125</ele>
<time>2013-11-22T09:12:38Z</time>
<speed>3.330000</speed>
<extensions>
<speed>3.3</speed>
<temp>0.00</temp>
<bpm>0</bpm>
<rpm>0.00</rpm>
</extensions>
</trkpt>
<trkpt lat="30.690753937" lon="34.924140930">
<ele>670.875000</ele>
<time>2013-11-22T09:12:43Z</time>
<speed>2.680000</speed>
<extensions>
<speed>2.7</speed>
<temp>0.00</temp>
<bpm>0</bpm>
<rpm>0.00</rpm>
</extensions>
</trkpt>
<trkpt lat="30.690874100" lon="34.924076080">
<ele>669.656250</ele>
<time>2013-11-22T09:12:48Z</time>
<speed>2.440000</speed>
<extensions>
<speed>2.4</speed>
<temp>0.00</temp>
<bpm>0</bpm>
<rpm>0.00</rpm>
</extensions>
</trkpt>
<trkpt lat="30.690979004" lon="34.924007416">
<ele>670.828125</ele>
<time>2013-11-22T09:12:53Z</time>
<speed>1.880000</speed>
<extensions>
<speed>1.9</speed>
<temp>0.00</temp>
<bpm>0</bpm>
<rpm>0.00</rpm>
</extensions>
</trkpt>
<trkpt lat="30.691055298" lon="34.923957825">
<ele>671.046875</ele>
<time>2013-11-22T09:12:58Z</time>
<speed>2.250000</speed>
<extensions>
<speed>2.3</speed>
<temp>0.00</temp>
<bpm>0</bpm>
<rpm>0.00</rpm>
</extensions>
</trkpt>
<trkpt lat="30.691144943" lon="34.923908234">
<ele>670.234375</ele>
<time>2013-11-22T09:13:03Z</time>
<speed>1.260000</speed>
<extensions>
<speed>1.3</speed>
<temp>0.00</temp>
<bpm>0</bpm>
<rpm>0.00</rpm>
</extensions>
</trkpt>
<trkpt lat="30.691205978" lon="34.923961639">
<ele>668.671875</ele>
<time>2013-11-22T09:13:08Z</time>
<speed>1.980000</speed>
<extensions>
<speed>2.0</speed>
<temp>0.00</temp>
<bpm>0</bpm>
<rpm>0.00</rpm>
</extensions>
</trkpt>
<trkpt lat="30.691165924" lon="34.924095154">
<ele>667.343750</ele>
<time>2013-11-22T09:13:13Z</time>
<speed>3.270000</speed>
<extensions>
<speed>3.3</speed>
<temp>0.00</temp>
<bpm>0</bpm>
<rpm>0.00</rpm>
</extensions>
</trkpt>
<trkpt lat="30.691072464" lon="34.924232483">
<ele>667.234375</ele>
<time>2013-11-22T09:13:18Z</time>
<speed>2.900000</speed>
<extensions>
<speed>2.9</speed>
<temp>0.00</temp>
<bpm>0</bpm>
<rpm>0.00</rpm>
</extensions>
</trkpt>
<trkpt lat="30.691032410" lon="34.924350739">
<ele>666.859375</ele>
<time>2013-11-22T09:13:23Z</time>
<speed>2.180000</speed>
<extensions>
<speed>2.2</speed>
<temp>0.00</temp>
<bpm>0</bpm>
<rpm>0.00</rpm>
</extensions>
</trkpt>
<trkpt lat="30.691017151" lon="34.924468994">
<ele>666.078125</ele>
<time>2013-11-22T09:13:28Z</time>
<speed>2.030000</speed>
<extensions>
<speed>2.0</speed>
<temp>0.00</temp>
<bpm>0</bpm>
<rpm>0.00</rpm>
</extensions>
</trkpt>
<trkpt lat="30.690975189" lon="34.924530029">
<ele>665.906250</ele>
<time>2013-11-22T09:13:33Z</time>
<speed>1.030000</speed>
<extensions>
<speed>1.0</speed>
<temp>0.00</temp>
<bpm>0</bpm>
<rpm>0.00</rpm>
</extensions>
</trkpt>
<trkpt lat="30.690958023" lon="34.924541473">
<ele>665.875000</ele>
<time>2013-11-22T09:13:38Z</time>
<speed>0.030000</speed>
<extensions>
<speed>0.0</speed>
<temp>0.00</temp>
<bpm>0</bpm>
<rpm>0.00</rpm>
</extensions>
</trkpt>
<trkpt lat="30.690958023" lon="34.924541473">
<ele>665.953125</ele>
<time>2013-11-22T09:13:43Z</time>
<speed>0.060000</speed>
<extensions>
<speed>0.1</speed>
<temp>0.00</temp>
<bpm>0</bpm>
<rpm>0.00</rpm>
</extensions>
</trkpt>
<trkpt lat="30.690954208" lon="34.924541473">
<ele>665.875000</ele>
<time>2013-11-22T09:13:48Z</time>
<speed>0.110000</speed>
<extensions>
<speed>0.1</speed>
<temp>0.00</temp>
<bpm>0</bpm>
<rpm>0.00</rpm>
</extensions>
</trkpt>
<trkpt lat="30.690952301" lon="34.924541473">
<ele>665.796875</ele>
<time>2013-11-22T09:13:53Z</time>
<speed>0.020000</speed>
<extensions>
<speed>0.0</speed>
<temp>0.00</temp>
<bpm>0</bpm>
<rpm>0.00</rpm>
</extensions>
</trkpt>
<trkpt lat="30.690952301" lon="34.924541473">
<ele>665.812500</ele>
<time>2013-11-22T09:13:58Z</time>
<speed>0.050000</speed>
<extensions>
<speed>0.1</speed>
<temp>0.00</temp>
<bpm>0</bpm>
<rpm>0.00</rpm>
</extensions>
</trkpt>
<trkpt lat="30.690952301" lon="34.924541473">
<ele>665.859375</ele>
<time>2013-11-22T09:14:03Z</time>
<speed>0.020000</speed>
<extensions>
<speed>0.0</speed>
<temp>0.00</temp>
<bpm>0</bpm>
<rpm>0.00</rpm>
</extensions>
</trkpt>
<trkpt lat="30.690952301" lon="34.924541473">
<ele>665.921875</ele>
<time>2013-11-22T09:14:08Z</time>
<speed>0.040000</speed>
<extensions>
<speed>0.0</speed>
<temp>0.00</temp>
<bpm>0</bpm>
<rpm>0.00</rpm>
</extensions>
</trkpt>
<trkpt lat="30.690952301" lon="34.924541473">
<ele>665.921875</ele>
<time>2013-11-22T09:14:13Z</time>
<speed>0.010000</speed>
<extensions>
<speed>0.0</speed>
<temp>0.00</temp>
<bpm>0</bpm>
<rpm>0.00</rpm>
</extensions>
</trkpt>
<trkpt lat="30.690950394" lon="34.924541473">
<ele>665.906250</ele>
<time>2013-11-22T09:14:18Z</time>
<speed>0.010000</speed>
<extensions>
<speed>0.0</speed>
<temp>0.00</temp>
<bpm>0</bpm>
<rpm>0.00</rpm>
</extensions>
</trkpt>
<trkpt lat="30.690950394" lon="34.924541473">
<ele>665.906250</ele>
<time>2013-11-22T09:14:23Z</time>
<speed>0.010000</speed>
<extensions>
<speed>0.0</speed>
<temp>0.00</temp>
<bpm>0</bpm>
<rpm>0.00</rpm>
</extensions>
</trkpt>
<trkpt lat="30.690950394" lon="34.924541473">
<ele>665.890625</ele>
<time>2013-11-22T09:14:28Z</time>
<extensions>
<speed>0.0</speed>
<temp>0.00</temp>
<bpm>0</bpm>
<rpm>0.00</rpm>
</extensions>
</trkpt>
<trkpt lat="30.690950394" lon="34.924541473">
<ele>665.875000</ele>
<time>2013-11-22T09:14:33Z</time>
<extensions>
<speed>0.0</speed>
<temp>0.00</temp>
<bpm>0</bpm>
<rpm>0.00</rpm>
</extensions>
</trkpt>
<trkpt lat="30.690950394" lon="34.924541473">
<ele>665.875000</ele>
<time>2013-11-22T09:14:38Z</time>
<speed>0.010000</speed>
<extensions>
<speed>0.0</speed>
<temp>0.00</temp>
<bpm>0</bpm>
<rpm>0.00</rpm>
</extensions>
</trkpt>
<trkpt lat="30.690950394" lon="34.924541473">
<ele>665.859375</ele>
<time>2013-11-22T09:14:43Z</time>
<speed>0.020000</speed>
<extensions>
<speed>0.0</speed>
<temp>0.00</temp>
<bpm>0</bpm>
<rpm>0.00</rpm>
</extensions>
</trkpt>
<trkpt lat="30.690952301" lon="34.924541473">
<ele>665.859375</ele>
<time>2013-11-22T09:14:48Z</time>
<speed>0.010000</speed>
<extensions>
<speed>0.0</speed>
<temp>0.00</temp>
<bpm>0</bpm>
<rpm>0.00</rpm>
</extensions>
</trkpt>
<trkpt lat="30.690952301" lon="34.924541473">
<ele>665.828125</ele>
<time>2013-11-22T09:14:53Z</time>
<speed>0.010000</speed>
<extensions>
<speed>0.0</speed>
<temp>0.00</temp>
<bpm>0</bpm>
<rpm>0.00</rpm>
</extensions>
</trkpt>
<trkpt lat="30.690952301" lon="34.924537659">
<ele>665.796875</ele>
<time>2013-11-22T09:14:58Z</time>
<extensions>
<speed>0.0</speed>
<temp>0.00</temp>
<bpm>0</bpm>
<rpm>0.00</rpm>
</extensions>
</trkpt>
<trkpt lat="30.690952301" lon="34.924537659">
<ele>665.781250</ele>
<time>2013-11-22T09:15:03Z</time>
<speed>0.010000</speed>
<extensions>
<speed>0.0</speed>
<temp>0.00</temp>
<bpm>0</bpm>
<rpm>0.00</rpm>
</extensions>
</trkpt>
<trkpt lat="30.690950394" lon="34.924537659">
<ele>665.750000</ele>
<time>2013-11-22T09:15:08Z</time>
<speed>0.010000</speed>
<extensions>
<speed>0.0</speed>
<temp>0.00</temp>
<bpm>0</bpm>
<rpm>0.00</rpm>
</extensions>
</trkpt>
<trkpt lat="30.690950394" lon="34.924537659">
<ele>665.734375</ele>
<time>2013-11-22T09:15:13Z</time>
<speed>0.010000</speed>
<extensions>
<speed>0.0</speed>
<temp>0.00</temp>
<bpm>0</bpm>
<rpm>0.00</rpm>
</extensions>
</trkpt>
<trkpt lat="30.690950394" lon="34.924537659">
<ele>665.703125</ele>
<time>2013-11-22T09:15:18Z</time>
<speed>0.330000</speed>
<extensions>
<speed>0.3</speed>
<temp>0.00</temp>
<bpm>0</bpm>
<rpm>0.00</rpm>
</extensions>
</trkpt>
<trkpt lat="30.690952301" lon="34.924560547">
<ele>665.484375</ele>
<time>2013-11-22T09:15:23Z</time>
<speed>0.190000</speed>
<extensions>
<speed>0.2</speed>
<temp>0.00</temp>
<bpm>0</bpm>
<rpm>0.00</rpm>
</extensions>
</trkpt>
<trkpt lat="30.690952301" lon="34.924579620">
<ele>665.296875</ele>
<time>2013-11-22T09:15:28Z</time>
<speed>0.360000</speed>
<extensions>
<speed>0.4</speed>
<temp>0.00</temp>
<bpm>0</bpm>
<rpm>0.00</rpm>
</extensions>
</trkpt>
<trkpt lat="30.690952301" lon="34.924594879">
<ele>665.109375</ele>
<time>2013-11-22T09:15:33Z</time>
<speed>0.310000</speed>
<extensions>
<speed>0.3</speed>
<temp>0.00</temp>
<bpm>0</bpm>
<rpm>0.00</rpm>
</extensions>
</trkpt>
<trkpt lat="30.690917969" lon="34.924678802">
<ele>664.625000</ele>
<time>2013-11-22T09:15:38Z</time>
<speed>2.970000</speed>
<extensions>
<speed>3.0</speed>
<temp>0.00</temp>
<bpm>0</bpm>
<rpm>0.00</rpm>
</extensions>
</trkpt>
<trkpt lat="30.690835953" lon="34.924808502">
<ele>664.015625</ele>
<time>2013-11-22T09:15:43Z</time>
<speed>2.910000</speed>
<extensions>
<speed>2.9</speed>
<temp>0.00</temp>
<bpm>0</bpm>
<rpm>0.00</rpm>
</extensions>
</trkpt>
<trkpt lat="30.690734863" lon="34.924896240">
<ele>663.546875</ele>
<time>2013-11-22T09:15:48Z</time>
<speed>2.580000</speed>
<extensions>
<speed>2.6</speed>
<temp>0.00</temp>
<bpm>0</bpm>
<rpm>0.00</rpm>
</extensions>
</trkpt>
<trkpt lat="30.690650940" lon="34.924922943">
<ele>663.187500</ele>
<time>2013-11-22T09:15:53Z</time>
<speed>1.920000</speed>
<extensions>
<speed>1.9</speed>
<temp>0.00</temp>
<bpm>0</bpm>
<rpm>0.00</rpm>
</extensions>
</trkpt>
<trkpt lat="30.690542221" lon="34.924926758">
<ele>662.921875</ele>
<time>2013-11-22T09:15:58Z</time>
<speed>2.630000</speed>
<extensions>
<speed>2.6</speed>
<temp>0.00</temp>
<bpm>0</bpm>
<rpm>0.00</rpm>
</extensions>
</trkpt>
<trkpt lat="30.690431595" lon="34.924919128">
<ele>662.828125</ele>
<time>2013-11-22T09:16:03Z</time>
<speed>2.080000</speed>
<extensions>
<speed>2.1</speed>
<temp>0.00</temp>
<bpm>0</bpm>
<rpm>0.00</rpm>
</extensions>
</trkpt>
<trkpt lat="30.690397263" lon="34.925025940">
<ele>661.843750</ele>
<time>2013-11-22T09:16:08Z</time>
<speed>2.700000</speed>
<extensions>
<speed>2.7</speed>
<temp>0.00</temp>
<bpm>0</bpm>
<rpm>0.00</rpm>
</extensions>
</trkpt>
<trkpt lat="30.690443039" lon="34.925167084">
<ele>661.156250</ele>
<time>2013-11-22T09:16:13Z</time>
<speed>2.180000</speed>
<extensions>
<speed>2.2</speed>
<temp>0.00</temp>
<bpm>0</bpm>
<rpm>0.00</rpm>
</extensions>
</trkpt>
<trkpt lat="30.690469742" lon="34.925247192">
<ele>660.953125</ele>
<time>2013-11-22T09:16:18Z</time>
<speed>0.040000</speed>
<extensions>
<speed>0.0</speed>
<temp>0.00</temp>
<bpm>0</bpm>
<rpm>0.00</rpm>
</extensions>
</trkpt>
<trkpt lat="30.690475464" lon="34.925251007">
<ele>659.671875</ele>
<time>2013-11-22T09:16:23Z</time>
<speed>0.090000</speed>
<extensions>
<speed>0.1</speed>
<temp>0.00</temp>
<bpm>0</bpm>
<rpm>0.00</rpm>
</extensions>
</trkpt>
<trkpt lat="30.690475464" lon="34.925251007">
<ele>659.671875</ele>
<time>2013-11-22T09:16:28Z</time>
<speed>0.300000</speed>
<extensions>
<speed>0.3</speed>
<temp>0.00</temp>
<bpm>0</bpm>
<rpm>0.00</rpm>
</extensions>
</trkpt>
<trkpt lat="30.690601349" lon="34.925300598">
<ele>658.843750</ele>
<time>2013-11-22T09:16:33Z</time>
<speed>3.270000</speed>
<extensions>
<speed>3.3</speed>
<temp>0.00</temp>
<bpm>0</bpm>
<rpm>0.00</rpm>
</extensions>
</trkpt>
<trkpt lat="30.690780640" lon="34.925296783">
<ele>658.140625</ele>
<time>2013-11-22T09:16:38Z</time>
<speed>3.930000</speed>
<extensions>
<speed>3.9</speed>
<temp>0.00</temp>
<bpm>0</bpm>
<rpm>0.00</rpm>
</extensions>
</trkpt>
<trkpt lat="30.690961838" lon="34.925304413">
<ele>658.468750</ele>
<time>2013-11-22T09:16:43Z</time>
<speed>4.350000</speed>
<extensions>
<speed>4.3</speed>
<temp>0.00</temp>
<bpm>0</bpm>
<rpm>0.00</rpm>
</extensions>
</trkpt>
<trkpt lat="30.691144943" lon="34.925338745">
<ele>656.812500</ele>
<time>2013-11-22T09:16:48Z</time>
<speed>4.170000</speed>
<extensions>
<speed>4.2</speed>
<temp>0.00</temp>
<bpm>0</bpm>
<rpm>0.00</rpm>
</extensions>
</trkpt>
<trkpt lat="30.691377640" lon="34.925418854">
<ele>653.203125</ele>
<time>2013-11-22T09:16:53Z</time>
<speed>6.050000</speed>
<extensions>
<speed>6.1</speed>
<temp>0.00</temp>
<bpm>0</bpm>
<rpm>0.00</rpm>
</extensions>
</trkpt>
<trkpt lat="30.691633224" lon="34.925498962">
<ele>647.500000</ele>
<time>2013-11-22T09:16:58Z</time>
<speed>6.470000</speed>
<extensions>
<speed>6.5</speed>
<temp>0.00</temp>
<bpm>0</bpm>
<rpm>0.00</rpm>
</extensions>
</trkpt>
<trkpt lat="30.691928864" lon="34.925586700">
<ele>645.546875</ele>
<time>2013-11-22T09:17:03Z</time>
<speed>6.860000</speed>
<extensions>
<speed>6.9</speed>
<temp>0.00</temp>
<bpm>0</bpm>
<rpm>0.00</rpm>
</extensions>
</trkpt>
<trkpt lat="30.692203522" lon="34.925647736">
<ele>645.593750</ele>
<time>2013-11-22T09:17:08Z</time>
<speed>2.680000</speed>
<extensions>
<speed>2.7</speed>
<temp>0.00</temp>
<bpm>0</bpm>
<rpm>0.00</rpm>
</extensions>
</trkpt>
<trkpt lat="30.692268372" lon="34.925666809">
<ele>647.312500</ele>
<time>2013-11-22T09:17:13Z</time>
<speed>0.030000</speed>
<extensions>
<speed>0.0</speed>
<temp>0.00</temp>
<bpm>0</bpm>
<rpm>0.00</rpm>
</extensions>
</trkpt>
<trkpt lat="30.692262650" lon="34.925662994">
<ele>647.281250</ele>
<time>2013-11-22T09:17:18Z</time>
<speed>0.050000</speed>
<extensions>
<speed>0.1</speed>
<temp>0.00</temp>
<bpm>0</bpm>
<rpm>0.00</rpm>
</extensions>
</trkpt>
<trkpt lat="30.692262650" lon="34.925662994">
<ele>647.312500</ele>
<time>2013-11-22T09:17:23Z</time>
<speed>0.010000</speed>
<extensions>
<speed>0.0</speed>
<temp>0.00</temp>
<bpm>0</bpm>
<rpm>0.00</rpm>
</extensions>
</trkpt>
<trkpt lat="30.692262650" lon="34.925662994">
<ele>647.343750</ele>
<time>2013-11-22T09:17:28Z</time>
<speed>0.020000</speed>
<extensions>
<speed>0.0</speed>
<temp>0.00</temp>
<bpm>0</bpm>
<rpm>0.00</rpm>
</extensions>
</trkpt>
<trkpt lat="30.692260742" lon="34.925666809">
<ele>647.328125</ele>
<time>2013-11-22T09:17:33Z</time>
<speed>0.020000</speed>
<extensions>
<speed>0.0</speed>
<temp>0.00</temp>
<bpm>0</bpm>
<rpm>0.00</rpm>
</extensions>
</trkpt>
<trkpt lat="30.692260742" lon="34.925662994">
<ele>647.328125</ele>
<time>2013-11-22T09:17:38Z</time>
<speed>0.040000</speed>
<extensions>
<speed>0.0</speed>
<temp>0.00</temp>
<bpm>0</bpm>
<rpm>0.00</rpm>
</extensions>
</trkpt>
<trkpt lat="30.692260742" lon="34.925666809">
<ele>647.328125</ele>
<time>2013-11-22T09:17:43Z</time>
<speed>0.050000</speed>
<extensions>
<speed>0.1</speed>
<temp>0.00</temp>
<bpm>0</bpm>
<rpm>0.00</rpm>
</extensions>
</trkpt>
<trkpt lat="30.692260742" lon="34.925666809">
<ele>647.406250</ele>
<time>2013-11-22T09:17:48Z</time>
<speed>0.010000</speed>
<extensions>
<speed>0.0</speed>
<temp>0.00</temp>
<bpm>0</bpm>
<rpm>0.00</rpm>
</extensions>
</trkpt>
<trkpt lat="30.692260742" lon="34.925666809">
<ele>647.500000</ele>
<time>2013-11-22T09:17:53Z</time>
<extensions>
<speed>0.0</speed>
<temp>0.00</temp>
<bpm>0</bpm>
<rpm>0.00</rpm>
</extensions>
</trkpt>
<trkpt lat="30.692262650" lon="34.925666809">
<ele>647.515625</ele>
<time>2013-11-22T09:17:58Z</time>
<speed>0.010000</speed>
<extensions>
<speed>0.0</speed>
<temp>0.00</temp>
<bpm>0</bpm>
<rpm>0.00</rpm>
</extensions>
</trkpt>
<trkpt lat="30.692262650" lon="34.925666809">
<ele>647.515625</ele>
<time>2013-11-22T09:18:03Z</time>
<extensions>
<speed>0.0</speed>
<temp>0.00</temp>
<bpm>0</bpm>
<rpm>0.00</rpm>
</extensions>
</trkpt>
<trkpt lat="30.692262650" lon="34.925666809">
<ele>647.531250</ele>
<time>2013-11-22T09:18:08Z</time>
<extensions>
<speed>0.0</speed>
<temp>0.00</temp>
<bpm>0</bpm>
<rpm>0.00</rpm>
</extensions>
</trkpt>
<trkpt lat="30.692262650" lon="34.925666809">
<ele>647.562500</ele>
<time>2013-11-22T09:18:13Z</time>
<extensions>
<speed>0.0</speed>
<temp>0.00</temp>
<bpm>0</bpm>
<rpm>0.00</rpm>
</extensions>
</trkpt>
<trkpt lat="30.692262650" lon="34.925666809">
<ele>647.562500</ele>
<time>2013-11-22T09:18:18Z</time>
<speed>0.010000</speed>
<extensions>
<speed>0.0</speed>
<temp>0.00</temp>
<bpm>0</bpm>
<rpm>0.00</rpm>
</extensions>
</trkpt>
<trkpt lat="30.692262650" lon="34.925666809">
<ele>647.578125</ele>
<time>2013-11-22T09:18:23Z</time>
<extensions>
<speed>0.0</speed>
<temp>0.00</temp>
<bpm>0</bpm>
<rpm>0.00</rpm>
</extensions>
</trkpt>
<trkpt lat="30.692262650" lon="34.925666809">
<ele>647.593750</ele>
<time>2013-11-22T09:18:28Z</time>
<extensions>
<speed>0.0</speed>
<temp>0.00</temp>
<bpm>0</bpm>
<rpm>0.00</rpm>
</extensions>
</trkpt>
<trkpt lat="30.692264557" lon="34.925666809">
<ele>647.609375</ele>
<time>2013-11-22T09:18:33Z</time>
<extensions>
<speed>0.0</speed>
<temp>0.00</temp>
<bpm>0</bpm>
<rpm>0.00</rpm>
</extensions>
</trkpt>
<trkpt lat="30.692264557" lon="34.925666809">
<ele>647.609375</ele>
<time>2013-11-22T09:18:38Z</time>
<extensions>
<speed>0.0</speed>
<temp>0.00</temp>
<bpm>0</bpm>
<rpm>0.00</rpm>
</extensions>
</trkpt>
<trkpt lat="30.692264557" lon="34.925666809">
<ele>647.625000</ele>
<time>2013-11-22T09:18:43Z</time>
<extensions>
<speed>0.0</speed>
<temp>0.00</temp>
<bpm>0</bpm>
<rpm>0.00</rpm>
</extensions>
</trkpt>
<trkpt lat="30.692264557" lon="34.925666809">
<ele>647.625000</ele>
<time>2013-11-22T09:18:48Z</time>
<extensions>
<speed>0.0</speed>
<temp>0.00</temp>
<bpm>0</bpm>
<rpm>0.00</rpm>
</extensions>
</trkpt>
<trkpt lat="30.692264557" lon="34.925666809">
<ele>647.640625</ele>
<time>2013-11-22T09:18:53Z</time>
<speed>0.020000</speed>
<extensions>
<speed>0.0</speed>
<temp>0.00</temp>
<bpm>0</bpm>
<rpm>0.00</rpm>
</extensions>
</trkpt>
<trkpt lat="30.692264557" lon="34.925666809">
<ele>647.656250</ele>
<time>2013-11-22T09:18:58Z</time>
<speed>0.020000</speed>
<extensions>
<speed>0.0</speed>
<temp>0.00</temp>
<bpm>0</bpm>
<rpm>0.00</rpm>
</extensions>
</trkpt>
<trkpt lat="30.692264557" lon="34.925666809">
<ele>647.671875</ele>
<time>2013-11-22T09:19:03Z</time>
<speed>0.020000</speed>
<extensions>
<speed>0.0</speed>
<temp>0.00</temp>
<bpm>0</bpm>
<rpm>0.00</rpm>
</extensions>
</trkpt>
<trkpt lat="30.692264557" lon="34.925666809">
<ele>647.671875</ele>
<time>2013-11-22T09:19:08Z</time>
<speed>0.060000</speed>
<extensions>
<speed>0.1</speed>
<temp>0.00</temp>
<bpm>0</bpm>
<rpm>0.00</rpm>
</extensions>
</trkpt>
<trkpt lat="30.692264557" lon="34.925666809">
<ele>647.671875</ele>
<time>2013-11-22T09:19:13Z</time>
<speed>0.040000</speed>
<extensions>
<speed>0.0</speed>
<temp>0.00</temp>
<bpm>0</bpm>
<rpm>0.00</rpm>
</extensions>
</trkpt>
<trkpt lat="30.692264557" lon="34.925666809">
<ele>647.671875</ele>
<time>2013-11-22T09:19:18Z</time>
<speed>0.040000</speed>
<extensions>
<speed>0.0</speed>
<temp>0.00</temp>
<bpm>0</bpm>
<rpm>0.00</rpm>
</extensions>
</trkpt>
<trkpt lat="30.692266464" lon="34.925666809">
<ele>647.671875</ele>
<time>2013-11-22T09:19:23Z</time>
<speed>0.020000</speed>
<extensions>
<speed>0.0</speed>
<temp>0.00</temp>
<bpm>0</bpm>
<rpm>0.00</rpm>
</extensions>
</trkpt>
<trkpt lat="30.692266464" lon="34.925666809">
<ele>647.671875</ele>
<time>2013-11-22T09:19:28Z</time>
<speed>0.020000</speed>
<extensions>
<speed>0.0</speed>
<temp>0.00</temp>
<bpm>0</bpm>
<rpm>0.00</rpm>
</extensions>
</trkpt>
<trkpt lat="30.692266464" lon="34.925666809">
<ele>647.687500</ele>
<time>2013-11-22T09:19:33Z</time>
<speed>0.020000</speed>
<extensions>
<speed>0.0</speed>
<temp>0.00</temp>
<bpm>0</bpm>
<rpm>0.00</rpm>
</extensions>
</trkpt>
<trkpt lat="30.692266464" lon="34.925666809">
<ele>647.687500</ele>
<time>2013-11-22T09:19:38Z</time>
<speed>0.010000</speed>
<extensions>
<speed>0.0</speed>
<temp>0.00</temp>
<bpm>0</bpm>
<rpm>0.00</rpm>
</extensions>
</trkpt>
<trkpt lat="30.692266464" lon="34.925666809">
<ele>647.703125</ele>
<time>2013-11-22T09:19:43Z</time>
<speed>0.020000</speed>
<extensions>
<speed>0.0</speed>
<temp>0.00</temp>
<bpm>0</bpm>
<rpm>0.00</rpm>
</extensions>
</trkpt>
<trkpt lat="30.692266464" lon="34.925666809">
<ele>647.703125</ele>
<time>2013-11-22T09:19:48Z</time>
<speed>0.020000</speed>
<extensions>
<speed>0.0</speed>
<temp>0.00</temp>
<bpm>0</bpm>
<rpm>0.00</rpm>
</extensions>
</trkpt>
<trkpt lat="30.692266464" lon="34.925666809">
<ele>647.734375</ele>
<time>2013-11-22T09:19:53Z</time>
<extensions>
<speed>0.0</speed>
<temp>0.00</temp>
<bpm>0</bpm>
<rpm>0.00</rpm>
</extensions>
</trkpt>
<trkpt lat="30.692266464" lon="34.925666809">
<ele>647.750000</ele>
<time>2013-11-22T09:19:58Z</time>
<speed>0.030000</speed>
<extensions>
<speed>0.0</speed>
<temp>0.00</temp>
<bpm>0</bpm>
<rpm>0.00</rpm>
</extensions>
</trkpt>
<trkpt lat="30.692272186" lon="34.925674438">
<ele>647.828125</ele>
<time>2013-11-22T09:20:03Z</time>
<speed>0.530000</speed>
<extensions>
<speed>0.5</speed>
<temp>0.00</temp>
<bpm>0</bpm>
<rpm>0.00</rpm>
</extensions>
</trkpt>
<trkpt lat="30.692270279" lon="34.925682068">
<ele>648.000000</ele>
<time>2013-11-22T09:20:08Z</time>
<speed>0.020000</speed>
<extensions>
<speed>0.0</speed>
<temp>0.00</temp>
<bpm>0</bpm>
<rpm>0.00</rpm>
</extensions>
</trkpt>
<trkpt lat="30.692270279" lon="34.925682068">
<ele>648.015625</ele>
<time>2013-11-22T09:20:13Z</time>
<speed>0.010000</speed>
<extensions>
<speed>0.0</speed>
<temp>0.00</temp>
<bpm>0</bpm>
<rpm>0.00</rpm>
</extensions>
</trkpt>
<trkpt lat="30.692270279" lon="34.925682068">
<ele>648.062500</ele>
<time>2013-11-22T09:20:18Z</time>
<speed>1.140000</speed>
<extensions>
<speed>1.1</speed>
<temp>0.00</temp>
<bpm>0</bpm>
<rpm>0.00</rpm>
</extensions>
</trkpt>
<trkpt lat="30.692241669" lon="34.925724030">
<ele>650.687500</ele>
<time>2013-11-22T09:20:23Z</time>
<speed>0.080000</speed>
<extensions>
<speed>0.1</speed>
<temp>0.00</temp>
<bpm>0</bpm>
<rpm>0.00</rpm>
</extensions>
</trkpt>
<trkpt lat="30.692216873" lon="34.925788879">
<ele>651.859375</ele>
<time>2013-11-22T09:20:28Z</time>
<speed>1.890000</speed>
<extensions>
<speed>1.9</speed>
<temp>0.00</temp>
<bpm>0</bpm>
<rpm>0.00</rpm>
</extensions>
</trkpt>
<trkpt lat="30.692186356" lon="34.925880432">
<ele>653.468750</ele>
<time>2013-11-22T09:20:33Z</time>
<speed>2.060000</speed>
<extensions>
<speed>2.1</speed>
<temp>0.00</temp>
<bpm>0</bpm>
<rpm>0.00</rpm>
</extensions>
</trkpt>
<trkpt lat="30.692115784" lon="34.925952911">
<ele>654.609375</ele>
<time>2013-11-22T09:20:38Z</time>
<speed>1.330000</speed>
<extensions>
<speed>1.3</speed>
<temp>0.00</temp>
<bpm>0</bpm>
<rpm>0.00</rpm>
</extensions>
</trkpt>
<trkpt lat="30.692068100" lon="34.925987244">
<ele>654.437500</ele>
<time>2013-11-22T09:20:43Z</time>
<speed>1.970000</speed>
<extensions>
<speed>2.0</speed>
<temp>0.00</temp>
<bpm>0</bpm>
<rpm>0.00</rpm>
</extensions>
</trkpt>
<trkpt lat="30.691976547" lon="34.926021576">
<ele>654.359375</ele>
<time>2013-11-22T09:20:48Z</time>
<speed>1.900000</speed>
<extensions>
<speed>1.9</speed>
<temp>0.00</temp>
<bpm>0</bpm>
<rpm>0.00</rpm>
</extensions>
</trkpt>
<trkpt lat="30.691896439" lon="34.926071167">
<ele>655.000000</ele>
<time>2013-11-22T09:20:53Z</time>
<speed>1.440000</speed>
<extensions>
<speed>1.4</speed>
<temp>0.00</temp>
<bpm>0</bpm>
<rpm>0.00</rpm>
</extensions>
</trkpt>
<trkpt lat="30.691825867" lon="34.926116943">
<ele>655.421875</ele>
<time>2013-11-22T09:20:58Z</time>
<speed>2.020000</speed>
<extensions>
<speed>2.0</speed>
<temp>0.00</temp>
<bpm>0</bpm>
<rpm>0.00</rpm>
</extensions>
</trkpt>
<trkpt lat="30.691768646" lon="34.926174164">
<ele>655.796875</ele>
<time>2013-11-22T09:21:03Z</time>
<speed>1.980000</speed>
<extensions>
<speed>2.0</speed>
<temp>0.00</temp>
<bpm>0</bpm>
<rpm>0.00</rpm>
</extensions>
</trkpt>
<trkpt lat="30.691717148" lon="34.926265717">
<ele>656.390625</ele>
<time>2013-11-22T09:21:08Z</time>
<speed>1.660000</speed>
<extensions>
<speed>1.7</speed>
<temp>0.00</temp>
<bpm>0</bpm>
<rpm>0.00</rpm>
</extensions>
</trkpt>
<trkpt lat="30.691671371" lon="34.926296234">
<ele>656.765625</ele>
<time>2013-11-22T09:21:13Z</time>
<speed>0.940000</speed>
<extensions>
<speed>0.9</speed>
<temp>0.00</temp>
<bpm>0</bpm>
<rpm>0.00</rpm>
</extensions>
</trkpt>
<trkpt lat="30.691629410" lon="34.926326752">
<ele>657.406250</ele>
<time>2013-11-22T09:21:18Z</time>
<speed>1.250000</speed>
<extensions>
<speed>1.3</speed>
<temp>0.00</temp>
<bpm>0</bpm>
<rpm>0.00</rpm>
</extensions>
</trkpt>
<trkpt lat="30.691593170" lon="34.926376343">
<ele>659.000000</ele>
<time>2013-11-22T09:21:23Z</time>
<speed>1.640000</speed>
<extensions>
<speed>1.6</speed>
<temp>0.00</temp>
<bpm>0</bpm>
<rpm>0.00</rpm>
</extensions>
</trkpt>
<trkpt lat="30.691541672" lon="34.926433563">
<ele>660.140625</ele>
<time>2013-11-22T09:21:28Z</time>
<speed>1.370000</speed>
<extensions>
<speed>1.4</speed>
<temp>0.00</temp>
<bpm>0</bpm>
<rpm>0.00</rpm>
</extensions>
</trkpt>
<trkpt lat="30.691516876" lon="34.926441193">
<ele>660.375000</ele>
<time>2013-11-22T09:21:33Z</time>
<speed>0.040000</speed>
<extensions>
<speed>0.0</speed>
<temp>0.00</temp>
<bpm>0</bpm>
<rpm>0.00</rpm>
</extensions>
</trkpt>
<trkpt lat="30.691474915" lon="34.926467896">
<ele>660.328125</ele>
<time>2013-11-22T09:21:38Z</time>
<speed>1.300000</speed>
<extensions>
<speed>1.3</speed>
<temp>0.00</temp>
<bpm>0</bpm>
<rpm>0.00</rpm>
</extensions>
</trkpt>
<trkpt lat="30.691434860" lon="34.926498413">
<ele>660.187500</ele>
<time>2013-11-22T09:21:43Z</time>
<speed>0.700000</speed>
<extensions>
<speed>0.7</speed>
<temp>0.00</temp>
<bpm>0</bpm>
<rpm>0.00</rpm>
</extensions>
</trkpt>
<trkpt lat="30.691396713" lon="34.926528931">
<ele>660.515625</ele>
<time>2013-11-22T09:21:48Z</time>
<speed>0.930000</speed>
<extensions>
<speed>0.9</speed>
<temp>0.00</temp>
<bpm>0</bpm>
<rpm>0.00</rpm>
</extensions>
</trkpt>
<trkpt lat="30.691349030" lon="34.926567078">
<ele>661.500000</ele>
<time>2013-11-22T09:21:53Z</time>
<speed>1.310000</speed>
<extensions>
<speed>1.3</speed>
<temp>0.00</temp>
<bpm>0</bpm>
<rpm>0.00</rpm>
</extensions>
</trkpt>
<trkpt lat="30.691303253" lon="34.926582336">
<ele>660.453125</ele>
<time>2013-11-22T09:21:58Z</time>
<speed>0.820000</speed>
<extensions>
<speed>0.8</speed>
<temp>0.00</temp>
<bpm>0</bpm>
<rpm>0.00</rpm>
</extensions>
</trkpt>
<trkpt lat="30.691272736" lon="34.926624298">
<ele>660.718750</ele>
<time>2013-11-22T09:22:03Z</time>
<speed>1.120000</speed>
<extensions>
<speed>1.1</speed>
<temp>0.00</temp>
<bpm>0</bpm>
<rpm>0.00</rpm>
</extensions>
</trkpt>
<trkpt lat="30.691238403" lon="34.926651001">
<ele>660.328125</ele>
<time>2013-11-22T09:22:08Z</time>
<speed>1.060000</speed>
<extensions>
<speed>1.1</speed>
<temp>0.00</temp>
<bpm>0</bpm>
<rpm>0.00</rpm>
</extensions>
</trkpt>
<trkpt lat="30.691205978" lon="34.926681519">
<ele>660.437500</ele>
<time>2013-11-22T09:22:13Z</time>
<speed>1.170000</speed>
<extensions>
<speed>1.2</speed>
<temp>0.00</temp>
<bpm>0</bpm>
<rpm>0.00</rpm>
</extensions>
</trkpt>
<trkpt lat="30.691165924" lon="34.926696777">
<ele>660.468750</ele>
<time>2013-11-22T09:22:18Z</time>
<speed>0.880000</speed>
<extensions>
<speed>0.9</speed>
<temp>0.00</temp>
<bpm>0</bpm>
<rpm>0.00</rpm>
</extensions>
</trkpt>
<trkpt lat="30.691120148" lon="34.926727295">
<ele>661.453125</ele>
<time>2013-11-22T09:22:23Z</time>
<speed>1.200000</speed>
<extensions>
<speed>1.2</speed>
<temp>0.00</temp>
<bpm>0</bpm>
<rpm>0.00</rpm>
</extensions>
</trkpt>
<trkpt lat="30.691076279" lon="34.926757813">
<ele>661.359375</ele>
<time>2013-11-22T09:22:28Z</time>
<speed>1.350000</speed>
<extensions>
<speed>1.4</speed>
<temp>0.00</temp>
<bpm>0</bpm>
<rpm>0.00</rpm>
</extensions>
</trkpt>
<trkpt lat="30.691036224" lon="34.926784515">
<ele>661.656250</ele>
<time>2013-11-22T09:22:33Z</time>
<speed>1.100000</speed>
<extensions>
<speed>1.1</speed>
<temp>0.00</temp>
<bpm>0</bpm>
<rpm>0.00</rpm>
</extensions>
</trkpt>
<trkpt lat="30.691028595" lon="34.926792145">
<ele>661.984375</ele>
<time>2013-11-22T09:22:38Z</time>
<speed>0.040000</speed>
<extensions>
<speed>0.0</speed>
<temp>0.00</temp>
<bpm>0</bpm>
<rpm>0.00</rpm>
</extensions>
</trkpt>
<trkpt lat="30.691013336" lon="34.926784515">
<ele>662.390625</ele>
<time>2013-11-22T09:22:43Z</time>
<speed>0.680000</speed>
<extensions>
<speed>0.7</speed>
<temp>0.00</temp>
<bpm>0</bpm>
<rpm>0.00</rpm>
</extensions>
</trkpt>
<trkpt lat="30.690965652" lon="34.926807404">
<ele>662.718750</ele>
<time>2013-11-22T09:22:48Z</time>
<speed>1.720000</speed>
<extensions>
<speed>1.7</speed>
<temp>0.00</temp>
<bpm>0</bpm>
<rpm>0.00</rpm>
</extensions>
</trkpt>
<trkpt lat="30.690887451" lon="34.926845551">
<ele>662.843750</ele>
<time>2013-11-22T09:22:53Z</time>
<speed>1.860000</speed>
<extensions>
<speed>1.9</speed>
<temp>0.00</temp>
<bpm>0</bpm>
<rpm>0.00</rpm>
</extensions>
</trkpt>
<trkpt lat="30.690813065" lon="34.926879883">
<ele>663.031250</ele>
<time>2013-11-22T09:22:58Z</time>
<speed>1.120000</speed>
<extensions>
<speed>1.1</speed>
<temp>0.00</temp>
<bpm>0</bpm>
<rpm>0.00</rpm>
</extensions>
</trkpt>
<trkpt lat="30.690748215" lon="34.926898956">
<ele>663.265625</ele>
<time>2013-11-22T09:23:03Z</time>
<speed>1.490000</speed>
<extensions>
<speed>1.5</speed>
<temp>0.00</temp>
<bpm>0</bpm>
<rpm>0.00</rpm>
</extensions>
</trkpt>
<trkpt lat="30.690681458" lon="34.926925659">
<ele>663.578125</ele>
<time>2013-11-22T09:23:08Z</time>
<speed>1.490000</speed>
<extensions>
<speed>1.5</speed>
<temp>0.00</temp>
<bpm>0</bpm>
<rpm>0.00</rpm>
</extensions>
</trkpt>
<trkpt lat="30.690631866" lon="34.926967621">
<ele>664.406250</ele>
<time>2013-11-22T09:23:13Z</time>
<speed>1.420000</speed>
<extensions>
<speed>1.4</speed>
<temp>0.00</temp>
<bpm>0</bpm>
<rpm>0.00</rpm>
</extensions>
</trkpt>
<trkpt lat="30.690593719" lon="34.927013397">
<ele>665.093750</ele>
<time>2013-11-22T09:23:18Z</time>
<speed>1.320000</speed>
<extensions>
<speed>1.3</speed>
<temp>0.00</temp>
<bpm>0</bpm>
<rpm>0.00</rpm>
</extensions>
</trkpt>
<trkpt lat="30.690542221" lon="34.927040100">
<ele>664.890625</ele>
<time>2013-11-22T09:23:23Z</time>
<speed>1.420000</speed>
<extensions>
<speed>1.4</speed>
<temp>0.00</temp>
<bpm>0</bpm>
<rpm>0.00</rpm>
</extensions>
</trkpt>
<trkpt lat="30.690486908" lon="34.927074432">
<ele>664.906250</ele>
<time>2013-11-22T09:23:28Z</time>
<speed>1.270000</speed>
<extensions>
<speed>1.3</speed>
<temp>0.00</temp>
<bpm>0</bpm>
<rpm>0.00</rpm>
</extensions>
</trkpt>
<trkpt lat="30.690429688" lon="34.927112579">
<ele>664.593750</ele>
<time>2013-11-22T09:23:33Z</time>
<speed>1.270000</speed>
<extensions>
<speed>1.3</speed>
<temp>0.00</temp>
<bpm>0</bpm>
<rpm>0.00</rpm>
</extensions>
</trkpt>
<trkpt lat="30.690389633" lon="34.927150726">
<ele>665.281250</ele>
<time>2013-11-22T09:23:38Z</time>
<speed>1.020000</speed>
<extensions>
<speed>1.0</speed>
<temp>0.00</temp>
<bpm>0</bpm>
<rpm>0.00</rpm>
</extensions>
</trkpt>
<trkpt lat="30.690353394" lon="34.927188873">
<ele>666.093750</ele>
<time>2013-11-22T09:23:43Z</time>
<speed>1.150000</speed>
<extensions>
<speed>1.1</speed>
<temp>0.00</temp>
<bpm>0</bpm>
<rpm>0.00</rpm>
</extensions>
</trkpt>
<trkpt lat="30.690305710" lon="34.927211761">
<ele>666.156250</ele>
<time>2013-11-22T09:23:48Z</time>
<speed>1.370000</speed>
<extensions>
<speed>1.4</speed>
<temp>0.00</temp>
<bpm>0</bpm>
<rpm>0.00</rpm>
</extensions>
</trkpt>
<trkpt lat="30.690238953" lon="34.927238464">
<ele>666.281250</ele>
<time>2013-11-22T09:23:53Z</time>
<speed>1.530000</speed>
<extensions>
<speed>1.5</speed>
<temp>0.00</temp>
<bpm>0</bpm>
<rpm>0.00</rpm>
</extensions>
</trkpt>
<trkpt lat="30.690177917" lon="34.927257538">
<ele>666.906250</ele>
<time>2013-11-22T09:23:58Z</time>
<speed>1.580000</speed>
<extensions>
<speed>1.6</speed>
<temp>0.00</temp>
<bpm>0</bpm>
<rpm>0.00</rpm>
</extensions>
</trkpt>
<trkpt lat="30.690097809" lon="34.927276611">
<ele>666.265625</ele>
<time>2013-11-22T09:24:03Z</time>
<speed>1.800000</speed>
<extensions>
<speed>1.8</speed>
<temp>0.00</temp>
<bpm>0</bpm>
<rpm>0.00</rpm>
</extensions>
</trkpt>
<trkpt lat="30.690006256" lon="34.927314758">
<ele>665.046875</ele>
<time>2013-11-22T09:24:08Z</time>
<speed>3.020000</speed>
<extensions>
<speed>3.0</speed>
<temp>0.00</temp>
<bpm>0</bpm>
<rpm>0.00</rpm>
</extensions>
</trkpt>
<trkpt lat="30.689857483" lon="34.927383423">
<ele>663.093750</ele>
<time>2013-11-22T09:24:13Z</time>
<speed>4.260000</speed>
<extensions>
<speed>4.3</speed>
<temp>0.00</temp>
<bpm>0</bpm>
<rpm>0.00</rpm>
</extensions>
</trkpt>
<trkpt lat="30.689760208" lon="34.927520752">
<ele>663.406250</ele>
<time>2013-11-22T09:24:18Z</time>
<speed>2.240000</speed>
<extensions>
<speed>2.2</speed>
<temp>0.00</temp>
<bpm>0</bpm>
<rpm>0.00</rpm>
</extensions>
</trkpt>
<trkpt lat="30.689699173" lon="34.927581787">
<ele>666.843750</ele>
<time>2013-11-22T09:24:23Z</time>
<speed>2.020000</speed>
<extensions>
<speed>2.0</speed>
<temp>0.00</temp>
<bpm>0</bpm>
<rpm>0.00</rpm>
</extensions>
</trkpt>
<trkpt lat="30.689638138" lon="34.927665710">
<ele>669.250000</ele>
<time>2013-11-22T09:24:28Z</time>
<speed>1.840000</speed>
<extensions>
<speed>1.8</speed>
<temp>0.00</temp>
<bpm>0</bpm>
<rpm>0.00</rpm>
</extensions>
</trkpt>
<trkpt lat="30.689584732" lon="34.927757263">
<ele>671.859375</ele>
<time>2013-11-22T09:24:33Z</time>
<speed>2.070000</speed>
<extensions>
<speed>2.1</speed>
<temp>0.00</temp>
<bpm>0</bpm>
<rpm>0.00</rpm>
</extensions>
</trkpt>
<trkpt lat="30.689544678" lon="34.927864075">
<ele>673.671875</ele>
<time>2013-11-22T09:24:38Z</time>
<speed>1.800000</speed>
<extensions>
<speed>1.8</speed>
<temp>0.00</temp>
<bpm>0</bpm>
<rpm>0.00</rpm>
</extensions>
</trkpt>
<trkpt lat="30.689519882" lon="34.927940369">
<ele>673.734375</ele>
<time>2013-11-22T09:24:43Z</time>
<speed>1.370000</speed>
<extensions>
<speed>1.4</speed>
<temp>0.00</temp>
<bpm>0</bpm>
<rpm>0.00</rpm>
</extensions>
</trkpt>
<trkpt lat="30.689458847" lon="34.928043365">
<ele>673.000000</ele>
<time>2013-11-22T09:24:48Z</time>
<speed>3.560000</speed>
<extensions>
<speed>3.6</speed>
<temp>0.00</temp>
<bpm>0</bpm>
<rpm>0.00</rpm>
</extensions>
</trkpt>
<trkpt lat="30.689298630" lon="34.928169250">
<ele>670.500000</ele>
<time>2013-11-22T09:24:53Z</time>
<speed>4.840000</speed>
<extensions>
<speed>4.8</speed>
<temp>0.00</temp>
<bpm>0</bpm>
<rpm>0.00</rpm>
</extensions>
</trkpt>
<trkpt lat="30.689159393" lon="34.928260803">
<ele>670.656250</ele>
<time>2013-11-22T09:24:58Z</time>
<speed>2.430000</speed>
<extensions>
<speed>2.4</speed>
<temp>0.00</temp>
<bpm>0</bpm>
<rpm>0.00</rpm>
</extensions>
</trkpt>
<trkpt lat="30.689077377" lon="34.928321838">
<ele>669.109375</ele>
<time>2013-11-22T09:25:03Z</time>
<speed>2.030000</speed>
<extensions>
<speed>2.0</speed>
<temp>0.00</temp>
<bpm>0</bpm>
<rpm>0.00</rpm>
</extensions>
</trkpt>
<trkpt lat="30.688995361" lon="34.928379059">
<ele>669.406250</ele>
<time>2013-11-22T09:25:08Z</time>
<speed>2.060000</speed>
<extensions>
<speed>2.1</speed>
<temp>0.00</temp>
<bpm>0</bpm>
<rpm>0.00</rpm>
</extensions>
</trkpt>
<trkpt lat="30.688928604" lon="34.928447723">
<ele>671.093750</ele>
<time>2013-11-22T09:25:13Z</time>
<speed>2.090000</speed>
<extensions>
<speed>2.1</speed>
<temp>0.00</temp>
<bpm>0</bpm>
<rpm>0.00</rpm>
</extensions>
</trkpt>
<trkpt lat="30.688833237" lon="34.928501129">
<ele>671.406250</ele>
<time>2013-11-22T09:25:18Z</time>
<speed>2.420000</speed>
<extensions>
<speed>2.4</speed>
<temp>0.00</temp>
<bpm>0</bpm>
<rpm>0.00</rpm>
</extensions>
</trkpt>
<trkpt lat="30.688777924" lon="34.928554535">
<ele>672.218750</ele>
<time>2013-11-22T09:25:23Z</time>
<speed>1.360000</speed>
<extensions>
<speed>1.4</speed>
<temp>0.00</temp>
<bpm>0</bpm>
<rpm>0.00</rpm>
</extensions>
</trkpt>
<trkpt lat="30.688711166" lon="34.928585052">
<ele>671.359375</ele>
<time>2013-11-22T09:25:28Z</time>
<speed>1.390000</speed>
<extensions>
<speed>1.4</speed>
<temp>0.00</temp>
<bpm>0</bpm>
<rpm>0.00</rpm>
</extensions>
</trkpt>
<trkpt lat="30.688653946" lon="34.928607941">
<ele>670.781250</ele>
<time>2013-11-22T09:25:33Z</time>
<speed>1.210000</speed>
<extensions>
<speed>1.2</speed>
<temp>0.00</temp>
<bpm>0</bpm>
<rpm>0.00</rpm>
</extensions>
</trkpt>
<trkpt lat="30.688606262" lon="34.928619385">
<ele>669.625000</ele>
<time>2013-11-22T09:25:38Z</time>
<speed>1.340000</speed>
<extensions>
<speed>1.3</speed>
<temp>0.00</temp>
<bpm>0</bpm>
<rpm>0.00</rpm>
</extensions>
</trkpt>
<trkpt lat="30.688552856" lon="34.928649902">
<ele>669.781250</ele>
<time>2013-11-22T09:25:43Z</time>
<speed>0.090000</speed>
<extensions>
<speed>0.1</speed>
<temp>0.00</temp>
<bpm>0</bpm>
<rpm>0.00</rpm>
</extensions>
</trkpt>
<trkpt lat="30.688550949" lon="34.928653717">
<ele>670.515625</ele>
<time>2013-11-22T09:25:48Z</time>
<extensions>
<speed>0.0</speed>
<temp>0.00</temp>
<bpm>0</bpm>
<rpm>0.00</rpm>
</extensions>
</trkpt>
<trkpt lat="30.688550949" lon="34.928653717">
<ele>670.546875</ele>
<time>2013-11-22T09:25:53Z</time>
<speed>0.010000</speed>
<extensions>
<speed>0.0</speed>
<temp>0.00</temp>
<bpm>0</bpm>
<rpm>0.00</rpm>
</extensions>
</trkpt>
<trkpt lat="30.688550949" lon="34.928653717">
<ele>670.562500</ele>
<time>2013-11-22T09:25:58Z</time>
<extensions>
<speed>0.0</speed>
<temp>0.00</temp>
<bpm>0</bpm>
<rpm>0.00</rpm>
</extensions>
</trkpt>
<trkpt lat="30.688550949" lon="34.928653717">
<ele>670.562500</ele>
<time>2013-11-22T09:26:03Z</time>
<speed>0.010000</speed>
<extensions>
<speed>0.0</speed>
<temp>0.00</temp>
<bpm>0</bpm>
<rpm>0.00</rpm>
</extensions>
</trkpt>
<trkpt lat="30.688549042" lon="34.928649902">
<ele>670.625000</ele>
<time>2013-11-22T09:26:08Z</time>
<speed>0.390000</speed>
<extensions>
<speed>0.4</speed>
<temp>0.00</temp>
<bpm>0</bpm>
<rpm>0.00</rpm>
</extensions>
</trkpt>
<trkpt lat="30.688545227" lon="34.928653717">
<ele>670.578125</ele>
<time>2013-11-22T09:26:13Z</time>
<extensions>
<speed>0.0</speed>
<temp>0.00</temp>
<bpm>0</bpm>
<rpm>0.00</rpm>
</extensions>
</trkpt>
<trkpt lat="30.688545227" lon="34.928653717">
<ele>670.593750</ele>
<time>2013-11-22T09:26:18Z</time>
<speed>0.020000</speed>
<extensions>
<speed>0.0</speed>
<temp>0.00</temp>
<bpm>0</bpm>
<rpm>0.00</rpm>
</extensions>
</trkpt>
<trkpt lat="30.688547134" lon="34.928649902">
<ele>670.625000</ele>
<time>2013-11-22T09:26:23Z</time>
<speed>0.050000</speed>
<extensions>
<speed>0.1</speed>
<temp>0.00</temp>
<bpm>0</bpm>
<rpm>0.00</rpm>
</extensions>
</trkpt>
<trkpt lat="30.688547134" lon="34.928649902">
<ele>670.640625</ele>
<time>2013-11-22T09:26:28Z</time>
<speed>0.020000</speed>
<extensions>
<speed>0.0</speed>
<temp>0.00</temp>
<bpm>0</bpm>
<rpm>0.00</rpm>
</extensions>
</trkpt>
<trkpt lat="30.688547134" lon="34.928649902">
<ele>670.671875</ele>
<time>2013-11-22T09:26:33Z</time>
<extensions>
<speed>0.0</speed>
<temp>0.00</temp>
<bpm>0</bpm>
<rpm>0.00</rpm>
</extensions>
</trkpt>
<trkpt lat="30.688547134" lon="34.928649902">
<ele>670.687500</ele>
<time>2013-11-22T09:26:38Z</time>
<speed>0.010000</speed>
<extensions>
<speed>0.0</speed>
<temp>0.00</temp>
<bpm>0</bpm>
<rpm>0.00</rpm>
</extensions>
</trkpt>
<trkpt lat="30.688547134" lon="34.928649902">
<ele>670.718750</ele>
<time>2013-11-22T09:26:43Z</time>
<speed>0.040000</speed>
<extensions>
<speed>0.0</speed>
<temp>0.00</temp>
<bpm>0</bpm>
<rpm>0.00</rpm>
</extensions>
</trkpt>
<trkpt lat="30.688547134" lon="34.928653717">
<ele>670.812500</ele>
<time>2013-11-22T09:26:48Z</time>
<speed>0.160000</speed>
<extensions>
<speed>0.2</speed>
<temp>0.00</temp>
<bpm>0</bpm>
<rpm>0.00</rpm>
</extensions>
</trkpt>
<trkpt lat="30.688587189" lon="34.928649902">
<ele>671.265625</ele>
<time>2013-11-22T09:26:53Z</time>
<speed>0.880000</speed>
<extensions>
<speed>0.9</speed>
<temp>0.00</temp>
<bpm>0</bpm>
<rpm>0.00</rpm>
</extensions>
</trkpt>
<trkpt lat="30.688671112" lon="34.928627014">
<ele>671.000000</ele>
<time>2013-11-22T09:26:58Z</time>
<speed>2.990000</speed>
<extensions>
<speed>3.0</speed>
<temp>0.00</temp>
<bpm>0</bpm>
<rpm>0.00</rpm>
</extensions>
</trkpt>
<trkpt lat="30.688806534" lon="34.928585052">
<ele>670.812500</ele>
<time>2013-11-22T09:27:03Z</time>
<speed>2.090000</speed>
<extensions>
<speed>2.1</speed>
<temp>0.00</temp>
<bpm>0</bpm>
<rpm>0.00</rpm>
</extensions>
</trkpt>
<trkpt lat="30.688909531" lon="34.928474426">
<ele>671.812500</ele>
<time>2013-11-22T09:27:08Z</time>
<speed>3.170000</speed>
<extensions>
<speed>3.2</speed>
<temp>0.00</temp>
<bpm>0</bpm>
<rpm>0.00</rpm>
</extensions>
</trkpt>
<trkpt lat="30.689067841" lon="34.928359985">
<ele>670.875000</ele>
<time>2013-11-22T09:27:13Z</time>
<speed>4.720000</speed>
<extensions>
<speed>4.7</speed>
<temp>0.00</temp>
<bpm>0</bpm>
<rpm>0.00</rpm>
</extensions>
</trkpt>
<trkpt lat="30.689228058" lon="34.928230286">
<ele>670.609375</ele>
<time>2013-11-22T09:27:18Z</time>
<speed>3.440000</speed>
<extensions>
<speed>3.4</speed>
<temp>0.00</temp>
<bpm>0</bpm>
<rpm>0.00</rpm>
</extensions>
</trkpt>
<trkpt lat="30.689281464" lon="34.928211212">
<ele>670.640625</ele>
<time>2013-11-22T09:27:23Z</time>
<speed>0.090000</speed>
<extensions>
<speed>0.1</speed>
<temp>0.00</temp>
<bpm>0</bpm>
<rpm>0.00</rpm>
</extensions>
</trkpt>
<trkpt lat="30.689287186" lon="34.928211212">
<ele>671.984375</ele>
<time>2013-11-22T09:27:28Z</time>
<speed>0.010000</speed>
<extensions>
<speed>0.0</speed>
<temp>0.00</temp>
<bpm>0</bpm>
<rpm>0.00</rpm>
</extensions>
</trkpt>
<trkpt lat="30.689291000" lon="34.928215027">
<ele>672.343750</ele>
<time>2013-11-22T09:27:33Z</time>
<speed>0.080000</speed>
<extensions>
<speed>0.1</speed>
<temp>0.00</temp>
<bpm>0</bpm>
<rpm>0.00</rpm>
</extensions>
</trkpt>
<trkpt lat="30.689289093" lon="34.928215027">
<ele>672.109375</ele>
<time>2013-11-22T09:27:38Z</time>
<speed>0.070000</speed>
<extensions>
<speed>0.1</speed>
<temp>0.00</temp>
<bpm>0</bpm>
<rpm>0.00</rpm>
</extensions>
</trkpt>
<trkpt lat="30.689302444" lon="34.928207397">
<ele>672.093750</ele>
<time>2013-11-22T09:27:43Z</time>
<speed>0.060000</speed>
<extensions>
<speed>0.1</speed>
<temp>0.00</temp>
<bpm>0</bpm>
<rpm>0.00</rpm>
</extensions>
</trkpt>
<trkpt lat="30.689300537" lon="34.928222656">
<ele>672.031250</ele>
<time>2013-11-22T09:27:48Z</time>
<speed>0.330000</speed>
<extensions>
<speed>0.3</speed>
<temp>0.00</temp>
<bpm>0</bpm>
<rpm>0.00</rpm>
</extensions>
</trkpt>
<trkpt lat="30.689289093" lon="34.928226471">
<ele>671.562500</ele>
<time>2013-11-22T09:27:53Z</time>
<speed>0.070000</speed>
<extensions>
<speed>0.1</speed>
<temp>0.00</temp>
<bpm>0</bpm>
<rpm>0.00</rpm>
</extensions>
</trkpt>
<trkpt lat="30.689289093" lon="34.928237915">
<ele>671.625000</ele>
<time>2013-11-22T09:27:58Z</time>
<speed>0.020000</speed>
<extensions>
<speed>0.0</speed>
<temp>0.00</temp>
<bpm>0</bpm>
<rpm>0.00</rpm>
</extensions>
</trkpt>
<trkpt lat="30.689277649" lon="34.928230286">
<ele>671.312500</ele>
<time>2013-11-22T09:28:03Z</time>
<speed>0.360000</speed>
<extensions>
<speed>0.4</speed>
<temp>0.00</temp>
<bpm>0</bpm>
<rpm>0.00</rpm>
</extensions>
</trkpt>
<trkpt lat="30.689279556" lon="34.928226471">
<ele>671.390625</ele>
<time>2013-11-22T09:28:08Z</time>
<speed>0.080000</speed>
<extensions>
<speed>0.1</speed>
<temp>0.00</temp>
<bpm>0</bpm>
<rpm>0.00</rpm>
</extensions>
</trkpt>
<trkpt lat="30.689279556" lon="34.928218842">
<ele>671.640625</ele>
<time>2013-11-22T09:28:13Z</time>
<speed>0.030000</speed>
<extensions>
<speed>0.0</speed>
<temp>0.00</temp>
<bpm>0</bpm>
<rpm>0.00</rpm>
</extensions>
</trkpt>
<trkpt lat="30.689302444" lon="34.928203583">
<ele>672.296875</ele>
<time>2013-11-22T09:28:18Z</time>
<speed>1.450000</speed>
<extensions>
<speed>1.4</speed>
<temp>0.00</temp>
<bpm>0</bpm>
<rpm>0.00</rpm>
</extensions>
</trkpt>
<trkpt lat="30.689361572" lon="34.928165436">
<ele>673.406250</ele>
<time>2013-11-22T09:28:23Z</time>
<speed>1.940000</speed>
<extensions>
<speed>1.9</speed>
<temp>0.00</temp>
<bpm>0</bpm>
<rpm>0.00</rpm>
</extensions>
</trkpt>
<trkpt lat="30.689453125" lon="34.928092957">
<ele>674.187500</ele>
<time>2013-11-22T09:28:28Z</time>
<speed>2.170000</speed>
<extensions>
<speed>2.2</speed>
<temp>0.00</temp>
<bpm>0</bpm>
<rpm>0.00</rpm>
</extensions>
</trkpt>
<trkpt lat="30.689512253" lon="34.928035736">
<ele>674.687500</ele>
<time>2013-11-22T09:28:33Z</time>
<speed>1.400000</speed>
<extensions>
<speed>1.4</speed>
<temp>0.00</temp>
<bpm>0</bpm>
<rpm>0.00</rpm>
</extensions>
</trkpt>
<trkpt lat="30.689537048" lon="34.927967072">
<ele>675.484375</ele>
<time>2013-11-22T09:28:38Z</time>
<speed>0.390000</speed>
<extensions>
<speed>0.4</speed>
<temp>0.00</temp>
<bpm>0</bpm>
<rpm>0.00</rpm>
</extensions>
</trkpt>
<trkpt lat="30.689548492" lon="34.927928925">
<ele>676.093750</ele>
<time>2013-11-22T09:28:43Z</time>
<speed>1.180000</speed>
<extensions>
<speed>1.2</speed>
<temp>0.00</temp>
<bpm>0</bpm>
<rpm>0.00</rpm>
</extensions>
</trkpt>
<trkpt lat="30.689573288" lon="34.927856445">
<ele>676.703125</ele>
<time>2013-11-22T09:28:48Z</time>
<speed>1.660000</speed>
<extensions>
<speed>1.7</speed>
<temp>0.00</temp>
<bpm>0</bpm>
<rpm>0.00</rpm>
</extensions>
</trkpt>
<trkpt lat="30.689615250" lon="34.927787781">
<ele>675.859375</ele>
<time>2013-11-22T09:28:53Z</time>
<speed>0.140000</speed>
<extensions>
<speed>0.1</speed>
<temp>0.00</temp>
<bpm>0</bpm>
<rpm>0.00</rpm>
</extensions>
</trkpt>
<trkpt lat="30.689607620" lon="34.927783966">
<ele>676.375000</ele>
<time>2013-11-22T09:28:58Z</time>
<extensions>
<speed>0.0</speed>
<temp>0.00</temp>
<bpm>0</bpm>
<rpm>0.00</rpm>
</extensions>
</trkpt>
<trkpt lat="30.689636230" lon="34.927738190">
<ele>676.187500</ele>
<time>2013-11-22T09:29:03Z</time>
<speed>2.360000</speed>
<extensions>
<speed>2.4</speed>
<temp>0.00</temp>
<bpm>0</bpm>
<rpm>0.00</rpm>
</extensions>
</trkpt>
<trkpt lat="30.689706802" lon="34.927612305">
<ele>674.656250</ele>
<time>2013-11-22T09:29:08Z</time>
<speed>2.880000</speed>
<extensions>
<speed>2.9</speed>
<temp>0.00</temp>
<bpm>0</bpm>
<rpm>0.00</rpm>
</extensions>
</trkpt>
<trkpt lat="30.689819336" lon="34.927482605">
<ele>673.375000</ele>
<time>2013-11-22T09:29:13Z</time>
<speed>4.810000</speed>
<extensions>
<speed>4.8</speed>
<temp>0.00</temp>
<bpm>0</bpm>
<rpm>0.00</rpm>
</extensions>
</trkpt>
<trkpt lat="30.689929962" lon="34.927371979">
<ele>674.109375</ele>
<time>2013-11-22T09:29:18Z</time>
<speed>1.830000</speed>
<extensions>
<speed>1.8</speed>
<temp>0.00</temp>
<bpm>0</bpm>
<rpm>0.00</rpm>
</extensions>
</trkpt>
<trkpt lat="30.690023422" lon="34.927337646">
<ele>674.390625</ele>
<time>2013-11-22T09:29:23Z</time>
<speed>1.590000</speed>
<extensions>
<speed>1.6</speed>
<temp>0.00</temp>
<bpm>0</bpm>
<rpm>0.00</rpm>
</extensions>
</trkpt>
<trkpt lat="30.690099716" lon="34.927299500">
<ele>674.921875</ele>
<time>2013-11-22T09:29:28Z</time>
<speed>1.710000</speed>
<extensions>
<speed>1.7</speed>
<temp>0.00</temp>
<bpm>0</bpm>
<rpm>0.00</rpm>
</extensions>
</trkpt>
<trkpt lat="30.690176010" lon="34.927276611">
<ele>675.046875</ele>
<time>2013-11-22T09:29:33Z</time>
<speed>1.030000</speed>
<extensions>
<speed>1.0</speed>
<temp>0.00</temp>
<bpm>0</bpm>
<rpm>0.00</rpm>
</extensions>
</trkpt>
<trkpt lat="30.690229416" lon="34.927253723">
<ele>675.703125</ele>
<time>2013-11-22T09:29:38Z</time>
<speed>1.600000</speed>
<extensions>
<speed>1.6</speed>
<temp>0.00</temp>
<bpm>0</bpm>
<rpm>0.00</rpm>
</extensions>
</trkpt>
<trkpt lat="30.690334320" lon="34.927242279">
<ele>675.281250</ele>
<time>2013-11-22T09:29:43Z</time>
<speed>2.540000</speed>
<extensions>
<speed>2.5</speed>
<temp>0.00</temp>
<bpm>0</bpm>
<rpm>0.00</rpm>
</extensions>
</trkpt>
<trkpt lat="30.690433502" lon="34.927204132">
<ele>673.078125</ele>
<time>2013-11-22T09:29:48Z</time>
<speed>2.530000</speed>
<extensions>
<speed>2.5</speed>
<temp>0.00</temp>
<bpm>0</bpm>
<rpm>0.00</rpm>
</extensions>
</trkpt>
<trkpt lat="30.690521240" lon="34.927108765">
<ele>671.015625</ele>
<time>2013-11-22T09:29:53Z</time>
<speed>3.070000</speed>
<extensions>
<speed>3.1</speed>
<temp>0.00</temp>
<bpm>0</bpm>
<rpm>0.00</rpm>
</extensions>
</trkpt>
<trkpt lat="30.690601349" lon="34.927066803">
<ele>669.984375</ele>
<time>2013-11-22T09:29:58Z</time>
<speed>2.100000</speed>
<extensions>
<speed>2.1</speed>
<temp>0.00</temp>
<bpm>0</bpm>
<rpm>0.00</rpm>
</extensions>
</trkpt>
<trkpt lat="30.690732956" lon="34.926959991">
<ele>667.812500</ele>
<time>2013-11-22T09:30:03Z</time>
<speed>4.560000</speed>
<extensions>
<speed>4.6</speed>
<temp>0.00</temp>
<bpm>0</bpm>
<rpm>0.00</rpm>
</extensions>
</trkpt>
<trkpt lat="30.690969467" lon="34.926845551">
<ele>665.593750</ele>
<time>2013-11-22T09:30:08Z</time>
<speed>6.270000</speed>
<extensions>
<speed>6.3</speed>
<temp>0.00</temp>
<bpm>0</bpm>
<rpm>0.00</rpm>
</extensions>
</trkpt>
<trkpt lat="30.691196442" lon="34.926727295">
<ele>663.109375</ele>
<time>2013-11-22T09:30:13Z</time>
<speed>5.550000</speed>
<extensions>
<speed>5.5</speed>
<temp>0.00</temp>
<bpm>0</bpm>
<rpm>0.00</rpm>
</extensions>
</trkpt>
<trkpt lat="30.691396713" lon="34.926578522">
<ele>659.296875</ele>
<time>2013-11-22T09:30:18Z</time>
<speed>4.710000</speed>
<extensions>
<speed>4.7</speed>
<temp>0.00</temp>
<bpm>0</bpm>
<rpm>0.00</rpm>
</extensions>
</trkpt>
<trkpt lat="30.691589355" lon="34.926433563">
<ele>655.984375</ele>
<time>2013-11-22T09:30:23Z</time>
<speed>5.230000</speed>
<extensions>
<speed>5.2</speed>
<temp>0.00</temp>
<bpm>0</bpm>
<rpm>0.00</rpm>
</extensions>
</trkpt>
<trkpt lat="30.691781998" lon="34.926239014">
<ele>652.593750</ele>
<time>2013-11-22T09:30:28Z</time>
<speed>7.230000</speed>
<extensions>
<speed>7.2</speed>
<temp>0.00</temp>
<bpm>0</bpm>
<rpm>0.00</rpm>
</extensions>
</trkpt>
<trkpt lat="30.692016602" lon="34.926013947">
<ele>649.046875</ele>
<time>2013-11-22T09:30:33Z</time>
<speed>6.790000</speed>
<extensions>
<speed>6.8</speed>
<temp>0.00</temp>
<bpm>0</bpm>
<rpm>0.00</rpm>
</extensions>
</trkpt>
<trkpt lat="30.692209244" lon="34.925903320">
<ele>647.046875</ele>
<time>2013-11-22T09:30:38Z</time>
<speed>4.180000</speed>
<extensions>
<speed>4.2</speed>
<temp>0.00</temp>
<bpm>0</bpm>
<rpm>0.00</rpm>
</extensions>
</trkpt>
<trkpt lat="30.692266464" lon="34.925712585">
<ele>646.781250</ele>
<time>2013-11-22T09:30:43Z</time>
<speed>3.920000</speed>
<extensions>
<speed>3.9</speed>
<temp>0.00</temp>
<bpm>0</bpm>
<rpm>0.00</rpm>
</extensions>
</trkpt>
<trkpt lat="30.692411423" lon="34.925666809">
<ele>647.000000</ele>
<time>2013-11-22T09:30:48Z</time>
<speed>3.440000</speed>
<extensions>
<speed>3.4</speed>
<temp>0.00</temp>
<bpm>0</bpm>
<rpm>0.00</rpm>
</extensions>
</trkpt>
<trkpt lat="30.692428589" lon="34.925678253">
<ele>649.625000</ele>
<time>2013-11-22T09:30:53Z</time>
<speed>0.040000</speed>
<extensions>
<speed>0.0</speed>
<temp>0.00</temp>
<bpm>0</bpm>
<rpm>0.00</rpm>
</extensions>
</trkpt>
<trkpt lat="30.692472458" lon="34.925693512">
<ele>649.656250</ele>
<time>2013-11-22T09:30:58Z</time>
<speed>3.100000</speed>
<extensions>
<speed>3.1</speed>
<temp>0.00</temp>
<bpm>0</bpm>
<rpm>0.00</rpm>
</extensions>
</trkpt>
<trkpt lat="30.692611694" lon="34.925743103">
<ele>649.593750</ele>
<time>2013-11-22T09:31:03Z</time>
<speed>3.640000</speed>
<extensions>
<speed>3.6</speed>
<temp>0.00</temp>
<bpm>0</bpm>
<rpm>0.00</rpm>
</extensions>
</trkpt>
<trkpt lat="30.692785263" lon="34.925785065">
<ele>648.609375</ele>
<time>2013-11-22T09:31:08Z</time>
<speed>3.700000</speed>
<extensions>
<speed>3.7</speed>
<temp>0.00</temp>
<bpm>0</bpm>
<rpm>0.00</rpm>
</extensions>
</trkpt>
<trkpt lat="30.692941666" lon="34.925834656">
<ele>648.828125</ele>
<time>2013-11-22T09:31:13Z</time>
<speed>3.220000</speed>
<extensions>
<speed>3.2</speed>
<temp>0.00</temp>
<bpm>0</bpm>
<rpm>0.00</rpm>
</extensions>
</trkpt>
<trkpt lat="30.693101883" lon="34.925899506">
<ele>649.328125</ele>
<time>2013-11-22T09:31:18Z</time>
<speed>3.170000</speed>
<extensions>
<speed>3.2</speed>
<temp>0.00</temp>
<bpm>0</bpm>
<rpm>0.00</rpm>
</extensions>
</trkpt>
<trkpt lat="30.693252563" lon="34.925937653">
<ele>649.343750</ele>
<time>2013-11-22T09:31:23Z</time>
<speed>3.980000</speed>
<extensions>
<speed>4.0</speed>
<temp>0.00</temp>
<bpm>0</bpm>
<rpm>0.00</rpm>
</extensions>
</trkpt>
<trkpt lat="30.693410873" lon="34.925998688">
<ele>649.671875</ele>
<time>2013-11-22T09:31:28Z</time>
<speed>3.620000</speed>
<extensions>
<speed>3.6</speed>
<temp>0.00</temp>
<bpm>0</bpm>
<rpm>0.00</rpm>
</extensions>
</trkpt>
<trkpt lat="30.693603516" lon="34.926059723">
<ele>649.296875</ele>
<time>2013-11-22T09:31:33Z</time>
<speed>3.350000</speed>
<extensions>
<speed>3.4</speed>
<temp>0.00</temp>
<bpm>0</bpm>
<rpm>0.00</rpm>
</extensions>
</trkpt>
<trkpt lat="30.693733215" lon="34.926086426">
<ele>650.125000</ele>
<time>2013-11-22T09:31:38Z</time>
<speed>2.960000</speed>
<extensions>
<speed>3.0</speed>
<temp>0.00</temp>
<bpm>0</bpm>
<rpm>0.00</rpm>
</extensions>
</trkpt>
<trkpt lat="30.693872452" lon="34.926120758">
<ele>650.265625</ele>
<time>2013-11-22T09:31:43Z</time>
<speed>2.790000</speed>
<extensions>
<speed>2.8</speed>
<temp>0.00</temp>
<bpm>0</bpm>
<rpm>0.00</rpm>
</extensions>
</trkpt>
<trkpt lat="30.693992615" lon="34.926166534">
<ele>649.890625</ele>
<time>2013-11-22T09:31:48Z</time>
<speed>2.710000</speed>
<extensions>
<speed>2.7</speed>
<temp>0.00</temp>
<bpm>0</bpm>
<rpm>0.00</rpm>
</extensions>
</trkpt>
<trkpt lat="30.694141388" lon="34.926223755">
<ele>650.562500</ele>
<time>2013-11-22T09:31:53Z</time>
<speed>3.650000</speed>
<extensions>
<speed>3.7</speed>
<temp>0.00</temp>
<bpm>0</bpm>
<rpm>0.00</rpm>
</extensions>
</trkpt>
<trkpt lat="30.694316864" lon="34.926265717">
<ele>649.281250</ele>
<time>2013-11-22T09:31:58Z</time>
<speed>4.060000</speed>
<extensions>
<speed>4.1</speed>
<temp>0.00</temp>
<bpm>0</bpm>
<rpm>0.00</rpm>
</extensions>
</trkpt>
<trkpt lat="30.694566727" lon="34.926330566">
<ele>646.656250</ele>
<time>2013-11-22T09:32:03Z</time>
<speed>7.090000</speed>
<extensions>
<speed>7.1</speed>
<temp>0.00</temp>
<bpm>0</bpm>
<rpm>0.00</rpm>
</extensions>
</trkpt>
<trkpt lat="30.694898605" lon="34.926467896">
<ele>644.625000</ele>
<time>2013-11-22T09:32:08Z</time>
<speed>8.660000</speed>
<extensions>
<speed>8.7</speed>
<temp>0.00</temp>
<bpm>0</bpm>
<rpm>0.00</rpm>
</extensions>
</trkpt>
<trkpt lat="30.695280075" lon="34.926670074">
<ele>643.015625</ele>
<time>2013-11-22T09:32:13Z</time>
<speed>9.060000</speed>
<extensions>
<speed>9.1</speed>
<temp>0.00</temp>
<bpm>0</bpm>
<rpm>0.00</rpm>
</extensions>
</trkpt>
<trkpt lat="30.695623398" lon="34.926830292">
<ele>643.984375</ele>
<time>2013-11-22T09:32:18Z</time>
<speed>7.700000</speed>
<extensions>
<speed>7.7</speed>
<temp>0.00</temp>
<bpm>0</bpm>
<rpm>0.00</rpm>
</extensions>
</trkpt>
<trkpt lat="30.695884705" lon="34.926929474">
<ele>647.171875</ele>
<time>2013-11-22T09:32:23Z</time>
<speed>4.440000</speed>
<extensions>
<speed>4.4</speed>
<temp>0.00</temp>
<bpm>0</bpm>
<rpm>0.00</rpm>
</extensions>
</trkpt>
<trkpt lat="30.696044922" lon="34.927001953">
<ele>646.421875</ele>
<time>2013-11-22T09:32:28Z</time>
<speed>4.170000</speed>
<extensions>
<speed>4.2</speed>
<temp>0.00</temp>
<bpm>0</bpm>
<rpm>0.00</rpm>
</extensions>
</trkpt>
<trkpt lat="30.696235657" lon="34.927078247">
<ele>646.812500</ele>
<time>2013-11-22T09:32:33Z</time>
<speed>5.000000</speed>
<extensions>
<speed>5.0</speed>
<temp>0.00</temp>
<bpm>0</bpm>
<rpm>0.00</rpm>
</extensions>
</trkpt>
<trkpt lat="30.696432114" lon="34.927135468">
<ele>646.390625</ele>
<time>2013-11-22T09:32:38Z</time>
<speed>4.690000</speed>
<extensions>
<speed>4.7</speed>
<temp>0.00</temp>
<bpm>0</bpm>
<rpm>0.00</rpm>
</extensions>
</trkpt>
<trkpt lat="30.696630478" lon="34.927188873">
<ele>645.140625</ele>
<time>2013-11-22T09:32:43Z</time>
<speed>4.230000</speed>
<extensions>
<speed>4.2</speed>
<temp>0.00</temp>
<bpm>0</bpm>
<rpm>0.00</rpm>
</extensions>
</trkpt>
<trkpt lat="30.696834564" lon="34.927204132">
<ele>645.328125</ele>
<time>2013-11-22T09:32:48Z</time>
<speed>4.410000</speed>
<extensions>
<speed>4.4</speed>
<temp>0.00</temp>
<bpm>0</bpm>
<rpm>0.00</rpm>
</extensions>
</trkpt>
<trkpt lat="30.697025299" lon="34.927211761">
<ele>646.218750</ele>
<time>2013-11-22T09:32:53Z</time>
<speed>3.460000</speed>
<extensions>
<speed>3.5</speed>
<temp>0.00</temp>
<bpm>0</bpm>
<rpm>0.00</rpm>
</extensions>
</trkpt>
<trkpt lat="30.697198868" lon="34.927207947">
<ele>645.515625</ele>
<time>2013-11-22T09:32:58Z</time>
<speed>4.020000</speed>
<extensions>
<speed>4.0</speed>
<temp>0.00</temp>
<bpm>0</bpm>
<rpm>0.00</rpm>
</extensions>
</trkpt>
<trkpt lat="30.697380066" lon="34.927196503">
<ele>644.906250</ele>
<time>2013-11-22T09:33:03Z</time>
<speed>3.810000</speed>
<extensions>
<speed>3.8</speed>
<temp>0.00</temp>
<bpm>0</bpm>
<rpm>0.00</rpm>
</extensions>
</trkpt>
<trkpt lat="30.697582245" lon="34.927185059">
<ele>644.468750</ele>
<time>2013-11-22T09:33:08Z</time>
<speed>5.040000</speed>
<extensions>
<speed>5.0</speed>
<temp>0.00</temp>
<bpm>0</bpm>
<rpm>0.00</rpm>
</extensions>
</trkpt>
<trkpt lat="30.697841644" lon="34.927135468">
<ele>643.015625</ele>
<time>2013-11-22T09:33:13Z</time>
<speed>6.370000</speed>
<extensions>
<speed>6.4</speed>
<temp>0.00</temp>
<bpm>0</bpm>
<rpm>0.00</rpm>
</extensions>
</trkpt>
<trkpt lat="30.698057175" lon="34.927097321">
<ele>642.265625</ele>
<time>2013-11-22T09:33:18Z</time>
<speed>2.670000</speed>
<extensions>
<speed>2.7</speed>
<temp>0.00</temp>
<bpm>0</bpm>
<rpm>0.00</rpm>
</extensions>
</trkpt>
<trkpt lat="30.698091507" lon="34.927112579">
<ele>640.796875</ele>
<time>2013-11-22T09:33:23Z</time>
<speed>0.250000</speed>
<extensions>
<speed>0.2</speed>
<temp>0.00</temp>
<bpm>0</bpm>
<rpm>0.00</rpm>
</extensions>
</trkpt>
<trkpt lat="30.698083878" lon="34.927112579">
<ele>640.750000</ele>
<time>2013-11-22T09:33:28Z</time>
<speed>0.050000</speed>
<extensions>
<speed>0.1</speed>
<temp>0.00</temp>
<bpm>0</bpm>
<rpm>0.00</rpm>
</extensions>
</trkpt>
<trkpt lat="30.698083878" lon="34.927116394">
<ele>640.593750</ele>
<time>2013-11-22T09:33:33Z</time>
<speed>0.060000</speed>
<extensions>
<speed>0.1</speed>
<temp>0.00</temp>
<bpm>0</bpm>
<rpm>0.00</rpm>
</extensions>
</trkpt>
<trkpt lat="30.698081970" lon="34.927116394">
<ele>640.468750</ele>
<time>2013-11-22T09:33:38Z</time>
<speed>0.020000</speed>
<extensions>
<speed>0.0</speed>
<temp>0.00</temp>
<bpm>0</bpm>
<rpm>0.00</rpm>
</extensions>
</trkpt>
<trkpt lat="30.698089600" lon="34.927124023">
<ele>640.437500</ele>
<time>2013-11-22T09:33:43Z</time>
<speed>1.330000</speed>
<extensions>
<speed>1.3</speed>
<temp>0.00</temp>
<bpm>0</bpm>
<rpm>0.00</rpm>
</extensions>
</trkpt>
<trkpt lat="30.698127747" lon="34.927211761">
<ele>640.968750</ele>
<time>2013-11-22T09:33:48Z</time>
<speed>2.760000</speed>
<extensions>
<speed>2.8</speed>
<temp>0.00</temp>
<bpm>0</bpm>
<rpm>0.00</rpm>
</extensions>
</trkpt>
<trkpt lat="30.698198318" lon="34.927345276">
<ele>640.875000</ele>
<time>2013-11-22T09:33:53Z</time>
<speed>2.860000</speed>
<extensions>
<speed>2.9</speed>
<temp>0.00</temp>
<bpm>0</bpm>
<rpm>0.00</rpm>
</extensions>
</trkpt>
<trkpt lat="30.698287964" lon="34.927459717">
<ele>641.203125</ele>
<time>2013-11-22T09:33:58Z</time>
<speed>3.270000</speed>
<extensions>
<speed>3.3</speed>
<temp>0.00</temp>
<bpm>0</bpm>
<rpm>0.00</rpm>
</extensions>
</trkpt>
<trkpt lat="30.698398590" lon="34.927558899">
<ele>639.843750</ele>
<time>2013-11-22T09:34:03Z</time>
<speed>3.120000</speed>
<extensions>
<speed>3.1</speed>
<temp>0.00</temp>
<bpm>0</bpm>
<rpm>0.00</rpm>
</extensions>
</trkpt>
<trkpt lat="30.698524475" lon="34.927654266">
<ele>639.000000</ele>
<time>2013-11-22T09:34:08Z</time>
<speed>3.750000</speed>
<extensions>
<speed>3.8</speed>
<temp>0.00</temp>
<bpm>0</bpm>
<rpm>0.00</rpm>
</extensions>
</trkpt>
<trkpt lat="30.698648453" lon="34.927814484">
<ele>638.984375</ele>
<time>2013-11-22T09:34:13Z</time>
<speed>3.400000</speed>
<extensions>
<speed>3.4</speed>
<temp>0.00</temp>
<bpm>0</bpm>
<rpm>0.00</rpm>
</extensions>
</trkpt>
<trkpt lat="30.698717117" lon="34.927967072">
<ele>639.984375</ele>
<time>2013-11-22T09:34:18Z</time>
<speed>2.770000</speed>
<extensions>
<speed>2.8</speed>
<temp>0.00</temp>
<bpm>0</bpm>
<rpm>0.00</rpm>
</extensions>
</trkpt>
<trkpt lat="30.698843002" lon="34.928092957">
<ele>638.171875</ele>
<time>2013-11-22T09:34:23Z</time>
<speed>3.800000</speed>
<extensions>
<speed>3.8</speed>
<temp>0.00</temp>
<bpm>0</bpm>
<rpm>0.00</rpm>
</extensions>
</trkpt>
<trkpt lat="30.699008942" lon="34.928173065">
<ele>638.234375</ele>
<time>2013-11-22T09:34:28Z</time>
<speed>4.080000</speed>
<extensions>
<speed>4.1</speed>
<temp>0.00</temp>
<bpm>0</bpm>
<rpm>0.00</rpm>
</extensions>
</trkpt>
<trkpt lat="30.699205399" lon="34.928222656">
<ele>637.796875</ele>
<time>2013-11-22T09:34:33Z</time>
<speed>4.340000</speed>
<extensions>
<speed>4.3</speed>
<temp>0.00</temp>
<bpm>0</bpm>
<rpm>0.00</rpm>
</extensions>
</trkpt>
<trkpt lat="30.699350357" lon="34.928310394">
<ele>639.187500</ele>
<time>2013-11-22T09:34:38Z</time>
<speed>3.470000</speed>
<extensions>
<speed>3.5</speed>
<temp>0.00</temp>
<bpm>0</bpm>
<rpm>0.00</rpm>
</extensions>
</trkpt>
<trkpt lat="30.699436188" lon="34.928436279">
<ele>639.671875</ele>
<time>2013-11-22T09:34:43Z</time>
<speed>2.730000</speed>
<extensions>
<speed>2.7</speed>
<temp>0.00</temp>
<bpm>0</bpm>
<rpm>0.00</rpm>
</extensions>
</trkpt>
<trkpt lat="30.699478149" lon="34.928516388">
<ele>641.078125</ele>
<time>2013-11-22T09:34:48Z</time>
<speed>1.690000</speed>
<extensions>
<speed>1.7</speed>
<temp>0.00</temp>
<bpm>0</bpm>
<rpm>0.00</rpm>
</extensions>
</trkpt>
<trkpt lat="30.699518204" lon="34.928565979">
<ele>641.250000</ele>
<time>2013-11-22T09:34:53Z</time>
<speed>1.700000</speed>
<extensions>
<speed>1.7</speed>
<temp>0.00</temp>
<bpm>0</bpm>
<rpm>0.00</rpm>
</extensions>
</trkpt>
<trkpt lat="30.699586868" lon="34.928676605">
<ele>640.437500</ele>
<time>2013-11-22T09:34:58Z</time>
<speed>2.970000</speed>
<extensions>
<speed>3.0</speed>
<temp>0.00</temp>
<bpm>0</bpm>
<rpm>0.00</rpm>
</extensions>
</trkpt>
<trkpt lat="30.699638367" lon="34.928787231">
<ele>642.015625</ele>
<time>2013-11-22T09:35:03Z</time>
<speed>2.060000</speed>
<extensions>
<speed>2.1</speed>
<temp>0.00</temp>
<bpm>0</bpm>
<rpm>0.00</rpm>
</extensions>
</trkpt>
<trkpt lat="30.699695587" lon="34.928878784">
<ele>641.484375</ele>
<time>2013-11-22T09:35:08Z</time>
<speed>2.280000</speed>
<extensions>
<speed>2.3</speed>
<temp>0.00</temp>
<bpm>0</bpm>
<rpm>0.00</rpm>
</extensions>
</trkpt>
<trkpt lat="30.699712753" lon="34.928974152">
<ele>641.296875</ele>
<time>2013-11-22T09:35:13Z</time>
<speed>2.280000</speed>
<extensions>
<speed>2.3</speed>
<temp>0.00</temp>
<bpm>0</bpm>
<rpm>0.00</rpm>
</extensions>
</trkpt>
<trkpt lat="30.699686050" lon="34.929077148">
<ele>640.656250</ele>
<time>2013-11-22T09:35:18Z</time>
<speed>2.590000</speed>
<extensions>
<speed>2.6</speed>
<temp>0.00</temp>
<bpm>0</bpm>
<rpm>0.00</rpm>
</extensions>
</trkpt>
<trkpt lat="30.699619293" lon="34.929206848">
<ele>639.953125</ele>
<time>2013-11-22T09:35:23Z</time>
<speed>3.510000</speed>
<extensions>
<speed>3.5</speed>
<temp>0.00</temp>
<bpm>0</bpm>
<rpm>0.00</rpm>
</extensions>
</trkpt>
<trkpt lat="30.699537277" lon="34.929344177">
<ele>640.078125</ele>
<time>2013-11-22T09:35:28Z</time>
<speed>2.730000</speed>
<extensions>
<speed>2.7</speed>
<temp>0.00</temp>
<bpm>0</bpm>
<rpm>0.00</rpm>
</extensions>
</trkpt>
<trkpt lat="30.699520111" lon="34.929565430">
<ele>636.703125</ele>
<time>2013-11-22T09:35:33Z</time>
<speed>5.000000</speed>
<extensions>
<speed>5.0</speed>
<temp>0.00</temp>
<bpm>0</bpm>
<rpm>0.00</rpm>
</extensions>
</trkpt>
<trkpt lat="30.699506760" lon="34.929744720">
<ele>636.640625</ele>
<time>2013-11-22T09:35:38Z</time>
<speed>0.980000</speed>
<extensions>
<speed>1.0</speed>
<temp>0.00</temp>
<bpm>0</bpm>
<rpm>0.00</rpm>
</extensions>
</trkpt>
<trkpt lat="30.699728012" lon="34.929763794">
<ele>632.765625</ele>
<time>2013-11-22T09:35:43Z</time>
<speed>3.230000</speed>
<extensions>
<speed>3.2</speed>
<temp>0.00</temp>
<bpm>0</bpm>
<rpm>0.00</rpm>
</extensions>
</trkpt>
<trkpt lat="30.699806213" lon="34.929771423">
<ele>632.406250</ele>
<time>2013-11-22T09:35:48Z</time>
<speed>1.950000</speed>
<extensions>
<speed>1.9</speed>
<temp>0.00</temp>
<bpm>0</bpm>
<rpm>0.00</rpm>
</extensions>
</trkpt>
<trkpt lat="30.699874878" lon="34.929756165">
<ele>634.531250</ele>
<time>2013-11-22T09:35:53Z</time>
<speed>0.350000</speed>
<extensions>
<speed>0.3</speed>
<temp>0.00</temp>
<bpm>0</bpm>
<rpm>0.00</rpm>
</extensions>
</trkpt>
<trkpt lat="30.699876785" lon="34.929748535">
<ele>634.734375</ele>
<time>2013-11-22T09:35:58Z</time>
<speed>0.040000</speed>
<extensions>
<speed>0.0</speed>
<temp>0.00</temp>
<bpm>0</bpm>
<rpm>0.00</rpm>
</extensions>
</trkpt>
<trkpt lat="30.699880600" lon="34.929748535">
<ele>634.656250</ele>
<time>2013-11-22T09:36:03Z</time>
<speed>1.030000</speed>
<extensions>
<speed>1.0</speed>
<temp>0.00</temp>
<bpm>0</bpm>
<rpm>0.00</rpm>
</extensions>
</trkpt>
<trkpt lat="30.699966431" lon="34.929729462">
<ele>635.718750</ele>
<time>2013-11-22T09:36:08Z</time>
<speed>2.720000</speed>
<extensions>
<speed>2.7</speed>
<temp>0.00</temp>
<bpm>0</bpm>
<rpm>0.00</rpm>
</extensions>
</trkpt>
<trkpt lat="30.700096130" lon="34.929687500">
<ele>635.765625</ele>
<time>2013-11-22T09:36:13Z</time>
<speed>3.480000</speed>
<extensions>
<speed>3.5</speed>
<temp>0.00</temp>
<bpm>0</bpm>
<rpm>0.00</rpm>
</extensions>
</trkpt>
<trkpt lat="30.700286865" lon="34.929649353">
<ele>635.921875</ele>
<time>2013-11-22T09:36:18Z</time>
<speed>4.570000</speed>
<extensions>
<speed>4.6</speed>
<temp>0.00</temp>
<bpm>0</bpm>
<rpm>0.00</rpm>
</extensions>
</trkpt>
<trkpt lat="30.700433731" lon="34.929664612">
<ele>635.906250</ele>
<time>2013-11-22T09:36:23Z</time>
<speed>2.740000</speed>
<extensions>
<speed>2.7</speed>
<temp>0.00</temp>
<bpm>0</bpm>
<rpm>0.00</rpm>
</extensions>
</trkpt>
<trkpt lat="30.700551987" lon="34.929698944">
<ele>636.703125</ele>
<time>2013-11-22T09:36:28Z</time>
<speed>3.320000</speed>
<extensions>
<speed>3.3</speed>
<temp>0.00</temp>
<bpm>0</bpm>
<rpm>0.00</rpm>
</extensions>
</trkpt>
<trkpt lat="30.700685501" lon="34.929683685">
<ele>638.859375</ele>
<time>2013-11-22T09:36:33Z</time>
<speed>2.820000</speed>
<extensions>
<speed>2.8</speed>
<temp>0.00</temp>
<bpm>0</bpm>
<rpm>0.00</rpm>
</extensions>
</trkpt>
<trkpt lat="30.700786591" lon="34.929641724">
<ele>639.625000</ele>
<time>2013-11-22T09:36:38Z</time>
<speed>2.620000</speed>
<extensions>
<speed>2.6</speed>
<temp>0.00</temp>
<bpm>0</bpm>
<rpm>0.00</rpm>
</extensions>
</trkpt>
<trkpt lat="30.700910568" lon="34.929569244">
<ele>637.625000</ele>
<time>2013-11-22T09:36:43Z</time>
<speed>2.990000</speed>
<extensions>
<speed>3.0</speed>
<temp>0.00</temp>
<bpm>0</bpm>
<rpm>0.00</rpm>
</extensions>
</trkpt>
<trkpt lat="30.701036453" lon="34.929512024">
<ele>636.890625</ele>
<time>2013-11-22T09:36:48Z</time>
<speed>2.570000</speed>
<extensions>
<speed>2.6</speed>
<temp>0.00</temp>
<bpm>0</bpm>
<rpm>0.00</rpm>
</extensions>
</trkpt>
<trkpt lat="30.701154709" lon="34.929500580">
<ele>637.203125</ele>
<time>2013-11-22T09:36:53Z</time>
<speed>2.800000</speed>
<extensions>
<speed>2.8</speed>
<temp>0.00</temp>
<bpm>0</bpm>
<rpm>0.00</rpm>
</extensions>
</trkpt>
<trkpt lat="30.701253891" lon="34.929462433">
<ele>636.156250</ele>
<time>2013-11-22T09:36:58Z</time>
<speed>1.830000</speed>
<extensions>
<speed>1.8</speed>
<temp>0.00</temp>
<bpm>0</bpm>
<rpm>0.00</rpm>
</extensions>
</trkpt>
<trkpt lat="30.701328278" lon="34.929431915">
<ele>636.843750</ele>
<time>2013-11-22T09:37:03Z</time>
<speed>1.950000</speed>
<extensions>
<speed>1.9</speed>
<temp>0.00</temp>
<bpm>0</bpm>
<rpm>0.00</rpm>
</extensions>
</trkpt>
<trkpt lat="30.701417923" lon="34.929363251">
<ele>636.546875</ele>
<time>2013-11-22T09:37:08Z</time>
<speed>2.450000</speed>
<extensions>
<speed>2.4</speed>
<temp>0.00</temp>
<bpm>0</bpm>
<rpm>0.00</rpm>
</extensions>
</trkpt>
<trkpt lat="30.701469421" lon="34.929248810">
<ele>636.625000</ele>
<time>2013-11-22T09:37:13Z</time>
<speed>2.800000</speed>
<extensions>
<speed>2.8</speed>
<temp>0.00</temp>
<bpm>0</bpm>
<rpm>0.00</rpm>
</extensions>
</trkpt>
<trkpt lat="30.701522827" lon="34.929092407">
<ele>637.265625</ele>
<time>2013-11-22T09:37:18Z</time>
<speed>2.880000</speed>
<extensions>
<speed>2.9</speed>
<temp>0.00</temp>
<bpm>0</bpm>
<rpm>0.00</rpm>
</extensions>
</trkpt>
<trkpt lat="30.701562881" lon="34.928974152">
<ele>637.843750</ele>
<time>2013-11-22T09:37:23Z</time>
<speed>2.450000</speed>
<extensions>
<speed>2.4</speed>
<temp>0.00</temp>
<bpm>0</bpm>
<rpm>0.00</rpm>
</extensions>
</trkpt>
<trkpt lat="30.701644897" lon="34.928878784">
<ele>638.531250</ele>
<time>2013-11-22T09:37:28Z</time>
<speed>2.620000</speed>
<extensions>
<speed>2.6</speed>
<temp>0.00</temp>
<bpm>0</bpm>
<rpm>0.00</rpm>
</extensions>
</trkpt>
<trkpt lat="30.701751709" lon="34.928813934">
<ele>638.546875</ele>
<time>2013-11-22T09:37:33Z</time>
<speed>1.710000</speed>
<extensions>
<speed>1.7</speed>
<temp>0.00</temp>
<bpm>0</bpm>
<rpm>0.00</rpm>
</extensions>
</trkpt>
<trkpt lat="30.701820374" lon="34.928749084">
<ele>638.656250</ele>
<time>2013-11-22T09:37:38Z</time>
<speed>2.050000</speed>
<extensions>
<speed>2.1</speed>
<temp>0.00</temp>
<bpm>0</bpm>
<rpm>0.00</rpm>
</extensions>
</trkpt>
<trkpt lat="30.701906204" lon="34.928661346">
<ele>639.218750</ele>
<time>2013-11-22T09:37:43Z</time>
<speed>2.880000</speed>
<extensions>
<speed>2.9</speed>
<temp>0.00</temp>
<bpm>0</bpm>
<rpm>0.00</rpm>
</extensions>
</trkpt>
<trkpt lat="30.702022552" lon="34.928581238">
<ele>638.953125</ele>
<time>2013-11-22T09:37:48Z</time>
<speed>2.350000</speed>
<extensions>
<speed>2.4</speed>
<temp>0.00</temp>
<bpm>0</bpm>
<rpm>0.00</rpm>
</extensions>
</trkpt>
<trkpt lat="30.702121735" lon="34.928531647">
<ele>639.640625</ele>
<time>2013-11-22T09:37:53Z</time>
<speed>1.900000</speed>
<extensions>
<speed>1.9</speed>
<temp>0.00</temp>
<bpm>0</bpm>
<rpm>0.00</rpm>
</extensions>
</trkpt>
<trkpt lat="30.702217102" lon="34.928482056">
<ele>639.843750</ele>
<time>2013-11-22T09:37:58Z</time>
<speed>2.650000</speed>
<extensions>
<speed>2.6</speed>
<temp>0.00</temp>
<bpm>0</bpm>
<rpm>0.00</rpm>
</extensions>
</trkpt>
<trkpt lat="30.702342987" lon="34.928462982">
<ele>640.562500</ele>
<time>2013-11-22T09:38:03Z</time>
<speed>2.140000</speed>
<extensions>
<speed>2.1</speed>
<temp>0.00</temp>
<bpm>0</bpm>
<rpm>0.00</rpm>
</extensions>
</trkpt>
<trkpt lat="30.702402115" lon="34.928508759">
<ele>641.296875</ele>
<time>2013-11-22T09:38:08Z</time>
<speed>2.270000</speed>
<extensions>
<speed>2.3</speed>
<temp>0.00</temp>
<bpm>0</bpm>
<rpm>0.00</rpm>
</extensions>
</trkpt>
<trkpt lat="30.702472687" lon="34.928550720">
<ele>641.906250</ele>
<time>2013-11-22T09:38:13Z</time>
<speed>1.910000</speed>
<extensions>
<speed>1.9</speed>
<temp>0.00</temp>
<bpm>0</bpm>
<rpm>0.00</rpm>
</extensions>
</trkpt>
<trkpt lat="30.702541351" lon="34.928611755">
<ele>642.671875</ele>
<time>2013-11-22T09:38:18Z</time>
<speed>2.040000</speed>
<extensions>
<speed>2.0</speed>
<temp>0.00</temp>
<bpm>0</bpm>
<rpm>0.00</rpm>
</extensions>
</trkpt>
<trkpt lat="30.702583313" lon="34.928722382">
<ele>645.156250</ele>
<time>2013-11-22T09:38:23Z</time>
<speed>2.370000</speed>
<extensions>
<speed>2.4</speed>
<temp>0.00</temp>
<bpm>0</bpm>
<rpm>0.00</rpm>
</extensions>
</trkpt>
<trkpt lat="30.702629089" lon="34.928825378">
<ele>644.437500</ele>
<time>2013-11-22T09:38:28Z</time>
<speed>1.660000</speed>
<extensions>
<speed>1.7</speed>
<temp>0.00</temp>
<bpm>0</bpm>
<rpm>0.00</rpm>
</extensions>
</trkpt>
<trkpt lat="30.702693939" lon="34.928886414">
<ele>644.468750</ele>
<time>2013-11-22T09:38:33Z</time>
<speed>1.650000</speed>
<extensions>
<speed>1.7</speed>
<temp>0.00</temp>
<bpm>0</bpm>
<rpm>0.00</rpm>
</extensions>
</trkpt>
<trkpt lat="30.702741623" lon="34.928936005">
<ele>643.890625</ele>
<time>2013-11-22T09:38:38Z</time>
<speed>1.650000</speed>
<extensions>
<speed>1.7</speed>
<temp>0.00</temp>
<bpm>0</bpm>
<rpm>0.00</rpm>
</extensions>
</trkpt>
<trkpt lat="30.702800751" lon="34.928997040">
<ele>643.609375</ele>
<time>2013-11-22T09:38:43Z</time>
<speed>1.890000</speed>
<extensions>
<speed>1.9</speed>
<temp>0.00</temp>
<bpm>0</bpm>
<rpm>0.00</rpm>
</extensions>
</trkpt>
<trkpt lat="30.702884674" lon="34.928997040">
<ele>644.921875</ele>
<time>2013-11-22T09:38:48Z</time>
<speed>1.910000</speed>
<extensions>
<speed>1.9</speed>
<temp>0.00</temp>
<bpm>0</bpm>
<rpm>0.00</rpm>
</extensions>
</trkpt>
<trkpt lat="30.702957153" lon="34.928947449">
<ele>646.437500</ele>
<time>2013-11-22T09:38:53Z</time>
<speed>1.880000</speed>
<extensions>
<speed>1.9</speed>
<temp>0.00</temp>
<bpm>0</bpm>
<rpm>0.00</rpm>
</extensions>
</trkpt>
<trkpt lat="30.703035355" lon="34.928947449">
<ele>649.000000</ele>
<time>2013-11-22T09:38:58Z</time>
<speed>2.460000</speed>
<extensions>
<speed>2.5</speed>
<temp>0.00</temp>
<bpm>0</bpm>
<rpm>0.00</rpm>
</extensions>
</trkpt>
<trkpt lat="30.703083038" lon="34.929031372">
<ele>651.609375</ele>
<time>2013-11-22T09:39:03Z</time>
<speed>2.070000</speed>
<extensions>
<speed>2.1</speed>
<temp>0.00</temp>
<bpm>0</bpm>
<rpm>0.00</rpm>
</extensions>
</trkpt>
<trkpt lat="30.703052521" lon="34.929153442">
<ele>653.625000</ele>
<time>2013-11-22T09:39:08Z</time>
<speed>2.930000</speed>
<extensions>
<speed>2.9</speed>
<temp>0.00</temp>
<bpm>0</bpm>
<rpm>0.00</rpm>
</extensions>
</trkpt>
<trkpt lat="30.703002930" lon="34.929309845">
<ele>656.625000</ele>
<time>2013-11-22T09:39:13Z</time>
<speed>2.930000</speed>
<extensions>
<speed>2.9</speed>
<temp>0.00</temp>
<bpm>0</bpm>
<rpm>0.00</rpm>
</extensions>
</trkpt>
<trkpt lat="30.702947617" lon="34.929477692">
<ele>658.578125</ele>
<time>2013-11-22T09:39:18Z</time>
<speed>3.090000</speed>
<extensions>
<speed>3.1</speed>
<temp>0.00</temp>
<bpm>0</bpm>
<rpm>0.00</rpm>
</extensions>
</trkpt>
<trkpt lat="30.702999115" lon="34.929618835">
<ele>659.578125</ele>
<time>2013-11-22T09:39:23Z</time>
<speed>2.520000</speed>
<extensions>
<speed>2.5</speed>
<temp>0.00</temp>
<bpm>0</bpm>
<rpm>0.00</rpm>
</extensions>
</trkpt>
<trkpt lat="30.703100204" lon="34.929668427">
<ele>661.109375</ele>
<time>2013-11-22T09:39:28Z</time>
<speed>2.400000</speed>
<extensions>
<speed>2.4</speed>
<temp>0.00</temp>
<bpm>0</bpm>
<rpm>0.00</rpm>
</extensions>
</trkpt>
<trkpt lat="30.703210831" lon="34.929721832">
<ele>663.640625</ele>
<time>2013-11-22T09:39:33Z</time>
<speed>2.450000</speed>
<extensions>
<speed>2.4</speed>
<temp>0.00</temp>
<bpm>0</bpm>
<rpm>0.00</rpm>
</extensions>
</trkpt>
<trkpt lat="30.703281403" lon="34.929821014">
<ele>665.546875</ele>
<time>2013-11-22T09:39:38Z</time>
<speed>2.180000</speed>
<extensions>
<speed>2.2</speed>
<temp>0.00</temp>
<bpm>0</bpm>
<rpm>0.00</rpm>
</extensions>
</trkpt>
<trkpt lat="30.703350067" lon="34.929901123">
<ele>667.781250</ele>
<time>2013-11-22T09:39:43Z</time>
<speed>2.350000</speed>
<extensions>
<speed>2.4</speed>
<temp>0.00</temp>
<bpm>0</bpm>
<rpm>0.00</rpm>
</extensions>
</trkpt>
<trkpt lat="30.703361511" lon="34.930007935">
<ele>669.953125</ele>
<time>2013-11-22T09:39:48Z</time>
<speed>2.180000</speed>
<extensions>
<speed>2.2</speed>
<temp>0.00</temp>
<bpm>0</bpm>
<rpm>0.00</rpm>
</extensions>
</trkpt>
<trkpt lat="30.703380585" lon="34.930130005">
<ele>671.109375</ele>
<time>2013-11-22T09:39:53Z</time>
<speed>1.320000</speed>
<extensions>
<speed>1.3</speed>
<temp>0.00</temp>
<bpm>0</bpm>
<rpm>0.00</rpm>
</extensions>
</trkpt>
<trkpt lat="30.703395844" lon="34.930141449">
<ele>671.343750</ele>
<time>2013-11-22T09:39:58Z</time>
<extensions>
<speed>0.0</speed>
<temp>0.00</temp>
<bpm>0</bpm>
<rpm>0.00</rpm>
</extensions>
</trkpt>
<trkpt lat="30.703395844" lon="34.930137634">
<ele>671.453125</ele>
<time>2013-11-22T09:40:03Z</time>
<extensions>
<speed>0.0</speed>
<temp>0.00</temp>
<bpm>0</bpm>
<rpm>0.00</rpm>
</extensions>
</trkpt>
<trkpt lat="30.703395844" lon="34.930149078">
<ele>671.656250</ele>
<time>2013-11-22T09:40:08Z</time>
<speed>0.160000</speed>
<extensions>
<speed>0.2</speed>
<temp>0.00</temp>
<bpm>0</bpm>
<rpm>0.00</rpm>
</extensions>
</trkpt>
<trkpt lat="30.703397751" lon="34.930152893">
<ele>671.843750</ele>
<time>2013-11-22T09:40:13Z</time>
<speed>1.250000</speed>
<extensions>
<speed>1.3</speed>
<temp>0.00</temp>
<bpm>0</bpm>
<rpm>0.00</rpm>
</extensions>
</trkpt>
<trkpt lat="30.703399658" lon="34.930213928">
<ele>672.484375</ele>
<time>2013-11-22T09:40:18Z</time>
<speed>1.700000</speed>
<extensions>
<speed>1.7</speed>
<temp>0.00</temp>
<bpm>0</bpm>
<rpm>0.00</rpm>
</extensions>
</trkpt>
<trkpt lat="30.703386307" lon="34.930316925">
<ele>673.531250</ele>
<time>2013-11-22T09:40:23Z</time>
<speed>2.360000</speed>
<extensions>
<speed>2.4</speed>
<temp>0.00</temp>
<bpm>0</bpm>
<rpm>0.00</rpm>
</extensions>
</trkpt>
<trkpt lat="30.703397751" lon="34.930408478">
<ele>674.546875</ele>
<time>2013-11-22T09:40:28Z</time>
<speed>1.410000</speed>
<extensions>
<speed>1.4</speed>
<temp>0.00</temp>
<bpm>0</bpm>
<rpm>0.00</rpm>
</extensions>
</trkpt>
<trkpt lat="30.703445435" lon="34.930480957">
<ele>675.718750</ele>
<time>2013-11-22T09:40:33Z</time>
<speed>2.060000</speed>
<extensions>
<speed>2.1</speed>
<temp>0.00</temp>
<bpm>0</bpm>
<rpm>0.00</rpm>
</extensions>
</trkpt>
<trkpt lat="30.703474045" lon="34.930576324">
<ele>676.828125</ele>
<time>2013-11-22T09:40:38Z</time>
<speed>1.210000</speed>
<extensions>
<speed>1.2</speed>
<temp>0.00</temp>
<bpm>0</bpm>
<rpm>0.00</rpm>
</extensions>
</trkpt>
<trkpt lat="30.703472137" lon="34.930641174">
<ele>678.406250</ele>
<time>2013-11-22T09:40:43Z</time>
<speed>1.550000</speed>
<extensions>
<speed>1.5</speed>
<temp>0.00</temp>
<bpm>0</bpm>
<rpm>0.00</rpm>
</extensions>
</trkpt>
<trkpt lat="30.703449249" lon="34.930709839">
<ele>679.718750</ele>
<time>2013-11-22T09:40:48Z</time>
<speed>1.580000</speed>
<extensions>
<speed>1.6</speed>
<temp>0.00</temp>
<bpm>0</bpm>
<rpm>0.00</rpm>
</extensions>
</trkpt>
<trkpt lat="30.703430176" lon="34.930770874">
<ele>681.656250</ele>
<time>2013-11-22T09:40:53Z</time>
<speed>1.420000</speed>
<extensions>
<speed>1.4</speed>
<temp>0.00</temp>
<bpm>0</bpm>
<rpm>0.00</rpm>
</extensions>
</trkpt>
<trkpt lat="30.703416824" lon="34.930847168">
<ele>682.812500</ele>
<time>2013-11-22T09:40:58Z</time>
<speed>1.520000</speed>
<extensions>
<speed>1.5</speed>
<temp>0.00</temp>
<bpm>0</bpm>
<rpm>0.00</rpm>
</extensions>
</trkpt>
<trkpt lat="30.703411102" lon="34.930912018">
<ele>683.359375</ele>
<time>2013-11-22T09:41:03Z</time>
<speed>1.500000</speed>
<extensions>
<speed>1.5</speed>
<temp>0.00</temp>
<bpm>0</bpm>
<rpm>0.00</rpm>
</extensions>
</trkpt>
<trkpt lat="30.703454971" lon="34.930995941">
<ele>684.296875</ele>
<time>2013-11-22T09:41:08Z</time>
<speed>1.530000</speed>
<extensions>
<speed>1.5</speed>
<temp>0.00</temp>
<bpm>0</bpm>
<rpm>0.00</rpm>
</extensions>
</trkpt>
<trkpt lat="30.703470230" lon="34.931079865">
<ele>685.890625</ele>
<time>2013-11-22T09:41:13Z</time>
<speed>1.650000</speed>
<extensions>
<speed>1.7</speed>
<temp>0.00</temp>
<bpm>0</bpm>
<rpm>0.00</rpm>
</extensions>
</trkpt>
<trkpt lat="30.703504562" lon="34.931167603">
<ele>686.921875</ele>
<time>2013-11-22T09:41:18Z</time>
<speed>1.970000</speed>
<extensions>
<speed>2.0</speed>
<temp>0.00</temp>
<bpm>0</bpm>
<rpm>0.00</rpm>
</extensions>
</trkpt>
<trkpt lat="30.703538895" lon="34.931259155">
<ele>687.078125</ele>
<time>2013-11-22T09:41:23Z</time>
<speed>1.890000</speed>
<extensions>
<speed>1.9</speed>
<temp>0.00</temp>
<bpm>0</bpm>
<rpm>0.00</rpm>
</extensions>
</trkpt>
<trkpt lat="30.703577042" lon="34.931350708">
<ele>686.375000</ele>
<time>2013-11-22T09:41:28Z</time>
<speed>1.540000</speed>
<extensions>
<speed>1.5</speed>
<temp>0.00</temp>
<bpm>0</bpm>
<rpm>0.00</rpm>
</extensions>
</trkpt>
<trkpt lat="30.703525543" lon="34.931388855">
<ele>683.875000</ele>
<time>2013-11-22T09:41:33Z</time>
<speed>1.620000</speed>
<extensions>
<speed>1.6</speed>
<temp>0.00</temp>
<bpm>0</bpm>
<rpm>0.00</rpm>
</extensions>
</trkpt>
<trkpt lat="30.703464508" lon="34.931411743">
<ele>681.687500</ele>
<time>2013-11-22T09:41:38Z</time>
<speed>1.540000</speed>
<extensions>
<speed>1.5</speed>
<temp>0.00</temp>
<bpm>0</bpm>
<rpm>0.00</rpm>
</extensions>
</trkpt>
<trkpt lat="30.703399658" lon="34.931434631">
<ele>680.406250</ele>
<time>2013-11-22T09:41:43Z</time>
<speed>1.230000</speed>
<extensions>
<speed>1.2</speed>
<temp>0.00</temp>
<bpm>0</bpm>
<rpm>0.00</rpm>
</extensions>
</trkpt>
<trkpt lat="30.703338623" lon="34.931446075">
<ele>678.500000</ele>
<time>2013-11-22T09:41:48Z</time>
<speed>1.260000</speed>
<extensions>
<speed>1.3</speed>
<temp>0.00</temp>
<bpm>0</bpm>
<rpm>0.00</rpm>
</extensions>
</trkpt>
<trkpt lat="30.703279495" lon="34.931472778">
<ele>677.359375</ele>
<time>2013-11-22T09:41:53Z</time>
<speed>1.400000</speed>
<extensions>
<speed>1.4</speed>
<temp>0.00</temp>
<bpm>0</bpm>
<rpm>0.00</rpm>
</extensions>
</trkpt>
<trkpt lat="30.703208923" lon="34.931526184">
<ele>676.937500</ele>
<time>2013-11-22T09:41:58Z</time>
<speed>1.790000</speed>
<extensions>
<speed>1.8</speed>
<temp>0.00</temp>
<bpm>0</bpm>
<rpm>0.00</rpm>
</extensions>
</trkpt>
<trkpt lat="30.703155518" lon="34.931583405">
<ele>676.140625</ele>
<time>2013-11-22T09:42:03Z</time>
<speed>1.560000</speed>
<extensions>
<speed>1.6</speed>
<temp>0.00</temp>
<bpm>0</bpm>
<rpm>0.00</rpm>
</extensions>
</trkpt>
<trkpt lat="30.703105927" lon="34.931629181">
<ele>674.390625</ele>
<time>2013-11-22T09:42:08Z</time>
<speed>1.430000</speed>
<extensions>
<speed>1.4</speed>
<temp>0.00</temp>
<bpm>0</bpm>
<rpm>0.00</rpm>
</extensions>
</trkpt>
<trkpt lat="30.703046799" lon="34.931690216">
<ele>673.968750</ele>
<time>2013-11-22T09:42:13Z</time>
<speed>1.710000</speed>
<extensions>
<speed>1.7</speed>
<temp>0.00</temp>
<bpm>0</bpm>
<rpm>0.00</rpm>
</extensions>
</trkpt>
<trkpt lat="30.702997208" lon="34.931751251">
<ele>673.968750</ele>
<time>2013-11-22T09:42:18Z</time>
<speed>1.900000</speed>
<extensions>
<speed>1.9</speed>
<temp>0.00</temp>
<bpm>0</bpm>
<rpm>0.00</rpm>
</extensions>
</trkpt>
<trkpt lat="30.702949524" lon="34.931793213">
<ele>674.546875</ele>
<time>2013-11-22T09:42:23Z</time>
<speed>1.200000</speed>
<extensions>
<speed>1.2</speed>
<temp>0.00</temp>
<bpm>0</bpm>
<rpm>0.00</rpm>
</extensions>
</trkpt>
<trkpt lat="30.702890396" lon="34.931793213">
<ele>675.640625</ele>
<time>2013-11-22T09:42:28Z</time>
<speed>1.460000</speed>
<extensions>
<speed>1.5</speed>
<temp>0.00</temp>
<bpm>0</bpm>
<rpm>0.00</rpm>
</extensions>
</trkpt>
<trkpt lat="30.702804565" lon="34.931777954">
<ele>675.859375</ele>
<time>2013-11-22T09:42:33Z</time>
<speed>1.560000</speed>
<extensions>
<speed>1.6</speed>
<temp>0.00</temp>
<bpm>0</bpm>
<rpm>0.00</rpm>
</extensions>
</trkpt>
<trkpt lat="30.702733994" lon="34.931758881">
<ele>676.296875</ele>
<time>2013-11-22T09:42:38Z</time>
<speed>1.610000</speed>
<extensions>
<speed>1.6</speed>
<temp>0.00</temp>
<bpm>0</bpm>
<rpm>0.00</rpm>
</extensions>
</trkpt>
<trkpt lat="30.702663422" lon="34.931762695">
<ele>677.453125</ele>
<time>2013-11-22T09:42:43Z</time>
<speed>1.410000</speed>
<extensions>
<speed>1.4</speed>
<temp>0.00</temp>
<bpm>0</bpm>
<rpm>0.00</rpm>
</extensions>
</trkpt>
<trkpt lat="30.702613831" lon="34.931800842">
<ele>679.484375</ele>
<time>2013-11-22T09:42:48Z</time>
<speed>1.820000</speed>
<extensions>
<speed>1.8</speed>
<temp>0.00</temp>
<bpm>0</bpm>
<rpm>0.00</rpm>
</extensions>
</trkpt>
<trkpt lat="30.702562332" lon="34.931835175">
<ele>682.312500</ele>
<time>2013-11-22T09:42:53Z</time>
<speed>1.580000</speed>
<extensions>
<speed>1.6</speed>
<temp>0.00</temp>
<bpm>0</bpm>
<rpm>0.00</rpm>
</extensions>
</trkpt>
<trkpt lat="30.702499390" lon="34.931861877">
<ele>683.968750</ele>
<time>2013-11-22T09:42:58Z</time>
<speed>1.790000</speed>
<extensions>
<speed>1.8</speed>
<temp>0.00</temp>
<bpm>0</bpm>
<rpm>0.00</rpm>
</extensions>
</trkpt>
<trkpt lat="30.702434540" lon="34.931846619">
<ele>683.703125</ele>
<time>2013-11-22T09:43:03Z</time>
<speed>1.830000</speed>
<extensions>
<speed>1.8</speed>
<temp>0.00</temp>
<bpm>0</bpm>
<rpm>0.00</rpm>
</extensions>
</trkpt>
<trkpt lat="30.702381134" lon="34.931819916">
<ele>685.125000</ele>
<time>2013-11-22T09:43:08Z</time>
<speed>1.360000</speed>
<extensions>
<speed>1.4</speed>
<temp>0.00</temp>
<bpm>0</bpm>
<rpm>0.00</rpm>
</extensions>
</trkpt>
<trkpt lat="30.702322006" lon="34.931808472">
<ele>685.609375</ele>
<time>2013-11-22T09:43:13Z</time>
<speed>1.170000</speed>
<extensions>
<speed>1.2</speed>
<temp>0.00</temp>
<bpm>0</bpm>
<rpm>0.00</rpm>
</extensions>
</trkpt>
<trkpt lat="30.702259064" lon="34.931800842">
<ele>687.281250</ele>
<time>2013-11-22T09:43:18Z</time>
<speed>1.300000</speed>
<extensions>
<speed>1.3</speed>
<temp>0.00</temp>
<bpm>0</bpm>
<rpm>0.00</rpm>
</extensions>
</trkpt>
<trkpt lat="30.702215195" lon="34.931766510">
<ele>688.765625</ele>
<time>2013-11-22T09:43:23Z</time>
<speed>1.450000</speed>
<extensions>
<speed>1.4</speed>
<temp>0.00</temp>
<bpm>0</bpm>
<rpm>0.00</rpm>
</extensions>
</trkpt>
<trkpt lat="30.702167511" lon="34.931739807">
<ele>689.515625</ele>
<time>2013-11-22T09:43:28Z</time>
<speed>1.370000</speed>
<extensions>
<speed>1.4</speed>
<temp>0.00</temp>
<bpm>0</bpm>
<rpm>0.00</rpm>
</extensions>
</trkpt>
<trkpt lat="30.702110291" lon="34.931770325">
<ele>690.437500</ele>
<time>2013-11-22T09:43:33Z</time>
<speed>0.030000</speed>
<extensions>
<speed>0.0</speed>
<temp>0.00</temp>
<bpm>0</bpm>
<rpm>0.00</rpm>
</extensions>
</trkpt>
<trkpt lat="30.702104568" lon="34.931774139">
<ele>690.484375</ele>
<time>2013-11-22T09:43:38Z</time>
<speed>0.020000</speed>
<extensions>
<speed>0.0</speed>
<temp>0.00</temp>
<bpm>0</bpm>
<rpm>0.00</rpm>
</extensions>
</trkpt>
<trkpt lat="30.702102661" lon="34.931774139">
<ele>690.359375</ele>
<time>2013-11-22T09:43:43Z</time>
<speed>0.240000</speed>
<extensions>
<speed>0.2</speed>
<temp>0.00</temp>
<bpm>0</bpm>
<rpm>0.00</rpm>
</extensions>
</trkpt>
<trkpt lat="30.702039719" lon="34.931800842">
<ele>690.125000</ele>
<time>2013-11-22T09:43:48Z</time>
<speed>2.270000</speed>
<extensions>
<speed>2.3</speed>
<temp>0.00</temp>
<bpm>0</bpm>
<rpm>0.00</rpm>
</extensions>
</trkpt>
<trkpt lat="30.701910019" lon="34.931884766">
<ele>688.921875</ele>
<time>2013-11-22T09:43:53Z</time>
<speed>2.970000</speed>
<extensions>
<speed>3.0</speed>
<temp>0.00</temp>
<bpm>0</bpm>
<rpm>0.00</rpm>
</extensions>
</trkpt>
<trkpt lat="30.701829910" lon="34.931957245">
<ele>688.359375</ele>
<time>2013-11-22T09:43:58Z</time>
<speed>1.530000</speed>
<extensions>
<speed>1.5</speed>
<temp>0.00</temp>
<bpm>0</bpm>
<rpm>0.00</rpm>
</extensions>
</trkpt>
<trkpt lat="30.701761246" lon="34.932003021">
<ele>688.359375</ele>
<time>2013-11-22T09:44:03Z</time>
<speed>1.270000</speed>
<extensions>
<speed>1.3</speed>
<temp>0.00</temp>
<bpm>0</bpm>
<rpm>0.00</rpm>
</extensions>
</trkpt>
<trkpt lat="30.701705933" lon="34.932048798">
<ele>688.953125</ele>
<time>2013-11-22T09:44:08Z</time>
<speed>1.350000</speed>
<extensions>
<speed>1.4</speed>
<temp>0.00</temp>
<bpm>0</bpm>
<rpm>0.00</rpm>
</extensions>
</trkpt>
<trkpt lat="30.701658249" lon="34.932098389">
<ele>688.828125</ele>
<time>2013-11-22T09:44:13Z</time>
<speed>1.390000</speed>
<extensions>
<speed>1.4</speed>
<temp>0.00</temp>
<bpm>0</bpm>
<rpm>0.00</rpm>
</extensions>
</trkpt>
<trkpt lat="30.701597214" lon="34.932151794">
<ele>687.796875</ele>
<time>2013-11-22T09:44:18Z</time>
<speed>1.330000</speed>
<extensions>
<speed>1.3</speed>
<temp>0.00</temp>
<bpm>0</bpm>
<rpm>0.00</rpm>
</extensions>
</trkpt>
<trkpt lat="30.701547623" lon="34.932182312">
<ele>688.406250</ele>
<time>2013-11-22T09:44:23Z</time>
<speed>0.630000</speed>
<extensions>
<speed>0.6</speed>
<temp>0.00</temp>
<bpm>0</bpm>
<rpm>0.00</rpm>
</extensions>
</trkpt>
<trkpt lat="30.701530457" lon="34.932186127">
<ele>690.437500</ele>
<time>2013-11-22T09:44:28Z</time>
<speed>0.260000</speed>
<extensions>
<speed>0.3</speed>
<temp>0.00</temp>
<bpm>0</bpm>
<rpm>0.00</rpm>
</extensions>
</trkpt>
<trkpt lat="30.701503754" lon="34.932197571">
<ele>690.734375</ele>
<time>2013-11-22T09:44:33Z</time>
<speed>0.610000</speed>
<extensions>
<speed>0.6</speed>
<temp>0.00</temp>
<bpm>0</bpm>
<rpm>0.00</rpm>
</extensions>
</trkpt>
<trkpt lat="30.701465607" lon="34.932197571">
<ele>691.656250</ele>
<time>2013-11-22T09:44:38Z</time>
<speed>1.010000</speed>
<extensions>
<speed>1.0</speed>
<temp>0.00</temp>
<bpm>0</bpm>
<rpm>0.00</rpm>
</extensions>
</trkpt>
<trkpt lat="30.701429367" lon="34.932212830">
<ele>691.984375</ele>
<time>2013-11-22T09:44:43Z</time>
<speed>0.570000</speed>
<extensions>
<speed>0.6</speed>
<temp>0.00</temp>
<bpm>0</bpm>
<rpm>0.00</rpm>
</extensions>
</trkpt>
<trkpt lat="30.701398849" lon="34.932209015">
<ele>692.640625</ele>
<time>2013-11-22T09:44:48Z</time>
<speed>0.860000</speed>
<extensions>
<speed>0.9</speed>
<temp>0.00</temp>
<bpm>0</bpm>
<rpm>0.00</rpm>
</extensions>
</trkpt>
<trkpt lat="30.701364517" lon="34.932220459">
<ele>693.937500</ele>
<time>2013-11-22T09:44:53Z</time>
<speed>0.940000</speed>
<extensions>
<speed>0.9</speed>
<temp>0.00</temp>
<bpm>0</bpm>
<rpm>0.00</rpm>
</extensions>
</trkpt>
<trkpt lat="30.701322556" lon="34.932243347">
<ele>694.703125</ele>
<time>2013-11-22T09:44:58Z</time>
<speed>1.060000</speed>
<extensions>
<speed>1.1</speed>
<temp>0.00</temp>
<bpm>0</bpm>
<rpm>0.00</rpm>
</extensions>
</trkpt>
<trkpt lat="30.701288223" lon="34.932262421">
<ele>694.484375</ele>
<time>2013-11-22T09:45:03Z</time>
<speed>0.780000</speed>
<extensions>
<speed>0.8</speed>
<temp>0.00</temp>
<bpm>0</bpm>
<rpm>0.00</rpm>
</extensions>
</trkpt>
<trkpt lat="30.701250076" lon="34.932289124">
<ele>695.187500</ele>
<time>2013-11-22T09:45:08Z</time>
<speed>1.070000</speed>
<extensions>
<speed>1.1</speed>
<temp>0.00</temp>
<bpm>0</bpm>
<rpm>0.00</rpm>
</extensions>
</trkpt>
<trkpt lat="30.701211929" lon="34.932315826">
<ele>695.968750</ele>
<time>2013-11-22T09:45:13Z</time>
<speed>1.040000</speed>
<extensions>
<speed>1.0</speed>
<temp>0.00</temp>
<bpm>0</bpm>
<rpm>0.00</rpm>
</extensions>
</trkpt>
<trkpt lat="30.701171875" lon="34.932327271">
<ele>696.218750</ele>
<time>2013-11-22T09:45:18Z</time>
<speed>1.110000</speed>
<extensions>
<speed>1.1</speed>
<temp>0.00</temp>
<bpm>0</bpm>
<rpm>0.00</rpm>
</extensions>
</trkpt>
<trkpt lat="30.701118469" lon="34.932338715">
<ele>696.484375</ele>
<time>2013-11-22T09:45:23Z</time>
<speed>1.080000</speed>
<extensions>
<speed>1.1</speed>
<temp>0.00</temp>
<bpm>0</bpm>
<rpm>0.00</rpm>
</extensions>
</trkpt>
<trkpt lat="30.701066971" lon="34.932357788">
<ele>697.343750</ele>
<time>2013-11-22T09:45:28Z</time>
<speed>1.230000</speed>
<extensions>
<speed>1.2</speed>
<temp>0.00</temp>
<bpm>0</bpm>
<rpm>0.00</rpm>
</extensions>
</trkpt>
<trkpt lat="30.701026917" lon="34.932369232">
<ele>698.046875</ele>
<time>2013-11-22T09:45:33Z</time>
<speed>0.910000</speed>
<extensions>
<speed>0.9</speed>
<temp>0.00</temp>
<bpm>0</bpm>
<rpm>0.00</rpm>
</extensions>
</trkpt>
<trkpt lat="30.700975418" lon="34.932388306">
<ele>699.062500</ele>
<time>2013-11-22T09:45:38Z</time>
<speed>0.950000</speed>
<extensions>
<speed>1.0</speed>
<temp>0.00</temp>
<bpm>0</bpm>
<rpm>0.00</rpm>
</extensions>
</trkpt>
<trkpt lat="30.700944901" lon="34.932422638">
<ele>699.093750</ele>
<time>2013-11-22T09:45:43Z</time>
<speed>1.130000</speed>
<extensions>
<speed>1.1</speed>
<temp>0.00</temp>
<bpm>0</bpm>
<rpm>0.00</rpm>
</extensions>
</trkpt>
<trkpt lat="30.700931549" lon="34.932418823">
<ele>699.671875</ele>
<time>2013-11-22T09:45:48Z</time>
<speed>0.020000</speed>
<extensions>
<speed>0.0</speed>
<temp>0.00</temp>
<bpm>0</bpm>
<rpm>0.00</rpm>
</extensions>
</trkpt>
<trkpt lat="30.700920105" lon="34.932430267">
<ele>699.703125</ele>
<time>2013-11-22T09:45:53Z</time>
<speed>1.110000</speed>
<extensions>
<speed>1.1</speed>
<temp>0.00</temp>
<bpm>0</bpm>
<rpm>0.00</rpm>
</extensions>
</trkpt>
<trkpt lat="30.700889587" lon="34.932483673">
<ele>699.750000</ele>
<time>2013-11-22T09:45:58Z</time>
<speed>1.130000</speed>
<extensions>
<speed>1.1</speed>
<temp>0.00</temp>
<bpm>0</bpm>
<rpm>0.00</rpm>
</extensions>
</trkpt>
<trkpt lat="30.700866699" lon="34.932525635">
<ele>698.609375</ele>
<time>2013-11-22T09:46:03Z</time>
<speed>1.190000</speed>
<extensions>
<speed>1.2</speed>
<temp>0.00</temp>
<bpm>0</bpm>
<rpm>0.00</rpm>
</extensions>
</trkpt>
<trkpt lat="30.700839996" lon="34.932571411">
<ele>697.890625</ele>
<time>2013-11-22T09:46:08Z</time>
<speed>1.050000</speed>
<extensions>
<speed>1.0</speed>
<temp>0.00</temp>
<bpm>0</bpm>
<rpm>0.00</rpm>
</extensions>
</trkpt>
<trkpt lat="30.700811386" lon="34.932632446">
<ele>698.546875</ele>
<time>2013-11-22T09:46:13Z</time>
<speed>1.180000</speed>
<extensions>
<speed>1.2</speed>
<temp>0.00</temp>
<bpm>0</bpm>
<rpm>0.00</rpm>
</extensions>
</trkpt>
<trkpt lat="30.700786591" lon="34.932689667">
<ele>699.531250</ele>
<time>2013-11-22T09:46:18Z</time>
<speed>1.110000</speed>
<extensions>
<speed>1.1</speed>
<temp>0.00</temp>
<bpm>0</bpm>
<rpm>0.00</rpm>
</extensions>
</trkpt>
<trkpt lat="30.700754166" lon="34.932731628">
<ele>700.421875</ele>
<time>2013-11-22T09:46:23Z</time>
<speed>1.240000</speed>
<extensions>
<speed>1.2</speed>
<temp>0.00</temp>
<bpm>0</bpm>
<rpm>0.00</rpm>
</extensions>
</trkpt>
<trkpt lat="30.700719833" lon="34.932781219">
<ele>701.703125</ele>
<time>2013-11-22T09:46:28Z</time>
<speed>0.830000</speed>
<extensions>
<speed>0.8</speed>
<temp>0.00</temp>
<bpm>0</bpm>
<rpm>0.00</rpm>
</extensions>
</trkpt>
<trkpt lat="30.700681686" lon="34.932823181">
<ele>702.781250</ele>
<time>2013-11-22T09:46:33Z</time>
<speed>0.960000</speed>
<extensions>
<speed>1.0</speed>
<temp>0.00</temp>
<bpm>0</bpm>
<rpm>0.00</rpm>
</extensions>
</trkpt>
<trkpt lat="30.700632095" lon="34.932853699">
<ele>703.359375</ele>
<time>2013-11-22T09:46:38Z</time>
<speed>1.060000</speed>
<extensions>
<speed>1.1</speed>
<temp>0.00</temp>
<bpm>0</bpm>
<rpm>0.00</rpm>
</extensions>
</trkpt>
<trkpt lat="30.700590134" lon="34.932884216">
<ele>705.375000</ele>
<time>2013-11-22T09:46:43Z</time>
<speed>1.120000</speed>
<extensions>
<speed>1.1</speed>
<temp>0.00</temp>
<bpm>0</bpm>
<rpm>0.00</rpm>
</extensions>
</trkpt>
<trkpt lat="30.700544357" lon="34.932914734">
<ele>706.500000</ele>
<time>2013-11-22T09:46:48Z</time>
<speed>1.300000</speed>
<extensions>
<speed>1.3</speed>
<temp>0.00</temp>
<bpm>0</bpm>
<rpm>0.00</rpm>
</extensions>
</trkpt>
<trkpt lat="30.700498581" lon="34.932941437">
<ele>706.140625</ele>
<time>2013-11-22T09:46:53Z</time>
<speed>1.170000</speed>
<extensions>
<speed>1.2</speed>
<temp>0.00</temp>
<bpm>0</bpm>
<rpm>0.00</rpm>
</extensions>
</trkpt>
<trkpt lat="30.700454712" lon="34.932956696">
<ele>705.062500</ele>
<time>2013-11-22T09:46:58Z</time>
<speed>1.310000</speed>
<extensions>
<speed>1.3</speed>
<temp>0.00</temp>
<bpm>0</bpm>
<rpm>0.00</rpm>
</extensions>
</trkpt>
<trkpt lat="30.700405121" lon="34.932987213">
<ele>704.078125</ele>
<time>2013-11-22T09:47:03Z</time>
<speed>1.280000</speed>
<extensions>
<speed>1.3</speed>
<temp>0.00</temp>
<bpm>0</bpm>
<rpm>0.00</rpm>
</extensions>
</trkpt>
<trkpt lat="30.700349808" lon="34.933017731">
<ele>703.812500</ele>
<time>2013-11-22T09:47:08Z</time>
<speed>1.270000</speed>
<extensions>
<speed>1.3</speed>
<temp>0.00</temp>
<bpm>0</bpm>
<rpm>0.00</rpm>
</extensions>
</trkpt>
<trkpt lat="30.700294495" lon="34.933036804">
<ele>703.781250</ele>
<time>2013-11-22T09:47:13Z</time>
<speed>1.270000</speed>
<extensions>
<speed>1.3</speed>
<temp>0.00</temp>
<bpm>0</bpm>
<rpm>0.00</rpm>
</extensions>
</trkpt>
<trkpt lat="30.700237274" lon="34.933067322">
<ele>703.937500</ele>
<time>2013-11-22T09:47:18Z</time>
<speed>1.260000</speed>
<extensions>
<speed>1.3</speed>
<temp>0.00</temp>
<bpm>0</bpm>
<rpm>0.00</rpm>
</extensions>
</trkpt>
<trkpt lat="30.700185776" lon="34.933090210">
<ele>703.609375</ele>
<time>2013-11-22T09:47:23Z</time>
<speed>1.210000</speed>
<extensions>
<speed>1.2</speed>
<temp>0.00</temp>
<bpm>0</bpm>
<rpm>0.00</rpm>
</extensions>
</trkpt>
<trkpt lat="30.700128555" lon="34.933101654">
<ele>704.625000</ele>
<time>2013-11-22T09:47:28Z</time>
<speed>1.180000</speed>
<extensions>
<speed>1.2</speed>
<temp>0.00</temp>
<bpm>0</bpm>
<rpm>0.00</rpm>
</extensions>
</trkpt>
<trkpt lat="30.700073242" lon="34.933101654">
<ele>703.671875</ele>
<time>2013-11-22T09:47:33Z</time>
<speed>1.240000</speed>
<extensions>
<speed>1.2</speed>
<temp>0.00</temp>
<bpm>0</bpm>
<rpm>0.00</rpm>
</extensions>
</trkpt>
<trkpt lat="30.700017929" lon="34.933128357">
<ele>703.953125</ele>
<time>2013-11-22T09:47:38Z</time>
<speed>1.290000</speed>
<extensions>
<speed>1.3</speed>
<temp>0.00</temp>
<bpm>0</bpm>
<rpm>0.00</rpm>
</extensions>
</trkpt>
<trkpt lat="30.699974060" lon="34.933158875">
<ele>704.234375</ele>
<time>2013-11-22T09:47:43Z</time>
<speed>1.430000</speed>
<extensions>
<speed>1.4</speed>
<temp>0.00</temp>
<bpm>0</bpm>
<rpm>0.00</rpm>
</extensions>
</trkpt>
<trkpt lat="30.699916840" lon="34.933177948">
<ele>704.812500</ele>
<time>2013-11-22T09:47:48Z</time>
<speed>1.300000</speed>
<extensions>
<speed>1.3</speed>
<temp>0.00</temp>
<bpm>0</bpm>
<rpm>0.00</rpm>
</extensions>
</trkpt>
<trkpt lat="30.699867249" lon="34.933200836">
<ele>705.484375</ele>
<time>2013-11-22T09:47:53Z</time>
<speed>1.330000</speed>
<extensions>
<speed>1.3</speed>
<temp>0.00</temp>
<bpm>0</bpm>
<rpm>0.00</rpm>
</extensions>
</trkpt>
<trkpt lat="30.699848175" lon="34.933212280">
<ele>705.828125</ele>
<time>2013-11-22T09:47:58Z</time>
<speed>0.040000</speed>
<extensions>
<speed>0.0</speed>
<temp>0.00</temp>
<bpm>0</bpm>
<rpm>0.00</rpm>
</extensions>
</trkpt>
<trkpt lat="30.699848175" lon="34.933212280">
<ele>705.703125</ele>
<time>2013-11-22T09:48:03Z</time>
<speed>0.040000</speed>
<extensions>
<speed>0.0</speed>
<temp>0.00</temp>
<bpm>0</bpm>
<rpm>0.00</rpm>
</extensions>
</trkpt>
<trkpt lat="30.699848175" lon="34.933212280">
<ele>705.750000</ele>
<time>2013-11-22T09:48:08Z</time>
<speed>0.020000</speed>
<extensions>
<speed>0.0</speed>
<temp>0.00</temp>
<bpm>0</bpm>
<rpm>0.00</rpm>
</extensions>
</trkpt>
<trkpt lat="30.699848175" lon="34.933212280">
<ele>705.750000</ele>
<time>2013-11-22T09:48:13Z</time>
<extensions>
<speed>0.0</speed>
<temp>0.00</temp>
<bpm>0</bpm>
<rpm>0.00</rpm>
</extensions>
</trkpt>
<trkpt lat="30.699848175" lon="34.933212280">
<ele>705.765625</ele>
<time>2013-11-22T09:48:18Z</time>
<extensions>
<speed>0.0</speed>
<temp>0.00</temp>
<bpm>0</bpm>
<rpm>0.00</rpm>
</extensions>
</trkpt>
<trkpt lat="30.699848175" lon="34.933212280">
<ele>705.750000</ele>
<time>2013-11-22T09:48:23Z</time>
<extensions>
<speed>0.0</speed>
<temp>0.00</temp>
<bpm>0</bpm>
<rpm>0.00</rpm>
</extensions>
</trkpt>
<trkpt lat="30.699848175" lon="34.933212280">
<ele>705.734375</ele>
<time>2013-11-22T09:48:28Z</time>
<extensions>
<speed>0.0</speed>
<temp>0.00</temp>
<bpm>0</bpm>
<rpm>0.00</rpm>
</extensions>
</trkpt>
<trkpt lat="30.699848175" lon="34.933212280">
<ele>705.734375</ele>
<time>2013-11-22T09:48:33Z</time>
<extensions>
<speed>0.0</speed>
<temp>0.00</temp>
<bpm>0</bpm>
<rpm>0.00</rpm>
</extensions>
</trkpt>
<trkpt lat="30.699848175" lon="34.933212280">
<ele>705.734375</ele>
<time>2013-11-22T09:48:38Z</time>
<extensions>
<speed>0.0</speed>
<temp>0.00</temp>
<bpm>0</bpm>
<rpm>0.00</rpm>
</extensions>
</trkpt>
<trkpt lat="30.699848175" lon="34.933212280">
<ele>705.734375</ele>
<time>2013-11-22T09:48:43Z</time>
<speed>0.010000</speed>
<extensions>
<speed>0.0</speed>
<temp>0.00</temp>
<bpm>0</bpm>
<rpm>0.00</rpm>
</extensions>
</trkpt>
<trkpt lat="30.699848175" lon="34.933212280">
<ele>705.734375</ele>
<time>2013-11-22T09:48:48Z</time>
<extensions>
<speed>0.0</speed>
<temp>0.00</temp>
<bpm>0</bpm>
<rpm>0.00</rpm>
</extensions>
</trkpt>
<trkpt lat="30.699846268" lon="34.933212280">
<ele>705.781250</ele>
<time>2013-11-22T09:48:53Z</time>
<speed>0.850000</speed>
<extensions>
<speed>0.8</speed>
<temp>0.00</temp>
<bpm>0</bpm>
<rpm>0.00</rpm>
</extensions>
</trkpt>
<trkpt lat="30.699785233" lon="34.933250427">
<ele>707.687500</ele>
<time>2013-11-22T09:48:58Z</time>
<speed>1.220000</speed>
<extensions>
<speed>1.2</speed>
<temp>0.00</temp>
<bpm>0</bpm>
<rpm>0.00</rpm>
</extensions>
</trkpt>
<trkpt lat="30.699728012" lon="34.933288574">
<ele>708.203125</ele>
<time>2013-11-22T09:49:03Z</time>
<speed>1.250000</speed>
<extensions>
<speed>1.3</speed>
<temp>0.00</temp>
<bpm>0</bpm>
<rpm>0.00</rpm>
</extensions>
</trkpt>
<trkpt lat="30.699663162" lon="34.933319092">
<ele>708.875000</ele>
<time>2013-11-22T09:49:08Z</time>
<speed>1.270000</speed>
<extensions>
<speed>1.3</speed>
<temp>0.00</temp>
<bpm>0</bpm>
<rpm>0.00</rpm>
</extensions>
</trkpt>
<trkpt lat="30.699609756" lon="34.933353424">
<ele>708.921875</ele>
<time>2013-11-22T09:49:13Z</time>
<speed>1.260000</speed>
<extensions>
<speed>1.3</speed>
<temp>0.00</temp>
<bpm>0</bpm>
<rpm>0.00</rpm>
</extensions>
</trkpt>
<trkpt lat="30.699563980" lon="34.933395386">
<ele>709.000000</ele>
<time>2013-11-22T09:49:18Z</time>
<speed>1.300000</speed>
<extensions>
<speed>1.3</speed>
<temp>0.00</temp>
<bpm>0</bpm>
<rpm>0.00</rpm>
</extensions>
</trkpt>
<trkpt lat="30.699516296" lon="34.933441162">
<ele>708.718750</ele>
<time>2013-11-22T09:49:23Z</time>
<speed>1.300000</speed>
<extensions>
<speed>1.3</speed>
<temp>0.00</temp>
<bpm>0</bpm>
<rpm>0.00</rpm>
</extensions>
</trkpt>
<trkpt lat="30.699466705" lon="34.933486938">
<ele>707.937500</ele>
<time>2013-11-22T09:49:28Z</time>
<speed>1.380000</speed>
<extensions>
<speed>1.4</speed>
<temp>0.00</temp>
<bpm>0</bpm>
<rpm>0.00</rpm>
</extensions>
</trkpt>
<trkpt lat="30.699436188" lon="34.933540344">
<ele>707.546875</ele>
<time>2013-11-22T09:49:33Z</time>
<speed>1.460000</speed>
<extensions>
<speed>1.5</speed>
<temp>0.00</temp>
<bpm>0</bpm>
<rpm>0.00</rpm>
</extensions>
</trkpt>
<trkpt lat="30.699422836" lon="34.933582306">
<ele>708.750000</ele>
<time>2013-11-22T09:49:38Z</time>
<speed>0.180000</speed>
<extensions>
<speed>0.2</speed>
<temp>0.00</temp>
<bpm>0</bpm>
<rpm>0.00</rpm>
</extensions>
</trkpt>
<trkpt lat="30.699405670" lon="34.933616638">
<ele>708.578125</ele>
<time>2013-11-22T09:49:43Z</time>
<speed>1.640000</speed>
<extensions>
<speed>1.6</speed>
<temp>0.00</temp>
<bpm>0</bpm>
<rpm>0.00</rpm>
</extensions>
</trkpt>
<trkpt lat="30.699371338" lon="34.933723450">
<ele>707.718750</ele>
<time>2013-11-22T09:49:48Z</time>
<speed>1.920000</speed>
<extensions>
<speed>1.9</speed>
<temp>0.00</temp>
<bpm>0</bpm>
<rpm>0.00</rpm>
</extensions>
</trkpt>
<trkpt lat="30.699359894" lon="34.933818817">
<ele>707.500000</ele>
<time>2013-11-22T09:49:53Z</time>
<speed>2.120000</speed>
<extensions>
<speed>2.1</speed>
<temp>0.00</temp>
<bpm>0</bpm>
<rpm>0.00</rpm>
</extensions>
</trkpt>
<trkpt lat="30.699359894" lon="34.933906555">
<ele>707.500000</ele>
<time>2013-11-22T09:49:58Z</time>
<speed>1.570000</speed>
<extensions>
<speed>1.6</speed>
<temp>0.00</temp>
<bpm>0</bpm>
<rpm>0.00</rpm>
</extensions>
</trkpt>
<trkpt lat="30.699329376" lon="34.933986664">
<ele>707.062500</ele>
<time>2013-11-22T09:50:03Z</time>
<speed>1.800000</speed>
<extensions>
<speed>1.8</speed>
<temp>0.00</temp>
<bpm>0</bpm>
<rpm>0.00</rpm>
</extensions>
</trkpt>
<trkpt lat="30.699281693" lon="34.934070587">
<ele>705.796875</ele>
<time>2013-11-22T09:50:08Z</time>
<speed>1.980000</speed>
<extensions>
<speed>2.0</speed>
<temp>0.00</temp>
<bpm>0</bpm>
<rpm>0.00</rpm>
</extensions>
</trkpt>
<trkpt lat="30.699213028" lon="34.934146881">
<ele>704.687500</ele>
<time>2013-11-22T09:50:13Z</time>
<speed>2.190000</speed>
<extensions>
<speed>2.2</speed>
<temp>0.00</temp>
<bpm>0</bpm>
<rpm>0.00</rpm>
</extensions>
</trkpt>
<trkpt lat="30.699132919" lon="34.934211731">
<ele>703.640625</ele>
<time>2013-11-22T09:50:18Z</time>
<speed>2.220000</speed>
<extensions>
<speed>2.2</speed>
<temp>0.00</temp>
<bpm>0</bpm>
<rpm>0.00</rpm>
</extensions>
</trkpt>
<trkpt lat="30.699050903" lon="34.934295654">
<ele>702.265625</ele>
<time>2013-11-22T09:50:23Z</time>
<speed>2.510000</speed>
<extensions>
<speed>2.5</speed>
<temp>0.00</temp>
<bpm>0</bpm>
<rpm>0.00</rpm>
</extensions>
</trkpt>
<trkpt lat="30.698980331" lon="34.934391022">
<ele>701.343750</ele>
<time>2013-11-22T09:50:28Z</time>
<speed>2.290000</speed>
<extensions>
<speed>2.3</speed>
<temp>0.00</temp>
<bpm>0</bpm>
<rpm>0.00</rpm>
</extensions>
</trkpt>
<trkpt lat="30.698896408" lon="34.934467316">
<ele>700.171875</ele>
<time>2013-11-22T09:50:33Z</time>
<speed>2.240000</speed>
<extensions>
<speed>2.2</speed>
<temp>0.00</temp>
<bpm>0</bpm>
<rpm>0.00</rpm>
</extensions>
</trkpt>
<trkpt lat="30.698818207" lon="34.934535980">
<ele>699.906250</ele>
<time>2013-11-22T09:50:38Z</time>
<speed>1.900000</speed>
<extensions>
<speed>1.9</speed>
<temp>0.00</temp>
<bpm>0</bpm>
<rpm>0.00</rpm>
</extensions>
</trkpt>
<trkpt lat="30.698747635" lon="34.934619904">
<ele>700.375000</ele>
<time>2013-11-22T09:50:43Z</time>
<speed>2.230000</speed>
<extensions>
<speed>2.2</speed>
<temp>0.00</temp>
<bpm>0</bpm>
<rpm>0.00</rpm>
</extensions>
</trkpt>
<trkpt lat="30.698694229" lon="34.934719086">
<ele>699.109375</ele>
<time>2013-11-22T09:50:48Z</time>
<speed>2.520000</speed>
<extensions>
<speed>2.5</speed>
<temp>0.00</temp>
<bpm>0</bpm>
<rpm>0.00</rpm>
</extensions>
</trkpt>
<trkpt lat="30.698633194" lon="34.934810638">
<ele>698.656250</ele>
<time>2013-11-22T09:50:53Z</time>
<speed>1.780000</speed>
<extensions>
<speed>1.8</speed>
<temp>0.00</temp>
<bpm>0</bpm>
<rpm>0.00</rpm>
</extensions>
</trkpt>
<trkpt lat="30.698566437" lon="34.934894562">
<ele>698.390625</ele>
<time>2013-11-22T09:50:58Z</time>
<speed>2.620000</speed>
<extensions>
<speed>2.6</speed>
<temp>0.00</temp>
<bpm>0</bpm>
<rpm>0.00</rpm>
</extensions>
</trkpt>
<trkpt lat="30.698455811" lon="34.934970856">
<ele>698.718750</ele>
<time>2013-11-22T09:51:03Z</time>
<speed>2.550000</speed>
<extensions>
<speed>2.6</speed>
<temp>0.00</temp>
<bpm>0</bpm>
<rpm>0.00</rpm>
</extensions>
</trkpt>
<trkpt lat="30.698343277" lon="34.935024261">
<ele>700.031250</ele>
<time>2013-11-22T09:51:08Z</time>
<speed>2.690000</speed>
<extensions>
<speed>2.7</speed>
<temp>0.00</temp>
<bpm>0</bpm>
<rpm>0.00</rpm>
</extensions>
</trkpt>
<trkpt lat="30.698280334" lon="34.935119629">
<ele>699.546875</ele>
<time>2013-11-22T09:51:13Z</time>
<speed>1.640000</speed>
<extensions>
<speed>1.6</speed>
<temp>0.00</temp>
<bpm>0</bpm>
<rpm>0.00</rpm>
</extensions>
</trkpt>
<trkpt lat="30.698225021" lon="34.935199738">
<ele>699.453125</ele>
<time>2013-11-22T09:51:18Z</time>
<speed>2.230000</speed>
<extensions>
<speed>2.2</speed>
<temp>0.00</temp>
<bpm>0</bpm>
<rpm>0.00</rpm>
</extensions>
</trkpt>
<trkpt lat="30.698135376" lon="34.935268402">
<ele>699.437500</ele>
<time>2013-11-22T09:51:23Z</time>
<speed>2.510000</speed>
<extensions>
<speed>2.5</speed>
<temp>0.00</temp>
<bpm>0</bpm>
<rpm>0.00</rpm>
</extensions>
</trkpt>
<trkpt lat="30.698045731" lon="34.935356140">
<ele>699.437500</ele>
<time>2013-11-22T09:51:28Z</time>
<speed>2.270000</speed>
<extensions>
<speed>2.3</speed>
<temp>0.00</temp>
<bpm>0</bpm>
<rpm>0.00</rpm>
</extensions>
</trkpt>
<trkpt lat="30.697969437" lon="34.935436249">
<ele>700.656250</ele>
<time>2013-11-22T09:51:33Z</time>
<speed>2.000000</speed>
<extensions>
<speed>2.0</speed>
<temp>0.00</temp>
<bpm>0</bpm>
<rpm>0.00</rpm>
</extensions>
</trkpt>
<trkpt lat="30.697891235" lon="34.935485840">
<ele>701.750000</ele>
<time>2013-11-22T09:51:38Z</time>
<speed>2.020000</speed>
<extensions>
<speed>2.0</speed>
<temp>0.00</temp>
<bpm>0</bpm>
<rpm>0.00</rpm>
</extensions>
</trkpt>
<trkpt lat="30.697809219" lon="34.935523987">
<ele>701.609375</ele>
<time>2013-11-22T09:51:43Z</time>
<speed>1.780000</speed>
<extensions>
<speed>1.8</speed>
<temp>0.00</temp>
<bpm>0</bpm>
<rpm>0.00</rpm>
</extensions>
</trkpt>
<trkpt lat="30.697731018" lon="34.935554504">
<ele>701.671875</ele>
<time>2013-11-22T09:51:48Z</time>
<speed>1.680000</speed>
<extensions>
<speed>1.7</speed>
<temp>0.00</temp>
<bpm>0</bpm>
<rpm>0.00</rpm>
</extensions>
</trkpt>
<trkpt lat="30.697664261" lon="34.935596466">
<ele>702.156250</ele>
<time>2013-11-22T09:51:53Z</time>
<speed>1.770000</speed>
<extensions>
<speed>1.8</speed>
<temp>0.00</temp>
<bpm>0</bpm>
<rpm>0.00</rpm>
</extensions>
</trkpt>
<trkpt lat="30.697587967" lon="34.935657501">
<ele>702.359375</ele>
<time>2013-11-22T09:51:58Z</time>
<speed>2.450000</speed>
<extensions>
<speed>2.4</speed>
<temp>0.00</temp>
<bpm>0</bpm>
<rpm>0.00</rpm>
</extensions>
</trkpt>
<trkpt lat="30.697502136" lon="34.935718536">
<ele>702.234375</ele>
<time>2013-11-22T09:52:03Z</time>
<speed>2.210000</speed>
<extensions>
<speed>2.2</speed>
<temp>0.00</temp>
<bpm>0</bpm>
<rpm>0.00</rpm>
</extensions>
</trkpt>
<trkpt lat="30.697389603" lon="34.935779572">
<ele>702.156250</ele>
<time>2013-11-22T09:52:08Z</time>
<speed>2.640000</speed>
<extensions>
<speed>2.6</speed>
<temp>0.00</temp>
<bpm>0</bpm>
<rpm>0.00</rpm>
</extensions>
</trkpt>
<trkpt lat="30.697309494" lon="34.935874939">
<ele>703.593750</ele>
<time>2013-11-22T09:52:13Z</time>
<speed>2.960000</speed>
<extensions>
<speed>3.0</speed>
<temp>0.00</temp>
<bpm>0</bpm>
<rpm>0.00</rpm>
</extensions>
</trkpt>
<trkpt lat="30.697254181" lon="34.935989380">
<ele>704.890625</ele>
<time>2013-11-22T09:52:18Z</time>
<speed>2.540000</speed>
<extensions>
<speed>2.5</speed>
<temp>0.00</temp>
<bpm>0</bpm>
<rpm>0.00</rpm>
</extensions>
</trkpt>
<trkpt lat="30.697238922" lon="34.936103821">
<ele>706.468750</ele>
<time>2013-11-22T09:52:23Z</time>
<speed>1.990000</speed>
<extensions>
<speed>2.0</speed>
<temp>0.00</temp>
<bpm>0</bpm>
<rpm>0.00</rpm>
</extensions>
</trkpt>
<trkpt lat="30.697254181" lon="34.936222076">
<ele>709.578125</ele>
<time>2013-11-22T09:52:28Z</time>
<speed>2.550000</speed>
<extensions>
<speed>2.6</speed>
<temp>0.00</temp>
<bpm>0</bpm>
<rpm>0.00</rpm>
</extensions>
</trkpt>
<trkpt lat="30.697271347" lon="34.936351776">
<ele>711.406250</ele>
<time>2013-11-22T09:52:33Z</time>
<speed>2.300000</speed>
<extensions>
<speed>2.3</speed>
<temp>0.00</temp>
<bpm>0</bpm>
<rpm>0.00</rpm>
</extensions>
</trkpt>
<trkpt lat="30.697246552" lon="34.936477661">
<ele>711.328125</ele>
<time>2013-11-22T09:52:38Z</time>
<speed>2.490000</speed>
<extensions>
<speed>2.5</speed>
<temp>0.00</temp>
<bpm>0</bpm>
<rpm>0.00</rpm>
</extensions>
</trkpt>
<trkpt lat="30.697174072" lon="34.936569214">
<ele>710.453125</ele>
<time>2013-11-22T09:52:43Z</time>
<speed>2.410000</speed>
<extensions>
<speed>2.4</speed>
<temp>0.00</temp>
<bpm>0</bpm>
<rpm>0.00</rpm>
</extensions>
</trkpt>
<trkpt lat="30.697097778" lon="34.936649323">
<ele>710.546875</ele>
<time>2013-11-22T09:52:48Z</time>
<speed>1.990000</speed>
<extensions>
<speed>2.0</speed>
<temp>0.00</temp>
<bpm>0</bpm>
<rpm>0.00</rpm>
</extensions>
</trkpt>
<trkpt lat="30.697008133" lon="34.936687469">
<ele>710.703125</ele>
<time>2013-11-22T09:52:53Z</time>
<speed>1.920000</speed>
<extensions>
<speed>1.9</speed>
<temp>0.00</temp>
<bpm>0</bpm>
<rpm>0.00</rpm>
</extensions>
</trkpt>
<trkpt lat="30.696929932" lon="34.936714172">
<ele>709.765625</ele>
<time>2013-11-22T09:52:58Z</time>
<speed>1.530000</speed>
<extensions>
<speed>1.5</speed>
<temp>0.00</temp>
<bpm>0</bpm>
<rpm>0.00</rpm>
</extensions>
</trkpt>
<trkpt lat="30.696886063" lon="34.936744690">
<ele>709.953125</ele>
<time>2013-11-22T09:53:03Z</time>
<speed>1.600000</speed>
<extensions>
<speed>1.6</speed>
<temp>0.00</temp>
<bpm>0</bpm>
<rpm>0.00</rpm>
</extensions>
</trkpt>
<trkpt lat="30.696819305" lon="34.936817169">
<ele>709.890625</ele>
<time>2013-11-22T09:53:08Z</time>
<speed>2.220000</speed>
<extensions>
<speed>2.2</speed>
<temp>0.00</temp>
<bpm>0</bpm>
<rpm>0.00</rpm>
</extensions>
</trkpt>
<trkpt lat="30.696752548" lon="34.936901093">
<ele>709.375000</ele>
<time>2013-11-22T09:53:13Z</time>
<speed>1.870000</speed>
<extensions>
<speed>1.9</speed>
<temp>0.00</temp>
<bpm>0</bpm>
<rpm>0.00</rpm>
</extensions>
</trkpt>
<trkpt lat="30.696699142" lon="34.936962128">
<ele>709.703125</ele>
<time>2013-11-22T09:53:18Z</time>
<speed>1.770000</speed>
<extensions>
<speed>1.8</speed>
<temp>0.00</temp>
<bpm>0</bpm>
<rpm>0.00</rpm>
</extensions>
</trkpt>
<trkpt lat="30.696624756" lon="34.937019348">
<ele>709.953125</ele>
<time>2013-11-22T09:53:23Z</time>
<speed>1.480000</speed>
<extensions>
<speed>1.5</speed>
<temp>0.00</temp>
<bpm>0</bpm>
<rpm>0.00</rpm>
</extensions>
</trkpt>
<trkpt lat="30.696582794" lon="34.937065125">
<ele>708.625000</ele>
<time>2013-11-22T09:53:28Z</time>
<speed>1.570000</speed>
<extensions>
<speed>1.6</speed>
<temp>0.00</temp>
<bpm>0</bpm>
<rpm>0.00</rpm>
</extensions>
</trkpt>
<trkpt lat="30.696527481" lon="34.937129974">
<ele>707.828125</ele>
<time>2013-11-22T09:53:33Z</time>
<speed>1.690000</speed>
<extensions>
<speed>1.7</speed>
<temp>0.00</temp>
<bpm>0</bpm>
<rpm>0.00</rpm>
</extensions>
</trkpt>
<trkpt lat="30.696485519" lon="34.937202454">
<ele>708.437500</ele>
<time>2013-11-22T09:53:38Z</time>
<speed>1.660000</speed>
<extensions>
<speed>1.7</speed>
<temp>0.00</temp>
<bpm>0</bpm>
<rpm>0.00</rpm>
</extensions>
</trkpt>
<trkpt lat="30.696449280" lon="34.937278748">
<ele>708.796875</ele>
<time>2013-11-22T09:53:43Z</time>
<speed>1.650000</speed>
<extensions>
<speed>1.7</speed>
<temp>0.00</temp>
<bpm>0</bpm>
<rpm>0.00</rpm>
</extensions>
</trkpt>
<trkpt lat="30.696414948" lon="34.937347412">
<ele>709.359375</ele>
<time>2013-11-22T09:53:48Z</time>
<speed>1.410000</speed>
<extensions>
<speed>1.4</speed>
<temp>0.00</temp>
<bpm>0</bpm>
<rpm>0.00</rpm>
</extensions>
</trkpt>
<trkpt lat="30.696376801" lon="34.937408447">
<ele>710.296875</ele>
<time>2013-11-22T09:53:53Z</time>
<speed>1.790000</speed>
<extensions>
<speed>1.8</speed>
<temp>0.00</temp>
<bpm>0</bpm>
<rpm>0.00</rpm>
</extensions>
</trkpt>
<trkpt lat="30.696344376" lon="34.937492371">
<ele>710.046875</ele>
<time>2013-11-22T09:53:58Z</time>
<speed>1.970000</speed>
<extensions>
<speed>2.0</speed>
<temp>0.00</temp>
<bpm>0</bpm>
<rpm>0.00</rpm>
</extensions>
</trkpt>
<trkpt lat="30.696275711" lon="34.937576294">
<ele>710.468750</ele>
<time>2013-11-22T09:54:03Z</time>
<speed>2.190000</speed>
<extensions>
<speed>2.2</speed>
<temp>0.00</temp>
<bpm>0</bpm>
<rpm>0.00</rpm>
</extensions>
</trkpt>
<trkpt lat="30.696203232" lon="34.937664032">
<ele>710.718750</ele>
<time>2013-11-22T09:54:08Z</time>
<speed>2.440000</speed>
<extensions>
<speed>2.4</speed>
<temp>0.00</temp>
<bpm>0</bpm>
<rpm>0.00</rpm>
</extensions>
</trkpt>
<trkpt lat="30.696109772" lon="34.937759399">
<ele>711.062500</ele>
<time>2013-11-22T09:54:13Z</time>
<speed>2.510000</speed>
<extensions>
<speed>2.5</speed>
<temp>0.00</temp>
<bpm>0</bpm>
<rpm>0.00</rpm>
</extensions>
</trkpt>
<trkpt lat="30.696029663" lon="34.937847137">
<ele>711.937500</ele>
<time>2013-11-22T09:54:18Z</time>
<speed>2.460000</speed>
<extensions>
<speed>2.5</speed>
<temp>0.00</temp>
<bpm>0</bpm>
<rpm>0.00</rpm>
</extensions>
</trkpt>
<trkpt lat="30.695943832" lon="34.937927246">
<ele>711.671875</ele>
<time>2013-11-22T09:54:23Z</time>
<speed>2.320000</speed>
<extensions>
<speed>2.3</speed>
<temp>0.00</temp>
<bpm>0</bpm>
<rpm>0.00</rpm>
</extensions>
</trkpt>
<trkpt lat="30.695861816" lon="34.937999725">
<ele>712.531250</ele>
<time>2013-11-22T09:54:28Z</time>
<speed>2.120000</speed>
<extensions>
<speed>2.1</speed>
<temp>0.00</temp>
<bpm>0</bpm>
<rpm>0.00</rpm>
</extensions>
</trkpt>
<trkpt lat="30.695795059" lon="34.938056946">
<ele>712.734375</ele>
<time>2013-11-22T09:54:33Z</time>
<speed>1.680000</speed>
<extensions>
<speed>1.7</speed>
<temp>0.00</temp>
<bpm>0</bpm>
<rpm>0.00</rpm>
</extensions>
</trkpt>
<trkpt lat="30.695745468" lon="34.938102722">
<ele>712.484375</ele>
<time>2013-11-22T09:54:38Z</time>
<speed>1.750000</speed>
<extensions>
<speed>1.8</speed>
<temp>0.00</temp>
<bpm>0</bpm>
<rpm>0.00</rpm>
</extensions>
</trkpt>
<trkpt lat="30.695676804" lon="34.938163757">
<ele>712.671875</ele>
<time>2013-11-22T09:54:43Z</time>
<speed>2.230000</speed>
<extensions>
<speed>2.2</speed>
<temp>0.00</temp>
<bpm>0</bpm>
<rpm>0.00</rpm>
</extensions>
</trkpt>
<trkpt lat="30.695590973" lon="34.938236237">
<ele>712.218750</ele>
<time>2013-11-22T09:54:48Z</time>
<speed>2.310000</speed>
<extensions>
<speed>2.3</speed>
<temp>0.00</temp>
<bpm>0</bpm>
<rpm>0.00</rpm>
</extensions>
</trkpt>
<trkpt lat="30.695531845" lon="34.938312531">
<ele>712.796875</ele>
<time>2013-11-22T09:54:53Z</time>
<speed>1.930000</speed>
<extensions>
<speed>1.9</speed>
<temp>0.00</temp>
<bpm>0</bpm>
<rpm>0.00</rpm>
</extensions>
</trkpt>
<trkpt lat="30.695447922" lon="34.938373566">
<ele>714.203125</ele>
<time>2013-11-22T09:54:58Z</time>
<speed>1.960000</speed>
<extensions>
<speed>2.0</speed>
<temp>0.00</temp>
<bpm>0</bpm>
<rpm>0.00</rpm>
</extensions>
</trkpt>
<trkpt lat="30.695369720" lon="34.938434601">
<ele>714.875000</ele>
<time>2013-11-22T09:55:03Z</time>
<speed>1.910000</speed>
<extensions>
<speed>1.9</speed>
<temp>0.00</temp>
<bpm>0</bpm>
<rpm>0.00</rpm>
</extensions>
</trkpt>
<trkpt lat="30.695304871" lon="34.938484192">
<ele>714.656250</ele>
<time>2013-11-22T09:55:08Z</time>
<speed>1.730000</speed>
<extensions>
<speed>1.7</speed>
<temp>0.00</temp>
<bpm>0</bpm>
<rpm>0.00</rpm>
</extensions>
</trkpt>
<trkpt lat="30.695240021" lon="34.938526154">
<ele>714.859375</ele>
<time>2013-11-22T09:55:13Z</time>
<speed>1.830000</speed>
<extensions>
<speed>1.8</speed>
<temp>0.00</temp>
<bpm>0</bpm>
<rpm>0.00</rpm>
</extensions>
</trkpt>
<trkpt lat="30.695177078" lon="34.938579559">
<ele>714.734375</ele>
<time>2013-11-22T09:55:18Z</time>
<speed>1.730000</speed>
<extensions>
<speed>1.7</speed>
<temp>0.00</temp>
<bpm>0</bpm>
<rpm>0.00</rpm>
</extensions>
</trkpt>
<trkpt lat="30.695104599" lon="34.938617706">
<ele>715.078125</ele>
<time>2013-11-22T09:55:23Z</time>
<speed>1.890000</speed>
<extensions>
<speed>1.9</speed>
<temp>0.00</temp>
<bpm>0</bpm>
<rpm>0.00</rpm>
</extensions>
</trkpt>
<trkpt lat="30.695032120" lon="34.938678741">
<ele>715.078125</ele>
<time>2013-11-22T09:55:28Z</time>
<speed>1.760000</speed>
<extensions>
<speed>1.8</speed>
<temp>0.00</temp>
<bpm>0</bpm>
<rpm>0.00</rpm>
</extensions>
</trkpt>
<trkpt lat="30.694969177" lon="34.938728333">
<ele>716.093750</ele>
<time>2013-11-22T09:55:33Z</time>
<speed>1.360000</speed>
<extensions>
<speed>1.4</speed>
<temp>0.00</temp>
<bpm>0</bpm>
<rpm>0.00</rpm>
</extensions>
</trkpt>
<trkpt lat="30.694904327" lon="34.938774109">
<ele>716.890625</ele>
<time>2013-11-22T09:55:38Z</time>
<speed>1.730000</speed>
<extensions>
<speed>1.7</speed>
<temp>0.00</temp>
<bpm>0</bpm>
<rpm>0.00</rpm>
</extensions>
</trkpt>
<trkpt lat="30.694837570" lon="34.938823700">
<ele>717.156250</ele>
<time>2013-11-22T09:55:43Z</time>
<speed>1.830000</speed>
<extensions>
<speed>1.8</speed>
<temp>0.00</temp>
<bpm>0</bpm>
<rpm>0.00</rpm>
</extensions>
</trkpt>
<trkpt lat="30.694791794" lon="34.938884735">
<ele>717.562500</ele>
<time>2013-11-22T09:55:48Z</time>
<speed>1.850000</speed>
<extensions>
<speed>1.8</speed>
<temp>0.00</temp>
<bpm>0</bpm>
<rpm>0.00</rpm>
</extensions>
</trkpt>
<trkpt lat="30.694709778" lon="34.938930511">
<ele>717.125000</ele>
<time>2013-11-22T09:55:53Z</time>
<speed>1.890000</speed>
<extensions>
<speed>1.9</speed>
<temp>0.00</temp>
<bpm>0</bpm>
<rpm>0.00</rpm>
</extensions>
</trkpt>
<trkpt lat="30.694662094" lon="34.938976288">
<ele>718.531250</ele>
<time>2013-11-22T09:55:58Z</time>
<speed>0.060000</speed>
<extensions>
<speed>0.1</speed>
<temp>0.00</temp>
<bpm>0</bpm>
<rpm>0.00</rpm>
</extensions>
</trkpt>
<trkpt lat="30.694664001" lon="34.938976288">
<ele>719.171875</ele>
<time>2013-11-22T09:56:03Z</time>
<speed>0.330000</speed>
<extensions>
<speed>0.3</speed>
<temp>0.00</temp>
<bpm>0</bpm>
<rpm>0.00</rpm>
</extensions>
</trkpt>
<trkpt lat="30.694664001" lon="34.938972473">
<ele>719.562500</ele>
<time>2013-11-22T09:56:08Z</time>
<speed>0.110000</speed>
<extensions>
<speed>0.1</speed>
<temp>0.00</temp>
<bpm>0</bpm>
<rpm>0.00</rpm>
</extensions>
</trkpt>
<trkpt lat="30.694669724" lon="34.938976288">
<ele>718.734375</ele>
<time>2013-11-22T09:56:13Z</time>
<speed>0.070000</speed>
<extensions>
<speed>0.1</speed>
<temp>0.00</temp>
<bpm>0</bpm>
<rpm>0.00</rpm>
</extensions>
</trkpt>
<trkpt lat="30.694671631" lon="34.938983917">
<ele>718.812500</ele>
<time>2013-11-22T09:56:18Z</time>
<speed>0.780000</speed>
<extensions>
<speed>0.8</speed>
<temp>0.00</temp>
<bpm>0</bpm>
<rpm>0.00</rpm>
</extensions>
</trkpt>
<trkpt lat="30.694673538" lon="34.938983917">
<ele>718.156250</ele>
<time>2013-11-22T09:56:23Z</time>
<speed>0.180000</speed>
<extensions>
<speed>0.2</speed>
<temp>0.00</temp>
<bpm>0</bpm>
<rpm>0.00</rpm>
</extensions>
</trkpt>
<trkpt lat="30.694662094" lon="34.938987732">
<ele>717.968750</ele>
<time>2013-11-22T09:56:28Z</time>
<extensions>
<speed>0.0</speed>
<temp>0.00</temp>
<bpm>0</bpm>
<rpm>0.00</rpm>
</extensions>
</trkpt>
<trkpt lat="30.694660187" lon="34.938987732">
<ele>717.968750</ele>
<time>2013-11-22T09:56:33Z</time>
<speed>0.020000</speed>
<extensions>
<speed>0.0</speed>
<temp>0.00</temp>
<bpm>0</bpm>
<rpm>0.00</rpm>
</extensions>
</trkpt>
<trkpt lat="30.694660187" lon="34.938987732">
<ele>717.921875</ele>
<time>2013-11-22T09:56:38Z</time>
<speed>0.030000</speed>
<extensions>
<speed>0.0</speed>
<temp>0.00</temp>
<bpm>0</bpm>
<rpm>0.00</rpm>
</extensions>
</trkpt>
<trkpt lat="30.694660187" lon="34.938987732">
<ele>717.921875</ele>
<time>2013-11-22T09:56:43Z</time>
<extensions>
<speed>0.0</speed>
<temp>0.00</temp>
<bpm>0</bpm>
<rpm>0.00</rpm>
</extensions>
</trkpt>
<trkpt lat="30.694660187" lon="34.938987732">
<ele>717.921875</ele>
<time>2013-11-22T09:56:48Z</time>
<extensions>
<speed>0.0</speed>
<temp>0.00</temp>
<bpm>0</bpm>
<rpm>0.00</rpm>
</extensions>
</trkpt>
<trkpt lat="30.694660187" lon="34.938987732">
<ele>717.921875</ele>
<time>2013-11-22T09:56:53Z</time>
<extensions>
<speed>0.0</speed>
<temp>0.00</temp>
<bpm>0</bpm>
<rpm>0.00</rpm>
</extensions>
</trkpt>
<trkpt lat="30.694660187" lon="34.938987732">
<ele>717.921875</ele>
<time>2013-11-22T09:56:58Z</time>
<speed>0.010000</speed>
<extensions>
<speed>0.0</speed>
<temp>0.00</temp>
<bpm>0</bpm>
<rpm>0.00</rpm>
</extensions>
</trkpt>
<trkpt lat="30.694660187" lon="34.938987732">
<ele>717.921875</ele>
<time>2013-11-22T09:57:03Z</time>
<extensions>
<speed>0.0</speed>
<temp>0.00</temp>
<bpm>0</bpm>
<rpm>0.00</rpm>
</extensions>
</trkpt>
<trkpt lat="30.694660187" lon="34.938987732">
<ele>717.921875</ele>
<time>2013-11-22T09:57:08Z</time>
<extensions>
<speed>0.0</speed>
<temp>0.00</temp>
<bpm>0</bpm>
<rpm>0.00</rpm>
</extensions>
</trkpt>
<trkpt lat="30.694660187" lon="34.938987732">
<ele>717.921875</ele>
<time>2013-11-22T09:57:13Z</time>
<extensions>
<speed>0.0</speed>
<temp>0.00</temp>
<bpm>0</bpm>
<rpm>0.00</rpm>
</extensions>
</trkpt>
<trkpt lat="30.694660187" lon="34.938987732">
<ele>717.921875</ele>
<time>2013-11-22T09:57:18Z</time>
<extensions>
<speed>0.0</speed>
<temp>0.00</temp>
<bpm>0</bpm>
<rpm>0.00</rpm>
</extensions>
</trkpt>
<trkpt lat="30.694660187" lon="34.938987732">
<ele>717.937500</ele>
<time>2013-11-22T09:57:23Z</time>
<speed>0.040000</speed>
<extensions>
<speed>0.0</speed>
<temp>0.00</temp>
<bpm>0</bpm>
<rpm>0.00</rpm>
</extensions>
</trkpt>
<trkpt lat="30.694660187" lon="34.938987732">
<ele>717.937500</ele>
<time>2013-11-22T09:57:28Z</time>
<speed>0.030000</speed>
<extensions>
<speed>0.0</speed>
<temp>0.00</temp>
<bpm>0</bpm>
<rpm>0.00</rpm>
</extensions>
</trkpt>
<trkpt lat="30.694635391" lon="34.939010620">
<ele>718.015625</ele>
<time>2013-11-22T09:57:33Z</time>
<speed>1.460000</speed>
<extensions>
<speed>1.5</speed>
<temp>0.00</temp>
<bpm>0</bpm>
<rpm>0.00</rpm>
</extensions>
</trkpt>
<trkpt lat="30.694597244" lon="34.939090729">
<ele>717.468750</ele>
<time>2013-11-22T09:57:38Z</time>
<speed>2.040000</speed>
<extensions>
<speed>2.0</speed>
<temp>0.00</temp>
<bpm>0</bpm>
<rpm>0.00</rpm>
</extensions>
</trkpt>
<trkpt lat="30.694561005" lon="34.939311981">
<ele>716.796875</ele>
<time>2013-11-22T09:57:43Z</time>
<speed>6.530000</speed>
<extensions>
<speed>6.5</speed>
<temp>0.00</temp>
<bpm>0</bpm>
<rpm>0.00</rpm>
</extensions>
</trkpt>
<trkpt lat="30.694517136" lon="34.939746857">
<ele>714.593750</ele>
<time>2013-11-22T09:57:48Z</time>
<speed>9.060000</speed>
<extensions>
<speed>9.1</speed>
<temp>0.00</temp>
<bpm>0</bpm>
<rpm>0.00</rpm>
</extensions>
</trkpt>
<trkpt lat="30.694522858" lon="34.940277100">
<ele>714.718750</ele>
<time>2013-11-22T09:57:53Z</time>
<speed>9.810001</speed>
<extensions>
<speed>9.8</speed>
<temp>0.00</temp>
<bpm>0</bpm>
<rpm>0.00</rpm>
</extensions>
</trkpt>
<trkpt lat="30.694463730" lon="34.940711975">
<ele>714.421875</ele>
<time>2013-11-22T09:57:58Z</time>
<speed>6.530000</speed>
<extensions>
<speed>6.5</speed>
<temp>0.00</temp>
<bpm>0</bpm>
<rpm>0.00</rpm>
</extensions>
</trkpt>
<trkpt lat="30.694446564" lon="34.940910339">
<ele>712.843750</ele>
<time>2013-11-22T09:58:03Z</time>
<speed>3.200000</speed>
<extensions>
<speed>3.2</speed>
<temp>0.00</temp>
<bpm>0</bpm>
<rpm>0.00</rpm>
</extensions>
</trkpt>
<trkpt lat="30.694395065" lon="34.941009521">
<ele>710.171875</ele>
<time>2013-11-22T09:58:08Z</time>
<speed>2.480000</speed>
<extensions>
<speed>2.5</speed>
<temp>0.00</temp>
<bpm>0</bpm>
<rpm>0.00</rpm>
</extensions>
</trkpt>
<trkpt lat="30.694353104" lon="34.941024780">
<ele>711.375000</ele>
<time>2013-11-22T09:58:13Z</time>
<speed>1.700000</speed>
<extensions>
<speed>1.7</speed>
<temp>0.00</temp>
<bpm>0</bpm>
<rpm>0.00</rpm>
</extensions>
</trkpt>
<trkpt lat="30.694248199" lon="34.941082001">
<ele>710.609375</ele>
<time>2013-11-22T09:58:18Z</time>
<speed>2.830000</speed>
<extensions>
<speed>2.8</speed>
<temp>0.00</temp>
<bpm>0</bpm>
<rpm>0.00</rpm>
</extensions>
</trkpt>
<trkpt lat="30.694131851" lon="34.941127777">
<ele>709.734375</ele>
<time>2013-11-22T09:58:23Z</time>
<speed>2.140000</speed>
<extensions>
<speed>2.1</speed>
<temp>0.00</temp>
<bpm>0</bpm>
<rpm>0.00</rpm>
</extensions>
</trkpt>
<trkpt lat="30.694057465" lon="34.941207886">
<ele>708.781250</ele>
<time>2013-11-22T09:58:28Z</time>
<speed>2.260000</speed>
<extensions>
<speed>2.3</speed>
<temp>0.00</temp>
<bpm>0</bpm>
<rpm>0.00</rpm>
</extensions>
</trkpt>
<trkpt lat="30.693984985" lon="34.941295624">
<ele>707.468750</ele>
<time>2013-11-22T09:58:33Z</time>
<speed>2.630000</speed>
<extensions>
<speed>2.6</speed>
<temp>0.00</temp>
<bpm>0</bpm>
<rpm>0.00</rpm>
</extensions>
</trkpt>
<trkpt lat="30.693912506" lon="34.941436768">
<ele>706.187500</ele>
<time>2013-11-22T09:58:38Z</time>
<speed>3.420000</speed>
<extensions>
<speed>3.4</speed>
<temp>0.00</temp>
<bpm>0</bpm>
<rpm>0.00</rpm>
</extensions>
</trkpt>
<trkpt lat="30.693901062" lon="34.941638947">
<ele>704.875000</ele>
<time>2013-11-22T09:58:43Z</time>
<speed>3.930000</speed>
<extensions>
<speed>3.9</speed>
<temp>0.00</temp>
<bpm>0</bpm>
<rpm>0.00</rpm>
</extensions>
</trkpt>
<trkpt lat="30.693899155" lon="34.941825867">
<ele>703.781250</ele>
<time>2013-11-22T09:58:48Z</time>
<speed>3.370000</speed>
<extensions>
<speed>3.4</speed>
<temp>0.00</temp>
<bpm>0</bpm>
<rpm>0.00</rpm>
</extensions>
</trkpt>
<trkpt lat="30.693950653" lon="34.941993713">
<ele>701.937500</ele>
<time>2013-11-22T09:58:53Z</time>
<speed>3.660000</speed>
<extensions>
<speed>3.7</speed>
<temp>0.00</temp>
<bpm>0</bpm>
<rpm>0.00</rpm>
</extensions>
</trkpt>
<trkpt lat="30.693899155" lon="34.942195892">
<ele>701.140625</ele>
<time>2013-11-22T09:58:58Z</time>
<speed>3.830000</speed>
<extensions>
<speed>3.8</speed>
<temp>0.00</temp>
<bpm>0</bpm>
<rpm>0.00</rpm>
</extensions>
</trkpt>
<trkpt lat="30.693843842" lon="34.942325592">
<ele>698.734375</ele>
<time>2013-11-22T09:59:03Z</time>
<speed>2.370000</speed>
<extensions>
<speed>2.4</speed>
<temp>0.00</temp>
<bpm>0</bpm>
<rpm>0.00</rpm>
</extensions>
</trkpt>
<trkpt lat="30.693809509" lon="34.942382813">
<ele>697.953125</ele>
<time>2013-11-22T09:59:08Z</time>
<speed>0.140000</speed>
<extensions>
<speed>0.1</speed>
<temp>0.00</temp>
<bpm>0</bpm>
<rpm>0.00</rpm>
</extensions>
</trkpt>
<trkpt lat="30.693815231" lon="34.942382813">
<ele>698.468750</ele>
<time>2013-11-22T09:59:13Z</time>
<speed>0.090000</speed>
<extensions>
<speed>0.1</speed>
<temp>0.00</temp>
<bpm>0</bpm>
<rpm>0.00</rpm>
</extensions>
</trkpt>
<trkpt lat="30.693813324" lon="34.942382813">
<ele>698.390625</ele>
<time>2013-11-22T09:59:18Z</time>
<speed>0.040000</speed>
<extensions>
<speed>0.0</speed>
<temp>0.00</temp>
<bpm>0</bpm>
<rpm>0.00</rpm>
</extensions>
</trkpt>
<trkpt lat="30.693815231" lon="34.942378998">
<ele>698.468750</ele>
<time>2013-11-22T09:59:23Z</time>
<speed>0.010000</speed>
<extensions>
<speed>0.0</speed>
<temp>0.00</temp>
<bpm>0</bpm>
<rpm>0.00</rpm>
</extensions>
</trkpt>
<trkpt lat="30.693813324" lon="34.942390442">
<ele>698.531250</ele>
<time>2013-11-22T09:59:28Z</time>
<speed>0.840000</speed>
<extensions>
<speed>0.8</speed>
<temp>0.00</temp>
<bpm>0</bpm>
<rpm>0.00</rpm>
</extensions>
</trkpt>
<trkpt lat="30.693819046" lon="34.942504883">
<ele>698.828125</ele>
<time>2013-11-22T09:59:33Z</time>
<speed>2.710000</speed>
<extensions>
<speed>2.7</speed>
<temp>0.00</temp>
<bpm>0</bpm>
<rpm>0.00</rpm>
</extensions>
</trkpt>
<trkpt lat="30.693826675" lon="34.942657471">
<ele>698.312500</ele>
<time>2013-11-22T09:59:38Z</time>
<speed>2.700000</speed>
<extensions>
<speed>2.7</speed>
<temp>0.00</temp>
<bpm>0</bpm>
<rpm>0.00</rpm>
</extensions>
</trkpt>
<trkpt lat="30.693820953" lon="34.942806244">
<ele>697.734375</ele>
<time>2013-11-22T09:59:43Z</time>
<speed>2.800000</speed>
<extensions>
<speed>2.8</speed>
<temp>0.00</temp>
<bpm>0</bpm>
<rpm>0.00</rpm>
</extensions>
</trkpt>
<trkpt lat="30.693809509" lon="34.942935944">
<ele>697.734375</ele>
<time>2013-11-22T09:59:48Z</time>
<speed>2.070000</speed>
<extensions>
<speed>2.1</speed>
<temp>0.00</temp>
<bpm>0</bpm>
<rpm>0.00</rpm>
</extensions>
</trkpt>
<trkpt lat="30.693824768" lon="34.943019867">
<ele>697.796875</ele>
<time>2013-11-22T09:59:53Z</time>
<speed>1.200000</speed>
<extensions>
<speed>1.2</speed>
<temp>0.00</temp>
<bpm>0</bpm>
<rpm>0.00</rpm>
</extensions>
</trkpt>
<trkpt lat="30.693838120" lon="34.943035126">
<ele>698.281250</ele>
<time>2013-11-22T09:59:58Z</time>
<speed>0.050000</speed>
<extensions>
<speed>0.1</speed>
<temp>0.00</temp>
<bpm>0</bpm>
<rpm>0.00</rpm>
</extensions>
</trkpt>
<trkpt lat="30.693836212" lon="34.943035126">
<ele>698.281250</ele>
<time>2013-11-22T10:00:03Z</time>
<speed>0.070000</speed>
<extensions>
<speed>0.1</speed>
<temp>0.00</temp>
<bpm>0</bpm>
<rpm>0.00</rpm>
</extensions>
</trkpt>
<trkpt lat="30.693834305" lon="34.943031311">
<ele>698.250000</ele>
<time>2013-11-22T10:00:08Z</time>
<speed>0.110000</speed>
<extensions>
<speed>0.1</speed>
<temp>0.00</temp>
<bpm>0</bpm>
<rpm>0.00</rpm>
</extensions>
</trkpt>
<trkpt lat="30.693834305" lon="34.943042755">
<ele>698.250000</ele>
<time>2013-11-22T10:00:13Z</time>
<speed>0.590000</speed>
<extensions>
<speed>0.6</speed>
<temp>0.00</temp>
<bpm>0</bpm>
<rpm>0.00</rpm>
</extensions>
</trkpt>
<trkpt lat="30.693836212" lon="34.943099976">
<ele>696.890625</ele>
<time>2013-11-22T10:00:18Z</time>
<speed>1.250000</speed>
<extensions>
<speed>1.3</speed>
<temp>0.00</temp>
<bpm>0</bpm>
<rpm>0.00</rpm>
</extensions>
</trkpt>
<trkpt lat="30.693838120" lon="34.943180084">
<ele>694.984375</ele>
<time>2013-11-22T10:00:23Z</time>
<speed>1.380000</speed>
<extensions>
<speed>1.4</speed>
<temp>0.00</temp>
<bpm>0</bpm>
<rpm>0.00</rpm>
</extensions>
</trkpt>
<trkpt lat="30.693803787" lon="34.943267822">
<ele>694.734375</ele>
<time>2013-11-22T10:00:28Z</time>
<speed>1.500000</speed>
<extensions>
<speed>1.5</speed>
<temp>0.00</temp>
<bpm>0</bpm>
<rpm>0.00</rpm>
</extensions>
</trkpt>
<trkpt lat="30.693750381" lon="34.943336487">
<ele>693.328125</ele>
<time>2013-11-22T10:00:33Z</time>
<speed>1.330000</speed>
<extensions>
<speed>1.3</speed>
<temp>0.00</temp>
<bpm>0</bpm>
<rpm>0.00</rpm>
</extensions>
</trkpt>
<trkpt lat="30.693719864" lon="34.943397522">
<ele>692.281250</ele>
<time>2013-11-22T10:00:38Z</time>
<speed>1.540000</speed>
<extensions>
<speed>1.5</speed>
<temp>0.00</temp>
<bpm>0</bpm>
<rpm>0.00</rpm>
</extensions>
</trkpt>
<trkpt lat="30.693725586" lon="34.943408966">
<ele>691.781250</ele>
<time>2013-11-22T10:00:43Z</time>
<speed>0.420000</speed>
<extensions>
<speed>0.4</speed>
<temp>0.00</temp>
<bpm>0</bpm>
<rpm>0.00</rpm>
</extensions>
</trkpt>
<trkpt lat="30.693737030" lon="34.943405151">
<ele>692.765625</ele>
<time>2013-11-22T10:00:48Z</time>
<speed>0.140000</speed>
<extensions>
<speed>0.1</speed>
<temp>0.00</temp>
<bpm>0</bpm>
<rpm>0.00</rpm>
</extensions>
</trkpt>
<trkpt lat="30.693737030" lon="34.943405151">
<ele>692.531250</ele>
<time>2013-11-22T10:00:53Z</time>
<speed>0.010000</speed>
<extensions>
<speed>0.0</speed>
<temp>0.00</temp>
<bpm>0</bpm>
<rpm>0.00</rpm>
</extensions>
</trkpt>
<trkpt lat="30.693733215" lon="34.943397522">
<ele>692.484375</ele>
<time>2013-11-22T10:00:58Z</time>
<speed>0.320000</speed>
<extensions>
<speed>0.3</speed>
<temp>0.00</temp>
<bpm>0</bpm>
<rpm>0.00</rpm>
</extensions>
</trkpt>
<trkpt lat="30.693733215" lon="34.943393707">
<ele>693.078125</ele>
<time>2013-11-22T10:01:03Z</time>
<speed>0.120000</speed>
<extensions>
<speed>0.1</speed>
<temp>0.00</temp>
<bpm>0</bpm>
<rpm>0.00</rpm>
</extensions>
</trkpt>
<trkpt lat="30.693737030" lon="34.943389893">
<ele>693.109375</ele>
<time>2013-11-22T10:01:08Z</time>
<speed>0.250000</speed>
<extensions>
<speed>0.2</speed>
<temp>0.00</temp>
<bpm>0</bpm>
<rpm>0.00</rpm>
</extensions>
</trkpt>
<trkpt lat="30.693721771" lon="34.943408966">
<ele>693.046875</ele>
<time>2013-11-22T10:01:13Z</time>
<speed>0.060000</speed>
<extensions>
<speed>0.1</speed>
<temp>0.00</temp>
<bpm>0</bpm>
<rpm>0.00</rpm>
</extensions>
</trkpt>
<trkpt lat="30.693721771" lon="34.943416595">
<ele>692.703125</ele>
<time>2013-11-22T10:01:18Z</time>
<speed>0.130000</speed>
<extensions>
<speed>0.1</speed>
<temp>0.00</temp>
<bpm>0</bpm>
<rpm>0.00</rpm>
</extensions>
</trkpt>
<trkpt lat="30.693702698" lon="34.943458557">
<ele>692.187500</ele>
<time>2013-11-22T10:01:23Z</time>
<speed>0.270000</speed>
<extensions>
<speed>0.3</speed>
<temp>0.00</temp>
<bpm>0</bpm>
<rpm>0.00</rpm>
</extensions>
</trkpt>
<trkpt lat="30.693677902" lon="34.943500519">
<ele>691.140625</ele>
<time>2013-11-22T10:01:28Z</time>
<speed>1.950000</speed>
<extensions>
<speed>1.9</speed>
<temp>0.00</temp>
<bpm>0</bpm>
<rpm>0.00</rpm>
</extensions>
</trkpt>
<trkpt lat="30.693632126" lon="34.943603516">
<ele>689.859375</ele>
<time>2013-11-22T10:01:33Z</time>
<speed>1.850000</speed>
<extensions>
<speed>1.8</speed>
<temp>0.00</temp>
<bpm>0</bpm>
<rpm>0.00</rpm>
</extensions>
</trkpt>
<trkpt lat="30.693582535" lon="34.943729401">
<ele>688.656250</ele>
<time>2013-11-22T10:01:38Z</time>
<speed>2.600000</speed>
<extensions>
<speed>2.6</speed>
<temp>0.00</temp>
<bpm>0</bpm>
<rpm>0.00</rpm>
</extensions>
</trkpt>
<trkpt lat="30.693511963" lon="34.943859100">
<ele>686.500000</ele>
<time>2013-11-22T10:01:43Z</time>
<speed>3.050000</speed>
<extensions>
<speed>3.0</speed>
<temp>0.00</temp>
<bpm>0</bpm>
<rpm>0.00</rpm>
</extensions>
</trkpt>
<trkpt lat="30.693456650" lon="34.943958282">
<ele>682.546875</ele>
<time>2013-11-22T10:01:48Z</time>
<speed>2.430000</speed>
<extensions>
<speed>2.4</speed>
<temp>0.00</temp>
<bpm>0</bpm>
<rpm>0.00</rpm>
</extensions>
</trkpt>
<trkpt lat="30.693479538" lon="34.944133759">
<ele>680.578125</ele>
<time>2013-11-22T10:01:53Z</time>
<speed>4.510000</speed>
<extensions>
<speed>4.5</speed>
<temp>0.00</temp>
<bpm>0</bpm>
<rpm>0.00</rpm>
</extensions>
</trkpt>
<trkpt lat="30.693456650" lon="34.944370270">
<ele>679.109375</ele>
<time>2013-11-22T10:01:58Z</time>
<speed>2.670000</speed>
<extensions>
<speed>2.7</speed>
<temp>0.00</temp>
<bpm>0</bpm>
<rpm>0.00</rpm>
</extensions>
</trkpt>
<trkpt lat="30.693376541" lon="34.944408417">
<ele>678.500000</ele>
<time>2013-11-22T10:02:03Z</time>
<speed>1.870000</speed>
<extensions>
<speed>1.9</speed>
<temp>0.00</temp>
<bpm>0</bpm>
<rpm>0.00</rpm>
</extensions>
</trkpt>
<trkpt lat="30.693309784" lon="34.944355011">
<ele>677.078125</ele>
<time>2013-11-22T10:02:08Z</time>
<speed>1.470000</speed>
<extensions>
<speed>1.5</speed>
<temp>0.00</temp>
<bpm>0</bpm>
<rpm>0.00</rpm>
</extensions>
</trkpt>
<trkpt lat="30.693267822" lon="34.944316864">
<ele>676.265625</ele>
<time>2013-11-22T10:02:13Z</time>
<speed>0.170000</speed>
<extensions>
<speed>0.2</speed>
<temp>0.00</temp>
<bpm>0</bpm>
<rpm>0.00</rpm>
</extensions>
</trkpt>
<trkpt lat="30.693264008" lon="34.944316864">
<ele>676.187500</ele>
<time>2013-11-22T10:02:18Z</time>
<speed>0.010000</speed>
<extensions>
<speed>0.0</speed>
<temp>0.00</temp>
<bpm>0</bpm>
<rpm>0.00</rpm>
</extensions>
</trkpt>
<trkpt lat="30.693265915" lon="34.944316864">
<ele>676.171875</ele>
<time>2013-11-22T10:02:23Z</time>
<extensions>
<speed>0.0</speed>
<temp>0.00</temp>
<bpm>0</bpm>
<rpm>0.00</rpm>
</extensions>
</trkpt>
<trkpt lat="30.693265915" lon="34.944316864">
<ele>676.171875</ele>
<time>2013-11-22T10:02:28Z</time>
<speed>0.010000</speed>
<extensions>
<speed>0.0</speed>
<temp>0.00</temp>
<bpm>0</bpm>
<rpm>0.00</rpm>
</extensions>
</trkpt>
<trkpt lat="30.693265915" lon="34.944316864">
<ele>676.109375</ele>
<time>2013-11-22T10:02:33Z</time>
<extensions>
<speed>0.0</speed>
<temp>0.00</temp>
<bpm>0</bpm>
<rpm>0.00</rpm>
</extensions>
</trkpt>
<trkpt lat="30.693267822" lon="34.944316864">
<ele>676.296875</ele>
<time>2013-11-22T10:02:38Z</time>
<extensions>
<speed>0.0</speed>
<temp>0.00</temp>
<bpm>0</bpm>
<rpm>0.00</rpm>
</extensions>
</trkpt>
<trkpt lat="30.693269730" lon="34.944316864">
<ele>676.453125</ele>
<time>2013-11-22T10:02:43Z</time>
<speed>0.970000</speed>
<extensions>
<speed>1.0</speed>
<temp>0.00</temp>
<bpm>0</bpm>
<rpm>0.00</rpm>
</extensions>
</trkpt>
<trkpt lat="30.693328857" lon="34.944358826">
<ele>676.531250</ele>
<time>2013-11-22T10:02:48Z</time>
<speed>1.810000</speed>
<extensions>
<speed>1.8</speed>
<temp>0.00</temp>
<bpm>0</bpm>
<rpm>0.00</rpm>
</extensions>
</trkpt>
<trkpt lat="30.693389893" lon="34.944412231">
<ele>676.328125</ele>
<time>2013-11-22T10:02:53Z</time>
<speed>2.040000</speed>
<extensions>
<speed>2.0</speed>
<temp>0.00</temp>
<bpm>0</bpm>
<rpm>0.00</rpm>
</extensions>
</trkpt>
<trkpt lat="30.693490982" lon="34.944427490">
<ele>675.593750</ele>
<time>2013-11-22T10:02:58Z</time>
<speed>1.850000</speed>
<extensions>
<speed>1.8</speed>
<temp>0.00</temp>
<bpm>0</bpm>
<rpm>0.00</rpm>
</extensions>
</trkpt>
<trkpt lat="30.693565369" lon="34.944438934">
<ele>673.750000</ele>
<time>2013-11-22T10:03:03Z</time>
<speed>1.610000</speed>
<extensions>
<speed>1.6</speed>
<temp>0.00</temp>
<bpm>0</bpm>
<rpm>0.00</rpm>
</extensions>
</trkpt>
<trkpt lat="30.693662643" lon="34.944423676">
<ele>672.687500</ele>
<time>2013-11-22T10:03:08Z</time>
<speed>2.190000</speed>
<extensions>
<speed>2.2</speed>
<temp>0.00</temp>
<bpm>0</bpm>
<rpm>0.00</rpm>
</extensions>
</trkpt>
<trkpt lat="30.693746567" lon="34.944435120">
<ele>672.703125</ele>
<time>2013-11-22T10:03:13Z</time>
<speed>1.630000</speed>
<extensions>
<speed>1.6</speed>
<temp>0.00</temp>
<bpm>0</bpm>
<rpm>0.00</rpm>
</extensions>
</trkpt>
<trkpt lat="30.693828583" lon="34.944488525">
<ele>675.031250</ele>
<time>2013-11-22T10:03:18Z</time>
<speed>1.810000</speed>
<extensions>
<speed>1.8</speed>
<temp>0.00</temp>
<bpm>0</bpm>
<rpm>0.00</rpm>
</extensions>
</trkpt>
<trkpt lat="30.693906784" lon="34.944587708">
<ele>675.390625</ele>
<time>2013-11-22T10:03:23Z</time>
<speed>3.010000</speed>
<extensions>
<speed>3.0</speed>
<temp>0.00</temp>
<bpm>0</bpm>
<rpm>0.00</rpm>
</extensions>
</trkpt>
<trkpt lat="30.693969727" lon="34.944751740">
<ele>675.796875</ele>
<time>2013-11-22T10:03:28Z</time>
<speed>3.080000</speed>
<extensions>
<speed>3.1</speed>
<temp>0.00</temp>
<bpm>0</bpm>
<rpm>0.00</rpm>
</extensions>
</trkpt>
<trkpt lat="30.693998337" lon="34.944892883">
<ele>675.546875</ele>
<time>2013-11-22T10:03:33Z</time>
<speed>2.300000</speed>
<extensions>
<speed>2.3</speed>
<temp>0.00</temp>
<bpm>0</bpm>
<rpm>0.00</rpm>
</extensions>
</trkpt>
<trkpt lat="30.694084167" lon="34.944984436">
<ele>676.843750</ele>
<time>2013-11-22T10:03:38Z</time>
<speed>3.210000</speed>
<extensions>
<speed>3.2</speed>
<temp>0.00</temp>
<bpm>0</bpm>
<rpm>0.00</rpm>
</extensions>
</trkpt>
<trkpt lat="30.694187164" lon="34.945098877">
<ele>677.937500</ele>
<time>2013-11-22T10:03:43Z</time>
<speed>2.990000</speed>
<extensions>
<speed>3.0</speed>
<temp>0.00</temp>
<bpm>0</bpm>
<rpm>0.00</rpm>
</extensions>
</trkpt>
<trkpt lat="30.694246292" lon="34.945194244">
<ele>682.343750</ele>
<time>2013-11-22T10:03:48Z</time>
<speed>1.970000</speed>
<extensions>
<speed>2.0</speed>
<temp>0.00</temp>
<bpm>0</bpm>
<rpm>0.00</rpm>
</extensions>
</trkpt>
<trkpt lat="30.694301605" lon="34.945270538">
<ele>684.171875</ele>
<time>2013-11-22T10:03:53Z</time>
<speed>1.920000</speed>
<extensions>
<speed>1.9</speed>
<temp>0.00</temp>
<bpm>0</bpm>
<rpm>0.00</rpm>
</extensions>
</trkpt>
<trkpt lat="30.694343567" lon="34.945369720">
<ele>684.109375</ele>
<time>2013-11-22T10:03:58Z</time>
<speed>1.720000</speed>
<extensions>
<speed>1.7</speed>
<temp>0.00</temp>
<bpm>0</bpm>
<rpm>0.00</rpm>
</extensions>
</trkpt>
<trkpt lat="30.694364548" lon="34.945495605">
<ele>682.515625</ele>
<time>2013-11-22T10:04:03Z</time>
<speed>2.300000</speed>
<extensions>
<speed>2.3</speed>
<temp>0.00</temp>
<bpm>0</bpm>
<rpm>0.00</rpm>
</extensions>
</trkpt>
<trkpt lat="30.694410324" lon="34.945636749">
<ele>683.828125</ele>
<time>2013-11-22T10:04:08Z</time>
<speed>2.580000</speed>
<extensions>
<speed>2.6</speed>
<temp>0.00</temp>
<bpm>0</bpm>
<rpm>0.00</rpm>
</extensions>
</trkpt>
<trkpt lat="30.694473267" lon="34.945728302">
<ele>685.687500</ele>
<time>2013-11-22T10:04:13Z</time>
<speed>2.450000</speed>
<extensions>
<speed>2.4</speed>
<temp>0.00</temp>
<bpm>0</bpm>
<rpm>0.00</rpm>
</extensions>
</trkpt>
<trkpt lat="30.694585800" lon="34.945785522">
<ele>683.843750</ele>
<time>2013-11-22T10:04:18Z</time>
<speed>3.640000</speed>
<extensions>
<speed>3.6</speed>
<temp>0.00</temp>
<bpm>0</bpm>
<rpm>0.00</rpm>
</extensions>
</trkpt>
<trkpt lat="30.694747925" lon="34.945835114">
<ele>682.125000</ele>
<time>2013-11-22T10:04:23Z</time>
<speed>3.400000</speed>
<extensions>
<speed>3.4</speed>
<temp>0.00</temp>
<bpm>0</bpm>
<rpm>0.00</rpm>
</extensions>
</trkpt>
<trkpt lat="30.694898605" lon="34.945968628">
<ele>679.578125</ele>
<time>2013-11-22T10:04:28Z</time>
<speed>5.520000</speed>
<extensions>
<speed>5.5</speed>
<temp>0.00</temp>
<bpm>0</bpm>
<rpm>0.00</rpm>
</extensions>
</trkpt>
<trkpt lat="30.695100784" lon="34.946182251">
<ele>677.890625</ele>
<time>2013-11-22T10:04:33Z</time>
<speed>5.910000</speed>
<extensions>
<speed>5.9</speed>
<temp>0.00</temp>
<bpm>0</bpm>
<rpm>0.00</rpm>
</extensions>
</trkpt>
<trkpt lat="30.695287704" lon="34.946430206">
<ele>678.203125</ele>
<time>2013-11-22T10:04:38Z</time>
<speed>5.610000</speed>
<extensions>
<speed>5.6</speed>
<temp>0.00</temp>
<bpm>0</bpm>
<rpm>0.00</rpm>
</extensions>
</trkpt>
<trkpt lat="30.695373535" lon="34.946674347">
<ele>677.984375</ele>
<time>2013-11-22T10:04:43Z</time>
<speed>5.280000</speed>
<extensions>
<speed>5.3</speed>
<temp>0.00</temp>
<bpm>0</bpm>
<rpm>0.00</rpm>
</extensions>
</trkpt>
<trkpt lat="30.695432663" lon="34.946907043">
<ele>676.015625</ele>
<time>2013-11-22T10:04:48Z</time>
<speed>4.360000</speed>
<extensions>
<speed>4.4</speed>
<temp>0.00</temp>
<bpm>0</bpm>
<rpm>0.00</rpm>
</extensions>
</trkpt>
<trkpt lat="30.695489883" lon="34.947212219">
<ele>672.906250</ele>
<time>2013-11-22T10:04:53Z</time>
<speed>6.350000</speed>
<extensions>
<speed>6.4</speed>
<temp>0.00</temp>
<bpm>0</bpm>
<rpm>0.00</rpm>
</extensions>
</trkpt>
<trkpt lat="30.695566177" lon="34.947490692">
<ele>669.562500</ele>
<time>2013-11-22T10:04:58Z</time>
<speed>3.950000</speed>
<extensions>
<speed>4.0</speed>
<temp>0.00</temp>
<bpm>0</bpm>
<rpm>0.00</rpm>
</extensions>
</trkpt>
<trkpt lat="30.695642471" lon="34.947605133">
<ele>672.343750</ele>
<time>2013-11-22T10:05:03Z</time>
<speed>1.830000</speed>
<extensions>
<speed>1.8</speed>
<temp>0.00</temp>
<bpm>0</bpm>
<rpm>0.00</rpm>
</extensions>
</trkpt>
<trkpt lat="30.695669174" lon="34.947685242">
<ele>672.406250</ele>
<time>2013-11-22T10:05:08Z</time>
<speed>1.700000</speed>
<extensions>
<speed>1.7</speed>
<temp>0.00</temp>
<bpm>0</bpm>
<rpm>0.00</rpm>
</extensions>
</trkpt>
<trkpt lat="30.695653915" lon="34.947715759">
<ele>672.453125</ele>
<time>2013-11-22T10:05:13Z</time>
<speed>0.070000</speed>
<extensions>
<speed>0.1</speed>
<temp>0.00</temp>
<bpm>0</bpm>
<rpm>0.00</rpm>
</extensions>
</trkpt>
<trkpt lat="30.695653915" lon="34.947719574">
<ele>672.500000</ele>
<time>2013-11-22T10:05:18Z</time>
<speed>0.010000</speed>
<extensions>
<speed>0.0</speed>
<temp>0.00</temp>
<bpm>0</bpm>
<rpm>0.00</rpm>
</extensions>
</trkpt>
<trkpt lat="30.695653915" lon="34.947719574">
<ele>672.531250</ele>
<time>2013-11-22T10:05:23Z</time>
<speed>0.010000</speed>
<extensions>
<speed>0.0</speed>
<temp>0.00</temp>
<bpm>0</bpm>
<rpm>0.00</rpm>
</extensions>
</trkpt>
<trkpt lat="30.695653915" lon="34.947719574">
<ele>672.546875</ele>
<time>2013-11-22T10:05:28Z</time>
<extensions>
<speed>0.0</speed>
<temp>0.00</temp>
<bpm>0</bpm>
<rpm>0.00</rpm>
</extensions>
</trkpt>
<trkpt lat="30.695653915" lon="34.947719574">
<ele>672.546875</ele>
<time>2013-11-22T10:05:33Z</time>
<speed>0.060000</speed>
<extensions>
<speed>0.1</speed>
<temp>0.00</temp>
<bpm>0</bpm>
<rpm>0.00</rpm>
</extensions>
</trkpt>
<trkpt lat="30.695653915" lon="34.947723389">
<ele>672.562500</ele>
<time>2013-11-22T10:05:38Z</time>
<speed>1.250000</speed>
<extensions>
<speed>1.3</speed>
<temp>0.00</temp>
<bpm>0</bpm>
<rpm>0.00</rpm>
</extensions>
</trkpt>
<trkpt lat="30.695611954" lon="34.947795868">
<ele>673.250000</ele>
<time>2013-11-22T10:05:43Z</time>
<speed>1.700000</speed>
<extensions>
<speed>1.7</speed>
<temp>0.00</temp>
<bpm>0</bpm>
<rpm>0.00</rpm>
</extensions>
</trkpt>
<trkpt lat="30.695568085" lon="34.947940826">
<ele>672.875000</ele>
<time>2013-11-22T10:05:48Z</time>
<speed>3.890000</speed>
<extensions>
<speed>3.9</speed>
<temp>0.00</temp>
<bpm>0</bpm>
<rpm>0.00</rpm>
</extensions>
</trkpt>
<trkpt lat="30.695478439" lon="34.948097229">
<ele>673.218750</ele>
<time>2013-11-22T10:05:53Z</time>
<speed>2.940000</speed>
<extensions>
<speed>2.9</speed>
<temp>0.00</temp>
<bpm>0</bpm>
<rpm>0.00</rpm>
</extensions>
</trkpt>
<trkpt lat="30.695447922" lon="34.948200226">
<ele>672.890625</ele>
<time>2013-11-22T10:05:58Z</time>
<speed>2.980000</speed>
<extensions>
<speed>3.0</speed>
<temp>0.00</temp>
<bpm>0</bpm>
<rpm>0.00</rpm>
</extensions>
</trkpt>
<trkpt lat="30.695447922" lon="34.948291779">
<ele>673.328125</ele>
<time>2013-11-22T10:06:03Z</time>
<speed>1.170000</speed>
<extensions>
<speed>1.2</speed>
<temp>0.00</temp>
<bpm>0</bpm>
<rpm>0.00</rpm>
</extensions>
</trkpt>
<trkpt lat="30.695438385" lon="34.948364258">
<ele>673.078125</ele>
<time>2013-11-22T10:06:08Z</time>
<speed>1.590000</speed>
<extensions>
<speed>1.6</speed>
<temp>0.00</temp>
<bpm>0</bpm>
<rpm>0.00</rpm>
</extensions>
</trkpt>
<trkpt lat="30.695482254" lon="34.948417664">
<ele>672.406250</ele>
<time>2013-11-22T10:06:13Z</time>
<speed>1.650000</speed>
<extensions>
<speed>1.7</speed>
<temp>0.00</temp>
<bpm>0</bpm>
<rpm>0.00</rpm>
</extensions>
</trkpt>
<trkpt lat="30.695520401" lon="34.948440552">
<ele>672.843750</ele>
<time>2013-11-22T10:06:18Z</time>
<speed>0.080000</speed>
<extensions>
<speed>0.1</speed>
<temp>0.00</temp>
<bpm>0</bpm>
<rpm>0.00</rpm>
</extensions>
</trkpt>
<trkpt lat="30.695537567" lon="34.948440552">
<ele>674.125000</ele>
<time>2013-11-22T10:06:23Z</time>
<speed>1.350000</speed>
<extensions>
<speed>1.4</speed>
<temp>0.00</temp>
<bpm>0</bpm>
<rpm>0.00</rpm>
</extensions>
</trkpt>
<trkpt lat="30.695598602" lon="34.948474884">
<ele>673.812500</ele>
<time>2013-11-22T10:06:28Z</time>
<speed>1.720000</speed>
<extensions>
<speed>1.7</speed>
<temp>0.00</temp>
<bpm>0</bpm>
<rpm>0.00</rpm>
</extensions>
</trkpt>
<trkpt lat="30.695661545" lon="34.948509216">
<ele>672.484375</ele>
<time>2013-11-22T10:06:33Z</time>
<speed>1.740000</speed>
<extensions>
<speed>1.7</speed>
<temp>0.00</temp>
<bpm>0</bpm>
<rpm>0.00</rpm>
</extensions>
</trkpt>
<trkpt lat="30.695735931" lon="34.948532104">
<ele>671.968750</ele>
<time>2013-11-22T10:06:38Z</time>
<speed>1.540000</speed>
<extensions>
<speed>1.5</speed>
<temp>0.00</temp>
<bpm>0</bpm>
<rpm>0.00</rpm>
</extensions>
</trkpt>
<trkpt lat="30.695791245" lon="34.948547363">
<ele>672.734375</ele>
<time>2013-11-22T10:06:43Z</time>
<speed>1.120000</speed>
<extensions>
<speed>1.1</speed>
<temp>0.00</temp>
<bpm>0</bpm>
<rpm>0.00</rpm>
</extensions>
</trkpt>
<trkpt lat="30.695844650" lon="34.948566437">
<ele>675.640625</ele>
<time>2013-11-22T10:06:48Z</time>
<speed>1.170000</speed>
<extensions>
<speed>1.2</speed>
<temp>0.00</temp>
<bpm>0</bpm>
<rpm>0.00</rpm>
</extensions>
</trkpt>
<trkpt lat="30.695938110" lon="34.948554993">
<ele>676.203125</ele>
<time>2013-11-22T10:06:53Z</time>
<speed>1.390000</speed>
<extensions>
<speed>1.4</speed>
<temp>0.00</temp>
<bpm>0</bpm>
<rpm>0.00</rpm>
</extensions>
</trkpt>
<trkpt lat="30.696018219" lon="34.948547363">
<ele>676.484375</ele>
<time>2013-11-22T10:06:58Z</time>
<speed>1.770000</speed>
<extensions>
<speed>1.8</speed>
<temp>0.00</temp>
<bpm>0</bpm>
<rpm>0.00</rpm>
</extensions>
</trkpt>
<trkpt lat="30.696056366" lon="34.948585510">
<ele>676.953125</ele>
<time>2013-11-22T10:07:03Z</time>
<speed>0.020000</speed>
<extensions>
<speed>0.0</speed>
<temp>0.00</temp>
<bpm>0</bpm>
<rpm>0.00</rpm>
</extensions>
</trkpt>
<trkpt lat="30.696075439" lon="34.948585510">
<ele>676.984375</ele>
<time>2013-11-22T10:07:08Z</time>
<speed>1.490000</speed>
<extensions>
<speed>1.5</speed>
<temp>0.00</temp>
<bpm>0</bpm>
<rpm>0.00</rpm>
</extensions>
</trkpt>
<trkpt lat="30.696132660" lon="34.948661804">
<ele>676.718750</ele>
<time>2013-11-22T10:07:13Z</time>
<speed>2.940000</speed>
<extensions>
<speed>2.9</speed>
<temp>0.00</temp>
<bpm>0</bpm>
<rpm>0.00</rpm>
</extensions>
</trkpt>
<trkpt lat="30.696243286" lon="34.948749542">
<ele>676.078125</ele>
<time>2013-11-22T10:07:18Z</time>
<speed>2.750000</speed>
<extensions>
<speed>2.7</speed>
<temp>0.00</temp>
<bpm>0</bpm>
<rpm>0.00</rpm>
</extensions>
</trkpt>
<trkpt lat="30.696338654" lon="34.948806763">
<ele>675.406250</ele>
<time>2013-11-22T10:07:23Z</time>
<speed>1.950000</speed>
<extensions>
<speed>1.9</speed>
<temp>0.00</temp>
<bpm>0</bpm>
<rpm>0.00</rpm>
</extensions>
</trkpt>
<trkpt lat="30.696393967" lon="34.948932648">
<ele>675.281250</ele>
<time>2013-11-22T10:07:28Z</time>
<speed>3.280000</speed>
<extensions>
<speed>3.3</speed>
<temp>0.00</temp>
<bpm>0</bpm>
<rpm>0.00</rpm>
</extensions>
</trkpt>
<trkpt lat="30.696498871" lon="34.949062347">
<ele>675.187500</ele>
<time>2013-11-22T10:07:33Z</time>
<speed>3.300000</speed>
<extensions>
<speed>3.3</speed>
<temp>0.00</temp>
<bpm>0</bpm>
<rpm>0.00</rpm>
</extensions>
</trkpt>
<trkpt lat="30.696590424" lon="34.949241638">
<ele>673.156250</ele>
<time>2013-11-22T10:07:38Z</time>
<speed>3.970000</speed>
<extensions>
<speed>4.0</speed>
<temp>0.00</temp>
<bpm>0</bpm>
<rpm>0.00</rpm>
</extensions>
</trkpt>
<trkpt lat="30.696670532" lon="34.949378967">
<ele>673.156250</ele>
<time>2013-11-22T10:07:43Z</time>
<speed>0.460000</speed>
<extensions>
<speed>0.5</speed>
<temp>0.00</temp>
<bpm>0</bpm>
<rpm>0.00</rpm>
</extensions>
</trkpt>
<trkpt lat="30.696659088" lon="34.949386597">
<ele>673.531250</ele>
<time>2013-11-22T10:07:48Z</time>
<speed>0.190000</speed>
<extensions>
<speed>0.2</speed>
<temp>0.00</temp>
<bpm>0</bpm>
<rpm>0.00</rpm>
</extensions>
</trkpt>
<trkpt lat="30.696651459" lon="34.949386597">
<ele>673.500000</ele>
<time>2013-11-22T10:07:53Z</time>
<speed>0.080000</speed>
<extensions>
<speed>0.1</speed>
<temp>0.00</temp>
<bpm>0</bpm>
<rpm>0.00</rpm>
</extensions>
</trkpt>
<trkpt lat="30.696651459" lon="34.949386597">
<ele>673.531250</ele>
<time>2013-11-22T10:07:58Z</time>
<speed>0.020000</speed>
<extensions>
<speed>0.0</speed>
<temp>0.00</temp>
<bpm>0</bpm>
<rpm>0.00</rpm>
</extensions>
</trkpt>
<trkpt lat="30.696649551" lon="34.949386597">
<ele>673.500000</ele>
<time>2013-11-22T10:08:03Z</time>
<speed>0.040000</speed>
<extensions>
<speed>0.0</speed>
<temp>0.00</temp>
<bpm>0</bpm>
<rpm>0.00</rpm>
</extensions>
</trkpt>
<trkpt lat="30.696670532" lon="34.949424744">
<ele>673.703125</ele>
<time>2013-11-22T10:08:08Z</time>
<speed>2.010000</speed>
<extensions>
<speed>2.0</speed>
<temp>0.00</temp>
<bpm>0</bpm>
<rpm>0.00</rpm>
</extensions>
</trkpt>
<trkpt lat="30.696710587" lon="34.949558258">
<ele>674.015625</ele>
<time>2013-11-22T10:08:13Z</time>
<speed>3.170000</speed>
<extensions>
<speed>3.2</speed>
<temp>0.00</temp>
<bpm>0</bpm>
<rpm>0.00</rpm>
</extensions>
</trkpt>
<trkpt lat="30.696758270" lon="34.949741364">
<ele>673.375000</ele>
<time>2013-11-22T10:08:18Z</time>
<speed>3.820000</speed>
<extensions>
<speed>3.8</speed>
<temp>0.00</temp>
<bpm>0</bpm>
<rpm>0.00</rpm>
</extensions>
</trkpt>
<trkpt lat="30.696783066" lon="34.949939728">
<ele>672.656250</ele>
<time>2013-11-22T10:08:23Z</time>
<speed>3.770000</speed>
<extensions>
<speed>3.8</speed>
<temp>0.00</temp>
<bpm>0</bpm>
<rpm>0.00</rpm>
</extensions>
</trkpt>
<trkpt lat="30.696763992" lon="34.950149536">
<ele>671.796875</ele>
<time>2013-11-22T10:08:28Z</time>
<speed>4.760000</speed>
<extensions>
<speed>4.8</speed>
<temp>0.00</temp>
<bpm>0</bpm>
<rpm>0.00</rpm>
</extensions>
</trkpt>
<trkpt lat="30.696777344" lon="34.950408936">
<ele>669.578125</ele>
<time>2013-11-22T10:08:33Z</time>
<speed>5.320000</speed>
<extensions>
<speed>5.3</speed>
<temp>0.00</temp>
<bpm>0</bpm>
<rpm>0.00</rpm>
</extensions>
</trkpt>
<trkpt lat="30.696893692" lon="34.950637817">
<ele>669.546875</ele>
<time>2013-11-22T10:08:38Z</time>
<speed>4.700000</speed>
<extensions>
<speed>4.7</speed>
<temp>0.00</temp>
<bpm>0</bpm>
<rpm>0.00</rpm>
</extensions>
</trkpt>
<trkpt lat="30.697053909" lon="34.950687408">
<ele>668.750000</ele>
<time>2013-11-22T10:08:43Z</time>
<speed>3.400000</speed>
<extensions>
<speed>3.4</speed>
<temp>0.00</temp>
<bpm>0</bpm>
<rpm>0.00</rpm>
</extensions>
</trkpt>
<trkpt lat="30.697238922" lon="34.950683594">
<ele>667.625000</ele>
<time>2013-11-22T10:08:48Z</time>
<speed>4.260000</speed>
<extensions>
<speed>4.3</speed>
<temp>0.00</temp>
<bpm>0</bpm>
<rpm>0.00</rpm>
</extensions>
</trkpt>
<trkpt lat="30.697444916" lon="34.950679779">
<ele>666.500000</ele>
<time>2013-11-22T10:08:53Z</time>
<speed>4.810000</speed>
<extensions>
<speed>4.8</speed>
<temp>0.00</temp>
<bpm>0</bpm>
<rpm>0.00</rpm>
</extensions>
</trkpt>
<trkpt lat="30.697685242" lon="34.950691223">
<ele>663.687500</ele>
<time>2013-11-22T10:08:58Z</time>
<speed>4.820000</speed>
<extensions>
<speed>4.8</speed>
<temp>0.00</temp>
<bpm>0</bpm>
<rpm>0.00</rpm>
</extensions>
</trkpt>
<trkpt lat="30.697826385" lon="34.950790405">
<ele>660.953125</ele>
<time>2013-11-22T10:09:03Z</time>
<speed>3.000000</speed>
<extensions>
<speed>3.0</speed>
<temp>0.00</temp>
<bpm>0</bpm>
<rpm>0.00</rpm>
</extensions>
</trkpt>
<trkpt lat="30.697948456" lon="34.950878143">
<ele>660.796875</ele>
<time>2013-11-22T10:09:08Z</time>
<speed>4.160000</speed>
<extensions>
<speed>4.2</speed>
<temp>0.00</temp>
<bpm>0</bpm>
<rpm>0.00</rpm>
</extensions>
</trkpt>
<trkpt lat="30.698192596" lon="34.950893402">
<ele>657.625000</ele>
<time>2013-11-22T10:09:13Z</time>
<speed>6.360000</speed>
<extensions>
<speed>6.4</speed>
<temp>0.00</temp>
<bpm>0</bpm>
<rpm>0.00</rpm>
</extensions>
</trkpt>
<trkpt lat="30.698490143" lon="34.950798035">
<ele>654.500000</ele>
<time>2013-11-22T10:09:18Z</time>
<speed>6.560000</speed>
<extensions>
<speed>6.6</speed>
<temp>0.00</temp>
<bpm>0</bpm>
<rpm>0.00</rpm>
</extensions>
</trkpt>
<trkpt lat="30.698822021" lon="34.950794220">
<ele>651.718750</ele>
<time>2013-11-22T10:09:23Z</time>
<speed>8.280000</speed>
<extensions>
<speed>8.3</speed>
<temp>0.00</temp>
<bpm>0</bpm>
<rpm>0.00</rpm>
</extensions>
</trkpt>
<trkpt lat="30.699192047" lon="34.950939178">
<ele>648.765625</ele>
<time>2013-11-22T10:09:28Z</time>
<speed>7.880000</speed>
<extensions>
<speed>7.9</speed>
<temp>0.00</temp>
<bpm>0</bpm>
<rpm>0.00</rpm>
</extensions>
</trkpt>
<trkpt lat="30.699569702" lon="34.951198578">
<ele>632.609375</ele>
<time>2013-11-22T10:09:34Z</time>
<speed>4.890000</speed>
<extensions>
<speed>4.9</speed>
<temp>0.00</temp>
<bpm>0</bpm>
<rpm>0.00</rpm>
</extensions>
</trkpt>
<trkpt lat="30.699607849" lon="34.951248169">
<ele>639.281250</ele>
<time>2013-11-22T10:09:39Z</time>
<speed>0.040000</speed>
<extensions>
<speed>0.0</speed>
<temp>0.00</temp>
<bpm>0</bpm>
<rpm>0.00</rpm>
</extensions>
</trkpt>
<trkpt lat="30.699623108" lon="34.951267242">
<ele>643.656250</ele>
<time>2013-11-22T10:09:44Z</time>
<speed>0.030000</speed>
<extensions>
<speed>0.0</speed>
<temp>0.00</temp>
<bpm>0</bpm>
<rpm>0.00</rpm>
</extensions>
</trkpt>
<trkpt lat="30.699604034" lon="34.951274872">
<ele>643.781250</ele>
<time>2013-11-22T10:09:49Z</time>
<speed>0.010000</speed>
<extensions>
<speed>0.0</speed>
<temp>0.00</temp>
<bpm>0</bpm>
<rpm>0.00</rpm>
</extensions>
</trkpt>
<trkpt lat="30.699596405" lon="34.951267242">
<ele>645.390625</ele>
<time>2013-11-22T10:09:54Z</time>
<speed>0.180000</speed>
<extensions>
<speed>0.2</speed>
<temp>0.00</temp>
<bpm>0</bpm>
<rpm>0.00</rpm>
</extensions>
</trkpt>
<trkpt lat="30.699600220" lon="34.951255798">
<ele>645.437500</ele>
<time>2013-11-22T10:09:59Z</time>
<speed>0.020000</speed>
<extensions>
<speed>0.0</speed>
<temp>0.00</temp>
<bpm>0</bpm>
<rpm>0.00</rpm>
</extensions>
</trkpt>
<trkpt lat="30.699602127" lon="34.951278687">
<ele>645.250000</ele>
<time>2013-11-22T10:10:04Z</time>
<speed>0.520000</speed>
<extensions>
<speed>0.5</speed>
<temp>0.00</temp>
<bpm>0</bpm>
<rpm>0.00</rpm>
</extensions>
</trkpt>
<trkpt lat="30.699600220" lon="34.951313019">
<ele>646.312500</ele>
<time>2013-11-22T10:10:09Z</time>
<speed>0.710000</speed>
<extensions>
<speed>0.7</speed>
<temp>0.00</temp>
<bpm>0</bpm>
<rpm>0.00</rpm>
</extensions>
</trkpt>
<trkpt lat="30.699602127" lon="34.951339722">
<ele>646.203125</ele>
<time>2013-11-22T10:10:14Z</time>
<speed>0.160000</speed>
<extensions>
<speed>0.2</speed>
<temp>0.00</temp>
<bpm>0</bpm>
<rpm>0.00</rpm>
</extensions>
</trkpt>
<trkpt lat="30.699607849" lon="34.951339722">
<ele>645.500000</ele>
<time>2013-11-22T10:10:19Z</time>
<speed>0.020000</speed>
<extensions>
<speed>0.0</speed>
<temp>0.00</temp>
<bpm>0</bpm>
<rpm>0.00</rpm>
</extensions>
</trkpt>
<trkpt lat="30.699604034" lon="34.951339722">
<ele>646.828125</ele>
<time>2013-11-22T10:10:24Z</time>
<speed>0.140000</speed>
<extensions>
<speed>0.1</speed>
<temp>0.00</temp>
<bpm>0</bpm>
<rpm>0.00</rpm>
</extensions>
</trkpt>
<trkpt lat="30.699604034" lon="34.951324463">
<ele>646.593750</ele>
<time>2013-11-22T10:10:29Z</time>
<speed>0.070000</speed>
<extensions>
<speed>0.1</speed>
<temp>0.00</temp>
<bpm>0</bpm>
<rpm>0.00</rpm>
</extensions>
</trkpt>
<trkpt lat="30.699602127" lon="34.951320648">
<ele>646.687500</ele>
<time>2013-11-22T10:10:34Z</time>
<extensions>
<speed>0.0</speed>
<temp>0.00</temp>
<bpm>0</bpm>
<rpm>0.00</rpm>
</extensions>
</trkpt>
<trkpt lat="30.699604034" lon="34.951320648">
<ele>646.703125</ele>
<time>2013-11-22T10:10:39Z</time>
<speed>0.030000</speed>
<extensions>
<speed>0.0</speed>
<temp>0.00</temp>
<bpm>0</bpm>
<rpm>0.00</rpm>
</extensions>
</trkpt>
<trkpt lat="30.699604034" lon="34.951320648">
<ele>646.687500</ele>
<time>2013-11-22T10:10:44Z</time>
<extensions>
<speed>0.0</speed>
<temp>0.00</temp>
<bpm>0</bpm>
<rpm>0.00</rpm>
</extensions>
</trkpt>
<trkpt lat="30.699604034" lon="34.951320648">
<ele>646.671875</ele>
<time>2013-11-22T10:10:49Z</time>
<extensions>
<speed>0.0</speed>
<temp>0.00</temp>
<bpm>0</bpm>
<rpm>0.00</rpm>
</extensions>
</trkpt>
<trkpt lat="30.699604034" lon="34.951320648">
<ele>646.656250</ele>
<time>2013-11-22T10:10:54Z</time>
<extensions>
<speed>0.0</speed>
<temp>0.00</temp>
<bpm>0</bpm>
<rpm>0.00</rpm>
</extensions>
</trkpt>
<trkpt lat="30.699604034" lon="34.951320648">
<ele>646.640625</ele>
<time>2013-11-22T10:10:59Z</time>
<extensions>
<speed>0.0</speed>
<temp>0.00</temp>
<bpm>0</bpm>
<rpm>0.00</rpm>
</extensions>
</trkpt>
<trkpt lat="30.699602127" lon="34.951320648">
<ele>646.640625</ele>
<time>2013-11-22T10:11:04Z</time>
<extensions>
<speed>0.0</speed>
<temp>0.00</temp>
<bpm>0</bpm>
<rpm>0.00</rpm>
</extensions>
</trkpt>
<trkpt lat="30.699602127" lon="34.951320648">
<ele>646.625000</ele>
<time>2013-11-22T10:11:09Z</time>
<extensions>
<speed>0.0</speed>
<temp>0.00</temp>
<bpm>0</bpm>
<rpm>0.00</rpm>
</extensions>
</trkpt>
<trkpt lat="30.699602127" lon="34.951320648">
<ele>646.609375</ele>
<time>2013-11-22T10:11:14Z</time>
<extensions>
<speed>0.0</speed>
<temp>0.00</temp>
<bpm>0</bpm>
<rpm>0.00</rpm>
</extensions>
</trkpt>
<trkpt lat="30.699602127" lon="34.951320648">
<ele>646.593750</ele>
<time>2013-11-22T10:11:19Z</time>
<extensions>
<speed>0.0</speed>
<temp>0.00</temp>
<bpm>0</bpm>
<rpm>0.00</rpm>
</extensions>
</trkpt>
<trkpt lat="30.699602127" lon="34.951320648">
<ele>646.593750</ele>
<time>2013-11-22T10:11:24Z</time>
<speed>0.010000</speed>
<extensions>
<speed>0.0</speed>
<temp>0.00</temp>
<bpm>0</bpm>
<rpm>0.00</rpm>
</extensions>
</trkpt>
<trkpt lat="30.699602127" lon="34.951320648">
<ele>646.578125</ele>
<time>2013-11-22T10:11:29Z</time>
<speed>0.010000</speed>
<extensions>
<speed>0.0</speed>
<temp>0.00</temp>
<bpm>0</bpm>
<rpm>0.00</rpm>
</extensions>
</trkpt>
<trkpt lat="30.699602127" lon="34.951320648">
<ele>646.562500</ele>
<time>2013-11-22T10:11:34Z</time>
<extensions>
<speed>0.0</speed>
<temp>0.00</temp>
<bpm>0</bpm>
<rpm>0.00</rpm>
</extensions>
</trkpt>
<trkpt lat="30.699602127" lon="34.951320648">
<ele>646.562500</ele>
<time>2013-11-22T10:11:39Z</time>
<extensions>
<speed>0.0</speed>
<temp>0.00</temp>
<bpm>0</bpm>
<rpm>0.00</rpm>
</extensions>
</trkpt>
<trkpt lat="30.699602127" lon="34.951320648">
<ele>646.546875</ele>
<time>2013-11-22T10:11:44Z</time>
<speed>0.010000</speed>
<extensions>
<speed>0.0</speed>
<temp>0.00</temp>
<bpm>0</bpm>
<rpm>0.00</rpm>
</extensions>
</trkpt>
<trkpt lat="30.699602127" lon="34.951320648">
<ele>646.531250</ele>
<time>2013-11-22T10:11:49Z</time>
<extensions>
<speed>0.0</speed>
<temp>0.00</temp>
<bpm>0</bpm>
<rpm>0.00</rpm>
</extensions>
</trkpt>
<trkpt lat="30.699602127" lon="34.951320648">
<ele>646.515625</ele>
<time>2013-11-22T10:11:54Z</time>
<extensions>
<speed>0.0</speed>
<temp>0.00</temp>
<bpm>0</bpm>
<rpm>0.00</rpm>
</extensions>
</trkpt>
<trkpt lat="30.699602127" lon="34.951320648">
<ele>646.500000</ele>
<time>2013-11-22T10:11:59Z</time>
<speed>0.010000</speed>
<extensions>
<speed>0.0</speed>
<temp>0.00</temp>
<bpm>0</bpm>
<rpm>0.00</rpm>
</extensions>
</trkpt>
<trkpt lat="30.699602127" lon="34.951320648">
<ele>646.484375</ele>
<time>2013-11-22T10:12:04Z</time>
<extensions>
<speed>0.0</speed>
<temp>0.00</temp>
<bpm>0</bpm>
<rpm>0.00</rpm>
</extensions>
</trkpt>
<trkpt lat="30.699602127" lon="34.951320648">
<ele>646.453125</ele>
<time>2013-11-22T10:12:09Z</time>
<extensions>
<speed>0.0</speed>
<temp>0.00</temp>
<bpm>0</bpm>
<rpm>0.00</rpm>
</extensions>
</trkpt>
<trkpt lat="30.699602127" lon="34.951320648">
<ele>646.421875</ele>
<time>2013-11-22T10:12:14Z</time>
<extensions>
<speed>0.0</speed>
<temp>0.00</temp>
<bpm>0</bpm>
<rpm>0.00</rpm>
</extensions>
</trkpt>
<trkpt lat="30.699602127" lon="34.951320648">
<ele>646.390625</ele>
<time>2013-11-22T10:12:19Z</time>
<extensions>
<speed>0.0</speed>
<temp>0.00</temp>
<bpm>0</bpm>
<rpm>0.00</rpm>
</extensions>
</trkpt>
<trkpt lat="30.699602127" lon="34.951320648">
<ele>646.375000</ele>
<time>2013-11-22T10:12:24Z</time>
<extensions>
<speed>0.0</speed>
<temp>0.00</temp>
<bpm>0</bpm>
<rpm>0.00</rpm>
</extensions>
</trkpt>
<trkpt lat="30.699602127" lon="34.951324463">
<ele>646.343750</ele>
<time>2013-11-22T10:12:29Z</time>
<extensions>
<speed>0.0</speed>
<temp>0.00</temp>
<bpm>0</bpm>
<rpm>0.00</rpm>
</extensions>
</trkpt>
<trkpt lat="30.699602127" lon="34.951324463">
<ele>646.328125</ele>
<time>2013-11-22T10:12:34Z</time>
<extensions>
<speed>0.0</speed>
<temp>0.00</temp>
<bpm>0</bpm>
<rpm>0.00</rpm>
</extensions>
</trkpt>
<trkpt lat="30.699602127" lon="34.951324463">
<ele>646.296875</ele>
<time>2013-11-22T10:12:39Z</time>
<extensions>
<speed>0.0</speed>
<temp>0.00</temp>
<bpm>0</bpm>
<rpm>0.00</rpm>
</extensions>
</trkpt>
<trkpt lat="30.699602127" lon="34.951324463">
<ele>646.281250</ele>
<time>2013-11-22T10:12:44Z</time>
<extensions>
<speed>0.0</speed>
<temp>0.00</temp>
<bpm>0</bpm>
<rpm>0.00</rpm>
</extensions>
</trkpt>
<trkpt lat="30.699602127" lon="34.951324463">
<ele>646.250000</ele>
<time>2013-11-22T10:12:49Z</time>
<speed>0.010000</speed>
<extensions>
<speed>0.0</speed>
<temp>0.00</temp>
<bpm>0</bpm>
<rpm>0.00</rpm>
</extensions>
</trkpt>
<trkpt lat="30.699602127" lon="34.951324463">
<ele>646.234375</ele>
<time>2013-11-22T10:12:54Z</time>
<speed>0.010000</speed>
<extensions>
<speed>0.0</speed>
<temp>0.00</temp>
<bpm>0</bpm>
<rpm>0.00</rpm>
</extensions>
</trkpt>
<trkpt lat="30.699602127" lon="34.951324463">
<ele>646.218750</ele>
<time>2013-11-22T10:12:59Z</time>
<speed>0.020000</speed>
<extensions>
<speed>0.0</speed>
<temp>0.00</temp>
<bpm>0</bpm>
<rpm>0.00</rpm>
</extensions>
</trkpt>
<trkpt lat="30.699602127" lon="34.951324463">
<ele>646.203125</ele>
<time>2013-11-22T10:13:04Z</time>
<speed>0.010000</speed>
<extensions>
<speed>0.0</speed>
<temp>0.00</temp>
<bpm>0</bpm>
<rpm>0.00</rpm>
</extensions>
</trkpt>
<trkpt lat="30.699602127" lon="34.951324463">
<ele>646.203125</ele>
<time>2013-11-22T10:13:09Z</time>
<speed>0.010000</speed>
<extensions>
<speed>0.0</speed>
<temp>0.00</temp>
<bpm>0</bpm>
<rpm>0.00</rpm>
</extensions>
</trkpt>
<trkpt lat="30.699602127" lon="34.951324463">
<ele>646.187500</ele>
<time>2013-11-22T10:13:14Z</time>
<extensions>
<speed>0.0</speed>
<temp>0.00</temp>
<bpm>0</bpm>
<rpm>0.00</rpm>
</extensions>
</trkpt>
<trkpt lat="30.699602127" lon="34.951324463">
<ele>646.187500</ele>
<time>2013-11-22T10:13:19Z</time>
<speed>0.100000</speed>
<extensions>
<speed>0.1</speed>
<temp>0.00</temp>
<bpm>0</bpm>
<rpm>0.00</rpm>
</extensions>
</trkpt>
<trkpt lat="30.699600220" lon="34.951309204">
<ele>647.031250</ele>
<time>2013-11-22T10:13:24Z</time>
<speed>0.020000</speed>
<extensions>
<speed>0.0</speed>
<temp>0.00</temp>
<bpm>0</bpm>
<rpm>0.00</rpm>
</extensions>
</trkpt>
<trkpt lat="30.699604034" lon="34.951297760">
<ele>647.437500</ele>
<time>2013-11-22T10:13:29Z</time>
<extensions>
<speed>0.0</speed>
<temp>0.00</temp>
<bpm>0</bpm>
<rpm>0.00</rpm>
</extensions>
</trkpt>
<trkpt lat="30.699605942" lon="34.951293945">
<ele>647.765625</ele>
<time>2013-11-22T10:13:34Z</time>
<speed>0.010000</speed>
<extensions>
<speed>0.0</speed>
<temp>0.00</temp>
<bpm>0</bpm>
<rpm>0.00</rpm>
</extensions>
</trkpt>
<trkpt lat="30.699605942" lon="34.951293945">
<ele>647.765625</ele>
<time>2013-11-22T10:13:39Z</time>
<extensions>
<speed>0.0</speed>
<temp>0.00</temp>
<bpm>0</bpm>
<rpm>0.00</rpm>
</extensions>
</trkpt>
<trkpt lat="30.699605942" lon="34.951293945">
<ele>647.765625</ele>
<time>2013-11-22T10:13:44Z</time>
<extensions>
<speed>0.0</speed>
<temp>0.00</temp>
<bpm>0</bpm>
<rpm>0.00</rpm>
</extensions>
</trkpt>
<trkpt lat="30.699605942" lon="34.951293945">
<ele>647.765625</ele>
<time>2013-11-22T10:13:49Z</time>
<extensions>
<speed>0.0</speed>
<temp>0.00</temp>
<bpm>0</bpm>
<rpm>0.00</rpm>
</extensions>
</trkpt>
<trkpt lat="30.699605942" lon="34.951293945">
<ele>647.765625</ele>
<time>2013-11-22T10:13:54Z</time>
<extensions>
<speed>0.0</speed>
<temp>0.00</temp>
<bpm>0</bpm>
<rpm>0.00</rpm>
</extensions>
</trkpt>
<trkpt lat="30.699605942" lon="34.951293945">
<ele>647.750000</ele>
<time>2013-11-22T10:13:59Z</time>
<speed>0.010000</speed>
<extensions>
<speed>0.0</speed>
<temp>0.00</temp>
<bpm>0</bpm>
<rpm>0.00</rpm>
</extensions>
</trkpt>
<trkpt lat="30.699605942" lon="34.951293945">
<ele>647.734375</ele>
<time>2013-11-22T10:14:04Z</time>
<extensions>
<speed>0.0</speed>
<temp>0.00</temp>
<bpm>0</bpm>
<rpm>0.00</rpm>
</extensions>
</trkpt>
<trkpt lat="30.699605942" lon="34.951293945">
<ele>647.734375</ele>
<time>2013-11-22T10:14:09Z</time>
<extensions>
<speed>0.0</speed>
<temp>0.00</temp>
<bpm>0</bpm>
<rpm>0.00</rpm>
</extensions>
</trkpt>
<trkpt lat="30.699605942" lon="34.951293945">
<ele>647.750000</ele>
<time>2013-11-22T10:14:14Z</time>
<extensions>
<speed>0.0</speed>
<temp>0.00</temp>
<bpm>0</bpm>
<rpm>0.00</rpm>
</extensions>
</trkpt>
<trkpt lat="30.699604034" lon="34.951293945">
<ele>647.734375</ele>
<time>2013-11-22T10:14:19Z</time>
<extensions>
<speed>0.0</speed>
<temp>0.00</temp>
<bpm>0</bpm>
<rpm>0.00</rpm>
</extensions>
</trkpt>
<trkpt lat="30.699604034" lon="34.951293945">
<ele>647.734375</ele>
<time>2013-11-22T10:14:24Z</time>
<extensions>
<speed>0.0</speed>
<temp>0.00</temp>
<bpm>0</bpm>
<rpm>0.00</rpm>
</extensions>
</trkpt>
<trkpt lat="30.699604034" lon="34.951293945">
<ele>647.718750</ele>
<time>2013-11-22T10:14:29Z</time>
<extensions>
<speed>0.0</speed>
<temp>0.00</temp>
<bpm>0</bpm>
<rpm>0.00</rpm>
</extensions>
</trkpt>
<trkpt lat="30.699604034" lon="34.951293945">
<ele>647.718750</ele>
<time>2013-11-22T10:14:34Z</time>
<extensions>
<speed>0.0</speed>
<temp>0.00</temp>
<bpm>0</bpm>
<rpm>0.00</rpm>
</extensions>
</trkpt>
<trkpt lat="30.699604034" lon="34.951297760">
<ele>647.656250</ele>
<time>2013-11-22T10:14:39Z</time>
<extensions>
<speed>0.0</speed>
<temp>0.00</temp>
<bpm>0</bpm>
<rpm>0.00</rpm>
</extensions>
</trkpt>
<trkpt lat="30.699604034" lon="34.951305389">
<ele>647.203125</ele>
<time>2013-11-22T10:14:44Z</time>
<extensions>
<speed>0.0</speed>
<temp>0.00</temp>
<bpm>0</bpm>
<rpm>0.00</rpm>
</extensions>
</trkpt>
<trkpt lat="30.699604034" lon="34.951309204">
<ele>646.687500</ele>
<time>2013-11-22T10:14:49Z</time>
<extensions>
<speed>0.0</speed>
<temp>0.00</temp>
<bpm>0</bpm>
<rpm>0.00</rpm>
</extensions>
</trkpt>
<trkpt lat="30.699600220" lon="34.951309204">
<ele>646.343750</ele>
<time>2013-11-22T10:14:54Z</time>
<extensions>
<speed>0.0</speed>
<temp>0.00</temp>
<bpm>0</bpm>
<rpm>0.00</rpm>
</extensions>
</trkpt>
<trkpt lat="30.699602127" lon="34.951309204">
<ele>645.984375</ele>
<time>2013-11-22T10:14:59Z</time>
<extensions>
<speed>0.0</speed>
<temp>0.00</temp>
<bpm>0</bpm>
<rpm>0.00</rpm>
</extensions>
</trkpt>
<trkpt lat="30.699602127" lon="34.951309204">
<ele>646.046875</ele>
<time>2013-11-22T10:15:04Z</time>
<extensions>
<speed>0.0</speed>
<temp>0.00</temp>
<bpm>0</bpm>
<rpm>0.00</rpm>
</extensions>
</trkpt>
<trkpt lat="30.699602127" lon="34.951313019">
<ele>646.328125</ele>
<time>2013-11-22T10:15:09Z</time>
<speed>0.020000</speed>
<extensions>
<speed>0.0</speed>
<temp>0.00</temp>
<bpm>0</bpm>
<rpm>0.00</rpm>
</extensions>
</trkpt>
<trkpt lat="30.699604034" lon="34.951309204">
<ele>646.265625</ele>
<time>2013-11-22T10:15:14Z</time>
<speed>0.010000</speed>
<extensions>
<speed>0.0</speed>
<temp>0.00</temp>
<bpm>0</bpm>
<rpm>0.00</rpm>
</extensions>
</trkpt>
<trkpt lat="30.699605942" lon="34.951313019">
<ele>646.234375</ele>
<time>2013-11-22T10:15:19Z</time>
<speed>0.010000</speed>
<extensions>
<speed>0.0</speed>
<temp>0.00</temp>
<bpm>0</bpm>
<rpm>0.00</rpm>
</extensions>
</trkpt>
<trkpt lat="30.699605942" lon="34.951313019">
<ele>646.218750</ele>
<time>2013-11-22T10:15:24Z</time>
<extensions>
<speed>0.0</speed>
<temp>0.00</temp>
<bpm>0</bpm>
<rpm>0.00</rpm>
</extensions>
</trkpt>
<trkpt lat="30.699605942" lon="34.951313019">
<ele>646.218750</ele>
<time>2013-11-22T10:15:29Z</time>
<speed>0.020000</speed>
<extensions>
<speed>0.0</speed>
<temp>0.00</temp>
<bpm>0</bpm>
<rpm>0.00</rpm>
</extensions>
</trkpt>
<trkpt lat="30.699605942" lon="34.951313019">
<ele>646.218750</ele>
<time>2013-11-22T10:15:34Z</time>
<extensions>
<speed>0.0</speed>
<temp>0.00</temp>
<bpm>0</bpm>
<rpm>0.00</rpm>
</extensions>
</trkpt>
<trkpt lat="30.699605942" lon="34.951313019">
<ele>646.218750</ele>
<time>2013-11-22T10:15:39Z</time>
<extensions>
<speed>0.0</speed>
<temp>0.00</temp>
<bpm>0</bpm>
<rpm>0.00</rpm>
</extensions>
</trkpt>
<trkpt lat="30.699605942" lon="34.951313019">
<ele>646.218750</ele>
<time>2013-11-22T10:15:44Z</time>
<extensions>
<speed>0.0</speed>
<temp>0.00</temp>
<bpm>0</bpm>
<rpm>0.00</rpm>
</extensions>
</trkpt>
<trkpt lat="30.699605942" lon="34.951313019">
<ele>646.218750</ele>
<time>2013-11-22T10:15:49Z</time>
<extensions>
<speed>0.0</speed>
<temp>0.00</temp>
<bpm>0</bpm>
<rpm>0.00</rpm>
</extensions>
</trkpt>
<trkpt lat="30.699607849" lon="34.951313019">
<ele>646.203125</ele>
<time>2013-11-22T10:15:54Z</time>
<extensions>
<speed>0.0</speed>
<temp>0.00</temp>
<bpm>0</bpm>
<rpm>0.00</rpm>
</extensions>
</trkpt>
<trkpt lat="30.699607849" lon="34.951313019">
<ele>646.203125</ele>
<time>2013-11-22T10:15:59Z</time>
<speed>0.010000</speed>
<extensions>
<speed>0.0</speed>
<temp>0.00</temp>
<bpm>0</bpm>
<rpm>0.00</rpm>
</extensions>
</trkpt>
<trkpt lat="30.699607849" lon="34.951313019">
<ele>646.203125</ele>
<time>2013-11-22T10:16:04Z</time>
<extensions>
<speed>0.0</speed>
<temp>0.00</temp>
<bpm>0</bpm>
<rpm>0.00</rpm>
</extensions>
</trkpt>
<trkpt lat="30.699607849" lon="34.951313019">
<ele>646.203125</ele>
<time>2013-11-22T10:16:09Z</time>
<extensions>
<speed>0.0</speed>
<temp>0.00</temp>
<bpm>0</bpm>
<rpm>0.00</rpm>
</extensions>
</trkpt>
<trkpt lat="30.699607849" lon="34.951313019">
<ele>646.203125</ele>
<time>2013-11-22T10:16:14Z</time>
<extensions>
<speed>0.0</speed>
<temp>0.00</temp>
<bpm>0</bpm>
<rpm>0.00</rpm>
</extensions>
</trkpt>
<trkpt lat="30.699607849" lon="34.951313019">
<ele>646.203125</ele>
<time>2013-11-22T10:16:19Z</time>
<speed>0.010000</speed>
<extensions>
<speed>0.0</speed>
<temp>0.00</temp>
<bpm>0</bpm>
<rpm>0.00</rpm>
</extensions>
</trkpt>
<trkpt lat="30.699607849" lon="34.951313019">
<ele>646.203125</ele>
<time>2013-11-22T10:16:24Z</time>
<extensions>
<speed>0.0</speed>
<temp>0.00</temp>
<bpm>0</bpm>
<rpm>0.00</rpm>
</extensions>
</trkpt>
<trkpt lat="30.699607849" lon="34.951313019">
<ele>646.203125</ele>
<time>2013-11-22T10:16:29Z</time>
<extensions>
<speed>0.0</speed>
<temp>0.00</temp>
<bpm>0</bpm>
<rpm>0.00</rpm>
</extensions>
</trkpt>
<trkpt lat="30.699607849" lon="34.951313019">
<ele>646.203125</ele>
<time>2013-11-22T10:16:34Z</time>
<extensions>
<speed>0.0</speed>
<temp>0.00</temp>
<bpm>0</bpm>
<rpm>0.00</rpm>
</extensions>
</trkpt>
<trkpt lat="30.699607849" lon="34.951313019">
<ele>646.187500</ele>
<time>2013-11-22T10:16:39Z</time>
<extensions>
<speed>0.0</speed>
<temp>0.00</temp>
<bpm>0</bpm>
<rpm>0.00</rpm>
</extensions>
</trkpt>
<trkpt lat="30.699607849" lon="34.951313019">
<ele>646.187500</ele>
<time>2013-11-22T10:16:44Z</time>
<extensions>
<speed>0.0</speed>
<temp>0.00</temp>
<bpm>0</bpm>
<rpm>0.00</rpm>
</extensions>
</trkpt>
<trkpt lat="30.699607849" lon="34.951313019">
<ele>646.203125</ele>
<time>2013-11-22T10:16:49Z</time>
<extensions>
<speed>0.0</speed>
<temp>0.00</temp>
<bpm>0</bpm>
<rpm>0.00</rpm>
</extensions>
</trkpt>
<trkpt lat="30.699607849" lon="34.951313019">
<ele>646.187500</ele>
<time>2013-11-22T10:16:54Z</time>
<extensions>
<speed>0.0</speed>
<temp>0.00</temp>
<bpm>0</bpm>
<rpm>0.00</rpm>
</extensions>
</trkpt>
<trkpt lat="30.699607849" lon="34.951313019">
<ele>646.187500</ele>
<time>2013-11-22T10:16:59Z</time>
<speed>0.010000</speed>
<extensions>
<speed>0.0</speed>
<temp>0.00</temp>
<bpm>0</bpm>
<rpm>0.00</rpm>
</extensions>
</trkpt>
<trkpt lat="30.699607849" lon="34.951313019">
<ele>646.187500</ele>
<time>2013-11-22T10:17:04Z</time>
<extensions>
<speed>0.0</speed>
<temp>0.00</temp>
<bpm>0</bpm>
<rpm>0.00</rpm>
</extensions>
</trkpt>
<trkpt lat="30.699607849" lon="34.951313019">
<ele>646.203125</ele>
<time>2013-11-22T10:17:09Z</time>
<extensions>
<speed>0.0</speed>
<temp>0.00</temp>
<bpm>0</bpm>
<rpm>0.00</rpm>
</extensions>
</trkpt>
<trkpt lat="30.699607849" lon="34.951313019">
<ele>646.187500</ele>
<time>2013-11-22T10:17:14Z</time>
<extensions>
<speed>0.0</speed>
<temp>0.00</temp>
<bpm>0</bpm>
<rpm>0.00</rpm>
</extensions>
</trkpt>
<trkpt lat="30.699607849" lon="34.951313019">
<ele>646.187500</ele>
<time>2013-11-22T10:17:19Z</time>
<extensions>
<speed>0.0</speed>
<temp>0.00</temp>
<bpm>0</bpm>
<rpm>0.00</rpm>
</extensions>
</trkpt>
<trkpt lat="30.699607849" lon="34.951313019">
<ele>646.187500</ele>
<time>2013-11-22T10:17:24Z</time>
<extensions>
<speed>0.0</speed>
<temp>0.00</temp>
<bpm>0</bpm>
<rpm>0.00</rpm>
</extensions>
</trkpt>
<trkpt lat="30.699607849" lon="34.951316833">
<ele>646.187500</ele>
<time>2013-11-22T10:17:29Z</time>
<extensions>
<speed>0.0</speed>
<temp>0.00</temp>
<bpm>0</bpm>
<rpm>0.00</rpm>
</extensions>
</trkpt>
<trkpt lat="30.699607849" lon="34.951316833">
<ele>646.203125</ele>
<time>2013-11-22T10:17:34Z</time>
<extensions>
<speed>0.0</speed>
<temp>0.00</temp>
<bpm>0</bpm>
<rpm>0.00</rpm>
</extensions>
</trkpt>
<trkpt lat="30.699607849" lon="34.951316833">
<ele>646.203125</ele>
<time>2013-11-22T10:17:39Z</time>
<extensions>
<speed>0.0</speed>
<temp>0.00</temp>
<bpm>0</bpm>
<rpm>0.00</rpm>
</extensions>
</trkpt>
<trkpt lat="30.699607849" lon="34.951316833">
<ele>646.218750</ele>
<time>2013-11-22T10:17:44Z</time>
<extensions>
<speed>0.0</speed>
<temp>0.00</temp>
<bpm>0</bpm>
<rpm>0.00</rpm>
</extensions>
</trkpt>
<trkpt lat="30.699607849" lon="34.951316833">
<ele>646.234375</ele>
<time>2013-11-22T10:17:49Z</time>
<speed>0.010000</speed>
<extensions>
<speed>0.0</speed>
<temp>0.00</temp>
<bpm>0</bpm>
<rpm>0.00</rpm>
</extensions>
</trkpt>
<trkpt lat="30.699607849" lon="34.951316833">
<ele>646.250000</ele>
<time>2013-11-22T10:17:54Z</time>
<extensions>
<speed>0.0</speed>
<temp>0.00</temp>
<bpm>0</bpm>
<rpm>0.00</rpm>
</extensions>
</trkpt>
<trkpt lat="30.699607849" lon="34.951316833">
<ele>646.250000</ele>
<time>2013-11-22T10:17:59Z</time>
<speed>0.010000</speed>
<extensions>
<speed>0.0</speed>
<temp>0.00</temp>
<bpm>0</bpm>
<rpm>0.00</rpm>
</extensions>
</trkpt>
<trkpt lat="30.699607849" lon="34.951316833">
<ele>646.250000</ele>
<time>2013-11-22T10:18:04Z</time>
<extensions>
<speed>0.0</speed>
<temp>0.00</temp>
<bpm>0</bpm>
<rpm>0.00</rpm>
</extensions>
</trkpt>
<trkpt lat="30.699607849" lon="34.951316833">
<ele>646.265625</ele>
<time>2013-11-22T10:18:09Z</time>
<speed>0.010000</speed>
<extensions>
<speed>0.0</speed>
<temp>0.00</temp>
<bpm>0</bpm>
<rpm>0.00</rpm>
</extensions>
</trkpt>
<trkpt lat="30.699607849" lon="34.951316833">
<ele>646.265625</ele>
<time>2013-11-22T10:18:14Z</time>
<speed>0.010000</speed>
<extensions>
<speed>0.0</speed>
<temp>0.00</temp>
<bpm>0</bpm>
<rpm>0.00</rpm>
</extensions>
</trkpt>
<trkpt lat="30.699607849" lon="34.951316833">
<ele>646.281250</ele>
<time>2013-11-22T10:18:19Z</time>
<extensions>
<speed>0.0</speed>
<temp>0.00</temp>
<bpm>0</bpm>
<rpm>0.00</rpm>
</extensions>
</trkpt>
<trkpt lat="30.699607849" lon="34.951316833">
<ele>646.281250</ele>
<time>2013-11-22T10:18:24Z</time>
<extensions>
<speed>0.0</speed>
<temp>0.00</temp>
<bpm>0</bpm>
<rpm>0.00</rpm>
</extensions>
</trkpt>
<trkpt lat="30.699607849" lon="34.951316833">
<ele>646.296875</ele>
<time>2013-11-22T10:18:29Z</time>
<extensions>
<speed>0.0</speed>
<temp>0.00</temp>
<bpm>0</bpm>
<rpm>0.00</rpm>
</extensions>
</trkpt>
<trkpt lat="30.699607849" lon="34.951316833">
<ele>646.296875</ele>
<time>2013-11-22T10:18:34Z</time>
<extensions>
<speed>0.0</speed>
<temp>0.00</temp>
<bpm>0</bpm>
<rpm>0.00</rpm>
</extensions>
</trkpt>
<trkpt lat="30.699607849" lon="34.951316833">
<ele>646.296875</ele>
<time>2013-11-22T10:18:39Z</time>
<extensions>
<speed>0.0</speed>
<temp>0.00</temp>
<bpm>0</bpm>
<rpm>0.00</rpm>
</extensions>
</trkpt>
<trkpt lat="30.699607849" lon="34.951316833">
<ele>646.312500</ele>
<time>2013-11-22T10:18:44Z</time>
<extensions>
<speed>0.0</speed>
<temp>0.00</temp>
<bpm>0</bpm>
<rpm>0.00</rpm>
</extensions>
</trkpt>
<trkpt lat="30.699607849" lon="34.951316833">
<ele>646.312500</ele>
<time>2013-11-22T10:18:49Z</time>
<speed>0.010000</speed>
<extensions>
<speed>0.0</speed>
<temp>0.00</temp>
<bpm>0</bpm>
<rpm>0.00</rpm>
</extensions>
</trkpt>
<trkpt lat="30.699607849" lon="34.951316833">
<ele>646.312500</ele>
<time>2013-11-22T10:18:54Z</time>
<speed>0.010000</speed>
<extensions>
<speed>0.0</speed>
<temp>0.00</temp>
<bpm>0</bpm>
<rpm>0.00</rpm>
</extensions>
</trkpt>
<trkpt lat="30.699607849" lon="34.951316833">
<ele>646.312500</ele>
<time>2013-11-22T10:18:59Z</time>
<speed>0.010000</speed>
<extensions>
<speed>0.0</speed>
<temp>0.00</temp>
<bpm>0</bpm>
<rpm>0.00</rpm>
</extensions>
</trkpt>
<trkpt lat="30.699607849" lon="34.951316833">
<ele>646.312500</ele>
<time>2013-11-22T10:19:04Z</time>
<speed>0.010000</speed>
<extensions>
<speed>0.0</speed>
<temp>0.00</temp>
<bpm>0</bpm>
<rpm>0.00</rpm>
</extensions>
</trkpt>
<trkpt lat="30.699607849" lon="34.951316833">
<ele>646.312500</ele>
<time>2013-11-22T10:19:09Z</time>
<speed>0.010000</speed>
<extensions>
<speed>0.0</speed>
<temp>0.00</temp>
<bpm>0</bpm>
<rpm>0.00</rpm>
</extensions>
</trkpt>
<trkpt lat="30.699607849" lon="34.951316833">
<ele>646.328125</ele>
<time>2013-11-22T10:19:14Z</time>
<extensions>
<speed>0.0</speed>
<temp>0.00</temp>
<bpm>0</bpm>
<rpm>0.00</rpm>
</extensions>
</trkpt>
<trkpt lat="30.699607849" lon="34.951316833">
<ele>646.328125</ele>
<time>2013-11-22T10:19:19Z</time>
<speed>0.010000</speed>
<extensions>
<speed>0.0</speed>
<temp>0.00</temp>
<bpm>0</bpm>
<rpm>0.00</rpm>
</extensions>
</trkpt>
<trkpt lat="30.699607849" lon="34.951316833">
<ele>646.328125</ele>
<time>2013-11-22T10:19:24Z</time>
<speed>0.010000</speed>
<extensions>
<speed>0.0</speed>
<temp>0.00</temp>
<bpm>0</bpm>
<rpm>0.00</rpm>
</extensions>
</trkpt>
<trkpt lat="30.699607849" lon="34.951316833">
<ele>646.328125</ele>
<time>2013-11-22T10:19:29Z</time>
<extensions>
<speed>0.0</speed>
<temp>0.00</temp>
<bpm>0</bpm>
<rpm>0.00</rpm>
</extensions>
</trkpt>
<trkpt lat="30.699607849" lon="34.951316833">
<ele>646.328125</ele>
<time>2013-11-22T10:19:34Z</time>
<extensions>
<speed>0.0</speed>
<temp>0.00</temp>
<bpm>0</bpm>
<rpm>0.00</rpm>
</extensions>
</trkpt>
<trkpt lat="30.699607849" lon="34.951316833">
<ele>646.328125</ele>
<time>2013-11-22T10:19:39Z</time>
<extensions>
<speed>0.0</speed>
<temp>0.00</temp>
<bpm>0</bpm>
<rpm>0.00</rpm>
</extensions>
</trkpt>
<trkpt lat="30.699607849" lon="34.951316833">
<ele>646.343750</ele>
<time>2013-11-22T10:19:44Z</time>
<extensions>
<speed>0.0</speed>
<temp>0.00</temp>
<bpm>0</bpm>
<rpm>0.00</rpm>
</extensions>
</trkpt>
<trkpt lat="30.699607849" lon="34.951320648">
<ele>646.343750</ele>
<time>2013-11-22T10:19:49Z</time>
<extensions>
<speed>0.0</speed>
<temp>0.00</temp>
<bpm>0</bpm>
<rpm>0.00</rpm>
</extensions>
</trkpt>
<trkpt lat="30.699607849" lon="34.951320648">
<ele>646.343750</ele>
<time>2013-11-22T10:19:54Z</time>
<extensions>
<speed>0.0</speed>
<temp>0.00</temp>
<bpm>0</bpm>
<rpm>0.00</rpm>
</extensions>
</trkpt>
<trkpt lat="30.699607849" lon="34.951320648">
<ele>646.343750</ele>
<time>2013-11-22T10:19:59Z</time>
<speed>0.020000</speed>
<extensions>
<speed>0.0</speed>
<temp>0.00</temp>
<bpm>0</bpm>
<rpm>0.00</rpm>
</extensions>
</trkpt>
<trkpt lat="30.699607849" lon="34.951320648">
<ele>646.343750</ele>
<time>2013-11-22T10:20:04Z</time>
<speed>0.010000</speed>
<extensions>
<speed>0.0</speed>
<temp>0.00</temp>
<bpm>0</bpm>
<rpm>0.00</rpm>
</extensions>
</trkpt>
<trkpt lat="30.699607849" lon="34.951320648">
<ele>646.343750</ele>
<time>2013-11-22T10:20:09Z</time>
<speed>0.010000</speed>
<extensions>
<speed>0.0</speed>
<temp>0.00</temp>
<bpm>0</bpm>
<rpm>0.00</rpm>
</extensions>
</trkpt>
<trkpt lat="30.699607849" lon="34.951320648">
<ele>646.343750</ele>
<time>2013-11-22T10:20:14Z</time>
<extensions>
<speed>0.0</speed>
<temp>0.00</temp>
<bpm>0</bpm>
<rpm>0.00</rpm>
</extensions>
</trkpt>
<trkpt lat="30.699607849" lon="34.951320648">
<ele>646.343750</ele>
<time>2013-11-22T10:20:19Z</time>
<speed>0.010000</speed>
<extensions>
<speed>0.0</speed>
<temp>0.00</temp>
<bpm>0</bpm>
<rpm>0.00</rpm>
</extensions>
</trkpt>
<trkpt lat="30.699607849" lon="34.951320648">
<ele>646.343750</ele>
<time>2013-11-22T10:20:24Z</time>
<extensions>
<speed>0.0</speed>
<temp>0.00</temp>
<bpm>0</bpm>
<rpm>0.00</rpm>
</extensions>
</trkpt>
<trkpt lat="30.699607849" lon="34.951320648">
<ele>646.343750</ele>
<time>2013-11-22T10:20:29Z</time>
<speed>0.010000</speed>
<extensions>
<speed>0.0</speed>
<temp>0.00</temp>
<bpm>0</bpm>
<rpm>0.00</rpm>
</extensions>
</trkpt>
<trkpt lat="30.699607849" lon="34.951320648">
<ele>646.343750</ele>
<time>2013-11-22T10:20:34Z</time>
<extensions>
<speed>0.0</speed>
<temp>0.00</temp>
<bpm>0</bpm>
<rpm>0.00</rpm>
</extensions>
</trkpt>
<trkpt lat="30.699607849" lon="34.951320648">
<ele>646.343750</ele>
<time>2013-11-22T10:20:39Z</time>
<extensions>
<speed>0.0</speed>
<temp>0.00</temp>
<bpm>0</bpm>
<rpm>0.00</rpm>
</extensions>
</trkpt>
<trkpt lat="30.699607849" lon="34.951320648">
<ele>646.343750</ele>
<time>2013-11-22T10:20:44Z</time>
<extensions>
<speed>0.0</speed>
<temp>0.00</temp>
<bpm>0</bpm>
<rpm>0.00</rpm>
</extensions>
</trkpt>
<trkpt lat="30.699607849" lon="34.951320648">
<ele>646.359375</ele>
<time>2013-11-22T10:20:49Z</time>
<extensions>
<speed>0.0</speed>
<temp>0.00</temp>
<bpm>0</bpm>
<rpm>0.00</rpm>
</extensions>
</trkpt>
<trkpt lat="30.699607849" lon="34.951320648">
<ele>646.359375</ele>
<time>2013-11-22T10:20:54Z</time>
<extensions>
<speed>0.0</speed>
<temp>0.00</temp>
<bpm>0</bpm>
<rpm>0.00</rpm>
</extensions>
</trkpt>
<trkpt lat="30.699607849" lon="34.951320648">
<ele>646.359375</ele>
<time>2013-11-22T10:20:59Z</time>
<speed>0.010000</speed>
<extensions>
<speed>0.0</speed>
<temp>0.00</temp>
<bpm>0</bpm>
<rpm>0.00</rpm>
</extensions>
</trkpt>
<trkpt lat="30.699607849" lon="34.951320648">
<ele>646.343750</ele>
<time>2013-11-22T10:21:04Z</time>
<extensions>
<speed>0.0</speed>
<temp>0.00</temp>
<bpm>0</bpm>
<rpm>0.00</rpm>
</extensions>
</trkpt>
<trkpt lat="30.699607849" lon="34.951320648">
<ele>646.359375</ele>
<time>2013-11-22T10:21:09Z</time>
<extensions>
<speed>0.0</speed>
<temp>0.00</temp>
<bpm>0</bpm>
<rpm>0.00</rpm>
</extensions>
</trkpt>
<trkpt lat="30.699607849" lon="34.951320648">
<ele>646.359375</ele>
<time>2013-11-22T10:21:14Z</time>
<extensions>
<speed>0.0</speed>
<temp>0.00</temp>
<bpm>0</bpm>
<rpm>0.00</rpm>
</extensions>
</trkpt>
<trkpt lat="30.699607849" lon="34.951320648">
<ele>646.359375</ele>
<time>2013-11-22T10:21:19Z</time>
<speed>0.010000</speed>
<extensions>
<speed>0.0</speed>
<temp>0.00</temp>
<bpm>0</bpm>
<rpm>0.00</rpm>
</extensions>
</trkpt>
<trkpt lat="30.699607849" lon="34.951320648">
<ele>646.359375</ele>
<time>2013-11-22T10:21:24Z</time>
<extensions>
<speed>0.0</speed>
<temp>0.00</temp>
<bpm>0</bpm>
<rpm>0.00</rpm>
</extensions>
</trkpt>
<trkpt lat="30.699607849" lon="34.951320648">
<ele>646.359375</ele>
<time>2013-11-22T10:21:29Z</time>
<extensions>
<speed>0.0</speed>
<temp>0.00</temp>
<bpm>0</bpm>
<rpm>0.00</rpm>
</extensions>
</trkpt>
<trkpt lat="30.699607849" lon="34.951320648">
<ele>646.375000</ele>
<time>2013-11-22T10:21:34Z</time>
<speed>0.010000</speed>
<extensions>
<speed>0.0</speed>
<temp>0.00</temp>
<bpm>0</bpm>
<rpm>0.00</rpm>
</extensions>
</trkpt>
<trkpt lat="30.699607849" lon="34.951320648">
<ele>646.359375</ele>
<time>2013-11-22T10:21:39Z</time>
<extensions>
<speed>0.0</speed>
<temp>0.00</temp>
<bpm>0</bpm>
<rpm>0.00</rpm>
</extensions>
</trkpt>
<trkpt lat="30.699607849" lon="34.951320648">
<ele>646.359375</ele>
<time>2013-11-22T10:21:44Z</time>
<extensions>
<speed>0.0</speed>
<temp>0.00</temp>
<bpm>0</bpm>
<rpm>0.00</rpm>
</extensions>
</trkpt>
<trkpt lat="30.699607849" lon="34.951320648">
<ele>646.359375</ele>
<time>2013-11-22T10:21:49Z</time>
<extensions>
<speed>0.0</speed>
<temp>0.00</temp>
<bpm>0</bpm>
<rpm>0.00</rpm>
</extensions>
</trkpt>
<trkpt lat="30.699607849" lon="34.951320648">
<ele>646.343750</ele>
<time>2013-11-22T10:21:54Z</time>
<speed>0.010000</speed>
<extensions>
<speed>0.0</speed>
<temp>0.00</temp>
<bpm>0</bpm>
<rpm>0.00</rpm>
</extensions>
</trkpt>
<trkpt lat="30.699607849" lon="34.951320648">
<ele>646.343750</ele>
<time>2013-11-22T10:21:59Z</time>
<extensions>
<speed>0.0</speed>
<temp>0.00</temp>
<bpm>0</bpm>
<rpm>0.00</rpm>
</extensions>
</trkpt>
<trkpt lat="30.699607849" lon="34.951320648">
<ele>646.343750</ele>
<time>2013-11-22T10:22:04Z</time>
<extensions>
<speed>0.0</speed>
<temp>0.00</temp>
<bpm>0</bpm>
<rpm>0.00</rpm>
</extensions>
</trkpt>
<trkpt lat="30.699607849" lon="34.951320648">
<ele>646.359375</ele>
<time>2013-11-22T10:22:09Z</time>
<extensions>
<speed>0.0</speed>
<temp>0.00</temp>
<bpm>0</bpm>
<rpm>0.00</rpm>
</extensions>
</trkpt>
<trkpt lat="30.699607849" lon="34.951320648">
<ele>646.359375</ele>
<time>2013-11-22T10:22:14Z</time>
<extensions>
<speed>0.0</speed>
<temp>0.00</temp>
<bpm>0</bpm>
<rpm>0.00</rpm>
</extensions>
</trkpt>
<trkpt lat="30.699607849" lon="34.951320648">
<ele>646.343750</ele>
<time>2013-11-22T10:22:19Z</time>
<speed>0.010000</speed>
<extensions>
<speed>0.0</speed>
<temp>0.00</temp>
<bpm>0</bpm>
<rpm>0.00</rpm>
</extensions>
</trkpt>
<trkpt lat="30.699607849" lon="34.951320648">
<ele>646.328125</ele>
<time>2013-11-22T10:22:24Z</time>
<extensions>
<speed>0.0</speed>
<temp>0.00</temp>
<bpm>0</bpm>
<rpm>0.00</rpm>
</extensions>
</trkpt>
<trkpt lat="30.699607849" lon="34.951320648">
<ele>646.343750</ele>
<time>2013-11-22T10:22:29Z</time>
<extensions>
<speed>0.0</speed>
<temp>0.00</temp>
<bpm>0</bpm>
<rpm>0.00</rpm>
</extensions>
</trkpt>
<trkpt lat="30.699605942" lon="34.951320648">
<ele>646.328125</ele>
<time>2013-11-22T10:22:34Z</time>
<extensions>
<speed>0.0</speed>
<temp>0.00</temp>
<bpm>0</bpm>
<rpm>0.00</rpm>
</extensions>
</trkpt>
<trkpt lat="30.699605942" lon="34.951320648">
<ele>646.343750</ele>
<time>2013-11-22T10:22:39Z</time>
<speed>0.010000</speed>
<extensions>
<speed>0.0</speed>
<temp>0.00</temp>
<bpm>0</bpm>
<rpm>0.00</rpm>
</extensions>
</trkpt>
<trkpt lat="30.699605942" lon="34.951320648">
<ele>646.343750</ele>
<time>2013-11-22T10:22:44Z</time>
<speed>0.010000</speed>
<extensions>
<speed>0.0</speed>
<temp>0.00</temp>
<bpm>0</bpm>
<rpm>0.00</rpm>
</extensions>
</trkpt>
<trkpt lat="30.699605942" lon="34.951320648">
<ele>646.343750</ele>
<time>2013-11-22T10:22:49Z</time>
<speed>0.010000</speed>
<extensions>
<speed>0.0</speed>
<temp>0.00</temp>
<bpm>0</bpm>
<rpm>0.00</rpm>
</extensions>
</trkpt>
<trkpt lat="30.699605942" lon="34.951320648">
<ele>646.343750</ele>
<time>2013-11-22T10:22:54Z</time>
<extensions>
<speed>0.0</speed>
<temp>0.00</temp>
<bpm>0</bpm>
<rpm>0.00</rpm>
</extensions>
</trkpt>
<trkpt lat="30.699605942" lon="34.951320648">
<ele>646.328125</ele>
<time>2013-11-22T10:22:59Z</time>
<speed>0.010000</speed>
<extensions>
<speed>0.0</speed>
<temp>0.00</temp>
<bpm>0</bpm>
<rpm>0.00</rpm>
</extensions>
</trkpt>
<trkpt lat="30.699605942" lon="34.951324463">
<ele>646.328125</ele>
<time>2013-11-22T10:23:04Z</time>
<extensions>
<speed>0.0</speed>
<temp>0.00</temp>
<bpm>0</bpm>
<rpm>0.00</rpm>
</extensions>
</trkpt>
<trkpt lat="30.699605942" lon="34.951324463">
<ele>646.312500</ele>
<time>2013-11-22T10:23:09Z</time>
<extensions>
<speed>0.0</speed>
<temp>0.00</temp>
<bpm>0</bpm>
<rpm>0.00</rpm>
</extensions>
</trkpt>
<trkpt lat="30.699605942" lon="34.951324463">
<ele>646.312500</ele>
<time>2013-11-22T10:23:14Z</time>
<extensions>
<speed>0.0</speed>
<temp>0.00</temp>
<bpm>0</bpm>
<rpm>0.00</rpm>
</extensions>
</trkpt>
<trkpt lat="30.699605942" lon="34.951324463">
<ele>646.312500</ele>
<time>2013-11-22T10:23:19Z</time>
<speed>0.010000</speed>
<extensions>
<speed>0.0</speed>
<temp>0.00</temp>
<bpm>0</bpm>
<rpm>0.00</rpm>
</extensions>
</trkpt>
<trkpt lat="30.699605942" lon="34.951324463">
<ele>646.296875</ele>
<time>2013-11-22T10:23:24Z</time>
<speed>0.010000</speed>
<extensions>
<speed>0.0</speed>
<temp>0.00</temp>
<bpm>0</bpm>
<rpm>0.00</rpm>
</extensions>
</trkpt>
<trkpt lat="30.699605942" lon="34.951324463">
<ele>646.296875</ele>
<time>2013-11-22T10:23:29Z</time>
<extensions>
<speed>0.0</speed>
<temp>0.00</temp>
<bpm>0</bpm>
<rpm>0.00</rpm>
</extensions>
</trkpt>
<trkpt lat="30.699605942" lon="34.951324463">
<ele>646.296875</ele>
<time>2013-11-22T10:23:34Z</time>
<extensions>
<speed>0.0</speed>
<temp>0.00</temp>
<bpm>0</bpm>
<rpm>0.00</rpm>
</extensions>
</trkpt>
<trkpt lat="30.699605942" lon="34.951324463">
<ele>646.281250</ele>
<time>2013-11-22T10:23:39Z</time>
<extensions>
<speed>0.0</speed>
<temp>0.00</temp>
<bpm>0</bpm>
<rpm>0.00</rpm>
</extensions>
</trkpt>
<trkpt lat="30.699605942" lon="34.951324463">
<ele>646.281250</ele>
<time>2013-11-22T10:23:44Z</time>
<speed>0.010000</speed>
<extensions>
<speed>0.0</speed>
<temp>0.00</temp>
<bpm>0</bpm>
<rpm>0.00</rpm>
</extensions>
</trkpt>
<trkpt lat="30.699605942" lon="34.951324463">
<ele>646.296875</ele>
<time>2013-11-22T10:23:49Z</time>
<extensions>
<speed>0.0</speed>
<temp>0.00</temp>
<bpm>0</bpm>
<rpm>0.00</rpm>
</extensions>
</trkpt>
<trkpt lat="30.699605942" lon="34.951324463">
<ele>646.296875</ele>
<time>2013-11-22T10:23:54Z</time>
<extensions>
<speed>0.0</speed>
<temp>0.00</temp>
<bpm>0</bpm>
<rpm>0.00</rpm>
</extensions>
</trkpt>
<trkpt lat="30.699605942" lon="34.951324463">
<ele>646.296875</ele>
<time>2013-11-22T10:23:59Z</time>
<extensions>
<speed>0.0</speed>
<temp>0.00</temp>
<bpm>0</bpm>
<rpm>0.00</rpm>
</extensions>
</trkpt>
<trkpt lat="30.699605942" lon="34.951324463">
<ele>646.312500</ele>
<time>2013-11-22T10:24:04Z</time>
<extensions>
<speed>0.0</speed>
<temp>0.00</temp>
<bpm>0</bpm>
<rpm>0.00</rpm>
</extensions>
</trkpt>
<trkpt lat="30.699605942" lon="34.951324463">
<ele>646.312500</ele>
<time>2013-11-22T10:24:09Z</time>
<speed>0.010000</speed>
<extensions>
<speed>0.0</speed>
<temp>0.00</temp>
<bpm>0</bpm>
<rpm>0.00</rpm>
</extensions>
</trkpt>
<trkpt lat="30.699605942" lon="34.951324463">
<ele>646.312500</ele>
<time>2013-11-22T10:24:14Z</time>
<speed>0.020000</speed>
<extensions>
<speed>0.0</speed>
<temp>0.00</temp>
<bpm>0</bpm>
<rpm>0.00</rpm>
</extensions>
</trkpt>
<trkpt lat="30.699605942" lon="34.951324463">
<ele>646.328125</ele>
<time>2013-11-22T10:24:19Z</time>
<extensions>
<speed>0.0</speed>
<temp>0.00</temp>
<bpm>0</bpm>
<rpm>0.00</rpm>
</extensions>
</trkpt>
<trkpt lat="30.699605942" lon="34.951324463">
<ele>646.312500</ele>
<time>2013-11-22T10:24:24Z</time>
<speed>0.010000</speed>
<extensions>
<speed>0.0</speed>
<temp>0.00</temp>
<bpm>0</bpm>
<rpm>0.00</rpm>
</extensions>
</trkpt>
<trkpt lat="30.699605942" lon="34.951324463">
<ele>646.312500</ele>
<time>2013-11-22T10:24:29Z</time>
<extensions>
<speed>0.0</speed>
<temp>0.00</temp>
<bpm>0</bpm>
<rpm>0.00</rpm>
</extensions>
</trkpt>
<trkpt lat="30.699605942" lon="34.951324463">
<ele>646.312500</ele>
<time>2013-11-22T10:24:34Z</time>
<extensions>
<speed>0.0</speed>
<temp>0.00</temp>
<bpm>0</bpm>
<rpm>0.00</rpm>
</extensions>
</trkpt>
<trkpt lat="30.699605942" lon="34.951324463">
<ele>646.296875</ele>
<time>2013-11-22T10:24:39Z</time>
<extensions>
<speed>0.0</speed>
<temp>0.00</temp>
<bpm>0</bpm>
<rpm>0.00</rpm>
</extensions>
</trkpt>
<trkpt lat="30.699605942" lon="34.951324463">
<ele>646.296875</ele>
<time>2013-11-22T10:24:44Z</time>
<extensions>
<speed>0.0</speed>
<temp>0.00</temp>
<bpm>0</bpm>
<rpm>0.00</rpm>
</extensions>
</trkpt>
<trkpt lat="30.699605942" lon="34.951324463">
<ele>646.296875</ele>
<time>2013-11-22T10:24:49Z</time>
<speed>0.010000</speed>
<extensions>
<speed>0.0</speed>
<temp>0.00</temp>
<bpm>0</bpm>
<rpm>0.00</rpm>
</extensions>
</trkpt>
<trkpt lat="30.699605942" lon="34.951324463">
<ele>646.296875</ele>
<time>2013-11-22T10:24:54Z</time>
<extensions>
<speed>0.0</speed>
<temp>0.00</temp>
<bpm>0</bpm>
<rpm>0.00</rpm>
</extensions>
</trkpt>
<trkpt lat="30.699605942" lon="34.951324463">
<ele>646.312500</ele>
<time>2013-11-22T10:24:59Z</time>
<speed>0.010000</speed>
<extensions>
<speed>0.0</speed>
<temp>0.00</temp>
<bpm>0</bpm>
<rpm>0.00</rpm>
</extensions>
</trkpt>
<trkpt lat="30.699605942" lon="34.951324463">
<ele>646.312500</ele>
<time>2013-11-22T10:25:04Z</time>
<extensions>
<speed>0.0</speed>
<temp>0.00</temp>
<bpm>0</bpm>
<rpm>0.00</rpm>
</extensions>
</trkpt>
<trkpt lat="30.699605942" lon="34.951324463">
<ele>646.312500</ele>
<time>2013-11-22T10:25:09Z</time>
<speed>0.010000</speed>
<extensions>
<speed>0.0</speed>
<temp>0.00</temp>
<bpm>0</bpm>
<rpm>0.00</rpm>
</extensions>
</trkpt>
<trkpt lat="30.699605942" lon="34.951324463">
<ele>646.312500</ele>
<time>2013-11-22T10:25:14Z</time>
<extensions>
<speed>0.0</speed>
<temp>0.00</temp>
<bpm>0</bpm>
<rpm>0.00</rpm>
</extensions>
</trkpt>
<trkpt lat="30.699605942" lon="34.951324463">
<ele>646.312500</ele>
<time>2013-11-22T10:25:19Z</time>
<extensions>
<speed>0.0</speed>
<temp>0.00</temp>
<bpm>0</bpm>
<rpm>0.00</rpm>
</extensions>
</trkpt>
<trkpt lat="30.699605942" lon="34.951324463">
<ele>646.312500</ele>
<time>2013-11-22T10:25:24Z</time>
<speed>0.010000</speed>
<extensions>
<speed>0.0</speed>
<temp>0.00</temp>
<bpm>0</bpm>
<rpm>0.00</rpm>
</extensions>
</trkpt>
<trkpt lat="30.699605942" lon="34.951324463">
<ele>646.296875</ele>
<time>2013-11-22T10:25:29Z</time>
<extensions>
<speed>0.0</speed>
<temp>0.00</temp>
<bpm>0</bpm>
<rpm>0.00</rpm>
</extensions>
</trkpt>
<trkpt lat="30.699605942" lon="34.951324463">
<ele>646.296875</ele>
<time>2013-11-22T10:25:34Z</time>
<extensions>
<speed>0.0</speed>
<temp>0.00</temp>
<bpm>0</bpm>
<rpm>0.00</rpm>
</extensions>
</trkpt>
<trkpt lat="30.699605942" lon="34.951324463">
<ele>646.312500</ele>
<time>2013-11-22T10:25:39Z</time>
<extensions>
<speed>0.0</speed>
<temp>0.00</temp>
<bpm>0</bpm>
<rpm>0.00</rpm>
</extensions>
</trkpt>
<trkpt lat="30.699605942" lon="34.951324463">
<ele>646.312500</ele>
<time>2013-11-22T10:25:44Z</time>
<extensions>
<speed>0.0</speed>
<temp>0.00</temp>
<bpm>0</bpm>
<rpm>0.00</rpm>
</extensions>
</trkpt>
<trkpt lat="30.699605942" lon="34.951324463">
<ele>646.312500</ele>
<time>2013-11-22T10:25:49Z</time>
<speed>0.010000</speed>
<extensions>
<speed>0.0</speed>
<temp>0.00</temp>
<bpm>0</bpm>
<rpm>0.00</rpm>
</extensions>
</trkpt>
<trkpt lat="30.699605942" lon="34.951324463">
<ele>646.312500</ele>
<time>2013-11-22T10:25:54Z</time>
<extensions>
<speed>0.0</speed>
<temp>0.00</temp>
<bpm>0</bpm>
<rpm>0.00</rpm>
</extensions>
</trkpt>
<trkpt lat="30.699605942" lon="34.951324463">
<ele>646.312500</ele>
<time>2013-11-22T10:25:59Z</time>
<extensions>
<speed>0.0</speed>
<temp>0.00</temp>
<bpm>0</bpm>
<rpm>0.00</rpm>
</extensions>
</trkpt>
<trkpt lat="30.699605942" lon="34.951324463">
<ele>646.312500</ele>
<time>2013-11-22T10:26:04Z</time>
<extensions>
<speed>0.0</speed>
<temp>0.00</temp>
<bpm>0</bpm>
<rpm>0.00</rpm>
</extensions>
</trkpt>
<trkpt lat="30.699605942" lon="34.951324463">
<ele>646.312500</ele>
<time>2013-11-22T10:26:09Z</time>
<speed>0.010000</speed>
<extensions>
<speed>0.0</speed>
<temp>0.00</temp>
<bpm>0</bpm>
<rpm>0.00</rpm>
</extensions>
</trkpt>
<trkpt lat="30.699605942" lon="34.951324463">
<ele>646.312500</ele>
<time>2013-11-22T10:26:14Z</time>
<speed>0.010000</speed>
<extensions>
<speed>0.0</speed>
<temp>0.00</temp>
<bpm>0</bpm>
<rpm>0.00</rpm>
</extensions>
</trkpt>
<trkpt lat="30.699605942" lon="34.951324463">
<ele>646.328125</ele>
<time>2013-11-22T10:26:19Z</time>
<extensions>
<speed>0.0</speed>
<temp>0.00</temp>
<bpm>0</bpm>
<rpm>0.00</rpm>
</extensions>
</trkpt>
<trkpt lat="30.699605942" lon="34.951324463">
<ele>646.328125</ele>
<time>2013-11-22T10:26:24Z</time>
<extensions>
<speed>0.0</speed>
<temp>0.00</temp>
<bpm>0</bpm>
<rpm>0.00</rpm>
</extensions>
</trkpt>
<trkpt lat="30.699605942" lon="34.951324463">
<ele>646.328125</ele>
<time>2013-11-22T10:26:29Z</time>
<speed>0.010000</speed>
<extensions>
<speed>0.0</speed>
<temp>0.00</temp>
<bpm>0</bpm>
<rpm>0.00</rpm>
</extensions>
</trkpt>
<trkpt lat="30.699605942" lon="34.951324463">
<ele>646.328125</ele>
<time>2013-11-22T10:26:34Z</time>
<extensions>
<speed>0.0</speed>
<temp>0.00</temp>
<bpm>0</bpm>
<rpm>0.00</rpm>
</extensions>
</trkpt>
<trkpt lat="30.699605942" lon="34.951324463">
<ele>646.343750</ele>
<time>2013-11-22T10:26:39Z</time>
<speed>0.010000</speed>
<extensions>
<speed>0.0</speed>
<temp>0.00</temp>
<bpm>0</bpm>
<rpm>0.00</rpm>
</extensions>
</trkpt>
<trkpt lat="30.699605942" lon="34.951324463">
<ele>646.359375</ele>
<time>2013-11-22T10:26:44Z</time>
<extensions>
<speed>0.0</speed>
<temp>0.00</temp>
<bpm>0</bpm>
<rpm>0.00</rpm>
</extensions>
</trkpt>
<trkpt lat="30.699605942" lon="34.951324463">
<ele>646.375000</ele>
<time>2013-11-22T10:26:49Z</time>
<extensions>
<speed>0.0</speed>
<temp>0.00</temp>
<bpm>0</bpm>
<rpm>0.00</rpm>
</extensions>
</trkpt>
<trkpt lat="30.699605942" lon="34.951324463">
<ele>646.375000</ele>
<time>2013-11-22T10:26:54Z</time>
<speed>0.010000</speed>
<extensions>
<speed>0.0</speed>
<temp>0.00</temp>
<bpm>0</bpm>
<rpm>0.00</rpm>
</extensions>
</trkpt>
<trkpt lat="30.699605942" lon="34.951324463">
<ele>646.375000</ele>
<time>2013-11-22T10:26:59Z</time>
<extensions>
<speed>0.0</speed>
<temp>0.00</temp>
<bpm>0</bpm>
<rpm>0.00</rpm>
</extensions>
</trkpt>
<trkpt lat="30.699605942" lon="34.951324463">
<ele>646.375000</ele>
<time>2013-11-22T10:27:04Z</time>
<extensions>
<speed>0.0</speed>
<temp>0.00</temp>
<bpm>0</bpm>
<rpm>0.00</rpm>
</extensions>
</trkpt>
<trkpt lat="30.699605942" lon="34.951324463">
<ele>646.375000</ele>
<time>2013-11-22T10:27:09Z</time>
<extensions>
<speed>0.0</speed>
<temp>0.00</temp>
<bpm>0</bpm>
<rpm>0.00</rpm>
</extensions>
</trkpt>
<trkpt lat="30.699605942" lon="34.951324463">
<ele>646.375000</ele>
<time>2013-11-22T10:27:14Z</time>
<speed>0.010000</speed>
<extensions>
<speed>0.0</speed>
<temp>0.00</temp>
<bpm>0</bpm>
<rpm>0.00</rpm>
</extensions>
</trkpt>
<trkpt lat="30.699605942" lon="34.951324463">
<ele>646.359375</ele>
<time>2013-11-22T10:27:19Z</time>
<extensions>
<speed>0.0</speed>
<temp>0.00</temp>
<bpm>0</bpm>
<rpm>0.00</rpm>
</extensions>
</trkpt>
<trkpt lat="30.699605942" lon="34.951324463">
<ele>646.359375</ele>
<time>2013-11-22T10:27:24Z</time>
<speed>0.010000</speed>
<extensions>
<speed>0.0</speed>
<temp>0.00</temp>
<bpm>0</bpm>
<rpm>0.00</rpm>
</extensions>
</trkpt>
<trkpt lat="30.699605942" lon="34.951324463">
<ele>646.359375</ele>
<time>2013-11-22T10:27:29Z</time>
<speed>0.010000</speed>
<extensions>
<speed>0.0</speed>
<temp>0.00</temp>
<bpm>0</bpm>
<rpm>0.00</rpm>
</extensions>
</trkpt>
<trkpt lat="30.699605942" lon="34.951324463">
<ele>646.359375</ele>
<time>2013-11-22T10:27:34Z</time>
<extensions>
<speed>0.0</speed>
<temp>0.00</temp>
<bpm>0</bpm>
<rpm>0.00</rpm>
</extensions>
</trkpt>
<trkpt lat="30.699605942" lon="34.951328278">
<ele>646.359375</ele>
<time>2013-11-22T10:27:39Z</time>
<extensions>
<speed>0.0</speed>
<temp>0.00</temp>
<bpm>0</bpm>
<rpm>0.00</rpm>
</extensions>
</trkpt>
<trkpt lat="30.699605942" lon="34.951328278">
<ele>646.406250</ele>
<time>2013-11-22T10:27:44Z</time>
<extensions>
<speed>0.0</speed>
<temp>0.00</temp>
<bpm>0</bpm>
<rpm>0.00</rpm>
</extensions>
</trkpt>
<trkpt lat="30.699605942" lon="34.951328278">
<ele>646.453125</ele>
<time>2013-11-22T10:27:49Z</time>
<extensions>
<speed>0.0</speed>
<temp>0.00</temp>
<bpm>0</bpm>
<rpm>0.00</rpm>
</extensions>
</trkpt>
<trkpt lat="30.699605942" lon="34.951328278">
<ele>646.500000</ele>
<time>2013-11-22T10:27:54Z</time>
<extensions>
<speed>0.0</speed>
<temp>0.00</temp>
<bpm>0</bpm>
<rpm>0.00</rpm>
</extensions>
</trkpt>
<trkpt lat="30.699605942" lon="34.951328278">
<ele>646.546875</ele>
<time>2013-11-22T10:27:59Z</time>
<extensions>
<speed>0.0</speed>
<temp>0.00</temp>
<bpm>0</bpm>
<rpm>0.00</rpm>
</extensions>
</trkpt>
<trkpt lat="30.699607849" lon="34.951328278">
<ele>646.593750</ele>
<time>2013-11-22T10:28:04Z</time>
<speed>0.010000</speed>
<extensions>
<speed>0.0</speed>
<temp>0.00</temp>
<bpm>0</bpm>
<rpm>0.00</rpm>
</extensions>
</trkpt>
<trkpt lat="30.699607849" lon="34.951328278">
<ele>646.640625</ele>
<time>2013-11-22T10:28:09Z</time>
<extensions>
<speed>0.0</speed>
<temp>0.00</temp>
<bpm>0</bpm>
<rpm>0.00</rpm>
</extensions>
</trkpt>
<trkpt lat="30.699607849" lon="34.951328278">
<ele>646.687500</ele>
<time>2013-11-22T10:28:14Z</time>
<speed>0.010000</speed>
<extensions>
<speed>0.0</speed>
<temp>0.00</temp>
<bpm>0</bpm>
<rpm>0.00</rpm>
</extensions>
</trkpt>
<trkpt lat="30.699607849" lon="34.951328278">
<ele>646.734375</ele>
<time>2013-11-22T10:28:19Z</time>
<speed>0.010000</speed>
<extensions>
<speed>0.0</speed>
<temp>0.00</temp>
<bpm>0</bpm>
<rpm>0.00</rpm>
</extensions>
</trkpt>
<trkpt lat="30.699607849" lon="34.951328278">
<ele>646.765625</ele>
<time>2013-11-22T10:28:24Z</time>
<speed>0.010000</speed>
<extensions>
<speed>0.0</speed>
<temp>0.00</temp>
<bpm>0</bpm>
<rpm>0.00</rpm>
</extensions>
</trkpt>
<trkpt lat="30.699607849" lon="34.951328278">
<ele>646.812500</ele>
<time>2013-11-22T10:28:29Z</time>
<speed>0.010000</speed>
<extensions>
<speed>0.0</speed>
<temp>0.00</temp>
<bpm>0</bpm>
<rpm>0.00</rpm>
</extensions>
</trkpt>
<trkpt lat="30.699609756" lon="34.951328278">
<ele>646.859375</ele>
<time>2013-11-22T10:28:34Z</time>
<speed>0.010000</speed>
<extensions>
<speed>0.0</speed>
<temp>0.00</temp>
<bpm>0</bpm>
<rpm>0.00</rpm>
</extensions>
</trkpt>
<trkpt lat="30.699609756" lon="34.951328278">
<ele>646.890625</ele>
<time>2013-11-22T10:28:39Z</time>
<extensions>
<speed>0.0</speed>
<temp>0.00</temp>
<bpm>0</bpm>
<rpm>0.00</rpm>
</extensions>
</trkpt>
<trkpt lat="30.699609756" lon="34.951328278">
<ele>646.921875</ele>
<time>2013-11-22T10:28:44Z</time>
<extensions>
<speed>0.0</speed>
<temp>0.00</temp>
<bpm>0</bpm>
<rpm>0.00</rpm>
</extensions>
</trkpt>
<trkpt lat="30.699609756" lon="34.951328278">
<ele>646.953125</ele>
<time>2013-11-22T10:28:49Z</time>
<extensions>
<speed>0.0</speed>
<temp>0.00</temp>
<bpm>0</bpm>
<rpm>0.00</rpm>
</extensions>
</trkpt>
<trkpt lat="30.699609756" lon="34.951328278">
<ele>646.984375</ele>
<time>2013-11-22T10:28:54Z</time>
<extensions>
<speed>0.0</speed>
<temp>0.00</temp>
<bpm>0</bpm>
<rpm>0.00</rpm>
</extensions>
</trkpt>
<trkpt lat="30.699609756" lon="34.951328278">
<ele>647.031250</ele>
<time>2013-11-22T10:28:59Z</time>
<speed>0.010000</speed>
<extensions>
<speed>0.0</speed>
<temp>0.00</temp>
<bpm>0</bpm>
<rpm>0.00</rpm>
</extensions>
</trkpt>
<trkpt lat="30.699611664" lon="34.951328278">
<ele>647.062500</ele>
<time>2013-11-22T10:29:04Z</time>
<extensions>
<speed>0.0</speed>
<temp>0.00</temp>
<bpm>0</bpm>
<rpm>0.00</rpm>
</extensions>
</trkpt>
<trkpt lat="30.699611664" lon="34.951328278">
<ele>647.109375</ele>
<time>2013-11-22T10:29:09Z</time>
<speed>0.010000</speed>
<extensions>
<speed>0.0</speed>
<temp>0.00</temp>
<bpm>0</bpm>
<rpm>0.00</rpm>
</extensions>
</trkpt>
<trkpt lat="30.699611664" lon="34.951328278">
<ele>647.140625</ele>
<time>2013-11-22T10:29:14Z</time>
<extensions>
<speed>0.0</speed>
<temp>0.00</temp>
<bpm>0</bpm>
<rpm>0.00</rpm>
</extensions>
</trkpt>
<trkpt lat="30.699611664" lon="34.951328278">
<ele>647.156250</ele>
<time>2013-11-22T10:29:19Z</time>
<extensions>
<speed>0.0</speed>
<temp>0.00</temp>
<bpm>0</bpm>
<rpm>0.00</rpm>
</extensions>
</trkpt>
<trkpt lat="30.699611664" lon="34.951328278">
<ele>647.203125</ele>
<time>2013-11-22T10:29:24Z</time>
<speed>0.010000</speed>
<extensions>
<speed>0.0</speed>
<temp>0.00</temp>
<bpm>0</bpm>
<rpm>0.00</rpm>
</extensions>
</trkpt>
<trkpt lat="30.699611664" lon="34.951328278">
<ele>647.234375</ele>
<time>2013-11-22T10:29:29Z</time>
<extensions>
<speed>0.0</speed>
<temp>0.00</temp>
<bpm>0</bpm>
<rpm>0.00</rpm>
</extensions>
</trkpt>
<trkpt lat="30.699611664" lon="34.951328278">
<ele>647.250000</ele>
<time>2013-11-22T10:29:34Z</time>
<extensions>
<speed>0.0</speed>
<temp>0.00</temp>
<bpm>0</bpm>
<rpm>0.00</rpm>
</extensions>
</trkpt>
<trkpt lat="30.699611664" lon="34.951328278">
<ele>647.281250</ele>
<time>2013-11-22T10:29:39Z</time>
<speed>0.010000</speed>
<extensions>
<speed>0.0</speed>
<temp>0.00</temp>
<bpm>0</bpm>
<rpm>0.00</rpm>
</extensions>
</trkpt>
<trkpt lat="30.699611664" lon="34.951328278">
<ele>647.312500</ele>
<time>2013-11-22T10:29:44Z</time>
<speed>0.010000</speed>
<extensions>
<speed>0.0</speed>
<temp>0.00</temp>
<bpm>0</bpm>
<rpm>0.00</rpm>
</extensions>
</trkpt>
<trkpt lat="30.699613571" lon="34.951328278">
<ele>647.359375</ele>
<time>2013-11-22T10:29:49Z</time>
<speed>0.020000</speed>
<extensions>
<speed>0.0</speed>
<temp>0.00</temp>
<bpm>0</bpm>
<rpm>0.00</rpm>
</extensions>
</trkpt>
<trkpt lat="30.699613571" lon="34.951328278">
<ele>647.421875</ele>
<time>2013-11-22T10:29:54Z</time>
<speed>0.020000</speed>
<extensions>
<speed>0.0</speed>
<temp>0.00</temp>
<bpm>0</bpm>
<rpm>0.00</rpm>
</extensions>
</trkpt>
<trkpt lat="30.699613571" lon="34.951328278">
<ele>647.468750</ele>
<time>2013-11-22T10:29:59Z</time>
<speed>0.010000</speed>
<extensions>
<speed>0.0</speed>
<temp>0.00</temp>
<bpm>0</bpm>
<rpm>0.00</rpm>
</extensions>
</trkpt>
<trkpt lat="30.699613571" lon="34.951328278">
<ele>647.515625</ele>
<time>2013-11-22T10:30:04Z</time>
<speed>0.010000</speed>
<extensions>
<speed>0.0</speed>
<temp>0.00</temp>
<bpm>0</bpm>
<rpm>0.00</rpm>
</extensions>
</trkpt>
<trkpt lat="30.699613571" lon="34.951328278">
<ele>647.562500</ele>
<time>2013-11-22T10:30:09Z</time>
<speed>0.010000</speed>
<extensions>
<speed>0.0</speed>
<temp>0.00</temp>
<bpm>0</bpm>
<rpm>0.00</rpm>
</extensions>
</trkpt>
<trkpt lat="30.699615479" lon="34.951324463">
<ele>647.609375</ele>
<time>2013-11-22T10:30:14Z</time>
<extensions>
<speed>0.0</speed>
<temp>0.00</temp>
<bpm>0</bpm>
<rpm>0.00</rpm>
</extensions>
</trkpt>
<trkpt lat="30.699615479" lon="34.951324463">
<ele>647.640625</ele>
<time>2013-11-22T10:30:19Z</time>
<speed>0.010000</speed>
<extensions>
<speed>0.0</speed>
<temp>0.00</temp>
<bpm>0</bpm>
<rpm>0.00</rpm>
</extensions>
</trkpt>
<trkpt lat="30.699615479" lon="34.951324463">
<ele>647.687500</ele>
<time>2013-11-22T10:30:24Z</time>
<extensions>
<speed>0.0</speed>
<temp>0.00</temp>
<bpm>0</bpm>
<rpm>0.00</rpm>
</extensions>
</trkpt>
<trkpt lat="30.699615479" lon="34.951324463">
<ele>647.718750</ele>
<time>2013-11-22T10:30:29Z</time>
<speed>0.010000</speed>
<extensions>
<speed>0.0</speed>
<temp>0.00</temp>
<bpm>0</bpm>
<rpm>0.00</rpm>
</extensions>
</trkpt>
<trkpt lat="30.699615479" lon="34.951324463">
<ele>647.750000</ele>
<time>2013-11-22T10:30:34Z</time>
<speed>0.010000</speed>
<extensions>
<speed>0.0</speed>
<temp>0.00</temp>
<bpm>0</bpm>
<rpm>0.00</rpm>
</extensions>
</trkpt>
<trkpt lat="30.699615479" lon="34.951328278">
<ele>647.781250</ele>
<time>2013-11-22T10:30:39Z</time>
<speed>0.010000</speed>
<extensions>
<speed>0.0</speed>
<temp>0.00</temp>
<bpm>0</bpm>
<rpm>0.00</rpm>
</extensions>
</trkpt>
<trkpt lat="30.699615479" lon="34.951328278">
<ele>647.812500</ele>
<time>2013-11-22T10:30:44Z</time>
<extensions>
<speed>0.0</speed>
<temp>0.00</temp>
<bpm>0</bpm>
<rpm>0.00</rpm>
</extensions>
</trkpt>
<trkpt lat="30.699617386" lon="34.951328278">
<ele>647.859375</ele>
<time>2013-11-22T10:30:49Z</time>
<extensions>
<speed>0.0</speed>
<temp>0.00</temp>
<bpm>0</bpm>
<rpm>0.00</rpm>
</extensions>
</trkpt>
<trkpt lat="30.699617386" lon="34.951324463">
<ele>647.890625</ele>
<time>2013-11-22T10:30:54Z</time>
<extensions>
<speed>0.0</speed>
<temp>0.00</temp>
<bpm>0</bpm>
<rpm>0.00</rpm>
</extensions>
</trkpt>
<trkpt lat="30.699617386" lon="34.951328278">
<ele>647.921875</ele>
<time>2013-11-22T10:30:59Z</time>
<extensions>
<speed>0.0</speed>
<temp>0.00</temp>
<bpm>0</bpm>
<rpm>0.00</rpm>
</extensions>
</trkpt>
<trkpt lat="30.699617386" lon="34.951324463">
<ele>647.968750</ele>
<time>2013-11-22T10:31:04Z</time>
<extensions>
<speed>0.0</speed>
<temp>0.00</temp>
<bpm>0</bpm>
<rpm>0.00</rpm>
</extensions>
</trkpt>
<trkpt lat="30.699617386" lon="34.951324463">
<ele>648.015625</ele>
<time>2013-11-22T10:31:09Z</time>
<speed>0.020000</speed>
<extensions>
<speed>0.0</speed>
<temp>0.00</temp>
<bpm>0</bpm>
<rpm>0.00</rpm>
</extensions>
</trkpt>
<trkpt lat="30.699617386" lon="34.951324463">
<ele>648.046875</ele>
<time>2013-11-22T10:31:14Z</time>
<extensions>
<speed>0.0</speed>
<temp>0.00</temp>
<bpm>0</bpm>
<rpm>0.00</rpm>
</extensions>
</trkpt>
<trkpt lat="30.699619293" lon="34.951324463">
<ele>648.078125</ele>
<time>2013-11-22T10:31:19Z</time>
<speed>0.010000</speed>
<extensions>
<speed>0.0</speed>
<temp>0.00</temp>
<bpm>0</bpm>
<rpm>0.00</rpm>
</extensions>
</trkpt>
<trkpt lat="30.699619293" lon="34.951324463">
<ele>648.109375</ele>
<time>2013-11-22T10:31:24Z</time>
<extensions>
<speed>0.0</speed>
<temp>0.00</temp>
<bpm>0</bpm>
<rpm>0.00</rpm>
</extensions>
</trkpt>
<trkpt lat="30.699619293" lon="34.951324463">
<ele>648.140625</ele>
<time>2013-11-22T10:31:29Z</time>
<extensions>
<speed>0.0</speed>
<temp>0.00</temp>
<bpm>0</bpm>
<rpm>0.00</rpm>
</extensions>
</trkpt>
<trkpt lat="30.699619293" lon="34.951324463">
<ele>648.171875</ele>
<time>2013-11-22T10:31:34Z</time>
<extensions>
<speed>0.0</speed>
<temp>0.00</temp>
<bpm>0</bpm>
<rpm>0.00</rpm>
</extensions>
</trkpt>
<trkpt lat="30.699619293" lon="34.951324463">
<ele>648.203125</ele>
<time>2013-11-22T10:31:39Z</time>
<extensions>
<speed>0.0</speed>
<temp>0.00</temp>
<bpm>0</bpm>
<rpm>0.00</rpm>
</extensions>
</trkpt>
<trkpt lat="30.699619293" lon="34.951324463">
<ele>648.218750</ele>
<time>2013-11-22T10:31:44Z</time>
<extensions>
<speed>0.0</speed>
<temp>0.00</temp>
<bpm>0</bpm>
<rpm>0.00</rpm>
</extensions>
</trkpt>
<trkpt lat="30.699619293" lon="34.951324463">
<ele>648.250000</ele>
<time>2013-11-22T10:31:49Z</time>
<extensions>
<speed>0.0</speed>
<temp>0.00</temp>
<bpm>0</bpm>
<rpm>0.00</rpm>
</extensions>
</trkpt>
<trkpt lat="30.699619293" lon="34.951324463">
<ele>648.281250</ele>
<time>2013-11-22T10:31:54Z</time>
<extensions>
<speed>0.0</speed>
<temp>0.00</temp>
<bpm>0</bpm>
<rpm>0.00</rpm>
</extensions>
</trkpt>
<trkpt lat="30.699619293" lon="34.951324463">
<ele>648.296875</ele>
<time>2013-11-22T10:31:59Z</time>
<extensions>
<speed>0.0</speed>
<temp>0.00</temp>
<bpm>0</bpm>
<rpm>0.00</rpm>
</extensions>
</trkpt>
<trkpt lat="30.699619293" lon="34.951324463">
<ele>648.328125</ele>
<time>2013-11-22T10:32:04Z</time>
<extensions>
<speed>0.0</speed>
<temp>0.00</temp>
<bpm>0</bpm>
<rpm>0.00</rpm>
</extensions>
</trkpt>
<trkpt lat="30.699621201" lon="34.951324463">
<ele>648.343750</ele>
<time>2013-11-22T10:32:09Z</time>
<extensions>
<speed>0.0</speed>
<temp>0.00</temp>
<bpm>0</bpm>
<rpm>0.00</rpm>
</extensions>
</trkpt>
<trkpt lat="30.699621201" lon="34.951324463">
<ele>648.375000</ele>
<time>2013-11-22T10:32:14Z</time>
<extensions>
<speed>0.0</speed>
<temp>0.00</temp>
<bpm>0</bpm>
<rpm>0.00</rpm>
</extensions>
</trkpt>
<trkpt lat="30.699621201" lon="34.951324463">
<ele>648.390625</ele>
<time>2013-11-22T10:32:19Z</time>
<speed>0.010000</speed>
<extensions>
<speed>0.0</speed>
<temp>0.00</temp>
<bpm>0</bpm>
<rpm>0.00</rpm>
</extensions>
</trkpt>
<trkpt lat="30.699621201" lon="34.951328278">
<ele>648.406250</ele>
<time>2013-11-22T10:32:24Z</time>
<extensions>
<speed>0.0</speed>
<temp>0.00</temp>
<bpm>0</bpm>
<rpm>0.00</rpm>
</extensions>
</trkpt>
<trkpt lat="30.699621201" lon="34.951328278">
<ele>648.437500</ele>
<time>2013-11-22T10:32:29Z</time>
<extensions>
<speed>0.0</speed>
<temp>0.00</temp>
<bpm>0</bpm>
<rpm>0.00</rpm>
</extensions>
</trkpt>
<trkpt lat="30.699621201" lon="34.951328278">
<ele>648.453125</ele>
<time>2013-11-22T10:32:34Z</time>
<extensions>
<speed>0.0</speed>
<temp>0.00</temp>
<bpm>0</bpm>
<rpm>0.00</rpm>
</extensions>
</trkpt>
<trkpt lat="30.699621201" lon="34.951328278">
<ele>648.468750</ele>
<time>2013-11-22T10:32:39Z</time>
<speed>0.010000</speed>
<extensions>
<speed>0.0</speed>
<temp>0.00</temp>
<bpm>0</bpm>
<rpm>0.00</rpm>
</extensions>
</trkpt>
<trkpt lat="30.699621201" lon="34.951328278">
<ele>648.468750</ele>
<time>2013-11-22T10:32:44Z</time>
<speed>0.010000</speed>
<extensions>
<speed>0.0</speed>
<temp>0.00</temp>
<bpm>0</bpm>
<rpm>0.00</rpm>
</extensions>
</trkpt>
<trkpt lat="30.699621201" lon="34.951328278">
<ele>648.500000</ele>
<time>2013-11-22T10:32:49Z</time>
<extensions>
<speed>0.0</speed>
<temp>0.00</temp>
<bpm>0</bpm>
<rpm>0.00</rpm>
</extensions>
</trkpt>
<trkpt lat="30.699621201" lon="34.951328278">
<ele>648.500000</ele>
<time>2013-11-22T10:32:54Z</time>
<speed>0.010000</speed>
<extensions>
<speed>0.0</speed>
<temp>0.00</temp>
<bpm>0</bpm>
<rpm>0.00</rpm>
</extensions>
</trkpt>
<trkpt lat="30.699621201" lon="34.951328278">
<ele>648.515625</ele>
<time>2013-11-22T10:32:59Z</time>
<speed>0.010000</speed>
<extensions>
<speed>0.0</speed>
<temp>0.00</temp>
<bpm>0</bpm>
<rpm>0.00</rpm>
</extensions>
</trkpt>
<trkpt lat="30.699621201" lon="34.951328278">
<ele>648.546875</ele>
<time>2013-11-22T10:33:04Z</time>
<extensions>
<speed>0.0</speed>
<temp>0.00</temp>
<bpm>0</bpm>
<rpm>0.00</rpm>
</extensions>
</trkpt>
<trkpt lat="30.699621201" lon="34.951328278">
<ele>648.546875</ele>
<time>2013-11-22T10:33:09Z</time>
<speed>0.010000</speed>
<extensions>
<speed>0.0</speed>
<temp>0.00</temp>
<bpm>0</bpm>
<rpm>0.00</rpm>
</extensions>
</trkpt>
<trkpt lat="30.699621201" lon="34.951328278">
<ele>648.562500</ele>
<time>2013-11-22T10:33:14Z</time>
<extensions>
<speed>0.0</speed>
<temp>0.00</temp>
<bpm>0</bpm>
<rpm>0.00</rpm>
</extensions>
</trkpt>
<trkpt lat="30.699621201" lon="34.951328278">
<ele>648.562500</ele>
<time>2013-11-22T10:33:19Z</time>
<speed>0.010000</speed>
<extensions>
<speed>0.0</speed>
<temp>0.00</temp>
<bpm>0</bpm>
<rpm>0.00</rpm>
</extensions>
</trkpt>
<trkpt lat="30.699621201" lon="34.951328278">
<ele>648.578125</ele>
<time>2013-11-22T10:33:24Z</time>
<extensions>
<speed>0.0</speed>
<temp>0.00</temp>
<bpm>0</bpm>
<rpm>0.00</rpm>
</extensions>
</trkpt>
<trkpt lat="30.699621201" lon="34.951328278">
<ele>648.593750</ele>
<time>2013-11-22T10:33:29Z</time>
<extensions>
<speed>0.0</speed>
<temp>0.00</temp>
<bpm>0</bpm>
<rpm>0.00</rpm>
</extensions>
</trkpt>
<trkpt lat="30.699621201" lon="34.951328278">
<ele>648.609375</ele>
<time>2013-11-22T10:33:34Z</time>
<speed>0.010000</speed>
<extensions>
<speed>0.0</speed>
<temp>0.00</temp>
<bpm>0</bpm>
<rpm>0.00</rpm>
</extensions>
</trkpt>
<trkpt lat="30.699623108" lon="34.951328278">
<ele>648.625000</ele>
<time>2013-11-22T10:33:39Z</time>
<speed>0.010000</speed>
<extensions>
<speed>0.0</speed>
<temp>0.00</temp>
<bpm>0</bpm>
<rpm>0.00</rpm>
</extensions>
</trkpt>
<trkpt lat="30.699623108" lon="34.951328278">
<ele>648.640625</ele>
<time>2013-11-22T10:33:44Z</time>
<extensions>
<speed>0.0</speed>
<temp>0.00</temp>
<bpm>0</bpm>
<rpm>0.00</rpm>
</extensions>
</trkpt>
<trkpt lat="30.699623108" lon="34.951328278">
<ele>648.671875</ele>
<time>2013-11-22T10:33:49Z</time>
<extensions>
<speed>0.0</speed>
<temp>0.00</temp>
<bpm>0</bpm>
<rpm>0.00</rpm>
</extensions>
</trkpt>
<trkpt lat="30.699623108" lon="34.951328278">
<ele>648.671875</ele>
<time>2013-11-22T10:33:54Z</time>
<extensions>
<speed>0.0</speed>
<temp>0.00</temp>
<bpm>0</bpm>
<rpm>0.00</rpm>
</extensions>
</trkpt>
<trkpt lat="30.699623108" lon="34.951328278">
<ele>648.687500</ele>
<time>2013-11-22T10:33:59Z</time>
<speed>0.010000</speed>
<extensions>
<speed>0.0</speed>
<temp>0.00</temp>
<bpm>0</bpm>
<rpm>0.00</rpm>
</extensions>
</trkpt>
<trkpt lat="30.699623108" lon="34.951328278">
<ele>648.703125</ele>
<time>2013-11-22T10:34:04Z</time>
<extensions>
<speed>0.0</speed>
<temp>0.00</temp>
<bpm>0</bpm>
<rpm>0.00</rpm>
</extensions>
</trkpt>
<trkpt lat="30.699623108" lon="34.951328278">
<ele>648.718750</ele>
<time>2013-11-22T10:34:09Z</time>
<extensions>
<speed>0.0</speed>
<temp>0.00</temp>
<bpm>0</bpm>
<rpm>0.00</rpm>
</extensions>
</trkpt>
<trkpt lat="30.699623108" lon="34.951328278">
<ele>648.750000</ele>
<time>2013-11-22T10:34:14Z</time>
<speed>0.010000</speed>
<extensions>
<speed>0.0</speed>
<temp>0.00</temp>
<bpm>0</bpm>
<rpm>0.00</rpm>
</extensions>
</trkpt>
<trkpt lat="30.699623108" lon="34.951328278">
<ele>648.765625</ele>
<time>2013-11-22T10:34:19Z</time>
<extensions>
<speed>0.0</speed>
<temp>0.00</temp>
<bpm>0</bpm>
<rpm>0.00</rpm>
</extensions>
</trkpt>
<trkpt lat="30.699623108" lon="34.951328278">
<ele>648.781250</ele>
<time>2013-11-22T10:34:24Z</time>
<speed>0.010000</speed>
<extensions>
<speed>0.0</speed>
<temp>0.00</temp>
<bpm>0</bpm>
<rpm>0.00</rpm>
</extensions>
</trkpt>
<trkpt lat="30.699623108" lon="34.951328278">
<ele>648.812500</ele>
<time>2013-11-22T10:34:29Z</time>
<speed>0.010000</speed>
<extensions>
<speed>0.0</speed>
<temp>0.00</temp>
<bpm>0</bpm>
<rpm>0.00</rpm>
</extensions>
</trkpt>
<trkpt lat="30.699623108" lon="34.951328278">
<ele>648.812500</ele>
<time>2013-11-22T10:34:34Z</time>
<speed>0.010000</speed>
<extensions>
<speed>0.0</speed>
<temp>0.00</temp>
<bpm>0</bpm>
<rpm>0.00</rpm>
</extensions>
</trkpt>
<trkpt lat="30.699623108" lon="34.951328278">
<ele>648.828125</ele>
<time>2013-11-22T10:34:39Z</time>
<extensions>
<speed>0.0</speed>
<temp>0.00</temp>
<bpm>0</bpm>
<rpm>0.00</rpm>
</extensions>
</trkpt>
<trkpt lat="30.699623108" lon="34.951328278">
<ele>648.843750</ele>
<time>2013-11-22T10:34:44Z</time>
<extensions>
<speed>0.0</speed>
<temp>0.00</temp>
<bpm>0</bpm>
<rpm>0.00</rpm>
</extensions>
</trkpt>
<trkpt lat="30.699623108" lon="34.951328278">
<ele>648.843750</ele>
<time>2013-11-22T10:34:49Z</time>
<speed>0.010000</speed>
<extensions>
<speed>0.0</speed>
<temp>0.00</temp>
<bpm>0</bpm>
<rpm>0.00</rpm>
</extensions>
</trkpt>
<trkpt lat="30.699625015" lon="34.951328278">
<ele>648.859375</ele>
<time>2013-11-22T10:34:54Z</time>
<speed>0.010000</speed>
<extensions>
<speed>0.0</speed>
<temp>0.00</temp>
<bpm>0</bpm>
<rpm>0.00</rpm>
</extensions>
</trkpt>
<trkpt lat="30.699625015" lon="34.951328278">
<ele>648.890625</ele>
<time>2013-11-22T10:34:59Z</time>
<speed>0.010000</speed>
<extensions>
<speed>0.0</speed>
<temp>0.00</temp>
<bpm>0</bpm>
<rpm>0.00</rpm>
</extensions>
</trkpt>
<trkpt lat="30.699625015" lon="34.951328278">
<ele>648.906250</ele>
<time>2013-11-22T10:35:04Z</time>
<speed>0.010000</speed>
<extensions>
<speed>0.0</speed>
<temp>0.00</temp>
<bpm>0</bpm>
<rpm>0.00</rpm>
</extensions>
</trkpt>
<trkpt lat="30.699625015" lon="34.951328278">
<ele>648.937500</ele>
<time>2013-11-22T10:35:09Z</time>
<extensions>
<speed>0.0</speed>
<temp>0.00</temp>
<bpm>0</bpm>
<rpm>0.00</rpm>
</extensions>
</trkpt>
<trkpt lat="30.699625015" lon="34.951328278">
<ele>648.953125</ele>
<time>2013-11-22T10:35:14Z</time>
<extensions>
<speed>0.0</speed>
<temp>0.00</temp>
<bpm>0</bpm>
<rpm>0.00</rpm>
</extensions>
</trkpt>
<trkpt lat="30.699625015" lon="34.951328278">
<ele>648.984375</ele>
<time>2013-11-22T10:35:19Z</time>
<speed>0.010000</speed>
<extensions>
<speed>0.0</speed>
<temp>0.00</temp>
<bpm>0</bpm>
<rpm>0.00</rpm>
</extensions>
</trkpt>
<trkpt lat="30.699625015" lon="34.951328278">
<ele>649.000000</ele>
<time>2013-11-22T10:35:24Z</time>
<speed>0.010000</speed>
<extensions>
<speed>0.0</speed>
<temp>0.00</temp>
<bpm>0</bpm>
<rpm>0.00</rpm>
</extensions>
</trkpt>
<trkpt lat="30.699625015" lon="34.951328278">
<ele>649.031250</ele>
<time>2013-11-22T10:35:29Z</time>
<speed>0.010000</speed>
<extensions>
<speed>0.0</speed>
<temp>0.00</temp>
<bpm>0</bpm>
<rpm>0.00</rpm>
</extensions>
</trkpt>
<trkpt lat="30.699625015" lon="34.951328278">
<ele>649.046875</ele>
<time>2013-11-22T10:35:34Z</time>
<speed>0.010000</speed>
<extensions>
<speed>0.0</speed>
<temp>0.00</temp>
<bpm>0</bpm>
<rpm>0.00</rpm>
</extensions>
</trkpt>
<trkpt lat="30.699625015" lon="34.951328278">
<ele>649.046875</ele>
<time>2013-11-22T10:35:39Z</time>
<speed>0.010000</speed>
<extensions>
<speed>0.0</speed>
<temp>0.00</temp>
<bpm>0</bpm>
<rpm>0.00</rpm>
</extensions>
</trkpt>
<trkpt lat="30.699625015" lon="34.951328278">
<ele>649.062500</ele>
<time>2013-11-22T10:35:44Z</time>
<speed>0.010000</speed>
<extensions>
<speed>0.0</speed>
<temp>0.00</temp>
<bpm>0</bpm>
<rpm>0.00</rpm>
</extensions>
</trkpt>
<trkpt lat="30.699625015" lon="34.951328278">
<ele>649.078125</ele>
<time>2013-11-22T10:35:49Z</time>
<speed>0.010000</speed>
<extensions>
<speed>0.0</speed>
<temp>0.00</temp>
<bpm>0</bpm>
<rpm>0.00</rpm>
</extensions>
</trkpt>
<trkpt lat="30.699625015" lon="34.951328278">
<ele>649.093750</ele>
<time>2013-11-22T10:35:54Z</time>
<extensions>
<speed>0.0</speed>
<temp>0.00</temp>
<bpm>0</bpm>
<rpm>0.00</rpm>
</extensions>
</trkpt>
<trkpt lat="30.699625015" lon="34.951328278">
<ele>649.109375</ele>
<time>2013-11-22T10:35:59Z</time>
<extensions>
<speed>0.0</speed>
<temp>0.00</temp>
<bpm>0</bpm>
<rpm>0.00</rpm>
</extensions>
</trkpt>
<trkpt lat="30.699626923" lon="34.951328278">
<ele>649.140625</ele>
<time>2013-11-22T10:36:04Z</time>
<extensions>
<speed>0.0</speed>
<temp>0.00</temp>
<bpm>0</bpm>
<rpm>0.00</rpm>
</extensions>
</trkpt>
<trkpt lat="30.699626923" lon="34.951328278">
<ele>649.156250</ele>
<time>2013-11-22T10:36:09Z</time>
<speed>0.010000</speed>
<extensions>
<speed>0.0</speed>
<temp>0.00</temp>
<bpm>0</bpm>
<rpm>0.00</rpm>
</extensions>
</trkpt>
<trkpt lat="30.699626923" lon="34.951328278">
<ele>649.171875</ele>
<time>2013-11-22T10:36:14Z</time>
<extensions>
<speed>0.0</speed>
<temp>0.00</temp>
<bpm>0</bpm>
<rpm>0.00</rpm>
</extensions>
</trkpt>
<trkpt lat="30.699626923" lon="34.951328278">
<ele>649.203125</ele>
<time>2013-11-22T10:36:19Z</time>
<speed>0.010000</speed>
<extensions>
<speed>0.0</speed>
<temp>0.00</temp>
<bpm>0</bpm>
<rpm>0.00</rpm>
</extensions>
</trkpt>
<trkpt lat="30.699626923" lon="34.951328278">
<ele>649.218750</ele>
<time>2013-11-22T10:36:24Z</time>
<extensions>
<speed>0.0</speed>
<temp>0.00</temp>
<bpm>0</bpm>
<rpm>0.00</rpm>
</extensions>
</trkpt>
<trkpt lat="30.699626923" lon="34.951328278">
<ele>649.250000</ele>
<time>2013-11-22T10:36:29Z</time>
<extensions>
<speed>0.0</speed>
<temp>0.00</temp>
<bpm>0</bpm>
<rpm>0.00</rpm>
</extensions>
</trkpt>
<trkpt lat="30.699626923" lon="34.951328278">
<ele>649.281250</ele>
<time>2013-11-22T10:36:34Z</time>
<extensions>
<speed>0.0</speed>
<temp>0.00</temp>
<bpm>0</bpm>
<rpm>0.00</rpm>
</extensions>
</trkpt>
<trkpt lat="30.699626923" lon="34.951328278">
<ele>649.296875</ele>
<time>2013-11-22T10:36:39Z</time>
<extensions>
<speed>0.0</speed>
<temp>0.00</temp>
<bpm>0</bpm>
<rpm>0.00</rpm>
</extensions>
</trkpt>
<trkpt lat="30.699626923" lon="34.951328278">
<ele>649.312500</ele>
<time>2013-11-22T10:36:44Z</time>
<extensions>
<speed>0.0</speed>
<temp>0.00</temp>
<bpm>0</bpm>
<rpm>0.00</rpm>
</extensions>
</trkpt>
<trkpt lat="30.699626923" lon="34.951328278">
<ele>649.343750</ele>
<time>2013-11-22T10:36:49Z</time>
<extensions>
<speed>0.0</speed>
<temp>0.00</temp>
<bpm>0</bpm>
<rpm>0.00</rpm>
</extensions>
</trkpt>
<trkpt lat="30.699626923" lon="34.951328278">
<ele>649.375000</ele>
<time>2013-11-22T10:36:54Z</time>
<speed>0.010000</speed>
<extensions>
<speed>0.0</speed>
<temp>0.00</temp>
<bpm>0</bpm>
<rpm>0.00</rpm>
</extensions>
</trkpt>
<trkpt lat="30.699626923" lon="34.951328278">
<ele>649.406250</ele>
<time>2013-11-22T10:36:59Z</time>
<extensions>
<speed>0.0</speed>
<temp>0.00</temp>
<bpm>0</bpm>
<rpm>0.00</rpm>
</extensions>
</trkpt>
<trkpt lat="30.699628830" lon="34.951328278">
<ele>649.437500</ele>
<time>2013-11-22T10:37:04Z</time>
<speed>0.010000</speed>
<extensions>
<speed>0.0</speed>
<temp>0.00</temp>
<bpm>0</bpm>
<rpm>0.00</rpm>
</extensions>
</trkpt>
<trkpt lat="30.699628830" lon="34.951328278">
<ele>649.453125</ele>
<time>2013-11-22T10:37:09Z</time>
<extensions>
<speed>0.0</speed>
<temp>0.00</temp>
<bpm>0</bpm>
<rpm>0.00</rpm>
</extensions>
</trkpt>
<trkpt lat="30.699628830" lon="34.951328278">
<ele>649.468750</ele>
<time>2013-11-22T10:37:14Z</time>
<extensions>
<speed>0.0</speed>
<temp>0.00</temp>
<bpm>0</bpm>
<rpm>0.00</rpm>
</extensions>
</trkpt>
<trkpt lat="30.699628830" lon="34.951328278">
<ele>649.500000</ele>
<time>2013-11-22T10:37:19Z</time>
<speed>0.010000</speed>
<extensions>
<speed>0.0</speed>
<temp>0.00</temp>
<bpm>0</bpm>
<rpm>0.00</rpm>
</extensions>
</trkpt>
<trkpt lat="30.699628830" lon="34.951328278">
<ele>649.515625</ele>
<time>2013-11-22T10:37:24Z</time>
<speed>0.010000</speed>
<extensions>
<speed>0.0</speed>
<temp>0.00</temp>
<bpm>0</bpm>
<rpm>0.00</rpm>
</extensions>
</trkpt>
<trkpt lat="30.699628830" lon="34.951328278">
<ele>649.531250</ele>
<time>2013-11-22T10:37:29Z</time>
<extensions>
<speed>0.0</speed>
<temp>0.00</temp>
<bpm>0</bpm>
<rpm>0.00</rpm>
</extensions>
</trkpt>
<trkpt lat="30.699628830" lon="34.951328278">
<ele>649.546875</ele>
<time>2013-11-22T10:37:34Z</time>
<extensions>
<speed>0.0</speed>
<temp>0.00</temp>
<bpm>0</bpm>
<rpm>0.00</rpm>
</extensions>
</trkpt>
<trkpt lat="30.699628830" lon="34.951328278">
<ele>649.593750</ele>
<time>2013-11-22T10:37:39Z</time>
<speed>0.020000</speed>
<extensions>
<speed>0.0</speed>
<temp>0.00</temp>
<bpm>0</bpm>
<rpm>0.00</rpm>
</extensions>
</trkpt>
<trkpt lat="30.699628830" lon="34.951328278">
<ele>649.625000</ele>
<time>2013-11-22T10:37:44Z</time>
<speed>0.010000</speed>
<extensions>
<speed>0.0</speed>
<temp>0.00</temp>
<bpm>0</bpm>
<rpm>0.00</rpm>
</extensions>
</trkpt>
<trkpt lat="30.699628830" lon="34.951328278">
<ele>649.640625</ele>
<time>2013-11-22T10:37:49Z</time>
<extensions>
<speed>0.0</speed>
<temp>0.00</temp>
<bpm>0</bpm>
<rpm>0.00</rpm>
</extensions>
</trkpt>
<trkpt lat="30.699628830" lon="34.951328278">
<ele>649.656250</ele>
<time>2013-11-22T10:37:54Z</time>
<speed>0.010000</speed>
<extensions>
<speed>0.0</speed>
<temp>0.00</temp>
<bpm>0</bpm>
<rpm>0.00</rpm>
</extensions>
</trkpt>
<trkpt lat="30.699630737" lon="34.951328278">
<ele>649.687500</ele>
<time>2013-11-22T10:37:59Z</time>
<extensions>
<speed>0.0</speed>
<temp>0.00</temp>
<bpm>0</bpm>
<rpm>0.00</rpm>
</extensions>
</trkpt>
<trkpt lat="30.699630737" lon="34.951328278">
<ele>649.703125</ele>
<time>2013-11-22T10:38:04Z</time>
<extensions>
<speed>0.0</speed>
<temp>0.00</temp>
<bpm>0</bpm>
<rpm>0.00</rpm>
</extensions>
</trkpt>
<trkpt lat="30.699630737" lon="34.951328278">
<ele>649.734375</ele>
<time>2013-11-22T10:38:09Z</time>
<extensions>
<speed>0.0</speed>
<temp>0.00</temp>
<bpm>0</bpm>
<rpm>0.00</rpm>
</extensions>
</trkpt>
<trkpt lat="30.699630737" lon="34.951328278">
<ele>649.765625</ele>
<time>2013-11-22T10:38:14Z</time>
<speed>0.010000</speed>
<extensions>
<speed>0.0</speed>
<temp>0.00</temp>
<bpm>0</bpm>
<rpm>0.00</rpm>
</extensions>
</trkpt>
<trkpt lat="30.699630737" lon="34.951328278">
<ele>649.796875</ele>
<time>2013-11-22T10:38:19Z</time>
<extensions>
<speed>0.0</speed>
<temp>0.00</temp>
<bpm>0</bpm>
<rpm>0.00</rpm>
</extensions>
</trkpt>
<trkpt lat="30.699630737" lon="34.951328278">
<ele>649.828125</ele>
<time>2013-11-22T10:38:24Z</time>
<extensions>
<speed>0.0</speed>
<temp>0.00</temp>
<bpm>0</bpm>
<rpm>0.00</rpm>
</extensions>
</trkpt>
<trkpt lat="30.699630737" lon="34.951328278">
<ele>649.859375</ele>
<time>2013-11-22T10:38:29Z</time>
<extensions>
<speed>0.0</speed>
<temp>0.00</temp>
<bpm>0</bpm>
<rpm>0.00</rpm>
</extensions>
</trkpt>
<trkpt lat="30.699630737" lon="34.951328278">
<ele>649.875000</ele>
<time>2013-11-22T10:38:34Z</time>
<speed>0.010000</speed>
<extensions>
<speed>0.0</speed>
<temp>0.00</temp>
<bpm>0</bpm>
<rpm>0.00</rpm>
</extensions>
</trkpt>
<trkpt lat="30.699630737" lon="34.951328278">
<ele>649.906250</ele>
<time>2013-11-22T10:38:39Z</time>
<extensions>
<speed>0.0</speed>
<temp>0.00</temp>
<bpm>0</bpm>
<rpm>0.00</rpm>
</extensions>
</trkpt>
<trkpt lat="30.699630737" lon="34.951328278">
<ele>649.906250</ele>
<time>2013-11-22T10:38:44Z</time>
<extensions>
<speed>0.0</speed>
<temp>0.00</temp>
<bpm>0</bpm>
<rpm>0.00</rpm>
</extensions>
</trkpt>
<trkpt lat="30.699630737" lon="34.951328278">
<ele>649.921875</ele>
<time>2013-11-22T10:38:49Z</time>
<extensions>
<speed>0.0</speed>
<temp>0.00</temp>
<bpm>0</bpm>
<rpm>0.00</rpm>
</extensions>
</trkpt>
<trkpt lat="30.699630737" lon="34.951328278">
<ele>649.937500</ele>
<time>2013-11-22T10:38:54Z</time>
<speed>0.020000</speed>
<extensions>
<speed>0.0</speed>
<temp>0.00</temp>
<bpm>0</bpm>
<rpm>0.00</rpm>
</extensions>
</trkpt>
<trkpt lat="30.699630737" lon="34.951328278">
<ele>649.937500</ele>
<time>2013-11-22T10:38:59Z</time>
<speed>0.010000</speed>
<extensions>
<speed>0.0</speed>
<temp>0.00</temp>
<bpm>0</bpm>
<rpm>0.00</rpm>
</extensions>
</trkpt>
<trkpt lat="30.699632645" lon="34.951328278">
<ele>649.937500</ele>
<time>2013-11-22T10:39:04Z</time>
<extensions>
<speed>0.0</speed>
<temp>0.00</temp>
<bpm>0</bpm>
<rpm>0.00</rpm>
</extensions>
</trkpt>
<trkpt lat="30.699630737" lon="34.951328278">
<ele>649.921875</ele>
<time>2013-11-22T10:39:09Z</time>
<extensions>
<speed>0.0</speed>
<temp>0.00</temp>
<bpm>0</bpm>
<rpm>0.00</rpm>
</extensions>
</trkpt>
<trkpt lat="30.699632645" lon="34.951328278">
<ele>649.937500</ele>
<time>2013-11-22T10:39:14Z</time>
<extensions>
<speed>0.0</speed>
<temp>0.00</temp>
<bpm>0</bpm>
<rpm>0.00</rpm>
</extensions>
</trkpt>
<trkpt lat="30.699632645" lon="34.951328278">
<ele>649.953125</ele>
<time>2013-11-22T10:39:19Z</time>
<extensions>
<speed>0.0</speed>
<temp>0.00</temp>
<bpm>0</bpm>
<rpm>0.00</rpm>
</extensions>
</trkpt>
<trkpt lat="30.699632645" lon="34.951328278">
<ele>649.953125</ele>
<time>2013-11-22T10:39:24Z</time>
<extensions>
<speed>0.0</speed>
<temp>0.00</temp>
<bpm>0</bpm>
<rpm>0.00</rpm>
</extensions>
</trkpt>
<trkpt lat="30.699632645" lon="34.951328278">
<ele>649.968750</ele>
<time>2013-11-22T10:39:29Z</time>
<extensions>
<speed>0.0</speed>
<temp>0.00</temp>
<bpm>0</bpm>
<rpm>0.00</rpm>
</extensions>
</trkpt>
<trkpt lat="30.699632645" lon="34.951328278">
<ele>649.968750</ele>
<time>2013-11-22T10:39:34Z</time>
<speed>0.010000</speed>
<extensions>
<speed>0.0</speed>
<temp>0.00</temp>
<bpm>0</bpm>
<rpm>0.00</rpm>
</extensions>
</trkpt>
<trkpt lat="30.699632645" lon="34.951328278">
<ele>649.968750</ele>
<time>2013-11-22T10:39:39Z</time>
<extensions>
<speed>0.0</speed>
<temp>0.00</temp>
<bpm>0</bpm>
<rpm>0.00</rpm>
</extensions>
</trkpt>
<trkpt lat="30.699632645" lon="34.951328278">
<ele>649.984375</ele>
<time>2013-11-22T10:39:44Z</time>
<extensions>
<speed>0.0</speed>
<temp>0.00</temp>
<bpm>0</bpm>
<rpm>0.00</rpm>
</extensions>
</trkpt>
<trkpt lat="30.699632645" lon="34.951328278">
<ele>649.984375</ele>
<time>2013-11-22T10:39:49Z</time>
<speed>0.010000</speed>
<extensions>
<speed>0.0</speed>
<temp>0.00</temp>
<bpm>0</bpm>
<rpm>0.00</rpm>
</extensions>
</trkpt>
<trkpt lat="30.699632645" lon="34.951328278">
<ele>650.000000</ele>
<time>2013-11-22T10:39:54Z</time>
<extensions>
<speed>0.0</speed>
<temp>0.00</temp>
<bpm>0</bpm>
<rpm>0.00</rpm>
</extensions>
</trkpt>
<trkpt lat="30.699632645" lon="34.951328278">
<ele>650.000000</ele>
<time>2013-11-22T10:39:59Z</time>
<speed>0.020000</speed>
<extensions>
<speed>0.0</speed>
<temp>0.00</temp>
<bpm>0</bpm>
<rpm>0.00</rpm>
</extensions>
</trkpt>
<trkpt lat="30.699632645" lon="34.951328278">
<ele>649.984375</ele>
<time>2013-11-22T10:40:04Z</time>
<extensions>
<speed>0.0</speed>
<temp>0.00</temp>
<bpm>0</bpm>
<rpm>0.00</rpm>
</extensions>
</trkpt>
<trkpt lat="30.699632645" lon="34.951328278">
<ele>649.984375</ele>
<time>2013-11-22T10:40:09Z</time>
<extensions>
<speed>0.0</speed>
<temp>0.00</temp>
<bpm>0</bpm>
<rpm>0.00</rpm>
</extensions>
</trkpt>
<trkpt lat="30.699632645" lon="34.951328278">
<ele>649.984375</ele>
<time>2013-11-22T10:40:14Z</time>
<speed>0.010000</speed>
<extensions>
<speed>0.0</speed>
<temp>0.00</temp>
<bpm>0</bpm>
<rpm>0.00</rpm>
</extensions>
</trkpt>
<trkpt lat="30.699632645" lon="34.951328278">
<ele>650.000000</ele>
<time>2013-11-22T10:40:19Z</time>
<extensions>
<speed>0.0</speed>
<temp>0.00</temp>
<bpm>0</bpm>
<rpm>0.00</rpm>
</extensions>
</trkpt>
<trkpt lat="30.699632645" lon="34.951328278">
<ele>650.015625</ele>
<time>2013-11-22T10:40:24Z</time>
<extensions>
<speed>0.0</speed>
<temp>0.00</temp>
<bpm>0</bpm>
<rpm>0.00</rpm>
</extensions>
</trkpt>
<trkpt lat="30.699632645" lon="34.951328278">
<ele>650.015625</ele>
<time>2013-11-22T10:40:29Z</time>
<extensions>
<speed>0.0</speed>
<temp>0.00</temp>
<bpm>0</bpm>
<rpm>0.00</rpm>
</extensions>
</trkpt>
<trkpt lat="30.699632645" lon="34.951328278">
<ele>650.031250</ele>
<time>2013-11-22T10:40:34Z</time>
<extensions>
<speed>0.0</speed>
<temp>0.00</temp>
<bpm>0</bpm>
<rpm>0.00</rpm>
</extensions>
</trkpt>
<trkpt lat="30.699632645" lon="34.951328278">
<ele>650.046875</ele>
<time>2013-11-22T10:40:39Z</time>
<extensions>
<speed>0.0</speed>
<temp>0.00</temp>
<bpm>0</bpm>
<rpm>0.00</rpm>
</extensions>
</trkpt>
<trkpt lat="30.699632645" lon="34.951328278">
<ele>650.046875</ele>
<time>2013-11-22T10:40:44Z</time>
<extensions>
<speed>0.0</speed>
<temp>0.00</temp>
<bpm>0</bpm>
<rpm>0.00</rpm>
</extensions>
</trkpt>
<trkpt lat="30.699632645" lon="34.951328278">
<ele>650.046875</ele>
<time>2013-11-22T10:40:49Z</time>
<extensions>
<speed>0.0</speed>
<temp>0.00</temp>
<bpm>0</bpm>
<rpm>0.00</rpm>
</extensions>
</trkpt>
<trkpt lat="30.699632645" lon="34.951328278">
<ele>650.062500</ele>
<time>2013-11-22T10:40:54Z</time>
<speed>0.010000</speed>
<extensions>
<speed>0.0</speed>
<temp>0.00</temp>
<bpm>0</bpm>
<rpm>0.00</rpm>
</extensions>
</trkpt>
<trkpt lat="30.699632645" lon="34.951328278">
<ele>650.046875</ele>
<time>2013-11-22T10:40:59Z</time>
<extensions>
<speed>0.0</speed>
<temp>0.00</temp>
<bpm>0</bpm>
<rpm>0.00</rpm>
</extensions>
</trkpt>
<trkpt lat="30.699632645" lon="34.951328278">
<ele>650.046875</ele>
<time>2013-11-22T10:41:04Z</time>
<extensions>
<speed>0.0</speed>
<temp>0.00</temp>
<bpm>0</bpm>
<rpm>0.00</rpm>
</extensions>
</trkpt>
<trkpt lat="30.699632645" lon="34.951328278">
<ele>650.031250</ele>
<time>2013-11-22T10:41:09Z</time>
<speed>0.010000</speed>
<extensions>
<speed>0.0</speed>
<temp>0.00</temp>
<bpm>0</bpm>
<rpm>0.00</rpm>
</extensions>
</trkpt>
<trkpt lat="30.699632645" lon="34.951328278">
<ele>650.031250</ele>
<time>2013-11-22T10:41:14Z</time>
<speed>0.010000</speed>
<extensions>
<speed>0.0</speed>
<temp>0.00</temp>
<bpm>0</bpm>
<rpm>0.00</rpm>
</extensions>
</trkpt>
<trkpt lat="30.699632645" lon="34.951328278">
<ele>650.031250</ele>
<time>2013-11-22T10:41:19Z</time>
<extensions>
<speed>0.0</speed>
<temp>0.00</temp>
<bpm>0</bpm>
<rpm>0.00</rpm>
</extensions>
</trkpt>
<trkpt lat="30.699632645" lon="34.951328278">
<ele>650.031250</ele>
<time>2013-11-22T10:41:24Z</time>
<extensions>
<speed>0.0</speed>
<temp>0.00</temp>
<bpm>0</bpm>
<rpm>0.00</rpm>
</extensions>
</trkpt>
<trkpt lat="30.699632645" lon="34.951328278">
<ele>650.031250</ele>
<time>2013-11-22T10:41:29Z</time>
<speed>0.010000</speed>
<extensions>
<speed>0.0</speed>
<temp>0.00</temp>
<bpm>0</bpm>
<rpm>0.00</rpm>
</extensions>
</trkpt>
<trkpt lat="30.699632645" lon="34.951328278">
<ele>650.015625</ele>
<time>2013-11-22T10:41:34Z</time>
<extensions>
<speed>0.0</speed>
<temp>0.00</temp>
<bpm>0</bpm>
<rpm>0.00</rpm>
</extensions>
</trkpt>
<trkpt lat="30.699632645" lon="34.951328278">
<ele>650.015625</ele>
<time>2013-11-22T10:41:39Z</time>
<extensions>
<speed>0.0</speed>
<temp>0.00</temp>
<bpm>0</bpm>
<rpm>0.00</rpm>
</extensions>
</trkpt>
<trkpt lat="30.699632645" lon="34.951328278">
<ele>650.046875</ele>
<time>2013-11-22T10:41:44Z</time>
<speed>0.010000</speed>
<extensions>
<speed>0.0</speed>
<temp>0.00</temp>
<bpm>0</bpm>
<rpm>0.00</rpm>
</extensions>
</trkpt>
<trkpt lat="30.699632645" lon="34.951328278">
<ele>650.062500</ele>
<time>2013-11-22T10:41:49Z</time>
<extensions>
<speed>0.0</speed>
<temp>0.00</temp>
<bpm>0</bpm>
<rpm>0.00</rpm>
</extensions>
</trkpt>
<trkpt lat="30.699632645" lon="34.951328278">
<ele>650.062500</ele>
<time>2013-11-22T10:41:54Z</time>
<extensions>
<speed>0.0</speed>
<temp>0.00</temp>
<bpm>0</bpm>
<rpm>0.00</rpm>
</extensions>
</trkpt>
<trkpt lat="30.699632645" lon="34.951328278">
<ele>650.046875</ele>
<time>2013-11-22T10:41:59Z</time>
<speed>0.010000</speed>
<extensions>
<speed>0.0</speed>
<temp>0.00</temp>
<bpm>0</bpm>
<rpm>0.00</rpm>
</extensions>
</trkpt>
<trkpt lat="30.699632645" lon="34.951328278">
<ele>650.062500</ele>
<time>2013-11-22T10:42:04Z</time>
<extensions>
<speed>0.0</speed>
<temp>0.00</temp>
<bpm>0</bpm>
<rpm>0.00</rpm>
</extensions>
</trkpt>
<trkpt lat="30.699632645" lon="34.951328278">
<ele>650.046875</ele>
<time>2013-11-22T10:42:09Z</time>
<extensions>
<speed>0.0</speed>
<temp>0.00</temp>
<bpm>0</bpm>
<rpm>0.00</rpm>
</extensions>
</trkpt>
<trkpt lat="30.699632645" lon="34.951328278">
<ele>650.046875</ele>
<time>2013-11-22T10:42:14Z</time>
<speed>0.010000</speed>
<extensions>
<speed>0.0</speed>
<temp>0.00</temp>
<bpm>0</bpm>
<rpm>0.00</rpm>
</extensions>
</trkpt>
<trkpt lat="30.699632645" lon="34.951328278">
<ele>650.062500</ele>
<time>2013-11-22T10:42:19Z</time>
<extensions>
<speed>0.0</speed>
<temp>0.00</temp>
<bpm>0</bpm>
<rpm>0.00</rpm>
</extensions>
</trkpt>
<trkpt lat="30.699632645" lon="34.951328278">
<ele>650.062500</ele>
<time>2013-11-22T10:42:24Z</time>
<speed>0.010000</speed>
<extensions>
<speed>0.0</speed>
<temp>0.00</temp>
<bpm>0</bpm>
<rpm>0.00</rpm>
</extensions>
</trkpt>
<trkpt lat="30.699632645" lon="34.951328278">
<ele>650.046875</ele>
<time>2013-11-22T10:42:29Z</time>
<extensions>
<speed>0.0</speed>
<temp>0.00</temp>
<bpm>0</bpm>
<rpm>0.00</rpm>
</extensions>
</trkpt>
<trkpt lat="30.699632645" lon="34.951332092">
<ele>650.031250</ele>
<time>2013-11-22T10:42:34Z</time>
<speed>0.010000</speed>
<extensions>
<speed>0.0</speed>
<temp>0.00</temp>
<bpm>0</bpm>
<rpm>0.00</rpm>
</extensions>
</trkpt>
<trkpt lat="30.699632645" lon="34.951332092">
<ele>650.031250</ele>
<time>2013-11-22T10:42:39Z</time>
<speed>0.010000</speed>
<extensions>
<speed>0.0</speed>
<temp>0.00</temp>
<bpm>0</bpm>
<rpm>0.00</rpm>
</extensions>
</trkpt>
<trkpt lat="30.699632645" lon="34.951332092">
<ele>650.031250</ele>
<time>2013-11-22T10:42:44Z</time>
<extensions>
<speed>0.0</speed>
<temp>0.00</temp>
<bpm>0</bpm>
<rpm>0.00</rpm>
</extensions>
</trkpt>
<trkpt lat="30.699632645" lon="34.951332092">
<ele>650.046875</ele>
<time>2013-11-22T10:42:49Z</time>
<speed>0.010000</speed>
<extensions>
<speed>0.0</speed>
<temp>0.00</temp>
<bpm>0</bpm>
<rpm>0.00</rpm>
</extensions>
</trkpt>
<trkpt lat="30.699632645" lon="34.951332092">
<ele>650.046875</ele>
<time>2013-11-22T10:42:54Z</time>
<speed>0.010000</speed>
<extensions>
<speed>0.0</speed>
<temp>0.00</temp>
<bpm>0</bpm>
<rpm>0.00</rpm>
</extensions>
</trkpt>
<trkpt lat="30.699632645" lon="34.951332092">
<ele>650.062500</ele>
<time>2013-11-22T10:42:59Z</time>
<speed>0.010000</speed>
<extensions>
<speed>0.0</speed>
<temp>0.00</temp>
<bpm>0</bpm>
<rpm>0.00</rpm>
</extensions>
</trkpt>
<trkpt lat="30.699632645" lon="34.951332092">
<ele>650.062500</ele>
<time>2013-11-22T10:43:04Z</time>
<extensions>
<speed>0.0</speed>
<temp>0.00</temp>
<bpm>0</bpm>
<rpm>0.00</rpm>
</extensions>
</trkpt>
<trkpt lat="30.699632645" lon="34.951332092">
<ele>650.062500</ele>
<time>2013-11-22T10:43:09Z</time>
<extensions>
<speed>0.0</speed>
<temp>0.00</temp>
<bpm>0</bpm>
<rpm>0.00</rpm>
</extensions>
</trkpt>
<trkpt lat="30.699632645" lon="34.951332092">
<ele>650.062500</ele>
<time>2013-11-22T10:43:14Z</time>
<extensions>
<speed>0.0</speed>
<temp>0.00</temp>
<bpm>0</bpm>
<rpm>0.00</rpm>
</extensions>
</trkpt>
<trkpt lat="30.699632645" lon="34.951332092">
<ele>650.078125</ele>
<time>2013-11-22T10:43:19Z</time>
<extensions>
<speed>0.0</speed>
<temp>0.00</temp>
<bpm>0</bpm>
<rpm>0.00</rpm>
</extensions>
</trkpt>
<trkpt lat="30.699632645" lon="34.951332092">
<ele>650.093750</ele>
<time>2013-11-22T10:43:24Z</time>
<extensions>
<speed>0.0</speed>
<temp>0.00</temp>
<bpm>0</bpm>
<rpm>0.00</rpm>
</extensions>
</trkpt>
<trkpt lat="30.699632645" lon="34.951332092">
<ele>650.093750</ele>
<time>2013-11-22T10:43:29Z</time>
<speed>0.010000</speed>
<extensions>
<speed>0.0</speed>
<temp>0.00</temp>
<bpm>0</bpm>
<rpm>0.00</rpm>
</extensions>
</trkpt>
<trkpt lat="30.699632645" lon="34.951332092">
<ele>650.109375</ele>
<time>2013-11-22T10:43:34Z</time>
<speed>0.010000</speed>
<extensions>
<speed>0.0</speed>
<temp>0.00</temp>
<bpm>0</bpm>
<rpm>0.00</rpm>
</extensions>
</trkpt>
<trkpt lat="30.699632645" lon="34.951332092">
<ele>650.109375</ele>
<time>2013-11-22T10:43:39Z</time>
<extensions>
<speed>0.0</speed>
<temp>0.00</temp>
<bpm>0</bpm>
<rpm>0.00</rpm>
</extensions>
</trkpt>
<trkpt lat="30.699632645" lon="34.951332092">
<ele>650.140625</ele>
<time>2013-11-22T10:43:44Z</time>
<extensions>
<speed>0.0</speed>
<temp>0.00</temp>
<bpm>0</bpm>
<rpm>0.00</rpm>
</extensions>
</trkpt>
<trkpt lat="30.699632645" lon="34.951332092">
<ele>650.140625</ele>
<time>2013-11-22T10:43:49Z</time>
<extensions>
<speed>0.0</speed>
<temp>0.00</temp>
<bpm>0</bpm>
<rpm>0.00</rpm>
</extensions>
</trkpt>
<trkpt lat="30.699632645" lon="34.951332092">
<ele>650.156250</ele>
<time>2013-11-22T10:43:54Z</time>
<speed>0.010000</speed>
<extensions>
<speed>0.0</speed>
<temp>0.00</temp>
<bpm>0</bpm>
<rpm>0.00</rpm>
</extensions>
</trkpt>
<trkpt lat="30.699632645" lon="34.951332092">
<ele>650.171875</ele>
<time>2013-11-22T10:43:59Z</time>
<extensions>
<speed>0.0</speed>
<temp>0.00</temp>
<bpm>0</bpm>
<rpm>0.00</rpm>
</extensions>
</trkpt>
<trkpt lat="30.699632645" lon="34.951332092">
<ele>650.187500</ele>
<time>2013-11-22T10:44:04Z</time>
<extensions>
<speed>0.0</speed>
<temp>0.00</temp>
<bpm>0</bpm>
<rpm>0.00</rpm>
</extensions>
</trkpt>
<trkpt lat="30.699632645" lon="34.951332092">
<ele>650.187500</ele>
<time>2013-11-22T10:44:09Z</time>
<extensions>
<speed>0.0</speed>
<temp>0.00</temp>
<bpm>0</bpm>
<rpm>0.00</rpm>
</extensions>
</trkpt>
<trkpt lat="30.699632645" lon="34.951332092">
<ele>650.187500</ele>
<time>2013-11-22T10:44:14Z</time>
<extensions>
<speed>0.0</speed>
<temp>0.00</temp>
<bpm>0</bpm>
<rpm>0.00</rpm>
</extensions>
</trkpt>
<trkpt lat="30.699632645" lon="34.951332092">
<ele>650.203125</ele>
<time>2013-11-22T10:44:19Z</time>
<speed>0.010000</speed>
<extensions>
<speed>0.0</speed>
<temp>0.00</temp>
<bpm>0</bpm>
<rpm>0.00</rpm>
</extensions>
</trkpt>
<trkpt lat="30.699632645" lon="34.951332092">
<ele>650.203125</ele>
<time>2013-11-22T10:44:24Z</time>
<speed>0.010000</speed>
<extensions>
<speed>0.0</speed>
<temp>0.00</temp>
<bpm>0</bpm>
<rpm>0.00</rpm>
</extensions>
</trkpt>
<trkpt lat="30.699632645" lon="34.951332092">
<ele>650.203125</ele>
<time>2013-11-22T10:44:29Z</time>
<extensions>
<speed>0.0</speed>
<temp>0.00</temp>
<bpm>0</bpm>
<rpm>0.00</rpm>
</extensions>
</trkpt>
<trkpt lat="30.699634552" lon="34.951332092">
<ele>650.218750</ele>
<time>2013-11-22T10:44:34Z</time>
<speed>0.010000</speed>
<extensions>
<speed>0.0</speed>
<temp>0.00</temp>
<bpm>0</bpm>
<rpm>0.00</rpm>
</extensions>
</trkpt>
<trkpt lat="30.699634552" lon="34.951332092">
<ele>650.218750</ele>
<time>2013-11-22T10:44:39Z</time>
<extensions>
<speed>0.0</speed>
<temp>0.00</temp>
<bpm>0</bpm>
<rpm>0.00</rpm>
</extensions>
</trkpt>
<trkpt lat="30.699632645" lon="34.951332092">
<ele>650.218750</ele>
<time>2013-11-22T10:44:44Z</time>
<speed>0.010000</speed>
<extensions>
<speed>0.0</speed>
<temp>0.00</temp>
<bpm>0</bpm>
<rpm>0.00</rpm>
</extensions>
</trkpt>
<trkpt lat="30.699632645" lon="34.951332092">
<ele>650.203125</ele>
<time>2013-11-22T10:44:49Z</time>
<speed>0.010000</speed>
<extensions>
<speed>0.0</speed>
<temp>0.00</temp>
<bpm>0</bpm>
<rpm>0.00</rpm>
</extensions>
</trkpt>
<trkpt lat="30.699632645" lon="34.951332092">
<ele>650.218750</ele>
<time>2013-11-22T10:44:54Z</time>
<speed>0.010000</speed>
<extensions>
<speed>0.0</speed>
<temp>0.00</temp>
<bpm>0</bpm>
<rpm>0.00</rpm>
</extensions>
</trkpt>
<trkpt lat="30.699634552" lon="34.951332092">
<ele>650.234375</ele>
<time>2013-11-22T10:44:59Z</time>
<extensions>
<speed>0.0</speed>
<temp>0.00</temp>
<bpm>0</bpm>
<rpm>0.00</rpm>
</extensions>
</trkpt>
<trkpt lat="30.699634552" lon="34.951332092">
<ele>650.250000</ele>
<time>2013-11-22T10:45:04Z</time>
<speed>0.010000</speed>
<extensions>
<speed>0.0</speed>
<temp>0.00</temp>
<bpm>0</bpm>
<rpm>0.00</rpm>
</extensions>
</trkpt>
<trkpt lat="30.699634552" lon="34.951332092">
<ele>650.265625</ele>
<time>2013-11-22T10:45:09Z</time>
<extensions>
<speed>0.0</speed>
<temp>0.00</temp>
<bpm>0</bpm>
<rpm>0.00</rpm>
</extensions>
</trkpt>
<trkpt lat="30.699634552" lon="34.951332092">
<ele>650.265625</ele>
<time>2013-11-22T10:45:14Z</time>
<extensions>
<speed>0.0</speed>
<temp>0.00</temp>
<bpm>0</bpm>
<rpm>0.00</rpm>
</extensions>
</trkpt>
<trkpt lat="30.699634552" lon="34.951332092">
<ele>650.281250</ele>
<time>2013-11-22T10:45:19Z</time>
<extensions>
<speed>0.0</speed>
<temp>0.00</temp>
<bpm>0</bpm>
<rpm>0.00</rpm>
</extensions>
</trkpt>
<trkpt lat="30.699634552" lon="34.951332092">
<ele>650.281250</ele>
<time>2013-11-22T10:45:24Z</time>
<extensions>
<speed>0.0</speed>
<temp>0.00</temp>
<bpm>0</bpm>
<rpm>0.00</rpm>
</extensions>
</trkpt>
<trkpt lat="30.699634552" lon="34.951332092">
<ele>650.312500</ele>
<time>2013-11-22T10:45:29Z</time>
<extensions>
<speed>0.0</speed>
<temp>0.00</temp>
<bpm>0</bpm>
<rpm>0.00</rpm>
</extensions>
</trkpt>
<trkpt lat="30.699634552" lon="34.951332092">
<ele>650.328125</ele>
<time>2013-11-22T10:45:34Z</time>
<extensions>
<speed>0.0</speed>
<temp>0.00</temp>
<bpm>0</bpm>
<rpm>0.00</rpm>
</extensions>
</trkpt>
<trkpt lat="30.699634552" lon="34.951332092">
<ele>650.312500</ele>
<time>2013-11-22T10:45:39Z</time>
<extensions>
<speed>0.0</speed>
<temp>0.00</temp>
<bpm>0</bpm>
<rpm>0.00</rpm>
</extensions>
</trkpt>
<trkpt lat="30.699634552" lon="34.951332092">
<ele>650.312500</ele>
<time>2013-11-22T10:45:44Z</time>
<speed>0.010000</speed>
<extensions>
<speed>0.0</speed>
<temp>0.00</temp>
<bpm>0</bpm>
<rpm>0.00</rpm>
</extensions>
</trkpt>
<trkpt lat="30.699634552" lon="34.951332092">
<ele>650.312500</ele>
<time>2013-11-22T10:45:49Z</time>
<extensions>
<speed>0.0</speed>
<temp>0.00</temp>
<bpm>0</bpm>
<rpm>0.00</rpm>
</extensions>
</trkpt>
<trkpt lat="30.699634552" lon="34.951332092">
<ele>650.312500</ele>
<time>2013-11-22T10:45:54Z</time>
<speed>0.010000</speed>
<extensions>
<speed>0.0</speed>
<temp>0.00</temp>
<bpm>0</bpm>
<rpm>0.00</rpm>
</extensions>
</trkpt>
<trkpt lat="30.699634552" lon="34.951332092">
<ele>650.328125</ele>
<time>2013-11-22T10:45:59Z</time>
<speed>0.020000</speed>
<extensions>
<speed>0.0</speed>
<temp>0.00</temp>
<bpm>0</bpm>
<rpm>0.00</rpm>
</extensions>
</trkpt>
<trkpt lat="30.699634552" lon="34.951332092">
<ele>650.328125</ele>
<time>2013-11-22T10:46:04Z</time>
<speed>0.030000</speed>
<extensions>
<speed>0.0</speed>
<temp>0.00</temp>
<bpm>0</bpm>
<rpm>0.00</rpm>
</extensions>
</trkpt>
<trkpt lat="30.699634552" lon="34.951332092">
<ele>650.343750</ele>
<time>2013-11-22T10:46:09Z</time>
<speed>0.130000</speed>
<extensions>
<speed>0.1</speed>
<temp>0.00</temp>
<bpm>0</bpm>
<rpm>0.00</rpm>
</extensions>
</trkpt>
<trkpt lat="30.699632645" lon="34.951332092">
<ele>650.328125</ele>
<time>2013-11-22T10:46:14Z</time>
<speed>0.010000</speed>
<extensions>
<speed>0.0</speed>
<temp>0.00</temp>
<bpm>0</bpm>
<rpm>0.00</rpm>
</extensions>
</trkpt>
<trkpt lat="30.699632645" lon="34.951332092">
<ele>650.328125</ele>
<time>2013-11-22T10:46:19Z</time>
<speed>0.030000</speed>
<extensions>
<speed>0.0</speed>
<temp>0.00</temp>
<bpm>0</bpm>
<rpm>0.00</rpm>
</extensions>
</trkpt>
<trkpt lat="30.699632645" lon="34.951332092">
<ele>650.328125</ele>
<time>2013-11-22T10:46:24Z</time>
<speed>0.010000</speed>
<extensions>
<speed>0.0</speed>
<temp>0.00</temp>
<bpm>0</bpm>
<rpm>0.00</rpm>
</extensions>
</trkpt>
<trkpt lat="30.699632645" lon="34.951332092">
<ele>650.328125</ele>
<time>2013-11-22T10:46:29Z</time>
<extensions>
<speed>0.0</speed>
<temp>0.00</temp>
<bpm>0</bpm>
<rpm>0.00</rpm>
</extensions>
</trkpt>
<trkpt lat="30.699632645" lon="34.951332092">
<ele>650.328125</ele>
<time>2013-11-22T10:46:34Z</time>
<extensions>
<speed>0.0</speed>
<temp>0.00</temp>
<bpm>0</bpm>
<rpm>0.00</rpm>
</extensions>
</trkpt>
<trkpt lat="30.699632645" lon="34.951332092">
<ele>650.343750</ele>
<time>2013-11-22T10:46:39Z</time>
<speed>0.010000</speed>
<extensions>
<speed>0.0</speed>
<temp>0.00</temp>
<bpm>0</bpm>
<rpm>0.00</rpm>
</extensions>
</trkpt>
<trkpt lat="30.699632645" lon="34.951332092">
<ele>650.359375</ele>
<time>2013-11-22T10:46:44Z</time>
<speed>0.010000</speed>
<extensions>
<speed>0.0</speed>
<temp>0.00</temp>
<bpm>0</bpm>
<rpm>0.00</rpm>
</extensions>
</trkpt>
<trkpt lat="30.699632645" lon="34.951332092">
<ele>650.359375</ele>
<time>2013-11-22T10:46:49Z</time>
<extensions>
<speed>0.0</speed>
<temp>0.00</temp>
<bpm>0</bpm>
<rpm>0.00</rpm>
</extensions>
</trkpt>
<trkpt lat="30.699632645" lon="34.951332092">
<ele>650.375000</ele>
<time>2013-11-22T10:46:54Z</time>
<speed>0.010000</speed>
<extensions>
<speed>0.0</speed>
<temp>0.00</temp>
<bpm>0</bpm>
<rpm>0.00</rpm>
</extensions>
</trkpt>
<trkpt lat="30.699632645" lon="34.951332092">
<ele>650.375000</ele>
<time>2013-11-22T10:46:59Z</time>
<extensions>
<speed>0.0</speed>
<temp>0.00</temp>
<bpm>0</bpm>
<rpm>0.00</rpm>
</extensions>
</trkpt>
<trkpt lat="30.699632645" lon="34.951332092">
<ele>650.359375</ele>
<time>2013-11-22T10:47:04Z</time>
<extensions>
<speed>0.0</speed>
<temp>0.00</temp>
<bpm>0</bpm>
<rpm>0.00</rpm>
</extensions>
</trkpt>
<trkpt lat="30.699632645" lon="34.951332092">
<ele>650.359375</ele>
<time>2013-11-22T10:47:09Z</time>
<extensions>
<speed>0.0</speed>
<temp>0.00</temp>
<bpm>0</bpm>
<rpm>0.00</rpm>
</extensions>
</trkpt>
<trkpt lat="30.699632645" lon="34.951332092">
<ele>650.375000</ele>
<time>2013-11-22T10:47:14Z</time>
<extensions>
<speed>0.0</speed>
<temp>0.00</temp>
<bpm>0</bpm>
<rpm>0.00</rpm>
</extensions>
</trkpt>
<trkpt lat="30.699632645" lon="34.951332092">
<ele>650.390625</ele>
<time>2013-11-22T10:47:19Z</time>
<extensions>
<speed>0.0</speed>
<temp>0.00</temp>
<bpm>0</bpm>
<rpm>0.00</rpm>
</extensions>
</trkpt>
<trkpt lat="30.699632645" lon="34.951332092">
<ele>650.390625</ele>
<time>2013-11-22T10:47:24Z</time>
<extensions>
<speed>0.0</speed>
<temp>0.00</temp>
<bpm>0</bpm>
<rpm>0.00</rpm>
</extensions>
</trkpt>
<trkpt lat="30.699632645" lon="34.951332092">
<ele>650.390625</ele>
<time>2013-11-22T10:47:29Z</time>
<extensions>
<speed>0.0</speed>
<temp>0.00</temp>
<bpm>0</bpm>
<rpm>0.00</rpm>
</extensions>
</trkpt>
<trkpt lat="30.699632645" lon="34.951332092">
<ele>650.406250</ele>
<time>2013-11-22T10:47:34Z</time>
<speed>0.010000</speed>
<extensions>
<speed>0.0</speed>
<temp>0.00</temp>
<bpm>0</bpm>
<rpm>0.00</rpm>
</extensions>
</trkpt>
<trkpt lat="30.699632645" lon="34.951332092">
<ele>650.437500</ele>
<time>2013-11-22T10:47:39Z</time>
<extensions>
<speed>0.0</speed>
<temp>0.00</temp>
<bpm>0</bpm>
<rpm>0.00</rpm>
</extensions>
</trkpt>
<trkpt lat="30.699630737" lon="34.951351166">
<ele>651.234375</ele>
<time>2013-11-22T10:47:44Z</time>
<speed>0.220000</speed>
<extensions>
<speed>0.2</speed>
<temp>0.00</temp>
<bpm>0</bpm>
<rpm>0.00</rpm>
</extensions>
</trkpt>
<trkpt lat="30.699630737" lon="34.951358795">
<ele>652.140625</ele>
<time>2013-11-22T10:47:49Z</time>
<speed>0.140000</speed>
<extensions>
<speed>0.1</speed>
<temp>0.00</temp>
<bpm>0</bpm>
<rpm>0.00</rpm>
</extensions>
</trkpt>
<trkpt lat="30.699630737" lon="34.951366425">
<ele>652.765625</ele>
<time>2013-11-22T10:47:54Z</time>
<speed>0.140000</speed>
<extensions>
<speed>0.1</speed>
<temp>0.00</temp>
<bpm>0</bpm>
<rpm>0.00</rpm>
</extensions>
</trkpt>
<trkpt lat="30.699632645" lon="34.951374054">
<ele>653.437500</ele>
<time>2013-11-22T10:47:59Z</time>
<speed>0.140000</speed>
<extensions>
<speed>0.1</speed>
<temp>0.00</temp>
<bpm>0</bpm>
<rpm>0.00</rpm>
</extensions>
</trkpt>
<trkpt lat="30.699632645" lon="34.951381683">
<ele>654.078125</ele>
<time>2013-11-22T10:48:04Z</time>
<speed>0.130000</speed>
<extensions>
<speed>0.1</speed>
<temp>0.00</temp>
<bpm>0</bpm>
<rpm>0.00</rpm>
</extensions>
</trkpt>
<trkpt lat="30.699634552" lon="34.951389313">
<ele>654.703125</ele>
<time>2013-11-22T10:48:09Z</time>
<speed>0.150000</speed>
<extensions>
<speed>0.2</speed>
<temp>0.00</temp>
<bpm>0</bpm>
<rpm>0.00</rpm>
</extensions>
</trkpt>
<trkpt lat="30.699636459" lon="34.951396942">
<ele>655.265625</ele>
<time>2013-11-22T10:48:14Z</time>
<speed>0.130000</speed>
<extensions>
<speed>0.1</speed>
<temp>0.00</temp>
<bpm>0</bpm>
<rpm>0.00</rpm>
</extensions>
</trkpt>
<trkpt lat="30.699638367" lon="34.951400757">
<ele>655.812500</ele>
<time>2013-11-22T10:48:19Z</time>
<speed>0.090000</speed>
<extensions>
<speed>0.1</speed>
<temp>0.00</temp>
<bpm>0</bpm>
<rpm>0.00</rpm>
</extensions>
</trkpt>
<trkpt lat="30.699640274" lon="34.951404572">
<ele>656.421875</ele>
<time>2013-11-22T10:48:24Z</time>
<speed>0.040000</speed>
<extensions>
<speed>0.0</speed>
<temp>0.00</temp>
<bpm>0</bpm>
<rpm>0.00</rpm>
</extensions>
</trkpt>
<trkpt lat="30.699638367" lon="34.951404572">
<ele>656.984375</ele>
<time>2013-11-22T10:48:29Z</time>
<speed>0.020000</speed>
<extensions>
<speed>0.0</speed>
<temp>0.00</temp>
<bpm>0</bpm>
<rpm>0.00</rpm>
</extensions>
</trkpt>
<trkpt lat="30.699638367" lon="34.951408386">
<ele>657.468750</ele>
<time>2013-11-22T10:48:34Z</time>
<speed>0.020000</speed>
<extensions>
<speed>0.0</speed>
<temp>0.00</temp>
<bpm>0</bpm>
<rpm>0.00</rpm>
</extensions>
</trkpt>
<trkpt lat="30.699638367" lon="34.951408386">
<ele>657.890625</ele>
<time>2013-11-22T10:48:39Z</time>
<speed>0.010000</speed>
<extensions>
<speed>0.0</speed>
<temp>0.00</temp>
<bpm>0</bpm>
<rpm>0.00</rpm>
</extensions>
</trkpt>
<trkpt lat="30.699638367" lon="34.951408386">
<ele>658.171875</ele>
<time>2013-11-22T10:48:44Z</time>
<speed>0.010000</speed>
<extensions>
<speed>0.0</speed>
<temp>0.00</temp>
<bpm>0</bpm>
<rpm>0.00</rpm>
</extensions>
</trkpt>
<trkpt lat="30.699638367" lon="34.951408386">
<ele>658.156250</ele>
<time>2013-11-22T10:48:49Z</time>
<extensions>
<speed>0.0</speed>
<temp>0.00</temp>
<bpm>0</bpm>
<rpm>0.00</rpm>
</extensions>
</trkpt>
<trkpt lat="30.699638367" lon="34.951408386">
<ele>658.140625</ele>
<time>2013-11-22T10:48:54Z</time>
<extensions>
<speed>0.0</speed>
<temp>0.00</temp>
<bpm>0</bpm>
<rpm>0.00</rpm>
</extensions>
</trkpt>
<trkpt lat="30.699638367" lon="34.951408386">
<ele>658.093750</ele>
<time>2013-11-22T10:48:59Z</time>
<speed>0.010000</speed>
<extensions>
<speed>0.0</speed>
<temp>0.00</temp>
<bpm>0</bpm>
<rpm>0.00</rpm>
</extensions>
</trkpt>
<trkpt lat="30.699638367" lon="34.951408386">
<ele>658.062500</ele>
<time>2013-11-22T10:49:04Z</time>
<extensions>
<speed>0.0</speed>
<temp>0.00</temp>
<bpm>0</bpm>
<rpm>0.00</rpm>
</extensions>
</trkpt>
<trkpt lat="30.699638367" lon="34.951408386">
<ele>658.031250</ele>
<time>2013-11-22T10:49:09Z</time>
<extensions>
<speed>0.0</speed>
<temp>0.00</temp>
<bpm>0</bpm>
<rpm>0.00</rpm>
</extensions>
</trkpt>
<trkpt lat="30.699638367" lon="34.951408386">
<ele>658.000000</ele>
<time>2013-11-22T10:49:14Z</time>
<speed>0.010000</speed>
<extensions>
<speed>0.0</speed>
<temp>0.00</temp>
<bpm>0</bpm>
<rpm>0.00</rpm>
</extensions>
</trkpt>
<trkpt lat="30.699638367" lon="34.951408386">
<ele>657.953125</ele>
<time>2013-11-22T10:49:19Z</time>
<extensions>
<speed>0.0</speed>
<temp>0.00</temp>
<bpm>0</bpm>
<rpm>0.00</rpm>
</extensions>
</trkpt>
<trkpt lat="30.699638367" lon="34.951408386">
<ele>657.921875</ele>
<time>2013-11-22T10:49:24Z</time>
<speed>0.010000</speed>
<extensions>
<speed>0.0</speed>
<temp>0.00</temp>
<bpm>0</bpm>
<rpm>0.00</rpm>
</extensions>
</trkpt>
<trkpt lat="30.699638367" lon="34.951408386">
<ele>657.890625</ele>
<time>2013-11-22T10:49:29Z</time>
<extensions>
<speed>0.0</speed>
<temp>0.00</temp>
<bpm>0</bpm>
<rpm>0.00</rpm>
</extensions>
</trkpt>
<trkpt lat="30.699638367" lon="34.951408386">
<ele>657.875000</ele>
<time>2013-11-22T10:49:34Z</time>
<extensions>
<speed>0.0</speed>
<temp>0.00</temp>
<bpm>0</bpm>
<rpm>0.00</rpm>
</extensions>
</trkpt>
<trkpt lat="30.699638367" lon="34.951408386">
<ele>657.859375</ele>
<time>2013-11-22T10:49:39Z</time>
<extensions>
<speed>0.0</speed>
<temp>0.00</temp>
<bpm>0</bpm>
<rpm>0.00</rpm>
</extensions>
</trkpt>
<trkpt lat="30.699638367" lon="34.951408386">
<ele>657.843750</ele>
<time>2013-11-22T10:49:44Z</time>
<speed>0.010000</speed>
<extensions>
<speed>0.0</speed>
<temp>0.00</temp>
<bpm>0</bpm>
<rpm>0.00</rpm>
</extensions>
</trkpt>
<trkpt lat="30.699638367" lon="34.951408386">
<ele>657.828125</ele>
<time>2013-11-22T10:49:49Z</time>
<speed>0.010000</speed>
<extensions>
<speed>0.0</speed>
<temp>0.00</temp>
<bpm>0</bpm>
<rpm>0.00</rpm>
</extensions>
</trkpt>
<trkpt lat="30.699638367" lon="34.951404572">
<ele>657.781250</ele>
<time>2013-11-22T10:49:54Z</time>
<speed>0.020000</speed>
<extensions>
<speed>0.0</speed>
<temp>0.00</temp>
<bpm>0</bpm>
<rpm>0.00</rpm>
</extensions>
</trkpt>
<trkpt lat="30.699638367" lon="34.951404572">
<ele>657.734375</ele>
<time>2013-11-22T10:49:59Z</time>
<speed>0.020000</speed>
<extensions>
<speed>0.0</speed>
<temp>0.00</temp>
<bpm>0</bpm>
<rpm>0.00</rpm>
</extensions>
</trkpt>
<trkpt lat="30.699638367" lon="34.951404572">
<ele>657.718750</ele>
<time>2013-11-22T10:50:04Z</time>
<extensions>
<speed>0.0</speed>
<temp>0.00</temp>
<bpm>0</bpm>
<rpm>0.00</rpm>
</extensions>
</trkpt>
<trkpt lat="30.699638367" lon="34.951404572">
<ele>657.703125</ele>
<time>2013-11-22T10:50:09Z</time>
<speed>0.020000</speed>
<extensions>
<speed>0.0</speed>
<temp>0.00</temp>
<bpm>0</bpm>
<rpm>0.00</rpm>
</extensions>
</trkpt>
<trkpt lat="30.699638367" lon="34.951404572">
<ele>657.656250</ele>
<time>2013-11-22T10:50:14Z</time>
<extensions>
<speed>0.0</speed>
<temp>0.00</temp>
<bpm>0</bpm>
<rpm>0.00</rpm>
</extensions>
</trkpt>
<trkpt lat="30.699638367" lon="34.951404572">
<ele>657.625000</ele>
<time>2013-11-22T10:50:19Z</time>
<extensions>
<speed>0.0</speed>
<temp>0.00</temp>
<bpm>0</bpm>
<rpm>0.00</rpm>
</extensions>
</trkpt>
<trkpt lat="30.699638367" lon="34.951404572">
<ele>657.593750</ele>
<time>2013-11-22T10:50:24Z</time>
<extensions>
<speed>0.0</speed>
<temp>0.00</temp>
<bpm>0</bpm>
<rpm>0.00</rpm>
</extensions>
</trkpt>
<trkpt lat="30.699638367" lon="34.951404572">
<ele>657.593750</ele>
<time>2013-11-22T10:50:29Z</time>
<speed>0.020000</speed>
<extensions>
<speed>0.0</speed>
<temp>0.00</temp>
<bpm>0</bpm>
<rpm>0.00</rpm>
</extensions>
</trkpt>
<trkpt lat="30.699638367" lon="34.951404572">
<ele>657.593750</ele>
<time>2013-11-22T10:50:34Z</time>
<speed>0.020000</speed>
<extensions>
<speed>0.0</speed>
<temp>0.00</temp>
<bpm>0</bpm>
<rpm>0.00</rpm>
</extensions>
</trkpt>
<trkpt lat="30.699638367" lon="34.951404572">
<ele>657.593750</ele>
<time>2013-11-22T10:50:39Z</time>
<speed>0.020000</speed>
<extensions>
<speed>0.0</speed>
<temp>0.00</temp>
<bpm>0</bpm>
<rpm>0.00</rpm>
</extensions>
</trkpt>
<trkpt lat="30.699640274" lon="34.951404572">
<ele>657.593750</ele>
<time>2013-11-22T10:50:44Z</time>
<speed>0.010000</speed>
<extensions>
<speed>0.0</speed>
<temp>0.00</temp>
<bpm>0</bpm>
<rpm>0.00</rpm>
</extensions>
</trkpt>
<trkpt lat="30.699638367" lon="34.951404572">
<ele>657.609375</ele>
<time>2013-11-22T10:50:49Z</time>
<speed>0.010000</speed>
<extensions>
<speed>0.0</speed>
<temp>0.00</temp>
<bpm>0</bpm>
<rpm>0.00</rpm>
</extensions>
</trkpt>
<trkpt lat="30.699640274" lon="34.951400757">
<ele>657.640625</ele>
<time>2013-11-22T10:50:54Z</time>
<speed>0.240000</speed>
<extensions>
<speed>0.2</speed>
<temp>0.00</temp>
<bpm>0</bpm>
<rpm>0.00</rpm>
</extensions>
</trkpt>
<trkpt lat="30.699640274" lon="34.951396942">
<ele>657.468750</ele>
<time>2013-11-22T10:50:59Z</time>
<extensions>
<speed>0.0</speed>
<temp>0.00</temp>
<bpm>0</bpm>
<rpm>0.00</rpm>
</extensions>
</trkpt>
<trkpt lat="30.699640274" lon="34.951396942">
<ele>657.468750</ele>
<time>2013-11-22T10:51:04Z</time>
<extensions>
<speed>0.0</speed>
<temp>0.00</temp>
<bpm>0</bpm>
<rpm>0.00</rpm>
</extensions>
</trkpt>
<trkpt lat="30.699640274" lon="34.951396942">
<ele>657.453125</ele>
<time>2013-11-22T10:51:09Z</time>
<extensions>
<speed>0.0</speed>
<temp>0.00</temp>
<bpm>0</bpm>
<rpm>0.00</rpm>
</extensions>
</trkpt>
<trkpt lat="30.699640274" lon="34.951396942">
<ele>657.453125</ele>
<time>2013-11-22T10:51:14Z</time>
<speed>0.010000</speed>
<extensions>
<speed>0.0</speed>
<temp>0.00</temp>
<bpm>0</bpm>
<rpm>0.00</rpm>
</extensions>
</trkpt>
<trkpt lat="30.699640274" lon="34.951389313">
<ele>657.390625</ele>
<time>2013-11-22T10:51:19Z</time>
<speed>0.110000</speed>
<extensions>
<speed>0.1</speed>
<temp>0.00</temp>
<bpm>0</bpm>
<rpm>0.00</rpm>
</extensions>
</trkpt>
<trkpt lat="30.699636459" lon="34.951385498">
<ele>657.796875</ele>
<time>2013-11-22T10:51:24Z</time>
<speed>0.130000</speed>
<extensions>
<speed>0.1</speed>
<temp>0.00</temp>
<bpm>0</bpm>
<rpm>0.00</rpm>
</extensions>
</trkpt>
<trkpt lat="30.699634552" lon="34.951393127">
<ele>658.031250</ele>
<time>2013-11-22T10:51:29Z</time>
<speed>0.180000</speed>
<extensions>
<speed>0.2</speed>
<temp>0.00</temp>
<bpm>0</bpm>
<rpm>0.00</rpm>
</extensions>
</trkpt>
<trkpt lat="30.699632645" lon="34.951393127">
<ele>658.250000</ele>
<time>2013-11-22T10:51:34Z</time>
<speed>0.020000</speed>
<extensions>
<speed>0.0</speed>
<temp>0.00</temp>
<bpm>0</bpm>
<rpm>0.00</rpm>
</extensions>
</trkpt>
<trkpt lat="30.699634552" lon="34.951393127">
<ele>658.531250</ele>
<time>2013-11-22T10:51:39Z</time>
<speed>0.040000</speed>
<extensions>
<speed>0.0</speed>
<temp>0.00</temp>
<bpm>0</bpm>
<rpm>0.00</rpm>
</extensions>
</trkpt>
<trkpt lat="30.699642181" lon="34.951389313">
<ele>658.421875</ele>
<time>2013-11-22T10:51:44Z</time>
<speed>0.130000</speed>
<extensions>
<speed>0.1</speed>
<temp>0.00</temp>
<bpm>0</bpm>
<rpm>0.00</rpm>
</extensions>
</trkpt>
<trkpt lat="30.699638367" lon="34.951389313">
<ele>658.140625</ele>
<time>2013-11-22T10:51:49Z</time>
<extensions>
<speed>0.0</speed>
<temp>0.00</temp>
<bpm>0</bpm>
<rpm>0.00</rpm>
</extensions>
</trkpt>
<trkpt lat="30.699636459" lon="34.951389313">
<ele>658.093750</ele>
<time>2013-11-22T10:51:54Z</time>
<speed>0.100000</speed>
<extensions>
<speed>0.1</speed>
<temp>0.00</temp>
<bpm>0</bpm>
<rpm>0.00</rpm>
</extensions>
</trkpt>
<trkpt lat="30.699636459" lon="34.951389313">
<ele>658.046875</ele>
<time>2013-11-22T10:51:59Z</time>
<speed>0.010000</speed>
<extensions>
<speed>0.0</speed>
<temp>0.00</temp>
<bpm>0</bpm>
<rpm>0.00</rpm>
</extensions>
</trkpt>
<trkpt lat="30.699638367" lon="34.951389313">
<ele>658.046875</ele>
<time>2013-11-22T10:52:04Z</time>
<speed>0.070000</speed>
<extensions>
<speed>0.1</speed>
<temp>0.00</temp>
<bpm>0</bpm>
<rpm>0.00</rpm>
</extensions>
</trkpt>
<trkpt lat="30.699638367" lon="34.951389313">
<ele>658.046875</ele>
<time>2013-11-22T10:52:09Z</time>
<speed>0.020000</speed>
<extensions>
<speed>0.0</speed>
<temp>0.00</temp>
<bpm>0</bpm>
<rpm>0.00</rpm>
</extensions>
</trkpt>
<trkpt lat="30.699638367" lon="34.951389313">
<ele>658.031250</ele>
<time>2013-11-22T10:52:14Z</time>
<speed>0.030000</speed>
<extensions>
<speed>0.0</speed>
<temp>0.00</temp>
<bpm>0</bpm>
<rpm>0.00</rpm>
</extensions>
</trkpt>
<trkpt lat="30.699638367" lon="34.951389313">
<ele>658.031250</ele>
<time>2013-11-22T10:52:19Z</time>
<speed>0.080000</speed>
<extensions>
<speed>0.1</speed>
<temp>0.00</temp>
<bpm>0</bpm>
<rpm>0.00</rpm>
</extensions>
</trkpt>
<trkpt lat="30.699640274" lon="34.951389313">
<ele>658.062500</ele>
<time>2013-11-22T10:52:24Z</time>
<speed>0.010000</speed>
<extensions>
<speed>0.0</speed>
<temp>0.00</temp>
<bpm>0</bpm>
<rpm>0.00</rpm>
</extensions>
</trkpt>
<trkpt lat="30.699640274" lon="34.951389313">
<ele>658.046875</ele>
<time>2013-11-22T10:52:29Z</time>
<speed>0.010000</speed>
<extensions>
<speed>0.0</speed>
<temp>0.00</temp>
<bpm>0</bpm>
<rpm>0.00</rpm>
</extensions>
</trkpt>
<trkpt lat="30.699640274" lon="34.951389313">
<ele>658.046875</ele>
<time>2013-11-22T10:52:34Z</time>
<speed>0.010000</speed>
<extensions>
<speed>0.0</speed>
<temp>0.00</temp>
<bpm>0</bpm>
<rpm>0.00</rpm>
</extensions>
</trkpt>
<trkpt lat="30.699640274" lon="34.951389313">
<ele>658.031250</ele>
<time>2013-11-22T10:52:39Z</time>
<speed>0.010000</speed>
<extensions>
<speed>0.0</speed>
<temp>0.00</temp>
<bpm>0</bpm>
<rpm>0.00</rpm>
</extensions>
</trkpt>
<trkpt lat="30.699640274" lon="34.951389313">
<ele>658.031250</ele>
<time>2013-11-22T10:52:44Z</time>
<extensions>
<speed>0.0</speed>
<temp>0.00</temp>
<bpm>0</bpm>
<rpm>0.00</rpm>
</extensions>
</trkpt>
<trkpt lat="30.699640274" lon="34.951389313">
<ele>658.031250</ele>
<time>2013-11-22T10:52:49Z</time>
<extensions>
<speed>0.0</speed>
<temp>0.00</temp>
<bpm>0</bpm>
<rpm>0.00</rpm>
</extensions>
</trkpt>
<trkpt lat="30.699640274" lon="34.951389313">
<ele>658.015625</ele>
<time>2013-11-22T10:52:54Z</time>
<extensions>
<speed>0.0</speed>
<temp>0.00</temp>
<bpm>0</bpm>
<rpm>0.00</rpm>
</extensions>
</trkpt>
<trkpt lat="30.699640274" lon="34.951389313">
<ele>658.015625</ele>
<time>2013-11-22T10:52:59Z</time>
<speed>0.020000</speed>
<extensions>
<speed>0.0</speed>
<temp>0.00</temp>
<bpm>0</bpm>
<rpm>0.00</rpm>
</extensions>
</trkpt>
<trkpt lat="30.699636459" lon="34.951377869">
<ele>657.843750</ele>
<time>2013-11-22T10:53:04Z</time>
<speed>0.530000</speed>
<extensions>
<speed>0.5</speed>
<temp>0.00</temp>
<bpm>0</bpm>
<rpm>0.00</rpm>
</extensions>
</trkpt>
<trkpt lat="30.699630737" lon="34.951358795">
<ele>657.343750</ele>
<time>2013-11-22T10:53:09Z</time>
<speed>0.690000</speed>
<extensions>
<speed>0.7</speed>
<temp>0.00</temp>
<bpm>0</bpm>
<rpm>0.00</rpm>
</extensions>
</trkpt>
<trkpt lat="30.699592590" lon="34.951343536">
<ele>656.171875</ele>
<time>2013-11-22T10:53:14Z</time>
<speed>0.420000</speed>
<extensions>
<speed>0.4</speed>
<temp>0.00</temp>
<bpm>0</bpm>
<rpm>0.00</rpm>
</extensions>
</trkpt>
<trkpt lat="30.699588776" lon="34.951358795">
<ele>655.093750</ele>
<time>2013-11-22T10:53:19Z</time>
<speed>0.130000</speed>
<extensions>
<speed>0.1</speed>
<temp>0.00</temp>
<bpm>0</bpm>
<rpm>0.00</rpm>
</extensions>
</trkpt>
<trkpt lat="30.699586868" lon="34.951358795">
<ele>655.312500</ele>
<time>2013-11-22T10:53:24Z</time>
<speed>0.070000</speed>
<extensions>
<speed>0.1</speed>
<temp>0.00</temp>
<bpm>0</bpm>
<rpm>0.00</rpm>
</extensions>
</trkpt>
<trkpt lat="30.699586868" lon="34.951381683">
<ele>655.625000</ele>
<time>2013-11-22T10:53:29Z</time>
<speed>1.110000</speed>
<extensions>
<speed>1.1</speed>
<temp>0.00</temp>
<bpm>0</bpm>
<rpm>0.00</rpm>
</extensions>
</trkpt>
<trkpt lat="30.699584961" lon="34.951381683">
<ele>655.984375</ele>
<time>2013-11-22T10:53:34Z</time>
<speed>0.100000</speed>
<extensions>
<speed>0.1</speed>
<temp>0.00</temp>
<bpm>0</bpm>
<rpm>0.00</rpm>
</extensions>
</trkpt>
<trkpt lat="30.699581146" lon="34.951377869">
<ele>656.250000</ele>
<time>2013-11-22T10:53:39Z</time>
<speed>0.150000</speed>
<extensions>
<speed>0.2</speed>
<temp>0.00</temp>
<bpm>0</bpm>
<rpm>0.00</rpm>
</extensions>
</trkpt>
<trkpt lat="30.699581146" lon="34.951377869">
<ele>656.375000</ele>
<time>2013-11-22T10:53:44Z</time>
<speed>0.170000</speed>
<extensions>
<speed>0.2</speed>
<temp>0.00</temp>
<bpm>0</bpm>
<rpm>0.00</rpm>
</extensions>
</trkpt>
<trkpt lat="30.699581146" lon="34.951385498">
<ele>656.468750</ele>
<time>2013-11-22T10:53:49Z</time>
<speed>1.240000</speed>
<extensions>
<speed>1.2</speed>
<temp>0.00</temp>
<bpm>0</bpm>
<rpm>0.00</rpm>
</extensions>
</trkpt>
<trkpt lat="30.699579239" lon="34.951503754">
<ele>654.953125</ele>
<time>2013-11-22T10:53:54Z</time>
<speed>2.740000</speed>
<extensions>
<speed>2.7</speed>
<temp>0.00</temp>
<bpm>0</bpm>
<rpm>0.00</rpm>
</extensions>
</trkpt>
<trkpt lat="30.699571609" lon="34.951652527">
<ele>653.890625</ele>
<time>2013-11-22T10:53:59Z</time>
<speed>3.180000</speed>
<extensions>
<speed>3.2</speed>
<temp>0.00</temp>
<bpm>0</bpm>
<rpm>0.00</rpm>
</extensions>
</trkpt>
<trkpt lat="30.699544907" lon="34.951831818">
<ele>653.171875</ele>
<time>2013-11-22T10:54:04Z</time>
<speed>3.890000</speed>
<extensions>
<speed>3.9</speed>
<temp>0.00</temp>
<bpm>0</bpm>
<rpm>0.00</rpm>
</extensions>
</trkpt>
<trkpt lat="30.699523926" lon="34.951969147">
<ele>653.015625</ele>
<time>2013-11-22T10:54:09Z</time>
<speed>1.560000</speed>
<extensions>
<speed>1.6</speed>
<temp>0.00</temp>
<bpm>0</bpm>
<rpm>0.00</rpm>
</extensions>
</trkpt>
<trkpt lat="30.699520111" lon="34.951995850">
<ele>652.890625</ele>
<time>2013-11-22T10:54:14Z</time>
<extensions>
<speed>0.0</speed>
<temp>0.00</temp>
<bpm>0</bpm>
<rpm>0.00</rpm>
</extensions>
</trkpt>
<trkpt lat="30.699522018" lon="34.951995850">
<ele>652.890625</ele>
<time>2013-11-22T10:54:19Z</time>
<extensions>
<speed>0.0</speed>
<temp>0.00</temp>
<bpm>0</bpm>
<rpm>0.00</rpm>
</extensions>
</trkpt>
<trkpt lat="30.699520111" lon="34.951995850">
<ele>652.953125</ele>
<time>2013-11-22T10:54:24Z</time>
<speed>0.010000</speed>
<extensions>
<speed>0.0</speed>
<temp>0.00</temp>
<bpm>0</bpm>
<rpm>0.00</rpm>
</extensions>
</trkpt>
<trkpt lat="30.699520111" lon="34.951995850">
<ele>652.968750</ele>
<time>2013-11-22T10:54:29Z</time>
<speed>0.020000</speed>
<extensions>
<speed>0.0</speed>
<temp>0.00</temp>
<bpm>0</bpm>
<rpm>0.00</rpm>
</extensions>
</trkpt>
<trkpt lat="30.699522018" lon="34.951992035">
<ele>652.921875</ele>
<time>2013-11-22T10:54:34Z</time>
<speed>0.050000</speed>
<extensions>
<speed>0.1</speed>
<temp>0.00</temp>
<bpm>0</bpm>
<rpm>0.00</rpm>
</extensions>
</trkpt>
<trkpt lat="30.699522018" lon="34.951992035">
<ele>652.906250</ele>
<time>2013-11-22T10:54:39Z</time>
<speed>0.010000</speed>
<extensions>
<speed>0.0</speed>
<temp>0.00</temp>
<bpm>0</bpm>
<rpm>0.00</rpm>
</extensions>
</trkpt>
<trkpt lat="30.699522018" lon="34.951992035">
<ele>652.890625</ele>
<time>2013-11-22T10:54:44Z</time>
<extensions>
<speed>0.0</speed>
<temp>0.00</temp>
<bpm>0</bpm>
<rpm>0.00</rpm>
</extensions>
</trkpt>
<trkpt lat="30.699522018" lon="34.951992035">
<ele>652.859375</ele>
<time>2013-11-22T10:54:49Z</time>
<speed>0.070000</speed>
<extensions>
<speed>0.1</speed>
<temp>0.00</temp>
<bpm>0</bpm>
<rpm>0.00</rpm>
</extensions>
</trkpt>
<trkpt lat="30.699522018" lon="34.951992035">
<ele>652.812500</ele>
<time>2013-11-22T10:54:54Z</time>
<extensions>
<speed>0.0</speed>
<temp>0.00</temp>
<bpm>0</bpm>
<rpm>0.00</rpm>
</extensions>
</trkpt>
<trkpt lat="30.699522018" lon="34.951992035">
<ele>652.812500</ele>
<time>2013-11-22T10:54:59Z</time>
<speed>0.720000</speed>
<extensions>
<speed>0.7</speed>
<temp>0.00</temp>
<bpm>0</bpm>
<rpm>0.00</rpm>
</extensions>
</trkpt>
<trkpt lat="30.699485779" lon="34.952072144">
<ele>652.765625</ele>
<time>2013-11-22T10:55:04Z</time>
<speed>3.110000</speed>
<extensions>
<speed>3.1</speed>
<temp>0.00</temp>
<bpm>0</bpm>
<rpm>0.00</rpm>
</extensions>
</trkpt>
<trkpt lat="30.699426651" lon="34.952209473">
<ele>652.187500</ele>
<time>2013-11-22T10:55:09Z</time>
<speed>2.460000</speed>
<extensions>
<speed>2.5</speed>
<temp>0.00</temp>
<bpm>0</bpm>
<rpm>0.00</rpm>
</extensions>
</trkpt>
<trkpt lat="30.699338913" lon="34.952308655">
<ele>651.703125</ele>
<time>2013-11-22T10:55:14Z</time>
<speed>2.860000</speed>
<extensions>
<speed>2.9</speed>
<temp>0.00</temp>
<bpm>0</bpm>
<rpm>0.00</rpm>
</extensions>
</trkpt>
<trkpt lat="30.699321747" lon="34.952331543">
<ele>651.343750</ele>
<time>2013-11-22T10:55:19Z</time>
<speed>0.010000</speed>
<extensions>
<speed>0.0</speed>
<temp>0.00</temp>
<bpm>0</bpm>
<rpm>0.00</rpm>
</extensions>
</trkpt>
<trkpt lat="30.699308395" lon="34.952346802">
<ele>651.343750</ele>
<time>2013-11-22T10:55:24Z</time>
<speed>1.820000</speed>
<extensions>
<speed>1.8</speed>
<temp>0.00</temp>
<bpm>0</bpm>
<rpm>0.00</rpm>
</extensions>
</trkpt>
<trkpt lat="30.699234009" lon="34.952468872">
<ele>650.031250</ele>
<time>2013-11-22T10:55:29Z</time>
<speed>3.380000</speed>
<extensions>
<speed>3.4</speed>
<temp>0.00</temp>
<bpm>0</bpm>
<rpm>0.00</rpm>
</extensions>
</trkpt>
<trkpt lat="30.699138641" lon="34.952602386">
<ele>649.203125</ele>
<time>2013-11-22T10:55:34Z</time>
<speed>3.420000</speed>
<extensions>
<speed>3.4</speed>
<temp>0.00</temp>
<bpm>0</bpm>
<rpm>0.00</rpm>
</extensions>
</trkpt>
<trkpt lat="30.699037552" lon="34.952724457">
<ele>648.125000</ele>
<time>2013-11-22T10:55:39Z</time>
<speed>2.610000</speed>
<extensions>
<speed>2.6</speed>
<temp>0.00</temp>
<bpm>0</bpm>
<rpm>0.00</rpm>
</extensions>
</trkpt>
<trkpt lat="30.698938370" lon="34.952835083">
<ele>646.109375</ele>
<time>2013-11-22T10:55:44Z</time>
<speed>3.420000</speed>
<extensions>
<speed>3.4</speed>
<temp>0.00</temp>
<bpm>0</bpm>
<rpm>0.00</rpm>
</extensions>
</trkpt>
<trkpt lat="30.698871613" lon="34.953018188">
<ele>642.921875</ele>
<time>2013-11-22T10:55:49Z</time>
<speed>4.350000</speed>
<extensions>
<speed>4.3</speed>
<temp>0.00</temp>
<bpm>0</bpm>
<rpm>0.00</rpm>
</extensions>
</trkpt>
<trkpt lat="30.698883057" lon="34.953254700">
<ele>639.546875</ele>
<time>2013-11-22T10:55:54Z</time>
<speed>4.520000</speed>
<extensions>
<speed>4.5</speed>
<temp>0.00</temp>
<bpm>0</bpm>
<rpm>0.00</rpm>
</extensions>
</trkpt>
<trkpt lat="30.698762894" lon="34.953422546">
<ele>636.437500</ele>
<time>2013-11-22T10:55:59Z</time>
<speed>5.020000</speed>
<extensions>
<speed>5.0</speed>
<temp>0.00</temp>
<bpm>0</bpm>
<rpm>0.00</rpm>
</extensions>
</trkpt>
<trkpt lat="30.698612213" lon="34.953533173">
<ele>634.250000</ele>
<time>2013-11-22T10:56:04Z</time>
<speed>3.800000</speed>
<extensions>
<speed>3.8</speed>
<temp>0.00</temp>
<bpm>0</bpm>
<rpm>0.00</rpm>
</extensions>
</trkpt>
<trkpt lat="30.698493958" lon="34.953628540">
<ele>632.781250</ele>
<time>2013-11-22T10:56:09Z</time>
<speed>3.360000</speed>
<extensions>
<speed>3.4</speed>
<temp>0.00</temp>
<bpm>0</bpm>
<rpm>0.00</rpm>
</extensions>
</trkpt>
<trkpt lat="30.698368073" lon="34.953670502">
<ele>632.593750</ele>
<time>2013-11-22T10:56:14Z</time>
<speed>3.070000</speed>
<extensions>
<speed>3.1</speed>
<temp>0.00</temp>
<bpm>0</bpm>
<rpm>0.00</rpm>
</extensions>
</trkpt>
<trkpt lat="30.698242188" lon="34.953716278">
<ele>632.093750</ele>
<time>2013-11-22T10:56:19Z</time>
<speed>3.420000</speed>
<extensions>
<speed>3.4</speed>
<temp>0.00</temp>
<bpm>0</bpm>
<rpm>0.00</rpm>
</extensions>
</trkpt>
<trkpt lat="30.698102951" lon="34.953746796">
<ele>630.062500</ele>
<time>2013-11-22T10:56:24Z</time>
<speed>3.360000</speed>
<extensions>
<speed>3.4</speed>
<temp>0.00</temp>
<bpm>0</bpm>
<rpm>0.00</rpm>
</extensions>
</trkpt>
<trkpt lat="30.697978973" lon="34.953788757">
<ele>629.953125</ele>
<time>2013-11-22T10:56:29Z</time>
<speed>3.510000</speed>
<extensions>
<speed>3.5</speed>
<temp>0.00</temp>
<bpm>0</bpm>
<rpm>0.00</rpm>
</extensions>
</trkpt>
<trkpt lat="30.697866440" lon="34.953849792">
<ele>628.640625</ele>
<time>2013-11-22T10:56:34Z</time>
<speed>2.100000</speed>
<extensions>
<speed>2.1</speed>
<temp>0.00</temp>
<bpm>0</bpm>
<rpm>0.00</rpm>
</extensions>
</trkpt>
<trkpt lat="30.697721481" lon="34.953922272">
<ele>628.062500</ele>
<time>2013-11-22T10:56:39Z</time>
<speed>3.820000</speed>
<extensions>
<speed>3.8</speed>
<temp>0.00</temp>
<bpm>0</bpm>
<rpm>0.00</rpm>
</extensions>
</trkpt>
<trkpt lat="30.697561264" lon="34.953998566">
<ele>628.171875</ele>
<time>2013-11-22T10:56:44Z</time>
<speed>3.340000</speed>
<extensions>
<speed>3.3</speed>
<temp>0.00</temp>
<bpm>0</bpm>
<rpm>0.00</rpm>
</extensions>
</trkpt>
<trkpt lat="30.697441101" lon="34.954101563">
<ele>628.937500</ele>
<time>2013-11-22T10:56:49Z</time>
<speed>3.580000</speed>
<extensions>
<speed>3.6</speed>
<temp>0.00</temp>
<bpm>0</bpm>
<rpm>0.00</rpm>
</extensions>
</trkpt>
<trkpt lat="30.697311401" lon="34.954193115">
<ele>627.812500</ele>
<time>2013-11-22T10:56:54Z</time>
<speed>2.980000</speed>
<extensions>
<speed>3.0</speed>
<temp>0.00</temp>
<bpm>0</bpm>
<rpm>0.00</rpm>
</extensions>
</trkpt>
<trkpt lat="30.697200775" lon="34.954200745">
<ele>627.078125</ele>
<time>2013-11-22T10:56:59Z</time>
<speed>2.740000</speed>
<extensions>
<speed>2.7</speed>
<temp>0.00</temp>
<bpm>0</bpm>
<rpm>0.00</rpm>
</extensions>
</trkpt>
<trkpt lat="30.697071075" lon="34.954200745">
<ele>627.281250</ele>
<time>2013-11-22T10:57:04Z</time>
<speed>3.360000</speed>
<extensions>
<speed>3.4</speed>
<temp>0.00</temp>
<bpm>0</bpm>
<rpm>0.00</rpm>
</extensions>
</trkpt>
<trkpt lat="30.696933746" lon="34.954162598">
<ele>627.156250</ele>
<time>2013-11-22T10:57:09Z</time>
<speed>3.020000</speed>
<extensions>
<speed>3.0</speed>
<temp>0.00</temp>
<bpm>0</bpm>
<rpm>0.00</rpm>
</extensions>
</trkpt>
<trkpt lat="30.696784973" lon="34.954116821">
<ele>628.781250</ele>
<time>2013-11-22T10:57:14Z</time>
<speed>3.670000</speed>
<extensions>
<speed>3.7</speed>
<temp>0.00</temp>
<bpm>0</bpm>
<rpm>0.00</rpm>
</extensions>
</trkpt>
<trkpt lat="30.696601868" lon="34.954097748">
<ele>630.812500</ele>
<time>2013-11-22T10:57:19Z</time>
<speed>4.040000</speed>
<extensions>
<speed>4.0</speed>
<temp>0.00</temp>
<bpm>0</bpm>
<rpm>0.00</rpm>
</extensions>
</trkpt>
<trkpt lat="30.696414948" lon="34.954113007">
<ele>630.953125</ele>
<time>2013-11-22T10:57:24Z</time>
<speed>3.670000</speed>
<extensions>
<speed>3.7</speed>
<temp>0.00</temp>
<bpm>0</bpm>
<rpm>0.00</rpm>
</extensions>
</trkpt>
<trkpt lat="30.696226120" lon="34.954132080">
<ele>628.953125</ele>
<time>2013-11-22T10:57:29Z</time>
<speed>5.150000</speed>
<extensions>
<speed>5.2</speed>
<temp>0.00</temp>
<bpm>0</bpm>
<rpm>0.00</rpm>
</extensions>
</trkpt>
<trkpt lat="30.696069717" lon="34.954113007">
<ele>626.843750</ele>
<time>2013-11-22T10:57:34Z</time>
<speed>2.340000</speed>
<extensions>
<speed>2.3</speed>
<temp>0.00</temp>
<bpm>0</bpm>
<rpm>0.00</rpm>
</extensions>
</trkpt>
<trkpt lat="30.695974350" lon="34.954086304">
<ele>628.625000</ele>
<time>2013-11-22T10:57:39Z</time>
<speed>2.270000</speed>
<extensions>
<speed>2.3</speed>
<temp>0.00</temp>
<bpm>0</bpm>
<rpm>0.00</rpm>
</extensions>
</trkpt>
<trkpt lat="30.695886612" lon="34.954036713">
<ele>629.765625</ele>
<time>2013-11-22T10:57:44Z</time>
<speed>2.140000</speed>
<extensions>
<speed>2.1</speed>
<temp>0.00</temp>
<bpm>0</bpm>
<rpm>0.00</rpm>
</extensions>
</trkpt>
<trkpt lat="30.695793152" lon="34.953998566">
<ele>631.078125</ele>
<time>2013-11-22T10:57:49Z</time>
<speed>2.150000</speed>
<extensions>
<speed>2.1</speed>
<temp>0.00</temp>
<bpm>0</bpm>
<rpm>0.00</rpm>
</extensions>
</trkpt>
<trkpt lat="30.695714951" lon="34.953971863">
<ele>632.000000</ele>
<time>2013-11-22T10:57:54Z</time>
<speed>1.620000</speed>
<extensions>
<speed>1.6</speed>
<temp>0.00</temp>
<bpm>0</bpm>
<rpm>0.00</rpm>
</extensions>
</trkpt>
<trkpt lat="30.695665359" lon="34.953937531">
<ele>632.359375</ele>
<time>2013-11-22T10:57:59Z</time>
<speed>1.350000</speed>
<extensions>
<speed>1.4</speed>
<temp>0.00</temp>
<bpm>0</bpm>
<rpm>0.00</rpm>
</extensions>
</trkpt>
<trkpt lat="30.695600510" lon="34.953914642">
<ele>632.015625</ele>
<time>2013-11-22T10:58:04Z</time>
<speed>0.070000</speed>
<extensions>
<speed>0.1</speed>
<temp>0.00</temp>
<bpm>0</bpm>
<rpm>0.00</rpm>
</extensions>
</trkpt>
<trkpt lat="30.695600510" lon="34.953907013">
<ele>631.406250</ele>
<time>2013-11-22T10:58:09Z</time>
<speed>1.180000</speed>
<extensions>
<speed>1.2</speed>
<temp>0.00</temp>
<bpm>0</bpm>
<rpm>0.00</rpm>
</extensions>
</trkpt>
<trkpt lat="30.695533752" lon="34.953876495">
<ele>630.921875</ele>
<time>2013-11-22T10:58:14Z</time>
<speed>2.000000</speed>
<extensions>
<speed>2.0</speed>
<temp>0.00</temp>
<bpm>0</bpm>
<rpm>0.00</rpm>
</extensions>
</trkpt>
<trkpt lat="30.695449829" lon="34.953807831">
<ele>629.234375</ele>
<time>2013-11-22T10:58:19Z</time>
<speed>2.580000</speed>
<extensions>
<speed>2.6</speed>
<temp>0.00</temp>
<bpm>0</bpm>
<rpm>0.00</rpm>
</extensions>
</trkpt>
<trkpt lat="30.695442200" lon="34.953800201">
<ele>629.078125</ele>
<time>2013-11-22T10:58:24Z</time>
<extensions>
<speed>0.0</speed>
<temp>0.00</temp>
<bpm>0</bpm>
<rpm>0.00</rpm>
</extensions>
</trkpt>
<trkpt lat="30.695442200" lon="34.953804016">
<ele>629.125000</ele>
<time>2013-11-22T10:58:29Z</time>
<speed>0.030000</speed>
<extensions>
<speed>0.0</speed>
<temp>0.00</temp>
<bpm>0</bpm>
<rpm>0.00</rpm>
</extensions>
</trkpt>
<trkpt lat="30.695428848" lon="34.953781128">
<ele>628.640625</ele>
<time>2013-11-22T10:58:34Z</time>
<speed>1.730000</speed>
<extensions>
<speed>1.7</speed>
<temp>0.00</temp>
<bpm>0</bpm>
<rpm>0.00</rpm>
</extensions>
</trkpt>
<trkpt lat="30.695371628" lon="34.953720093">
<ele>627.375000</ele>
<time>2013-11-22T10:58:39Z</time>
<speed>1.590000</speed>
<extensions>
<speed>1.6</speed>
<temp>0.00</temp>
<bpm>0</bpm>
<rpm>0.00</rpm>
</extensions>
</trkpt>
<trkpt lat="30.695331573" lon="34.953670502">
<ele>626.703125</ele>
<time>2013-11-22T10:58:44Z</time>
<speed>0.850000</speed>
<extensions>
<speed>0.8</speed>
<temp>0.00</temp>
<bpm>0</bpm>
<rpm>0.00</rpm>
</extensions>
</trkpt>
<trkpt lat="30.695310593" lon="34.953567505">
<ele>625.062500</ele>
<time>2013-11-22T10:58:49Z</time>
<speed>2.800000</speed>
<extensions>
<speed>2.8</speed>
<temp>0.00</temp>
<bpm>0</bpm>
<rpm>0.00</rpm>
</extensions>
</trkpt>
<trkpt lat="30.695312500" lon="34.953411102">
<ele>621.203125</ele>
<time>2013-11-22T10:58:54Z</time>
<speed>3.900000</speed>
<extensions>
<speed>3.9</speed>
<temp>0.00</temp>
<bpm>0</bpm>
<rpm>0.00</rpm>
</extensions>
</trkpt>
<trkpt lat="30.695285797" lon="34.953144073">
<ele>616.640625</ele>
<time>2013-11-22T10:58:59Z</time>
<speed>4.980000</speed>
<extensions>
<speed>5.0</speed>
<temp>0.00</temp>
<bpm>0</bpm>
<rpm>0.00</rpm>
</extensions>
</trkpt>
<trkpt lat="30.695262909" lon="34.952884674">
<ele>613.343750</ele>
<time>2013-11-22T10:59:04Z</time>
<speed>4.350000</speed>
<extensions>
<speed>4.3</speed>
<temp>0.00</temp>
<bpm>0</bpm>
<rpm>0.00</rpm>
</extensions>
</trkpt>
<trkpt lat="30.695241928" lon="34.952720642">
<ele>611.187500</ele>
<time>2013-11-22T10:59:09Z</time>
<speed>0.350000</speed>
<extensions>
<speed>0.3</speed>
<temp>0.00</temp>
<bpm>0</bpm>
<rpm>0.00</rpm>
</extensions>
</trkpt>
<trkpt lat="30.695241928" lon="34.952651978">
<ele>609.609375</ele>
<time>2013-11-22T10:59:14Z</time>
<speed>2.500000</speed>
<extensions>
<speed>2.5</speed>
<temp>0.00</temp>
<bpm>0</bpm>
<rpm>0.00</rpm>
</extensions>
</trkpt>
<trkpt lat="30.695241928" lon="34.952568054">
<ele>608.500000</ele>
<time>2013-11-22T10:59:19Z</time>
<speed>0.240000</speed>
<extensions>
<speed>0.2</speed>
<temp>0.00</temp>
<bpm>0</bpm>
<rpm>0.00</rpm>
</extensions>
</trkpt>
<trkpt lat="30.695251465" lon="34.952575684">
<ele>608.468750</ele>
<time>2013-11-22T10:59:24Z</time>
<speed>0.160000</speed>
<extensions>
<speed>0.2</speed>
<temp>0.00</temp>
<bpm>0</bpm>
<rpm>0.00</rpm>
</extensions>
</trkpt>
<trkpt lat="30.695255280" lon="34.952579498">
<ele>608.515625</ele>
<time>2013-11-22T10:59:29Z</time>
<speed>0.110000</speed>
<extensions>
<speed>0.1</speed>
<temp>0.00</temp>
<bpm>0</bpm>
<rpm>0.00</rpm>
</extensions>
</trkpt>
<trkpt lat="30.695240021" lon="34.952526093">
<ele>608.546875</ele>
<time>2013-11-22T10:59:34Z</time>
<speed>2.430000</speed>
<extensions>
<speed>2.4</speed>
<temp>0.00</temp>
<bpm>0</bpm>
<rpm>0.00</rpm>
</extensions>
</trkpt>
<trkpt lat="30.695203781" lon="34.952400208">
<ele>607.078125</ele>
<time>2013-11-22T10:59:39Z</time>
<speed>3.030000</speed>
<extensions>
<speed>3.0</speed>
<temp>0.00</temp>
<bpm>0</bpm>
<rpm>0.00</rpm>
</extensions>
</trkpt>
<trkpt lat="30.695114136" lon="34.952228546">
<ele>603.234375</ele>
<time>2013-11-22T10:59:44Z</time>
<speed>3.370000</speed>
<extensions>
<speed>3.4</speed>
<temp>0.00</temp>
<bpm>0</bpm>
<rpm>0.00</rpm>
</extensions>
</trkpt>
<trkpt lat="30.694961548" lon="34.952163696">
<ele>600.359375</ele>
<time>2013-11-22T10:59:49Z</time>
<speed>3.180000</speed>
<extensions>
<speed>3.2</speed>
<temp>0.00</temp>
<bpm>0</bpm>
<rpm>0.00</rpm>
</extensions>
</trkpt>
<trkpt lat="30.694881439" lon="34.952171326">
<ele>597.234375</ele>
<time>2013-11-22T10:59:54Z</time>
<speed>2.870000</speed>
<extensions>
<speed>2.9</speed>
<temp>0.00</temp>
<bpm>0</bpm>
<rpm>0.00</rpm>
</extensions>
</trkpt>
<trkpt lat="30.694774628" lon="34.952178955">
<ele>595.796875</ele>
<time>2013-11-22T10:59:59Z</time>
<speed>1.540000</speed>
<extensions>
<speed>1.5</speed>
<temp>0.00</temp>
<bpm>0</bpm>
<rpm>0.00</rpm>
</extensions>
</trkpt>
<trkpt lat="30.694742203" lon="34.952171326">
<ele>594.890625</ele>
<time>2013-11-22T11:00:04Z</time>
<speed>0.210000</speed>
<extensions>
<speed>0.2</speed>
<temp>0.00</temp>
<bpm>0</bpm>
<rpm>0.00</rpm>
</extensions>
</trkpt>
<trkpt lat="30.694694519" lon="34.952159882">
<ele>594.531250</ele>
<time>2013-11-22T11:00:09Z</time>
<speed>3.060000</speed>
<extensions>
<speed>3.1</speed>
<temp>0.00</temp>
<bpm>0</bpm>
<rpm>0.00</rpm>
</extensions>
</trkpt>
<trkpt lat="30.694583893" lon="34.952117920">
<ele>593.250000</ele>
<time>2013-11-22T11:00:14Z</time>
<speed>1.780000</speed>
<extensions>
<speed>1.8</speed>
<temp>0.00</temp>
<bpm>0</bpm>
<rpm>0.00</rpm>
</extensions>
</trkpt>
<trkpt lat="30.694540024" lon="34.952064514">
<ele>592.500000</ele>
<time>2013-11-22T11:00:19Z</time>
<speed>1.830000</speed>
<extensions>
<speed>1.8</speed>
<temp>0.00</temp>
<bpm>0</bpm>
<rpm>0.00</rpm>
</extensions>
</trkpt>
<trkpt lat="30.694507599" lon="34.951972961">
<ele>592.250000</ele>
<time>2013-11-22T11:00:24Z</time>
<speed>2.240000</speed>
<extensions>
<speed>2.2</speed>
<temp>0.00</temp>
<bpm>0</bpm>
<rpm>0.00</rpm>
</extensions>
</trkpt>
<trkpt lat="30.694473267" lon="34.951850891">
<ele>590.000000</ele>
<time>2013-11-22T11:00:29Z</time>
<speed>2.550000</speed>
<extensions>
<speed>2.6</speed>
<temp>0.00</temp>
<bpm>0</bpm>
<rpm>0.00</rpm>
</extensions>
</trkpt>
<trkpt lat="30.694379807" lon="34.951740265">
<ele>584.312500</ele>
<time>2013-11-22T11:00:34Z</time>
<speed>3.100000</speed>
<extensions>
<speed>3.1</speed>
<temp>0.00</temp>
<bpm>0</bpm>
<rpm>0.00</rpm>
</extensions>
</trkpt>
<trkpt lat="30.694278717" lon="34.951690674">
<ele>581.734375</ele>
<time>2013-11-22T11:00:39Z</time>
<speed>2.630000</speed>
<extensions>
<speed>2.6</speed>
<temp>0.00</temp>
<bpm>0</bpm>
<rpm>0.00</rpm>
</extensions>
</trkpt>
<trkpt lat="30.694150925" lon="34.951656342">
<ele>578.062500</ele>
<time>2013-11-22T11:00:44Z</time>
<speed>2.800000</speed>
<extensions>
<speed>2.8</speed>
<temp>0.00</temp>
<bpm>0</bpm>
<rpm>0.00</rpm>
</extensions>
</trkpt>
<trkpt lat="30.694025040" lon="34.951610565">
<ele>574.562500</ele>
<time>2013-11-22T11:00:49Z</time>
<speed>2.420000</speed>
<extensions>
<speed>2.4</speed>
<temp>0.00</temp>
<bpm>0</bpm>
<rpm>0.00</rpm>
</extensions>
</trkpt>
<trkpt lat="30.693952560" lon="34.951522827">
<ele>572.578125</ele>
<time>2013-11-22T11:00:54Z</time>
<speed>2.380000</speed>
<extensions>
<speed>2.4</speed>
<temp>0.00</temp>
<bpm>0</bpm>
<rpm>0.00</rpm>
</extensions>
</trkpt>
<trkpt lat="30.693880081" lon="34.951469421">
<ele>571.328125</ele>
<time>2013-11-22T11:00:59Z</time>
<speed>0.370000</speed>
<extensions>
<speed>0.4</speed>
<temp>0.00</temp>
<bpm>0</bpm>
<rpm>0.00</rpm>
</extensions>
</trkpt>
<trkpt lat="30.693883896" lon="34.951469421">
<ele>569.375000</ele>
<time>2013-11-22T11:01:04Z</time>
<speed>0.040000</speed>
<extensions>
<speed>0.0</speed>
<temp>0.00</temp>
<bpm>0</bpm>
<rpm>0.00</rpm>
</extensions>
</trkpt>
<trkpt lat="30.693883896" lon="34.951473236">
<ele>569.281250</ele>
<time>2013-11-22T11:01:09Z</time>
<speed>0.020000</speed>
<extensions>
<speed>0.0</speed>
<temp>0.00</temp>
<bpm>0</bpm>
<rpm>0.00</rpm>
</extensions>
</trkpt>
<trkpt lat="30.693883896" lon="34.951473236">
<ele>569.203125</ele>
<time>2013-11-22T11:01:14Z</time>
<speed>0.010000</speed>
<extensions>
<speed>0.0</speed>
<temp>0.00</temp>
<bpm>0</bpm>
<rpm>0.00</rpm>
</extensions>
</trkpt>
<trkpt lat="30.693883896" lon="34.951473236">
<ele>569.203125</ele>
<time>2013-11-22T11:01:19Z</time>
<extensions>
<speed>0.0</speed>
<temp>0.00</temp>
<bpm>0</bpm>
<rpm>0.00</rpm>
</extensions>
</trkpt>
<trkpt lat="30.693881989" lon="34.951473236">
<ele>569.171875</ele>
<time>2013-11-22T11:01:24Z</time>
<speed>0.020000</speed>
<extensions>
<speed>0.0</speed>
<temp>0.00</temp>
<bpm>0</bpm>
<rpm>0.00</rpm>
</extensions>
</trkpt>
<trkpt lat="30.693881989" lon="34.951473236">
<ele>569.171875</ele>
<time>2013-11-22T11:01:29Z</time>
<speed>0.040000</speed>
<extensions>
<speed>0.0</speed>
<temp>0.00</temp>
<bpm>0</bpm>
<rpm>0.00</rpm>
</extensions>
</trkpt>
<trkpt lat="30.693881989" lon="34.951473236">
<ele>569.140625</ele>
<time>2013-11-22T11:01:34Z</time>
<speed>0.040000</speed>
<extensions>
<speed>0.0</speed>
<temp>0.00</temp>
<bpm>0</bpm>
<rpm>0.00</rpm>
</extensions>
</trkpt>
<trkpt lat="30.693881989" lon="34.951473236">
<ele>569.140625</ele>
<time>2013-11-22T11:01:39Z</time>
<speed>0.050000</speed>
<extensions>
<speed>0.1</speed>
<temp>0.00</temp>
<bpm>0</bpm>
<rpm>0.00</rpm>
</extensions>
</trkpt>
<trkpt lat="30.693881989" lon="34.951473236">
<ele>569.156250</ele>
<time>2013-11-22T11:01:44Z</time>
<extensions>
<speed>0.0</speed>
<temp>0.00</temp>
<bpm>0</bpm>
<rpm>0.00</rpm>
</extensions>
</trkpt>
<trkpt lat="30.693881989" lon="34.951473236">
<ele>569.140625</ele>
<time>2013-11-22T11:01:49Z</time>
<speed>0.010000</speed>
<extensions>
<speed>0.0</speed>
<temp>0.00</temp>
<bpm>0</bpm>
<rpm>0.00</rpm>
</extensions>
</trkpt>
<trkpt lat="30.693881989" lon="34.951473236">
<ele>569.140625</ele>
<time>2013-11-22T11:01:54Z</time>
<extensions>
<speed>0.0</speed>
<temp>0.00</temp>
<bpm>0</bpm>
<rpm>0.00</rpm>
</extensions>
</trkpt>
<trkpt lat="30.693881989" lon="34.951473236">
<ele>569.156250</ele>
<time>2013-11-22T11:01:59Z</time>
<extensions>
<speed>0.0</speed>
<temp>0.00</temp>
<bpm>0</bpm>
<rpm>0.00</rpm>
</extensions>
</trkpt>
<trkpt lat="30.693881989" lon="34.951473236">
<ele>569.156250</ele>
<time>2013-11-22T11:02:04Z</time>
<speed>0.010000</speed>
<extensions>
<speed>0.0</speed>
<temp>0.00</temp>
<bpm>0</bpm>
<rpm>0.00</rpm>
</extensions>
</trkpt>
<trkpt lat="30.693881989" lon="34.951473236">
<ele>569.171875</ele>
<time>2013-11-22T11:02:09Z</time>
<speed>0.010000</speed>
<extensions>
<speed>0.0</speed>
<temp>0.00</temp>
<bpm>0</bpm>
<rpm>0.00</rpm>
</extensions>
</trkpt>
<trkpt lat="30.693866730" lon="34.951477051">
<ele>569.187500</ele>
<time>2013-11-22T11:02:14Z</time>
<speed>1.510000</speed>
<extensions>
<speed>1.5</speed>
<temp>0.00</temp>
<bpm>0</bpm>
<rpm>0.00</rpm>
</extensions>
</trkpt>
<trkpt lat="30.693773270" lon="34.951499939">
<ele>568.593750</ele>
<time>2013-11-22T11:02:19Z</time>
<speed>1.950000</speed>
<extensions>
<speed>1.9</speed>
<temp>0.00</temp>
<bpm>0</bpm>
<rpm>0.00</rpm>
</extensions>
</trkpt>
<trkpt lat="30.693670273" lon="34.951538086">
<ele>567.812500</ele>
<time>2013-11-22T11:02:24Z</time>
<speed>2.640000</speed>
<extensions>
<speed>2.6</speed>
<temp>0.00</temp>
<bpm>0</bpm>
<rpm>0.00</rpm>
</extensions>
</trkpt>
<trkpt lat="30.693548203" lon="34.951522827">
<ele>567.515625</ele>
<time>2013-11-22T11:02:29Z</time>
<speed>2.260000</speed>
<extensions>
<speed>2.3</speed>
<temp>0.00</temp>
<bpm>0</bpm>
<rpm>0.00</rpm>
</extensions>
</trkpt>
<trkpt lat="30.693412781" lon="34.951484680">
<ele>564.562500</ele>
<time>2013-11-22T11:02:34Z</time>
<speed>3.740000</speed>
<extensions>
<speed>3.7</speed>
<temp>0.00</temp>
<bpm>0</bpm>
<rpm>0.00</rpm>
</extensions>
</trkpt>
<trkpt lat="30.693229675" lon="34.951435089">
<ele>563.187500</ele>
<time>2013-11-22T11:02:39Z</time>
<speed>4.360000</speed>
<extensions>
<speed>4.4</speed>
<temp>0.00</temp>
<bpm>0</bpm>
<rpm>0.00</rpm>
</extensions>
</trkpt>
<trkpt lat="30.693069458" lon="34.951320648">
<ele>563.203125</ele>
<time>2013-11-22T11:02:44Z</time>
<speed>3.620000</speed>
<extensions>
<speed>3.6</speed>
<temp>0.00</temp>
<bpm>0</bpm>
<rpm>0.00</rpm>
</extensions>
</trkpt>
<trkpt lat="30.692983627" lon="34.951145172">
<ele>563.078125</ele>
<time>2013-11-22T11:02:49Z</time>
<speed>3.680000</speed>
<extensions>
<speed>3.7</speed>
<temp>0.00</temp>
<bpm>0</bpm>
<rpm>0.00</rpm>
</extensions>
</trkpt>
<trkpt lat="30.692993164" lon="34.950988770">
<ele>561.859375</ele>
<time>2013-11-22T11:02:54Z</time>
<speed>3.570000</speed>
<extensions>
<speed>3.6</speed>
<temp>0.00</temp>
<bpm>0</bpm>
<rpm>0.00</rpm>
</extensions>
</trkpt>
<trkpt lat="30.693025589" lon="34.950828552">
<ele>560.703125</ele>
<time>2013-11-22T11:02:59Z</time>
<speed>2.320000</speed>
<extensions>
<speed>2.3</speed>
<temp>0.00</temp>
<bpm>0</bpm>
<rpm>0.00</rpm>
</extensions>
</trkpt>
<trkpt lat="30.693031311" lon="34.950702667">
<ele>562.375000</ele>
<time>2013-11-22T11:03:04Z</time>
<speed>2.710000</speed>
<extensions>
<speed>2.7</speed>
<temp>0.00</temp>
<bpm>0</bpm>
<rpm>0.00</rpm>
</extensions>
</trkpt>
<trkpt lat="30.692941666" lon="34.950504303">
<ele>559.312500</ele>
<time>2013-11-22T11:03:09Z</time>
<speed>2.330000</speed>
<extensions>
<speed>2.3</speed>
<temp>0.00</temp>
<bpm>0</bpm>
<rpm>0.00</rpm>
</extensions>
</trkpt>
<trkpt lat="30.692855835" lon="34.950439453">
<ele>559.500000</ele>
<time>2013-11-22T11:03:14Z</time>
<speed>2.560000</speed>
<extensions>
<speed>2.6</speed>
<temp>0.00</temp>
<bpm>0</bpm>
<rpm>0.00</rpm>
</extensions>
</trkpt>
<trkpt lat="30.692739487" lon="34.950355530">
<ele>559.031250</ele>
<time>2013-11-22T11:03:19Z</time>
<speed>2.320000</speed>
<extensions>
<speed>2.3</speed>
<temp>0.00</temp>
<bpm>0</bpm>
<rpm>0.00</rpm>
</extensions>
</trkpt>
<trkpt lat="30.692640305" lon="34.950321198">
<ele>560.531250</ele>
<time>2013-11-22T11:03:24Z</time>
<speed>2.870000</speed>
<extensions>
<speed>2.9</speed>
<temp>0.00</temp>
<bpm>0</bpm>
<rpm>0.00</rpm>
</extensions>
</trkpt>
<trkpt lat="30.692520142" lon="34.950340271">
<ele>561.250000</ele>
<time>2013-11-22T11:03:29Z</time>
<speed>2.720000</speed>
<extensions>
<speed>2.7</speed>
<temp>0.00</temp>
<bpm>0</bpm>
<rpm>0.00</rpm>
</extensions>
</trkpt>
<trkpt lat="30.692329407" lon="34.950386047">
<ele>559.312500</ele>
<time>2013-11-22T11:03:34Z</time>
<speed>6.130000</speed>
<extensions>
<speed>6.1</speed>
<temp>0.00</temp>
<bpm>0</bpm>
<rpm>0.00</rpm>
</extensions>
</trkpt>
<trkpt lat="30.692008972" lon="34.950462341">
<ele>557.046875</ele>
<time>2013-11-22T11:03:39Z</time>
<speed>7.590000</speed>
<extensions>
<speed>7.6</speed>
<temp>0.00</temp>
<bpm>0</bpm>
<rpm>0.00</rpm>
</extensions>
</trkpt>
<trkpt lat="30.691646576" lon="34.950599670">
<ele>554.109375</ele>
<time>2013-11-22T11:03:44Z</time>
<speed>8.560000</speed>
<extensions>
<speed>8.6</speed>
<temp>0.00</temp>
<bpm>0</bpm>
<rpm>0.00</rpm>
</extensions>
</trkpt>
<trkpt lat="30.691303253" lon="34.950790405">
<ele>552.734375</ele>
<time>2013-11-22T11:03:49Z</time>
<speed>8.310000</speed>
<extensions>
<speed>8.3</speed>
<temp>0.00</temp>
<bpm>0</bpm>
<rpm>0.00</rpm>
</extensions>
</trkpt>
<trkpt lat="30.690946579" lon="34.950927734">
<ele>550.593750</ele>
<time>2013-11-22T11:03:54Z</time>
<speed>7.110000</speed>
<extensions>
<speed>7.1</speed>
<temp>0.00</temp>
<bpm>0</bpm>
<rpm>0.00</rpm>
</extensions>
</trkpt>
<trkpt lat="30.690626144" lon="34.950954437">
<ele>549.484375</ele>
<time>2013-11-22T11:03:59Z</time>
<speed>6.900000</speed>
<extensions>
<speed>6.9</speed>
<temp>0.00</temp>
<bpm>0</bpm>
<rpm>0.00</rpm>
</extensions>
</trkpt>
<trkpt lat="30.690328598" lon="34.950923920">
<ele>548.312500</ele>
<time>2013-11-22T11:04:04Z</time>
<speed>6.470000</speed>
<extensions>
<speed>6.5</speed>
<temp>0.00</temp>
<bpm>0</bpm>
<rpm>0.00</rpm>
</extensions>
</trkpt>
<trkpt lat="30.690090179" lon="34.950801849">
<ele>546.968750</ele>
<time>2013-11-22T11:04:09Z</time>
<speed>5.610000</speed>
<extensions>
<speed>5.6</speed>
<temp>0.00</temp>
<bpm>0</bpm>
<rpm>0.00</rpm>
</extensions>
</trkpt>
<trkpt lat="30.689783096" lon="34.950695038">
<ele>544.015625</ele>
<time>2013-11-22T11:04:14Z</time>
<speed>8.360000</speed>
<extensions>
<speed>8.4</speed>
<temp>0.00</temp>
<bpm>0</bpm>
<rpm>0.00</rpm>
</extensions>
</trkpt>
<trkpt lat="30.689418793" lon="34.950592041">
<ele>542.500000</ele>
<time>2013-11-22T11:04:19Z</time>
<speed>7.890000</speed>
<extensions>
<speed>7.9</speed>
<temp>0.00</temp>
<bpm>0</bpm>
<rpm>0.00</rpm>
</extensions>
</trkpt>
<trkpt lat="30.689088821" lon="34.950508118">
<ele>541.359375</ele>
<time>2013-11-22T11:04:24Z</time>
<speed>7.520000</speed>
<extensions>
<speed>7.5</speed>
<temp>0.00</temp>
<bpm>0</bpm>
<rpm>0.00</rpm>
</extensions>
</trkpt>
<trkpt lat="30.688737869" lon="34.950473785">
<ele>540.031250</ele>
<time>2013-11-22T11:04:29Z</time>
<speed>7.710000</speed>
<extensions>
<speed>7.7</speed>
<temp>0.00</temp>
<bpm>0</bpm>
<rpm>0.00</rpm>
</extensions>
</trkpt>
<trkpt lat="30.688402176" lon="34.950420380">
<ele>538.875000</ele>
<time>2013-11-22T11:04:34Z</time>
<speed>7.330000</speed>
<extensions>
<speed>7.3</speed>
<temp>0.00</temp>
<bpm>0</bpm>
<rpm>0.00</rpm>
</extensions>
</trkpt>
<trkpt lat="30.688072205" lon="34.950412750">
<ele>537.375000</ele>
<time>2013-11-22T11:04:39Z</time>
<speed>7.240000</speed>
<extensions>
<speed>7.2</speed>
<temp>0.00</temp>
<bpm>0</bpm>
<rpm>0.00</rpm>
</extensions>
</trkpt>
<trkpt lat="30.687767029" lon="34.950370789">
<ele>536.250000</ele>
<time>2013-11-22T11:04:44Z</time>
<speed>6.440000</speed>
<extensions>
<speed>6.4</speed>
<temp>0.00</temp>
<bpm>0</bpm>
<rpm>0.00</rpm>
</extensions>
</trkpt>
<trkpt lat="30.687503815" lon="34.950271606">
<ele>535.015625</ele>
<time>2013-11-22T11:04:49Z</time>
<speed>5.890000</speed>
<extensions>
<speed>5.9</speed>
<temp>0.00</temp>
<bpm>0</bpm>
<rpm>0.00</rpm>
</extensions>
</trkpt>
<trkpt lat="30.687276840" lon="34.950141907">
<ele>534.296875</ele>
<time>2013-11-22T11:04:54Z</time>
<speed>5.290000</speed>
<extensions>
<speed>5.3</speed>
<temp>0.00</temp>
<bpm>0</bpm>
<rpm>0.00</rpm>
</extensions>
</trkpt>
<trkpt lat="30.687091827" lon="34.950019836">
<ele>534.093750</ele>
<time>2013-11-22T11:04:59Z</time>
<speed>4.360000</speed>
<extensions>
<speed>4.4</speed>
<temp>0.00</temp>
<bpm>0</bpm>
<rpm>0.00</rpm>
</extensions>
</trkpt>
<trkpt lat="30.686929703" lon="34.949913025">
<ele>532.562500</ele>
<time>2013-11-22T11:05:04Z</time>
<speed>4.190000</speed>
<extensions>
<speed>4.2</speed>
<temp>0.00</temp>
<bpm>0</bpm>
<rpm>0.00</rpm>
</extensions>
</trkpt>
<trkpt lat="30.686754227" lon="34.949851990">
<ele>532.250000</ele>
<time>2013-11-22T11:05:09Z</time>
<speed>4.570000</speed>
<extensions>
<speed>4.6</speed>
<temp>0.00</temp>
<bpm>0</bpm>
<rpm>0.00</rpm>
</extensions>
</trkpt>
<trkpt lat="30.686542511" lon="34.949832916">
<ele>531.593750</ele>
<time>2013-11-22T11:05:14Z</time>
<speed>4.640000</speed>
<extensions>
<speed>4.6</speed>
<temp>0.00</temp>
<bpm>0</bpm>
<rpm>0.00</rpm>
</extensions>
</trkpt>
<trkpt lat="30.686328888" lon="34.949813843">
<ele>530.984375</ele>
<time>2013-11-22T11:05:19Z</time>
<speed>5.110000</speed>
<extensions>
<speed>5.1</speed>
<temp>0.00</temp>
<bpm>0</bpm>
<rpm>0.00</rpm>
</extensions>
</trkpt>
<trkpt lat="30.686113358" lon="34.949802399">
<ele>530.562500</ele>
<time>2013-11-22T11:05:24Z</time>
<speed>4.610000</speed>
<extensions>
<speed>4.6</speed>
<temp>0.00</temp>
<bpm>0</bpm>
<rpm>0.00</rpm>
</extensions>
</trkpt>
<trkpt lat="30.685951233" lon="34.949680328">
<ele>530.140625</ele>
<time>2013-11-22T11:05:29Z</time>
<speed>4.520000</speed>
<extensions>
<speed>4.5</speed>
<temp>0.00</temp>
<bpm>0</bpm>
<rpm>0.00</rpm>
</extensions>
</trkpt>
<trkpt lat="30.685838699" lon="34.949470520">
<ele>530.546875</ele>
<time>2013-11-22T11:05:34Z</time>
<speed>3.940000</speed>
<extensions>
<speed>3.9</speed>
<temp>0.00</temp>
<bpm>0</bpm>
<rpm>0.00</rpm>
</extensions>
</trkpt>
<trkpt lat="30.685775757" lon="34.949340820">
<ele>530.437500</ele>
<time>2013-11-22T11:05:39Z</time>
<speed>2.610000</speed>
<extensions>
<speed>2.6</speed>
<temp>0.00</temp>
<bpm>0</bpm>
<rpm>0.00</rpm>
</extensions>
</trkpt>
<trkpt lat="30.685760498" lon="34.949230194">
<ele>530.937500</ele>
<time>2013-11-22T11:05:44Z</time>
<speed>1.450000</speed>
<extensions>
<speed>1.4</speed>
<temp>0.00</temp>
<bpm>0</bpm>
<rpm>0.00</rpm>
</extensions>
</trkpt>
<trkpt lat="30.685747147" lon="34.949115753">
<ele>530.843750</ele>
<time>2013-11-22T11:05:49Z</time>
<speed>3.180000</speed>
<extensions>
<speed>3.2</speed>
<temp>0.00</temp>
<bpm>0</bpm>
<rpm>0.00</rpm>
</extensions>
</trkpt>
<trkpt lat="30.685699463" lon="34.948921204">
<ele>531.468750</ele>
<time>2013-11-22T11:05:54Z</time>
<speed>4.140000</speed>
<extensions>
<speed>4.1</speed>
<temp>0.00</temp>
<bpm>0</bpm>
<rpm>0.00</rpm>
</extensions>
</trkpt>
<trkpt lat="30.685647964" lon="34.948707581">
<ele>531.718750</ele>
<time>2013-11-22T11:05:59Z</time>
<speed>3.670000</speed>
<extensions>
<speed>3.7</speed>
<temp>0.00</temp>
<bpm>0</bpm>
<rpm>0.00</rpm>
</extensions>
</trkpt>
<trkpt lat="30.685606003" lon="34.948558807">
<ele>531.062500</ele>
<time>2013-11-22T11:06:04Z</time>
<speed>2.410000</speed>
<extensions>
<speed>2.4</speed>
<temp>0.00</temp>
<bpm>0</bpm>
<rpm>0.00</rpm>
</extensions>
</trkpt>
<trkpt lat="30.685594559" lon="34.948471069">
<ele>530.937500</ele>
<time>2013-11-22T11:06:09Z</time>
<speed>1.030000</speed>
<extensions>
<speed>1.0</speed>
<temp>0.00</temp>
<bpm>0</bpm>
<rpm>0.00</rpm>
</extensions>
</trkpt>
<trkpt lat="30.685585022" lon="34.948394775">
<ele>530.828125</ele>
<time>2013-11-22T11:06:14Z</time>
<speed>1.870000</speed>
<extensions>
<speed>1.9</speed>
<temp>0.00</temp>
<bpm>0</bpm>
<rpm>0.00</rpm>
</extensions>
</trkpt>
<trkpt lat="30.685560226" lon="34.948295593">
<ele>531.281250</ele>
<time>2013-11-22T11:06:19Z</time>
<speed>1.840000</speed>
<extensions>
<speed>1.8</speed>
<temp>0.00</temp>
<bpm>0</bpm>
<rpm>0.00</rpm>
</extensions>
</trkpt>
<trkpt lat="30.685541153" lon="34.948215485">
<ele>531.328125</ele>
<time>2013-11-22T11:06:24Z</time>
<speed>1.510000</speed>
<extensions>
<speed>1.5</speed>
<temp>0.00</temp>
<bpm>0</bpm>
<rpm>0.00</rpm>
</extensions>
</trkpt>
<trkpt lat="30.685514450" lon="34.948135376">
<ele>531.921875</ele>
<time>2013-11-22T11:06:29Z</time>
<speed>1.740000</speed>
<extensions>
<speed>1.7</speed>
<temp>0.00</temp>
<bpm>0</bpm>
<rpm>0.00</rpm>
</extensions>
</trkpt>
<trkpt lat="30.685487747" lon="34.948051453">
<ele>532.125000</ele>
<time>2013-11-22T11:06:34Z</time>
<speed>1.890000</speed>
<extensions>
<speed>1.9</speed>
<temp>0.00</temp>
<bpm>0</bpm>
<rpm>0.00</rpm>
</extensions>
</trkpt>
<trkpt lat="30.685453415" lon="34.947944641">
<ele>531.546875</ele>
<time>2013-11-22T11:06:39Z</time>
<speed>2.550000</speed>
<extensions>
<speed>2.6</speed>
<temp>0.00</temp>
<bpm>0</bpm>
<rpm>0.00</rpm>
</extensions>
</trkpt>
<trkpt lat="30.685409546" lon="34.947822571">
<ele>531.875000</ele>
<time>2013-11-22T11:06:44Z</time>
<speed>2.540000</speed>
<extensions>
<speed>2.5</speed>
<temp>0.00</temp>
<bpm>0</bpm>
<rpm>0.00</rpm>
</extensions>
</trkpt>
<trkpt lat="30.685386658" lon="34.947753906">
<ele>532.484375</ele>
<time>2013-11-22T11:06:49Z</time>
<speed>0.740000</speed>
<extensions>
<speed>0.7</speed>
<temp>0.00</temp>
<bpm>0</bpm>
<rpm>0.00</rpm>
</extensions>
</trkpt>
<trkpt lat="30.685379028" lon="34.947689056">
<ele>532.312500</ele>
<time>2013-11-22T11:06:54Z</time>
<speed>1.610000</speed>
<extensions>
<speed>1.6</speed>
<temp>0.00</temp>
<bpm>0</bpm>
<rpm>0.00</rpm>
</extensions>
</trkpt>
<trkpt lat="30.685352325" lon="34.947578430">
<ele>532.609375</ele>
<time>2013-11-22T11:06:59Z</time>
<speed>2.480000</speed>
<extensions>
<speed>2.5</speed>
<temp>0.00</temp>
<bpm>0</bpm>
<rpm>0.00</rpm>
</extensions>
</trkpt>
<trkpt lat="30.685329437" lon="34.947429657">
<ele>532.265625</ele>
<time>2013-11-22T11:07:04Z</time>
<speed>3.060000</speed>
<extensions>
<speed>3.1</speed>
<temp>0.00</temp>
<bpm>0</bpm>
<rpm>0.00</rpm>
</extensions>
</trkpt>
<trkpt lat="30.685295105" lon="34.947303772">
<ele>532.781250</ele>
<time>2013-11-22T11:07:09Z</time>
<speed>2.070000</speed>
<extensions>
<speed>2.1</speed>
<temp>0.00</temp>
<bpm>0</bpm>
<rpm>0.00</rpm>
</extensions>
</trkpt>
<trkpt lat="30.685272217" lon="34.947196960">
<ele>532.531250</ele>
<time>2013-11-22T11:07:14Z</time>
<speed>2.260000</speed>
<extensions>
<speed>2.3</speed>
<temp>0.00</temp>
<bpm>0</bpm>
<rpm>0.00</rpm>
</extensions>
</trkpt>
<trkpt lat="30.685241699" lon="34.947082520">
<ele>533.093750</ele>
<time>2013-11-22T11:07:19Z</time>
<speed>2.200000</speed>
<extensions>
<speed>2.2</speed>
<temp>0.00</temp>
<bpm>0</bpm>
<rpm>0.00</rpm>
</extensions>
</trkpt>
<trkpt lat="30.685201645" lon="34.946971893">
<ele>532.312500</ele>
<time>2013-11-22T11:07:24Z</time>
<speed>2.740000</speed>
<extensions>
<speed>2.7</speed>
<temp>0.00</temp>
<bpm>0</bpm>
<rpm>0.00</rpm>
</extensions>
</trkpt>
<trkpt lat="30.685159683" lon="34.946811676">
<ele>530.390625</ele>
<time>2013-11-22T11:07:29Z</time>
<speed>4.250000</speed>
<extensions>
<speed>4.3</speed>
<temp>0.00</temp>
<bpm>0</bpm>
<rpm>0.00</rpm>
</extensions>
</trkpt>
<trkpt lat="30.685106277" lon="34.946586609">
<ele>529.531250</ele>
<time>2013-11-22T11:07:34Z</time>
<speed>3.670000</speed>
<extensions>
<speed>3.7</speed>
<temp>0.00</temp>
<bpm>0</bpm>
<rpm>0.00</rpm>
</extensions>
</trkpt>
<trkpt lat="30.685108185" lon="34.946544647">
<ele>529.906250</ele>
<time>2013-11-22T11:07:39Z</time>
<speed>0.160000</speed>
<extensions>
<speed>0.2</speed>
<temp>0.00</temp>
<bpm>0</bpm>
<rpm>0.00</rpm>
</extensions>
</trkpt>
<trkpt lat="30.685113907" lon="34.946544647">
<ele>530.046875</ele>
<time>2013-11-22T11:07:44Z</time>
<speed>0.080000</speed>
<extensions>
<speed>0.1</speed>
<temp>0.00</temp>
<bpm>0</bpm>
<rpm>0.00</rpm>
</extensions>
</trkpt>
<trkpt lat="30.685113907" lon="34.946544647">
<ele>530.140625</ele>
<time>2013-11-22T11:07:49Z</time>
<speed>0.060000</speed>
<extensions>
<speed>0.1</speed>
<temp>0.00</temp>
<bpm>0</bpm>
<rpm>0.00</rpm>
</extensions>
</trkpt>
<trkpt lat="30.685115814" lon="34.946544647">
<ele>530.171875</ele>
<time>2013-11-22T11:07:54Z</time>
<speed>0.050000</speed>
<extensions>
<speed>0.1</speed>
<temp>0.00</temp>
<bpm>0</bpm>
<rpm>0.00</rpm>
</extensions>
</trkpt>
<trkpt lat="30.685121536" lon="34.946540833">
<ele>530.218750</ele>
<time>2013-11-22T11:07:59Z</time>
<speed>0.140000</speed>
<extensions>
<speed>0.1</speed>
<temp>0.00</temp>
<bpm>0</bpm>
<rpm>0.00</rpm>
</extensions>
</trkpt>
<trkpt lat="30.685127258" lon="34.946540833">
<ele>530.312500</ele>
<time>2013-11-22T11:08:04Z</time>
<speed>0.060000</speed>
<extensions>
<speed>0.1</speed>
<temp>0.00</temp>
<bpm>0</bpm>
<rpm>0.00</rpm>
</extensions>
</trkpt>
<trkpt lat="30.685127258" lon="34.946540833">
<ele>530.500000</ele>
<time>2013-11-22T11:08:09Z</time>
<speed>0.160000</speed>
<extensions>
<speed>0.2</speed>
<temp>0.00</temp>
<bpm>0</bpm>
<rpm>0.00</rpm>
</extensions>
</trkpt>
<trkpt lat="30.685129166" lon="34.946537018">
<ele>530.703125</ele>
<time>2013-11-22T11:08:14Z</time>
<speed>0.110000</speed>
<extensions>
<speed>0.1</speed>
<temp>0.00</temp>
<bpm>0</bpm>
<rpm>0.00</rpm>
</extensions>
</trkpt>
<trkpt lat="30.685127258" lon="34.946537018">
<ele>530.734375</ele>
<time>2013-11-22T11:08:19Z</time>
<speed>0.090000</speed>
<extensions>
<speed>0.1</speed>
<temp>0.00</temp>
<bpm>0</bpm>
<rpm>0.00</rpm>
</extensions>
</trkpt>
<trkpt lat="30.685121536" lon="34.946537018">
<ele>530.718750</ele>
<time>2013-11-22T11:08:24Z</time>
<speed>0.110000</speed>
<extensions>
<speed>0.1</speed>
<temp>0.00</temp>
<bpm>0</bpm>
<rpm>0.00</rpm>
</extensions>
</trkpt>
<trkpt lat="30.685117722" lon="34.946544647">
<ele>530.703125</ele>
<time>2013-11-22T11:08:29Z</time>
<speed>0.090000</speed>
<extensions>
<speed>0.1</speed>
<temp>0.00</temp>
<bpm>0</bpm>
<rpm>0.00</rpm>
</extensions>
</trkpt>
<trkpt lat="30.685115814" lon="34.946544647">
<ele>530.750000</ele>
<time>2013-11-22T11:08:34Z</time>
<speed>0.030000</speed>
<extensions>
<speed>0.0</speed>
<temp>0.00</temp>
<bpm>0</bpm>
<rpm>0.00</rpm>
</extensions>
</trkpt>
<trkpt lat="30.685113907" lon="34.946540833">
<ele>530.781250</ele>
<time>2013-11-22T11:08:39Z</time>
<speed>0.070000</speed>
<extensions>
<speed>0.1</speed>
<temp>0.00</temp>
<bpm>0</bpm>
<rpm>0.00</rpm>
</extensions>
</trkpt>
<trkpt lat="30.685117722" lon="34.946537018">
<ele>530.890625</ele>
<time>2013-11-22T11:08:44Z</time>
<speed>0.100000</speed>
<extensions>
<speed>0.1</speed>
<temp>0.00</temp>
<bpm>0</bpm>
<rpm>0.00</rpm>
</extensions>
</trkpt>
<trkpt lat="30.685119629" lon="34.946533203">
<ele>530.953125</ele>
<time>2013-11-22T11:08:49Z</time>
<speed>0.010000</speed>
<extensions>
<speed>0.0</speed>
<temp>0.00</temp>
<bpm>0</bpm>
<rpm>0.00</rpm>
</extensions>
</trkpt>
<trkpt lat="30.685117722" lon="34.946533203">
<ele>531.000000</ele>
<time>2013-11-22T11:08:54Z</time>
<speed>0.030000</speed>
<extensions>
<speed>0.0</speed>
<temp>0.00</temp>
<bpm>0</bpm>
<rpm>0.00</rpm>
</extensions>
</trkpt>
<trkpt lat="30.685119629" lon="34.946533203">
<ele>531.046875</ele>
<time>2013-11-22T11:08:59Z</time>
<speed>0.120000</speed>
<extensions>
<speed>0.1</speed>
<temp>0.00</temp>
<bpm>0</bpm>
<rpm>0.00</rpm>
</extensions>
</trkpt>
<trkpt lat="30.685121536" lon="34.946529388">
<ele>531.093750</ele>
<time>2013-11-22T11:09:04Z</time>
<speed>0.120000</speed>
<extensions>
<speed>0.1</speed>
<temp>0.00</temp>
<bpm>0</bpm>
<rpm>0.00</rpm>
</extensions>
</trkpt>
<trkpt lat="30.685119629" lon="34.946521759">
<ele>531.109375</ele>
<time>2013-11-22T11:09:09Z</time>
<speed>0.100000</speed>
<extensions>
<speed>0.1</speed>
<temp>0.00</temp>
<bpm>0</bpm>
<rpm>0.00</rpm>
</extensions>
</trkpt>
<trkpt lat="30.685121536" lon="34.946517944">
<ele>531.171875</ele>
<time>2013-11-22T11:09:14Z</time>
<speed>0.180000</speed>
<extensions>
<speed>0.2</speed>
<temp>0.00</temp>
<bpm>0</bpm>
<rpm>0.00</rpm>
</extensions>
</trkpt>
<trkpt lat="30.685119629" lon="34.946517944">
<ele>531.187500</ele>
<time>2013-11-22T11:09:19Z</time>
<speed>0.070000</speed>
<extensions>
<speed>0.1</speed>
<temp>0.00</temp>
<bpm>0</bpm>
<rpm>0.00</rpm>
</extensions>
</trkpt>
<trkpt lat="30.685117722" lon="34.946521759">
<ele>531.171875</ele>
<time>2013-11-22T11:09:24Z</time>
<speed>0.060000</speed>
<extensions>
<speed>0.1</speed>
<temp>0.00</temp>
<bpm>0</bpm>
<rpm>0.00</rpm>
</extensions>
</trkpt>
<trkpt lat="30.685117722" lon="34.946521759">
<ele>531.171875</ele>
<time>2013-11-22T11:09:29Z</time>
<speed>0.010000</speed>
<extensions>
<speed>0.0</speed>
<temp>0.00</temp>
<bpm>0</bpm>
<rpm>0.00</rpm>
</extensions>
</trkpt>
<trkpt lat="30.685117722" lon="34.946521759">
<ele>531.171875</ele>
<time>2013-11-22T11:09:34Z</time>
<speed>0.020000</speed>
<extensions>
<speed>0.0</speed>
<temp>0.00</temp>
<bpm>0</bpm>
<rpm>0.00</rpm>
</extensions>
</trkpt>
<trkpt lat="30.685117722" lon="34.946521759">
<ele>531.187500</ele>
<time>2013-11-22T11:09:39Z</time>
<speed>0.010000</speed>
<extensions>
<speed>0.0</speed>
<temp>0.00</temp>
<bpm>0</bpm>
<rpm>0.00</rpm>
</extensions>
</trkpt>
<trkpt lat="30.685117722" lon="34.946521759">
<ele>531.187500</ele>
<time>2013-11-22T11:09:44Z</time>
<speed>0.020000</speed>
<extensions>
<speed>0.0</speed>
<temp>0.00</temp>
<bpm>0</bpm>
<rpm>0.00</rpm>
</extensions>
</trkpt>
<trkpt lat="30.685117722" lon="34.946521759">
<ele>531.171875</ele>
<time>2013-11-22T11:09:49Z</time>
<speed>0.020000</speed>
<extensions>
<speed>0.0</speed>
<temp>0.00</temp>
<bpm>0</bpm>
<rpm>0.00</rpm>
</extensions>
</trkpt>
<trkpt lat="30.685117722" lon="34.946521759">
<ele>531.171875</ele>
<time>2013-11-22T11:09:54Z</time>
<speed>0.020000</speed>
<extensions>
<speed>0.0</speed>
<temp>0.00</temp>
<bpm>0</bpm>
<rpm>0.00</rpm>
</extensions>
</trkpt>
<trkpt lat="30.685117722" lon="34.946521759">
<ele>531.156250</ele>
<time>2013-11-22T11:09:59Z</time>
<extensions>
<speed>0.0</speed>
<temp>0.00</temp>
<bpm>0</bpm>
<rpm>0.00</rpm>
</extensions>
</trkpt>
<trkpt lat="30.685119629" lon="34.946521759">
<ele>531.156250</ele>
<time>2013-11-22T11:10:04Z</time>
<speed>0.010000</speed>
<extensions>
<speed>0.0</speed>
<temp>0.00</temp>
<bpm>0</bpm>
<rpm>0.00</rpm>
</extensions>
</trkpt>
<trkpt lat="30.685119629" lon="34.946521759">
<ele>531.125000</ele>
<time>2013-11-22T11:10:09Z</time>
<extensions>
<speed>0.0</speed>
<temp>0.00</temp>
<bpm>0</bpm>
<rpm>0.00</rpm>
</extensions>
</trkpt>
<trkpt lat="30.685119629" lon="34.946521759">
<ele>531.109375</ele>
<time>2013-11-22T11:10:14Z</time>
<speed>0.010000</speed>
<extensions>
<speed>0.0</speed>
<temp>0.00</temp>
<bpm>0</bpm>
<rpm>0.00</rpm>
</extensions>
</trkpt>
<trkpt lat="30.685119629" lon="34.946521759">
<ele>531.093750</ele>
<time>2013-11-22T11:10:19Z</time>
<extensions>
<speed>0.0</speed>
<temp>0.00</temp>
<bpm>0</bpm>
<rpm>0.00</rpm>
</extensions>
</trkpt>
<trkpt lat="30.685119629" lon="34.946521759">
<ele>531.062500</ele>
<time>2013-11-22T11:10:24Z</time>
<speed>0.020000</speed>
<extensions>
<speed>0.0</speed>
<temp>0.00</temp>
<bpm>0</bpm>
<rpm>0.00</rpm>
</extensions>
</trkpt>
<trkpt lat="30.685119629" lon="34.946521759">
<ele>531.062500</ele>
<time>2013-11-22T11:10:29Z</time>
<speed>0.020000</speed>
<extensions>
<speed>0.0</speed>
<temp>0.00</temp>
<bpm>0</bpm>
<rpm>0.00</rpm>
</extensions>
</trkpt>
<trkpt lat="30.685119629" lon="34.946521759">
<ele>531.062500</ele>
<time>2013-11-22T11:10:34Z</time>
<speed>0.010000</speed>
<extensions>
<speed>0.0</speed>
<temp>0.00</temp>
<bpm>0</bpm>
<rpm>0.00</rpm>
</extensions>
</trkpt>
<trkpt lat="30.685119629" lon="34.946521759">
<ele>531.046875</ele>
<time>2013-11-22T11:10:39Z</time>
<speed>0.020000</speed>
<extensions>
<speed>0.0</speed>
<temp>0.00</temp>
<bpm>0</bpm>
<rpm>0.00</rpm>
</extensions>
</trkpt>
<trkpt lat="30.685117722" lon="34.946521759">
<ele>531.046875</ele>
<time>2013-11-22T11:10:44Z</time>
<speed>0.010000</speed>
<extensions>
<speed>0.0</speed>
<temp>0.00</temp>
<bpm>0</bpm>
<rpm>0.00</rpm>
</extensions>
</trkpt>
<trkpt lat="30.685117722" lon="34.946521759">
<ele>531.031250</ele>
<time>2013-11-22T11:10:49Z</time>
<speed>0.010000</speed>
<extensions>
<speed>0.0</speed>
<temp>0.00</temp>
<bpm>0</bpm>
<rpm>0.00</rpm>
</extensions>
</trkpt>
<trkpt lat="30.685117722" lon="34.946521759">
<ele>531.031250</ele>
<time>2013-11-22T11:10:54Z</time>
<extensions>
<speed>0.0</speed>
<temp>0.00</temp>
<bpm>0</bpm>
<rpm>0.00</rpm>
</extensions>
</trkpt>
<trkpt lat="30.685117722" lon="34.946521759">
<ele>531.015625</ele>
<time>2013-11-22T11:10:59Z</time>
<speed>0.020000</speed>
<extensions>
<speed>0.0</speed>
<temp>0.00</temp>
<bpm>0</bpm>
<rpm>0.00</rpm>
</extensions>
</trkpt>
<trkpt lat="30.685117722" lon="34.946525574">
<ele>531.015625</ele>
<time>2013-11-22T11:11:04Z</time>
<speed>0.010000</speed>
<extensions>
<speed>0.0</speed>
<temp>0.00</temp>
<bpm>0</bpm>
<rpm>0.00</rpm>
</extensions>
</trkpt>
<trkpt lat="30.685117722" lon="34.946525574">
<ele>531.000000</ele>
<time>2013-11-22T11:11:09Z</time>
<extensions>
<speed>0.0</speed>
<temp>0.00</temp>
<bpm>0</bpm>
<rpm>0.00</rpm>
</extensions>
</trkpt>
<trkpt lat="30.685117722" lon="34.946521759">
<ele>531.000000</ele>
<time>2013-11-22T11:11:14Z</time>
<extensions>
<speed>0.0</speed>
<temp>0.00</temp>
<bpm>0</bpm>
<rpm>0.00</rpm>
</extensions>
</trkpt>
<trkpt lat="30.685119629" lon="34.946525574">
<ele>531.000000</ele>
<time>2013-11-22T11:11:19Z</time>
<speed>0.010000</speed>
<extensions>
<speed>0.0</speed>
<temp>0.00</temp>
<bpm>0</bpm>
<rpm>0.00</rpm>
</extensions>
</trkpt>
<trkpt lat="30.685117722" lon="34.946525574">
<ele>531.000000</ele>
<time>2013-11-22T11:11:24Z</time>
<speed>0.040000</speed>
<extensions>
<speed>0.0</speed>
<temp>0.00</temp>
<bpm>0</bpm>
<rpm>0.00</rpm>
</extensions>
</trkpt>
<trkpt lat="30.685104370" lon="34.946472168">
<ele>530.046875</ele>
<time>2013-11-22T11:11:29Z</time>
<speed>2.500000</speed>
<extensions>
<speed>2.5</speed>
<temp>0.00</temp>
<bpm>0</bpm>
<rpm>0.00</rpm>
</extensions>
</trkpt>
<trkpt lat="30.685066223" lon="34.946342468">
<ele>528.921875</ele>
<time>2013-11-22T11:11:34Z</time>
<speed>2.970000</speed>
<extensions>
<speed>3.0</speed>
<temp>0.00</temp>
<bpm>0</bpm>
<rpm>0.00</rpm>
</extensions>
</trkpt>
<trkpt lat="30.684923172" lon="34.946136475">
<ele>523.343750</ele>
<time>2013-11-22T11:11:39Z</time>
<speed>6.350000</speed>
<extensions>
<speed>6.4</speed>
<temp>0.00</temp>
<bpm>0</bpm>
<rpm>0.00</rpm>
</extensions>
</trkpt>
<trkpt lat="30.684700012" lon="34.945903778">
<ele>519.375000</ele>
<time>2013-11-22T11:11:44Z</time>
<speed>4.530000</speed>
<extensions>
<speed>4.5</speed>
<temp>0.00</temp>
<bpm>0</bpm>
<rpm>0.00</rpm>
</extensions>
</trkpt>
<trkpt lat="30.684581757" lon="34.945755005">
<ele>517.968750</ele>
<time>2013-11-22T11:11:49Z</time>
<speed>3.380000</speed>
<extensions>
<speed>3.4</speed>
<temp>0.00</temp>
<bpm>0</bpm>
<rpm>0.00</rpm>
</extensions>
</trkpt>
<trkpt lat="30.684465408" lon="34.945590973">
<ele>517.328125</ele>
<time>2013-11-22T11:11:54Z</time>
<speed>4.380000</speed>
<extensions>
<speed>4.4</speed>
<temp>0.00</temp>
<bpm>0</bpm>
<rpm>0.00</rpm>
</extensions>
</trkpt>
<trkpt lat="30.684358597" lon="34.945430756">
<ele>517.312500</ele>
<time>2013-11-22T11:11:59Z</time>
<speed>4.070000</speed>
<extensions>
<speed>4.1</speed>
<temp>0.00</temp>
<bpm>0</bpm>
<rpm>0.00</rpm>
</extensions>
</trkpt>
<trkpt lat="30.684242249" lon="34.945259094">
<ele>515.578125</ele>
<time>2013-11-22T11:12:04Z</time>
<speed>4.450000</speed>
<extensions>
<speed>4.5</speed>
<temp>0.00</temp>
<bpm>0</bpm>
<rpm>0.00</rpm>
</extensions>
</trkpt>
<trkpt lat="30.684097290" lon="34.945163727">
<ele>515.000000</ele>
<time>2013-11-22T11:12:09Z</time>
<speed>3.330000</speed>
<extensions>
<speed>3.3</speed>
<temp>0.00</temp>
<bpm>0</bpm>
<rpm>0.00</rpm>
</extensions>
</trkpt>
<trkpt lat="30.683923721" lon="34.945102692">
<ele>514.640625</ele>
<time>2013-11-22T11:12:14Z</time>
<speed>4.650000</speed>
<extensions>
<speed>4.6</speed>
<temp>0.00</temp>
<bpm>0</bpm>
<rpm>0.00</rpm>
</extensions>
</trkpt>
<trkpt lat="30.683717728" lon="34.945060730">
<ele>514.843750</ele>
<time>2013-11-22T11:12:19Z</time>
<speed>3.940000</speed>
<extensions>
<speed>3.9</speed>
<temp>0.00</temp>
<bpm>0</bpm>
<rpm>0.00</rpm>
</extensions>
</trkpt>
<trkpt lat="30.683547974" lon="34.944999695">
<ele>514.968750</ele>
<time>2013-11-22T11:12:24Z</time>
<speed>3.710000</speed>
<extensions>
<speed>3.7</speed>
<temp>0.00</temp>
<bpm>0</bpm>
<rpm>0.00</rpm>
</extensions>
</trkpt>
<trkpt lat="30.683399200" lon="34.944900513">
<ele>514.093750</ele>
<time>2013-11-22T11:12:29Z</time>
<speed>3.750000</speed>
<extensions>
<speed>3.8</speed>
<temp>0.00</temp>
<bpm>0</bpm>
<rpm>0.00</rpm>
</extensions>
</trkpt>
<trkpt lat="30.683273315" lon="34.944797516">
<ele>513.234375</ele>
<time>2013-11-22T11:12:34Z</time>
<speed>3.570000</speed>
<extensions>
<speed>3.6</speed>
<temp>0.00</temp>
<bpm>0</bpm>
<rpm>0.00</rpm>
</extensions>
</trkpt>
<trkpt lat="30.683097839" lon="34.944698334">
<ele>512.093750</ele>
<time>2013-11-22T11:12:39Z</time>
<speed>4.350000</speed>
<extensions>
<speed>4.3</speed>
<temp>0.00</temp>
<bpm>0</bpm>
<rpm>0.00</rpm>
</extensions>
</trkpt>
<trkpt lat="30.682935715" lon="34.944606781">
<ele>510.585938</ele>
<time>2013-11-22T11:12:44Z</time>
<speed>4.020000</speed>
<extensions>
<speed>4.0</speed>
<temp>0.00</temp>
<bpm>0</bpm>
<rpm>0.00</rpm>
</extensions>
</trkpt>
<trkpt lat="30.682769775" lon="34.944499969">
<ele>510.062500</ele>
<time>2013-11-22T11:12:49Z</time>
<speed>4.510000</speed>
<extensions>
<speed>4.5</speed>
<temp>0.00</temp>
<bpm>0</bpm>
<rpm>0.00</rpm>
</extensions>
</trkpt>
<trkpt lat="30.682621002" lon="34.944381714">
<ele>512.812500</ele>
<time>2013-11-22T11:12:54Z</time>
<speed>3.690000</speed>
<extensions>
<speed>3.7</speed>
<temp>0.00</temp>
<bpm>0</bpm>
<rpm>0.00</rpm>
</extensions>
</trkpt>
<trkpt lat="30.682493210" lon="34.944248199">
<ele>511.710938</ele>
<time>2013-11-22T11:12:59Z</time>
<speed>4.160000</speed>
<extensions>
<speed>4.2</speed>
<temp>0.00</temp>
<bpm>0</bpm>
<rpm>0.00</rpm>
</extensions>
</trkpt>
<trkpt lat="30.682331085" lon="34.944110870">
<ele>512.203125</ele>
<time>2013-11-22T11:13:04Z</time>
<speed>4.480000</speed>
<extensions>
<speed>4.5</speed>
<temp>0.00</temp>
<bpm>0</bpm>
<rpm>0.00</rpm>
</extensions>
</trkpt>
<trkpt lat="30.682165146" lon="34.943988800">
<ele>511.070313</ele>
<time>2013-11-22T11:13:09Z</time>
<speed>4.270000</speed>
<extensions>
<speed>4.3</speed>
<temp>0.00</temp>
<bpm>0</bpm>
<rpm>0.00</rpm>
</extensions>
</trkpt>
<trkpt lat="30.682052612" lon="34.943828583">
<ele>510.687500</ele>
<time>2013-11-22T11:13:14Z</time>
<speed>2.560000</speed>
<extensions>
<speed>2.6</speed>
<temp>0.00</temp>
<bpm>0</bpm>
<rpm>0.00</rpm>
</extensions>
</trkpt>
<trkpt lat="30.682033539" lon="34.943782806">
<ele>511.390625</ele>
<time>2013-11-22T11:13:19Z</time>
<speed>0.420000</speed>
<extensions>
<speed>0.4</speed>
<temp>0.00</temp>
<bpm>0</bpm>
<rpm>0.00</rpm>
</extensions>
</trkpt>
<trkpt lat="30.682027817" lon="34.943763733">
<ele>512.953125</ele>
<time>2013-11-22T11:13:24Z</time>
<speed>0.210000</speed>
<extensions>
<speed>0.2</speed>
<temp>0.00</temp>
<bpm>0</bpm>
<rpm>0.00</rpm>
</extensions>
</trkpt>
<trkpt lat="30.682008743" lon="34.943737030">
<ele>513.390625</ele>
<time>2013-11-22T11:13:29Z</time>
<speed>1.210000</speed>
<extensions>
<speed>1.2</speed>
<temp>0.00</temp>
<bpm>0</bpm>
<rpm>0.00</rpm>
</extensions>
</trkpt>
<trkpt lat="30.681985855" lon="34.943706512">
<ele>515.171875</ele>
<time>2013-11-22T11:13:34Z</time>
<speed>0.720000</speed>
<extensions>
<speed>0.7</speed>
<temp>0.00</temp>
<bpm>0</bpm>
<rpm>0.00</rpm>
</extensions>
</trkpt>
<trkpt lat="30.681972504" lon="34.943683624">
<ele>516.093750</ele>
<time>2013-11-22T11:13:39Z</time>
<speed>0.750000</speed>
<extensions>
<speed>0.8</speed>
<temp>0.00</temp>
<bpm>0</bpm>
<rpm>0.00</rpm>
</extensions>
</trkpt>
<trkpt lat="30.681953430" lon="34.943656921">
<ele>517.093750</ele>
<time>2013-11-22T11:13:44Z</time>
<speed>0.540000</speed>
<extensions>
<speed>0.5</speed>
<temp>0.00</temp>
<bpm>0</bpm>
<rpm>0.00</rpm>
</extensions>
</trkpt>
<trkpt lat="30.681932449" lon="34.943637848">
<ele>517.765625</ele>
<time>2013-11-22T11:13:49Z</time>
<speed>0.690000</speed>
<extensions>
<speed>0.7</speed>
<temp>0.00</temp>
<bpm>0</bpm>
<rpm>0.00</rpm>
</extensions>
</trkpt>
<trkpt lat="30.681907654" lon="34.943622589">
<ele>517.921875</ele>
<time>2013-11-22T11:13:54Z</time>
<speed>0.660000</speed>
<extensions>
<speed>0.7</speed>
<temp>0.00</temp>
<bpm>0</bpm>
<rpm>0.00</rpm>
</extensions>
</trkpt>
<trkpt lat="30.681880951" lon="34.943603516">
<ele>517.468750</ele>
<time>2013-11-22T11:13:59Z</time>
<speed>0.700000</speed>
<extensions>
<speed>0.7</speed>
<temp>0.00</temp>
<bpm>0</bpm>
<rpm>0.00</rpm>
</extensions>
</trkpt>
<trkpt lat="30.681838989" lon="34.943576813">
<ele>517.546875</ele>
<time>2013-11-22T11:14:04Z</time>
<speed>1.030000</speed>
<extensions>
<speed>1.0</speed>
<temp>0.00</temp>
<bpm>0</bpm>
<rpm>0.00</rpm>
</extensions>
</trkpt>
<trkpt lat="30.681808472" lon="34.943553925">
<ele>518.468750</ele>
<time>2013-11-22T11:14:09Z</time>
<speed>0.730000</speed>
<extensions>
<speed>0.7</speed>
<temp>0.00</temp>
<bpm>0</bpm>
<rpm>0.00</rpm>
</extensions>
</trkpt>
<trkpt lat="30.681776047" lon="34.943527222">
<ele>519.000000</ele>
<time>2013-11-22T11:14:14Z</time>
<speed>1.780000</speed>
<extensions>
<speed>1.8</speed>
<temp>0.00</temp>
<bpm>0</bpm>
<rpm>0.00</rpm>
</extensions>
</trkpt>
<trkpt lat="30.681699753" lon="34.943462372">
<ele>519.000000</ele>
<time>2013-11-22T11:14:19Z</time>
<speed>2.410000</speed>
<extensions>
<speed>2.4</speed>
<temp>0.00</temp>
<bpm>0</bpm>
<rpm>0.00</rpm>
</extensions>
</trkpt>
<trkpt lat="30.681604385" lon="34.943389893">
<ele>518.546875</ele>
<time>2013-11-22T11:14:24Z</time>
<speed>2.240000</speed>
<extensions>
<speed>2.2</speed>
<temp>0.00</temp>
<bpm>0</bpm>
<rpm>0.00</rpm>
</extensions>
</trkpt>
<trkpt lat="30.681528091" lon="34.943283081">
<ele>518.500000</ele>
<time>2013-11-22T11:14:29Z</time>
<speed>3.010000</speed>
<extensions>
<speed>3.0</speed>
<temp>0.00</temp>
<bpm>0</bpm>
<rpm>0.00</rpm>
</extensions>
</trkpt>
<trkpt lat="30.681398392" lon="34.943149567">
<ele>516.609375</ele>
<time>2013-11-22T11:14:34Z</time>
<speed>5.460000</speed>
<extensions>
<speed>5.5</speed>
<temp>0.00</temp>
<bpm>0</bpm>
<rpm>0.00</rpm>
</extensions>
</trkpt>
<trkpt lat="30.681251526" lon="34.942916870">
<ele>514.734375</ele>
<time>2013-11-22T11:14:39Z</time>
<speed>4.000000</speed>
<extensions>
<speed>4.0</speed>
<temp>0.00</temp>
<bpm>0</bpm>
<rpm>0.00</rpm>
</extensions>
</trkpt>
<trkpt lat="30.681171417" lon="34.942813873">
<ele>514.875000</ele>
<time>2013-11-22T11:14:44Z</time>
<speed>2.210000</speed>
<extensions>
<speed>2.2</speed>
<temp>0.00</temp>
<bpm>0</bpm>
<rpm>0.00</rpm>
</extensions>
</trkpt>
<trkpt lat="30.681110382" lon="34.942710876">
<ele>516.500000</ele>
<time>2013-11-22T11:14:49Z</time>
<speed>2.450000</speed>
<extensions>
<speed>2.4</speed>
<temp>0.00</temp>
<bpm>0</bpm>
<rpm>0.00</rpm>
</extensions>
</trkpt>
<trkpt lat="30.681015015" lon="34.942539215">
<ele>513.968750</ele>
<time>2013-11-22T11:14:54Z</time>
<speed>6.320000</speed>
<extensions>
<speed>6.3</speed>
<temp>0.00</temp>
<bpm>0</bpm>
<rpm>0.00</rpm>
</extensions>
</trkpt>
<trkpt lat="30.680685043" lon="34.942329407">
<ele>510.562500</ele>
<time>2013-11-22T11:14:59Z</time>
<speed>8.650000</speed>
<extensions>
<speed>8.6</speed>
<temp>0.00</temp>
<bpm>0</bpm>
<rpm>0.00</rpm>
</extensions>
</trkpt>
<trkpt lat="30.680406570" lon="34.942066193">
<ele>510.078125</ele>
<time>2013-11-22T11:15:04Z</time>
<speed>7.060000</speed>
<extensions>
<speed>7.1</speed>
<temp>0.00</temp>
<bpm>0</bpm>
<rpm>0.00</rpm>
</extensions>
</trkpt>
<trkpt lat="30.680187225" lon="34.941814423">
<ele>508.335938</ele>
<time>2013-11-22T11:15:09Z</time>
<speed>6.360000</speed>
<extensions>
<speed>6.4</speed>
<temp>0.00</temp>
<bpm>0</bpm>
<rpm>0.00</rpm>
</extensions>
</trkpt>
<trkpt lat="30.680095673" lon="34.941726685">
<ele>509.312500</ele>
<time>2013-11-22T11:15:14Z</time>
<speed>0.170000</speed>
<extensions>
<speed>0.2</speed>
<temp>0.00</temp>
<bpm>0</bpm>
<rpm>0.00</rpm>
</extensions>
</trkpt>
<trkpt lat="30.680107117" lon="34.941730499">
<ele>510.062500</ele>
<time>2013-11-22T11:15:19Z</time>
<speed>0.090000</speed>
<extensions>
<speed>0.1</speed>
<temp>0.00</temp>
<bpm>0</bpm>
<rpm>0.00</rpm>
</extensions>
</trkpt>
<trkpt lat="30.680109024" lon="34.941730499">
<ele>510.062500</ele>
<time>2013-11-22T11:15:24Z</time>
<speed>0.060000</speed>
<extensions>
<speed>0.1</speed>
<temp>0.00</temp>
<bpm>0</bpm>
<rpm>0.00</rpm>
</extensions>
</trkpt>
<trkpt lat="30.680110931" lon="34.941734314">
<ele>510.085938</ele>
<time>2013-11-22T11:15:29Z</time>
<speed>0.040000</speed>
<extensions>
<speed>0.0</speed>
<temp>0.00</temp>
<bpm>0</bpm>
<rpm>0.00</rpm>
</extensions>
</trkpt>
<trkpt lat="30.680109024" lon="34.941734314">
<ele>510.117188</ele>
<time>2013-11-22T11:15:34Z</time>
<speed>0.750000</speed>
<extensions>
<speed>0.8</speed>
<temp>0.00</temp>
<bpm>0</bpm>
<rpm>0.00</rpm>
</extensions>
</trkpt>
<trkpt lat="30.680126190" lon="34.941761017">
<ele>511.015625</ele>
<time>2013-11-22T11:15:39Z</time>
<speed>1.010000</speed>
<extensions>
<speed>1.0</speed>
<temp>0.00</temp>
<bpm>0</bpm>
<rpm>0.00</rpm>
</extensions>
</trkpt>
<trkpt lat="30.680139542" lon="34.941764832">
<ele>511.414063</ele>
<time>2013-11-22T11:15:44Z</time>
<speed>0.010000</speed>
<extensions>
<speed>0.0</speed>
<temp>0.00</temp>
<bpm>0</bpm>
<rpm>0.00</rpm>
</extensions>
</trkpt>
<trkpt lat="30.680139542" lon="34.941764832">
<ele>511.437500</ele>
<time>2013-11-22T11:15:49Z</time>
<speed>0.300000</speed>
<extensions>
<speed>0.3</speed>
<temp>0.00</temp>
<bpm>0</bpm>
<rpm>0.00</rpm>
</extensions>
</trkpt>
<trkpt lat="30.680149078" lon="34.941761017">
<ele>511.406250</ele>
<time>2013-11-22T11:15:54Z</time>
<speed>0.100000</speed>
<extensions>
<speed>0.1</speed>
<temp>0.00</temp>
<bpm>0</bpm>
<rpm>0.00</rpm>
</extensions>
</trkpt>
<trkpt lat="30.680133820" lon="34.941707611">
<ele>511.156250</ele>
<time>2013-11-22T11:15:59Z</time>
<speed>1.760000</speed>
<extensions>
<speed>1.8</speed>
<temp>0.00</temp>
<bpm>0</bpm>
<rpm>0.00</rpm>
</extensions>
</trkpt>
<trkpt lat="30.680131912" lon="34.941596985">
<ele>510.445313</ele>
<time>2013-11-22T11:16:04Z</time>
<speed>2.050000</speed>
<extensions>
<speed>2.1</speed>
<temp>0.00</temp>
<bpm>0</bpm>
<rpm>0.00</rpm>
</extensions>
</trkpt>
<trkpt lat="30.680154800" lon="34.941463470">
<ele>510.757813</ele>
<time>2013-11-22T11:16:09Z</time>
<speed>2.250000</speed>
<extensions>
<speed>2.3</speed>
<temp>0.00</temp>
<bpm>0</bpm>
<rpm>0.00</rpm>
</extensions>
</trkpt>
<trkpt lat="30.680179596" lon="34.941352844">
<ele>509.000000</ele>
<time>2013-11-22T11:16:14Z</time>
<speed>2.090000</speed>
<extensions>
<speed>2.1</speed>
<temp>0.00</temp>
<bpm>0</bpm>
<rpm>0.00</rpm>
</extensions>
</trkpt>
<trkpt lat="30.680238724" lon="34.941226959">
<ele>507.843750</ele>
<time>2013-11-22T11:16:19Z</time>
<speed>2.650000</speed>
<extensions>
<speed>2.6</speed>
<temp>0.00</temp>
<bpm>0</bpm>
<rpm>0.00</rpm>
</extensions>
</trkpt>
<trkpt lat="30.680259705" lon="34.941104889">
<ele>506.617188</ele>
<time>2013-11-22T11:16:24Z</time>
<speed>2.820000</speed>
<extensions>
<speed>2.8</speed>
<temp>0.00</temp>
<bpm>0</bpm>
<rpm>0.00</rpm>
</extensions>
</trkpt>
<trkpt lat="30.680288315" lon="34.940971375">
<ele>506.226563</ele>
<time>2013-11-22T11:16:29Z</time>
<speed>2.560000</speed>
<extensions>
<speed>2.6</speed>
<temp>0.00</temp>
<bpm>0</bpm>
<rpm>0.00</rpm>
</extensions>
</trkpt>
<trkpt lat="30.680320740" lon="34.940811157">
<ele>505.976563</ele>
<time>2013-11-22T11:16:34Z</time>
<speed>3.100000</speed>
<extensions>
<speed>3.1</speed>
<temp>0.00</temp>
<bpm>0</bpm>
<rpm>0.00</rpm>
</extensions>
</trkpt>
<trkpt lat="30.680376053" lon="34.940673828">
<ele>506.421875</ele>
<time>2013-11-22T11:16:39Z</time>
<speed>3.000000</speed>
<extensions>
<speed>3.0</speed>
<temp>0.00</temp>
<bpm>0</bpm>
<rpm>0.00</rpm>
</extensions>
</trkpt>
<trkpt lat="30.680477142" lon="34.940574646">
<ele>507.835938</ele>
<time>2013-11-22T11:16:44Z</time>
<speed>3.460000</speed>
<extensions>
<speed>3.5</speed>
<temp>0.00</temp>
<bpm>0</bpm>
<rpm>0.00</rpm>
</extensions>
</trkpt>
<trkpt lat="30.680578232" lon="34.940433502">
<ele>508.515625</ele>
<time>2013-11-22T11:16:49Z</time>
<speed>3.730000</speed>
<extensions>
<speed>3.7</speed>
<temp>0.00</temp>
<bpm>0</bpm>
<rpm>0.00</rpm>
</extensions>
</trkpt>
<trkpt lat="30.680665970" lon="34.940284729">
<ele>509.382813</ele>
<time>2013-11-22T11:16:54Z</time>
<speed>3.070000</speed>
<extensions>
<speed>3.1</speed>
<temp>0.00</temp>
<bpm>0</bpm>
<rpm>0.00</rpm>
</extensions>
</trkpt>
<trkpt lat="30.680770874" lon="34.940139771">
<ele>506.601563</ele>
<time>2013-11-22T11:16:59Z</time>
<speed>3.180000</speed>
<extensions>
<speed>3.2</speed>
<temp>0.00</temp>
<bpm>0</bpm>
<rpm>0.00</rpm>
</extensions>
</trkpt>
<trkpt lat="30.680856705" lon="34.940067291">
<ele>507.617188</ele>
<time>2013-11-22T11:17:04Z</time>
<speed>1.700000</speed>
<extensions>
<speed>1.7</speed>
<temp>0.00</temp>
<bpm>0</bpm>
<rpm>0.00</rpm>
</extensions>
</trkpt>
<trkpt lat="30.680910110" lon="34.940002441">
<ele>508.054688</ele>
<time>2013-11-22T11:17:09Z</time>
<speed>1.340000</speed>
<extensions>
<speed>1.3</speed>
<temp>0.00</temp>
<bpm>0</bpm>
<rpm>0.00</rpm>
</extensions>
</trkpt>
<trkpt lat="30.680940628" lon="34.939952850">
<ele>508.414063</ele>
<time>2013-11-22T11:17:14Z</time>
<speed>1.470000</speed>
<extensions>
<speed>1.5</speed>
<temp>0.00</temp>
<bpm>0</bpm>
<rpm>0.00</rpm>
</extensions>
</trkpt>
<trkpt lat="30.680995941" lon="34.939884186">
<ele>509.210938</ele>
<time>2013-11-22T11:17:19Z</time>
<speed>1.830000</speed>
<extensions>
<speed>1.8</speed>
<temp>0.00</temp>
<bpm>0</bpm>
<rpm>0.00</rpm>
</extensions>
</trkpt>
<trkpt lat="30.681047440" lon="34.939796448">
<ele>508.820313</ele>
<time>2013-11-22T11:17:24Z</time>
<speed>1.950000</speed>
<extensions>
<speed>1.9</speed>
<temp>0.00</temp>
<bpm>0</bpm>
<rpm>0.00</rpm>
</extensions>
</trkpt>
<trkpt lat="30.681118011" lon="34.939727783">
<ele>509.828125</ele>
<time>2013-11-22T11:17:29Z</time>
<speed>2.010000</speed>
<extensions>
<speed>2.0</speed>
<temp>0.00</temp>
<bpm>0</bpm>
<rpm>0.00</rpm>
</extensions>
</trkpt>
<trkpt lat="30.681169510" lon="34.939655304">
<ele>512.921875</ele>
<time>2013-11-22T11:17:34Z</time>
<speed>1.770000</speed>
<extensions>
<speed>1.8</speed>
<temp>0.00</temp>
<bpm>0</bpm>
<rpm>0.00</rpm>
</extensions>
</trkpt>
<trkpt lat="30.681219101" lon="34.939556122">
<ele>511.554688</ele>
<time>2013-11-22T11:17:39Z</time>
<speed>2.820000</speed>
<extensions>
<speed>2.8</speed>
<temp>0.00</temp>
<bpm>0</bpm>
<rpm>0.00</rpm>
</extensions>
</trkpt>
<trkpt lat="30.681262970" lon="34.939441681">
<ele>511.085938</ele>
<time>2013-11-22T11:17:44Z</time>
<speed>2.410000</speed>
<extensions>
<speed>2.4</speed>
<temp>0.00</temp>
<bpm>0</bpm>
<rpm>0.00</rpm>
</extensions>
</trkpt>
<trkpt lat="30.681266785" lon="34.939296722">
<ele>510.710938</ele>
<time>2013-11-22T11:17:49Z</time>
<speed>2.850000</speed>
<extensions>
<speed>2.9</speed>
<temp>0.00</temp>
<bpm>0</bpm>
<rpm>0.00</rpm>
</extensions>
</trkpt>
<trkpt lat="30.681236267" lon="34.939140320">
<ele>510.835938</ele>
<time>2013-11-22T11:17:54Z</time>
<speed>2.950000</speed>
<extensions>
<speed>2.9</speed>
<temp>0.00</temp>
<bpm>0</bpm>
<rpm>0.00</rpm>
</extensions>
</trkpt>
<trkpt lat="30.681198120" lon="34.938972473">
<ele>510.273438</ele>
<time>2013-11-22T11:17:59Z</time>
<speed>2.950000</speed>
<extensions>
<speed>2.9</speed>
<temp>0.00</temp>
<bpm>0</bpm>
<rpm>0.00</rpm>
</extensions>
</trkpt>
<trkpt lat="30.681135178" lon="34.938858032">
<ele>510.343750</ele>
<time>2013-11-22T11:18:04Z</time>
<speed>1.980000</speed>
<extensions>
<speed>2.0</speed>
<temp>0.00</temp>
<bpm>0</bpm>
<rpm>0.00</rpm>
</extensions>
</trkpt>
<trkpt lat="30.681098938" lon="34.938758850">
<ele>511.171875</ele>
<time>2013-11-22T11:18:09Z</time>
<speed>2.380000</speed>
<extensions>
<speed>2.4</speed>
<temp>0.00</temp>
<bpm>0</bpm>
<rpm>0.00</rpm>
</extensions>
</trkpt>
<trkpt lat="30.681043625" lon="34.938625336">
<ele>511.460938</ele>
<time>2013-11-22T11:18:14Z</time>
<speed>3.300000</speed>
<extensions>
<speed>3.3</speed>
<temp>0.00</temp>
<bpm>0</bpm>
<rpm>0.00</rpm>
</extensions>
</trkpt>
<trkpt lat="30.680936813" lon="34.938522339">
<ele>514.421875</ele>
<time>2013-11-22T11:18:19Z</time>
<speed>3.140000</speed>
<extensions>
<speed>3.1</speed>
<temp>0.00</temp>
<bpm>0</bpm>
<rpm>0.00</rpm>
</extensions>
</trkpt>
<trkpt lat="30.680850983" lon="34.938411713">
<ele>516.750000</ele>
<time>2013-11-22T11:18:24Z</time>
<speed>2.740000</speed>
<extensions>
<speed>2.7</speed>
<temp>0.00</temp>
<bpm>0</bpm>
<rpm>0.00</rpm>
</extensions>
</trkpt>
<trkpt lat="30.680772781" lon="34.938323975">
<ele>516.859375</ele>
<time>2013-11-22T11:18:29Z</time>
<speed>2.520000</speed>
<extensions>
<speed>2.5</speed>
<temp>0.00</temp>
<bpm>0</bpm>
<rpm>0.00</rpm>
</extensions>
</trkpt>
<trkpt lat="30.680706024" lon="34.938232422">
<ele>517.343750</ele>
<time>2013-11-22T11:18:34Z</time>
<speed>2.130000</speed>
<extensions>
<speed>2.1</speed>
<temp>0.00</temp>
<bpm>0</bpm>
<rpm>0.00</rpm>
</extensions>
</trkpt>
<trkpt lat="30.680648804" lon="34.938144684">
<ele>517.328125</ele>
<time>2013-11-22T11:18:39Z</time>
<speed>0.340000</speed>
<extensions>
<speed>0.3</speed>
<temp>0.00</temp>
<bpm>0</bpm>
<rpm>0.00</rpm>
</extensions>
</trkpt>
<trkpt lat="30.680639267" lon="34.938140869">
<ele>517.640625</ele>
<time>2013-11-22T11:18:44Z</time>
<speed>0.070000</speed>
<extensions>
<speed>0.1</speed>
<temp>0.00</temp>
<bpm>0</bpm>
<rpm>0.00</rpm>
</extensions>
</trkpt>
<trkpt lat="30.680637360" lon="34.938140869">
<ele>517.718750</ele>
<time>2013-11-22T11:18:49Z</time>
<speed>0.140000</speed>
<extensions>
<speed>0.1</speed>
<temp>0.00</temp>
<bpm>0</bpm>
<rpm>0.00</rpm>
</extensions>
</trkpt>
<trkpt lat="30.680631638" lon="34.938125610">
<ele>517.750000</ele>
<time>2013-11-22T11:18:54Z</time>
<speed>1.400000</speed>
<extensions>
<speed>1.4</speed>
<temp>0.00</temp>
<bpm>0</bpm>
<rpm>0.00</rpm>
</extensions>
</trkpt>
<trkpt lat="30.680717468" lon="34.938011169">
<ele>517.812500</ele>
<time>2013-11-22T11:18:59Z</time>
<speed>3.340000</speed>
<extensions>
<speed>3.3</speed>
<temp>0.00</temp>
<bpm>0</bpm>
<rpm>0.00</rpm>
</extensions>
</trkpt>
<trkpt lat="30.680824280" lon="34.937900543">
<ele>517.000000</ele>
<time>2013-11-22T11:19:04Z</time>
<speed>3.130000</speed>
<extensions>
<speed>3.1</speed>
<temp>0.00</temp>
<bpm>0</bpm>
<rpm>0.00</rpm>
</extensions>
</trkpt>
<trkpt lat="30.680919647" lon="34.937759399">
<ele>515.187500</ele>
<time>2013-11-22T11:19:09Z</time>
<speed>4.230000</speed>
<extensions>
<speed>4.2</speed>
<temp>0.00</temp>
<bpm>0</bpm>
<rpm>0.00</rpm>
</extensions>
</trkpt>
<trkpt lat="30.680982590" lon="34.937549591">
<ele>512.484375</ele>
<time>2013-11-22T11:19:14Z</time>
<speed>3.220000</speed>
<extensions>
<speed>3.2</speed>
<temp>0.00</temp>
<bpm>0</bpm>
<rpm>0.00</rpm>
</extensions>
</trkpt>
<trkpt lat="30.680995941" lon="34.937404633">
<ele>513.843750</ele>
<time>2013-11-22T11:19:19Z</time>
<speed>2.890000</speed>
<extensions>
<speed>2.9</speed>
<temp>0.00</temp>
<bpm>0</bpm>
<rpm>0.00</rpm>
</extensions>
</trkpt>
<trkpt lat="30.681016922" lon="34.937286377">
<ele>514.109375</ele>
<time>2013-11-22T11:19:24Z</time>
<speed>2.240000</speed>
<extensions>
<speed>2.2</speed>
<temp>0.00</temp>
<bpm>0</bpm>
<rpm>0.00</rpm>
</extensions>
</trkpt>
<trkpt lat="30.681062698" lon="34.937206268">
<ele>515.484375</ele>
<time>2013-11-22T11:19:29Z</time>
<speed>2.130000</speed>
<extensions>
<speed>2.1</speed>
<temp>0.00</temp>
<bpm>0</bpm>
<rpm>0.00</rpm>
</extensions>
</trkpt>
<trkpt lat="30.681131363" lon="34.937118530">
<ele>514.781250</ele>
<time>2013-11-22T11:19:34Z</time>
<speed>2.740000</speed>
<extensions>
<speed>2.7</speed>
<temp>0.00</temp>
<bpm>0</bpm>
<rpm>0.00</rpm>
</extensions>
</trkpt>
<trkpt lat="30.681175232" lon="34.936973572">
<ele>514.312500</ele>
<time>2013-11-22T11:19:39Z</time>
<speed>2.490000</speed>
<extensions>
<speed>2.5</speed>
<temp>0.00</temp>
<bpm>0</bpm>
<rpm>0.00</rpm>
</extensions>
</trkpt>
<trkpt lat="30.681184769" lon="34.936840057">
<ele>514.265625</ele>
<time>2013-11-22T11:19:44Z</time>
<speed>2.540000</speed>
<extensions>
<speed>2.5</speed>
<temp>0.00</temp>
<bpm>0</bpm>
<rpm>0.00</rpm>
</extensions>
</trkpt>
<trkpt lat="30.681219101" lon="34.936737061">
<ele>515.062500</ele>
<time>2013-11-22T11:19:49Z</time>
<speed>1.440000</speed>
<extensions>
<speed>1.4</speed>
<temp>0.00</temp>
<bpm>0</bpm>
<rpm>0.00</rpm>
</extensions>
</trkpt>
<trkpt lat="30.681266785" lon="34.936679840">
<ele>515.843750</ele>
<time>2013-11-22T11:19:54Z</time>
<speed>1.880000</speed>
<extensions>
<speed>1.9</speed>
<temp>0.00</temp>
<bpm>0</bpm>
<rpm>0.00</rpm>
</extensions>
</trkpt>
<trkpt lat="30.681335449" lon="34.936588287">
<ele>515.968750</ele>
<time>2013-11-22T11:19:59Z</time>
<speed>2.480000</speed>
<extensions>
<speed>2.5</speed>
<temp>0.00</temp>
<bpm>0</bpm>
<rpm>0.00</rpm>
</extensions>
</trkpt>
<trkpt lat="30.681371689" lon="34.936450958">
<ele>514.984375</ele>
<time>2013-11-22T11:20:04Z</time>
<speed>2.640000</speed>
<extensions>
<speed>2.6</speed>
<temp>0.00</temp>
<bpm>0</bpm>
<rpm>0.00</rpm>
</extensions>
</trkpt>
<trkpt lat="30.681425095" lon="34.936298370">
<ele>513.484375</ele>
<time>2013-11-22T11:20:09Z</time>
<speed>3.380000</speed>
<extensions>
<speed>3.4</speed>
<temp>0.00</temp>
<bpm>0</bpm>
<rpm>0.00</rpm>
</extensions>
</trkpt>
<trkpt lat="30.681369781" lon="34.936149597">
<ele>513.671875</ele>
<time>2013-11-22T11:20:14Z</time>
<speed>3.080000</speed>
<extensions>
<speed>3.1</speed>
<temp>0.00</temp>
<bpm>0</bpm>
<rpm>0.00</rpm>
</extensions>
</trkpt>
<trkpt lat="30.681259155" lon="34.936027527">
<ele>513.781250</ele>
<time>2013-11-22T11:20:19Z</time>
<speed>3.470000</speed>
<extensions>
<speed>3.5</speed>
<temp>0.00</temp>
<bpm>0</bpm>
<rpm>0.00</rpm>
</extensions>
</trkpt>
<trkpt lat="30.681169510" lon="34.935863495">
<ele>514.109375</ele>
<time>2013-11-22T11:20:24Z</time>
<speed>3.500000</speed>
<extensions>
<speed>3.5</speed>
<temp>0.00</temp>
<bpm>0</bpm>
<rpm>0.00</rpm>
</extensions>
</trkpt>
<trkpt lat="30.681074142" lon="34.935722351">
<ele>513.781250</ele>
<time>2013-11-22T11:20:29Z</time>
<speed>3.410000</speed>
<extensions>
<speed>3.4</speed>
<temp>0.00</temp>
<bpm>0</bpm>
<rpm>0.00</rpm>
</extensions>
</trkpt>
<trkpt lat="30.680982590" lon="34.935588837">
<ele>513.671875</ele>
<time>2013-11-22T11:20:34Z</time>
<speed>2.290000</speed>
<extensions>
<speed>2.3</speed>
<temp>0.00</temp>
<bpm>0</bpm>
<rpm>0.00</rpm>
</extensions>
</trkpt>
<trkpt lat="30.680894852" lon="34.935474396">
<ele>513.062500</ele>
<time>2013-11-22T11:20:39Z</time>
<speed>2.980000</speed>
<extensions>
<speed>3.0</speed>
<temp>0.00</temp>
<bpm>0</bpm>
<rpm>0.00</rpm>
</extensions>
</trkpt>
<trkpt lat="30.680809021" lon="34.935329437">
<ele>513.203125</ele>
<time>2013-11-22T11:20:44Z</time>
<speed>4.120000</speed>
<extensions>
<speed>4.1</speed>
<temp>0.00</temp>
<bpm>0</bpm>
<rpm>0.00</rpm>
</extensions>
</trkpt>
<trkpt lat="30.680696487" lon="34.935173035">
<ele>512.531250</ele>
<time>2013-11-22T11:20:49Z</time>
<speed>3.230000</speed>
<extensions>
<speed>3.2</speed>
<temp>0.00</temp>
<bpm>0</bpm>
<rpm>0.00</rpm>
</extensions>
</trkpt>
<trkpt lat="30.680604935" lon="34.935024261">
<ele>512.484375</ele>
<time>2013-11-22T11:20:54Z</time>
<speed>3.960000</speed>
<extensions>
<speed>4.0</speed>
<temp>0.00</temp>
<bpm>0</bpm>
<rpm>0.00</rpm>
</extensions>
</trkpt>
<trkpt lat="30.680507660" lon="34.934825897">
<ele>512.421875</ele>
<time>2013-11-22T11:20:59Z</time>
<speed>4.460000</speed>
<extensions>
<speed>4.5</speed>
<temp>0.00</temp>
<bpm>0</bpm>
<rpm>0.00</rpm>
</extensions>
</trkpt>
<trkpt lat="30.680410385" lon="34.934597015">
<ele>512.328125</ele>
<time>2013-11-22T11:21:04Z</time>
<speed>4.490000</speed>
<extensions>
<speed>4.5</speed>
<temp>0.00</temp>
<bpm>0</bpm>
<rpm>0.00</rpm>
</extensions>
</trkpt>
<trkpt lat="30.680343628" lon="34.934375763">
<ele>512.625000</ele>
<time>2013-11-22T11:21:09Z</time>
<speed>4.010000</speed>
<extensions>
<speed>4.0</speed>
<temp>0.00</temp>
<bpm>0</bpm>
<rpm>0.00</rpm>
</extensions>
</trkpt>
<trkpt lat="30.680295944" lon="34.934211731">
<ele>513.062500</ele>
<time>2013-11-22T11:21:14Z</time>
<speed>3.610000</speed>
<extensions>
<speed>3.6</speed>
<temp>0.00</temp>
<bpm>0</bpm>
<rpm>0.00</rpm>
</extensions>
</trkpt>
<trkpt lat="30.680227280" lon="34.934017181">
<ele>512.437500</ele>
<time>2013-11-22T11:21:19Z</time>
<speed>3.940000</speed>
<extensions>
<speed>3.9</speed>
<temp>0.00</temp>
<bpm>0</bpm>
<rpm>0.00</rpm>
</extensions>
</trkpt>
<trkpt lat="30.680145264" lon="34.933856964">
<ele>512.671875</ele>
<time>2013-11-22T11:21:24Z</time>
<speed>2.560000</speed>
<extensions>
<speed>2.6</speed>
<temp>0.00</temp>
<bpm>0</bpm>
<rpm>0.00</rpm>
</extensions>
</trkpt>
<trkpt lat="30.680122375" lon="34.933807373">
<ele>514.125000</ele>
<time>2013-11-22T11:21:29Z</time>
<speed>1.020000</speed>
<extensions>
<speed>1.0</speed>
<temp>0.00</temp>
<bpm>0</bpm>
<rpm>0.00</rpm>
</extensions>
</trkpt>
<trkpt lat="30.680072784" lon="34.933746338">
<ele>514.609375</ele>
<time>2013-11-22T11:21:34Z</time>
<speed>1.430000</speed>
<extensions>
<speed>1.4</speed>
<temp>0.00</temp>
<bpm>0</bpm>
<rpm>0.00</rpm>
</extensions>
</trkpt>
<trkpt lat="30.680036545" lon="34.933712006">
<ele>515.640625</ele>
<time>2013-11-22T11:21:39Z</time>
<speed>0.130000</speed>
<extensions>
<speed>0.1</speed>
<temp>0.00</temp>
<bpm>0</bpm>
<rpm>0.00</rpm>
</extensions>
</trkpt>
<trkpt lat="30.680025101" lon="34.933685303">
<ele>516.937500</ele>
<time>2013-11-22T11:21:44Z</time>
<speed>0.690000</speed>
<extensions>
<speed>0.7</speed>
<temp>0.00</temp>
<bpm>0</bpm>
<rpm>0.00</rpm>
</extensions>
</trkpt>
<trkpt lat="30.679977417" lon="34.933673859">
<ele>516.750000</ele>
<time>2013-11-22T11:21:49Z</time>
<speed>0.720000</speed>
<extensions>
<speed>0.7</speed>
<temp>0.00</temp>
<bpm>0</bpm>
<rpm>0.00</rpm>
</extensions>
</trkpt>
<trkpt lat="30.679962158" lon="34.933670044">
<ele>517.015625</ele>
<time>2013-11-22T11:21:54Z</time>
<speed>0.160000</speed>
<extensions>
<speed>0.2</speed>
<temp>0.00</temp>
<bpm>0</bpm>
<rpm>0.00</rpm>
</extensions>
</trkpt>
<trkpt lat="30.679941177" lon="34.933666229">
<ele>517.000000</ele>
<time>2013-11-22T11:21:59Z</time>
<speed>1.810000</speed>
<extensions>
<speed>1.8</speed>
<temp>0.00</temp>
<bpm>0</bpm>
<rpm>0.00</rpm>
</extensions>
</trkpt>
<trkpt lat="30.679771423" lon="34.933692932">
<ele>515.984375</ele>
<time>2013-11-22T11:22:04Z</time>
<speed>4.150000</speed>
<extensions>
<speed>4.1</speed>
<temp>0.00</temp>
<bpm>0</bpm>
<rpm>0.00</rpm>
</extensions>
</trkpt>
<trkpt lat="30.679592133" lon="34.933612823">
<ele>513.843750</ele>
<time>2013-11-22T11:22:09Z</time>
<speed>4.650000</speed>
<extensions>
<speed>4.6</speed>
<temp>0.00</temp>
<bpm>0</bpm>
<rpm>0.00</rpm>
</extensions>
</trkpt>
<trkpt lat="30.679441452" lon="34.933414459">
<ele>511.703125</ele>
<time>2013-11-22T11:22:14Z</time>
<speed>4.560000</speed>
<extensions>
<speed>4.6</speed>
<temp>0.00</temp>
<bpm>0</bpm>
<rpm>0.00</rpm>
</extensions>
</trkpt>
<trkpt lat="30.679285049" lon="34.933357239">
<ele>512.421875</ele>
<time>2013-11-22T11:22:19Z</time>
<speed>2.250000</speed>
<extensions>
<speed>2.3</speed>
<temp>0.00</temp>
<bpm>0</bpm>
<rpm>0.00</rpm>
</extensions>
</trkpt>
<trkpt lat="30.679183960" lon="34.933338165">
<ele>512.750000</ele>
<time>2013-11-22T11:22:24Z</time>
<speed>3.150000</speed>
<extensions>
<speed>3.2</speed>
<temp>0.00</temp>
<bpm>0</bpm>
<rpm>0.00</rpm>
</extensions>
</trkpt>
<trkpt lat="30.679080963" lon="34.933231354">
<ele>512.671875</ele>
<time>2013-11-22T11:22:29Z</time>
<speed>2.480000</speed>
<extensions>
<speed>2.5</speed>
<temp>0.00</temp>
<bpm>0</bpm>
<rpm>0.00</rpm>
</extensions>
</trkpt>
<trkpt lat="30.678947449" lon="34.933158875">
<ele>511.289063</ele>
<time>2013-11-22T11:22:34Z</time>
<speed>2.690000</speed>
<extensions>
<speed>2.7</speed>
<temp>0.00</temp>
<bpm>0</bpm>
<rpm>0.00</rpm>
</extensions>
</trkpt>
<trkpt lat="30.678863525" lon="34.933036804">
<ele>509.179688</ele>
<time>2013-11-22T11:22:39Z</time>
<speed>3.550000</speed>
<extensions>
<speed>3.5</speed>
<temp>0.00</temp>
<bpm>0</bpm>
<rpm>0.00</rpm>
</extensions>
</trkpt>
<trkpt lat="30.678758621" lon="34.933078766">
<ele>511.531250</ele>
<time>2013-11-22T11:22:44Z</time>
<speed>2.750000</speed>
<extensions>
<speed>2.7</speed>
<temp>0.00</temp>
<bpm>0</bpm>
<rpm>0.00</rpm>
</extensions>
</trkpt>
<trkpt lat="30.678739548" lon="34.933048248">
<ele>512.546875</ele>
<time>2013-11-22T11:22:49Z</time>
<speed>1.130000</speed>
<extensions>
<speed>1.1</speed>
<temp>0.00</temp>
<bpm>0</bpm>
<rpm>0.00</rpm>
</extensions>
</trkpt>
<trkpt lat="30.678754807" lon="34.932991028">
<ele>512.234375</ele>
<time>2013-11-22T11:22:54Z</time>
<speed>0.980000</speed>
<extensions>
<speed>1.0</speed>
<temp>0.00</temp>
<bpm>0</bpm>
<rpm>0.00</rpm>
</extensions>
</trkpt>
<trkpt lat="30.678777695" lon="34.932910919">
<ele>513.812500</ele>
<time>2013-11-22T11:22:59Z</time>
<speed>1.480000</speed>
<extensions>
<speed>1.5</speed>
<temp>0.00</temp>
<bpm>0</bpm>
<rpm>0.00</rpm>
</extensions>
</trkpt>
<trkpt lat="30.678817749" lon="34.932826996">
<ele>515.171875</ele>
<time>2013-11-22T11:23:04Z</time>
<speed>1.760000</speed>
<extensions>
<speed>1.8</speed>
<temp>0.00</temp>
<bpm>0</bpm>
<rpm>0.00</rpm>
</extensions>
</trkpt>
<trkpt lat="30.678848267" lon="34.932781219">
<ele>515.687500</ele>
<time>2013-11-22T11:23:09Z</time>
<speed>1.810000</speed>
<extensions>
<speed>1.8</speed>
<temp>0.00</temp>
<bpm>0</bpm>
<rpm>0.00</rpm>
</extensions>
</trkpt>
<trkpt lat="30.678907394" lon="34.932723999">
<ele>516.078125</ele>
<time>2013-11-22T11:23:14Z</time>
<speed>2.080000</speed>
<extensions>
<speed>2.1</speed>
<temp>0.00</temp>
<bpm>0</bpm>
<rpm>0.00</rpm>
</extensions>
</trkpt>
<trkpt lat="30.678951263" lon="34.932640076">
<ele>517.093750</ele>
<time>2013-11-22T11:23:19Z</time>
<speed>1.640000</speed>
<extensions>
<speed>1.6</speed>
<temp>0.00</temp>
<bpm>0</bpm>
<rpm>0.00</rpm>
</extensions>
</trkpt>
<trkpt lat="30.678989410" lon="34.932559967">
<ele>516.531250</ele>
<time>2013-11-22T11:23:24Z</time>
<speed>1.610000</speed>
<extensions>
<speed>1.6</speed>
<temp>0.00</temp>
<bpm>0</bpm>
<rpm>0.00</rpm>
</extensions>
</trkpt>
<trkpt lat="30.679042816" lon="34.932476044">
<ele>516.812500</ele>
<time>2013-11-22T11:23:29Z</time>
<speed>1.960000</speed>
<extensions>
<speed>2.0</speed>
<temp>0.00</temp>
<bpm>0</bpm>
<rpm>0.00</rpm>
</extensions>
</trkpt>
<trkpt lat="30.679086685" lon="34.932411194">
<ele>517.531250</ele>
<time>2013-11-22T11:23:34Z</time>
<speed>1.540000</speed>
<extensions>
<speed>1.5</speed>
<temp>0.00</temp>
<bpm>0</bpm>
<rpm>0.00</rpm>
</extensions>
</trkpt>
<trkpt lat="30.679134369" lon="34.932346344">
<ele>517.156250</ele>
<time>2013-11-22T11:23:39Z</time>
<speed>1.710000</speed>
<extensions>
<speed>1.7</speed>
<temp>0.00</temp>
<bpm>0</bpm>
<rpm>0.00</rpm>
</extensions>
</trkpt>
<trkpt lat="30.679180145" lon="34.932273865">
<ele>517.125000</ele>
<time>2013-11-22T11:23:44Z</time>
<speed>1.650000</speed>
<extensions>
<speed>1.7</speed>
<temp>0.00</temp>
<bpm>0</bpm>
<rpm>0.00</rpm>
</extensions>
</trkpt>
<trkpt lat="30.679225922" lon="34.932197571">
<ele>517.687500</ele>
<time>2013-11-22T11:23:49Z</time>
<speed>2.020000</speed>
<extensions>
<speed>2.0</speed>
<temp>0.00</temp>
<bpm>0</bpm>
<rpm>0.00</rpm>
</extensions>
</trkpt>
<trkpt lat="30.679243088" lon="34.932083130">
<ele>518.468750</ele>
<time>2013-11-22T11:23:54Z</time>
<speed>2.110000</speed>
<extensions>
<speed>2.1</speed>
<temp>0.00</temp>
<bpm>0</bpm>
<rpm>0.00</rpm>
</extensions>
</trkpt>
<trkpt lat="30.679254532" lon="34.931972504">
<ele>519.828125</ele>
<time>2013-11-22T11:23:59Z</time>
<speed>1.930000</speed>
<extensions>
<speed>1.9</speed>
<temp>0.00</temp>
<bpm>0</bpm>
<rpm>0.00</rpm>
</extensions>
</trkpt>
<trkpt lat="30.679250717" lon="34.931888580">
<ele>521.281250</ele>
<time>2013-11-22T11:24:04Z</time>
<speed>2.080000</speed>
<extensions>
<speed>2.1</speed>
<temp>0.00</temp>
<bpm>0</bpm>
<rpm>0.00</rpm>
</extensions>
</trkpt>
<trkpt lat="30.679201126" lon="34.931846619">
<ele>522.062500</ele>
<time>2013-11-22T11:24:09Z</time>
<speed>0.100000</speed>
<extensions>
<speed>0.1</speed>
<temp>0.00</temp>
<bpm>0</bpm>
<rpm>0.00</rpm>
</extensions>
</trkpt>
<trkpt lat="30.679201126" lon="34.931846619">
<ele>522.328125</ele>
<time>2013-11-22T11:24:14Z</time>
<speed>0.050000</speed>
<extensions>
<speed>0.1</speed>
<temp>0.00</temp>
<bpm>0</bpm>
<rpm>0.00</rpm>
</extensions>
</trkpt>
<trkpt lat="30.679201126" lon="34.931846619">
<ele>522.375000</ele>
<time>2013-11-22T11:24:19Z</time>
<speed>0.060000</speed>
<extensions>
<speed>0.1</speed>
<temp>0.00</temp>
<bpm>0</bpm>
<rpm>0.00</rpm>
</extensions>
</trkpt>
<trkpt lat="30.679195404" lon="34.931850433">
<ele>522.406250</ele>
<time>2013-11-22T11:24:24Z</time>
<speed>1.500000</speed>
<extensions>
<speed>1.5</speed>
<temp>0.00</temp>
<bpm>0</bpm>
<rpm>0.00</rpm>
</extensions>
</trkpt>
<trkpt lat="30.679105759" lon="34.931873322">
<ele>522.921875</ele>
<time>2013-11-22T11:24:29Z</time>
<speed>2.590000</speed>
<extensions>
<speed>2.6</speed>
<temp>0.00</temp>
<bpm>0</bpm>
<rpm>0.00</rpm>
</extensions>
</trkpt>
<trkpt lat="30.678997040" lon="34.931877136">
<ele>522.531250</ele>
<time>2013-11-22T11:24:34Z</time>
<speed>2.730000</speed>
<extensions>
<speed>2.7</speed>
<temp>0.00</temp>
<bpm>0</bpm>
<rpm>0.00</rpm>
</extensions>
</trkpt>
<trkpt lat="30.678867340" lon="34.931884766">
<ele>521.500000</ele>
<time>2013-11-22T11:24:39Z</time>
<speed>3.300000</speed>
<extensions>
<speed>3.3</speed>
<temp>0.00</temp>
<bpm>0</bpm>
<rpm>0.00</rpm>
</extensions>
</trkpt>
<trkpt lat="30.678703308" lon="34.931877136">
<ele>521.156250</ele>
<time>2013-11-22T11:24:44Z</time>
<speed>3.980000</speed>
<extensions>
<speed>4.0</speed>
<temp>0.00</temp>
<bpm>0</bpm>
<rpm>0.00</rpm>
</extensions>
</trkpt>
<trkpt lat="30.678552628" lon="34.931808472">
<ele>517.375000</ele>
<time>2013-11-22T11:24:49Z</time>
<speed>3.280000</speed>
<extensions>
<speed>3.3</speed>
<temp>0.00</temp>
<bpm>0</bpm>
<rpm>0.00</rpm>
</extensions>
</trkpt>
<trkpt lat="30.678472519" lon="34.931674957">
<ele>515.750000</ele>
<time>2013-11-22T11:24:54Z</time>
<speed>2.910000</speed>
<extensions>
<speed>2.9</speed>
<temp>0.00</temp>
<bpm>0</bpm>
<rpm>0.00</rpm>
</extensions>
</trkpt>
<trkpt lat="30.678405762" lon="34.931545258">
<ele>513.781250</ele>
<time>2013-11-22T11:24:59Z</time>
<speed>3.230000</speed>
<extensions>
<speed>3.2</speed>
<temp>0.00</temp>
<bpm>0</bpm>
<rpm>0.00</rpm>
</extensions>
</trkpt>
<trkpt lat="30.678266525" lon="34.931354523">
<ele>511.421875</ele>
<time>2013-11-22T11:25:04Z</time>
<speed>5.870000</speed>
<extensions>
<speed>5.9</speed>
<temp>0.00</temp>
<bpm>0</bpm>
<rpm>0.00</rpm>
</extensions>
</trkpt>
<trkpt lat="30.678142548" lon="34.931106567">
<ele>509.250000</ele>
<time>2013-11-22T11:25:09Z</time>
<speed>4.460000</speed>
<extensions>
<speed>4.5</speed>
<temp>0.00</temp>
<bpm>0</bpm>
<rpm>0.00</rpm>
</extensions>
</trkpt>
<trkpt lat="30.678195953" lon="34.930923462">
<ele>510.234375</ele>
<time>2013-11-22T11:25:14Z</time>
<speed>3.070000</speed>
<extensions>
<speed>3.1</speed>
<temp>0.00</temp>
<bpm>0</bpm>
<rpm>0.00</rpm>
</extensions>
</trkpt>
<trkpt lat="30.678281784" lon="34.930801392">
<ele>512.468750</ele>
<time>2013-11-22T11:25:19Z</time>
<speed>3.270000</speed>
<extensions>
<speed>3.3</speed>
<temp>0.00</temp>
<bpm>0</bpm>
<rpm>0.00</rpm>
</extensions>
</trkpt>
<trkpt lat="30.678356171" lon="34.930644989">
<ele>510.695313</ele>
<time>2013-11-22T11:25:24Z</time>
<speed>3.960000</speed>
<extensions>
<speed>4.0</speed>
<temp>0.00</temp>
<bpm>0</bpm>
<rpm>0.00</rpm>
</extensions>
</trkpt>
<trkpt lat="30.678462982" lon="34.930454254">
<ele>508.460938</ele>
<time>2013-11-22T11:25:29Z</time>
<speed>3.030000</speed>
<extensions>
<speed>3.0</speed>
<temp>0.00</temp>
<bpm>0</bpm>
<rpm>0.00</rpm>
</extensions>
</trkpt>
<trkpt lat="30.678567886" lon="34.930263519">
<ele>507.726563</ele>
<time>2013-11-22T11:25:34Z</time>
<speed>5.520000</speed>
<extensions>
<speed>5.5</speed>
<temp>0.00</temp>
<bpm>0</bpm>
<rpm>0.00</rpm>
</extensions>
</trkpt>
<trkpt lat="30.678621292" lon="34.930065155">
<ele>508.820313</ele>
<time>2013-11-22T11:25:39Z</time>
<speed>4.230000</speed>
<extensions>
<speed>4.2</speed>
<temp>0.00</temp>
<bpm>0</bpm>
<rpm>0.00</rpm>
</extensions>
</trkpt>
<trkpt lat="30.678651810" lon="34.929862976">
<ele>510.820313</ele>
<time>2013-11-22T11:25:44Z</time>
<speed>3.330000</speed>
<extensions>
<speed>3.3</speed>
<temp>0.00</temp>
<bpm>0</bpm>
<rpm>0.00</rpm>
</extensions>
</trkpt>
<trkpt lat="30.678665161" lon="34.929725647">
<ele>511.101563</ele>
<time>2013-11-22T11:25:49Z</time>
<speed>2.190000</speed>
<extensions>
<speed>2.2</speed>
<temp>0.00</temp>
<bpm>0</bpm>
<rpm>0.00</rpm>
</extensions>
</trkpt>
<trkpt lat="30.678701401" lon="34.929576874">
<ele>510.882813</ele>
<time>2013-11-22T11:25:54Z</time>
<speed>3.270000</speed>
<extensions>
<speed>3.3</speed>
<temp>0.00</temp>
<bpm>0</bpm>
<rpm>0.00</rpm>
</extensions>
</trkpt>
<trkpt lat="30.678726196" lon="34.929466248">
<ele>511.593750</ele>
<time>2013-11-22T11:25:59Z</time>
<speed>2.090000</speed>
<extensions>
<speed>2.1</speed>
<temp>0.00</temp>
<bpm>0</bpm>
<rpm>0.00</rpm>
</extensions>
</trkpt>
<trkpt lat="30.678743362" lon="34.929340363">
<ele>512.796875</ele>
<time>2013-11-22T11:26:04Z</time>
<speed>2.650000</speed>
<extensions>
<speed>2.6</speed>
<temp>0.00</temp>
<bpm>0</bpm>
<rpm>0.00</rpm>
</extensions>
</trkpt>
<trkpt lat="30.678775787" lon="34.929218292">
<ele>514.234375</ele>
<time>2013-11-22T11:26:09Z</time>
<speed>2.380000</speed>
<extensions>
<speed>2.4</speed>
<temp>0.00</temp>
<bpm>0</bpm>
<rpm>0.00</rpm>
</extensions>
</trkpt>
<trkpt lat="30.678731918" lon="34.929111481">
<ele>515.500000</ele>
<time>2013-11-22T11:26:14Z</time>
<speed>2.180000</speed>
<extensions>
<speed>2.2</speed>
<temp>0.00</temp>
<bpm>0</bpm>
<rpm>0.00</rpm>
</extensions>
</trkpt>
<trkpt lat="30.678695679" lon="34.929023743">
<ele>517.328125</ele>
<time>2013-11-22T11:26:19Z</time>
<speed>2.080000</speed>
<extensions>
<speed>2.1</speed>
<temp>0.00</temp>
<bpm>0</bpm>
<rpm>0.00</rpm>
</extensions>
</trkpt>
<trkpt lat="30.678602219" lon="34.928951263">
<ele>517.296875</ele>
<time>2013-11-22T11:26:24Z</time>
<speed>2.960000</speed>
<extensions>
<speed>3.0</speed>
<temp>0.00</temp>
<bpm>0</bpm>
<rpm>0.00</rpm>
</extensions>
</trkpt>
<trkpt lat="30.678455353" lon="34.928894043">
<ele>517.406250</ele>
<time>2013-11-22T11:26:29Z</time>
<speed>3.660000</speed>
<extensions>
<speed>3.7</speed>
<temp>0.00</temp>
<bpm>0</bpm>
<rpm>0.00</rpm>
</extensions>
</trkpt>
<trkpt lat="30.678276062" lon="34.928817749">
<ele>515.859375</ele>
<time>2013-11-22T11:26:34Z</time>
<speed>3.880000</speed>
<extensions>
<speed>3.9</speed>
<temp>0.00</temp>
<bpm>0</bpm>
<rpm>0.00</rpm>
</extensions>
</trkpt>
<trkpt lat="30.678085327" lon="34.928764343">
<ele>514.296875</ele>
<time>2013-11-22T11:26:39Z</time>
<speed>4.390000</speed>
<extensions>
<speed>4.4</speed>
<temp>0.00</temp>
<bpm>0</bpm>
<rpm>0.00</rpm>
</extensions>
</trkpt>
<trkpt lat="30.677909851" lon="34.928817749">
<ele>513.046875</ele>
<time>2013-11-22T11:26:44Z</time>
<speed>5.940000</speed>
<extensions>
<speed>5.9</speed>
<temp>0.00</temp>
<bpm>0</bpm>
<rpm>0.00</rpm>
</extensions>
</trkpt>
<trkpt lat="30.677732468" lon="34.928756714">
<ele>511.734375</ele>
<time>2013-11-22T11:26:49Z</time>
<speed>5.240000</speed>
<extensions>
<speed>5.2</speed>
<temp>0.00</temp>
<bpm>0</bpm>
<rpm>0.00</rpm>
</extensions>
</trkpt>
<trkpt lat="30.677633286" lon="34.928482056">
<ele>510.054688</ele>
<time>2013-11-22T11:26:54Z</time>
<speed>4.900000</speed>
<extensions>
<speed>4.9</speed>
<temp>0.00</temp>
<bpm>0</bpm>
<rpm>0.00</rpm>
</extensions>
</trkpt>
<trkpt lat="30.677759171" lon="34.928279877">
<ele>508.507813</ele>
<time>2013-11-22T11:26:59Z</time>
<speed>5.100000</speed>
<extensions>
<speed>5.1</speed>
<temp>0.00</temp>
<bpm>0</bpm>
<rpm>0.00</rpm>
</extensions>
</trkpt>
<trkpt lat="30.677879333" lon="34.928218842">
<ele>512.125000</ele>
<time>2013-11-22T11:27:04Z</time>
<speed>2.310000</speed>
<extensions>
<speed>2.3</speed>
<temp>0.00</temp>
<bpm>0</bpm>
<rpm>0.00</rpm>
</extensions>
</trkpt>
<trkpt lat="30.677947998" lon="34.928199768">
<ele>514.312500</ele>
<time>2013-11-22T11:27:09Z</time>
<speed>1.570000</speed>
<extensions>
<speed>1.6</speed>
<temp>0.00</temp>
<bpm>0</bpm>
<rpm>0.00</rpm>
</extensions>
</trkpt>
<trkpt lat="30.678007126" lon="34.928188324">
<ele>516.531250</ele>
<time>2013-11-22T11:27:14Z</time>
<speed>1.100000</speed>
<extensions>
<speed>1.1</speed>
<temp>0.00</temp>
<bpm>0</bpm>
<rpm>0.00</rpm>
</extensions>
</trkpt>
<trkpt lat="30.678073883" lon="34.928150177">
<ele>518.187500</ele>
<time>2013-11-22T11:27:19Z</time>
<speed>1.460000</speed>
<extensions>
<speed>1.5</speed>
<temp>0.00</temp>
<bpm>0</bpm>
<rpm>0.00</rpm>
</extensions>
</trkpt>
<trkpt lat="30.678131104" lon="34.928104401">
<ele>519.609375</ele>
<time>2013-11-22T11:27:24Z</time>
<speed>1.610000</speed>
<extensions>
<speed>1.6</speed>
<temp>0.00</temp>
<bpm>0</bpm>
<rpm>0.00</rpm>
</extensions>
</trkpt>
<trkpt lat="30.678190231" lon="34.928066254">
<ele>519.875000</ele>
<time>2013-11-22T11:27:29Z</time>
<speed>1.600000</speed>
<extensions>
<speed>1.6</speed>
<temp>0.00</temp>
<bpm>0</bpm>
<rpm>0.00</rpm>
</extensions>
</trkpt>
<trkpt lat="30.678243637" lon="34.928020477">
<ele>520.828125</ele>
<time>2013-11-22T11:27:34Z</time>
<speed>1.150000</speed>
<extensions>
<speed>1.1</speed>
<temp>0.00</temp>
<bpm>0</bpm>
<rpm>0.00</rpm>
</extensions>
</trkpt>
<trkpt lat="30.678308487" lon="34.927959442">
<ele>521.375000</ele>
<time>2013-11-22T11:27:39Z</time>
<speed>1.880000</speed>
<extensions>
<speed>1.9</speed>
<temp>0.00</temp>
<bpm>0</bpm>
<rpm>0.00</rpm>
</extensions>
</trkpt>
<trkpt lat="30.678371429" lon="34.927879333">
<ele>522.296875</ele>
<time>2013-11-22T11:27:44Z</time>
<speed>2.110000</speed>
<extensions>
<speed>2.1</speed>
<temp>0.00</temp>
<bpm>0</bpm>
<rpm>0.00</rpm>
</extensions>
</trkpt>
<trkpt lat="30.678419113" lon="34.927749634">
<ele>520.734375</ele>
<time>2013-11-22T11:27:49Z</time>
<speed>2.420000</speed>
<extensions>
<speed>2.4</speed>
<temp>0.00</temp>
<bpm>0</bpm>
<rpm>0.00</rpm>
</extensions>
</trkpt>
<trkpt lat="30.678466797" lon="34.927642822">
<ele>519.656250</ele>
<time>2013-11-22T11:27:54Z</time>
<speed>2.130000</speed>
<extensions>
<speed>2.1</speed>
<temp>0.00</temp>
<bpm>0</bpm>
<rpm>0.00</rpm>
</extensions>
</trkpt>
<trkpt lat="30.678398132" lon="34.927467346">
<ele>518.843750</ele>
<time>2013-11-22T11:27:59Z</time>
<speed>4.690000</speed>
<extensions>
<speed>4.7</speed>
<temp>0.00</temp>
<bpm>0</bpm>
<rpm>0.00</rpm>
</extensions>
</trkpt>
<trkpt lat="30.678342819" lon="34.927307129">
<ele>518.390625</ele>
<time>2013-11-22T11:28:04Z</time>
<speed>1.820000</speed>
<extensions>
<speed>1.8</speed>
<temp>0.00</temp>
<bpm>0</bpm>
<rpm>0.00</rpm>
</extensions>
</trkpt>
<trkpt lat="30.678300858" lon="34.927219391">
<ele>517.453125</ele>
<time>2013-11-22T11:28:09Z</time>
<speed>1.700000</speed>
<extensions>
<speed>1.7</speed>
<temp>0.00</temp>
<bpm>0</bpm>
<rpm>0.00</rpm>
</extensions>
</trkpt>
<trkpt lat="30.678274155" lon="34.927139282">
<ele>517.453125</ele>
<time>2013-11-22T11:28:14Z</time>
<speed>1.560000</speed>
<extensions>
<speed>1.6</speed>
<temp>0.00</temp>
<bpm>0</bpm>
<rpm>0.00</rpm>
</extensions>
</trkpt>
<trkpt lat="30.678272247" lon="34.927066803">
<ele>517.578125</ele>
<time>2013-11-22T11:28:19Z</time>
<speed>1.940000</speed>
<extensions>
<speed>1.9</speed>
<temp>0.00</temp>
<bpm>0</bpm>
<rpm>0.00</rpm>
</extensions>
</trkpt>
<trkpt lat="30.678291321" lon="34.926956177">
<ele>515.937500</ele>
<time>2013-11-22T11:28:24Z</time>
<speed>2.390000</speed>
<extensions>
<speed>2.4</speed>
<temp>0.00</temp>
<bpm>0</bpm>
<rpm>0.00</rpm>
</extensions>
</trkpt>
<trkpt lat="30.678346634" lon="34.926830292">
<ele>514.828125</ele>
<time>2013-11-22T11:28:29Z</time>
<speed>2.590000</speed>
<extensions>
<speed>2.6</speed>
<temp>0.00</temp>
<bpm>0</bpm>
<rpm>0.00</rpm>
</extensions>
</trkpt>
<trkpt lat="30.678405762" lon="34.926704407">
<ele>515.312500</ele>
<time>2013-11-22T11:28:34Z</time>
<speed>2.690000</speed>
<extensions>
<speed>2.7</speed>
<temp>0.00</temp>
<bpm>0</bpm>
<rpm>0.00</rpm>
</extensions>
</trkpt>
<trkpt lat="30.678464890" lon="34.926586151">
<ele>515.937500</ele>
<time>2013-11-22T11:28:39Z</time>
<speed>2.380000</speed>
<extensions>
<speed>2.4</speed>
<temp>0.00</temp>
<bpm>0</bpm>
<rpm>0.00</rpm>
</extensions>
</trkpt>
<trkpt lat="30.678508759" lon="34.926464081">
<ele>517.406250</ele>
<time>2013-11-22T11:28:44Z</time>
<speed>2.440000</speed>
<extensions>
<speed>2.4</speed>
<temp>0.00</temp>
<bpm>0</bpm>
<rpm>0.00</rpm>
</extensions>
</trkpt>
<trkpt lat="30.678564072" lon="34.926353455">
<ele>519.312500</ele>
<time>2013-11-22T11:28:49Z</time>
<speed>2.360000</speed>
<extensions>
<speed>2.4</speed>
<temp>0.00</temp>
<bpm>0</bpm>
<rpm>0.00</rpm>
</extensions>
</trkpt>
<trkpt lat="30.678607941" lon="34.926254272">
<ele>518.968750</ele>
<time>2013-11-22T11:28:54Z</time>
<speed>2.440000</speed>
<extensions>
<speed>2.4</speed>
<temp>0.00</temp>
<bpm>0</bpm>
<rpm>0.00</rpm>
</extensions>
</trkpt>
<trkpt lat="30.678665161" lon="34.926132202">
<ele>520.406250</ele>
<time>2013-11-22T11:28:59Z</time>
<speed>2.730000</speed>
<extensions>
<speed>2.7</speed>
<temp>0.00</temp>
<bpm>0</bpm>
<rpm>0.00</rpm>
</extensions>
</trkpt>
<trkpt lat="30.678670883" lon="34.925987244">
<ele>518.125000</ele>
<time>2013-11-22T11:29:04Z</time>
<speed>3.230000</speed>
<extensions>
<speed>3.2</speed>
<temp>0.00</temp>
<bpm>0</bpm>
<rpm>0.00</rpm>
</extensions>
</trkpt>
<trkpt lat="30.678689957" lon="34.925846100">
<ele>517.484375</ele>
<time>2013-11-22T11:29:09Z</time>
<speed>3.190000</speed>
<extensions>
<speed>3.2</speed>
<temp>0.00</temp>
<bpm>0</bpm>
<rpm>0.00</rpm>
</extensions>
</trkpt>
<trkpt lat="30.678716660" lon="34.925701141">
<ele>517.625000</ele>
<time>2013-11-22T11:29:14Z</time>
<speed>2.930000</speed>
<extensions>
<speed>2.9</speed>
<temp>0.00</temp>
<bpm>0</bpm>
<rpm>0.00</rpm>
</extensions>
</trkpt>
<trkpt lat="30.678718567" lon="34.925640106">
<ele>517.593750</ele>
<time>2013-11-22T11:29:19Z</time>
<speed>0.090000</speed>
<extensions>
<speed>0.1</speed>
<temp>0.00</temp>
<bpm>0</bpm>
<rpm>0.00</rpm>
</extensions>
</trkpt>
<trkpt lat="30.678716660" lon="34.925640106">
<ele>518.171875</ele>
<time>2013-11-22T11:29:24Z</time>
<extensions>
<speed>0.0</speed>
<temp>0.00</temp>
<bpm>0</bpm>
<rpm>0.00</rpm>
</extensions>
</trkpt>
<trkpt lat="30.678714752" lon="34.925640106">
<ele>518.218750</ele>
<time>2013-11-22T11:29:29Z</time>
<speed>0.080000</speed>
<extensions>
<speed>0.1</speed>
<temp>0.00</temp>
<bpm>0</bpm>
<rpm>0.00</rpm>
</extensions>
</trkpt>
<trkpt lat="30.678714752" lon="34.925632477">
<ele>518.265625</ele>
<time>2013-11-22T11:29:34Z</time>
<speed>1.820000</speed>
<extensions>
<speed>1.8</speed>
<temp>0.00</temp>
<bpm>0</bpm>
<rpm>0.00</rpm>
</extensions>
</trkpt>
<trkpt lat="30.678724289" lon="34.925525665">
<ele>517.562500</ele>
<time>2013-11-22T11:29:39Z</time>
<speed>2.620000</speed>
<extensions>
<speed>2.6</speed>
<temp>0.00</temp>
<bpm>0</bpm>
<rpm>0.00</rpm>
</extensions>
</trkpt>
<trkpt lat="30.678758621" lon="34.925376892">
<ele>516.687500</ele>
<time>2013-11-22T11:29:44Z</time>
<speed>1.930000</speed>
<extensions>
<speed>1.9</speed>
<temp>0.00</temp>
<bpm>0</bpm>
<rpm>0.00</rpm>
</extensions>
</trkpt>
<trkpt lat="30.678806305" lon="34.925270081">
<ele>517.781250</ele>
<time>2013-11-22T11:29:49Z</time>
<speed>2.070000</speed>
<extensions>
<speed>2.1</speed>
<temp>0.00</temp>
<bpm>0</bpm>
<rpm>0.00</rpm>
</extensions>
</trkpt>
<trkpt lat="30.678846359" lon="34.925193787">
<ele>519.000000</ele>
<time>2013-11-22T11:29:54Z</time>
<speed>1.910000</speed>
<extensions>
<speed>1.9</speed>
<temp>0.00</temp>
<bpm>0</bpm>
<rpm>0.00</rpm>
</extensions>
</trkpt>
<trkpt lat="30.678915024" lon="34.925113678">
<ele>522.484375</ele>
<time>2013-11-22T11:29:59Z</time>
<speed>2.300000</speed>
<extensions>
<speed>2.3</speed>
<temp>0.00</temp>
<bpm>0</bpm>
<rpm>0.00</rpm>
</extensions>
</trkpt>
<trkpt lat="30.678991318" lon="34.925037384">
<ele>523.296875</ele>
<time>2013-11-22T11:30:04Z</time>
<speed>2.150000</speed>
<extensions>
<speed>2.1</speed>
<temp>0.00</temp>
<bpm>0</bpm>
<rpm>0.00</rpm>
</extensions>
</trkpt>
<trkpt lat="30.679040909" lon="34.924949646">
<ele>525.343750</ele>
<time>2013-11-22T11:30:09Z</time>
<speed>1.840000</speed>
<extensions>
<speed>1.8</speed>
<temp>0.00</temp>
<bpm>0</bpm>
<rpm>0.00</rpm>
</extensions>
</trkpt>
<trkpt lat="30.679077148" lon="34.924877167">
<ele>525.500000</ele>
<time>2013-11-22T11:30:14Z</time>
<speed>2.580000</speed>
<extensions>
<speed>2.6</speed>
<temp>0.00</temp>
<bpm>0</bpm>
<rpm>0.00</rpm>
</extensions>
</trkpt>
<trkpt lat="30.679159164" lon="34.924774170">
<ele>526.328125</ele>
<time>2013-11-22T11:30:19Z</time>
<speed>0.530000</speed>
<extensions>
<speed>0.5</speed>
<temp>0.00</temp>
<bpm>0</bpm>
<rpm>0.00</rpm>
</extensions>
</trkpt>
<trkpt lat="30.679161072" lon="34.924766541">
<ele>526.828125</ele>
<time>2013-11-22T11:30:24Z</time>
<speed>0.720000</speed>
<extensions>
<speed>0.7</speed>
<temp>0.00</temp>
<bpm>0</bpm>
<rpm>0.00</rpm>
</extensions>
</trkpt>
<trkpt lat="30.679168701" lon="34.924762726">
<ele>526.765625</ele>
<time>2013-11-22T11:30:29Z</time>
<speed>0.340000</speed>
<extensions>
<speed>0.3</speed>
<temp>0.00</temp>
<bpm>0</bpm>
<rpm>0.00</rpm>
</extensions>
</trkpt>
<trkpt lat="30.679168701" lon="34.924755096">
<ele>526.734375</ele>
<time>2013-11-22T11:30:34Z</time>
<speed>0.030000</speed>
<extensions>
<speed>0.0</speed>
<temp>0.00</temp>
<bpm>0</bpm>
<rpm>0.00</rpm>
</extensions>
</trkpt>
<trkpt lat="30.679168701" lon="34.924758911">
<ele>526.718750</ele>
<time>2013-11-22T11:30:39Z</time>
<speed>0.020000</speed>
<extensions>
<speed>0.0</speed>
<temp>0.00</temp>
<bpm>0</bpm>
<rpm>0.00</rpm>
</extensions>
</trkpt>
<trkpt lat="30.679168701" lon="34.924758911">
<ele>526.656250</ele>
<time>2013-11-22T11:30:44Z</time>
<speed>0.010000</speed>
<extensions>
<speed>0.0</speed>
<temp>0.00</temp>
<bpm>0</bpm>
<rpm>0.00</rpm>
</extensions>
</trkpt>
<trkpt lat="30.679166794" lon="34.924758911">
<ele>526.625000</ele>
<time>2013-11-22T11:30:49Z</time>
<speed>0.060000</speed>
<extensions>
<speed>0.1</speed>
<temp>0.00</temp>
<bpm>0</bpm>
<rpm>0.00</rpm>
</extensions>
</trkpt>
<trkpt lat="30.679164886" lon="34.924762726">
<ele>526.640625</ele>
<time>2013-11-22T11:30:54Z</time>
<speed>0.090000</speed>
<extensions>
<speed>0.1</speed>
<temp>0.00</temp>
<bpm>0</bpm>
<rpm>0.00</rpm>
</extensions>
</trkpt>
<trkpt lat="30.679162979" lon="34.924766541">
<ele>526.640625</ele>
<time>2013-11-22T11:30:59Z</time>
<speed>0.020000</speed>
<extensions>
<speed>0.0</speed>
<temp>0.00</temp>
<bpm>0</bpm>
<rpm>0.00</rpm>
</extensions>
</trkpt>
<trkpt lat="30.679162979" lon="34.924766541">
<ele>526.609375</ele>
<time>2013-11-22T11:31:04Z</time>
<extensions>
<speed>0.0</speed>
<temp>0.00</temp>
<bpm>0</bpm>
<rpm>0.00</rpm>
</extensions>
</trkpt>
<trkpt lat="30.679162979" lon="34.924766541">
<ele>526.609375</ele>
<time>2013-11-22T11:31:09Z</time>
<extensions>
<speed>0.0</speed>
<temp>0.00</temp>
<bpm>0</bpm>
<rpm>0.00</rpm>
</extensions>
</trkpt>
<trkpt lat="30.679162979" lon="34.924766541">
<ele>526.625000</ele>
<time>2013-11-22T11:31:14Z</time>
<speed>0.010000</speed>
<extensions>
<speed>0.0</speed>
<temp>0.00</temp>
<bpm>0</bpm>
<rpm>0.00</rpm>
</extensions>
</trkpt>
<trkpt lat="30.679162979" lon="34.924766541">
<ele>526.640625</ele>
<time>2013-11-22T11:31:19Z</time>
<extensions>
<speed>0.0</speed>
<temp>0.00</temp>
<bpm>0</bpm>
<rpm>0.00</rpm>
</extensions>
</trkpt>
<trkpt lat="30.679162979" lon="34.924766541">
<ele>526.640625</ele>
<time>2013-11-22T11:31:24Z</time>
<speed>0.010000</speed>
<extensions>
<speed>0.0</speed>
<temp>0.00</temp>
<bpm>0</bpm>
<rpm>0.00</rpm>
</extensions>
</trkpt>
<trkpt lat="30.679162979" lon="34.924766541">
<ele>526.640625</ele>
<time>2013-11-22T11:31:29Z</time>
<speed>0.030000</speed>
<extensions>
<speed>0.0</speed>
<temp>0.00</temp>
<bpm>0</bpm>
<rpm>0.00</rpm>
</extensions>
</trkpt>
<trkpt lat="30.679161072" lon="34.924766541">
<ele>526.640625</ele>
<time>2013-11-22T11:31:34Z</time>
<extensions>
<speed>0.0</speed>
<temp>0.00</temp>
<bpm>0</bpm>
<rpm>0.00</rpm>
</extensions>
</trkpt>
<trkpt lat="30.679161072" lon="34.924766541">
<ele>526.671875</ele>
<time>2013-11-22T11:31:39Z</time>
<speed>0.020000</speed>
<extensions>
<speed>0.0</speed>
<temp>0.00</temp>
<bpm>0</bpm>
<rpm>0.00</rpm>
</extensions>
</trkpt>
<trkpt lat="30.679161072" lon="34.924766541">
<ele>526.687500</ele>
<time>2013-11-22T11:31:44Z</time>
<extensions>
<speed>0.0</speed>
<temp>0.00</temp>
<bpm>0</bpm>
<rpm>0.00</rpm>
</extensions>
</trkpt>
<trkpt lat="30.679161072" lon="34.924766541">
<ele>526.656250</ele>
<time>2013-11-22T11:31:49Z</time>
<extensions>
<speed>0.0</speed>
<temp>0.00</temp>
<bpm>0</bpm>
<rpm>0.00</rpm>
</extensions>
</trkpt>
<trkpt lat="30.679161072" lon="34.924766541">
<ele>526.671875</ele>
<time>2013-11-22T11:31:54Z</time>
<speed>0.020000</speed>
<extensions>
<speed>0.0</speed>
<temp>0.00</temp>
<bpm>0</bpm>
<rpm>0.00</rpm>
</extensions>
</trkpt>
<trkpt lat="30.679161072" lon="34.924766541">
<ele>526.687500</ele>
<time>2013-11-22T11:31:59Z</time>
<speed>0.010000</speed>
<extensions>
<speed>0.0</speed>
<temp>0.00</temp>
<bpm>0</bpm>
<rpm>0.00</rpm>
</extensions>
</trkpt>
<trkpt lat="30.679161072" lon="34.924766541">
<ele>526.718750</ele>
<time>2013-11-22T11:32:04Z</time>
<extensions>
<speed>0.0</speed>
<temp>0.00</temp>
<bpm>0</bpm>
<rpm>0.00</rpm>
</extensions>
</trkpt>
<trkpt lat="30.679161072" lon="34.924766541">
<ele>526.703125</ele>
<time>2013-11-22T11:32:09Z</time>
<extensions>
<speed>0.0</speed>
<temp>0.00</temp>
<bpm>0</bpm>
<rpm>0.00</rpm>
</extensions>
</trkpt>
<trkpt lat="30.679161072" lon="34.924766541">
<ele>526.718750</ele>
<time>2013-11-22T11:32:14Z</time>
<speed>0.010000</speed>
<extensions>
<speed>0.0</speed>
<temp>0.00</temp>
<bpm>0</bpm>
<rpm>0.00</rpm>
</extensions>
</trkpt>
<trkpt lat="30.679162979" lon="34.924766541">
<ele>526.734375</ele>
<time>2013-11-22T11:32:19Z</time>
<extensions>
<speed>0.0</speed>
<temp>0.00</temp>
<bpm>0</bpm>
<rpm>0.00</rpm>
</extensions>
</trkpt>
<trkpt lat="30.679162979" lon="34.924766541">
<ele>526.765625</ele>
<time>2013-11-22T11:32:24Z</time>
<extensions>
<speed>0.0</speed>
<temp>0.00</temp>
<bpm>0</bpm>
<rpm>0.00</rpm>
</extensions>
</trkpt>
<trkpt lat="30.679162979" lon="34.924766541">
<ele>526.812500</ele>
<time>2013-11-22T11:32:29Z</time>
<speed>0.010000</speed>
<extensions>
<speed>0.0</speed>
<temp>0.00</temp>
<bpm>0</bpm>
<rpm>0.00</rpm>
</extensions>
</trkpt>
<trkpt lat="30.679162979" lon="34.924766541">
<ele>526.843750</ele>
<time>2013-11-22T11:32:34Z</time>
<extensions>
<speed>0.0</speed>
<temp>0.00</temp>
<bpm>0</bpm>
<rpm>0.00</rpm>
</extensions>
</trkpt>
<trkpt lat="30.679162979" lon="34.924766541">
<ele>526.843750</ele>
<time>2013-11-22T11:32:39Z</time>
<extensions>
<speed>0.0</speed>
<temp>0.00</temp>
<bpm>0</bpm>
<rpm>0.00</rpm>
</extensions>
</trkpt>
<trkpt lat="30.679162979" lon="34.924762726">
<ele>526.875000</ele>
<time>2013-11-22T11:32:44Z</time>
<speed>1.680000</speed>
<extensions>
<speed>1.7</speed>
<temp>0.00</temp>
<bpm>0</bpm>
<rpm>0.00</rpm>
</extensions>
</trkpt>
<trkpt lat="30.679159164" lon="34.924652100">
<ele>526.000000</ele>
<time>2013-11-22T11:32:49Z</time>
<speed>1.590000</speed>
<extensions>
<speed>1.6</speed>
<temp>0.00</temp>
<bpm>0</bpm>
<rpm>0.00</rpm>
</extensions>
</trkpt>
<trkpt lat="30.679079056" lon="34.924640656">
<ele>526.046875</ele>
<time>2013-11-22T11:32:54Z</time>
<speed>2.320000</speed>
<extensions>
<speed>2.3</speed>
<temp>0.00</temp>
<bpm>0</bpm>
<rpm>0.00</rpm>
</extensions>
</trkpt>
<trkpt lat="30.678974152" lon="34.924659729">
<ele>527.031250</ele>
<time>2013-11-22T11:32:59Z</time>
<speed>3.020000</speed>
<extensions>
<speed>3.0</speed>
<temp>0.00</temp>
<bpm>0</bpm>
<rpm>0.00</rpm>
</extensions>
</trkpt>
<trkpt lat="30.678850174" lon="34.924701691">
<ele>525.875000</ele>
<time>2013-11-22T11:33:04Z</time>
<speed>4.410000</speed>
<extensions>
<speed>4.4</speed>
<temp>0.00</temp>
<bpm>0</bpm>
<rpm>0.00</rpm>
</extensions>
</trkpt>
<trkpt lat="30.678565979" lon="34.924709320">
<ele>521.500000</ele>
<time>2013-11-22T11:33:09Z</time>
<speed>8.090000</speed>
<extensions>
<speed>8.1</speed>
<temp>0.00</temp>
<bpm>0</bpm>
<rpm>0.00</rpm>
</extensions>
</trkpt>
<trkpt lat="30.678167343" lon="34.924694061">
<ele>520.156250</ele>
<time>2013-11-22T11:33:14Z</time>
<speed>8.550000</speed>
<extensions>
<speed>8.6</speed>
<temp>0.00</temp>
<bpm>0</bpm>
<rpm>0.00</rpm>
</extensions>
</trkpt>
<trkpt lat="30.677804947" lon="34.924682617">
<ele>520.843750</ele>
<time>2013-11-22T11:33:19Z</time>
<speed>7.080000</speed>
<extensions>
<speed>7.1</speed>
<temp>0.00</temp>
<bpm>0</bpm>
<rpm>0.00</rpm>
</extensions>
</trkpt>
<trkpt lat="30.677539825" lon="34.924663544">
<ele>521.421875</ele>
<time>2013-11-22T11:33:24Z</time>
<speed>2.990000</speed>
<extensions>
<speed>3.0</speed>
<temp>0.00</temp>
<bpm>0</bpm>
<rpm>0.00</rpm>
</extensions>
</trkpt>
<trkpt lat="30.677419662" lon="34.924648285">
<ele>521.140625</ele>
<time>2013-11-22T11:33:29Z</time>
<speed>2.980000</speed>
<extensions>
<speed>3.0</speed>
<temp>0.00</temp>
<bpm>0</bpm>
<rpm>0.00</rpm>
</extensions>
</trkpt>
<trkpt lat="30.677282333" lon="34.924629211">
<ele>521.140625</ele>
<time>2013-11-22T11:33:34Z</time>
<speed>3.230000</speed>
<extensions>
<speed>3.2</speed>
<temp>0.00</temp>
<bpm>0</bpm>
<rpm>0.00</rpm>
</extensions>
</trkpt>
<trkpt lat="30.677135468" lon="34.924610138">
<ele>521.109375</ele>
<time>2013-11-22T11:33:39Z</time>
<speed>3.300000</speed>
<extensions>
<speed>3.3</speed>
<temp>0.00</temp>
<bpm>0</bpm>
<rpm>0.00</rpm>
</extensions>
</trkpt>
<trkpt lat="30.676977158" lon="34.924579620">
<ele>520.750000</ele>
<time>2013-11-22T11:33:44Z</time>
<speed>3.880000</speed>
<extensions>
<speed>3.9</speed>
<temp>0.00</temp>
<bpm>0</bpm>
<rpm>0.00</rpm>
</extensions>
</trkpt>
<trkpt lat="30.676773071" lon="34.924556732">
<ele>519.078125</ele>
<time>2013-11-22T11:33:49Z</time>
<speed>5.480000</speed>
<extensions>
<speed>5.5</speed>
<temp>0.00</temp>
<bpm>0</bpm>
<rpm>0.00</rpm>
</extensions>
</trkpt>
<trkpt lat="30.676502228" lon="34.924575806">
<ele>518.046875</ele>
<time>2013-11-22T11:33:54Z</time>
<speed>5.700000</speed>
<extensions>
<speed>5.7</speed>
<temp>0.00</temp>
<bpm>0</bpm>
<rpm>0.00</rpm>
</extensions>
</trkpt>
<trkpt lat="30.676307678" lon="34.924583435">
<ele>519.109375</ele>
<time>2013-11-22T11:33:59Z</time>
<speed>3.530000</speed>
<extensions>
<speed>3.5</speed>
<temp>0.00</temp>
<bpm>0</bpm>
<rpm>0.00</rpm>
</extensions>
</trkpt>
<trkpt lat="30.676155090" lon="34.924575806">
<ele>519.203125</ele>
<time>2013-11-22T11:34:04Z</time>
<speed>3.040000</speed>
<extensions>
<speed>3.0</speed>
<temp>0.00</temp>
<bpm>0</bpm>
<rpm>0.00</rpm>
</extensions>
</trkpt>
<trkpt lat="30.676031113" lon="34.924587250">
<ele>519.171875</ele>
<time>2013-11-22T11:34:09Z</time>
<speed>2.600000</speed>
<extensions>
<speed>2.6</speed>
<temp>0.00</temp>
<bpm>0</bpm>
<rpm>0.00</rpm>
</extensions>
</trkpt>
<trkpt lat="30.675886154" lon="34.924606323">
<ele>520.750000</ele>
<time>2013-11-22T11:34:14Z</time>
<speed>4.450000</speed>
<extensions>
<speed>4.5</speed>
<temp>0.00</temp>
<bpm>0</bpm>
<rpm>0.00</rpm>
</extensions>
</trkpt>
<trkpt lat="30.675697327" lon="34.924621582">
<ele>521.578125</ele>
<time>2013-11-22T11:34:19Z</time>
<speed>4.690000</speed>
<extensions>
<speed>4.7</speed>
<temp>0.00</temp>
<bpm>0</bpm>
<rpm>0.00</rpm>
</extensions>
</trkpt>
<trkpt lat="30.675483704" lon="34.924640656">
<ele>521.609375</ele>
<time>2013-11-22T11:34:24Z</time>
<speed>4.800000</speed>
<extensions>
<speed>4.8</speed>
<temp>0.00</temp>
<bpm>0</bpm>
<rpm>0.00</rpm>
</extensions>
</trkpt>
<trkpt lat="30.675258636" lon="34.924659729">
<ele>521.125000</ele>
<time>2013-11-22T11:34:29Z</time>
<speed>5.190000</speed>
<extensions>
<speed>5.2</speed>
<temp>0.00</temp>
<bpm>0</bpm>
<rpm>0.00</rpm>
</extensions>
</trkpt>
<trkpt lat="30.675016403" lon="34.924686432">
<ele>519.953125</ele>
<time>2013-11-22T11:34:34Z</time>
<speed>5.980000</speed>
<extensions>
<speed>6.0</speed>
<temp>0.00</temp>
<bpm>0</bpm>
<rpm>0.00</rpm>
</extensions>
</trkpt>
<trkpt lat="30.674707413" lon="34.924713135">
<ele>517.625000</ele>
<time>2013-11-22T11:34:39Z</time>
<speed>6.700000</speed>
<extensions>
<speed>6.7</speed>
<temp>0.00</temp>
<bpm>0</bpm>
<rpm>0.00</rpm>
</extensions>
</trkpt>
<trkpt lat="30.674419403" lon="34.924736023">
<ele>516.265625</ele>
<time>2013-11-22T11:34:44Z</time>
<speed>6.430000</speed>
<extensions>
<speed>6.4</speed>
<temp>0.00</temp>
<bpm>0</bpm>
<rpm>0.00</rpm>
</extensions>
</trkpt>
<trkpt lat="30.674114227" lon="34.924758911">
<ele>515.281250</ele>
<time>2013-11-22T11:34:49Z</time>
<speed>7.080000</speed>
<extensions>
<speed>7.1</speed>
<temp>0.00</temp>
<bpm>0</bpm>
<rpm>0.00</rpm>
</extensions>
</trkpt>
<trkpt lat="30.673830032" lon="34.924777985">
<ele>513.593750</ele>
<time>2013-11-22T11:34:54Z</time>
<speed>5.550000</speed>
<extensions>
<speed>5.5</speed>
<temp>0.00</temp>
<bpm>0</bpm>
<rpm>0.00</rpm>
</extensions>
</trkpt>
<trkpt lat="30.673624039" lon="34.924797058">
<ele>513.968750</ele>
<time>2013-11-22T11:34:59Z</time>
<speed>4.990000</speed>
<extensions>
<speed>5.0</speed>
<temp>0.00</temp>
<bpm>0</bpm>
<rpm>0.00</rpm>
</extensions>
</trkpt>
<trkpt lat="30.673398972" lon="34.924823761">
<ele>513.937500</ele>
<time>2013-11-22T11:35:04Z</time>
<speed>4.790000</speed>
<extensions>
<speed>4.8</speed>
<temp>0.00</temp>
<bpm>0</bpm>
<rpm>0.00</rpm>
</extensions>
</trkpt>
<trkpt lat="30.673189163" lon="34.924846649">
<ele>514.921875</ele>
<time>2013-11-22T11:35:09Z</time>
<speed>4.890000</speed>
<extensions>
<speed>4.9</speed>
<temp>0.00</temp>
<bpm>0</bpm>
<rpm>0.00</rpm>
</extensions>
</trkpt>
<trkpt lat="30.672964096" lon="34.924888611">
<ele>514.609375</ele>
<time>2013-11-22T11:35:14Z</time>
<speed>4.180000</speed>
<extensions>
<speed>4.2</speed>
<temp>0.00</temp>
<bpm>0</bpm>
<rpm>0.00</rpm>
</extensions>
</trkpt>
<trkpt lat="30.672767639" lon="34.924915314">
<ele>514.765625</ele>
<time>2013-11-22T11:35:19Z</time>
<speed>2.080000</speed>
<extensions>
<speed>2.1</speed>
<temp>0.00</temp>
<bpm>0</bpm>
<rpm>0.00</rpm>
</extensions>
</trkpt>
<trkpt lat="30.672693253" lon="34.924922943">
<ele>514.562500</ele>
<time>2013-11-22T11:35:24Z</time>
<speed>0.060000</speed>
<extensions>
<speed>0.1</speed>
<temp>0.00</temp>
<bpm>0</bpm>
<rpm>0.00</rpm>
</extensions>
</trkpt>
<trkpt lat="30.672689438" lon="34.924919128">
<ele>512.000000</ele>
<time>2013-11-22T11:35:29Z</time>
<extensions>
<speed>0.0</speed>
<temp>0.00</temp>
<bpm>0</bpm>
<rpm>0.00</rpm>
</extensions>
</trkpt>
<trkpt lat="30.672679901" lon="34.924915314">
<ele>512.015625</ele>
<time>2013-11-22T11:35:34Z</time>
<speed>1.420000</speed>
<extensions>
<speed>1.4</speed>
<temp>0.00</temp>
<bpm>0</bpm>
<rpm>0.00</rpm>
</extensions>
</trkpt>
<trkpt lat="30.672555923" lon="34.924922943">
<ele>511.882813</ele>
<time>2013-11-22T11:35:39Z</time>
<speed>3.980000</speed>
<extensions>
<speed>4.0</speed>
<temp>0.00</temp>
<bpm>0</bpm>
<rpm>0.00</rpm>
</extensions>
</trkpt>
<trkpt lat="30.672372818" lon="34.924949646">
<ele>511.507813</ele>
<time>2013-11-22T11:35:44Z</time>
<speed>3.860000</speed>
<extensions>
<speed>3.9</speed>
<temp>0.00</temp>
<bpm>0</bpm>
<rpm>0.00</rpm>
</extensions>
</trkpt>
<trkpt lat="30.672168732" lon="34.924980164">
<ele>511.234375</ele>
<time>2013-11-22T11:35:49Z</time>
<speed>4.510000</speed>
<extensions>
<speed>4.5</speed>
<temp>0.00</temp>
<bpm>0</bpm>
<rpm>0.00</rpm>
</extensions>
</trkpt>
<trkpt lat="30.671974182" lon="34.925014496">
<ele>510.640625</ele>
<time>2013-11-22T11:35:54Z</time>
<speed>4.350000</speed>
<extensions>
<speed>4.3</speed>
<temp>0.00</temp>
<bpm>0</bpm>
<rpm>0.00</rpm>
</extensions>
</trkpt>
<trkpt lat="30.671760559" lon="34.925045013">
<ele>514.453125</ele>
<time>2013-11-22T11:35:59Z</time>
<speed>5.030000</speed>
<extensions>
<speed>5.0</speed>
<temp>0.00</temp>
<bpm>0</bpm>
<rpm>0.00</rpm>
</extensions>
</trkpt>
<trkpt lat="30.671567917" lon="34.925052643">
<ele>513.750000</ele>
<time>2013-11-22T11:36:04Z</time>
<speed>4.260000</speed>
<extensions>
<speed>4.3</speed>
<temp>0.00</temp>
<bpm>0</bpm>
<rpm>0.00</rpm>
</extensions>
</trkpt>
<trkpt lat="30.671352386" lon="34.925064087">
<ele>514.515625</ele>
<time>2013-11-22T11:36:09Z</time>
<speed>4.470000</speed>
<extensions>
<speed>4.5</speed>
<temp>0.00</temp>
<bpm>0</bpm>
<rpm>0.00</rpm>
</extensions>
</trkpt>
<trkpt lat="30.671136856" lon="34.925071716">
<ele>513.593750</ele>
<time>2013-11-22T11:36:14Z</time>
<speed>4.870000</speed>
<extensions>
<speed>4.9</speed>
<temp>0.00</temp>
<bpm>0</bpm>
<rpm>0.00</rpm>
</extensions>
</trkpt>
<trkpt lat="30.670921326" lon="34.925090790">
<ele>512.687500</ele>
<time>2013-11-22T11:36:19Z</time>
<speed>4.800000</speed>
<extensions>
<speed>4.8</speed>
<temp>0.00</temp>
<bpm>0</bpm>
<rpm>0.00</rpm>
</extensions>
</trkpt>
<trkpt lat="30.670675278" lon="34.925121307">
<ele>511.062500</ele>
<time>2013-11-22T11:36:24Z</time>
<speed>6.400000</speed>
<extensions>
<speed>6.4</speed>
<temp>0.00</temp>
<bpm>0</bpm>
<rpm>0.00</rpm>
</extensions>
</trkpt>
<trkpt lat="30.670410156" lon="34.925151825">
<ele>509.304688</ele>
<time>2013-11-22T11:36:29Z</time>
<speed>5.830000</speed>
<extensions>
<speed>5.8</speed>
<temp>0.00</temp>
<bpm>0</bpm>
<rpm>0.00</rpm>
</extensions>
</trkpt>
<trkpt lat="30.670148849" lon="34.925186157">
<ele>507.968750</ele>
<time>2013-11-22T11:36:34Z</time>
<speed>5.470000</speed>
<extensions>
<speed>5.5</speed>
<temp>0.00</temp>
<bpm>0</bpm>
<rpm>0.00</rpm>
</extensions>
</trkpt>
<trkpt lat="30.669921875" lon="34.925216675">
<ele>507.226563</ele>
<time>2013-11-22T11:36:39Z</time>
<speed>4.800000</speed>
<extensions>
<speed>4.8</speed>
<temp>0.00</temp>
<bpm>0</bpm>
<rpm>0.00</rpm>
</extensions>
</trkpt>
<trkpt lat="30.669700623" lon="34.925231934">
<ele>505.781250</ele>
<time>2013-11-22T11:36:44Z</time>
<speed>4.890000</speed>
<extensions>
<speed>4.9</speed>
<temp>0.00</temp>
<bpm>0</bpm>
<rpm>0.00</rpm>
</extensions>
</trkpt>
<trkpt lat="30.669490814" lon="34.925228119">
<ele>503.203125</ele>
<time>2013-11-22T11:36:49Z</time>
<speed>4.590000</speed>
<extensions>
<speed>4.6</speed>
<temp>0.00</temp>
<bpm>0</bpm>
<rpm>0.00</rpm>
</extensions>
</trkpt>
<trkpt lat="30.669292450" lon="34.925254822">
<ele>502.085938</ele>
<time>2013-11-22T11:36:54Z</time>
<speed>4.340000</speed>
<extensions>
<speed>4.3</speed>
<temp>0.00</temp>
<bpm>0</bpm>
<rpm>0.00</rpm>
</extensions>
</trkpt>
<trkpt lat="30.669145584" lon="34.925281525">
<ele>501.718750</ele>
<time>2013-11-22T11:36:59Z</time>
<speed>3.100000</speed>
<extensions>
<speed>3.1</speed>
<temp>0.00</temp>
<bpm>0</bpm>
<rpm>0.00</rpm>
</extensions>
</trkpt>
<trkpt lat="30.669033051" lon="34.925296783">
<ele>501.531250</ele>
<time>2013-11-22T11:37:04Z</time>
<speed>2.640000</speed>
<extensions>
<speed>2.6</speed>
<temp>0.00</temp>
<bpm>0</bpm>
<rpm>0.00</rpm>
</extensions>
</trkpt>
<trkpt lat="30.668886185" lon="34.925312042">
<ele>501.679688</ele>
<time>2013-11-22T11:37:09Z</time>
<speed>3.800000</speed>
<extensions>
<speed>3.8</speed>
<temp>0.00</temp>
<bpm>0</bpm>
<rpm>0.00</rpm>
</extensions>
</trkpt>
<trkpt lat="30.668706894" lon="34.925331116">
<ele>501.109375</ele>
<time>2013-11-22T11:37:14Z</time>
<speed>3.950000</speed>
<extensions>
<speed>4.0</speed>
<temp>0.00</temp>
<bpm>0</bpm>
<rpm>0.00</rpm>
</extensions>
</trkpt>
<trkpt lat="30.668537140" lon="34.925350189">
<ele>501.203125</ele>
<time>2013-11-22T11:37:19Z</time>
<speed>4.100000</speed>
<extensions>
<speed>4.1</speed>
<temp>0.00</temp>
<bpm>0</bpm>
<rpm>0.00</rpm>
</extensions>
</trkpt>
<trkpt lat="30.668333054" lon="34.925380707">
<ele>502.351563</ele>
<time>2013-11-22T11:37:24Z</time>
<speed>4.900000</speed>
<extensions>
<speed>4.9</speed>
<temp>0.00</temp>
<bpm>0</bpm>
<rpm>0.00</rpm>
</extensions>
</trkpt>
<trkpt lat="30.668134689" lon="34.925407410">
<ele>504.015625</ele>
<time>2013-11-22T11:37:29Z</time>
<speed>4.670000</speed>
<extensions>
<speed>4.7</speed>
<temp>0.00</temp>
<bpm>0</bpm>
<rpm>0.00</rpm>
</extensions>
</trkpt>
<trkpt lat="30.667909622" lon="34.925437927">
<ele>503.109375</ele>
<time>2013-11-22T11:37:34Z</time>
<speed>5.070000</speed>
<extensions>
<speed>5.1</speed>
<temp>0.00</temp>
<bpm>0</bpm>
<rpm>0.00</rpm>
</extensions>
</trkpt>
<trkpt lat="30.667686462" lon="34.925472260">
<ele>501.710938</ele>
<time>2013-11-22T11:37:39Z</time>
<speed>5.100000</speed>
<extensions>
<speed>5.1</speed>
<temp>0.00</temp>
<bpm>0</bpm>
<rpm>0.00</rpm>
</extensions>
</trkpt>
<trkpt lat="30.667453766" lon="34.925498962">
<ele>499.726563</ele>
<time>2013-11-22T11:37:44Z</time>
<speed>5.380000</speed>
<extensions>
<speed>5.4</speed>
<temp>0.00</temp>
<bpm>0</bpm>
<rpm>0.00</rpm>
</extensions>
</trkpt>
<trkpt lat="30.667219162" lon="34.925525665">
<ele>498.414063</ele>
<time>2013-11-22T11:37:49Z</time>
<speed>4.890000</speed>
<extensions>
<speed>4.9</speed>
<temp>0.00</temp>
<bpm>0</bpm>
<rpm>0.00</rpm>
</extensions>
</trkpt>
<trkpt lat="30.666997910" lon="34.925548553">
<ele>498.515625</ele>
<time>2013-11-22T11:37:54Z</time>
<speed>5.500000</speed>
<extensions>
<speed>5.5</speed>
<temp>0.00</temp>
<bpm>0</bpm>
<rpm>0.00</rpm>
</extensions>
</trkpt>
<trkpt lat="30.666767120" lon="34.925586700">
<ele>497.562500</ele>
<time>2013-11-22T11:37:59Z</time>
<speed>4.430000</speed>
<extensions>
<speed>4.4</speed>
<temp>0.00</temp>
<bpm>0</bpm>
<rpm>0.00</rpm>
</extensions>
</trkpt>
<trkpt lat="30.666574478" lon="34.925609589">
<ele>496.664063</ele>
<time>2013-11-22T11:38:04Z</time>
<speed>4.050000</speed>
<extensions>
<speed>4.0</speed>
<temp>0.00</temp>
<bpm>0</bpm>
<rpm>0.00</rpm>
</extensions>
</trkpt>
<trkpt lat="30.666404724" lon="34.925628662">
<ele>496.648438</ele>
<time>2013-11-22T11:38:09Z</time>
<speed>3.850000</speed>
<extensions>
<speed>3.8</speed>
<temp>0.00</temp>
<bpm>0</bpm>
<rpm>0.00</rpm>
</extensions>
</trkpt>
<trkpt lat="30.666267395" lon="34.925640106">
<ele>495.984375</ele>
<time>2013-11-22T11:38:14Z</time>
<speed>2.200000</speed>
<extensions>
<speed>2.2</speed>
<temp>0.00</temp>
<bpm>0</bpm>
<rpm>0.00</rpm>
</extensions>
</trkpt>
<trkpt lat="30.666183472" lon="34.925643921">
<ele>494.757813</ele>
<time>2013-11-22T11:38:19Z</time>
<speed>1.480000</speed>
<extensions>
<speed>1.5</speed>
<temp>0.00</temp>
<bpm>0</bpm>
<rpm>0.00</rpm>
</extensions>
</trkpt>
<trkpt lat="30.666116714" lon="34.925643921">
<ele>494.718750</ele>
<time>2013-11-22T11:38:24Z</time>
<speed>1.650000</speed>
<extensions>
<speed>1.7</speed>
<temp>0.00</temp>
<bpm>0</bpm>
<rpm>0.00</rpm>
</extensions>
</trkpt>
<trkpt lat="30.666051865" lon="34.925647736">
<ele>494.976563</ele>
<time>2013-11-22T11:38:29Z</time>
<speed>1.730000</speed>
<extensions>
<speed>1.7</speed>
<temp>0.00</temp>
<bpm>0</bpm>
<rpm>0.00</rpm>
</extensions>
</trkpt>
<trkpt lat="30.665987015" lon="34.925655365">
<ele>495.578125</ele>
<time>2013-11-22T11:38:34Z</time>
<speed>1.540000</speed>
<extensions>
<speed>1.5</speed>
<temp>0.00</temp>
<bpm>0</bpm>
<rpm>0.00</rpm>
</extensions>
</trkpt>
<trkpt lat="30.665897369" lon="34.925659180">
<ele>495.445313</ele>
<time>2013-11-22T11:38:39Z</time>
<speed>2.590000</speed>
<extensions>
<speed>2.6</speed>
<temp>0.00</temp>
<bpm>0</bpm>
<rpm>0.00</rpm>
</extensions>
</trkpt>
<trkpt lat="30.665800095" lon="34.925682068">
<ele>494.898438</ele>
<time>2013-11-22T11:38:44Z</time>
<speed>2.300000</speed>
<extensions>
<speed>2.3</speed>
<temp>0.00</temp>
<bpm>0</bpm>
<rpm>0.00</rpm>
</extensions>
</trkpt>
<trkpt lat="30.665676117" lon="34.925682068">
<ele>494.195313</ele>
<time>2013-11-22T11:38:49Z</time>
<speed>3.010000</speed>
<extensions>
<speed>3.0</speed>
<temp>0.00</temp>
<bpm>0</bpm>
<rpm>0.00</rpm>
</extensions>
</trkpt>
<trkpt lat="30.665517807" lon="34.925685883">
<ele>493.289063</ele>
<time>2013-11-22T11:38:54Z</time>
<speed>3.570000</speed>
<extensions>
<speed>3.6</speed>
<temp>0.00</temp>
<bpm>0</bpm>
<rpm>0.00</rpm>
</extensions>
</trkpt>
<trkpt lat="30.665332794" lon="34.925685883">
<ele>491.882813</ele>
<time>2013-11-22T11:38:59Z</time>
<speed>4.410000</speed>
<extensions>
<speed>4.4</speed>
<temp>0.00</temp>
<bpm>0</bpm>
<rpm>0.00</rpm>
</extensions>
</trkpt>
<trkpt lat="30.665107727" lon="34.925685883">
<ele>491.312500</ele>
<time>2013-11-22T11:39:04Z</time>
<speed>5.130000</speed>
<extensions>
<speed>5.1</speed>
<temp>0.00</temp>
<bpm>0</bpm>
<rpm>0.00</rpm>
</extensions>
</trkpt>
<trkpt lat="30.664876938" lon="34.925685883">
<ele>490.867188</ele>
<time>2013-11-22T11:39:09Z</time>
<speed>5.390000</speed>
<extensions>
<speed>5.4</speed>
<temp>0.00</temp>
<bpm>0</bpm>
<rpm>0.00</rpm>
</extensions>
</trkpt>
<trkpt lat="30.664625168" lon="34.925678253">
<ele>490.664063</ele>
<time>2013-11-22T11:39:14Z</time>
<speed>5.290000</speed>
<extensions>
<speed>5.3</speed>
<temp>0.00</temp>
<bpm>0</bpm>
<rpm>0.00</rpm>
</extensions>
</trkpt>
<trkpt lat="30.664400101" lon="34.925678253">
<ele>490.664063</ele>
<time>2013-11-22T11:39:19Z</time>
<speed>4.820000</speed>
<extensions>
<speed>4.8</speed>
<temp>0.00</temp>
<bpm>0</bpm>
<rpm>0.00</rpm>
</extensions>
</trkpt>
<trkpt lat="30.664154053" lon="34.925685883">
<ele>489.742188</ele>
<time>2013-11-22T11:39:24Z</time>
<speed>5.590000</speed>
<extensions>
<speed>5.6</speed>
<temp>0.00</temp>
<bpm>0</bpm>
<rpm>0.00</rpm>
</extensions>
</trkpt>
<trkpt lat="30.663911819" lon="34.925670624">
<ele>490.109375</ele>
<time>2013-11-22T11:39:29Z</time>
<speed>5.820000</speed>
<extensions>
<speed>5.8</speed>
<temp>0.00</temp>
<bpm>0</bpm>
<rpm>0.00</rpm>
</extensions>
</trkpt>
<trkpt lat="30.663682938" lon="34.925666809">
<ele>490.625000</ele>
<time>2013-11-22T11:39:34Z</time>
<speed>5.300000</speed>
<extensions>
<speed>5.3</speed>
<temp>0.00</temp>
<bpm>0</bpm>
<rpm>0.00</rpm>
</extensions>
</trkpt>
<trkpt lat="30.663429260" lon="34.925659180">
<ele>490.843750</ele>
<time>2013-11-22T11:39:39Z</time>
<speed>5.780000</speed>
<extensions>
<speed>5.8</speed>
<temp>0.00</temp>
<bpm>0</bpm>
<rpm>0.00</rpm>
</extensions>
</trkpt>
<trkpt lat="30.663181305" lon="34.925651550">
<ele>491.757813</ele>
<time>2013-11-22T11:39:44Z</time>
<speed>5.170000</speed>
<extensions>
<speed>5.2</speed>
<temp>0.00</temp>
<bpm>0</bpm>
<rpm>0.00</rpm>
</extensions>
</trkpt>
<trkpt lat="30.662939072" lon="34.925655365">
<ele>491.703125</ele>
<time>2013-11-22T11:39:49Z</time>
<speed>5.380000</speed>
<extensions>
<speed>5.4</speed>
<temp>0.00</temp>
<bpm>0</bpm>
<rpm>0.00</rpm>
</extensions>
</trkpt>
<trkpt lat="30.662715912" lon="34.925670624">
<ele>492.070313</ele>
<time>2013-11-22T11:39:54Z</time>
<speed>5.220000</speed>
<extensions>
<speed>5.2</speed>
<temp>0.00</temp>
<bpm>0</bpm>
<rpm>0.00</rpm>
</extensions>
</trkpt>
<trkpt lat="30.662477493" lon="34.925655365">
<ele>493.195313</ele>
<time>2013-11-22T11:39:59Z</time>
<speed>4.990000</speed>
<extensions>
<speed>5.0</speed>
<temp>0.00</temp>
<bpm>0</bpm>
<rpm>0.00</rpm>
</extensions>
</trkpt>
<trkpt lat="30.662298203" lon="34.925636292">
<ele>494.476563</ele>
<time>2013-11-22T11:40:04Z</time>
<speed>3.280000</speed>
<extensions>
<speed>3.3</speed>
<temp>0.00</temp>
<bpm>0</bpm>
<rpm>0.00</rpm>
</extensions>
</trkpt>
<trkpt lat="30.662143707" lon="34.925659180">
<ele>493.351563</ele>
<time>2013-11-22T11:40:09Z</time>
<speed>3.840000</speed>
<extensions>
<speed>3.8</speed>
<temp>0.00</temp>
<bpm>0</bpm>
<rpm>0.00</rpm>
</extensions>
</trkpt>
<trkpt lat="30.661899567" lon="34.925640106">
<ele>486.703125</ele>
<time>2013-11-22T11:40:14Z</time>
<speed>6.240000</speed>
<extensions>
<speed>6.2</speed>
<temp>0.00</temp>
<bpm>0</bpm>
<rpm>0.00</rpm>
</extensions>
</trkpt>
<trkpt lat="30.661638260" lon="34.925617218">
<ele>485.445313</ele>
<time>2013-11-22T11:40:19Z</time>
<speed>5.100000</speed>
<extensions>
<speed>5.1</speed>
<temp>0.00</temp>
<bpm>0</bpm>
<rpm>0.00</rpm>
</extensions>
</trkpt>
<trkpt lat="30.661396027" lon="34.925621033">
<ele>487.085938</ele>
<time>2013-11-22T11:40:24Z</time>
<speed>4.960000</speed>
<extensions>
<speed>5.0</speed>
<temp>0.00</temp>
<bpm>0</bpm>
<rpm>0.00</rpm>
</extensions>
</trkpt>
<trkpt lat="30.661159515" lon="34.925617218">
<ele>487.046875</ele>
<time>2013-11-22T11:40:29Z</time>
<speed>5.300000</speed>
<extensions>
<speed>5.3</speed>
<temp>0.00</temp>
<bpm>0</bpm>
<rpm>0.00</rpm>
</extensions>
</trkpt>
<trkpt lat="30.660907745" lon="34.925609589">
<ele>487.804688</ele>
<time>2013-11-22T11:40:34Z</time>
<speed>5.770000</speed>
<extensions>
<speed>5.8</speed>
<temp>0.00</temp>
<bpm>0</bpm>
<rpm>0.00</rpm>
</extensions>
</trkpt>
<trkpt lat="30.660682678" lon="34.925586700">
<ele>488.343750</ele>
<time>2013-11-22T11:40:39Z</time>
<speed>4.650000</speed>
<extensions>
<speed>4.6</speed>
<temp>0.00</temp>
<bpm>0</bpm>
<rpm>0.00</rpm>
</extensions>
</trkpt>
<trkpt lat="30.660467148" lon="34.925556183">
<ele>488.781250</ele>
<time>2013-11-22T11:40:44Z</time>
<speed>4.950000</speed>
<extensions>
<speed>4.9</speed>
<temp>0.00</temp>
<bpm>0</bpm>
<rpm>0.00</rpm>
</extensions>
</trkpt>
<trkpt lat="30.660234451" lon="34.925525665">
<ele>488.007813</ele>
<time>2013-11-22T11:40:49Z</time>
<speed>4.810000</speed>
<extensions>
<speed>4.8</speed>
<temp>0.00</temp>
<bpm>0</bpm>
<rpm>0.00</rpm>
</extensions>
</trkpt>
<trkpt lat="30.660043716" lon="34.925491333">
<ele>487.835938</ele>
<time>2013-11-22T11:40:54Z</time>
<speed>3.760000</speed>
<extensions>
<speed>3.8</speed>
<temp>0.00</temp>
<bpm>0</bpm>
<rpm>0.00</rpm>
</extensions>
</trkpt>
<trkpt lat="30.659858704" lon="34.925418854">
<ele>486.976563</ele>
<time>2013-11-22T11:40:59Z</time>
<speed>4.270000</speed>
<extensions>
<speed>4.3</speed>
<temp>0.00</temp>
<bpm>0</bpm>
<rpm>0.00</rpm>
</extensions>
</trkpt>
<trkpt lat="30.659669876" lon="34.925357819">
<ele>486.109375</ele>
<time>2013-11-22T11:41:04Z</time>
<speed>3.880000</speed>
<extensions>
<speed>3.9</speed>
<temp>0.00</temp>
<bpm>0</bpm>
<rpm>0.00</rpm>
</extensions>
</trkpt>
<trkpt lat="30.659486771" lon="34.925304413">
<ele>486.000000</ele>
<time>2013-11-22T11:41:09Z</time>
<speed>4.480000</speed>
<extensions>
<speed>4.5</speed>
<temp>0.00</temp>
<bpm>0</bpm>
<rpm>0.00</rpm>
</extensions>
</trkpt>
<trkpt lat="30.659276962" lon="34.925254822">
<ele>486.984375</ele>
<time>2013-11-22T11:41:14Z</time>
<speed>4.550000</speed>
<extensions>
<speed>4.5</speed>
<temp>0.00</temp>
<bpm>0</bpm>
<rpm>0.00</rpm>
</extensions>
</trkpt>
<trkpt lat="30.659107208" lon="34.925209045">
<ele>487.445313</ele>
<time>2013-11-22T11:41:19Z</time>
<speed>4.380000</speed>
<extensions>
<speed>4.4</speed>
<temp>0.00</temp>
<bpm>0</bpm>
<rpm>0.00</rpm>
</extensions>
</trkpt>
<trkpt lat="30.658910751" lon="34.925178528">
<ele>487.281250</ele>
<time>2013-11-22T11:41:24Z</time>
<speed>3.810000</speed>
<extensions>
<speed>3.8</speed>
<temp>0.00</temp>
<bpm>0</bpm>
<rpm>0.00</rpm>
</extensions>
</trkpt>
<trkpt lat="30.658740997" lon="34.925132751">
<ele>487.695313</ele>
<time>2013-11-22T11:41:29Z</time>
<speed>3.820000</speed>
<extensions>
<speed>3.8</speed>
<temp>0.00</temp>
<bpm>0</bpm>
<rpm>0.00</rpm>
</extensions>
</trkpt>
<trkpt lat="30.658580780" lon="34.925083160">
<ele>487.085938</ele>
<time>2013-11-22T11:41:34Z</time>
<speed>3.010000</speed>
<extensions>
<speed>3.0</speed>
<temp>0.00</temp>
<bpm>0</bpm>
<rpm>0.00</rpm>
</extensions>
</trkpt>
<trkpt lat="30.658462524" lon="34.925029755">
<ele>486.429688</ele>
<time>2013-11-22T11:41:39Z</time>
<speed>2.250000</speed>
<extensions>
<speed>2.3</speed>
<temp>0.00</temp>
<bpm>0</bpm>
<rpm>0.00</rpm>
</extensions>
</trkpt>
<trkpt lat="30.658426285" lon="34.925003052">
<ele>484.226563</ele>
<time>2013-11-22T11:41:44Z</time>
<speed>0.040000</speed>
<extensions>
<speed>0.0</speed>
<temp>0.00</temp>
<bpm>0</bpm>
<rpm>0.00</rpm>
</extensions>
</trkpt>
<trkpt lat="30.658407211" lon="34.924991608">
<ele>483.820313</ele>
<time>2013-11-22T11:41:49Z</time>
<speed>1.570000</speed>
<extensions>
<speed>1.6</speed>
<temp>0.00</temp>
<bpm>0</bpm>
<rpm>0.00</rpm>
</extensions>
</trkpt>
<trkpt lat="30.658309937" lon="34.924972534">
<ele>484.546875</ele>
<time>2013-11-22T11:41:54Z</time>
<speed>3.040000</speed>
<extensions>
<speed>3.0</speed>
<temp>0.00</temp>
<bpm>0</bpm>
<rpm>0.00</rpm>
</extensions>
</trkpt>
<trkpt lat="30.658163071" lon="34.924953461">
<ele>485.015625</ele>
<time>2013-11-22T11:41:59Z</time>
<speed>3.530000</speed>
<extensions>
<speed>3.5</speed>
<temp>0.00</temp>
<bpm>0</bpm>
<rpm>0.00</rpm>
</extensions>
</trkpt>
<trkpt lat="30.657939911" lon="34.924900055">
<ele>482.570313</ele>
<time>2013-11-22T11:42:04Z</time>
<speed>6.330000</speed>
<extensions>
<speed>6.3</speed>
<temp>0.00</temp>
<bpm>0</bpm>
<rpm>0.00</rpm>
</extensions>
</trkpt>
<trkpt lat="30.657691956" lon="34.924846649">
<ele>482.234375</ele>
<time>2013-11-22T11:42:09Z</time>
<speed>4.930000</speed>
<extensions>
<speed>4.9</speed>
<temp>0.00</temp>
<bpm>0</bpm>
<rpm>0.00</rpm>
</extensions>
</trkpt>
<trkpt lat="30.657505035" lon="34.924774170">
<ele>482.562500</ele>
<time>2013-11-22T11:42:14Z</time>
<speed>4.450000</speed>
<extensions>
<speed>4.5</speed>
<temp>0.00</temp>
<bpm>0</bpm>
<rpm>0.00</rpm>
</extensions>
</trkpt>
<trkpt lat="30.657279968" lon="34.924720764">
<ele>482.851563</ele>
<time>2013-11-22T11:42:19Z</time>
<speed>4.830000</speed>
<extensions>
<speed>4.8</speed>
<temp>0.00</temp>
<bpm>0</bpm>
<rpm>0.00</rpm>
</extensions>
</trkpt>
<trkpt lat="30.657060623" lon="34.924667358">
<ele>481.015625</ele>
<time>2013-11-22T11:42:24Z</time>
<speed>5.580000</speed>
<extensions>
<speed>5.6</speed>
<temp>0.00</temp>
<bpm>0</bpm>
<rpm>0.00</rpm>
</extensions>
</trkpt>
<trkpt lat="30.656831741" lon="34.924617767">
<ele>479.492188</ele>
<time>2013-11-22T11:42:29Z</time>
<speed>4.740000</speed>
<extensions>
<speed>4.7</speed>
<temp>0.00</temp>
<bpm>0</bpm>
<rpm>0.00</rpm>
</extensions>
</trkpt>
<trkpt lat="30.656639099" lon="34.924552917">
<ele>477.953125</ele>
<time>2013-11-22T11:42:34Z</time>
<speed>4.510000</speed>
<extensions>
<speed>4.5</speed>
<temp>0.00</temp>
<bpm>0</bpm>
<rpm>0.00</rpm>
</extensions>
</trkpt>
<trkpt lat="30.656431198" lon="34.924484253">
<ele>478.593750</ele>
<time>2013-11-22T11:42:39Z</time>
<speed>5.320000</speed>
<extensions>
<speed>5.3</speed>
<temp>0.00</temp>
<bpm>0</bpm>
<rpm>0.00</rpm>
</extensions>
</trkpt>
<trkpt lat="30.656204224" lon="34.924430847">
<ele>478.812500</ele>
<time>2013-11-22T11:42:44Z</time>
<speed>5.190000</speed>
<extensions>
<speed>5.2</speed>
<temp>0.00</temp>
<bpm>0</bpm>
<rpm>0.00</rpm>
</extensions>
</trkpt>
<trkpt lat="30.655967712" lon="34.924373627">
<ele>481.195313</ele>
<time>2013-11-22T11:42:49Z</time>
<speed>5.100000</speed>
<extensions>
<speed>5.1</speed>
<temp>0.00</temp>
<bpm>0</bpm>
<rpm>0.00</rpm>
</extensions>
</trkpt>
<trkpt lat="30.655759811" lon="34.924335480">
<ele>482.609375</ele>
<time>2013-11-22T11:42:54Z</time>
<speed>4.940000</speed>
<extensions>
<speed>4.9</speed>
<temp>0.00</temp>
<bpm>0</bpm>
<rpm>0.00</rpm>
</extensions>
</trkpt>
<trkpt lat="30.655496597" lon="34.924247742">
<ele>477.921875</ele>
<time>2013-11-22T11:42:59Z</time>
<speed>7.010000</speed>
<extensions>
<speed>7.0</speed>
<temp>0.00</temp>
<bpm>0</bpm>
<rpm>0.00</rpm>
</extensions>
</trkpt>
<trkpt lat="30.655225754" lon="34.924171448">
<ele>478.578125</ele>
<time>2013-11-22T11:43:04Z</time>
<speed>5.260000</speed>
<extensions>
<speed>5.3</speed>
<temp>0.00</temp>
<bpm>0</bpm>
<rpm>0.00</rpm>
</extensions>
</trkpt>
<trkpt lat="30.655017853" lon="34.924121857">
<ele>480.578125</ele>
<time>2013-11-22T11:43:09Z</time>
<speed>4.690000</speed>
<extensions>
<speed>4.7</speed>
<temp>0.00</temp>
<bpm>0</bpm>
<rpm>0.00</rpm>
</extensions>
</trkpt>
<trkpt lat="30.654821396" lon="34.924083710">
<ele>482.687500</ele>
<time>2013-11-22T11:43:14Z</time>
<speed>4.150000</speed>
<extensions>
<speed>4.1</speed>
<temp>0.00</temp>
<bpm>0</bpm>
<rpm>0.00</rpm>
</extensions>
</trkpt>
<trkpt lat="30.654626846" lon="34.924034119">
<ele>481.835938</ele>
<time>2013-11-22T11:43:19Z</time>
<speed>5.060000</speed>
<extensions>
<speed>5.1</speed>
<temp>0.00</temp>
<bpm>0</bpm>
<rpm>0.00</rpm>
</extensions>
</trkpt>
<trkpt lat="30.654401779" lon="34.923984528">
<ele>482.625000</ele>
<time>2013-11-22T11:43:24Z</time>
<speed>5.060000</speed>
<extensions>
<speed>5.1</speed>
<temp>0.00</temp>
<bpm>0</bpm>
<rpm>0.00</rpm>
</extensions>
</trkpt>
<trkpt lat="30.654167175" lon="34.923946381">
<ele>483.460938</ele>
<time>2013-11-22T11:43:29Z</time>
<speed>5.480000</speed>
<extensions>
<speed>5.5</speed>
<temp>0.00</temp>
<bpm>0</bpm>
<rpm>0.00</rpm>
</extensions>
</trkpt>
<trkpt lat="30.653936386" lon="34.923873901">
<ele>484.476563</ele>
<time>2013-11-22T11:43:34Z</time>
<speed>5.060000</speed>
<extensions>
<speed>5.1</speed>
<temp>0.00</temp>
<bpm>0</bpm>
<rpm>0.00</rpm>
</extensions>
</trkpt>
<trkpt lat="30.653711319" lon="34.923809052">
<ele>485.335938</ele>
<time>2013-11-22T11:43:39Z</time>
<speed>4.970000</speed>
<extensions>
<speed>5.0</speed>
<temp>0.00</temp>
<bpm>0</bpm>
<rpm>0.00</rpm>
</extensions>
</trkpt>
<trkpt lat="30.653495789" lon="34.923732758">
<ele>486.539063</ele>
<time>2013-11-22T11:43:44Z</time>
<speed>4.720000</speed>
<extensions>
<speed>4.7</speed>
<temp>0.00</temp>
<bpm>0</bpm>
<rpm>0.00</rpm>
</extensions>
</trkpt>
<trkpt lat="30.653289795" lon="34.923713684">
<ele>489.726563</ele>
<time>2013-11-22T11:43:49Z</time>
<speed>4.200000</speed>
<extensions>
<speed>4.2</speed>
<temp>0.00</temp>
<bpm>0</bpm>
<rpm>0.00</rpm>
</extensions>
</trkpt>
<trkpt lat="30.653120041" lon="34.923660278">
<ele>489.992188</ele>
<time>2013-11-22T11:43:54Z</time>
<speed>3.890000</speed>
<extensions>
<speed>3.9</speed>
<temp>0.00</temp>
<bpm>0</bpm>
<rpm>0.00</rpm>
</extensions>
</trkpt>
<trkpt lat="30.652952194" lon="34.923614502">
<ele>490.359375</ele>
<time>2013-11-22T11:43:59Z</time>
<speed>3.830000</speed>
<extensions>
<speed>3.8</speed>
<temp>0.00</temp>
<bpm>0</bpm>
<rpm>0.00</rpm>
</extensions>
</trkpt>
<trkpt lat="30.652824402" lon="34.923580170">
<ele>490.570313</ele>
<time>2013-11-22T11:44:04Z</time>
<speed>2.170000</speed>
<extensions>
<speed>2.2</speed>
<temp>0.00</temp>
<bpm>0</bpm>
<rpm>0.00</rpm>
</extensions>
</trkpt>
<trkpt lat="30.652694702" lon="34.923557281">
<ele>489.601563</ele>
<time>2013-11-22T11:44:09Z</time>
<speed>3.780000</speed>
<extensions>
<speed>3.8</speed>
<temp>0.00</temp>
<bpm>0</bpm>
<rpm>0.00</rpm>
</extensions>
</trkpt>
<trkpt lat="30.652532578" lon="34.923522949">
<ele>488.187500</ele>
<time>2013-11-22T11:44:14Z</time>
<speed>3.240000</speed>
<extensions>
<speed>3.2</speed>
<temp>0.00</temp>
<bpm>0</bpm>
<rpm>0.00</rpm>
</extensions>
</trkpt>
<trkpt lat="30.652368546" lon="34.923469543">
<ele>485.468750</ele>
<time>2013-11-22T11:44:19Z</time>
<speed>4.810000</speed>
<extensions>
<speed>4.8</speed>
<temp>0.00</temp>
<bpm>0</bpm>
<rpm>0.00</rpm>
</extensions>
</trkpt>
<trkpt lat="30.652126312" lon="34.923389435">
<ele>480.093750</ele>
<time>2013-11-22T11:44:24Z</time>
<speed>5.650000</speed>
<extensions>
<speed>5.7</speed>
<temp>0.00</temp>
<bpm>0</bpm>
<rpm>0.00</rpm>
</extensions>
</trkpt>
<trkpt lat="30.651897430" lon="34.923339844">
<ele>483.867188</ele>
<time>2013-11-22T11:44:29Z</time>
<speed>4.540000</speed>
<extensions>
<speed>4.5</speed>
<temp>0.00</temp>
<bpm>0</bpm>
<rpm>0.00</rpm>
</extensions>
</trkpt>
<trkpt lat="30.651710510" lon="34.923282623">
<ele>484.046875</ele>
<time>2013-11-22T11:44:34Z</time>
<speed>4.200000</speed>
<extensions>
<speed>4.2</speed>
<temp>0.00</temp>
<bpm>0</bpm>
<rpm>0.00</rpm>
</extensions>
</trkpt>
<trkpt lat="30.651601791" lon="34.923240662">
<ele>480.750000</ele>
<time>2013-11-22T11:44:39Z</time>
<speed>0.040000</speed>
<extensions>
<speed>0.0</speed>
<temp>0.00</temp>
<bpm>0</bpm>
<rpm>0.00</rpm>
</extensions>
</trkpt>
<trkpt lat="30.651597977" lon="34.923236847">
<ele>479.546875</ele>
<time>2013-11-22T11:44:44Z</time>
<extensions>
<speed>0.0</speed>
<temp>0.00</temp>
<bpm>0</bpm>
<rpm>0.00</rpm>
</extensions>
</trkpt>
<trkpt lat="30.651597977" lon="34.923236847">
<ele>479.492188</ele>
<time>2013-11-22T11:44:49Z</time>
<speed>0.090000</speed>
<extensions>
<speed>0.1</speed>
<temp>0.00</temp>
<bpm>0</bpm>
<rpm>0.00</rpm>
</extensions>
</trkpt>
<trkpt lat="30.651533127" lon="34.923221588">
<ele>478.546875</ele>
<time>2013-11-22T11:44:54Z</time>
<speed>3.200000</speed>
<extensions>
<speed>3.2</speed>
<temp>0.00</temp>
<bpm>0</bpm>
<rpm>0.00</rpm>
</extensions>
</trkpt>
<trkpt lat="30.651317596" lon="34.923164368">
<ele>475.390625</ele>
<time>2013-11-22T11:44:59Z</time>
<speed>6.020000</speed>
<extensions>
<speed>6.0</speed>
<temp>0.00</temp>
<bpm>0</bpm>
<rpm>0.00</rpm>
</extensions>
</trkpt>
<trkpt lat="30.651027679" lon="34.923080444">
<ele>473.671875</ele>
<time>2013-11-22T11:45:04Z</time>
<speed>6.250000</speed>
<extensions>
<speed>6.3</speed>
<temp>0.00</temp>
<bpm>0</bpm>
<rpm>0.00</rpm>
</extensions>
</trkpt>
<trkpt lat="30.650747299" lon="34.923015594">
<ele>472.179688</ele>
<time>2013-11-22T11:45:09Z</time>
<speed>5.900000</speed>
<extensions>
<speed>5.9</speed>
<temp>0.00</temp>
<bpm>0</bpm>
<rpm>0.00</rpm>
</extensions>
</trkpt>
<trkpt lat="30.650505066" lon="34.922958374">
<ele>471.609375</ele>
<time>2013-11-22T11:45:14Z</time>
<speed>5.090000</speed>
<extensions>
<speed>5.1</speed>
<temp>0.00</temp>
<bpm>0</bpm>
<rpm>0.00</rpm>
</extensions>
</trkpt>
<trkpt lat="30.650312424" lon="34.922908783">
<ele>471.351563</ele>
<time>2013-11-22T11:45:19Z</time>
<speed>3.470000</speed>
<extensions>
<speed>3.5</speed>
<temp>0.00</temp>
<bpm>0</bpm>
<rpm>0.00</rpm>
</extensions>
</trkpt>
<trkpt lat="30.650148392" lon="34.922855377">
<ele>471.562500</ele>
<time>2013-11-22T11:45:24Z</time>
<speed>4.450000</speed>
<extensions>
<speed>4.5</speed>
<temp>0.00</temp>
<bpm>0</bpm>
<rpm>0.00</rpm>
</extensions>
</trkpt>
<trkpt lat="30.649944305" lon="34.922813416">
<ele>471.671875</ele>
<time>2013-11-22T11:45:29Z</time>
<speed>4.500000</speed>
<extensions>
<speed>4.5</speed>
<temp>0.00</temp>
<bpm>0</bpm>
<rpm>0.00</rpm>
</extensions>
</trkpt>
<trkpt lat="30.649730682" lon="34.922752380">
<ele>471.507813</ele>
<time>2013-11-22T11:45:34Z</time>
<speed>4.960000</speed>
<extensions>
<speed>5.0</speed>
<temp>0.00</temp>
<bpm>0</bpm>
<rpm>0.00</rpm>
</extensions>
</trkpt>
<trkpt lat="30.649541855" lon="34.922710419">
<ele>472.023438</ele>
<time>2013-11-22T11:45:39Z</time>
<speed>4.340000</speed>
<extensions>
<speed>4.3</speed>
<temp>0.00</temp>
<bpm>0</bpm>
<rpm>0.00</rpm>
</extensions>
</trkpt>
<trkpt lat="30.649354935" lon="34.922660828">
<ele>472.992188</ele>
<time>2013-11-22T11:45:44Z</time>
<speed>4.240000</speed>
<extensions>
<speed>4.2</speed>
<temp>0.00</temp>
<bpm>0</bpm>
<rpm>0.00</rpm>
</extensions>
</trkpt>
<trkpt lat="30.649166107" lon="34.922618866">
<ele>474.367188</ele>
<time>2013-11-22T11:45:49Z</time>
<speed>3.790000</speed>
<extensions>
<speed>3.8</speed>
<temp>0.00</temp>
<bpm>0</bpm>
<rpm>0.00</rpm>
</extensions>
</trkpt>
<trkpt lat="30.649002075" lon="34.922565460">
<ele>475.695313</ele>
<time>2013-11-22T11:45:54Z</time>
<speed>3.150000</speed>
<extensions>
<speed>3.2</speed>
<temp>0.00</temp>
<bpm>0</bpm>
<rpm>0.00</rpm>
</extensions>
</trkpt>
<trkpt lat="30.648872375" lon="34.922531128">
<ele>475.890625</ele>
<time>2013-11-22T11:45:59Z</time>
<speed>2.580000</speed>
<extensions>
<speed>2.6</speed>
<temp>0.00</temp>
<bpm>0</bpm>
<rpm>0.00</rpm>
</extensions>
</trkpt>
<trkpt lat="30.648735046" lon="34.922496796">
<ele>475.773438</ele>
<time>2013-11-22T11:46:04Z</time>
<speed>3.780000</speed>
<extensions>
<speed>3.8</speed>
<temp>0.00</temp>
<bpm>0</bpm>
<rpm>0.00</rpm>
</extensions>
</trkpt>
<trkpt lat="30.648542404" lon="34.922435760">
<ele>473.617188</ele>
<time>2013-11-22T11:46:09Z</time>
<speed>5.570000</speed>
<extensions>
<speed>5.6</speed>
<temp>0.00</temp>
<bpm>0</bpm>
<rpm>0.00</rpm>
</extensions>
</trkpt>
<trkpt lat="30.648199081" lon="34.922344208">
<ele>472.570313</ele>
<time>2013-11-22T11:46:14Z</time>
<speed>8.620000</speed>
<extensions>
<speed>8.6</speed>
<temp>0.00</temp>
<bpm>0</bpm>
<rpm>0.00</rpm>
</extensions>
</trkpt>
<trkpt lat="30.647844315" lon="34.922233582">
<ele>470.968750</ele>
<time>2013-11-22T11:46:19Z</time>
<speed>7.320000</speed>
<extensions>
<speed>7.3</speed>
<temp>0.00</temp>
<bpm>0</bpm>
<rpm>0.00</rpm>
</extensions>
</trkpt>
<trkpt lat="30.647533417" lon="34.922145844">
<ele>471.000000</ele>
<time>2013-11-22T11:46:24Z</time>
<speed>6.800000</speed>
<extensions>
<speed>6.8</speed>
<temp>0.00</temp>
<bpm>0</bpm>
<rpm>0.00</rpm>
</extensions>
</trkpt>
<trkpt lat="30.647268295" lon="34.922077179">
<ele>469.960938</ele>
<time>2013-11-22T11:46:29Z</time>
<speed>5.590000</speed>
<extensions>
<speed>5.6</speed>
<temp>0.00</temp>
<bpm>0</bpm>
<rpm>0.00</rpm>
</extensions>
</trkpt>
<trkpt lat="30.647008896" lon="34.922012329">
<ele>467.281250</ele>
<time>2013-11-22T11:46:34Z</time>
<speed>5.830000</speed>
<extensions>
<speed>5.8</speed>
<temp>0.00</temp>
<bpm>0</bpm>
<rpm>0.00</rpm>
</extensions>
</trkpt>
<trkpt lat="30.646766663" lon="34.921932220">
<ele>464.140625</ele>
<time>2013-11-22T11:46:39Z</time>
<speed>5.020000</speed>
<extensions>
<speed>5.0</speed>
<temp>0.00</temp>
<bpm>0</bpm>
<rpm>0.00</rpm>
</extensions>
</trkpt>
<trkpt lat="30.646514893" lon="34.921852112">
<ele>462.453125</ele>
<time>2013-11-22T11:46:44Z</time>
<speed>6.090000</speed>
<extensions>
<speed>6.1</speed>
<temp>0.00</temp>
<bpm>0</bpm>
<rpm>0.00</rpm>
</extensions>
</trkpt>
<trkpt lat="30.646251678" lon="34.921764374">
<ele>461.984375</ele>
<time>2013-11-22T11:46:49Z</time>
<speed>6.070000</speed>
<extensions>
<speed>6.1</speed>
<temp>0.00</temp>
<bpm>0</bpm>
<rpm>0.00</rpm>
</extensions>
</trkpt>
<trkpt lat="30.645994186" lon="34.921676636">
<ele>461.117188</ele>
<time>2013-11-22T11:46:54Z</time>
<speed>5.790000</speed>
<extensions>
<speed>5.8</speed>
<temp>0.00</temp>
<bpm>0</bpm>
<rpm>0.00</rpm>
</extensions>
</trkpt>
<trkpt lat="30.645725250" lon="34.921596527">
<ele>458.656250</ele>
<time>2013-11-22T11:46:59Z</time>
<speed>5.870000</speed>
<extensions>
<speed>5.9</speed>
<temp>0.00</temp>
<bpm>0</bpm>
<rpm>0.00</rpm>
</extensions>
</trkpt>
<trkpt lat="30.645479202" lon="34.921520233">
<ele>458.960938</ele>
<time>2013-11-22T11:47:04Z</time>
<speed>5.790000</speed>
<extensions>
<speed>5.8</speed>
<temp>0.00</temp>
<bpm>0</bpm>
<rpm>0.00</rpm>
</extensions>
</trkpt>
<trkpt lat="30.645217896" lon="34.921443939">
<ele>456.585938</ele>
<time>2013-11-22T11:47:09Z</time>
<speed>5.600000</speed>
<extensions>
<speed>5.6</speed>
<temp>0.00</temp>
<bpm>0</bpm>
<rpm>0.00</rpm>
</extensions>
</trkpt>
<trkpt lat="30.644987106" lon="34.921394348">
<ele>458.156250</ele>
<time>2013-11-22T11:47:14Z</time>
<speed>5.050000</speed>
<extensions>
<speed>5.1</speed>
<temp>0.00</temp>
<bpm>0</bpm>
<rpm>0.00</rpm>
</extensions>
</trkpt>
<trkpt lat="30.644775391" lon="34.921337128">
<ele>459.328125</ele>
<time>2013-11-22T11:47:19Z</time>
<speed>5.080000</speed>
<extensions>
<speed>5.1</speed>
<temp>0.00</temp>
<bpm>0</bpm>
<rpm>0.00</rpm>
</extensions>
</trkpt>
<trkpt lat="30.644542694" lon="34.921302795">
<ele>459.875000</ele>
<time>2013-11-22T11:47:24Z</time>
<speed>4.950000</speed>
<extensions>
<speed>4.9</speed>
<temp>0.00</temp>
<bpm>0</bpm>
<rpm>0.00</rpm>
</extensions>
</trkpt>
<trkpt lat="30.644319534" lon="34.921253204">
<ele>461.195313</ele>
<time>2013-11-22T11:47:29Z</time>
<speed>4.590000</speed>
<extensions>
<speed>4.6</speed>
<temp>0.00</temp>
<bpm>0</bpm>
<rpm>0.00</rpm>
</extensions>
</trkpt>
<trkpt lat="30.644168854" lon="34.921249390">
<ele>463.093750</ele>
<time>2013-11-22T11:47:34Z</time>
<speed>2.490000</speed>
<extensions>
<speed>2.5</speed>
<temp>0.00</temp>
<bpm>0</bpm>
<rpm>0.00</rpm>
</extensions>
</trkpt>
<trkpt lat="30.644046783" lon="34.921203613">
<ele>461.539063</ele>
<time>2013-11-22T11:47:39Z</time>
<speed>3.140000</speed>
<extensions>
<speed>3.1</speed>
<temp>0.00</temp>
<bpm>0</bpm>
<rpm>0.00</rpm>
</extensions>
</trkpt>
<trkpt lat="30.643880844" lon="34.921176910">
<ele>461.843750</ele>
<time>2013-11-22T11:47:44Z</time>
<speed>4.430000</speed>
<extensions>
<speed>4.4</speed>
<temp>0.00</temp>
<bpm>0</bpm>
<rpm>0.00</rpm>
</extensions>
</trkpt>
<trkpt lat="30.643674850" lon="34.921142578">
<ele>461.937500</ele>
<time>2013-11-22T11:47:49Z</time>
<speed>4.870000</speed>
<extensions>
<speed>4.9</speed>
<temp>0.00</temp>
<bpm>0</bpm>
<rpm>0.00</rpm>
</extensions>
</trkpt>
<trkpt lat="30.643466949" lon="34.921123505">
<ele>463.140625</ele>
<time>2013-11-22T11:47:54Z</time>
<speed>4.730000</speed>
<extensions>
<speed>4.7</speed>
<temp>0.00</temp>
<bpm>0</bpm>
<rpm>0.00</rpm>
</extensions>
</trkpt>
<trkpt lat="30.643251419" lon="34.921127319">
<ele>463.203125</ele>
<time>2013-11-22T11:47:59Z</time>
<speed>4.770000</speed>
<extensions>
<speed>4.8</speed>
<temp>0.00</temp>
<bpm>0</bpm>
<rpm>0.00</rpm>
</extensions>
</trkpt>
<trkpt lat="30.643054962" lon="34.921112061">
<ele>462.656250</ele>
<time>2013-11-22T11:48:04Z</time>
<speed>4.490000</speed>
<extensions>
<speed>4.5</speed>
<temp>0.00</temp>
<bpm>0</bpm>
<rpm>0.00</rpm>
</extensions>
</trkpt>
<trkpt lat="30.642839432" lon="34.921123505">
<ele>463.367188</ele>
<time>2013-11-22T11:48:09Z</time>
<speed>5.190000</speed>
<extensions>
<speed>5.2</speed>
<temp>0.00</temp>
<bpm>0</bpm>
<rpm>0.00</rpm>
</extensions>
</trkpt>
<trkpt lat="30.642618179" lon="34.921127319">
<ele>463.687500</ele>
<time>2013-11-22T11:48:14Z</time>
<speed>4.510000</speed>
<extensions>
<speed>4.5</speed>
<temp>0.00</temp>
<bpm>0</bpm>
<rpm>0.00</rpm>
</extensions>
</trkpt>
<trkpt lat="30.642419815" lon="34.921131134">
<ele>463.210938</ele>
<time>2013-11-22T11:48:19Z</time>
<speed>4.020000</speed>
<extensions>
<speed>4.0</speed>
<temp>0.00</temp>
<bpm>0</bpm>
<rpm>0.00</rpm>
</extensions>
</trkpt>
<trkpt lat="30.642221451" lon="34.921100616">
<ele>461.289063</ele>
<time>2013-11-22T11:48:24Z</time>
<speed>4.870000</speed>
<extensions>
<speed>4.9</speed>
<temp>0.00</temp>
<bpm>0</bpm>
<rpm>0.00</rpm>
</extensions>
</trkpt>
<trkpt lat="30.641984940" lon="34.921051025">
<ele>460.398438</ele>
<time>2013-11-22T11:48:29Z</time>
<speed>5.150000</speed>
<extensions>
<speed>5.2</speed>
<temp>0.00</temp>
<bpm>0</bpm>
<rpm>0.00</rpm>
</extensions>
</trkpt>
<trkpt lat="30.641752243" lon="34.921024323">
<ele>461.218750</ele>
<time>2013-11-22T11:48:34Z</time>
<speed>4.890000</speed>
<extensions>
<speed>4.9</speed>
<temp>0.00</temp>
<bpm>0</bpm>
<rpm>0.00</rpm>
</extensions>
</trkpt>
<trkpt lat="30.641508102" lon="34.920997620">
<ele>460.375000</ele>
<time>2013-11-22T11:48:39Z</time>
<speed>5.670000</speed>
<extensions>
<speed>5.7</speed>
<temp>0.00</temp>
<bpm>0</bpm>
<rpm>0.00</rpm>
</extensions>
</trkpt>
<trkpt lat="30.641250610" lon="34.920974731">
<ele>460.210938</ele>
<time>2013-11-22T11:48:44Z</time>
<speed>5.610000</speed>
<extensions>
<speed>5.6</speed>
<temp>0.00</temp>
<bpm>0</bpm>
<rpm>0.00</rpm>
</extensions>
</trkpt>
<trkpt lat="30.641012192" lon="34.920951843">
<ele>458.507813</ele>
<time>2013-11-22T11:48:49Z</time>
<speed>4.990000</speed>
<extensions>
<speed>5.0</speed>
<temp>0.00</temp>
<bpm>0</bpm>
<rpm>0.00</rpm>
</extensions>
</trkpt>
<trkpt lat="30.640806198" lon="34.920948029">
<ele>457.304688</ele>
<time>2013-11-22T11:48:54Z</time>
<speed>4.500000</speed>
<extensions>
<speed>4.5</speed>
<temp>0.00</temp>
<bpm>0</bpm>
<rpm>0.00</rpm>
</extensions>
</trkpt>
<trkpt lat="30.640607834" lon="34.920928955">
<ele>457.187500</ele>
<time>2013-11-22T11:48:59Z</time>
<speed>4.570000</speed>
<extensions>
<speed>4.6</speed>
<temp>0.00</temp>
<bpm>0</bpm>
<rpm>0.00</rpm>
</extensions>
</trkpt>
<trkpt lat="30.640398026" lon="34.920886993">
<ele>456.773438</ele>
<time>2013-11-22T11:49:04Z</time>
<speed>4.910000</speed>
<extensions>
<speed>4.9</speed>
<temp>0.00</temp>
<bpm>0</bpm>
<rpm>0.00</rpm>
</extensions>
</trkpt>
<trkpt lat="30.640163422" lon="34.920845032">
<ele>457.507813</ele>
<time>2013-11-22T11:49:09Z</time>
<speed>5.120000</speed>
<extensions>
<speed>5.1</speed>
<temp>0.00</temp>
<bpm>0</bpm>
<rpm>0.00</rpm>
</extensions>
</trkpt>
<trkpt lat="30.639936447" lon="34.920837402">
<ele>457.859375</ele>
<time>2013-11-22T11:49:14Z</time>
<speed>5.400000</speed>
<extensions>
<speed>5.4</speed>
<temp>0.00</temp>
<bpm>0</bpm>
<rpm>0.00</rpm>
</extensions>
</trkpt>
<trkpt lat="30.639719009" lon="34.920841217">
<ele>458.429688</ele>
<time>2013-11-22T11:49:19Z</time>
<speed>4.410000</speed>
<extensions>
<speed>4.4</speed>
<temp>0.00</temp>
<bpm>0</bpm>
<rpm>0.00</rpm>
</extensions>
</trkpt>
<trkpt lat="30.639553070" lon="34.920829773">
<ele>458.148438</ele>
<time>2013-11-22T11:49:24Z</time>
<speed>3.330000</speed>
<extensions>
<speed>3.3</speed>
<temp>0.00</temp>
<bpm>0</bpm>
<rpm>0.00</rpm>
</extensions>
</trkpt>
<trkpt lat="30.639423370" lon="34.920795441">
<ele>459.250000</ele>
<time>2013-11-22T11:49:29Z</time>
<speed>3.100000</speed>
<extensions>
<speed>3.1</speed>
<temp>0.00</temp>
<bpm>0</bpm>
<rpm>0.00</rpm>
</extensions>
</trkpt>
<trkpt lat="30.639249802" lon="34.920757294">
<ele>459.835938</ele>
<time>2013-11-22T11:49:34Z</time>
<speed>4.400000</speed>
<extensions>
<speed>4.4</speed>
<temp>0.00</temp>
<bpm>0</bpm>
<rpm>0.00</rpm>
</extensions>
</trkpt>
<trkpt lat="30.639041901" lon="34.920711517">
<ele>459.625000</ele>
<time>2013-11-22T11:49:39Z</time>
<speed>4.360000</speed>
<extensions>
<speed>4.4</speed>
<temp>0.00</temp>
<bpm>0</bpm>
<rpm>0.00</rpm>
</extensions>
</trkpt>
<trkpt lat="30.638891220" lon="34.920658112">
<ele>460.789063</ele>
<time>2013-11-22T11:49:44Z</time>
<speed>4.110000</speed>
<extensions>
<speed>4.1</speed>
<temp>0.00</temp>
<bpm>0</bpm>
<rpm>0.00</rpm>
</extensions>
</trkpt>
<trkpt lat="30.638700485" lon="34.920642853">
<ele>460.718750</ele>
<time>2013-11-22T11:49:49Z</time>
<speed>4.820000</speed>
<extensions>
<speed>4.8</speed>
<temp>0.00</temp>
<bpm>0</bpm>
<rpm>0.00</rpm>
</extensions>
</trkpt>
<trkpt lat="30.638473511" lon="34.920600891">
<ele>459.812500</ele>
<time>2013-11-22T11:49:54Z</time>
<speed>5.030000</speed>
<extensions>
<speed>5.0</speed>
<temp>0.00</temp>
<bpm>0</bpm>
<rpm>0.00</rpm>
</extensions>
</trkpt>
<trkpt lat="30.638248444" lon="34.920570374">
<ele>458.812500</ele>
<time>2013-11-22T11:49:59Z</time>
<speed>5.230000</speed>
<extensions>
<speed>5.2</speed>
<temp>0.00</temp>
<bpm>0</bpm>
<rpm>0.00</rpm>
</extensions>
</trkpt>
<trkpt lat="30.638008118" lon="34.920543671">
<ele>458.343750</ele>
<time>2013-11-22T11:50:04Z</time>
<speed>5.450000</speed>
<extensions>
<speed>5.5</speed>
<temp>0.00</temp>
<bpm>0</bpm>
<rpm>0.00</rpm>
</extensions>
</trkpt>
<trkpt lat="30.637794495" lon="34.920558929">
<ele>457.742188</ele>
<time>2013-11-22T11:50:09Z</time>
<speed>4.290000</speed>
<extensions>
<speed>4.3</speed>
<temp>0.00</temp>
<bpm>0</bpm>
<rpm>0.00</rpm>
</extensions>
</trkpt>
<trkpt lat="30.637590408" lon="34.920539856">
<ele>457.109375</ele>
<time>2013-11-22T11:50:14Z</time>
<speed>4.410000</speed>
<extensions>
<speed>4.4</speed>
<temp>0.00</temp>
<bpm>0</bpm>
<rpm>0.00</rpm>
</extensions>
</trkpt>
<trkpt lat="30.637443542" lon="34.920616150">
<ele>457.429688</ele>
<time>2013-11-22T11:50:19Z</time>
<speed>4.110000</speed>
<extensions>
<speed>4.1</speed>
<temp>0.00</temp>
<bpm>0</bpm>
<rpm>0.00</rpm>
</extensions>
</trkpt>
<trkpt lat="30.637315750" lon="34.920669556">
<ele>455.007813</ele>
<time>2013-11-22T11:50:24Z</time>
<speed>2.480000</speed>
<extensions>
<speed>2.5</speed>
<temp>0.00</temp>
<bpm>0</bpm>
<rpm>0.00</rpm>
</extensions>
</trkpt>
<trkpt lat="30.637224197" lon="34.920650482">
<ele>454.929688</ele>
<time>2013-11-22T11:50:29Z</time>
<speed>1.860000</speed>
<extensions>
<speed>1.9</speed>
<temp>0.00</temp>
<bpm>0</bpm>
<rpm>0.00</rpm>
</extensions>
</trkpt>
<trkpt lat="30.637130737" lon="34.920631409">
<ele>456.218750</ele>
<time>2013-11-22T11:50:34Z</time>
<speed>2.080000</speed>
<extensions>
<speed>2.1</speed>
<temp>0.00</temp>
<bpm>0</bpm>
<rpm>0.00</rpm>
</extensions>
</trkpt>
<trkpt lat="30.637050629" lon="34.920627594">
<ele>457.835938</ele>
<time>2013-11-22T11:50:39Z</time>
<speed>1.930000</speed>
<extensions>
<speed>1.9</speed>
<temp>0.00</temp>
<bpm>0</bpm>
<rpm>0.00</rpm>
</extensions>
</trkpt>
<trkpt lat="30.636953354" lon="34.920604706">
<ele>453.476563</ele>
<time>2013-11-22T11:50:44Z</time>
<speed>2.230000</speed>
<extensions>
<speed>2.2</speed>
<temp>0.00</temp>
<bpm>0</bpm>
<rpm>0.00</rpm>
</extensions>
</trkpt>
<trkpt lat="30.636838913" lon="34.920578003">
<ele>450.117188</ele>
<time>2013-11-22T11:50:49Z</time>
<speed>2.530000</speed>
<extensions>
<speed>2.5</speed>
<temp>0.00</temp>
<bpm>0</bpm>
<rpm>0.00</rpm>
</extensions>
</trkpt>
<trkpt lat="30.636709213" lon="34.920570374">
<ele>450.343750</ele>
<time>2013-11-22T11:50:54Z</time>
<speed>3.200000</speed>
<extensions>
<speed>3.2</speed>
<temp>0.00</temp>
<bpm>0</bpm>
<rpm>0.00</rpm>
</extensions>
</trkpt>
<trkpt lat="30.636537552" lon="34.920558929">
<ele>450.726563</ele>
<time>2013-11-22T11:50:59Z</time>
<speed>3.860000</speed>
<extensions>
<speed>3.9</speed>
<temp>0.00</temp>
<bpm>0</bpm>
<rpm>0.00</rpm>
</extensions>
</trkpt>
<trkpt lat="30.636363983" lon="34.920574188">
<ele>451.093750</ele>
<time>2013-11-22T11:51:04Z</time>
<speed>3.400000</speed>
<extensions>
<speed>3.4</speed>
<temp>0.00</temp>
<bpm>0</bpm>
<rpm>0.00</rpm>
</extensions>
</trkpt>
<trkpt lat="30.636201859" lon="34.920581818">
<ele>452.460938</ele>
<time>2013-11-22T11:51:09Z</time>
<speed>3.960000</speed>
<extensions>
<speed>4.0</speed>
<temp>0.00</temp>
<bpm>0</bpm>
<rpm>0.00</rpm>
</extensions>
</trkpt>
<trkpt lat="30.636007309" lon="34.920539856">
<ele>449.101563</ele>
<time>2013-11-22T11:51:14Z</time>
<speed>4.940000</speed>
<extensions>
<speed>4.9</speed>
<temp>0.00</temp>
<bpm>0</bpm>
<rpm>0.00</rpm>
</extensions>
</trkpt>
<trkpt lat="30.635746002" lon="34.920547485">
<ele>446.398438</ele>
<time>2013-11-22T11:51:19Z</time>
<speed>6.110000</speed>
<extensions>
<speed>6.1</speed>
<temp>0.00</temp>
<bpm>0</bpm>
<rpm>0.00</rpm>
</extensions>
</trkpt>
<trkpt lat="30.635452271" lon="34.920570374">
<ele>445.523438</ele>
<time>2013-11-22T11:51:24Z</time>
<speed>6.450000</speed>
<extensions>
<speed>6.4</speed>
<temp>0.00</temp>
<bpm>0</bpm>
<rpm>0.00</rpm>
</extensions>
</trkpt>
<trkpt lat="30.635152817" lon="34.920581818">
<ele>437.242188</ele>
<time>2013-11-22T11:51:29Z</time>
<speed>6.030000</speed>
<extensions>
<speed>6.0</speed>
<temp>0.00</temp>
<bpm>0</bpm>
<rpm>0.00</rpm>
</extensions>
</trkpt>
<trkpt lat="30.634897232" lon="34.920593262">
<ele>438.914063</ele>
<time>2013-11-22T11:51:34Z</time>
<speed>5.470000</speed>
<extensions>
<speed>5.5</speed>
<temp>0.00</temp>
<bpm>0</bpm>
<rpm>0.00</rpm>
</extensions>
</trkpt>
<trkpt lat="30.634681702" lon="34.920593262">
<ele>439.992188</ele>
<time>2013-11-22T11:51:39Z</time>
<speed>4.860000</speed>
<extensions>
<speed>4.9</speed>
<temp>0.00</temp>
<bpm>0</bpm>
<rpm>0.00</rpm>
</extensions>
</trkpt>
<trkpt lat="30.634445190" lon="34.920597076">
<ele>441.242188</ele>
<time>2013-11-22T11:51:44Z</time>
<speed>5.220000</speed>
<extensions>
<speed>5.2</speed>
<temp>0.00</temp>
<bpm>0</bpm>
<rpm>0.00</rpm>
</extensions>
</trkpt>
<trkpt lat="30.634227753" lon="34.920604706">
<ele>441.195313</ele>
<time>2013-11-22T11:51:49Z</time>
<speed>4.630000</speed>
<extensions>
<speed>4.6</speed>
<temp>0.00</temp>
<bpm>0</bpm>
<rpm>0.00</rpm>
</extensions>
</trkpt>
<trkpt lat="30.634033203" lon="34.920608521">
<ele>442.546875</ele>
<time>2013-11-22T11:51:54Z</time>
<speed>3.680000</speed>
<extensions>
<speed>3.7</speed>
<temp>0.00</temp>
<bpm>0</bpm>
<rpm>0.00</rpm>
</extensions>
</trkpt>
<trkpt lat="30.633844376" lon="34.920616150">
<ele>442.945313</ele>
<time>2013-11-22T11:51:59Z</time>
<speed>4.580000</speed>
<extensions>
<speed>4.6</speed>
<temp>0.00</temp>
<bpm>0</bpm>
<rpm>0.00</rpm>
</extensions>
</trkpt>
<trkpt lat="30.633615494" lon="34.920616150">
<ele>440.125000</ele>
<time>2013-11-22T11:52:04Z</time>
<speed>4.670000</speed>
<extensions>
<speed>4.7</speed>
<temp>0.00</temp>
<bpm>0</bpm>
<rpm>0.00</rpm>
</extensions>
</trkpt>
<trkpt lat="30.633390427" lon="34.920619965">
<ele>439.140625</ele>
<time>2013-11-22T11:52:09Z</time>
<speed>5.130000</speed>
<extensions>
<speed>5.1</speed>
<temp>0.00</temp>
<bpm>0</bpm>
<rpm>0.00</rpm>
</extensions>
</trkpt>
<trkpt lat="30.633171082" lon="34.920616150">
<ele>439.867188</ele>
<time>2013-11-22T11:52:14Z</time>
<speed>5.310000</speed>
<extensions>
<speed>5.3</speed>
<temp>0.00</temp>
<bpm>0</bpm>
<rpm>0.00</rpm>
</extensions>
</trkpt>
<trkpt lat="30.632974625" lon="34.920612335">
<ele>440.867188</ele>
<time>2013-11-22T11:52:19Z</time>
<speed>3.890000</speed>
<extensions>
<speed>3.9</speed>
<temp>0.00</temp>
<bpm>0</bpm>
<rpm>0.00</rpm>
</extensions>
</trkpt>
<trkpt lat="30.632795334" lon="34.920623779">
<ele>439.359375</ele>
<time>2013-11-22T11:52:24Z</time>
<speed>4.190000</speed>
<extensions>
<speed>4.2</speed>
<temp>0.00</temp>
<bpm>0</bpm>
<rpm>0.00</rpm>
</extensions>
</trkpt>
<trkpt lat="30.632596970" lon="34.920608521">
<ele>441.382813</ele>
<time>2013-11-22T11:52:29Z</time>
<speed>4.840000</speed>
<extensions>
<speed>4.8</speed>
<temp>0.00</temp>
<bpm>0</bpm>
<rpm>0.00</rpm>
</extensions>
</trkpt>
<trkpt lat="30.632387161" lon="34.920623779">
<ele>442.484375</ele>
<time>2013-11-22T11:52:34Z</time>
<speed>4.410000</speed>
<extensions>
<speed>4.4</speed>
<temp>0.00</temp>
<bpm>0</bpm>
<rpm>0.00</rpm>
</extensions>
</trkpt>
<trkpt lat="30.632209778" lon="34.920650482">
<ele>443.929688</ele>
<time>2013-11-22T11:52:39Z</time>
<speed>3.270000</speed>
<extensions>
<speed>3.3</speed>
<temp>0.00</temp>
<bpm>0</bpm>
<rpm>0.00</rpm>
</extensions>
</trkpt>
<trkpt lat="30.632110596" lon="34.920700073">
<ele>442.929688</ele>
<time>2013-11-22T11:52:44Z</time>
<speed>1.980000</speed>
<extensions>
<speed>2.0</speed>
<temp>0.00</temp>
<bpm>0</bpm>
<rpm>0.00</rpm>
</extensions>
</trkpt>
<trkpt lat="30.632032394" lon="34.920711517">
<ele>443.593750</ele>
<time>2013-11-22T11:52:49Z</time>
<speed>1.810000</speed>
<extensions>
<speed>1.8</speed>
<temp>0.00</temp>
<bpm>0</bpm>
<rpm>0.00</rpm>
</extensions>
</trkpt>
<trkpt lat="30.631938934" lon="34.920722961">
<ele>442.023438</ele>
<time>2013-11-22T11:52:54Z</time>
<speed>2.290000</speed>
<extensions>
<speed>2.3</speed>
<temp>0.00</temp>
<bpm>0</bpm>
<rpm>0.00</rpm>
</extensions>
</trkpt>
<trkpt lat="30.631849289" lon="34.920715332">
<ele>441.054688</ele>
<time>2013-11-22T11:52:59Z</time>
<speed>2.720000</speed>
<extensions>
<speed>2.7</speed>
<temp>0.00</temp>
<bpm>0</bpm>
<rpm>0.00</rpm>
</extensions>
</trkpt>
<trkpt lat="30.631692886" lon="34.920730591">
<ele>441.484375</ele>
<time>2013-11-22T11:53:04Z</time>
<speed>4.150000</speed>
<extensions>
<speed>4.1</speed>
<temp>0.00</temp>
<bpm>0</bpm>
<rpm>0.00</rpm>
</extensions>
</trkpt>
<trkpt lat="30.631473541" lon="34.920764923">
<ele>440.875000</ele>
<time>2013-11-22T11:53:09Z</time>
<speed>5.000000</speed>
<extensions>
<speed>5.0</speed>
<temp>0.00</temp>
<bpm>0</bpm>
<rpm>0.00</rpm>
</extensions>
</trkpt>
<trkpt lat="30.631254196" lon="34.920780182">
<ele>439.960938</ele>
<time>2013-11-22T11:53:14Z</time>
<speed>4.480000</speed>
<extensions>
<speed>4.5</speed>
<temp>0.00</temp>
<bpm>0</bpm>
<rpm>0.00</rpm>
</extensions>
</trkpt>
<trkpt lat="30.631078720" lon="34.920787811">
<ele>438.984375</ele>
<time>2013-11-22T11:53:19Z</time>
<speed>3.500000</speed>
<extensions>
<speed>3.5</speed>
<temp>0.00</temp>
<bpm>0</bpm>
<rpm>0.00</rpm>
</extensions>
</trkpt>
<trkpt lat="30.630912781" lon="34.920780182">
<ele>439.070313</ele>
<time>2013-11-22T11:53:24Z</time>
<speed>4.270000</speed>
<extensions>
<speed>4.3</speed>
<temp>0.00</temp>
<bpm>0</bpm>
<rpm>0.00</rpm>
</extensions>
</trkpt>
<trkpt lat="30.630744934" lon="34.920772552">
<ele>439.546875</ele>
<time>2013-11-22T11:53:29Z</time>
<speed>3.750000</speed>
<extensions>
<speed>3.8</speed>
<temp>0.00</temp>
<bpm>0</bpm>
<rpm>0.00</rpm>
</extensions>
</trkpt>
<trkpt lat="30.630590439" lon="34.920791626">
<ele>440.109375</ele>
<time>2013-11-22T11:53:34Z</time>
<speed>3.400000</speed>
<extensions>
<speed>3.4</speed>
<temp>0.00</temp>
<bpm>0</bpm>
<rpm>0.00</rpm>
</extensions>
</trkpt>
<trkpt lat="30.630432129" lon="34.920795441">
<ele>441.039063</ele>
<time>2013-11-22T11:53:39Z</time>
<speed>3.590000</speed>
<extensions>
<speed>3.6</speed>
<temp>0.00</temp>
<bpm>0</bpm>
<rpm>0.00</rpm>
</extensions>
</trkpt>
<trkpt lat="30.630273819" lon="34.920810699">
<ele>441.539063</ele>
<time>2013-11-22T11:53:44Z</time>
<speed>2.600000</speed>
<extensions>
<speed>2.6</speed>
<temp>0.00</temp>
<bpm>0</bpm>
<rpm>0.00</rpm>
</extensions>
</trkpt>
<trkpt lat="30.630186081" lon="34.920806885">
<ele>440.859375</ele>
<time>2013-11-22T11:53:49Z</time>
<speed>2.120000</speed>
<extensions>
<speed>2.1</speed>
<temp>0.00</temp>
<bpm>0</bpm>
<rpm>0.00</rpm>
</extensions>
</trkpt>
<trkpt lat="30.630092621" lon="34.920787811">
<ele>443.257813</ele>
<time>2013-11-22T11:53:54Z</time>
<speed>2.670000</speed>
<extensions>
<speed>2.7</speed>
<temp>0.00</temp>
<bpm>0</bpm>
<rpm>0.00</rpm>
</extensions>
</trkpt>
<trkpt lat="30.629947662" lon="34.920799255">
<ele>444.187500</ele>
<time>2013-11-22T11:53:59Z</time>
<speed>3.420000</speed>
<extensions>
<speed>3.4</speed>
<temp>0.00</temp>
<bpm>0</bpm>
<rpm>0.00</rpm>
</extensions>
</trkpt>
<trkpt lat="30.629831314" lon="34.920803070">
<ele>445.000000</ele>
<time>2013-11-22T11:54:04Z</time>
<speed>2.210000</speed>
<extensions>
<speed>2.2</speed>
<temp>0.00</temp>
<bpm>0</bpm>
<rpm>0.00</rpm>
</extensions>
</trkpt>
<trkpt lat="30.629686356" lon="34.920806885">
<ele>445.070313</ele>
<time>2013-11-22T11:54:09Z</time>
<speed>4.010000</speed>
<extensions>
<speed>4.0</speed>
<temp>0.00</temp>
<bpm>0</bpm>
<rpm>0.00</rpm>
</extensions>
</trkpt>
<trkpt lat="30.629508972" lon="34.920799255">
<ele>444.164063</ele>
<time>2013-11-22T11:54:14Z</time>
<speed>3.730000</speed>
<extensions>
<speed>3.7</speed>
<temp>0.00</temp>
<bpm>0</bpm>
<rpm>0.00</rpm>
</extensions>
</trkpt>
<trkpt lat="30.629314423" lon="34.920806885">
<ele>443.593750</ele>
<time>2013-11-22T11:54:19Z</time>
<speed>4.180000</speed>
<extensions>
<speed>4.2</speed>
<temp>0.00</temp>
<bpm>0</bpm>
<rpm>0.00</rpm>
</extensions>
</trkpt>
<trkpt lat="30.629127502" lon="34.920822144">
<ele>442.070313</ele>
<time>2013-11-22T11:54:24Z</time>
<speed>4.220000</speed>
<extensions>
<speed>4.2</speed>
<temp>0.00</temp>
<bpm>0</bpm>
<rpm>0.00</rpm>
</extensions>
</trkpt>
<trkpt lat="30.628936768" lon="34.920841217">
<ele>440.312500</ele>
<time>2013-11-22T11:54:29Z</time>
<speed>3.730000</speed>
<extensions>
<speed>3.7</speed>
<temp>0.00</temp>
<bpm>0</bpm>
<rpm>0.00</rpm>
</extensions>
</trkpt>
<trkpt lat="30.628883362" lon="34.920825958">
<ele>440.460938</ele>
<time>2013-11-22T11:54:34Z</time>
<speed>0.040000</speed>
<extensions>
<speed>0.0</speed>
<temp>0.00</temp>
<bpm>0</bpm>
<rpm>0.00</rpm>
</extensions>
</trkpt>
<trkpt lat="30.628885269" lon="34.920825958">
<ele>440.468750</ele>
<time>2013-11-22T11:54:39Z</time>
<speed>0.030000</speed>
<extensions>
<speed>0.0</speed>
<temp>0.00</temp>
<bpm>0</bpm>
<rpm>0.00</rpm>
</extensions>
</trkpt>
<trkpt lat="30.628885269" lon="34.920825958">
<ele>440.406250</ele>
<time>2013-11-22T11:54:44Z</time>
<extensions>
<speed>0.0</speed>
<temp>0.00</temp>
<bpm>0</bpm>
<rpm>0.00</rpm>
</extensions>
</trkpt>
<trkpt lat="30.628885269" lon="34.920825958">
<ele>440.359375</ele>
<time>2013-11-22T11:54:49Z</time>
<speed>0.020000</speed>
<extensions>
<speed>0.0</speed>
<temp>0.00</temp>
<bpm>0</bpm>
<rpm>0.00</rpm>
</extensions>
</trkpt>
<trkpt lat="30.628887177" lon="34.920825958">
<ele>440.554688</ele>
<time>2013-11-22T11:54:54Z</time>
<speed>0.010000</speed>
<extensions>
<speed>0.0</speed>
<temp>0.00</temp>
<bpm>0</bpm>
<rpm>0.00</rpm>
</extensions>
</trkpt>
<trkpt lat="30.628887177" lon="34.920825958">
<ele>440.507813</ele>
<time>2013-11-22T11:54:59Z</time>
<speed>0.010000</speed>
<extensions>
<speed>0.0</speed>
<temp>0.00</temp>
<bpm>0</bpm>
<rpm>0.00</rpm>
</extensions>
</trkpt>
<trkpt lat="30.628887177" lon="34.920822144">
<ele>440.523438</ele>
<time>2013-11-22T11:55:04Z</time>
<speed>0.040000</speed>
<extensions>
<speed>0.0</speed>
<temp>0.00</temp>
<bpm>0</bpm>
<rpm>0.00</rpm>
</extensions>
</trkpt>
<trkpt lat="30.628883362" lon="34.920822144">
<ele>440.562500</ele>
<time>2013-11-22T11:55:09Z</time>
<speed>0.040000</speed>
<extensions>
<speed>0.0</speed>
<temp>0.00</temp>
<bpm>0</bpm>
<rpm>0.00</rpm>
</extensions>
</trkpt>
<trkpt lat="30.628885269" lon="34.920822144">
<ele>440.562500</ele>
<time>2013-11-22T11:55:14Z</time>
<speed>0.070000</speed>
<extensions>
<speed>0.1</speed>
<temp>0.00</temp>
<bpm>0</bpm>
<rpm>0.00</rpm>
</extensions>
</trkpt>
<trkpt lat="30.628885269" lon="34.920818329">
<ele>440.585938</ele>
<time>2013-11-22T11:55:19Z</time>
<speed>0.020000</speed>
<extensions>
<speed>0.0</speed>
<temp>0.00</temp>
<bpm>0</bpm>
<rpm>0.00</rpm>
</extensions>
</trkpt>
<trkpt lat="30.628885269" lon="34.920818329">
<ele>440.617188</ele>
<time>2013-11-22T11:55:24Z</time>
<speed>0.050000</speed>
<extensions>
<speed>0.1</speed>
<temp>0.00</temp>
<bpm>0</bpm>
<rpm>0.00</rpm>
</extensions>
</trkpt>
<trkpt lat="30.628885269" lon="34.920818329">
<ele>440.640625</ele>
<time>2013-11-22T11:55:29Z</time>
<extensions>
<speed>0.0</speed>
<temp>0.00</temp>
<bpm>0</bpm>
<rpm>0.00</rpm>
</extensions>
</trkpt>
<trkpt lat="30.628885269" lon="34.920818329">
<ele>440.648438</ele>
<time>2013-11-22T11:55:34Z</time>
<speed>0.050000</speed>
<extensions>
<speed>0.1</speed>
<temp>0.00</temp>
<bpm>0</bpm>
<rpm>0.00</rpm>
</extensions>
</trkpt>
<trkpt lat="30.628887177" lon="34.920818329">
<ele>440.585938</ele>
<time>2013-11-22T11:55:39Z</time>
<speed>0.050000</speed>
<extensions>
<speed>0.1</speed>
<temp>0.00</temp>
<bpm>0</bpm>
<rpm>0.00</rpm>
</extensions>
</trkpt>
<trkpt lat="30.628889084" lon="34.920818329">
<ele>440.703125</ele>
<time>2013-11-22T11:55:44Z</time>
<extensions>
<speed>0.0</speed>
<temp>0.00</temp>
<bpm>0</bpm>
<rpm>0.00</rpm>
</extensions>
</trkpt>
<trkpt lat="30.628883362" lon="34.920814514">
<ele>441.992188</ele>
<time>2013-11-22T11:55:49Z</time>
<extensions>
<speed>0.0</speed>
<temp>0.00</temp>
<bpm>0</bpm>
<rpm>0.00</rpm>
</extensions>
</trkpt>
<trkpt lat="30.628879547" lon="34.920810699">
<ele>443.523438</ele>
<time>2013-11-22T11:55:54Z</time>
<extensions>
<speed>0.0</speed>
<temp>0.00</temp>
<bpm>0</bpm>
<rpm>0.00</rpm>
</extensions>
</trkpt>
<trkpt lat="30.628877640" lon="34.920806885">
<ele>444.437500</ele>
<time>2013-11-22T11:55:59Z</time>
<extensions>
<speed>0.0</speed>
<temp>0.00</temp>
<bpm>0</bpm>
<rpm>0.00</rpm>
</extensions>
</trkpt>
<trkpt lat="30.628875732" lon="34.920806885">
<ele>444.718750</ele>
<time>2013-11-22T11:56:04Z</time>
<extensions>
<speed>0.0</speed>
<temp>0.00</temp>
<bpm>0</bpm>
<rpm>0.00</rpm>
</extensions>
</trkpt>
<trkpt lat="30.628873825" lon="34.920806885">
<ele>445.359375</ele>
<time>2013-11-22T11:56:09Z</time>
<speed>0.010000</speed>
<extensions>
<speed>0.0</speed>
<temp>0.00</temp>
<bpm>0</bpm>
<rpm>0.00</rpm>
</extensions>
</trkpt>
<trkpt lat="30.628852844" lon="34.920814514">
<ele>445.765625</ele>
<time>2013-11-22T11:56:14Z</time>
<speed>1.520000</speed>
<extensions>
<speed>1.5</speed>
<temp>0.00</temp>
<bpm>0</bpm>
<rpm>0.00</rpm>
</extensions>
</trkpt>
<trkpt lat="30.628774643" lon="34.920822144">
<ele>445.390625</ele>
<time>2013-11-22T11:56:19Z</time>
<speed>2.000000</speed>
<extensions>
<speed>2.0</speed>
<temp>0.00</temp>
<bpm>0</bpm>
<rpm>0.00</rpm>
</extensions>
</trkpt>
<trkpt lat="30.628656387" lon="34.920829773">
<ele>443.992188</ele>
<time>2013-11-22T11:56:24Z</time>
<speed>3.370000</speed>
<extensions>
<speed>3.4</speed>
<temp>0.00</temp>
<bpm>0</bpm>
<rpm>0.00</rpm>
</extensions>
</trkpt>
<trkpt lat="30.628480911" lon="34.920841217">
<ele>441.875000</ele>
<time>2013-11-22T11:56:29Z</time>
<speed>4.590000</speed>
<extensions>
<speed>4.6</speed>
<temp>0.00</temp>
<bpm>0</bpm>
<rpm>0.00</rpm>
</extensions>
</trkpt>
<trkpt lat="30.628311157" lon="34.920841217">
<ele>440.484375</ele>
<time>2013-11-22T11:56:34Z</time>
<speed>3.280000</speed>
<extensions>
<speed>3.3</speed>
<temp>0.00</temp>
<bpm>0</bpm>
<rpm>0.00</rpm>
</extensions>
</trkpt>
<trkpt lat="30.628137589" lon="34.920852661">
<ele>439.312500</ele>
<time>2013-11-22T11:56:39Z</time>
<speed>3.670000</speed>
<extensions>
<speed>3.7</speed>
<temp>0.00</temp>
<bpm>0</bpm>
<rpm>0.00</rpm>
</extensions>
</trkpt>
<trkpt lat="30.628000259" lon="34.920856476">
<ele>441.023438</ele>
<time>2013-11-22T11:56:44Z</time>
<speed>3.170000</speed>
<extensions>
<speed>3.2</speed>
<temp>0.00</temp>
<bpm>0</bpm>
<rpm>0.00</rpm>
</extensions>
</trkpt>
<trkpt lat="30.627866745" lon="34.920864105">
<ele>441.968750</ele>
<time>2013-11-22T11:56:49Z</time>
<speed>3.260000</speed>
<extensions>
<speed>3.3</speed>
<temp>0.00</temp>
<bpm>0</bpm>
<rpm>0.00</rpm>
</extensions>
</trkpt>
<trkpt lat="30.627714157" lon="34.920871735">
<ele>440.445313</ele>
<time>2013-11-22T11:56:54Z</time>
<speed>3.230000</speed>
<extensions>
<speed>3.2</speed>
<temp>0.00</temp>
<bpm>0</bpm>
<rpm>0.00</rpm>
</extensions>
</trkpt>
<trkpt lat="30.627542496" lon="34.920886993">
<ele>437.726563</ele>
<time>2013-11-22T11:56:59Z</time>
<speed>3.700000</speed>
<extensions>
<speed>3.7</speed>
<temp>0.00</temp>
<bpm>0</bpm>
<rpm>0.00</rpm>
</extensions>
</trkpt>
<trkpt lat="30.627368927" lon="34.920902252">
<ele>438.539063</ele>
<time>2013-11-22T11:57:04Z</time>
<speed>3.890000</speed>
<extensions>
<speed>3.9</speed>
<temp>0.00</temp>
<bpm>0</bpm>
<rpm>0.00</rpm>
</extensions>
</trkpt>
<trkpt lat="30.627183914" lon="34.920917511">
<ele>436.867188</ele>
<time>2013-11-22T11:57:09Z</time>
<speed>3.770000</speed>
<extensions>
<speed>3.8</speed>
<temp>0.00</temp>
<bpm>0</bpm>
<rpm>0.00</rpm>
</extensions>
</trkpt>
<trkpt lat="30.626991272" lon="34.920932770">
<ele>436.421875</ele>
<time>2013-11-22T11:57:14Z</time>
<speed>4.770000</speed>
<extensions>
<speed>4.8</speed>
<temp>0.00</temp>
<bpm>0</bpm>
<rpm>0.00</rpm>
</extensions>
</trkpt>
<trkpt lat="30.626792908" lon="34.920944214">
<ele>436.062500</ele>
<time>2013-11-22T11:57:19Z</time>
<speed>4.690000</speed>
<extensions>
<speed>4.7</speed>
<temp>0.00</temp>
<bpm>0</bpm>
<rpm>0.00</rpm>
</extensions>
</trkpt>
<trkpt lat="30.626575470" lon="34.920944214">
<ele>435.296875</ele>
<time>2013-11-22T11:57:24Z</time>
<speed>4.790000</speed>
<extensions>
<speed>4.8</speed>
<temp>0.00</temp>
<bpm>0</bpm>
<rpm>0.00</rpm>
</extensions>
</trkpt>
<trkpt lat="30.626375198" lon="34.920955658">
<ele>436.226563</ele>
<time>2013-11-22T11:57:29Z</time>
<speed>4.220000</speed>
<extensions>
<speed>4.2</speed>
<temp>0.00</temp>
<bpm>0</bpm>
<rpm>0.00</rpm>
</extensions>
</trkpt>
<trkpt lat="30.626171112" lon="34.920963287">
<ele>435.578125</ele>
<time>2013-11-22T11:57:34Z</time>
<speed>4.410000</speed>
<extensions>
<speed>4.4</speed>
<temp>0.00</temp>
<bpm>0</bpm>
<rpm>0.00</rpm>
</extensions>
</trkpt>
<trkpt lat="30.626033783" lon="34.920974731">
<ele>436.726563</ele>
<time>2013-11-22T11:57:39Z</time>
<speed>1.990000</speed>
<extensions>
<speed>2.0</speed>
<temp>0.00</temp>
<bpm>0</bpm>
<rpm>0.00</rpm>
</extensions>
</trkpt>
<trkpt lat="30.625949860" lon="34.920986176">
<ele>438.601563</ele>
<time>2013-11-22T11:57:44Z</time>
<speed>2.160000</speed>
<extensions>
<speed>2.2</speed>
<temp>0.00</temp>
<bpm>0</bpm>
<rpm>0.00</rpm>
</extensions>
</trkpt>
<trkpt lat="30.625833511" lon="34.920989990">
<ele>439.117188</ele>
<time>2013-11-22T11:57:49Z</time>
<speed>2.590000</speed>
<extensions>
<speed>2.6</speed>
<temp>0.00</temp>
<bpm>0</bpm>
<rpm>0.00</rpm>
</extensions>
</trkpt>
<trkpt lat="30.625709534" lon="34.920986176">
<ele>439.585938</ele>
<time>2013-11-22T11:57:54Z</time>
<speed>3.180000</speed>
<extensions>
<speed>3.2</speed>
<temp>0.00</temp>
<bpm>0</bpm>
<rpm>0.00</rpm>
</extensions>
</trkpt>
<trkpt lat="30.625558853" lon="34.920997620">
<ele>440.492188</ele>
<time>2013-11-22T11:57:59Z</time>
<speed>3.380000</speed>
<extensions>
<speed>3.4</speed>
<temp>0.00</temp>
<bpm>0</bpm>
<rpm>0.00</rpm>
</extensions>
</trkpt>
<trkpt lat="30.625429153" lon="34.921012878">
<ele>440.601563</ele>
<time>2013-11-22T11:58:04Z</time>
<speed>3.220000</speed>
<extensions>
<speed>3.2</speed>
<temp>0.00</temp>
<bpm>0</bpm>
<rpm>0.00</rpm>
</extensions>
</trkpt>
<trkpt lat="30.625288010" lon="34.921016693">
<ele>441.164063</ele>
<time>2013-11-22T11:58:09Z</time>
<speed>3.530000</speed>
<extensions>
<speed>3.5</speed>
<temp>0.00</temp>
<bpm>0</bpm>
<rpm>0.00</rpm>
</extensions>
</trkpt>
<trkpt lat="30.625131607" lon="34.921016693">
<ele>441.281250</ele>
<time>2013-11-22T11:58:14Z</time>
<speed>3.800000</speed>
<extensions>
<speed>3.8</speed>
<temp>0.00</temp>
<bpm>0</bpm>
<rpm>0.00</rpm>
</extensions>
</trkpt>
<trkpt lat="30.624948502" lon="34.921024323">
<ele>441.210938</ele>
<time>2013-11-22T11:58:19Z</time>
<speed>3.910000</speed>
<extensions>
<speed>3.9</speed>
<temp>0.00</temp>
<bpm>0</bpm>
<rpm>0.00</rpm>
</extensions>
</trkpt>
<trkpt lat="30.624786377" lon="34.921031952">
<ele>441.468750</ele>
<time>2013-11-22T11:58:24Z</time>
<speed>3.380000</speed>
<extensions>
<speed>3.4</speed>
<temp>0.00</temp>
<bpm>0</bpm>
<rpm>0.00</rpm>
</extensions>
</trkpt>
<trkpt lat="30.624628067" lon="34.921043396">
<ele>440.796875</ele>
<time>2013-11-22T11:58:29Z</time>
<speed>3.140000</speed>
<extensions>
<speed>3.1</speed>
<temp>0.00</temp>
<bpm>0</bpm>
<rpm>0.00</rpm>
</extensions>
</trkpt>
<trkpt lat="30.624504089" lon="34.921051025">
<ele>440.382813</ele>
<time>2013-11-22T11:58:34Z</time>
<speed>2.360000</speed>
<extensions>
<speed>2.4</speed>
<temp>0.00</temp>
<bpm>0</bpm>
<rpm>0.00</rpm>
</extensions>
</trkpt>
<trkpt lat="30.624361038" lon="34.921043396">
<ele>440.054688</ele>
<time>2013-11-22T11:58:39Z</time>
<speed>4.320000</speed>
<extensions>
<speed>4.3</speed>
<temp>0.00</temp>
<bpm>0</bpm>
<rpm>0.00</rpm>
</extensions>
</trkpt>
<trkpt lat="30.624137878" lon="34.921058655">
<ele>438.085938</ele>
<time>2013-11-22T11:58:44Z</time>
<speed>4.930000</speed>
<extensions>
<speed>4.9</speed>
<temp>0.00</temp>
<bpm>0</bpm>
<rpm>0.00</rpm>
</extensions>
</trkpt>
<trkpt lat="30.623912811" lon="34.921070099">
<ele>436.875000</ele>
<time>2013-11-22T11:58:49Z</time>
<speed>5.080000</speed>
<extensions>
<speed>5.1</speed>
<temp>0.00</temp>
<bpm>0</bpm>
<rpm>0.00</rpm>
</extensions>
</trkpt>
<trkpt lat="30.623657227" lon="34.921085358">
<ele>436.210938</ele>
<time>2013-11-22T11:58:54Z</time>
<speed>5.530000</speed>
<extensions>
<speed>5.5</speed>
<temp>0.00</temp>
<bpm>0</bpm>
<rpm>0.00</rpm>
</extensions>
</trkpt>
<trkpt lat="30.623426437" lon="34.921092987">
<ele>435.039063</ele>
<time>2013-11-22T11:58:59Z</time>
<speed>5.100000</speed>
<extensions>
<speed>5.1</speed>
<temp>0.00</temp>
<bpm>0</bpm>
<rpm>0.00</rpm>
</extensions>
</trkpt>
<trkpt lat="30.623170853" lon="34.921100616">
<ele>434.539063</ele>
<time>2013-11-22T11:59:04Z</time>
<speed>5.690000</speed>
<extensions>
<speed>5.7</speed>
<temp>0.00</temp>
<bpm>0</bpm>
<rpm>0.00</rpm>
</extensions>
</trkpt>
<trkpt lat="30.622938156" lon="34.921096802">
<ele>433.984375</ele>
<time>2013-11-22T11:59:09Z</time>
<speed>5.040000</speed>
<extensions>
<speed>5.0</speed>
<temp>0.00</temp>
<bpm>0</bpm>
<rpm>0.00</rpm>
</extensions>
</trkpt>
<trkpt lat="30.622694016" lon="34.921112061">
<ele>433.515625</ele>
<time>2013-11-22T11:59:14Z</time>
<speed>5.610000</speed>
<extensions>
<speed>5.6</speed>
<temp>0.00</temp>
<bpm>0</bpm>
<rpm>0.00</rpm>
</extensions>
</trkpt>
<trkpt lat="30.622451782" lon="34.921131134">
<ele>432.671875</ele>
<time>2013-11-22T11:59:19Z</time>
<speed>5.060000</speed>
<extensions>
<speed>5.1</speed>
<temp>0.00</temp>
<bpm>0</bpm>
<rpm>0.00</rpm>
</extensions>
</trkpt>
<trkpt lat="30.622217178" lon="34.921150208">
<ele>432.804688</ele>
<time>2013-11-22T11:59:24Z</time>
<speed>5.420000</speed>
<extensions>
<speed>5.4</speed>
<temp>0.00</temp>
<bpm>0</bpm>
<rpm>0.00</rpm>
</extensions>
</trkpt>
<trkpt lat="30.621999741" lon="34.921134949">
<ele>431.960938</ele>
<time>2013-11-22T11:59:29Z</time>
<speed>4.600000</speed>
<extensions>
<speed>4.6</speed>
<temp>0.00</temp>
<bpm>0</bpm>
<rpm>0.00</rpm>
</extensions>
</trkpt>
<trkpt lat="30.621795654" lon="34.921096802">
<ele>432.593750</ele>
<time>2013-11-22T11:59:34Z</time>
<speed>5.020000</speed>
<extensions>
<speed>5.0</speed>
<temp>0.00</temp>
<bpm>0</bpm>
<rpm>0.00</rpm>
</extensions>
</trkpt>
<trkpt lat="30.621585846" lon="34.921043396">
<ele>433.078125</ele>
<time>2013-11-22T11:59:39Z</time>
<speed>4.530000</speed>
<extensions>
<speed>4.5</speed>
<temp>0.00</temp>
<bpm>0</bpm>
<rpm>0.00</rpm>
</extensions>
</trkpt>
<trkpt lat="30.621400833" lon="34.920986176">
<ele>434.968750</ele>
<time>2013-11-22T11:59:44Z</time>
<speed>4.070000</speed>
<extensions>
<speed>4.1</speed>
<temp>0.00</temp>
<bpm>0</bpm>
<rpm>0.00</rpm>
</extensions>
</trkpt>
<trkpt lat="30.621294022" lon="34.920932770">
<ele>433.953125</ele>
<time>2013-11-22T11:59:49Z</time>
<speed>2.350000</speed>
<extensions>
<speed>2.4</speed>
<temp>0.00</temp>
<bpm>0</bpm>
<rpm>0.00</rpm>
</extensions>
</trkpt>
<trkpt lat="30.621187210" lon="34.920860291">
<ele>433.578125</ele>
<time>2013-11-22T11:59:54Z</time>
<speed>2.810000</speed>
<extensions>
<speed>2.8</speed>
<temp>0.00</temp>
<bpm>0</bpm>
<rpm>0.00</rpm>
</extensions>
</trkpt>
<trkpt lat="30.621047974" lon="34.920795441">
<ele>432.421875</ele>
<time>2013-11-22T11:59:59Z</time>
<speed>3.820000</speed>
<extensions>
<speed>3.8</speed>
<temp>0.00</temp>
<bpm>0</bpm>
<rpm>0.00</rpm>
</extensions>
</trkpt>
<trkpt lat="30.620883942" lon="34.920722961">
<ele>432.531250</ele>
<time>2013-11-22T12:00:04Z</time>
<speed>3.890000</speed>
<extensions>
<speed>3.9</speed>
<temp>0.00</temp>
<bpm>0</bpm>
<rpm>0.00</rpm>
</extensions>
</trkpt>
<trkpt lat="30.620805740" lon="34.920597076">
<ele>429.593750</ele>
<time>2013-11-22T12:00:09Z</time>
<speed>3.240000</speed>
<extensions>
<speed>3.2</speed>
<temp>0.00</temp>
<bpm>0</bpm>
<rpm>0.00</rpm>
</extensions>
</trkpt>
<trkpt lat="30.620853424" lon="34.920444489">
<ele>427.703125</ele>
<time>2013-11-22T12:00:14Z</time>
<speed>3.510000</speed>
<extensions>
<speed>3.5</speed>
<temp>0.00</temp>
<bpm>0</bpm>
<rpm>0.00</rpm>
</extensions>
</trkpt>
<trkpt lat="30.620923996" lon="34.920288086">
<ele>425.859375</ele>
<time>2013-11-22T12:00:19Z</time>
<speed>3.140000</speed>
<extensions>
<speed>3.1</speed>
<temp>0.00</temp>
<bpm>0</bpm>
<rpm>0.00</rpm>
</extensions>
</trkpt>
<trkpt lat="30.620977402" lon="34.920169830">
<ele>425.414063</ele>
<time>2013-11-22T12:00:24Z</time>
<speed>2.060000</speed>
<extensions>
<speed>2.1</speed>
<temp>0.00</temp>
<bpm>0</bpm>
<rpm>0.00</rpm>
</extensions>
</trkpt>
<trkpt lat="30.621013641" lon="34.920085907">
<ele>424.835938</ele>
<time>2013-11-22T12:00:29Z</time>
<speed>1.550000</speed>
<extensions>
<speed>1.5</speed>
<temp>0.00</temp>
<bpm>0</bpm>
<rpm>0.00</rpm>
</extensions>
</trkpt>
<trkpt lat="30.621006012" lon="34.920021057">
<ele>427.187500</ele>
<time>2013-11-22T12:00:34Z</time>
<speed>1.270000</speed>
<extensions>
<speed>1.3</speed>
<temp>0.00</temp>
<bpm>0</bpm>
<rpm>0.00</rpm>
</extensions>
</trkpt>
<trkpt lat="30.620927811" lon="34.919986725">
<ele>430.328125</ele>
<time>2013-11-22T12:00:39Z</time>
<speed>1.240000</speed>
<extensions>
<speed>1.2</speed>
<temp>0.00</temp>
<bpm>0</bpm>
<rpm>0.00</rpm>
</extensions>
</trkpt>
<trkpt lat="30.620841980" lon="34.919925690">
<ele>429.796875</ele>
<time>2013-11-22T12:00:44Z</time>
<speed>2.990000</speed>
<extensions>
<speed>3.0</speed>
<temp>0.00</temp>
<bpm>0</bpm>
<rpm>0.00</rpm>
</extensions>
</trkpt>
<trkpt lat="30.620725632" lon="34.919864655">
<ele>431.421875</ele>
<time>2013-11-22T12:00:49Z</time>
<speed>2.590000</speed>
<extensions>
<speed>2.6</speed>
<temp>0.00</temp>
<bpm>0</bpm>
<rpm>0.00</rpm>
</extensions>
</trkpt>
<trkpt lat="30.620586395" lon="34.919818878">
<ele>431.929688</ele>
<time>2013-11-22T12:00:54Z</time>
<speed>2.880000</speed>
<extensions>
<speed>2.9</speed>
<temp>0.00</temp>
<bpm>0</bpm>
<rpm>0.00</rpm>
</extensions>
</trkpt>
<trkpt lat="30.620445251" lon="34.919784546">
<ele>433.921875</ele>
<time>2013-11-22T12:00:59Z</time>
<speed>3.280000</speed>
<extensions>
<speed>3.3</speed>
<temp>0.00</temp>
<bpm>0</bpm>
<rpm>0.00</rpm>
</extensions>
</trkpt>
<trkpt lat="30.620292664" lon="34.919765472">
<ele>434.093750</ele>
<time>2013-11-22T12:01:04Z</time>
<speed>1.720000</speed>
<extensions>
<speed>1.7</speed>
<temp>0.00</temp>
<bpm>0</bpm>
<rpm>0.00</rpm>
</extensions>
</trkpt>
<trkpt lat="30.620178223" lon="34.919761658">
<ele>434.570313</ele>
<time>2013-11-22T12:01:09Z</time>
<speed>3.140000</speed>
<extensions>
<speed>3.1</speed>
<temp>0.00</temp>
<bpm>0</bpm>
<rpm>0.00</rpm>
</extensions>
</trkpt>
<trkpt lat="30.620040894" lon="34.919734955">
<ele>434.835938</ele>
<time>2013-11-22T12:01:14Z</time>
<speed>2.040000</speed>
<extensions>
<speed>2.0</speed>
<temp>0.00</temp>
<bpm>0</bpm>
<rpm>0.00</rpm>
</extensions>
</trkpt>
<trkpt lat="30.619964600" lon="34.919765472">
<ele>435.507813</ele>
<time>2013-11-22T12:01:19Z</time>
<speed>1.480000</speed>
<extensions>
<speed>1.5</speed>
<temp>0.00</temp>
<bpm>0</bpm>
<rpm>0.00</rpm>
</extensions>
</trkpt>
<trkpt lat="30.619907379" lon="34.919784546">
<ele>436.898438</ele>
<time>2013-11-22T12:01:24Z</time>
<speed>0.790000</speed>
<extensions>
<speed>0.8</speed>
<temp>0.00</temp>
<bpm>0</bpm>
<rpm>0.00</rpm>
</extensions>
</trkpt>
<trkpt lat="30.619911194" lon="34.919834137">
<ele>437.867188</ele>
<time>2013-11-22T12:01:29Z</time>
<speed>1.230000</speed>
<extensions>
<speed>1.2</speed>
<temp>0.00</temp>
<bpm>0</bpm>
<rpm>0.00</rpm>
</extensions>
</trkpt>
<trkpt lat="30.619968414" lon="34.919841766">
<ele>438.179688</ele>
<time>2013-11-22T12:01:34Z</time>
<speed>0.940000</speed>
<extensions>
<speed>0.9</speed>
<temp>0.00</temp>
<bpm>0</bpm>
<rpm>0.00</rpm>
</extensions>
</trkpt>
<trkpt lat="30.619955063" lon="34.919830322">
<ele>438.140625</ele>
<time>2013-11-22T12:01:39Z</time>
<speed>0.180000</speed>
<extensions>
<speed>0.2</speed>
<temp>0.00</temp>
<bpm>0</bpm>
<rpm>0.00</rpm>
</extensions>
</trkpt>
<trkpt lat="30.619955063" lon="34.919830322">
<ele>437.898438</ele>
<time>2013-11-22T12:01:44Z</time>
<speed>0.010000</speed>
<extensions>
<speed>0.0</speed>
<temp>0.00</temp>
<bpm>0</bpm>
<rpm>0.00</rpm>
</extensions>
</trkpt>
<trkpt lat="30.619955063" lon="34.919830322">
<ele>437.781250</ele>
<time>2013-11-22T12:01:49Z</time>
<speed>0.020000</speed>
<extensions>
<speed>0.0</speed>
<temp>0.00</temp>
<bpm>0</bpm>
<rpm>0.00</rpm>
</extensions>
</trkpt>
<trkpt lat="30.619955063" lon="34.919830322">
<ele>437.820313</ele>
<time>2013-11-22T12:01:54Z</time>
<extensions>
<speed>0.0</speed>
<temp>0.00</temp>
<bpm>0</bpm>
<rpm>0.00</rpm>
</extensions>
</trkpt>
<trkpt lat="30.619955063" lon="34.919830322">
<ele>437.835938</ele>
<time>2013-11-22T12:01:59Z</time>
<speed>0.010000</speed>
<extensions>
<speed>0.0</speed>
<temp>0.00</temp>
<bpm>0</bpm>
<rpm>0.00</rpm>
</extensions>
</trkpt>
<trkpt lat="30.619955063" lon="34.919830322">
<ele>437.843750</ele>
<time>2013-11-22T12:02:04Z</time>
<extensions>
<speed>0.0</speed>
<temp>0.00</temp>
<bpm>0</bpm>
<rpm>0.00</rpm>
</extensions>
</trkpt>
<trkpt lat="30.619955063" lon="34.919830322">
<ele>437.859375</ele>
<time>2013-11-22T12:02:09Z</time>
<extensions>
<speed>0.0</speed>
<temp>0.00</temp>
<bpm>0</bpm>
<rpm>0.00</rpm>
</extensions>
</trkpt>
<trkpt lat="30.619955063" lon="34.919830322">
<ele>437.867188</ele>
<time>2013-11-22T12:02:14Z</time>
<speed>0.010000</speed>
<extensions>
<speed>0.0</speed>
<temp>0.00</temp>
<bpm>0</bpm>
<rpm>0.00</rpm>
</extensions>
</trkpt>
<trkpt lat="30.619955063" lon="34.919830322">
<ele>437.875000</ele>
<time>2013-11-22T12:02:19Z</time>
<extensions>
<speed>0.0</speed>
<temp>0.00</temp>
<bpm>0</bpm>
<rpm>0.00</rpm>
</extensions>
</trkpt>
<trkpt lat="30.619955063" lon="34.919830322">
<ele>437.875000</ele>
<time>2013-11-22T12:02:24Z</time>
<extensions>
<speed>0.0</speed>
<temp>0.00</temp>
<bpm>0</bpm>
<rpm>0.00</rpm>
</extensions>
</trkpt>
<trkpt lat="30.619955063" lon="34.919830322">
<ele>437.890625</ele>
<time>2013-11-22T12:02:29Z</time>
<extensions>
<speed>0.0</speed>
<temp>0.00</temp>
<bpm>0</bpm>
<rpm>0.00</rpm>
</extensions>
</trkpt>
<trkpt lat="30.619955063" lon="34.919830322">
<ele>437.906250</ele>
<time>2013-11-22T12:02:34Z</time>
<speed>0.010000</speed>
<extensions>
<speed>0.0</speed>
<temp>0.00</temp>
<bpm>0</bpm>
<rpm>0.00</rpm>
</extensions>
</trkpt>
<trkpt lat="30.619955063" lon="34.919830322">
<ele>437.929688</ele>
<time>2013-11-22T12:02:39Z</time>
<speed>0.010000</speed>
<extensions>
<speed>0.0</speed>
<temp>0.00</temp>
<bpm>0</bpm>
<rpm>0.00</rpm>
</extensions>
</trkpt>
<trkpt lat="30.619955063" lon="34.919830322">
<ele>437.945313</ele>
<time>2013-11-22T12:02:44Z</time>
<extensions>
<speed>0.0</speed>
<temp>0.00</temp>
<bpm>0</bpm>
<rpm>0.00</rpm>
</extensions>
</trkpt>
<trkpt lat="30.619955063" lon="34.919830322">
<ele>437.968750</ele>
<time>2013-11-22T12:02:49Z</time>
<extensions>
<speed>0.0</speed>
<temp>0.00</temp>
<bpm>0</bpm>
<rpm>0.00</rpm>
</extensions>
</trkpt>
<trkpt lat="30.619955063" lon="34.919830322">
<ele>437.976563</ele>
<time>2013-11-22T12:02:54Z</time>
<speed>0.010000</speed>
<extensions>
<speed>0.0</speed>
<temp>0.00</temp>
<bpm>0</bpm>
<rpm>0.00</rpm>
</extensions>
</trkpt>
<trkpt lat="30.619955063" lon="34.919830322">
<ele>437.984375</ele>
<time>2013-11-22T12:02:59Z</time>
<extensions>
<speed>0.0</speed>
<temp>0.00</temp>
<bpm>0</bpm>
<rpm>0.00</rpm>
</extensions>
</trkpt>
<trkpt lat="30.619955063" lon="34.919830322">
<ele>438.000000</ele>
<time>2013-11-22T12:03:04Z</time>
<extensions>
<speed>0.0</speed>
<temp>0.00</temp>
<bpm>0</bpm>
<rpm>0.00</rpm>
</extensions>
</trkpt>
<trkpt lat="30.619955063" lon="34.919830322">
<ele>438.007813</ele>
<time>2013-11-22T12:03:09Z</time>
<extensions>
<speed>0.0</speed>
<temp>0.00</temp>
<bpm>0</bpm>
<rpm>0.00</rpm>
</extensions>
</trkpt>
<trkpt lat="30.619955063" lon="34.919830322">
<ele>438.023438</ele>
<time>2013-11-22T12:03:14Z</time>
<extensions>
<speed>0.0</speed>
<temp>0.00</temp>
<bpm>0</bpm>
<rpm>0.00</rpm>
</extensions>
</trkpt>
<trkpt lat="30.619955063" lon="34.919830322">
<ele>438.023438</ele>
<time>2013-11-22T12:03:19Z</time>
<extensions>
<speed>0.0</speed>
<temp>0.00</temp>
<bpm>0</bpm>
<rpm>0.00</rpm>
</extensions>
</trkpt>
<trkpt lat="30.619955063" lon="34.919830322">
<ele>438.031250</ele>
<time>2013-11-22T12:03:24Z</time>
<extensions>
<speed>0.0</speed>
<temp>0.00</temp>
<bpm>0</bpm>
<rpm>0.00</rpm>
</extensions>
</trkpt>
<trkpt lat="30.619955063" lon="34.919830322">
<ele>438.031250</ele>
<time>2013-11-22T12:03:29Z</time>
<extensions>
<speed>0.0</speed>
<temp>0.00</temp>
<bpm>0</bpm>
<rpm>0.00</rpm>
</extensions>
</trkpt>
<trkpt lat="30.619955063" lon="34.919830322">
<ele>438.031250</ele>
<time>2013-11-22T12:03:34Z</time>
<extensions>
<speed>0.0</speed>
<temp>0.00</temp>
<bpm>0</bpm>
<rpm>0.00</rpm>
</extensions>
</trkpt>
<trkpt lat="30.619955063" lon="34.919830322">
<ele>438.039063</ele>
<time>2013-11-22T12:03:39Z</time>
<speed>0.010000</speed>
<extensions>
<speed>0.0</speed>
<temp>0.00</temp>
<bpm>0</bpm>
<rpm>0.00</rpm>
</extensions>
</trkpt>
<trkpt lat="30.619955063" lon="34.919830322">
<ele>438.039063</ele>
<time>2013-11-22T12:03:44Z</time>
<extensions>
<speed>0.0</speed>
<temp>0.00</temp>
<bpm>0</bpm>
<rpm>0.00</rpm>
</extensions>
</trkpt>
<trkpt lat="30.619955063" lon="34.919830322">
<ele>438.054688</ele>
<time>2013-11-22T12:03:49Z</time>
<extensions>
<speed>0.0</speed>
<temp>0.00</temp>
<bpm>0</bpm>
<rpm>0.00</rpm>
</extensions>
</trkpt>
<trkpt lat="30.619955063" lon="34.919830322">
<ele>438.062500</ele>
<time>2013-11-22T12:03:54Z</time>
<extensions>
<speed>0.0</speed>
<temp>0.00</temp>
<bpm>0</bpm>
<rpm>0.00</rpm>
</extensions>
</trkpt>
<trkpt lat="30.619955063" lon="34.919830322">
<ele>438.078125</ele>
<time>2013-11-22T12:03:59Z</time>
<extensions>
<speed>0.0</speed>
<temp>0.00</temp>
<bpm>0</bpm>
<rpm>0.00</rpm>
</extensions>
</trkpt>
<trkpt lat="30.619955063" lon="34.919830322">
<ele>438.093750</ele>
<time>2013-11-22T12:04:04Z</time>
<extensions>
<speed>0.0</speed>
<temp>0.00</temp>
<bpm>0</bpm>
<rpm>0.00</rpm>
</extensions>
</trkpt>
<trkpt lat="30.619955063" lon="34.919830322">
<ele>438.101563</ele>
<time>2013-11-22T12:04:09Z</time>
<speed>0.010000</speed>
<extensions>
<speed>0.0</speed>
<temp>0.00</temp>
<bpm>0</bpm>
<rpm>0.00</rpm>
</extensions>
</trkpt>
<trkpt lat="30.619955063" lon="34.919826508">
<ele>438.093750</ele>
<time>2013-11-22T12:04:14Z</time>
<extensions>
<speed>0.0</speed>
<temp>0.00</temp>
<bpm>0</bpm>
<rpm>0.00</rpm>
</extensions>
</trkpt>
<trkpt lat="30.619955063" lon="34.919826508">
<ele>438.093750</ele>
<time>2013-11-22T12:04:19Z</time>
<extensions>
<speed>0.0</speed>
<temp>0.00</temp>
<bpm>0</bpm>
<rpm>0.00</rpm>
</extensions>
</trkpt>
<trkpt lat="30.619955063" lon="34.919826508">
<ele>438.093750</ele>
<time>2013-11-22T12:04:24Z</time>
<extensions>
<speed>0.0</speed>
<temp>0.00</temp>
<bpm>0</bpm>
<rpm>0.00</rpm>
</extensions>
</trkpt>
<trkpt lat="30.619955063" lon="34.919826508">
<ele>438.093750</ele>
<time>2013-11-22T12:04:29Z</time>
<speed>0.010000</speed>
<extensions>
<speed>0.0</speed>
<temp>0.00</temp>
<bpm>0</bpm>
<rpm>0.00</rpm>
</extensions>
</trkpt>
<trkpt lat="30.619955063" lon="34.919826508">
<ele>438.085938</ele>
<time>2013-11-22T12:04:34Z</time>
<extensions>
<speed>0.0</speed>
<temp>0.00</temp>
<bpm>0</bpm>
<rpm>0.00</rpm>
</extensions>
</trkpt>
<trkpt lat="30.619955063" lon="34.919826508">
<ele>438.085938</ele>
<time>2013-11-22T12:04:39Z</time>
<extensions>
<speed>0.0</speed>
<temp>0.00</temp>
<bpm>0</bpm>
<rpm>0.00</rpm>
</extensions>
</trkpt>
<trkpt lat="30.619955063" lon="34.919826508">
<ele>438.085938</ele>
<time>2013-11-22T12:04:44Z</time>
<extensions>
<speed>0.0</speed>
<temp>0.00</temp>
<bpm>0</bpm>
<rpm>0.00</rpm>
</extensions>
</trkpt>
<trkpt lat="30.619955063" lon="34.919826508">
<ele>438.093750</ele>
<time>2013-11-22T12:04:49Z</time>
<extensions>
<speed>0.0</speed>
<temp>0.00</temp>
<bpm>0</bpm>
<rpm>0.00</rpm>
</extensions>
</trkpt>
<trkpt lat="30.619955063" lon="34.919826508">
<ele>438.101563</ele>
<time>2013-11-22T12:04:54Z</time>
<extensions>
<speed>0.0</speed>
<temp>0.00</temp>
<bpm>0</bpm>
<rpm>0.00</rpm>
</extensions>
</trkpt>
<trkpt lat="30.619955063" lon="34.919826508">
<ele>438.117188</ele>
<time>2013-11-22T12:04:59Z</time>
<speed>0.010000</speed>
<extensions>
<speed>0.0</speed>
<temp>0.00</temp>
<bpm>0</bpm>
<rpm>0.00</rpm>
</extensions>
</trkpt>
<trkpt lat="30.619955063" lon="34.919826508">
<ele>438.132813</ele>
<time>2013-11-22T12:05:04Z</time>
<extensions>
<speed>0.0</speed>
<temp>0.00</temp>
<bpm>0</bpm>
<rpm>0.00</rpm>
</extensions>
</trkpt>
<trkpt lat="30.619955063" lon="34.919826508">
<ele>438.148438</ele>
<time>2013-11-22T12:05:09Z</time>
<extensions>
<speed>0.0</speed>
<temp>0.00</temp>
<bpm>0</bpm>
<rpm>0.00</rpm>
</extensions>
</trkpt>
<trkpt lat="30.619955063" lon="34.919826508">
<ele>438.171875</ele>
<time>2013-11-22T12:05:14Z</time>
<extensions>
<speed>0.0</speed>
<temp>0.00</temp>
<bpm>0</bpm>
<rpm>0.00</rpm>
</extensions>
</trkpt>
<trkpt lat="30.619955063" lon="34.919826508">
<ele>438.179688</ele>
<time>2013-11-22T12:05:19Z</time>
<extensions>
<speed>0.0</speed>
<temp>0.00</temp>
<bpm>0</bpm>
<rpm>0.00</rpm>
</extensions>
</trkpt>
<trkpt lat="30.619955063" lon="34.919826508">
<ele>438.195313</ele>
<time>2013-11-22T12:05:24Z</time>
<extensions>
<speed>0.0</speed>
<temp>0.00</temp>
<bpm>0</bpm>
<rpm>0.00</rpm>
</extensions>
</trkpt>
<trkpt lat="30.619955063" lon="34.919826508">
<ele>438.210938</ele>
<time>2013-11-22T12:05:29Z</time>
<speed>0.010000</speed>
<extensions>
<speed>0.0</speed>
<temp>0.00</temp>
<bpm>0</bpm>
<rpm>0.00</rpm>
</extensions>
</trkpt>
<trkpt lat="30.619955063" lon="34.919826508">
<ele>438.226563</ele>
<time>2013-11-22T12:05:34Z</time>
<speed>0.010000</speed>
<extensions>
<speed>0.0</speed>
<temp>0.00</temp>
<bpm>0</bpm>
<rpm>0.00</rpm>
</extensions>
</trkpt>
<trkpt lat="30.619955063" lon="34.919826508">
<ele>438.234375</ele>
<time>2013-11-22T12:05:39Z</time>
<extensions>
<speed>0.0</speed>
<temp>0.00</temp>
<bpm>0</bpm>
<rpm>0.00</rpm>
</extensions>
</trkpt>
<trkpt lat="30.619955063" lon="34.919826508">
<ele>438.250000</ele>
<time>2013-11-22T12:05:44Z</time>
<speed>0.010000</speed>
<extensions>
<speed>0.0</speed>
<temp>0.00</temp>
<bpm>0</bpm>
<rpm>0.00</rpm>
</extensions>
</trkpt>
<trkpt lat="30.619955063" lon="34.919826508">
<ele>438.265625</ele>
<time>2013-11-22T12:05:49Z</time>
<speed>0.010000</speed>
<extensions>
<speed>0.0</speed>
<temp>0.00</temp>
<bpm>0</bpm>
<rpm>0.00</rpm>
</extensions>
</trkpt>
<trkpt lat="30.619955063" lon="34.919826508">
<ele>438.281250</ele>
<time>2013-11-22T12:05:54Z</time>
<speed>0.010000</speed>
<extensions>
<speed>0.0</speed>
<temp>0.00</temp>
<bpm>0</bpm>
<rpm>0.00</rpm>
</extensions>
</trkpt>
<trkpt lat="30.619955063" lon="34.919826508">
<ele>438.296875</ele>
<time>2013-11-22T12:05:59Z</time>
<extensions>
<speed>0.0</speed>
<temp>0.00</temp>
<bpm>0</bpm>
<rpm>0.00</rpm>
</extensions>
</trkpt>
<trkpt lat="30.619955063" lon="34.919826508">
<ele>438.289063</ele>
<time>2013-11-22T12:06:04Z</time>
<extensions>
<speed>0.0</speed>
<temp>0.00</temp>
<bpm>0</bpm>
<rpm>0.00</rpm>
</extensions>
</trkpt>
<trkpt lat="30.619955063" lon="34.919826508">
<ele>438.281250</ele>
<time>2013-11-22T12:06:09Z</time>
<extensions>
<speed>0.0</speed>
<temp>0.00</temp>
<bpm>0</bpm>
<rpm>0.00</rpm>
</extensions>
</trkpt>
<trkpt lat="30.619955063" lon="34.919826508">
<ele>438.273438</ele>
<time>2013-11-22T12:06:14Z</time>
<extensions>
<speed>0.0</speed>
<temp>0.00</temp>
<bpm>0</bpm>
<rpm>0.00</rpm>
</extensions>
</trkpt>
<trkpt lat="30.619955063" lon="34.919826508">
<ele>438.257813</ele>
<time>2013-11-22T12:06:19Z</time>
<extensions>
<speed>0.0</speed>
<temp>0.00</temp>
<bpm>0</bpm>
<rpm>0.00</rpm>
</extensions>
</trkpt>
<trkpt lat="30.619955063" lon="34.919826508">
<ele>438.242188</ele>
<time>2013-11-22T12:06:24Z</time>
<speed>0.010000</speed>
<extensions>
<speed>0.0</speed>
<temp>0.00</temp>
<bpm>0</bpm>
<rpm>0.00</rpm>
</extensions>
</trkpt>
<trkpt lat="30.619955063" lon="34.919826508">
<ele>438.234375</ele>
<time>2013-11-22T12:06:29Z</time>
<speed>0.010000</speed>
<extensions>
<speed>0.0</speed>
<temp>0.00</temp>
<bpm>0</bpm>
<rpm>0.00</rpm>
</extensions>
</trkpt>
<trkpt lat="30.619955063" lon="34.919826508">
<ele>438.250000</ele>
<time>2013-11-22T12:06:34Z</time>
<extensions>
<speed>0.0</speed>
<temp>0.00</temp>
<bpm>0</bpm>
<rpm>0.00</rpm>
</extensions>
</trkpt>
<trkpt lat="30.619955063" lon="34.919826508">
<ele>438.257813</ele>
<time>2013-11-22T12:06:39Z</time>
<speed>0.010000</speed>
<extensions>
<speed>0.0</speed>
<temp>0.00</temp>
<bpm>0</bpm>
<rpm>0.00</rpm>
</extensions>
</trkpt>
<trkpt lat="30.619955063" lon="34.919826508">
<ele>438.265625</ele>
<time>2013-11-22T12:06:44Z</time>
<extensions>
<speed>0.0</speed>
<temp>0.00</temp>
<bpm>0</bpm>
<rpm>0.00</rpm>
</extensions>
</trkpt>
<trkpt lat="30.619955063" lon="34.919826508">
<ele>438.265625</ele>
<time>2013-11-22T12:06:49Z</time>
<extensions>
<speed>0.0</speed>
<temp>0.00</temp>
<bpm>0</bpm>
<rpm>0.00</rpm>
</extensions>
</trkpt>
<trkpt lat="30.619955063" lon="34.919826508">
<ele>438.273438</ele>
<time>2013-11-22T12:06:54Z</time>
<speed>0.010000</speed>
<extensions>
<speed>0.0</speed>
<temp>0.00</temp>
<bpm>0</bpm>
<rpm>0.00</rpm>
</extensions>
</trkpt>
<trkpt lat="30.619953156" lon="34.919826508">
<ele>438.296875</ele>
<time>2013-11-22T12:06:59Z</time>
<extensions>
<speed>0.0</speed>
<temp>0.00</temp>
<bpm>0</bpm>
<rpm>0.00</rpm>
</extensions>
</trkpt>
<trkpt lat="30.619953156" lon="34.919826508">
<ele>438.312500</ele>
<time>2013-11-22T12:07:04Z</time>
<extensions>
<speed>0.0</speed>
<temp>0.00</temp>
<bpm>0</bpm>
<rpm>0.00</rpm>
</extensions>
</trkpt>
<trkpt lat="30.619953156" lon="34.919826508">
<ele>438.328125</ele>
<time>2013-11-22T12:07:09Z</time>
<extensions>
<speed>0.0</speed>
<temp>0.00</temp>
<bpm>0</bpm>
<rpm>0.00</rpm>
</extensions>
</trkpt>
<trkpt lat="30.619953156" lon="34.919826508">
<ele>438.343750</ele>
<time>2013-11-22T12:07:14Z</time>
<speed>0.010000</speed>
<extensions>
<speed>0.0</speed>
<temp>0.00</temp>
<bpm>0</bpm>
<rpm>0.00</rpm>
</extensions>
</trkpt>
<trkpt lat="30.619953156" lon="34.919826508">
<ele>438.359375</ele>
<time>2013-11-22T12:07:19Z</time>
<speed>0.010000</speed>
<extensions>
<speed>0.0</speed>
<temp>0.00</temp>
<bpm>0</bpm>
<rpm>0.00</rpm>
</extensions>
</trkpt>
<trkpt lat="30.619953156" lon="34.919826508">
<ele>438.359375</ele>
<time>2013-11-22T12:07:24Z</time>
<extensions>
<speed>0.0</speed>
<temp>0.00</temp>
<bpm>0</bpm>
<rpm>0.00</rpm>
</extensions>
</trkpt>
<trkpt lat="30.619953156" lon="34.919826508">
<ele>438.359375</ele>
<time>2013-11-22T12:07:29Z</time>
<extensions>
<speed>0.0</speed>
<temp>0.00</temp>
<bpm>0</bpm>
<rpm>0.00</rpm>
</extensions>
</trkpt>
<trkpt lat="30.619953156" lon="34.919826508">
<ele>438.367188</ele>
<time>2013-11-22T12:07:34Z</time>
<speed>0.010000</speed>
<extensions>
<speed>0.0</speed>
<temp>0.00</temp>
<bpm>0</bpm>
<rpm>0.00</rpm>
</extensions>
</trkpt>
<trkpt lat="30.619953156" lon="34.919826508">
<ele>438.375000</ele>
<time>2013-11-22T12:07:39Z</time>
<speed>0.010000</speed>
<extensions>
<speed>0.0</speed>
<temp>0.00</temp>
<bpm>0</bpm>
<rpm>0.00</rpm>
</extensions>
</trkpt>
<trkpt lat="30.619953156" lon="34.919826508">
<ele>438.375000</ele>
<time>2013-11-22T12:07:44Z</time>
<speed>0.010000</speed>
<extensions>
<speed>0.0</speed>
<temp>0.00</temp>
<bpm>0</bpm>
<rpm>0.00</rpm>
</extensions>
</trkpt>
<trkpt lat="30.619953156" lon="34.919826508">
<ele>438.382813</ele>
<time>2013-11-22T12:07:49Z</time>
<extensions>
<speed>0.0</speed>
<temp>0.00</temp>
<bpm>0</bpm>
<rpm>0.00</rpm>
</extensions>
</trkpt>
<trkpt lat="30.619953156" lon="34.919826508">
<ele>438.382813</ele>
<time>2013-11-22T12:07:54Z</time>
<extensions>
<speed>0.0</speed>
<temp>0.00</temp>
<bpm>0</bpm>
<rpm>0.00</rpm>
</extensions>
</trkpt>
<trkpt lat="30.619953156" lon="34.919826508">
<ele>438.390625</ele>
<time>2013-11-22T12:07:59Z</time>
<extensions>
<speed>0.0</speed>
<temp>0.00</temp>
<bpm>0</bpm>
<rpm>0.00</rpm>
</extensions>
</trkpt>
<trkpt lat="30.619953156" lon="34.919826508">
<ele>438.390625</ele>
<time>2013-11-22T12:08:04Z</time>
<speed>0.010000</speed>
<extensions>
<speed>0.0</speed>
<temp>0.00</temp>
<bpm>0</bpm>
<rpm>0.00</rpm>
</extensions>
</trkpt>
<trkpt lat="30.619953156" lon="34.919826508">
<ele>438.390625</ele>
<time>2013-11-22T12:08:09Z</time>
<extensions>
<speed>0.0</speed>
<temp>0.00</temp>
<bpm>0</bpm>
<rpm>0.00</rpm>
</extensions>
</trkpt>
<trkpt lat="30.619953156" lon="34.919826508">
<ele>438.390625</ele>
<time>2013-11-22T12:08:14Z</time>
<extensions>
<speed>0.0</speed>
<temp>0.00</temp>
<bpm>0</bpm>
<rpm>0.00</rpm>
</extensions>
</trkpt>
<trkpt lat="30.619953156" lon="34.919826508">
<ele>438.382813</ele>
<time>2013-11-22T12:08:19Z</time>
<extensions>
<speed>0.0</speed>
<temp>0.00</temp>
<bpm>0</bpm>
<rpm>0.00</rpm>
</extensions>
</trkpt>
<trkpt lat="30.619953156" lon="34.919826508">
<ele>438.382813</ele>
<time>2013-11-22T12:08:24Z</time>
<extensions>
<speed>0.0</speed>
<temp>0.00</temp>
<bpm>0</bpm>
<rpm>0.00</rpm>
</extensions>
</trkpt>
<trkpt lat="30.619953156" lon="34.919826508">
<ele>438.382813</ele>
<time>2013-11-22T12:08:29Z</time>
<speed>0.010000</speed>
<extensions>
<speed>0.0</speed>
<temp>0.00</temp>
<bpm>0</bpm>
<rpm>0.00</rpm>
</extensions>
</trkpt>
<trkpt lat="30.619953156" lon="34.919826508">
<ele>438.390625</ele>
<time>2013-11-22T12:08:34Z</time>
<extensions>
<speed>0.0</speed>
<temp>0.00</temp>
<bpm>0</bpm>
<rpm>0.00</rpm>
</extensions>
</trkpt>
<trkpt lat="30.619953156" lon="34.919826508">
<ele>438.398438</ele>
<time>2013-11-22T12:08:39Z</time>
<extensions>
<speed>0.0</speed>
<temp>0.00</temp>
<bpm>0</bpm>
<rpm>0.00</rpm>
</extensions>
</trkpt>
<trkpt lat="30.619953156" lon="34.919826508">
<ele>438.406250</ele>
<time>2013-11-22T12:08:44Z</time>
<extensions>
<speed>0.0</speed>
<temp>0.00</temp>
<bpm>0</bpm>
<rpm>0.00</rpm>
</extensions>
</trkpt>
<trkpt lat="30.619953156" lon="34.919826508">
<ele>438.421875</ele>
<time>2013-11-22T12:08:49Z</time>
<extensions>
<speed>0.0</speed>
<temp>0.00</temp>
<bpm>0</bpm>
<rpm>0.00</rpm>
</extensions>
</trkpt>
<trkpt lat="30.619953156" lon="34.919826508">
<ele>438.429688</ele>
<time>2013-11-22T12:08:54Z</time>
<extensions>
<speed>0.0</speed>
<temp>0.00</temp>
<bpm>0</bpm>
<rpm>0.00</rpm>
</extensions>
</trkpt>
<trkpt lat="30.619953156" lon="34.919826508">
<ele>438.437500</ele>
<time>2013-11-22T12:08:59Z</time>
<speed>0.010000</speed>
<extensions>
<speed>0.0</speed>
<temp>0.00</temp>
<bpm>0</bpm>
<rpm>0.00</rpm>
</extensions>
</trkpt>
<trkpt lat="30.619953156" lon="34.919826508">
<ele>438.445313</ele>
<time>2013-11-22T12:09:04Z</time>
<speed>0.020000</speed>
<extensions>
<speed>0.0</speed>
<temp>0.00</temp>
<bpm>0</bpm>
<rpm>0.00</rpm>
</extensions>
</trkpt>
<trkpt lat="30.619953156" lon="34.919826508">
<ele>438.453125</ele>
<time>2013-11-22T12:09:09Z</time>
<speed>0.010000</speed>
<extensions>
<speed>0.0</speed>
<temp>0.00</temp>
<bpm>0</bpm>
<rpm>0.00</rpm>
</extensions>
</trkpt>
<trkpt lat="30.619953156" lon="34.919826508">
<ele>438.468750</ele>
<time>2013-11-22T12:09:14Z</time>
<extensions>
<speed>0.0</speed>
<temp>0.00</temp>
<bpm>0</bpm>
<rpm>0.00</rpm>
</extensions>
</trkpt>
<trkpt lat="30.619953156" lon="34.919826508">
<ele>438.476563</ele>
<time>2013-11-22T12:09:19Z</time>
<extensions>
<speed>0.0</speed>
<temp>0.00</temp>
<bpm>0</bpm>
<rpm>0.00</rpm>
</extensions>
</trkpt>
<trkpt lat="30.619953156" lon="34.919826508">
<ele>438.500000</ele>
<time>2013-11-22T12:09:24Z</time>
<extensions>
<speed>0.0</speed>
<temp>0.00</temp>
<bpm>0</bpm>
<rpm>0.00</rpm>
</extensions>
</trkpt>
<trkpt lat="30.619953156" lon="34.919826508">
<ele>438.507813</ele>
<time>2013-11-22T12:09:29Z</time>
<speed>0.010000</speed>
<extensions>
<speed>0.0</speed>
<temp>0.00</temp>
<bpm>0</bpm>
<rpm>0.00</rpm>
</extensions>
</trkpt>
<trkpt lat="30.619951248" lon="34.919826508">
<ele>438.515625</ele>
<time>2013-11-22T12:09:34Z</time>
<speed>0.010000</speed>
<extensions>
<speed>0.0</speed>
<temp>0.00</temp>
<bpm>0</bpm>
<rpm>0.00</rpm>
</extensions>
</trkpt>
<trkpt lat="30.619951248" lon="34.919826508">
<ele>438.507813</ele>
<time>2013-11-22T12:09:39Z</time>
<extensions>
<speed>0.0</speed>
<temp>0.00</temp>
<bpm>0</bpm>
<rpm>0.00</rpm>
</extensions>
</trkpt>
<trkpt lat="30.619951248" lon="34.919826508">
<ele>438.507813</ele>
<time>2013-11-22T12:09:44Z</time>
<extensions>
<speed>0.0</speed>
<temp>0.00</temp>
<bpm>0</bpm>
<rpm>0.00</rpm>
</extensions>
</trkpt>
<trkpt lat="30.619951248" lon="34.919826508">
<ele>438.492188</ele>
<time>2013-11-22T12:09:49Z</time>
<extensions>
<speed>0.0</speed>
<temp>0.00</temp>
<bpm>0</bpm>
<rpm>0.00</rpm>
</extensions>
</trkpt>
<trkpt lat="30.619951248" lon="34.919826508">
<ele>438.500000</ele>
<time>2013-11-22T12:09:54Z</time>
<speed>0.010000</speed>
<extensions>
<speed>0.0</speed>
<temp>0.00</temp>
<bpm>0</bpm>
<rpm>0.00</rpm>
</extensions>
</trkpt>
<trkpt lat="30.619951248" lon="34.919826508">
<ele>438.500000</ele>
<time>2013-11-22T12:09:59Z</time>
<speed>0.010000</speed>
<extensions>
<speed>0.0</speed>
<temp>0.00</temp>
<bpm>0</bpm>
<rpm>0.00</rpm>
</extensions>
</trkpt>
<trkpt lat="30.619951248" lon="34.919826508">
<ele>438.500000</ele>
<time>2013-11-22T12:10:04Z</time>
<extensions>
<speed>0.0</speed>
<temp>0.00</temp>
<bpm>0</bpm>
<rpm>0.00</rpm>
</extensions>
</trkpt>
<trkpt lat="30.619951248" lon="34.919826508">
<ele>438.500000</ele>
<time>2013-11-22T12:10:09Z</time>
<speed>0.010000</speed>
<extensions>
<speed>0.0</speed>
<temp>0.00</temp>
<bpm>0</bpm>
<rpm>0.00</rpm>
</extensions>
</trkpt>
<trkpt lat="30.619951248" lon="34.919826508">
<ele>438.492188</ele>
<time>2013-11-22T12:10:14Z</time>
<speed>0.010000</speed>
<extensions>
<speed>0.0</speed>
<temp>0.00</temp>
<bpm>0</bpm>
<rpm>0.00</rpm>
</extensions>
</trkpt>
<trkpt lat="30.619951248" lon="34.919826508">
<ele>438.492188</ele>
<time>2013-11-22T12:10:19Z</time>
<extensions>
<speed>0.0</speed>
<temp>0.00</temp>
<bpm>0</bpm>
<rpm>0.00</rpm>
</extensions>
</trkpt>
<trkpt lat="30.619951248" lon="34.919826508">
<ele>438.507813</ele>
<time>2013-11-22T12:10:24Z</time>
<speed>0.010000</speed>
<extensions>
<speed>0.0</speed>
<temp>0.00</temp>
<bpm>0</bpm>
<rpm>0.00</rpm>
</extensions>
</trkpt>
<trkpt lat="30.619951248" lon="34.919826508">
<ele>438.507813</ele>
<time>2013-11-22T12:10:29Z</time>
<extensions>
<speed>0.0</speed>
<temp>0.00</temp>
<bpm>0</bpm>
<rpm>0.00</rpm>
</extensions>
</trkpt>
<trkpt lat="30.619951248" lon="34.919826508">
<ele>438.523438</ele>
<time>2013-11-22T12:10:34Z</time>
<speed>0.010000</speed>
<extensions>
<speed>0.0</speed>
<temp>0.00</temp>
<bpm>0</bpm>
<rpm>0.00</rpm>
</extensions>
</trkpt>
<trkpt lat="30.619951248" lon="34.919826508">
<ele>438.546875</ele>
<time>2013-11-22T12:10:39Z</time>
<speed>0.010000</speed>
<extensions>
<speed>0.0</speed>
<temp>0.00</temp>
<bpm>0</bpm>
<rpm>0.00</rpm>
</extensions>
</trkpt>
<trkpt lat="30.619951248" lon="34.919826508">
<ele>438.562500</ele>
<time>2013-11-22T12:10:44Z</time>
<speed>0.020000</speed>
<extensions>
<speed>0.0</speed>
<temp>0.00</temp>
<bpm>0</bpm>
<rpm>0.00</rpm>
</extensions>
</trkpt>
<trkpt lat="30.619951248" lon="34.919826508">
<ele>438.578125</ele>
<time>2013-11-22T12:10:49Z</time>
<extensions>
<speed>0.0</speed>
<temp>0.00</temp>
<bpm>0</bpm>
<rpm>0.00</rpm>
</extensions>
</trkpt>
<trkpt lat="30.619951248" lon="34.919826508">
<ele>438.585938</ele>
<time>2013-11-22T12:10:54Z</time>
<extensions>
<speed>0.0</speed>
<temp>0.00</temp>
<bpm>0</bpm>
<rpm>0.00</rpm>
</extensions>
</trkpt>
<trkpt lat="30.619951248" lon="34.919826508">
<ele>438.578125</ele>
<time>2013-11-22T12:10:59Z</time>
<extensions>
<speed>0.0</speed>
<temp>0.00</temp>
<bpm>0</bpm>
<rpm>0.00</rpm>
</extensions>
</trkpt>
<trkpt lat="30.619951248" lon="34.919826508">
<ele>438.570313</ele>
<time>2013-11-22T12:11:04Z</time>
<speed>0.010000</speed>
<extensions>
<speed>0.0</speed>
<temp>0.00</temp>
<bpm>0</bpm>
<rpm>0.00</rpm>
</extensions>
</trkpt>
<trkpt lat="30.619951248" lon="34.919826508">
<ele>438.578125</ele>
<time>2013-11-22T12:11:09Z</time>
<speed>0.010000</speed>
<extensions>
<speed>0.0</speed>
<temp>0.00</temp>
<bpm>0</bpm>
<rpm>0.00</rpm>
</extensions>
</trkpt>
<trkpt lat="30.619951248" lon="34.919826508">
<ele>438.578125</ele>
<time>2013-11-22T12:11:14Z</time>
<extensions>
<speed>0.0</speed>
<temp>0.00</temp>
<bpm>0</bpm>
<rpm>0.00</rpm>
</extensions>
</trkpt>
<trkpt lat="30.619949341" lon="34.919826508">
<ele>438.570313</ele>
<time>2013-11-22T12:11:19Z</time>
<speed>0.010000</speed>
<extensions>
<speed>0.0</speed>
<temp>0.00</temp>
<bpm>0</bpm>
<rpm>0.00</rpm>
</extensions>
</trkpt>
<trkpt lat="30.619949341" lon="34.919826508">
<ele>438.578125</ele>
<time>2013-11-22T12:11:24Z</time>
<extensions>
<speed>0.0</speed>
<temp>0.00</temp>
<bpm>0</bpm>
<rpm>0.00</rpm>
</extensions>
</trkpt>
<trkpt lat="30.619949341" lon="34.919826508">
<ele>438.578125</ele>
<time>2013-11-22T12:11:29Z</time>
<extensions>
<speed>0.0</speed>
<temp>0.00</temp>
<bpm>0</bpm>
<rpm>0.00</rpm>
</extensions>
</trkpt>
<trkpt lat="30.619949341" lon="34.919826508">
<ele>438.617188</ele>
<time>2013-11-22T12:11:34Z</time>
<extensions>
<speed>0.0</speed>
<temp>0.00</temp>
<bpm>0</bpm>
<rpm>0.00</rpm>
</extensions>
</trkpt>
<trkpt lat="30.619949341" lon="34.919826508">
<ele>438.632813</ele>
<time>2013-11-22T12:11:39Z</time>
<speed>0.010000</speed>
<extensions>
<speed>0.0</speed>
<temp>0.00</temp>
<bpm>0</bpm>
<rpm>0.00</rpm>
</extensions>
</trkpt>
<trkpt lat="30.619949341" lon="34.919826508">
<ele>438.648438</ele>
<time>2013-11-22T12:11:44Z</time>
<extensions>
<speed>0.0</speed>
<temp>0.00</temp>
<bpm>0</bpm>
<rpm>0.00</rpm>
</extensions>
</trkpt>
<trkpt lat="30.619949341" lon="34.919826508">
<ele>438.656250</ele>
<time>2013-11-22T12:11:49Z</time>
<extensions>
<speed>0.0</speed>
<temp>0.00</temp>
<bpm>0</bpm>
<rpm>0.00</rpm>
</extensions>
</trkpt>
<trkpt lat="30.619949341" lon="34.919826508">
<ele>438.687500</ele>
<time>2013-11-22T12:11:54Z</time>
<extensions>
<speed>0.0</speed>
<temp>0.00</temp>
<bpm>0</bpm>
<rpm>0.00</rpm>
</extensions>
</trkpt>
<trkpt lat="30.619949341" lon="34.919826508">
<ele>438.695313</ele>
<time>2013-11-22T12:11:59Z</time>
<speed>0.010000</speed>
<extensions>
<speed>0.0</speed>
<temp>0.00</temp>
<bpm>0</bpm>
<rpm>0.00</rpm>
</extensions>
</trkpt>
<trkpt lat="30.619949341" lon="34.919826508">
<ele>438.703125</ele>
<time>2013-11-22T12:12:04Z</time>
<extensions>
<speed>0.0</speed>
<temp>0.00</temp>
<bpm>0</bpm>
<rpm>0.00</rpm>
</extensions>
</trkpt>
<trkpt lat="30.619949341" lon="34.919826508">
<ele>438.703125</ele>
<time>2013-11-22T12:12:09Z</time>
<extensions>
<speed>0.0</speed>
<temp>0.00</temp>
<bpm>0</bpm>
<rpm>0.00</rpm>
</extensions>
</trkpt>
<trkpt lat="30.619949341" lon="34.919826508">
<ele>438.710938</ele>
<time>2013-11-22T12:12:14Z</time>
<speed>0.010000</speed>
<extensions>
<speed>0.0</speed>
<temp>0.00</temp>
<bpm>0</bpm>
<rpm>0.00</rpm>
</extensions>
</trkpt>
<trkpt lat="30.619949341" lon="34.919826508">
<ele>438.718750</ele>
<time>2013-11-22T12:12:19Z</time>
<speed>0.020000</speed>
<extensions>
<speed>0.0</speed>
<temp>0.00</temp>
<bpm>0</bpm>
<rpm>0.00</rpm>
</extensions>
</trkpt>
<trkpt lat="30.619949341" lon="34.919826508">
<ele>438.726563</ele>
<time>2013-11-22T12:12:24Z</time>
<extensions>
<speed>0.0</speed>
<temp>0.00</temp>
<bpm>0</bpm>
<rpm>0.00</rpm>
</extensions>
</trkpt>
<trkpt lat="30.619949341" lon="34.919826508">
<ele>438.718750</ele>
<time>2013-11-22T12:12:29Z</time>
<speed>0.010000</speed>
<extensions>
<speed>0.0</speed>
<temp>0.00</temp>
<bpm>0</bpm>
<rpm>0.00</rpm>
</extensions>
</trkpt>
<trkpt lat="30.619949341" lon="34.919826508">
<ele>438.726563</ele>
<time>2013-11-22T12:12:34Z</time>
<extensions>
<speed>0.0</speed>
<temp>0.00</temp>
<bpm>0</bpm>
<rpm>0.00</rpm>
</extensions>
</trkpt>
<trkpt lat="30.619949341" lon="34.919826508">
<ele>438.726563</ele>
<time>2013-11-22T12:12:39Z</time>
<extensions>
<speed>0.0</speed>
<temp>0.00</temp>
<bpm>0</bpm>
<rpm>0.00</rpm>
</extensions>
</trkpt>
<trkpt lat="30.619949341" lon="34.919826508">
<ele>438.734375</ele>
<time>2013-11-22T12:12:44Z</time>
<extensions>
<speed>0.0</speed>
<temp>0.00</temp>
<bpm>0</bpm>
<rpm>0.00</rpm>
</extensions>
</trkpt>
<trkpt lat="30.619949341" lon="34.919826508">
<ele>438.726563</ele>
<time>2013-11-22T12:12:49Z</time>
<extensions>
<speed>0.0</speed>
<temp>0.00</temp>
<bpm>0</bpm>
<rpm>0.00</rpm>
</extensions>
</trkpt>
<trkpt lat="30.619949341" lon="34.919826508">
<ele>438.703125</ele>
<time>2013-11-22T12:12:54Z</time>
<speed>0.010000</speed>
<extensions>
<speed>0.0</speed>
<temp>0.00</temp>
<bpm>0</bpm>
<rpm>0.00</rpm>
</extensions>
</trkpt>
<trkpt lat="30.619949341" lon="34.919826508">
<ele>438.695313</ele>
<time>2013-11-22T12:12:59Z</time>
<extensions>
<speed>0.0</speed>
<temp>0.00</temp>
<bpm>0</bpm>
<rpm>0.00</rpm>
</extensions>
</trkpt>
<trkpt lat="30.619949341" lon="34.919826508">
<ele>438.687500</ele>
<time>2013-11-22T12:13:04Z</time>
<extensions>
<speed>0.0</speed>
<temp>0.00</temp>
<bpm>0</bpm>
<rpm>0.00</rpm>
</extensions>
</trkpt>
<trkpt lat="30.619949341" lon="34.919826508">
<ele>438.656250</ele>
<time>2013-11-22T12:13:09Z</time>
<extensions>
<speed>0.0</speed>
<temp>0.00</temp>
<bpm>0</bpm>
<rpm>0.00</rpm>
</extensions>
</trkpt>
<trkpt lat="30.619947433" lon="34.919826508">
<ele>438.640625</ele>
<time>2013-11-22T12:13:14Z</time>
<extensions>
<speed>0.0</speed>
<temp>0.00</temp>
<bpm>0</bpm>
<rpm>0.00</rpm>
</extensions>
</trkpt>
<trkpt lat="30.619947433" lon="34.919826508">
<ele>438.632813</ele>
<time>2013-11-22T12:13:19Z</time>
<speed>0.010000</speed>
<extensions>
<speed>0.0</speed>
<temp>0.00</temp>
<bpm>0</bpm>
<rpm>0.00</rpm>
</extensions>
</trkpt>
<trkpt lat="30.619947433" lon="34.919826508">
<ele>438.617188</ele>
<time>2013-11-22T12:13:24Z</time>
<speed>0.010000</speed>
<extensions>
<speed>0.0</speed>
<temp>0.00</temp>
<bpm>0</bpm>
<rpm>0.00</rpm>
</extensions>
</trkpt>
<trkpt lat="30.619947433" lon="34.919826508">
<ele>438.617188</ele>
<time>2013-11-22T12:13:29Z</time>
<speed>0.040000</speed>
<extensions>
<speed>0.0</speed>
<temp>0.00</temp>
<bpm>0</bpm>
<rpm>0.00</rpm>
</extensions>
</trkpt>
<trkpt lat="30.619947433" lon="34.919826508">
<ele>438.625000</ele>
<time>2013-11-22T12:13:34Z</time>
<speed>0.010000</speed>
<extensions>
<speed>0.0</speed>
<temp>0.00</temp>
<bpm>0</bpm>
<rpm>0.00</rpm>
</extensions>
</trkpt>
<trkpt lat="30.619947433" lon="34.919826508">
<ele>438.625000</ele>
<time>2013-11-22T12:13:39Z</time>
<speed>0.020000</speed>
<extensions>
<speed>0.0</speed>
<temp>0.00</temp>
<bpm>0</bpm>
<rpm>0.00</rpm>
</extensions>
</trkpt>
<trkpt lat="30.619947433" lon="34.919826508">
<ele>438.617188</ele>
<time>2013-11-22T12:13:44Z</time>
<extensions>
<speed>0.0</speed>
<temp>0.00</temp>
<bpm>0</bpm>
<rpm>0.00</rpm>
</extensions>
</trkpt>
<trkpt lat="30.619947433" lon="34.919826508">
<ele>438.609375</ele>
<time>2013-11-22T12:13:49Z</time>
<extensions>
<speed>0.0</speed>
<temp>0.00</temp>
<bpm>0</bpm>
<rpm>0.00</rpm>
</extensions>
</trkpt>
<trkpt lat="30.619947433" lon="34.919826508">
<ele>438.617188</ele>
<time>2013-11-22T12:13:54Z</time>
<speed>0.020000</speed>
<extensions>
<speed>0.0</speed>
<temp>0.00</temp>
<bpm>0</bpm>
<rpm>0.00</rpm>
</extensions>
</trkpt>
<trkpt lat="30.619947433" lon="34.919826508">
<ele>438.632813</ele>
<time>2013-11-22T12:13:59Z</time>
<extensions>
<speed>0.0</speed>
<temp>0.00</temp>
<bpm>0</bpm>
<rpm>0.00</rpm>
</extensions>
</trkpt>
<trkpt lat="30.619947433" lon="34.919826508">
<ele>438.625000</ele>
<time>2013-11-22T12:14:04Z</time>
<speed>0.030000</speed>
<extensions>
<speed>0.0</speed>
<temp>0.00</temp>
<bpm>0</bpm>
<rpm>0.00</rpm>
</extensions>
</trkpt>
<trkpt lat="30.619947433" lon="34.919826508">
<ele>438.632813</ele>
<time>2013-11-22T12:14:09Z</time>
<extensions>
<speed>0.0</speed>
<temp>0.00</temp>
<bpm>0</bpm>
<rpm>0.00</rpm>
</extensions>
</trkpt>
<trkpt lat="30.619947433" lon="34.919826508">
<ele>438.640625</ele>
<time>2013-11-22T12:14:14Z</time>
<speed>0.020000</speed>
<extensions>
<speed>0.0</speed>
<temp>0.00</temp>
<bpm>0</bpm>
<rpm>0.00</rpm>
</extensions>
</trkpt>
<trkpt lat="30.619947433" lon="34.919826508">
<ele>438.648438</ele>
<time>2013-11-22T12:14:19Z</time>
<speed>0.010000</speed>
<extensions>
<speed>0.0</speed>
<temp>0.00</temp>
<bpm>0</bpm>
<rpm>0.00</rpm>
</extensions>
</trkpt>
<trkpt lat="30.619947433" lon="34.919826508">
<ele>438.656250</ele>
<time>2013-11-22T12:14:24Z</time>
<speed>0.040000</speed>
<extensions>
<speed>0.0</speed>
<temp>0.00</temp>
<bpm>0</bpm>
<rpm>0.00</rpm>
</extensions>
</trkpt>
<trkpt lat="30.619947433" lon="34.919826508">
<ele>438.656250</ele>
<time>2013-11-22T12:14:29Z</time>
<speed>0.020000</speed>
<extensions>
<speed>0.0</speed>
<temp>0.00</temp>
<bpm>0</bpm>
<rpm>0.00</rpm>
</extensions>
</trkpt>
<trkpt lat="30.619947433" lon="34.919830322">
<ele>438.640625</ele>
<time>2013-11-22T12:14:34Z</time>
<extensions>
<speed>0.0</speed>
<temp>0.00</temp>
<bpm>0</bpm>
<rpm>0.00</rpm>
</extensions>
</trkpt>
<trkpt lat="30.619947433" lon="34.919830322">
<ele>438.640625</ele>
<time>2013-11-22T12:14:39Z</time>
<extensions>
<speed>0.0</speed>
<temp>0.00</temp>
<bpm>0</bpm>
<rpm>0.00</rpm>
</extensions>
</trkpt>
<trkpt lat="30.619947433" lon="34.919830322">
<ele>438.656250</ele>
<time>2013-11-22T12:14:44Z</time>
<speed>0.010000</speed>
<extensions>
<speed>0.0</speed>
<temp>0.00</temp>
<bpm>0</bpm>
<rpm>0.00</rpm>
</extensions>
</trkpt>
<trkpt lat="30.619947433" lon="34.919830322">
<ele>438.687500</ele>
<time>2013-11-22T12:14:49Z</time>
<extensions>
<speed>0.0</speed>
<temp>0.00</temp>
<bpm>0</bpm>
<rpm>0.00</rpm>
</extensions>
</trkpt>
<trkpt lat="30.619945526" lon="34.919830322">
<ele>438.710938</ele>
<time>2013-11-22T12:14:54Z</time>
<extensions>
<speed>0.0</speed>
<temp>0.00</temp>
<bpm>0</bpm>
<rpm>0.00</rpm>
</extensions>
</trkpt>
<trkpt lat="30.619945526" lon="34.919830322">
<ele>438.742188</ele>
<time>2013-11-22T12:14:59Z</time>
<speed>0.010000</speed>
<extensions>
<speed>0.0</speed>
<temp>0.00</temp>
<bpm>0</bpm>
<rpm>0.00</rpm>
</extensions>
</trkpt>
<trkpt lat="30.619945526" lon="34.919830322">
<ele>438.757813</ele>
<time>2013-11-22T12:15:04Z</time>
<extensions>
<speed>0.0</speed>
<temp>0.00</temp>
<bpm>0</bpm>
<rpm>0.00</rpm>
</extensions>
</trkpt>
<trkpt lat="30.619945526" lon="34.919830322">
<ele>438.781250</ele>
<time>2013-11-22T12:15:09Z</time>
<speed>0.010000</speed>
<extensions>
<speed>0.0</speed>
<temp>0.00</temp>
<bpm>0</bpm>
<rpm>0.00</rpm>
</extensions>
</trkpt>
<trkpt lat="30.619945526" lon="34.919830322">
<ele>438.796875</ele>
<time>2013-11-22T12:15:14Z</time>
<speed>0.010000</speed>
<extensions>
<speed>0.0</speed>
<temp>0.00</temp>
<bpm>0</bpm>
<rpm>0.00</rpm>
</extensions>
</trkpt>
<trkpt lat="30.619945526" lon="34.919830322">
<ele>438.812500</ele>
<time>2013-11-22T12:15:19Z</time>
<extensions>
<speed>0.0</speed>
<temp>0.00</temp>
<bpm>0</bpm>
<rpm>0.00</rpm>
</extensions>
</trkpt>
<trkpt lat="30.619945526" lon="34.919830322">
<ele>438.820313</ele>
<time>2013-11-22T12:15:24Z</time>
<extensions>
<speed>0.0</speed>
<temp>0.00</temp>
<bpm>0</bpm>
<rpm>0.00</rpm>
</extensions>
</trkpt>
<trkpt lat="30.619945526" lon="34.919830322">
<ele>438.828125</ele>
<time>2013-11-22T12:15:29Z</time>
<speed>0.010000</speed>
<extensions>
<speed>0.0</speed>
<temp>0.00</temp>
<bpm>0</bpm>
<rpm>0.00</rpm>
</extensions>
</trkpt>
<trkpt lat="30.619945526" lon="34.919830322">
<ele>438.835938</ele>
<time>2013-11-22T12:15:34Z</time>
<extensions>
<speed>0.0</speed>
<temp>0.00</temp>
<bpm>0</bpm>
<rpm>0.00</rpm>
</extensions>
</trkpt>
<trkpt lat="30.619945526" lon="34.919830322">
<ele>438.843750</ele>
<time>2013-11-22T12:15:39Z</time>
<extensions>
<speed>0.0</speed>
<temp>0.00</temp>
<bpm>0</bpm>
<rpm>0.00</rpm>
</extensions>
</trkpt>
<trkpt lat="30.619943619" lon="34.919830322">
<ele>438.851563</ele>
<time>2013-11-22T12:15:44Z</time>
<extensions>
<speed>0.0</speed>
<temp>0.00</temp>
<bpm>0</bpm>
<rpm>0.00</rpm>
</extensions>
</trkpt>
<trkpt lat="30.619943619" lon="34.919830322">
<ele>438.859375</ele>
<time>2013-11-22T12:15:49Z</time>
<extensions>
<speed>0.0</speed>
<temp>0.00</temp>
<bpm>0</bpm>
<rpm>0.00</rpm>
</extensions>
</trkpt>
<trkpt lat="30.619943619" lon="34.919830322">
<ele>438.875000</ele>
<time>2013-11-22T12:15:54Z</time>
<extensions>
<speed>0.0</speed>
<temp>0.00</temp>
<bpm>0</bpm>
<rpm>0.00</rpm>
</extensions>
</trkpt>
<trkpt lat="30.619943619" lon="34.919830322">
<ele>438.875000</ele>
<time>2013-11-22T12:15:59Z</time>
<extensions>
<speed>0.0</speed>
<temp>0.00</temp>
<bpm>0</bpm>
<rpm>0.00</rpm>
</extensions>
</trkpt>
<trkpt lat="30.619943619" lon="34.919830322">
<ele>438.875000</ele>
<time>2013-11-22T12:16:04Z</time>
<speed>0.010000</speed>
<extensions>
<speed>0.0</speed>
<temp>0.00</temp>
<bpm>0</bpm>
<rpm>0.00</rpm>
</extensions>
</trkpt>
<trkpt lat="30.619943619" lon="34.919830322">
<ele>438.890625</ele>
<time>2013-11-22T12:16:09Z</time>
<extensions>
<speed>0.0</speed>
<temp>0.00</temp>
<bpm>0</bpm>
<rpm>0.00</rpm>
</extensions>
</trkpt>
<trkpt lat="30.619943619" lon="34.919830322">
<ele>438.906250</ele>
<time>2013-11-22T12:16:14Z</time>
<extensions>
<speed>0.0</speed>
<temp>0.00</temp>
<bpm>0</bpm>
<rpm>0.00</rpm>
</extensions>
</trkpt>
<trkpt lat="30.619943619" lon="34.919830322">
<ele>438.921875</ele>
<time>2013-11-22T12:16:19Z</time>
<speed>0.010000</speed>
<extensions>
<speed>0.0</speed>
<temp>0.00</temp>
<bpm>0</bpm>
<rpm>0.00</rpm>
</extensions>
</trkpt>
<trkpt lat="30.619943619" lon="34.919830322">
<ele>438.929688</ele>
<time>2013-11-22T12:16:24Z</time>
<extensions>
<speed>0.0</speed>
<temp>0.00</temp>
<bpm>0</bpm>
<rpm>0.00</rpm>
</extensions>
</trkpt>
<trkpt lat="30.619943619" lon="34.919830322">
<ele>438.937500</ele>
<time>2013-11-22T12:16:29Z</time>
<extensions>
<speed>0.0</speed>
<temp>0.00</temp>
<bpm>0</bpm>
<rpm>0.00</rpm>
</extensions>
</trkpt>
<trkpt lat="30.619943619" lon="34.919830322">
<ele>438.937500</ele>
<time>2013-11-22T12:16:34Z</time>
<extensions>
<speed>0.0</speed>
<temp>0.00</temp>
<bpm>0</bpm>
<rpm>0.00</rpm>
</extensions>
</trkpt>
<trkpt lat="30.619943619" lon="34.919830322">
<ele>438.945313</ele>
<time>2013-11-22T12:16:39Z</time>
<extensions>
<speed>0.0</speed>
<temp>0.00</temp>
<bpm>0</bpm>
<rpm>0.00</rpm>
</extensions>
</trkpt>
<trkpt lat="30.619943619" lon="34.919830322">
<ele>438.937500</ele>
<time>2013-11-22T12:16:44Z</time>
<extensions>
<speed>0.0</speed>
<temp>0.00</temp>
<bpm>0</bpm>
<rpm>0.00</rpm>
</extensions>
</trkpt>
<trkpt lat="30.619941711" lon="34.919830322">
<ele>438.937500</ele>
<time>2013-11-22T12:16:49Z</time>
<extensions>
<speed>0.0</speed>
<temp>0.00</temp>
<bpm>0</bpm>
<rpm>0.00</rpm>
</extensions>
</trkpt>
<trkpt lat="30.619941711" lon="34.919830322">
<ele>438.937500</ele>
<time>2013-11-22T12:16:54Z</time>
<extensions>
<speed>0.0</speed>
<temp>0.00</temp>
<bpm>0</bpm>
<rpm>0.00</rpm>
</extensions>
</trkpt>
<trkpt lat="30.619941711" lon="34.919830322">
<ele>438.945313</ele>
<time>2013-11-22T12:16:59Z</time>
<extensions>
<speed>0.0</speed>
<temp>0.00</temp>
<bpm>0</bpm>
<rpm>0.00</rpm>
</extensions>
</trkpt>
<trkpt lat="30.619941711" lon="34.919830322">
<ele>438.945313</ele>
<time>2013-11-22T12:17:04Z</time>
<extensions>
<speed>0.0</speed>
<temp>0.00</temp>
<bpm>0</bpm>
<rpm>0.00</rpm>
</extensions>
</trkpt>
<trkpt lat="30.619941711" lon="34.919830322">
<ele>438.953125</ele>
<time>2013-11-22T12:17:09Z</time>
<extensions>
<speed>0.0</speed>
<temp>0.00</temp>
<bpm>0</bpm>
<rpm>0.00</rpm>
</extensions>
</trkpt>
<trkpt lat="30.619941711" lon="34.919830322">
<ele>438.960938</ele>
<time>2013-11-22T12:17:14Z</time>
<extensions>
<speed>0.0</speed>
<temp>0.00</temp>
<bpm>0</bpm>
<rpm>0.00</rpm>
</extensions>
</trkpt>
<trkpt lat="30.619941711" lon="34.919830322">
<ele>438.968750</ele>
<time>2013-11-22T12:17:19Z</time>
<extensions>
<speed>0.0</speed>
<temp>0.00</temp>
<bpm>0</bpm>
<rpm>0.00</rpm>
</extensions>
</trkpt>
<trkpt lat="30.619941711" lon="34.919830322">
<ele>438.984375</ele>
<time>2013-11-22T12:17:24Z</time>
<extensions>
<speed>0.0</speed>
<temp>0.00</temp>
<bpm>0</bpm>
<rpm>0.00</rpm>
</extensions>
</trkpt>
<trkpt lat="30.619941711" lon="34.919830322">
<ele>438.992188</ele>
<time>2013-11-22T12:17:29Z</time>
<extensions>
<speed>0.0</speed>
<temp>0.00</temp>
<bpm>0</bpm>
<rpm>0.00</rpm>
</extensions>
</trkpt>
<trkpt lat="30.619941711" lon="34.919830322">
<ele>439.000000</ele>
<time>2013-11-22T12:17:34Z</time>
<extensions>
<speed>0.0</speed>
<temp>0.00</temp>
<bpm>0</bpm>
<rpm>0.00</rpm>
</extensions>
</trkpt>
<trkpt lat="30.619941711" lon="34.919830322">
<ele>439.015625</ele>
<time>2013-11-22T12:17:39Z</time>
<extensions>
<speed>0.0</speed>
<temp>0.00</temp>
<bpm>0</bpm>
<rpm>0.00</rpm>
</extensions>
</trkpt>
<trkpt lat="30.619941711" lon="34.919830322">
<ele>439.023438</ele>
<time>2013-11-22T12:17:44Z</time>
<extensions>
<speed>0.0</speed>
<temp>0.00</temp>
<bpm>0</bpm>
<rpm>0.00</rpm>
</extensions>
</trkpt>
<trkpt lat="30.619941711" lon="34.919830322">
<ele>439.039063</ele>
<time>2013-11-22T12:17:49Z</time>
<extensions>
<speed>0.0</speed>
<temp>0.00</temp>
<bpm>0</bpm>
<rpm>0.00</rpm>
</extensions>
</trkpt>
<trkpt lat="30.619941711" lon="34.919830322">
<ele>439.054688</ele>
<time>2013-11-22T12:17:54Z</time>
<extensions>
<speed>0.0</speed>
<temp>0.00</temp>
<bpm>0</bpm>
<rpm>0.00</rpm>
</extensions>
</trkpt>
<trkpt lat="30.619941711" lon="34.919830322">
<ele>439.054688</ele>
<time>2013-11-22T12:17:59Z</time>
<extensions>
<speed>0.0</speed>
<temp>0.00</temp>
<bpm>0</bpm>
<rpm>0.00</rpm>
</extensions>
</trkpt>
<trkpt lat="30.619941711" lon="34.919830322">
<ele>439.070313</ele>
<time>2013-11-22T12:18:04Z</time>
<extensions>
<speed>0.0</speed>
<temp>0.00</temp>
<bpm>0</bpm>
<rpm>0.00</rpm>
</extensions>
</trkpt>
<trkpt lat="30.619941711" lon="34.919830322">
<ele>439.078125</ele>
<time>2013-11-22T12:18:09Z</time>
<speed>0.010000</speed>
<extensions>
<speed>0.0</speed>
<temp>0.00</temp>
<bpm>0</bpm>
<rpm>0.00</rpm>
</extensions>
</trkpt>
<trkpt lat="30.619941711" lon="34.919830322">
<ele>439.085938</ele>
<time>2013-11-22T12:18:14Z</time>
<extensions>
<speed>0.0</speed>
<temp>0.00</temp>
<bpm>0</bpm>
<rpm>0.00</rpm>
</extensions>
</trkpt>
<trkpt lat="30.619941711" lon="34.919830322">
<ele>439.101563</ele>
<time>2013-11-22T12:18:19Z</time>
<extensions>
<speed>0.0</speed>
<temp>0.00</temp>
<bpm>0</bpm>
<rpm>0.00</rpm>
</extensions>
</trkpt>
<trkpt lat="30.619939804" lon="34.919830322">
<ele>439.117188</ele>
<time>2013-11-22T12:18:24Z</time>
<extensions>
<speed>0.0</speed>
<temp>0.00</temp>
<bpm>0</bpm>
<rpm>0.00</rpm>
</extensions>
</trkpt>
<trkpt lat="30.619939804" lon="34.919830322">
<ele>439.132813</ele>
<time>2013-11-22T12:18:29Z</time>
<extensions>
<speed>0.0</speed>
<temp>0.00</temp>
<bpm>0</bpm>
<rpm>0.00</rpm>
</extensions>
</trkpt>
<trkpt lat="30.619939804" lon="34.919830322">
<ele>439.148438</ele>
<time>2013-11-22T12:18:34Z</time>
<extensions>
<speed>0.0</speed>
<temp>0.00</temp>
<bpm>0</bpm>
<rpm>0.00</rpm>
</extensions>
</trkpt>
<trkpt lat="30.619939804" lon="34.919830322">
<ele>439.156250</ele>
<time>2013-11-22T12:18:39Z</time>
<extensions>
<speed>0.0</speed>
<temp>0.00</temp>
<bpm>0</bpm>
<rpm>0.00</rpm>
</extensions>
</trkpt>
<trkpt lat="30.619939804" lon="34.919830322">
<ele>439.171875</ele>
<time>2013-11-22T12:18:44Z</time>
<extensions>
<speed>0.0</speed>
<temp>0.00</temp>
<bpm>0</bpm>
<rpm>0.00</rpm>
</extensions>
</trkpt>
<trkpt lat="30.619939804" lon="34.919830322">
<ele>439.187500</ele>
<time>2013-11-22T12:18:49Z</time>
<extensions>
<speed>0.0</speed>
<temp>0.00</temp>
<bpm>0</bpm>
<rpm>0.00</rpm>
</extensions>
</trkpt>
<trkpt lat="30.619939804" lon="34.919830322">
<ele>439.187500</ele>
<time>2013-11-22T12:18:54Z</time>
<speed>0.010000</speed>
<extensions>
<speed>0.0</speed>
<temp>0.00</temp>
<bpm>0</bpm>
<rpm>0.00</rpm>
</extensions>
</trkpt>
<trkpt lat="30.619939804" lon="34.919830322">
<ele>439.195313</ele>
<time>2013-11-22T12:18:59Z</time>
<extensions>
<speed>0.0</speed>
<temp>0.00</temp>
<bpm>0</bpm>
<rpm>0.00</rpm>
</extensions>
</trkpt>
<trkpt lat="30.619939804" lon="34.919830322">
<ele>439.203125</ele>
<time>2013-11-22T12:19:04Z</time>
<extensions>
<speed>0.0</speed>
<temp>0.00</temp>
<bpm>0</bpm>
<rpm>0.00</rpm>
</extensions>
</trkpt>
<trkpt lat="30.619939804" lon="34.919830322">
<ele>439.203125</ele>
<time>2013-11-22T12:19:09Z</time>
<extensions>
<speed>0.0</speed>
<temp>0.00</temp>
<bpm>0</bpm>
<rpm>0.00</rpm>
</extensions>
</trkpt>
<trkpt lat="30.619939804" lon="34.919830322">
<ele>439.203125</ele>
<time>2013-11-22T12:19:14Z</time>
<extensions>
<speed>0.0</speed>
<temp>0.00</temp>
<bpm>0</bpm>
<rpm>0.00</rpm>
</extensions>
</trkpt>
<trkpt lat="30.619939804" lon="34.919830322">
<ele>439.203125</ele>
<time>2013-11-22T12:19:19Z</time>
<extensions>
<speed>0.0</speed>
<temp>0.00</temp>
<bpm>0</bpm>
<rpm>0.00</rpm>
</extensions>
</trkpt>
<trkpt lat="30.619939804" lon="34.919830322">
<ele>439.203125</ele>
<time>2013-11-22T12:19:24Z</time>
<extensions>
<speed>0.0</speed>
<temp>0.00</temp>
<bpm>0</bpm>
<rpm>0.00</rpm>
</extensions>
</trkpt>
<trkpt lat="30.619939804" lon="34.919830322">
<ele>439.203125</ele>
<time>2013-11-22T12:19:29Z</time>
<speed>0.010000</speed>
<extensions>
<speed>0.0</speed>
<temp>0.00</temp>
<bpm>0</bpm>
<rpm>0.00</rpm>
</extensions>
</trkpt>
<trkpt lat="30.619939804" lon="34.919830322">
<ele>439.210938</ele>
<time>2013-11-22T12:19:34Z</time>
<extensions>
<speed>0.0</speed>
<temp>0.00</temp>
<bpm>0</bpm>
<rpm>0.00</rpm>
</extensions>
</trkpt>
<trkpt lat="30.619939804" lon="34.919830322">
<ele>439.210938</ele>
<time>2013-11-22T12:19:39Z</time>
<extensions>
<speed>0.0</speed>
<temp>0.00</temp>
<bpm>0</bpm>
<rpm>0.00</rpm>
</extensions>
</trkpt>
<trkpt lat="30.619939804" lon="34.919830322">
<ele>439.210938</ele>
<time>2013-11-22T12:19:44Z</time>
<speed>0.010000</speed>
<extensions>
<speed>0.0</speed>
<temp>0.00</temp>
<bpm>0</bpm>
<rpm>0.00</rpm>
</extensions>
</trkpt>
<trkpt lat="30.619939804" lon="34.919830322">
<ele>439.218750</ele>
<time>2013-11-22T12:19:49Z</time>
<extensions>
<speed>0.0</speed>
<temp>0.00</temp>
<bpm>0</bpm>
<rpm>0.00</rpm>
</extensions>
</trkpt>
<trkpt lat="30.619939804" lon="34.919830322">
<ele>439.218750</ele>
<time>2013-11-22T12:19:54Z</time>
<extensions>
<speed>0.0</speed>
<temp>0.00</temp>
<bpm>0</bpm>
<rpm>0.00</rpm>
</extensions>
</trkpt>
<trkpt lat="30.619939804" lon="34.919830322">
<ele>439.226563</ele>
<time>2013-11-22T12:19:59Z</time>
<extensions>
<speed>0.0</speed>
<temp>0.00</temp>
<bpm>0</bpm>
<rpm>0.00</rpm>
</extensions>
</trkpt>
<trkpt lat="30.619939804" lon="34.919830322">
<ele>439.226563</ele>
<time>2013-11-22T12:20:04Z</time>
<extensions>
<speed>0.0</speed>
<temp>0.00</temp>
<bpm>0</bpm>
<rpm>0.00</rpm>
</extensions>
</trkpt>
<trkpt lat="30.619939804" lon="34.919830322">
<ele>439.234375</ele>
<time>2013-11-22T12:20:09Z</time>
<extensions>
<speed>0.0</speed>
<temp>0.00</temp>
<bpm>0</bpm>
<rpm>0.00</rpm>
</extensions>
</trkpt>
<trkpt lat="30.619939804" lon="34.919830322">
<ele>439.234375</ele>
<time>2013-11-22T12:20:14Z</time>
<extensions>
<speed>0.0</speed>
<temp>0.00</temp>
<bpm>0</bpm>
<rpm>0.00</rpm>
</extensions>
</trkpt>
<trkpt lat="30.619939804" lon="34.919830322">
<ele>439.242188</ele>
<time>2013-11-22T12:20:19Z</time>
<extensions>
<speed>0.0</speed>
<temp>0.00</temp>
<bpm>0</bpm>
<rpm>0.00</rpm>
</extensions>
</trkpt>
<trkpt lat="30.619937897" lon="34.919830322">
<ele>439.250000</ele>
<time>2013-11-22T12:20:24Z</time>
<speed>0.010000</speed>
<extensions>
<speed>0.0</speed>
<temp>0.00</temp>
<bpm>0</bpm>
<rpm>0.00</rpm>
</extensions>
</trkpt>
<trkpt lat="30.619937897" lon="34.919830322">
<ele>439.257813</ele>
<time>2013-11-22T12:20:29Z</time>
<extensions>
<speed>0.0</speed>
<temp>0.00</temp>
<bpm>0</bpm>
<rpm>0.00</rpm>
</extensions>
</trkpt>
<trkpt lat="30.619937897" lon="34.919830322">
<ele>439.273438</ele>
<time>2013-11-22T12:20:34Z</time>
<extensions>
<speed>0.0</speed>
<temp>0.00</temp>
<bpm>0</bpm>
<rpm>0.00</rpm>
</extensions>
</trkpt>
<trkpt lat="30.619937897" lon="34.919830322">
<ele>439.273438</ele>
<time>2013-11-22T12:20:39Z</time>
<extensions>
<speed>0.0</speed>
<temp>0.00</temp>
<bpm>0</bpm>
<rpm>0.00</rpm>
</extensions>
</trkpt>
<trkpt lat="30.619937897" lon="34.919830322">
<ele>439.281250</ele>
<time>2013-11-22T12:20:44Z</time>
<extensions>
<speed>0.0</speed>
<temp>0.00</temp>
<bpm>0</bpm>
<rpm>0.00</rpm>
</extensions>
</trkpt>
<trkpt lat="30.619937897" lon="34.919830322">
<ele>439.281250</ele>
<time>2013-11-22T12:20:49Z</time>
<extensions>
<speed>0.0</speed>
<temp>0.00</temp>
<bpm>0</bpm>
<rpm>0.00</rpm>
</extensions>
</trkpt>
<trkpt lat="30.619937897" lon="34.919830322">
<ele>439.281250</ele>
<time>2013-11-22T12:20:54Z</time>
<speed>0.010000</speed>
<extensions>
<speed>0.0</speed>
<temp>0.00</temp>
<bpm>0</bpm>
<rpm>0.00</rpm>
</extensions>
</trkpt>
<trkpt lat="30.619937897" lon="34.919830322">
<ele>439.296875</ele>
<time>2013-11-22T12:20:59Z</time>
<extensions>
<speed>0.0</speed>
<temp>0.00</temp>
<bpm>0</bpm>
<rpm>0.00</rpm>
</extensions>
</trkpt>
<trkpt lat="30.619937897" lon="34.919830322">
<ele>439.312500</ele>
<time>2013-11-22T12:21:04Z</time>
<extensions>
<speed>0.0</speed>
<temp>0.00</temp>
<bpm>0</bpm>
<rpm>0.00</rpm>
</extensions>
</trkpt>
<trkpt lat="30.619937897" lon="34.919830322">
<ele>439.328125</ele>
<time>2013-11-22T12:21:09Z</time>
<extensions>
<speed>0.0</speed>
<temp>0.00</temp>
<bpm>0</bpm>
<rpm>0.00</rpm>
</extensions>
</trkpt>
<trkpt lat="30.619937897" lon="34.919830322">
<ele>439.335938</ele>
<time>2013-11-22T12:21:14Z</time>
<speed>0.010000</speed>
<extensions>
<speed>0.0</speed>
<temp>0.00</temp>
<bpm>0</bpm>
<rpm>0.00</rpm>
</extensions>
</trkpt>
<trkpt lat="30.619937897" lon="34.919830322">
<ele>439.351563</ele>
<time>2013-11-22T12:21:19Z</time>
<extensions>
<speed>0.0</speed>
<temp>0.00</temp>
<bpm>0</bpm>
<rpm>0.00</rpm>
</extensions>
</trkpt>
<trkpt lat="30.619937897" lon="34.919830322">
<ele>439.367188</ele>
<time>2013-11-22T12:21:24Z</time>
<extensions>
<speed>0.0</speed>
<temp>0.00</temp>
<bpm>0</bpm>
<rpm>0.00</rpm>
</extensions>
</trkpt>
<trkpt lat="30.619937897" lon="34.919830322">
<ele>439.382813</ele>
<time>2013-11-22T12:21:29Z</time>
<extensions>
<speed>0.0</speed>
<temp>0.00</temp>
<bpm>0</bpm>
<rpm>0.00</rpm>
</extensions>
</trkpt>
<trkpt lat="30.619935989" lon="34.919830322">
<ele>439.390625</ele>
<time>2013-11-22T12:21:34Z</time>
<extensions>
<speed>0.0</speed>
<temp>0.00</temp>
<bpm>0</bpm>
<rpm>0.00</rpm>
</extensions>
</trkpt>
<trkpt lat="30.619935989" lon="34.919830322">
<ele>439.398438</ele>
<time>2013-11-22T12:21:39Z</time>
<extensions>
<speed>0.0</speed>
<temp>0.00</temp>
<bpm>0</bpm>
<rpm>0.00</rpm>
</extensions>
</trkpt>
<trkpt lat="30.619935989" lon="34.919830322">
<ele>439.406250</ele>
<time>2013-11-22T12:21:44Z</time>
<extensions>
<speed>0.0</speed>
<temp>0.00</temp>
<bpm>0</bpm>
<rpm>0.00</rpm>
</extensions>
</trkpt>
<trkpt lat="30.619935989" lon="34.919830322">
<ele>439.414063</ele>
<time>2013-11-22T12:21:49Z</time>
<extensions>
<speed>0.0</speed>
<temp>0.00</temp>
<bpm>0</bpm>
<rpm>0.00</rpm>
</extensions>
</trkpt>
<trkpt lat="30.619935989" lon="34.919830322">
<ele>439.421875</ele>
<time>2013-11-22T12:21:54Z</time>
<extensions>
<speed>0.0</speed>
<temp>0.00</temp>
<bpm>0</bpm>
<rpm>0.00</rpm>
</extensions>
</trkpt>
<trkpt lat="30.619935989" lon="34.919830322">
<ele>439.421875</ele>
<time>2013-11-22T12:21:59Z</time>
<extensions>
<speed>0.0</speed>
<temp>0.00</temp>
<bpm>0</bpm>
<rpm>0.00</rpm>
</extensions>
</trkpt>
<trkpt lat="30.619935989" lon="34.919830322">
<ele>439.429688</ele>
<time>2013-11-22T12:22:04Z</time>
<extensions>
<speed>0.0</speed>
<temp>0.00</temp>
<bpm>0</bpm>
<rpm>0.00</rpm>
</extensions>
</trkpt>
<trkpt lat="30.619935989" lon="34.919826508">
<ele>439.437500</ele>
<time>2013-11-22T12:22:09Z</time>
<extensions>
<speed>0.0</speed>
<temp>0.00</temp>
<bpm>0</bpm>
<rpm>0.00</rpm>
</extensions>
</trkpt>
<trkpt lat="30.619935989" lon="34.919826508">
<ele>439.445313</ele>
<time>2013-11-22T12:22:14Z</time>
<extensions>
<speed>0.0</speed>
<temp>0.00</temp>
<bpm>0</bpm>
<rpm>0.00</rpm>
</extensions>
</trkpt>
<trkpt lat="30.619935989" lon="34.919826508">
<ele>439.445313</ele>
<time>2013-11-22T12:22:19Z</time>
<extensions>
<speed>0.0</speed>
<temp>0.00</temp>
<bpm>0</bpm>
<rpm>0.00</rpm>
</extensions>
</trkpt>
<trkpt lat="30.619935989" lon="34.919826508">
<ele>439.453125</ele>
<time>2013-11-22T12:22:24Z</time>
<extensions>
<speed>0.0</speed>
<temp>0.00</temp>
<bpm>0</bpm>
<rpm>0.00</rpm>
</extensions>
</trkpt>
<trkpt lat="30.619935989" lon="34.919826508">
<ele>439.460938</ele>
<time>2013-11-22T12:22:29Z</time>
<extensions>
<speed>0.0</speed>
<temp>0.00</temp>
<bpm>0</bpm>
<rpm>0.00</rpm>
</extensions>
</trkpt>
<trkpt lat="30.619935989" lon="34.919826508">
<ele>439.453125</ele>
<time>2013-11-22T12:22:34Z</time>
<extensions>
<speed>0.0</speed>
<temp>0.00</temp>
<bpm>0</bpm>
<rpm>0.00</rpm>
</extensions>
</trkpt>
<trkpt lat="30.619935989" lon="34.919826508">
<ele>439.460938</ele>
<time>2013-11-22T12:22:39Z</time>
<extensions>
<speed>0.0</speed>
<temp>0.00</temp>
<bpm>0</bpm>
<rpm>0.00</rpm>
</extensions>
</trkpt>
<trkpt lat="30.619935989" lon="34.919826508">
<ele>439.460938</ele>
<time>2013-11-22T12:22:44Z</time>
<extensions>
<speed>0.0</speed>
<temp>0.00</temp>
<bpm>0</bpm>
<rpm>0.00</rpm>
</extensions>
</trkpt>
<trkpt lat="30.619935989" lon="34.919826508">
<ele>439.460938</ele>
<time>2013-11-22T12:22:49Z</time>
<speed>0.010000</speed>
<extensions>
<speed>0.0</speed>
<temp>0.00</temp>
<bpm>0</bpm>
<rpm>0.00</rpm>
</extensions>
</trkpt>
<trkpt lat="30.619935989" lon="34.919826508">
<ele>439.468750</ele>
<time>2013-11-22T12:22:54Z</time>
<extensions>
<speed>0.0</speed>
<temp>0.00</temp>
<bpm>0</bpm>
<rpm>0.00</rpm>
</extensions>
</trkpt>
<trkpt lat="30.619935989" lon="34.919826508">
<ele>439.476563</ele>
<time>2013-11-22T12:22:59Z</time>
<speed>0.010000</speed>
<extensions>
<speed>0.0</speed>
<temp>0.00</temp>
<bpm>0</bpm>
<rpm>0.00</rpm>
</extensions>
</trkpt>
<trkpt lat="30.619935989" lon="34.919826508">
<ele>439.492188</ele>
<time>2013-11-22T12:23:04Z</time>
<extensions>
<speed>0.0</speed>
<temp>0.00</temp>
<bpm>0</bpm>
<rpm>0.00</rpm>
</extensions>
</trkpt>
<trkpt lat="30.619935989" lon="34.919826508">
<ele>439.492188</ele>
<time>2013-11-22T12:23:09Z</time>
<extensions>
<speed>0.0</speed>
<temp>0.00</temp>
<bpm>0</bpm>
<rpm>0.00</rpm>
</extensions>
</trkpt>
<trkpt lat="30.619934082" lon="34.919826508">
<ele>439.500000</ele>
<time>2013-11-22T12:23:14Z</time>
<extensions>
<speed>0.0</speed>
<temp>0.00</temp>
<bpm>0</bpm>
<rpm>0.00</rpm>
</extensions>
</trkpt>
<trkpt lat="30.619934082" lon="34.919826508">
<ele>439.507813</ele>
<time>2013-11-22T12:23:19Z</time>
<extensions>
<speed>0.0</speed>
<temp>0.00</temp>
<bpm>0</bpm>
<rpm>0.00</rpm>
</extensions>
</trkpt>
<trkpt lat="30.619934082" lon="34.919826508">
<ele>439.515625</ele>
<time>2013-11-22T12:23:24Z</time>
<extensions>
<speed>0.0</speed>
<temp>0.00</temp>
<bpm>0</bpm>
<rpm>0.00</rpm>
</extensions>
</trkpt>
<trkpt lat="30.619934082" lon="34.919826508">
<ele>439.531250</ele>
<time>2013-11-22T12:23:29Z</time>
<extensions>
<speed>0.0</speed>
<temp>0.00</temp>
<bpm>0</bpm>
<rpm>0.00</rpm>
</extensions>
</trkpt>
<trkpt lat="30.619934082" lon="34.919826508">
<ele>439.539063</ele>
<time>2013-11-22T12:23:34Z</time>
<extensions>
<speed>0.0</speed>
<temp>0.00</temp>
<bpm>0</bpm>
<rpm>0.00</rpm>
</extensions>
</trkpt>
<trkpt lat="30.619934082" lon="34.919826508">
<ele>439.531250</ele>
<time>2013-11-22T12:23:39Z</time>
<extensions>
<speed>0.0</speed>
<temp>0.00</temp>
<bpm>0</bpm>
<rpm>0.00</rpm>
</extensions>
</trkpt>
<trkpt lat="30.619934082" lon="34.919826508">
<ele>439.523438</ele>
<time>2013-11-22T12:23:44Z</time>
<speed>0.010000</speed>
<extensions>
<speed>0.0</speed>
<temp>0.00</temp>
<bpm>0</bpm>
<rpm>0.00</rpm>
</extensions>
</trkpt>
<trkpt lat="30.619934082" lon="34.919826508">
<ele>439.515625</ele>
<time>2013-11-22T12:23:49Z</time>
<speed>0.010000</speed>
<extensions>
<speed>0.0</speed>
<temp>0.00</temp>
<bpm>0</bpm>
<rpm>0.00</rpm>
</extensions>
</trkpt>
<trkpt lat="30.619934082" lon="34.919826508">
<ele>439.507813</ele>
<time>2013-11-22T12:23:54Z</time>
<extensions>
<speed>0.0</speed>
<temp>0.00</temp>
<bpm>0</bpm>
<rpm>0.00</rpm>
</extensions>
</trkpt>
<trkpt lat="30.619934082" lon="34.919826508">
<ele>439.492188</ele>
<time>2013-11-22T12:23:59Z</time>
<speed>0.010000</speed>
<extensions>
<speed>0.0</speed>
<temp>0.00</temp>
<bpm>0</bpm>
<rpm>0.00</rpm>
</extensions>
</trkpt>
<trkpt lat="30.619934082" lon="34.919830322">
<ele>439.492188</ele>
<time>2013-11-22T12:24:04Z</time>
<extensions>
<speed>0.0</speed>
<temp>0.00</temp>
<bpm>0</bpm>
<rpm>0.00</rpm>
</extensions>
</trkpt>
<trkpt lat="30.619934082" lon="34.919830322">
<ele>439.484375</ele>
<time>2013-11-22T12:24:09Z</time>
<extensions>
<speed>0.0</speed>
<temp>0.00</temp>
<bpm>0</bpm>
<rpm>0.00</rpm>
</extensions>
</trkpt>
<trkpt lat="30.619934082" lon="34.919830322">
<ele>439.484375</ele>
<time>2013-11-22T12:24:14Z</time>
<extensions>
<speed>0.0</speed>
<temp>0.00</temp>
<bpm>0</bpm>
<rpm>0.00</rpm>
</extensions>
</trkpt>
<trkpt lat="30.619934082" lon="34.919830322">
<ele>439.484375</ele>
<time>2013-11-22T12:24:19Z</time>
<extensions>
<speed>0.0</speed>
<temp>0.00</temp>
<bpm>0</bpm>
<rpm>0.00</rpm>
</extensions>
</trkpt>
<trkpt lat="30.619934082" lon="34.919830322">
<ele>439.484375</ele>
<time>2013-11-22T12:24:24Z</time>
<extensions>
<speed>0.0</speed>
<temp>0.00</temp>
<bpm>0</bpm>
<rpm>0.00</rpm>
</extensions>
</trkpt>
<trkpt lat="30.619934082" lon="34.919830322">
<ele>439.484375</ele>
<time>2013-11-22T12:24:29Z</time>
<extensions>
<speed>0.0</speed>
<temp>0.00</temp>
<bpm>0</bpm>
<rpm>0.00</rpm>
</extensions>
</trkpt>
<trkpt lat="30.619934082" lon="34.919830322">
<ele>439.484375</ele>
<time>2013-11-22T12:24:34Z</time>
<extensions>
<speed>0.0</speed>
<temp>0.00</temp>
<bpm>0</bpm>
<rpm>0.00</rpm>
</extensions>
</trkpt>
<trkpt lat="30.619934082" lon="34.919830322">
<ele>439.484375</ele>
<time>2013-11-22T12:24:39Z</time>
<speed>0.020000</speed>
<extensions>
<speed>0.0</speed>
<temp>0.00</temp>
<bpm>0</bpm>
<rpm>0.00</rpm>
</extensions>
</trkpt>
<trkpt lat="30.619934082" lon="34.919830322">
<ele>439.484375</ele>
<time>2013-11-22T12:24:44Z</time>
<extensions>
<speed>0.0</speed>
<temp>0.00</temp>
<bpm>0</bpm>
<rpm>0.00</rpm>
</extensions>
</trkpt>
<trkpt lat="30.619934082" lon="34.919830322">
<ele>439.476563</ele>
<time>2013-11-22T12:24:49Z</time>
<extensions>
<speed>0.0</speed>
<temp>0.00</temp>
<bpm>0</bpm>
<rpm>0.00</rpm>
</extensions>
</trkpt>
<trkpt lat="30.619934082" lon="34.919830322">
<ele>439.476563</ele>
<time>2013-11-22T12:24:54Z</time>
<extensions>
<speed>0.0</speed>
<temp>0.00</temp>
<bpm>0</bpm>
<rpm>0.00</rpm>
</extensions>
</trkpt>
<trkpt lat="30.619932175" lon="34.919830322">
<ele>439.484375</ele>
<time>2013-11-22T12:24:59Z</time>
<extensions>
<speed>0.0</speed>
<temp>0.00</temp>
<bpm>0</bpm>
<rpm>0.00</rpm>
</extensions>
</trkpt>
<trkpt lat="30.619932175" lon="34.919830322">
<ele>439.492188</ele>
<time>2013-11-22T12:25:04Z</time>
<extensions>
<speed>0.0</speed>
<temp>0.00</temp>
<bpm>0</bpm>
<rpm>0.00</rpm>
</extensions>
</trkpt>
<trkpt lat="30.619932175" lon="34.919830322">
<ele>439.507813</ele>
<time>2013-11-22T12:25:09Z</time>
<speed>0.010000</speed>
<extensions>
<speed>0.0</speed>
<temp>0.00</temp>
<bpm>0</bpm>
<rpm>0.00</rpm>
</extensions>
</trkpt>
<trkpt lat="30.619932175" lon="34.919830322">
<ele>439.515625</ele>
<time>2013-11-22T12:25:14Z</time>
<extensions>
<speed>0.0</speed>
<temp>0.00</temp>
<bpm>0</bpm>
<rpm>0.00</rpm>
</extensions>
</trkpt>
<trkpt lat="30.619932175" lon="34.919830322">
<ele>439.523438</ele>
<time>2013-11-22T12:25:19Z</time>
<speed>0.010000</speed>
<extensions>
<speed>0.0</speed>
<temp>0.00</temp>
<bpm>0</bpm>
<rpm>0.00</rpm>
</extensions>
</trkpt>
<trkpt lat="30.619932175" lon="34.919830322">
<ele>439.539063</ele>
<time>2013-11-22T12:25:24Z</time>
<extensions>
<speed>0.0</speed>
<temp>0.00</temp>
<bpm>0</bpm>
<rpm>0.00</rpm>
</extensions>
</trkpt>
<trkpt lat="30.619932175" lon="34.919830322">
<ele>439.546875</ele>
<time>2013-11-22T12:25:29Z</time>
<extensions>
<speed>0.0</speed>
<temp>0.00</temp>
<bpm>0</bpm>
<rpm>0.00</rpm>
</extensions>
</trkpt>
<trkpt lat="30.619932175" lon="34.919830322">
<ele>439.554688</ele>
<time>2013-11-22T12:25:34Z</time>
<extensions>
<speed>0.0</speed>
<temp>0.00</temp>
<bpm>0</bpm>
<rpm>0.00</rpm>
</extensions>
</trkpt>
<trkpt lat="30.619932175" lon="34.919830322">
<ele>439.570313</ele>
<time>2013-11-22T12:25:39Z</time>
<extensions>
<speed>0.0</speed>
<temp>0.00</temp>
<bpm>0</bpm>
<rpm>0.00</rpm>
</extensions>
</trkpt>
<trkpt lat="30.619932175" lon="34.919830322">
<ele>439.578125</ele>
<time>2013-11-22T12:25:44Z</time>
<extensions>
<speed>0.0</speed>
<temp>0.00</temp>
<bpm>0</bpm>
<rpm>0.00</rpm>
</extensions>
</trkpt>
<trkpt lat="30.619932175" lon="34.919830322">
<ele>439.593750</ele>
<time>2013-11-22T12:25:49Z</time>
<extensions>
<speed>0.0</speed>
<temp>0.00</temp>
<bpm>0</bpm>
<rpm>0.00</rpm>
</extensions>
</trkpt>
<trkpt lat="30.619932175" lon="34.919830322">
<ele>439.601563</ele>
<time>2013-11-22T12:25:54Z</time>
<extensions>
<speed>0.0</speed>
<temp>0.00</temp>
<bpm>0</bpm>
<rpm>0.00</rpm>
</extensions>
</trkpt>
<trkpt lat="30.619932175" lon="34.919830322">
<ele>439.609375</ele>
<time>2013-11-22T12:25:59Z</time>
<extensions>
<speed>0.0</speed>
<temp>0.00</temp>
<bpm>0</bpm>
<rpm>0.00</rpm>
</extensions>
</trkpt>
<trkpt lat="30.619932175" lon="34.919830322">
<ele>439.625000</ele>
<time>2013-11-22T12:26:04Z</time>
<extensions>
<speed>0.0</speed>
<temp>0.00</temp>
<bpm>0</bpm>
<rpm>0.00</rpm>
</extensions>
</trkpt>
<trkpt lat="30.619930267" lon="34.919830322">
<ele>439.632813</ele>
<time>2013-11-22T12:26:09Z</time>
<extensions>
<speed>0.0</speed>
<temp>0.00</temp>
<bpm>0</bpm>
<rpm>0.00</rpm>
</extensions>
</trkpt>
<trkpt lat="30.619930267" lon="34.919830322">
<ele>439.640625</ele>
<time>2013-11-22T12:26:14Z</time>
<speed>0.010000</speed>
<extensions>
<speed>0.0</speed>
<temp>0.00</temp>
<bpm>0</bpm>
<rpm>0.00</rpm>
</extensions>
</trkpt>
<trkpt lat="30.619930267" lon="34.919830322">
<ele>439.648438</ele>
<time>2013-11-22T12:26:19Z</time>
<extensions>
<speed>0.0</speed>
<temp>0.00</temp>
<bpm>0</bpm>
<rpm>0.00</rpm>
</extensions>
</trkpt>
<trkpt lat="30.619930267" lon="34.919830322">
<ele>439.664063</ele>
<time>2013-11-22T12:26:24Z</time>
<extensions>
<speed>0.0</speed>
<temp>0.00</temp>
<bpm>0</bpm>
<rpm>0.00</rpm>
</extensions>
</trkpt>
<trkpt lat="30.619930267" lon="34.919830322">
<ele>439.679688</ele>
<time>2013-11-22T12:26:29Z</time>
<speed>0.010000</speed>
<extensions>
<speed>0.0</speed>
<temp>0.00</temp>
<bpm>0</bpm>
<rpm>0.00</rpm>
</extensions>
</trkpt>
<trkpt lat="30.619930267" lon="34.919830322">
<ele>439.687500</ele>
<time>2013-11-22T12:26:34Z</time>
<extensions>
<speed>0.0</speed>
<temp>0.00</temp>
<bpm>0</bpm>
<rpm>0.00</rpm>
</extensions>
</trkpt>
<trkpt lat="30.619930267" lon="34.919830322">
<ele>439.703125</ele>
<time>2013-11-22T12:26:39Z</time>
<extensions>
<speed>0.0</speed>
<temp>0.00</temp>
<bpm>0</bpm>
<rpm>0.00</rpm>
</extensions>
</trkpt>
<trkpt lat="30.619930267" lon="34.919830322">
<ele>439.703125</ele>
<time>2013-11-22T12:26:44Z</time>
<extensions>
<speed>0.0</speed>
<temp>0.00</temp>
<bpm>0</bpm>
<rpm>0.00</rpm>
</extensions>
</trkpt>
<trkpt lat="30.619930267" lon="34.919830322">
<ele>439.703125</ele>
<time>2013-11-22T12:26:49Z</time>
<extensions>
<speed>0.0</speed>
<temp>0.00</temp>
<bpm>0</bpm>
<rpm>0.00</rpm>
</extensions>
</trkpt>
<trkpt lat="30.619930267" lon="34.919830322">
<ele>439.703125</ele>
<time>2013-11-22T12:26:54Z</time>
<extensions>
<speed>0.0</speed>
<temp>0.00</temp>
<bpm>0</bpm>
<rpm>0.00</rpm>
</extensions>
</trkpt>
<trkpt lat="30.619930267" lon="34.919830322">
<ele>439.695313</ele>
<time>2013-11-22T12:26:59Z</time>
<extensions>
<speed>0.0</speed>
<temp>0.00</temp>
<bpm>0</bpm>
<rpm>0.00</rpm>
</extensions>
</trkpt>
<trkpt lat="30.619930267" lon="34.919830322">
<ele>439.703125</ele>
<time>2013-11-22T12:27:04Z</time>
<extensions>
<speed>0.0</speed>
<temp>0.00</temp>
<bpm>0</bpm>
<rpm>0.00</rpm>
</extensions>
</trkpt>
<trkpt lat="30.619930267" lon="34.919830322">
<ele>439.710938</ele>
<time>2013-11-22T12:27:09Z</time>
<extensions>
<speed>0.0</speed>
<temp>0.00</temp>
<bpm>0</bpm>
<rpm>0.00</rpm>
</extensions>
</trkpt>
<trkpt lat="30.619930267" lon="34.919830322">
<ele>439.718750</ele>
<time>2013-11-22T12:27:14Z</time>
<extensions>
<speed>0.0</speed>
<temp>0.00</temp>
<bpm>0</bpm>
<rpm>0.00</rpm>
</extensions>
</trkpt>
<trkpt lat="30.619930267" lon="34.919830322">
<ele>439.718750</ele>
<time>2013-11-22T12:27:19Z</time>
<extensions>
<speed>0.0</speed>
<temp>0.00</temp>
<bpm>0</bpm>
<rpm>0.00</rpm>
</extensions>
</trkpt>
<trkpt lat="30.619930267" lon="34.919830322">
<ele>439.726563</ele>
<time>2013-11-22T12:27:24Z</time>
<extensions>
<speed>0.0</speed>
<temp>0.00</temp>
<bpm>0</bpm>
<rpm>0.00</rpm>
</extensions>
</trkpt>
<trkpt lat="30.619930267" lon="34.919830322">
<ele>439.734375</ele>
<time>2013-11-22T12:27:29Z</time>
<extensions>
<speed>0.0</speed>
<temp>0.00</temp>
<bpm>0</bpm>
<rpm>0.00</rpm>
</extensions>
</trkpt>
<trkpt lat="30.619930267" lon="34.919830322">
<ele>439.734375</ele>
<time>2013-11-22T12:27:34Z</time>
<speed>0.010000</speed>
<extensions>
<speed>0.0</speed>
<temp>0.00</temp>
<bpm>0</bpm>
<rpm>0.00</rpm>
</extensions>
</trkpt>
<trkpt lat="30.619930267" lon="34.919830322">
<ele>439.742188</ele>
<time>2013-11-22T12:27:39Z</time>
<extensions>
<speed>0.0</speed>
<temp>0.00</temp>
<bpm>0</bpm>
<rpm>0.00</rpm>
</extensions>
</trkpt>
<trkpt lat="30.619930267" lon="34.919830322">
<ele>439.734375</ele>
<time>2013-11-22T12:27:44Z</time>
<extensions>
<speed>0.0</speed>
<temp>0.00</temp>
<bpm>0</bpm>
<rpm>0.00</rpm>
</extensions>
</trkpt>
<trkpt lat="30.619930267" lon="34.919830322">
<ele>439.734375</ele>
<time>2013-11-22T12:27:49Z</time>
<speed>0.010000</speed>
<extensions>
<speed>0.0</speed>
<temp>0.00</temp>
<bpm>0</bpm>
<rpm>0.00</rpm>
</extensions>
</trkpt>
<trkpt lat="30.619928360" lon="34.919830322">
<ele>439.726563</ele>
<time>2013-11-22T12:27:54Z</time>
<extensions>
<speed>0.0</speed>
<temp>0.00</temp>
<bpm>0</bpm>
<rpm>0.00</rpm>
</extensions>
</trkpt>
<trkpt lat="30.619928360" lon="34.919830322">
<ele>439.718750</ele>
<time>2013-11-22T12:27:59Z</time>
<extensions>
<speed>0.0</speed>
<temp>0.00</temp>
<bpm>0</bpm>
<rpm>0.00</rpm>
</extensions>
</trkpt>
<trkpt lat="30.619928360" lon="34.919830322">
<ele>439.710938</ele>
<time>2013-11-22T12:28:04Z</time>
<extensions>
<speed>0.0</speed>
<temp>0.00</temp>
<bpm>0</bpm>
<rpm>0.00</rpm>
</extensions>
</trkpt>
<trkpt lat="30.619928360" lon="34.919830322">
<ele>439.703125</ele>
<time>2013-11-22T12:28:09Z</time>
<extensions>
<speed>0.0</speed>
<temp>0.00</temp>
<bpm>0</bpm>
<rpm>0.00</rpm>
</extensions>
</trkpt>
<trkpt lat="30.619928360" lon="34.919830322">
<ele>439.695313</ele>
<time>2013-11-22T12:28:14Z</time>
<extensions>
<speed>0.0</speed>
<temp>0.00</temp>
<bpm>0</bpm>
<rpm>0.00</rpm>
</extensions>
</trkpt>
<trkpt lat="30.619928360" lon="34.919830322">
<ele>439.687500</ele>
<time>2013-11-22T12:28:19Z</time>
<extensions>
<speed>0.0</speed>
<temp>0.00</temp>
<bpm>0</bpm>
<rpm>0.00</rpm>
</extensions>
</trkpt>
<trkpt lat="30.619928360" lon="34.919830322">
<ele>439.679688</ele>
<time>2013-11-22T12:28:24Z</time>
<speed>0.010000</speed>
<extensions>
<speed>0.0</speed>
<temp>0.00</temp>
<bpm>0</bpm>
<rpm>0.00</rpm>
</extensions>
</trkpt>
<trkpt lat="30.619928360" lon="34.919830322">
<ele>439.679688</ele>
<time>2013-11-22T12:28:29Z</time>
<extensions>
<speed>0.0</speed>
<temp>0.00</temp>
<bpm>0</bpm>
<rpm>0.00</rpm>
</extensions>
</trkpt>
<trkpt lat="30.619928360" lon="34.919830322">
<ele>439.679688</ele>
<time>2013-11-22T12:28:34Z</time>
<extensions>
<speed>0.0</speed>
<temp>0.00</temp>
<bpm>0</bpm>
<rpm>0.00</rpm>
</extensions>
</trkpt>
<trkpt lat="30.619928360" lon="34.919830322">
<ele>439.664063</ele>
<time>2013-11-22T12:28:39Z</time>
<extensions>
<speed>0.0</speed>
<temp>0.00</temp>
<bpm>0</bpm>
<rpm>0.00</rpm>
</extensions>
</trkpt>
<trkpt lat="30.619928360" lon="34.919830322">
<ele>439.664063</ele>
<time>2013-11-22T12:28:44Z</time>
<extensions>
<speed>0.0</speed>
<temp>0.00</temp>
<bpm>0</bpm>
<rpm>0.00</rpm>
</extensions>
</trkpt>
<trkpt lat="30.619928360" lon="34.919830322">
<ele>439.656250</ele>
<time>2013-11-22T12:28:49Z</time>
<extensions>
<speed>0.0</speed>
<temp>0.00</temp>
<bpm>0</bpm>
<rpm>0.00</rpm>
</extensions>
</trkpt>
<trkpt lat="30.619928360" lon="34.919830322">
<ele>439.648438</ele>
<time>2013-11-22T12:28:54Z</time>
<extensions>
<speed>0.0</speed>
<temp>0.00</temp>
<bpm>0</bpm>
<rpm>0.00</rpm>
</extensions>
</trkpt>
<trkpt lat="30.619928360" lon="34.919830322">
<ele>439.640625</ele>
<time>2013-11-22T12:28:59Z</time>
<extensions>
<speed>0.0</speed>
<temp>0.00</temp>
<bpm>0</bpm>
<rpm>0.00</rpm>
</extensions>
</trkpt>
<trkpt lat="30.619928360" lon="34.919830322">
<ele>439.632813</ele>
<time>2013-11-22T12:29:04Z</time>
<extensions>
<speed>0.0</speed>
<temp>0.00</temp>
<bpm>0</bpm>
<rpm>0.00</rpm>
</extensions>
</trkpt>
<trkpt lat="30.619928360" lon="34.919830322">
<ele>439.625000</ele>
<time>2013-11-22T12:29:09Z</time>
<extensions>
<speed>0.0</speed>
<temp>0.00</temp>
<bpm>0</bpm>
<rpm>0.00</rpm>
</extensions>
</trkpt>
<trkpt lat="30.619928360" lon="34.919830322">
<ele>439.625000</ele>
<time>2013-11-22T12:29:14Z</time>
<extensions>
<speed>0.0</speed>
<temp>0.00</temp>
<bpm>0</bpm>
<rpm>0.00</rpm>
</extensions>
</trkpt>
<trkpt lat="30.619928360" lon="34.919830322">
<ele>439.617188</ele>
<time>2013-11-22T12:29:19Z</time>
<extensions>
<speed>0.0</speed>
<temp>0.00</temp>
<bpm>0</bpm>
<rpm>0.00</rpm>
</extensions>
</trkpt>
<trkpt lat="30.619928360" lon="34.919830322">
<ele>439.617188</ele>
<time>2013-11-22T12:29:24Z</time>
<extensions>
<speed>0.0</speed>
<temp>0.00</temp>
<bpm>0</bpm>
<rpm>0.00</rpm>
</extensions>
</trkpt>
<trkpt lat="30.619928360" lon="34.919830322">
<ele>439.625000</ele>
<time>2013-11-22T12:29:29Z</time>
<extensions>
<speed>0.0</speed>
<temp>0.00</temp>
<bpm>0</bpm>
<rpm>0.00</rpm>
</extensions>
</trkpt>
<trkpt lat="30.619928360" lon="34.919830322">
<ele>439.625000</ele>
<time>2013-11-22T12:29:34Z</time>
<extensions>
<speed>0.0</speed>
<temp>0.00</temp>
<bpm>0</bpm>
<rpm>0.00</rpm>
</extensions>
</trkpt>
<trkpt lat="30.619928360" lon="34.919830322">
<ele>439.632813</ele>
<time>2013-11-22T12:29:39Z</time>
<extensions>
<speed>0.0</speed>
<temp>0.00</temp>
<bpm>0</bpm>
<rpm>0.00</rpm>
</extensions>
</trkpt>
<trkpt lat="30.619928360" lon="34.919830322">
<ele>439.632813</ele>
<time>2013-11-22T12:29:44Z</time>
<extensions>
<speed>0.0</speed>
<temp>0.00</temp>
<bpm>0</bpm>
<rpm>0.00</rpm>
</extensions>
</trkpt>
<trkpt lat="30.619928360" lon="34.919830322">
<ele>439.625000</ele>
<time>2013-11-22T12:29:49Z</time>
<extensions>
<speed>0.0</speed>
<temp>0.00</temp>
<bpm>0</bpm>
<rpm>0.00</rpm>
</extensions>
</trkpt>
<trkpt lat="30.619928360" lon="34.919830322">
<ele>439.625000</ele>
<time>2013-11-22T12:29:54Z</time>
<speed>0.010000</speed>
<extensions>
<speed>0.0</speed>
<temp>0.00</temp>
<bpm>0</bpm>
<rpm>0.00</rpm>
</extensions>
</trkpt>
<trkpt lat="30.619928360" lon="34.919830322">
<ele>439.625000</ele>
<time>2013-11-22T12:29:59Z</time>
<extensions>
<speed>0.0</speed>
<temp>0.00</temp>
<bpm>0</bpm>
<rpm>0.00</rpm>
</extensions>
</trkpt>
<trkpt lat="30.619928360" lon="34.919830322">
<ele>439.625000</ele>
<time>2013-11-22T12:30:04Z</time>
<extensions>
<speed>0.0</speed>
<temp>0.00</temp>
<bpm>0</bpm>
<rpm>0.00</rpm>
</extensions>
</trkpt>
<trkpt lat="30.619926453" lon="34.919830322">
<ele>439.625000</ele>
<time>2013-11-22T12:30:09Z</time>
<extensions>
<speed>0.0</speed>
<temp>0.00</temp>
<bpm>0</bpm>
<rpm>0.00</rpm>
</extensions>
</trkpt>
<trkpt lat="30.619926453" lon="34.919830322">
<ele>439.632813</ele>
<time>2013-11-22T12:30:14Z</time>
<extensions>
<speed>0.0</speed>
<temp>0.00</temp>
<bpm>0</bpm>
<rpm>0.00</rpm>
</extensions>
</trkpt>
<trkpt lat="30.619926453" lon="34.919830322">
<ele>439.632813</ele>
<time>2013-11-22T12:30:19Z</time>
<extensions>
<speed>0.0</speed>
<temp>0.00</temp>
<bpm>0</bpm>
<rpm>0.00</rpm>
</extensions>
</trkpt>
<trkpt lat="30.619926453" lon="34.919830322">
<ele>439.632813</ele>
<time>2013-11-22T12:30:24Z</time>
<extensions>
<speed>0.0</speed>
<temp>0.00</temp>
<bpm>0</bpm>
<rpm>0.00</rpm>
</extensions>
</trkpt>
<trkpt lat="30.619926453" lon="34.919830322">
<ele>439.640625</ele>
<time>2013-11-22T12:30:29Z</time>
<extensions>
<speed>0.0</speed>
<temp>0.00</temp>
<bpm>0</bpm>
<rpm>0.00</rpm>
</extensions>
</trkpt>
<trkpt lat="30.619926453" lon="34.919830322">
<ele>439.640625</ele>
<time>2013-11-22T12:30:34Z</time>
<extensions>
<speed>0.0</speed>
<temp>0.00</temp>
<bpm>0</bpm>
<rpm>0.00</rpm>
</extensions>
</trkpt>
<trkpt lat="30.619926453" lon="34.919830322">
<ele>439.640625</ele>
<time>2013-11-22T12:30:39Z</time>
<speed>0.010000</speed>
<extensions>
<speed>0.0</speed>
<temp>0.00</temp>
<bpm>0</bpm>
<rpm>0.00</rpm>
</extensions>
</trkpt>
<trkpt lat="30.619926453" lon="34.919830322">
<ele>439.632813</ele>
<time>2013-11-22T12:30:44Z</time>
<extensions>
<speed>0.0</speed>
<temp>0.00</temp>
<bpm>0</bpm>
<rpm>0.00</rpm>
</extensions>
</trkpt>
<trkpt lat="30.619926453" lon="34.919830322">
<ele>439.632813</ele>
<time>2013-11-22T12:30:49Z</time>
<extensions>
<speed>0.0</speed>
<temp>0.00</temp>
<bpm>0</bpm>
<rpm>0.00</rpm>
</extensions>
</trkpt>
<trkpt lat="30.619926453" lon="34.919830322">
<ele>439.632813</ele>
<time>2013-11-22T12:30:54Z</time>
<extensions>
<speed>0.0</speed>
<temp>0.00</temp>
<bpm>0</bpm>
<rpm>0.00</rpm>
</extensions>
</trkpt>
<trkpt lat="30.619926453" lon="34.919830322">
<ele>439.632813</ele>
<time>2013-11-22T12:30:59Z</time>
<extensions>
<speed>0.0</speed>
<temp>0.00</temp>
<bpm>0</bpm>
<rpm>0.00</rpm>
</extensions>
</trkpt>
<trkpt lat="30.619926453" lon="34.919830322">
<ele>439.625000</ele>
<time>2013-11-22T12:31:04Z</time>
<extensions>
<speed>0.0</speed>
<temp>0.00</temp>
<bpm>0</bpm>
<rpm>0.00</rpm>
</extensions>
</trkpt>
<trkpt lat="30.619926453" lon="34.919830322">
<ele>439.625000</ele>
<time>2013-11-22T12:31:09Z</time>
<extensions>
<speed>0.0</speed>
<temp>0.00</temp>
<bpm>0</bpm>
<rpm>0.00</rpm>
</extensions>
</trkpt>
<trkpt lat="30.619926453" lon="34.919830322">
<ele>439.625000</ele>
<time>2013-11-22T12:31:14Z</time>
<extensions>
<speed>0.0</speed>
<temp>0.00</temp>
<bpm>0</bpm>
<rpm>0.00</rpm>
</extensions>
</trkpt>
<trkpt lat="30.619926453" lon="34.919830322">
<ele>439.625000</ele>
<time>2013-11-22T12:31:19Z</time>
<extensions>
<speed>0.0</speed>
<temp>0.00</temp>
<bpm>0</bpm>
<rpm>0.00</rpm>
</extensions>
</trkpt>
<trkpt lat="30.619926453" lon="34.919830322">
<ele>439.617188</ele>
<time>2013-11-22T12:31:24Z</time>
<speed>0.010000</speed>
<extensions>
<speed>0.0</speed>
<temp>0.00</temp>
<bpm>0</bpm>
<rpm>0.00</rpm>
</extensions>
</trkpt>
<trkpt lat="30.619926453" lon="34.919830322">
<ele>439.617188</ele>
<time>2013-11-22T12:31:29Z</time>
<speed>0.010000</speed>
<extensions>
<speed>0.0</speed>
<temp>0.00</temp>
<bpm>0</bpm>
<rpm>0.00</rpm>
</extensions>
</trkpt>
<trkpt lat="30.619926453" lon="34.919834137">
<ele>439.609375</ele>
<time>2013-11-22T12:31:34Z</time>
<extensions>
<speed>0.0</speed>
<temp>0.00</temp>
<bpm>0</bpm>
<rpm>0.00</rpm>
</extensions>
</trkpt>
<trkpt lat="30.619926453" lon="34.919834137">
<ele>439.601563</ele>
<time>2013-11-22T12:31:39Z</time>
<extensions>
<speed>0.0</speed>
<temp>0.00</temp>
<bpm>0</bpm>
<rpm>0.00</rpm>
</extensions>
</trkpt>
<trkpt lat="30.619926453" lon="34.919834137">
<ele>439.601563</ele>
<time>2013-11-22T12:31:44Z</time>
<extensions>
<speed>0.0</speed>
<temp>0.00</temp>
<bpm>0</bpm>
<rpm>0.00</rpm>
</extensions>
</trkpt>
<trkpt lat="30.619926453" lon="34.919834137">
<ele>439.601563</ele>
<time>2013-11-22T12:31:49Z</time>
<extensions>
<speed>0.0</speed>
<temp>0.00</temp>
<bpm>0</bpm>
<rpm>0.00</rpm>
</extensions>
</trkpt>
<trkpt lat="30.619926453" lon="34.919834137">
<ele>439.601563</ele>
<time>2013-11-22T12:31:54Z</time>
<extensions>
<speed>0.0</speed>
<temp>0.00</temp>
<bpm>0</bpm>
<rpm>0.00</rpm>
</extensions>
</trkpt>
<trkpt lat="30.619926453" lon="34.919834137">
<ele>439.593750</ele>
<time>2013-11-22T12:31:59Z</time>
<extensions>
<speed>0.0</speed>
<temp>0.00</temp>
<bpm>0</bpm>
<rpm>0.00</rpm>
</extensions>
</trkpt>
<trkpt lat="30.619926453" lon="34.919834137">
<ele>439.593750</ele>
<time>2013-11-22T12:32:04Z</time>
<extensions>
<speed>0.0</speed>
<temp>0.00</temp>
<bpm>0</bpm>
<rpm>0.00</rpm>
</extensions>
</trkpt>
<trkpt lat="30.619926453" lon="34.919834137">
<ele>439.585938</ele>
<time>2013-11-22T12:32:09Z</time>
<extensions>
<speed>0.0</speed>
<temp>0.00</temp>
<bpm>0</bpm>
<rpm>0.00</rpm>
</extensions>
</trkpt>
<trkpt lat="30.619926453" lon="34.919834137">
<ele>439.585938</ele>
<time>2013-11-22T12:32:14Z</time>
<extensions>
<speed>0.0</speed>
<temp>0.00</temp>
<bpm>0</bpm>
<rpm>0.00</rpm>
</extensions>
</trkpt>
<trkpt lat="30.619926453" lon="34.919834137">
<ele>439.585938</ele>
<time>2013-11-22T12:32:19Z</time>
<extensions>
<speed>0.0</speed>
<temp>0.00</temp>
<bpm>0</bpm>
<rpm>0.00</rpm>
</extensions>
</trkpt>
<trkpt lat="30.619926453" lon="34.919834137">
<ele>439.578125</ele>
<time>2013-11-22T12:32:24Z</time>
<extensions>
<speed>0.0</speed>
<temp>0.00</temp>
<bpm>0</bpm>
<rpm>0.00</rpm>
</extensions>
</trkpt>
<trkpt lat="30.619926453" lon="34.919834137">
<ele>439.570313</ele>
<time>2013-11-22T12:32:29Z</time>
<extensions>
<speed>0.0</speed>
<temp>0.00</temp>
<bpm>0</bpm>
<rpm>0.00</rpm>
</extensions>
</trkpt>
<trkpt lat="30.619926453" lon="34.919834137">
<ele>439.570313</ele>
<time>2013-11-22T12:32:34Z</time>
<extensions>
<speed>0.0</speed>
<temp>0.00</temp>
<bpm>0</bpm>
<rpm>0.00</rpm>
</extensions>
</trkpt>
<trkpt lat="30.619926453" lon="34.919834137">
<ele>439.570313</ele>
<time>2013-11-22T12:32:39Z</time>
<extensions>
<speed>0.0</speed>
<temp>0.00</temp>
<bpm>0</bpm>
<rpm>0.00</rpm>
</extensions>
</trkpt>
<trkpt lat="30.619926453" lon="34.919834137">
<ele>439.570313</ele>
<time>2013-11-22T12:32:44Z</time>
<extensions>
<speed>0.0</speed>
<temp>0.00</temp>
<bpm>0</bpm>
<rpm>0.00</rpm>
</extensions>
</trkpt>
<trkpt lat="30.619926453" lon="34.919834137">
<ele>439.570313</ele>
<time>2013-11-22T12:32:49Z</time>
<extensions>
<speed>0.0</speed>
<temp>0.00</temp>
<bpm>0</bpm>
<rpm>0.00</rpm>
</extensions>
</trkpt>
<trkpt lat="30.619926453" lon="34.919834137">
<ele>439.562500</ele>
<time>2013-11-22T12:32:54Z</time>
<extensions>
<speed>0.0</speed>
<temp>0.00</temp>
<bpm>0</bpm>
<rpm>0.00</rpm>
</extensions>
</trkpt>
<trkpt lat="30.619926453" lon="34.919834137">
<ele>439.562500</ele>
<time>2013-11-22T12:32:59Z</time>
<speed>0.010000</speed>
<extensions>
<speed>0.0</speed>
<temp>0.00</temp>
<bpm>0</bpm>
<rpm>0.00</rpm>
</extensions>
</trkpt>
<trkpt lat="30.619926453" lon="34.919834137">
<ele>439.554688</ele>
<time>2013-11-22T12:33:04Z</time>
<extensions>
<speed>0.0</speed>
<temp>0.00</temp>
<bpm>0</bpm>
<rpm>0.00</rpm>
</extensions>
</trkpt>
<trkpt lat="30.619926453" lon="34.919834137">
<ele>439.554688</ele>
<time>2013-11-22T12:33:09Z</time>
<extensions>
<speed>0.0</speed>
<temp>0.00</temp>
<bpm>0</bpm>
<rpm>0.00</rpm>
</extensions>
</trkpt>
<trkpt lat="30.619926453" lon="34.919834137">
<ele>439.562500</ele>
<time>2013-11-22T12:33:14Z</time>
<extensions>
<speed>0.0</speed>
<temp>0.00</temp>
<bpm>0</bpm>
<rpm>0.00</rpm>
</extensions>
</trkpt>
<trkpt lat="30.619926453" lon="34.919834137">
<ele>439.554688</ele>
<time>2013-11-22T12:33:19Z</time>
<extensions>
<speed>0.0</speed>
<temp>0.00</temp>
<bpm>0</bpm>
<rpm>0.00</rpm>
</extensions>
</trkpt>
<trkpt lat="30.619926453" lon="34.919834137">
<ele>439.554688</ele>
<time>2013-11-22T12:33:24Z</time>
<extensions>
<speed>0.0</speed>
<temp>0.00</temp>
<bpm>0</bpm>
<rpm>0.00</rpm>
</extensions>
</trkpt>
<trkpt lat="30.619926453" lon="34.919834137">
<ele>439.546875</ele>
<time>2013-11-22T12:33:29Z</time>
<extensions>
<speed>0.0</speed>
<temp>0.00</temp>
<bpm>0</bpm>
<rpm>0.00</rpm>
</extensions>
</trkpt>
<trkpt lat="30.619926453" lon="34.919834137">
<ele>439.546875</ele>
<time>2013-11-22T12:33:34Z</time>
<extensions>
<speed>0.0</speed>
<temp>0.00</temp>
<bpm>0</bpm>
<rpm>0.00</rpm>
</extensions>
</trkpt>
<trkpt lat="30.619926453" lon="34.919834137">
<ele>439.546875</ele>
<time>2013-11-22T12:33:39Z</time>
<extensions>
<speed>0.0</speed>
<temp>0.00</temp>
<bpm>0</bpm>
<rpm>0.00</rpm>
</extensions>
</trkpt>
<trkpt lat="30.619926453" lon="34.919834137">
<ele>439.546875</ele>
<time>2013-11-22T12:33:44Z</time>
<extensions>
<speed>0.0</speed>
<temp>0.00</temp>
<bpm>0</bpm>
<rpm>0.00</rpm>
</extensions>
</trkpt>
<trkpt lat="30.619926453" lon="34.919834137">
<ele>439.546875</ele>
<time>2013-11-22T12:33:49Z</time>
<extensions>
<speed>0.0</speed>
<temp>0.00</temp>
<bpm>0</bpm>
<rpm>0.00</rpm>
</extensions>
</trkpt>
<trkpt lat="30.619926453" lon="34.919834137">
<ele>439.539063</ele>
<time>2013-11-22T12:33:54Z</time>
<extensions>
<speed>0.0</speed>
<temp>0.00</temp>
<bpm>0</bpm>
<rpm>0.00</rpm>
</extensions>
</trkpt>
<trkpt lat="30.619926453" lon="34.919834137">
<ele>439.539063</ele>
<time>2013-11-22T12:33:59Z</time>
<extensions>
<speed>0.0</speed>
<temp>0.00</temp>
<bpm>0</bpm>
<rpm>0.00</rpm>
</extensions>
</trkpt>
<trkpt lat="30.619926453" lon="34.919834137">
<ele>439.539063</ele>
<time>2013-11-22T12:34:04Z</time>
<extensions>
<speed>0.0</speed>
<temp>0.00</temp>
<bpm>0</bpm>
<rpm>0.00</rpm>
</extensions>
</trkpt>
<trkpt lat="30.619926453" lon="34.919834137">
<ele>439.531250</ele>
<time>2013-11-22T12:34:09Z</time>
<extensions>
<speed>0.0</speed>
<temp>0.00</temp>
<bpm>0</bpm>
<rpm>0.00</rpm>
</extensions>
</trkpt>
<trkpt lat="30.619926453" lon="34.919834137">
<ele>439.523438</ele>
<time>2013-11-22T12:34:14Z</time>
<extensions>
<speed>0.0</speed>
<temp>0.00</temp>
<bpm>0</bpm>
<rpm>0.00</rpm>
</extensions>
</trkpt>
<trkpt lat="30.619926453" lon="34.919834137">
<ele>439.515625</ele>
<time>2013-11-22T12:34:19Z</time>
<extensions>
<speed>0.0</speed>
<temp>0.00</temp>
<bpm>0</bpm>
<rpm>0.00</rpm>
</extensions>
</trkpt>
<trkpt lat="30.619926453" lon="34.919834137">
<ele>439.515625</ele>
<time>2013-11-22T12:34:24Z</time>
<extensions>
<speed>0.0</speed>
<temp>0.00</temp>
<bpm>0</bpm>
<rpm>0.00</rpm>
</extensions>
</trkpt>
<trkpt lat="30.619926453" lon="34.919837952">
<ele>439.507813</ele>
<time>2013-11-22T12:34:29Z</time>
<speed>0.010000</speed>
<extensions>
<speed>0.0</speed>
<temp>0.00</temp>
<bpm>0</bpm>
<rpm>0.00</rpm>
</extensions>
</trkpt>
<trkpt lat="30.619926453" lon="34.919837952">
<ele>439.500000</ele>
<time>2013-11-22T12:34:34Z</time>
<speed>0.010000</speed>
<extensions>
<speed>0.0</speed>
<temp>0.00</temp>
<bpm>0</bpm>
<rpm>0.00</rpm>
</extensions>
</trkpt>
<trkpt lat="30.619924545" lon="34.919837952">
<ele>439.492188</ele>
<time>2013-11-22T12:34:39Z</time>
<extensions>
<speed>0.0</speed>
<temp>0.00</temp>
<bpm>0</bpm>
<rpm>0.00</rpm>
</extensions>
</trkpt>
<trkpt lat="30.619924545" lon="34.919837952">
<ele>439.492188</ele>
<time>2013-11-22T12:34:44Z</time>
<speed>0.010000</speed>
<extensions>
<speed>0.0</speed>
<temp>0.00</temp>
<bpm>0</bpm>
<rpm>0.00</rpm>
</extensions>
</trkpt>
<trkpt lat="30.619924545" lon="34.919837952">
<ele>439.484375</ele>
<time>2013-11-22T12:34:49Z</time>
<speed>0.010000</speed>
<extensions>
<speed>0.0</speed>
<temp>0.00</temp>
<bpm>0</bpm>
<rpm>0.00</rpm>
</extensions>
</trkpt>
<trkpt lat="30.619924545" lon="34.919837952">
<ele>439.484375</ele>
<time>2013-11-22T12:34:54Z</time>
<extensions>
<speed>0.0</speed>
<temp>0.00</temp>
<bpm>0</bpm>
<rpm>0.00</rpm>
</extensions>
</trkpt>
<trkpt lat="30.619924545" lon="34.919837952">
<ele>439.476563</ele>
<time>2013-11-22T12:34:59Z</time>
<extensions>
<speed>0.0</speed>
<temp>0.00</temp>
<bpm>0</bpm>
<rpm>0.00</rpm>
</extensions>
</trkpt>
<trkpt lat="30.619924545" lon="34.919837952">
<ele>439.476563</ele>
<time>2013-11-22T12:35:04Z</time>
<speed>0.010000</speed>
<extensions>
<speed>0.0</speed>
<temp>0.00</temp>
<bpm>0</bpm>
<rpm>0.00</rpm>
</extensions>
</trkpt>
<trkpt lat="30.619924545" lon="34.919837952">
<ele>439.468750</ele>
<time>2013-11-22T12:35:09Z</time>
<extensions>
<speed>0.0</speed>
<temp>0.00</temp>
<bpm>0</bpm>
<rpm>0.00</rpm>
</extensions>
</trkpt>
<trkpt lat="30.619924545" lon="34.919837952">
<ele>439.476563</ele>
<time>2013-11-22T12:35:14Z</time>
<extensions>
<speed>0.0</speed>
<temp>0.00</temp>
<bpm>0</bpm>
<rpm>0.00</rpm>
</extensions>
</trkpt>
<trkpt lat="30.619924545" lon="34.919837952">
<ele>439.476563</ele>
<time>2013-11-22T12:35:19Z</time>
<speed>0.010000</speed>
<extensions>
<speed>0.0</speed>
<temp>0.00</temp>
<bpm>0</bpm>
<rpm>0.00</rpm>
</extensions>
</trkpt>
<trkpt lat="30.619924545" lon="34.919837952">
<ele>439.476563</ele>
<time>2013-11-22T12:35:24Z</time>
<extensions>
<speed>0.0</speed>
<temp>0.00</temp>
<bpm>0</bpm>
<rpm>0.00</rpm>
</extensions>
</trkpt>
<trkpt lat="30.619924545" lon="34.919837952">
<ele>439.468750</ele>
<time>2013-11-22T12:35:29Z</time>
<extensions>
<speed>0.0</speed>
<temp>0.00</temp>
<bpm>0</bpm>
<rpm>0.00</rpm>
</extensions>
</trkpt>
<trkpt lat="30.619924545" lon="34.919837952">
<ele>439.468750</ele>
<time>2013-11-22T12:35:34Z</time>
<speed>0.010000</speed>
<extensions>
<speed>0.0</speed>
<temp>0.00</temp>
<bpm>0</bpm>
<rpm>0.00</rpm>
</extensions>
</trkpt>
<trkpt lat="30.619924545" lon="34.919837952">
<ele>439.468750</ele>
<time>2013-11-22T12:35:39Z</time>
<speed>0.010000</speed>
<extensions>
<speed>0.0</speed>
<temp>0.00</temp>
<bpm>0</bpm>
<rpm>0.00</rpm>
</extensions>
</trkpt>
<trkpt lat="30.619924545" lon="34.919837952">
<ele>439.468750</ele>
<time>2013-11-22T12:35:44Z</time>
<extensions>
<speed>0.0</speed>
<temp>0.00</temp>
<bpm>0</bpm>
<rpm>0.00</rpm>
</extensions>
</trkpt>
<trkpt lat="30.619924545" lon="34.919837952">
<ele>439.460938</ele>
<time>2013-11-22T12:35:49Z</time>
<extensions>
<speed>0.0</speed>
<temp>0.00</temp>
<bpm>0</bpm>
<rpm>0.00</rpm>
</extensions>
</trkpt>
<trkpt lat="30.619924545" lon="34.919837952">
<ele>439.468750</ele>
<time>2013-11-22T12:35:54Z</time>
<extensions>
<speed>0.0</speed>
<temp>0.00</temp>
<bpm>0</bpm>
<rpm>0.00</rpm>
</extensions>
</trkpt>
<trkpt lat="30.619924545" lon="34.919837952">
<ele>439.476563</ele>
<time>2013-11-22T12:35:59Z</time>
<extensions>
<speed>0.0</speed>
<temp>0.00</temp>
<bpm>0</bpm>
<rpm>0.00</rpm>
</extensions>
</trkpt>
<trkpt lat="30.619924545" lon="34.919837952">
<ele>439.476563</ele>
<time>2013-11-22T12:36:04Z</time>
<extensions>
<speed>0.0</speed>
<temp>0.00</temp>
<bpm>0</bpm>
<rpm>0.00</rpm>
</extensions>
</trkpt>
<trkpt lat="30.619924545" lon="34.919837952">
<ele>439.476563</ele>
<time>2013-11-22T12:36:09Z</time>
<extensions>
<speed>0.0</speed>
<temp>0.00</temp>
<bpm>0</bpm>
<rpm>0.00</rpm>
</extensions>
</trkpt>
<trkpt lat="30.619924545" lon="34.919837952">
<ele>439.476563</ele>
<time>2013-11-22T12:36:14Z</time>
<extensions>
<speed>0.0</speed>
<temp>0.00</temp>
<bpm>0</bpm>
<rpm>0.00</rpm>
</extensions>
</trkpt>
<trkpt lat="30.619924545" lon="34.919837952">
<ele>439.476563</ele>
<time>2013-11-22T12:36:19Z</time>
<speed>0.010000</speed>
<extensions>
<speed>0.0</speed>
<temp>0.00</temp>
<bpm>0</bpm>
<rpm>0.00</rpm>
</extensions>
</trkpt>
<trkpt lat="30.619924545" lon="34.919837952">
<ele>439.468750</ele>
<time>2013-11-22T12:36:24Z</time>
<extensions>
<speed>0.0</speed>
<temp>0.00</temp>
<bpm>0</bpm>
<rpm>0.00</rpm>
</extensions>
</trkpt>
<trkpt lat="30.619924545" lon="34.919837952">
<ele>439.468750</ele>
<time>2013-11-22T12:36:29Z</time>
<extensions>
<speed>0.0</speed>
<temp>0.00</temp>
<bpm>0</bpm>
<rpm>0.00</rpm>
</extensions>
</trkpt>
<trkpt lat="30.619924545" lon="34.919837952">
<ele>439.468750</ele>
<time>2013-11-22T12:36:34Z</time>
<extensions>
<speed>0.0</speed>
<temp>0.00</temp>
<bpm>0</bpm>
<rpm>0.00</rpm>
</extensions>
</trkpt>
<trkpt lat="30.619924545" lon="34.919837952">
<ele>439.468750</ele>
<time>2013-11-22T12:36:39Z</time>
<extensions>
<speed>0.0</speed>
<temp>0.00</temp>
<bpm>0</bpm>
<rpm>0.00</rpm>
</extensions>
</trkpt>
<trkpt lat="30.619922638" lon="34.919837952">
<ele>439.468750</ele>
<time>2013-11-22T12:36:44Z</time>
<extensions>
<speed>0.0</speed>
<temp>0.00</temp>
<bpm>0</bpm>
<rpm>0.00</rpm>
</extensions>
</trkpt>
<trkpt lat="30.619922638" lon="34.919837952">
<ele>439.468750</ele>
<time>2013-11-22T12:36:49Z</time>
<extensions>
<speed>0.0</speed>
<temp>0.00</temp>
<bpm>0</bpm>
<rpm>0.00</rpm>
</extensions>
</trkpt>
<trkpt lat="30.619922638" lon="34.919837952">
<ele>439.476563</ele>
<time>2013-11-22T12:36:54Z</time>
<extensions>
<speed>0.0</speed>
<temp>0.00</temp>
<bpm>0</bpm>
<rpm>0.00</rpm>
</extensions>
</trkpt>
<trkpt lat="30.619922638" lon="34.919837952">
<ele>439.468750</ele>
<time>2013-11-22T12:36:59Z</time>
<extensions>
<speed>0.0</speed>
<temp>0.00</temp>
<bpm>0</bpm>
<rpm>0.00</rpm>
</extensions>
</trkpt>
<trkpt lat="30.619922638" lon="34.919837952">
<ele>439.468750</ele>
<time>2013-11-22T12:37:04Z</time>
<extensions>
<speed>0.0</speed>
<temp>0.00</temp>
<bpm>0</bpm>
<rpm>0.00</rpm>
</extensions>
</trkpt>
<trkpt lat="30.619922638" lon="34.919837952">
<ele>439.468750</ele>
<time>2013-11-22T12:37:09Z</time>
<extensions>
<speed>0.0</speed>
<temp>0.00</temp>
<bpm>0</bpm>
<rpm>0.00</rpm>
</extensions>
</trkpt>
<trkpt lat="30.619922638" lon="34.919837952">
<ele>439.468750</ele>
<time>2013-11-22T12:37:14Z</time>
<speed>0.010000</speed>
<extensions>
<speed>0.0</speed>
<temp>0.00</temp>
<bpm>0</bpm>
<rpm>0.00</rpm>
</extensions>
</trkpt>
<trkpt lat="30.619922638" lon="34.919837952">
<ele>439.468750</ele>
<time>2013-11-22T12:37:19Z</time>
<extensions>
<speed>0.0</speed>
<temp>0.00</temp>
<bpm>0</bpm>
<rpm>0.00</rpm>
</extensions>
</trkpt>
<trkpt lat="30.619922638" lon="34.919837952">
<ele>439.460938</ele>
<time>2013-11-22T12:37:24Z</time>
<speed>0.010000</speed>
<extensions>
<speed>0.0</speed>
<temp>0.00</temp>
<bpm>0</bpm>
<rpm>0.00</rpm>
</extensions>
</trkpt>
<trkpt lat="30.619922638" lon="34.919837952">
<ele>439.460938</ele>
<time>2013-11-22T12:37:29Z</time>
<extensions>
<speed>0.0</speed>
<temp>0.00</temp>
<bpm>0</bpm>
<rpm>0.00</rpm>
</extensions>
</trkpt>
<trkpt lat="30.619922638" lon="34.919837952">
<ele>439.460938</ele>
<time>2013-11-22T12:37:34Z</time>
<extensions>
<speed>0.0</speed>
<temp>0.00</temp>
<bpm>0</bpm>
<rpm>0.00</rpm>
</extensions>
</trkpt>
<trkpt lat="30.619922638" lon="34.919837952">
<ele>439.453125</ele>
<time>2013-11-22T12:37:39Z</time>
<extensions>
<speed>0.0</speed>
<temp>0.00</temp>
<bpm>0</bpm>
<rpm>0.00</rpm>
</extensions>
</trkpt>
<trkpt lat="30.619922638" lon="34.919837952">
<ele>439.445313</ele>
<time>2013-11-22T12:37:44Z</time>
<speed>0.010000</speed>
<extensions>
<speed>0.0</speed>
<temp>0.00</temp>
<bpm>0</bpm>
<rpm>0.00</rpm>
</extensions>
</trkpt>
<trkpt lat="30.619922638" lon="34.919837952">
<ele>439.437500</ele>
<time>2013-11-22T12:37:49Z</time>
<extensions>
<speed>0.0</speed>
<temp>0.00</temp>
<bpm>0</bpm>
<rpm>0.00</rpm>
</extensions>
</trkpt>
<trkpt lat="30.619922638" lon="34.919837952">
<ele>439.421875</ele>
<time>2013-11-22T12:37:54Z</time>
<extensions>
<speed>0.0</speed>
<temp>0.00</temp>
<bpm>0</bpm>
<rpm>0.00</rpm>
</extensions>
</trkpt>
<trkpt lat="30.619922638" lon="34.919837952">
<ele>439.414063</ele>
<time>2013-11-22T12:37:59Z</time>
<extensions>
<speed>0.0</speed>
<temp>0.00</temp>
<bpm>0</bpm>
<rpm>0.00</rpm>
</extensions>
</trkpt>
<trkpt lat="30.619922638" lon="34.919837952">
<ele>439.406250</ele>
<time>2013-11-22T12:38:04Z</time>
<speed>0.010000</speed>
<extensions>
<speed>0.0</speed>
<temp>0.00</temp>
<bpm>0</bpm>
<rpm>0.00</rpm>
</extensions>
</trkpt>
<trkpt lat="30.619922638" lon="34.919837952">
<ele>439.398438</ele>
<time>2013-11-22T12:38:09Z</time>
<speed>0.010000</speed>
<extensions>
<speed>0.0</speed>
<temp>0.00</temp>
<bpm>0</bpm>
<rpm>0.00</rpm>
</extensions>
</trkpt>
<trkpt lat="30.619922638" lon="34.919837952">
<ele>439.398438</ele>
<time>2013-11-22T12:38:14Z</time>
<speed>0.010000</speed>
<extensions>
<speed>0.0</speed>
<temp>0.00</temp>
<bpm>0</bpm>
<rpm>0.00</rpm>
</extensions>
</trkpt>
<trkpt lat="30.619922638" lon="34.919837952">
<ele>439.390625</ele>
<time>2013-11-22T12:38:19Z</time>
<extensions>
<speed>0.0</speed>
<temp>0.00</temp>
<bpm>0</bpm>
<rpm>0.00</rpm>
</extensions>
</trkpt>
<trkpt lat="30.619922638" lon="34.919841766">
<ele>439.390625</ele>
<time>2013-11-22T12:38:24Z</time>
<extensions>
<speed>0.0</speed>
<temp>0.00</temp>
<bpm>0</bpm>
<rpm>0.00</rpm>
</extensions>
</trkpt>
<trkpt lat="30.619922638" lon="34.919841766">
<ele>439.382813</ele>
<time>2013-11-22T12:38:29Z</time>
<extensions>
<speed>0.0</speed>
<temp>0.00</temp>
<bpm>0</bpm>
<rpm>0.00</rpm>
</extensions>
</trkpt>
<trkpt lat="30.619922638" lon="34.919841766">
<ele>439.375000</ele>
<time>2013-11-22T12:38:34Z</time>
<extensions>
<speed>0.0</speed>
<temp>0.00</temp>
<bpm>0</bpm>
<rpm>0.00</rpm>
</extensions>
</trkpt>
<trkpt lat="30.619922638" lon="34.919841766">
<ele>439.375000</ele>
<time>2013-11-22T12:38:39Z</time>
<extensions>
<speed>0.0</speed>
<temp>0.00</temp>
<bpm>0</bpm>
<rpm>0.00</rpm>
</extensions>
</trkpt>
<trkpt lat="30.619922638" lon="34.919841766">
<ele>439.367188</ele>
<time>2013-11-22T12:38:44Z</time>
<extensions>
<speed>0.0</speed>
<temp>0.00</temp>
<bpm>0</bpm>
<rpm>0.00</rpm>
</extensions>
</trkpt>
<trkpt lat="30.619922638" lon="34.919841766">
<ele>439.367188</ele>
<time>2013-11-22T12:38:49Z</time>
<extensions>
<speed>0.0</speed>
<temp>0.00</temp>
<bpm>0</bpm>
<rpm>0.00</rpm>
</extensions>
</trkpt>
<trkpt lat="30.619922638" lon="34.919841766">
<ele>439.375000</ele>
<time>2013-11-22T12:38:54Z</time>
<extensions>
<speed>0.0</speed>
<temp>0.00</temp>
<bpm>0</bpm>
<rpm>0.00</rpm>
</extensions>
</trkpt>
<trkpt lat="30.619922638" lon="34.919841766">
<ele>439.375000</ele>
<time>2013-11-22T12:38:59Z</time>
<extensions>
<speed>0.0</speed>
<temp>0.00</temp>
<bpm>0</bpm>
<rpm>0.00</rpm>
</extensions>
</trkpt>
<trkpt lat="30.619922638" lon="34.919841766">
<ele>439.367188</ele>
<time>2013-11-22T12:39:04Z</time>
<extensions>
<speed>0.0</speed>
<temp>0.00</temp>
<bpm>0</bpm>
<rpm>0.00</rpm>
</extensions>
</trkpt>
<trkpt lat="30.619922638" lon="34.919841766">
<ele>439.359375</ele>
<time>2013-11-22T12:39:09Z</time>
<extensions>
<speed>0.0</speed>
<temp>0.00</temp>
<bpm>0</bpm>
<rpm>0.00</rpm>
</extensions>
</trkpt>
<trkpt lat="30.619922638" lon="34.919841766">
<ele>439.359375</ele>
<time>2013-11-22T12:39:14Z</time>
<extensions>
<speed>0.0</speed>
<temp>0.00</temp>
<bpm>0</bpm>
<rpm>0.00</rpm>
</extensions>
</trkpt>
<trkpt lat="30.619922638" lon="34.919841766">
<ele>439.351563</ele>
<time>2013-11-22T12:39:19Z</time>
<extensions>
<speed>0.0</speed>
<temp>0.00</temp>
<bpm>0</bpm>
<rpm>0.00</rpm>
</extensions>
</trkpt>
<trkpt lat="30.619922638" lon="34.919841766">
<ele>439.351563</ele>
<time>2013-11-22T12:39:24Z</time>
<extensions>
<speed>0.0</speed>
<temp>0.00</temp>
<bpm>0</bpm>
<rpm>0.00</rpm>
</extensions>
</trkpt>
<trkpt lat="30.619922638" lon="34.919841766">
<ele>439.351563</ele>
<time>2013-11-22T12:39:29Z</time>
<extensions>
<speed>0.0</speed>
<temp>0.00</temp>
<bpm>0</bpm>
<rpm>0.00</rpm>
</extensions>
</trkpt>
<trkpt lat="30.619922638" lon="34.919841766">
<ele>439.351563</ele>
<time>2013-11-22T12:39:34Z</time>
<extensions>
<speed>0.0</speed>
<temp>0.00</temp>
<bpm>0</bpm>
<rpm>0.00</rpm>
</extensions>
</trkpt>
<trkpt lat="30.619922638" lon="34.919841766">
<ele>439.359375</ele>
<time>2013-11-22T12:39:39Z</time>
<speed>0.010000</speed>
<extensions>
<speed>0.0</speed>
<temp>0.00</temp>
<bpm>0</bpm>
<rpm>0.00</rpm>
</extensions>
</trkpt>
<trkpt lat="30.619922638" lon="34.919841766">
<ele>439.367188</ele>
<time>2013-11-22T12:39:44Z</time>
<extensions>
<speed>0.0</speed>
<temp>0.00</temp>
<bpm>0</bpm>
<rpm>0.00</rpm>
</extensions>
</trkpt>
<trkpt lat="30.619922638" lon="34.919841766">
<ele>439.367188</ele>
<time>2013-11-22T12:39:49Z</time>
<extensions>
<speed>0.0</speed>
<temp>0.00</temp>
<bpm>0</bpm>
<rpm>0.00</rpm>
</extensions>
</trkpt>
<trkpt lat="30.619922638" lon="34.919841766">
<ele>439.375000</ele>
<time>2013-11-22T12:39:54Z</time>
<extensions>
<speed>0.0</speed>
<temp>0.00</temp>
<bpm>0</bpm>
<rpm>0.00</rpm>
</extensions>
</trkpt>
<trkpt lat="30.619922638" lon="34.919841766">
<ele>439.375000</ele>
<time>2013-11-22T12:39:59Z</time>
<extensions>
<speed>0.0</speed>
<temp>0.00</temp>
<bpm>0</bpm>
<rpm>0.00</rpm>
</extensions>
</trkpt>
<trkpt lat="30.619922638" lon="34.919841766">
<ele>439.382813</ele>
<time>2013-11-22T12:40:04Z</time>
<extensions>
<speed>0.0</speed>
<temp>0.00</temp>
<bpm>0</bpm>
<rpm>0.00</rpm>
</extensions>
</trkpt>
<trkpt lat="30.619922638" lon="34.919841766">
<ele>439.390625</ele>
<time>2013-11-22T12:40:09Z</time>
<extensions>
<speed>0.0</speed>
<temp>0.00</temp>
<bpm>0</bpm>
<rpm>0.00</rpm>
</extensions>
</trkpt>
<trkpt lat="30.619922638" lon="34.919841766">
<ele>439.398438</ele>
<time>2013-11-22T12:40:14Z</time>
<speed>0.010000</speed>
<extensions>
<speed>0.0</speed>
<temp>0.00</temp>
<bpm>0</bpm>
<rpm>0.00</rpm>
</extensions>
</trkpt>
<trkpt lat="30.619922638" lon="34.919845581">
<ele>439.398438</ele>
<time>2013-11-22T12:40:19Z</time>
<extensions>
<speed>0.0</speed>
<temp>0.00</temp>
<bpm>0</bpm>
<rpm>0.00</rpm>
</extensions>
</trkpt>
<trkpt lat="30.619922638" lon="34.919845581">
<ele>439.398438</ele>
<time>2013-11-22T12:40:24Z</time>
<extensions>
<speed>0.0</speed>
<temp>0.00</temp>
<bpm>0</bpm>
<rpm>0.00</rpm>
</extensions>
</trkpt>
<trkpt lat="30.619922638" lon="34.919845581">
<ele>439.406250</ele>
<time>2013-11-22T12:40:29Z</time>
<speed>0.020000</speed>
<extensions>
<speed>0.0</speed>
<temp>0.00</temp>
<bpm>0</bpm>
<rpm>0.00</rpm>
</extensions>
</trkpt>
<trkpt lat="30.619922638" lon="34.919845581">
<ele>439.406250</ele>
<time>2013-11-22T12:40:34Z</time>
<extensions>
<speed>0.0</speed>
<temp>0.00</temp>
<bpm>0</bpm>
<rpm>0.00</rpm>
</extensions>
</trkpt>
<trkpt lat="30.619922638" lon="34.919845581">
<ele>439.406250</ele>
<time>2013-11-22T12:40:39Z</time>
<extensions>
<speed>0.0</speed>
<temp>0.00</temp>
<bpm>0</bpm>
<rpm>0.00</rpm>
</extensions>
</trkpt>
<trkpt lat="30.619922638" lon="34.919845581">
<ele>439.406250</ele>
<time>2013-11-22T12:40:44Z</time>
<speed>0.010000</speed>
<extensions>
<speed>0.0</speed>
<temp>0.00</temp>
<bpm>0</bpm>
<rpm>0.00</rpm>
</extensions>
</trkpt>
<trkpt lat="30.619922638" lon="34.919845581">
<ele>439.398438</ele>
<time>2013-11-22T12:40:49Z</time>
<extensions>
<speed>0.0</speed>
<temp>0.00</temp>
<bpm>0</bpm>
<rpm>0.00</rpm>
</extensions>
</trkpt>
<trkpt lat="30.619922638" lon="34.919845581">
<ele>439.398438</ele>
<time>2013-11-22T12:40:54Z</time>
<speed>0.010000</speed>
<extensions>
<speed>0.0</speed>
<temp>0.00</temp>
<bpm>0</bpm>
<rpm>0.00</rpm>
</extensions>
</trkpt>
<trkpt lat="30.619922638" lon="34.919845581">
<ele>439.398438</ele>
<time>2013-11-22T12:40:59Z</time>
<extensions>
<speed>0.0</speed>
<temp>0.00</temp>
<bpm>0</bpm>
<rpm>0.00</rpm>
</extensions>
</trkpt>
<trkpt lat="30.619922638" lon="34.919845581">
<ele>439.390625</ele>
<time>2013-11-22T12:41:04Z</time>
<speed>0.010000</speed>
<extensions>
<speed>0.0</speed>
<temp>0.00</temp>
<bpm>0</bpm>
<rpm>0.00</rpm>
</extensions>
</trkpt>
<trkpt lat="30.619922638" lon="34.919845581">
<ele>439.390625</ele>
<time>2013-11-22T12:41:09Z</time>
<extensions>
<speed>0.0</speed>
<temp>0.00</temp>
<bpm>0</bpm>
<rpm>0.00</rpm>
</extensions>
</trkpt>
<trkpt lat="30.619922638" lon="34.919845581">
<ele>439.390625</ele>
<time>2013-11-22T12:41:14Z</time>
<extensions>
<speed>0.0</speed>
<temp>0.00</temp>
<bpm>0</bpm>
<rpm>0.00</rpm>
</extensions>
</trkpt>
<trkpt lat="30.619922638" lon="34.919845581">
<ele>439.390625</ele>
<time>2013-11-22T12:41:19Z</time>
<extensions>
<speed>0.0</speed>
<temp>0.00</temp>
<bpm>0</bpm>
<rpm>0.00</rpm>
</extensions>
</trkpt>
<trkpt lat="30.619922638" lon="34.919845581">
<ele>439.390625</ele>
<time>2013-11-22T12:41:24Z</time>
<extensions>
<speed>0.0</speed>
<temp>0.00</temp>
<bpm>0</bpm>
<rpm>0.00</rpm>
</extensions>
</trkpt>
<trkpt lat="30.619922638" lon="34.919845581">
<ele>439.390625</ele>
<time>2013-11-22T12:41:29Z</time>
<extensions>
<speed>0.0</speed>
<temp>0.00</temp>
<bpm>0</bpm>
<rpm>0.00</rpm>
</extensions>
</trkpt>
<trkpt lat="30.619922638" lon="34.919845581">
<ele>439.390625</ele>
<time>2013-11-22T12:41:34Z</time>
<extensions>
<speed>0.0</speed>
<temp>0.00</temp>
<bpm>0</bpm>
<rpm>0.00</rpm>
</extensions>
</trkpt>
<trkpt lat="30.619922638" lon="34.919845581">
<ele>439.390625</ele>
<time>2013-11-22T12:41:39Z</time>
<extensions>
<speed>0.0</speed>
<temp>0.00</temp>
<bpm>0</bpm>
<rpm>0.00</rpm>
</extensions>
</trkpt>
<trkpt lat="30.619922638" lon="34.919845581">
<ele>439.390625</ele>
<time>2013-11-22T12:41:44Z</time>
<extensions>
<speed>0.0</speed>
<temp>0.00</temp>
<bpm>0</bpm>
<rpm>0.00</rpm>
</extensions>
</trkpt>
<trkpt lat="30.619922638" lon="34.919845581">
<ele>439.390625</ele>
<time>2013-11-22T12:41:49Z</time>
<speed>0.010000</speed>
<extensions>
<speed>0.0</speed>
<temp>0.00</temp>
<bpm>0</bpm>
<rpm>0.00</rpm>
</extensions>
</trkpt>
<trkpt lat="30.619922638" lon="34.919845581">
<ele>439.382813</ele>
<time>2013-11-22T12:41:54Z</time>
<extensions>
<speed>0.0</speed>
<temp>0.00</temp>
<bpm>0</bpm>
<rpm>0.00</rpm>
</extensions>
</trkpt>
<trkpt lat="30.619922638" lon="34.919845581">
<ele>439.375000</ele>
<time>2013-11-22T12:41:59Z</time>
<extensions>
<speed>0.0</speed>
<temp>0.00</temp>
<bpm>0</bpm>
<rpm>0.00</rpm>
</extensions>
</trkpt>
<trkpt lat="30.619922638" lon="34.919849396">
<ele>439.375000</ele>
<time>2013-11-22T12:42:04Z</time>
<speed>0.010000</speed>
<extensions>
<speed>0.0</speed>
<temp>0.00</temp>
<bpm>0</bpm>
<rpm>0.00</rpm>
</extensions>
</trkpt>
<trkpt lat="30.619922638" lon="34.919849396">
<ele>439.367188</ele>
<time>2013-11-22T12:42:09Z</time>
<extensions>
<speed>0.0</speed>
<temp>0.00</temp>
<bpm>0</bpm>
<rpm>0.00</rpm>
</extensions>
</trkpt>
<trkpt lat="30.619922638" lon="34.919849396">
<ele>439.375000</ele>
<time>2013-11-22T12:42:14Z</time>
<extensions>
<speed>0.0</speed>
<temp>0.00</temp>
<bpm>0</bpm>
<rpm>0.00</rpm>
</extensions>
</trkpt>
<trkpt lat="30.619922638" lon="34.919849396">
<ele>439.375000</ele>
<time>2013-11-22T12:42:19Z</time>
<speed>0.010000</speed>
<extensions>
<speed>0.0</speed>
<temp>0.00</temp>
<bpm>0</bpm>
<rpm>0.00</rpm>
</extensions>
</trkpt>
<trkpt lat="30.619922638" lon="34.919849396">
<ele>439.367188</ele>
<time>2013-11-22T12:42:24Z</time>
<speed>0.010000</speed>
<extensions>
<speed>0.0</speed>
<temp>0.00</temp>
<bpm>0</bpm>
<rpm>0.00</rpm>
</extensions>
</trkpt>
<trkpt lat="30.619922638" lon="34.919849396">
<ele>439.367188</ele>
<time>2013-11-22T12:42:29Z</time>
<extensions>
<speed>0.0</speed>
<temp>0.00</temp>
<bpm>0</bpm>
<rpm>0.00</rpm>
</extensions>
</trkpt>
<trkpt lat="30.619922638" lon="34.919849396">
<ele>439.359375</ele>
<time>2013-11-22T12:42:34Z</time>
<extensions>
<speed>0.0</speed>
<temp>0.00</temp>
<bpm>0</bpm>
<rpm>0.00</rpm>
</extensions>
</trkpt>
<trkpt lat="30.619922638" lon="34.919849396">
<ele>439.343750</ele>
<time>2013-11-22T12:42:39Z</time>
<extensions>
<speed>0.0</speed>
<temp>0.00</temp>
<bpm>0</bpm>
<rpm>0.00</rpm>
</extensions>
</trkpt>
<trkpt lat="30.619922638" lon="34.919849396">
<ele>439.343750</ele>
<time>2013-11-22T12:42:44Z</time>
<speed>0.090000</speed>
<extensions>
<speed>0.1</speed>
<temp>0.00</temp>
<bpm>0</bpm>
<rpm>0.00</rpm>
</extensions>
</trkpt>
<trkpt lat="30.619924545" lon="34.919849396">
<ele>439.265625</ele>
<time>2013-11-22T12:42:49Z</time>
<speed>0.020000</speed>
<extensions>
<speed>0.0</speed>
<temp>0.00</temp>
<bpm>0</bpm>
<rpm>0.00</rpm>
</extensions>
</trkpt>
<trkpt lat="30.619924545" lon="34.919849396">
<ele>439.265625</ele>
<time>2013-11-22T12:42:54Z</time>
<extensions>
<speed>0.0</speed>
<temp>0.00</temp>
<bpm>0</bpm>
<rpm>0.00</rpm>
</extensions>
</trkpt>
<trkpt lat="30.619924545" lon="34.919849396">
<ele>439.265625</ele>
<time>2013-11-22T12:42:59Z</time>
<extensions>
<speed>0.0</speed>
<temp>0.00</temp>
<bpm>0</bpm>
<rpm>0.00</rpm>
</extensions>
</trkpt>
<trkpt lat="30.619924545" lon="34.919849396">
<ele>439.265625</ele>
<time>2013-11-22T12:43:04Z</time>
<extensions>
<speed>0.0</speed>
<temp>0.00</temp>
<bpm>0</bpm>
<rpm>0.00</rpm>
</extensions>
</trkpt>
<trkpt lat="30.619924545" lon="34.919849396">
<ele>439.273438</ele>
<time>2013-11-22T12:43:09Z</time>
<extensions>
<speed>0.0</speed>
<temp>0.00</temp>
<bpm>0</bpm>
<rpm>0.00</rpm>
</extensions>
</trkpt>
<trkpt lat="30.619924545" lon="34.919849396">
<ele>439.273438</ele>
<time>2013-11-22T12:43:14Z</time>
<extensions>
<speed>0.0</speed>
<temp>0.00</temp>
<bpm>0</bpm>
<rpm>0.00</rpm>
</extensions>
</trkpt>
<trkpt lat="30.619911194" lon="34.919868469">
<ele>439.203125</ele>
<time>2013-11-22T12:43:19Z</time>
<speed>1.000000</speed>
<extensions>
<speed>1.0</speed>
<temp>0.00</temp>
<bpm>0</bpm>
<rpm>0.00</rpm>
</extensions>
</trkpt>
<trkpt lat="30.619895935" lon="34.919902802">
<ele>438.898438</ele>
<time>2013-11-22T12:43:24Z</time>
<speed>0.610000</speed>
<extensions>
<speed>0.6</speed>
<temp>0.00</temp>
<bpm>0</bpm>
<rpm>0.00</rpm>
</extensions>
</trkpt>
<trkpt lat="30.619876862" lon="34.919948578">
<ele>438.507813</ele>
<time>2013-11-22T12:43:29Z</time>
<speed>0.910000</speed>
<extensions>
<speed>0.9</speed>
<temp>0.00</temp>
<bpm>0</bpm>
<rpm>0.00</rpm>
</extensions>
</trkpt>
<trkpt lat="30.619852066" lon="34.920009613">
<ele>438.843750</ele>
<time>2013-11-22T12:43:34Z</time>
<speed>1.120000</speed>
<extensions>
<speed>1.1</speed>
<temp>0.00</temp>
<bpm>0</bpm>
<rpm>0.00</rpm>
</extensions>
</trkpt>
<trkpt lat="30.619831085" lon="34.920066833">
<ele>438.812500</ele>
<time>2013-11-22T12:43:39Z</time>
<speed>1.240000</speed>
<extensions>
<speed>1.2</speed>
<temp>0.00</temp>
<bpm>0</bpm>
<rpm>0.00</rpm>
</extensions>
</trkpt>
<trkpt lat="30.619819641" lon="34.920124054">
<ele>438.359375</ele>
<time>2013-11-22T12:43:44Z</time>
<speed>0.140000</speed>
<extensions>
<speed>0.1</speed>
<temp>0.00</temp>
<bpm>0</bpm>
<rpm>0.00</rpm>
</extensions>
</trkpt>
<trkpt lat="30.619819641" lon="34.920131683">
<ele>438.484375</ele>
<time>2013-11-22T12:43:49Z</time>
<extensions>
<speed>0.0</speed>
<temp>0.00</temp>
<bpm>0</bpm>
<rpm>0.00</rpm>
</extensions>
</trkpt>
<trkpt lat="30.619819641" lon="34.920131683">
<ele>438.429688</ele>
<time>2013-11-22T12:43:54Z</time>
<extensions>
<speed>0.0</speed>
<temp>0.00</temp>
<bpm>0</bpm>
<rpm>0.00</rpm>
</extensions>
</trkpt>
<trkpt lat="30.619819641" lon="34.920131683">
<ele>438.304688</ele>
<time>2013-11-22T12:43:59Z</time>
<extensions>
<speed>0.0</speed>
<temp>0.00</temp>
<bpm>0</bpm>
<rpm>0.00</rpm>
</extensions>
</trkpt>
<trkpt lat="30.619819641" lon="34.920131683">
<ele>438.304688</ele>
<time>2013-11-22T12:44:04Z</time>
<extensions>
<speed>0.0</speed>
<temp>0.00</temp>
<bpm>0</bpm>
<rpm>0.00</rpm>
</extensions>
</trkpt>
<trkpt lat="30.619819641" lon="34.920131683">
<ele>438.281250</ele>
<time>2013-11-22T12:44:09Z</time>
<speed>0.030000</speed>
<extensions>
<speed>0.0</speed>
<temp>0.00</temp>
<bpm>0</bpm>
<rpm>0.00</rpm>
</extensions>
</trkpt>
<trkpt lat="30.619815826" lon="34.920131683">
<ele>438.062500</ele>
<time>2013-11-22T12:44:14Z</time>
<speed>0.020000</speed>
<extensions>
<speed>0.0</speed>
<temp>0.00</temp>
<bpm>0</bpm>
<rpm>0.00</rpm>
</extensions>
</trkpt>
<trkpt lat="30.619815826" lon="34.920131683">
<ele>437.765625</ele>
<time>2013-11-22T12:44:19Z</time>
<speed>0.020000</speed>
<extensions>
<speed>0.0</speed>
<temp>0.00</temp>
<bpm>0</bpm>
<rpm>0.00</rpm>
</extensions>
</trkpt>
<trkpt lat="30.619821548" lon="34.920131683">
<ele>437.554688</ele>
<time>2013-11-22T12:44:24Z</time>
<extensions>
<speed>0.0</speed>
<temp>0.00</temp>
<bpm>0</bpm>
<rpm>0.00</rpm>
</extensions>
</trkpt>
<trkpt lat="30.619825363" lon="34.920131683">
<ele>437.367188</ele>
<time>2013-11-22T12:44:29Z</time>
<speed>0.030000</speed>
<extensions>
<speed>0.0</speed>
<temp>0.00</temp>
<bpm>0</bpm>
<rpm>0.00</rpm>
</extensions>
</trkpt>
<trkpt lat="30.619827271" lon="34.920135498">
<ele>437.078125</ele>
<time>2013-11-22T12:44:34Z</time>
<speed>0.040000</speed>
<extensions>
<speed>0.0</speed>
<temp>0.00</temp>
<bpm>0</bpm>
<rpm>0.00</rpm>
</extensions>
</trkpt>
<trkpt lat="30.619825363" lon="34.920135498">
<ele>436.984375</ele>
<time>2013-11-22T12:44:39Z</time>
<speed>0.030000</speed>
<extensions>
<speed>0.0</speed>
<temp>0.00</temp>
<bpm>0</bpm>
<rpm>0.00</rpm>
</extensions>
</trkpt>
<trkpt lat="30.619827271" lon="34.920139313">
<ele>437.007813</ele>
<time>2013-11-22T12:44:44Z</time>
<speed>0.010000</speed>
<extensions>
<speed>0.0</speed>
<temp>0.00</temp>
<bpm>0</bpm>
<rpm>0.00</rpm>
</extensions>
</trkpt>
<trkpt lat="30.619827271" lon="34.920139313">
<ele>436.929688</ele>
<time>2013-11-22T12:44:49Z</time>
<speed>0.060000</speed>
<extensions>
<speed>0.1</speed>
<temp>0.00</temp>
<bpm>0</bpm>
<rpm>0.00</rpm>
</extensions>
</trkpt>
<trkpt lat="30.619823456" lon="34.920135498">
<ele>436.898438</ele>
<time>2013-11-22T12:44:54Z</time>
<extensions>
<speed>0.0</speed>
<temp>0.00</temp>
<bpm>0</bpm>
<rpm>0.00</rpm>
</extensions>
</trkpt>
<trkpt lat="30.619812012" lon="34.920135498">
<ele>436.421875</ele>
<time>2013-11-22T12:44:59Z</time>
<speed>0.010000</speed>
<extensions>
<speed>0.0</speed>
<temp>0.00</temp>
<bpm>0</bpm>
<rpm>0.00</rpm>
</extensions>
</trkpt>
<trkpt lat="30.619804382" lon="34.920131683">
<ele>436.460938</ele>
<time>2013-11-22T12:45:04Z</time>
<speed>0.010000</speed>
<extensions>
<speed>0.0</speed>
<temp>0.00</temp>
<bpm>0</bpm>
<rpm>0.00</rpm>
</extensions>
</trkpt>
<trkpt lat="30.619800568" lon="34.920131683">
<ele>436.570313</ele>
<time>2013-11-22T12:45:09Z</time>
<extensions>
<speed>0.0</speed>
<temp>0.00</temp>
<bpm>0</bpm>
<rpm>0.00</rpm>
</extensions>
</trkpt>
<trkpt lat="30.619796753" lon="34.920131683">
<ele>436.750000</ele>
<time>2013-11-22T12:45:14Z</time>
<extensions>
<speed>0.0</speed>
<temp>0.00</temp>
<bpm>0</bpm>
<rpm>0.00</rpm>
</extensions>
</trkpt>
<trkpt lat="30.619794846" lon="34.920135498">
<ele>436.960938</ele>
<time>2013-11-22T12:45:19Z</time>
<speed>0.010000</speed>
<extensions>
<speed>0.0</speed>
<temp>0.00</temp>
<bpm>0</bpm>
<rpm>0.00</rpm>
</extensions>
</trkpt>
<trkpt lat="30.619787216" lon="34.920131683">
<ele>436.796875</ele>
<time>2013-11-22T12:45:24Z</time>
<speed>0.010000</speed>
<extensions>
<speed>0.0</speed>
<temp>0.00</temp>
<bpm>0</bpm>
<rpm>0.00</rpm>
</extensions>
</trkpt>
<trkpt lat="30.619770050" lon="34.920120239">
<ele>436.632813</ele>
<time>2013-11-22T12:45:29Z</time>
<extensions>
<speed>0.0</speed>
<temp>0.00</temp>
<bpm>0</bpm>
<rpm>0.00</rpm>
</extensions>
</trkpt>
<trkpt lat="30.619770050" lon="34.920120239">
<ele>436.632813</ele>
<time>2013-11-22T12:45:34Z</time>
<speed>0.010000</speed>
<extensions>
<speed>0.0</speed>
<temp>0.00</temp>
<bpm>0</bpm>
<rpm>0.00</rpm>
</extensions>
</trkpt>
<trkpt lat="30.619770050" lon="34.920120239">
<ele>436.632813</ele>
<time>2013-11-22T12:45:39Z</time>
<speed>0.010000</speed>
<extensions>
<speed>0.0</speed>
<temp>0.00</temp>
<bpm>0</bpm>
<rpm>0.00</rpm>
</extensions>
</trkpt>
<trkpt lat="30.619770050" lon="34.920120239">
<ele>436.625000</ele>
<time>2013-11-22T12:45:44Z</time>
<extensions>
<speed>0.0</speed>
<temp>0.00</temp>
<bpm>0</bpm>
<rpm>0.00</rpm>
</extensions>
</trkpt>
<trkpt lat="30.619770050" lon="34.920120239">
<ele>436.625000</ele>
<time>2013-11-22T12:45:49Z</time>
<speed>0.030000</speed>
<extensions>
<speed>0.0</speed>
<temp>0.00</temp>
<bpm>0</bpm>
<rpm>0.00</rpm>
</extensions>
</trkpt>
<trkpt lat="30.619770050" lon="34.920120239">
<ele>436.617188</ele>
<time>2013-11-22T12:45:54Z</time>
<speed>0.010000</speed>
<extensions>
<speed>0.0</speed>
<temp>0.00</temp>
<bpm>0</bpm>
<rpm>0.00</rpm>
</extensions>
</trkpt>
<trkpt lat="30.619770050" lon="34.920120239">
<ele>436.609375</ele>
<time>2013-11-22T12:45:59Z</time>
<extensions>
<speed>0.0</speed>
<temp>0.00</temp>
<bpm>0</bpm>
<rpm>0.00</rpm>
</extensions>
</trkpt>
<trkpt lat="30.619771957" lon="34.920116425">
<ele>436.023438</ele>
<time>2013-11-22T12:46:04Z</time>
<extensions>
<speed>0.0</speed>
<temp>0.00</temp>
<bpm>0</bpm>
<rpm>0.00</rpm>
</extensions>
</trkpt>
<trkpt lat="30.619779587" lon="34.920116425">
<ele>435.242188</ele>
<time>2013-11-22T12:46:09Z</time>
<speed>0.020000</speed>
<extensions>
<speed>0.0</speed>
<temp>0.00</temp>
<bpm>0</bpm>
<rpm>0.00</rpm>
</extensions>
</trkpt>
<trkpt lat="30.619779587" lon="34.920116425">
<ele>434.453125</ele>
<time>2013-11-22T12:46:14Z</time>
<speed>0.030000</speed>
<extensions>
<speed>0.0</speed>
<temp>0.00</temp>
<bpm>0</bpm>
<rpm>0.00</rpm>
</extensions>
</trkpt>
<trkpt lat="30.619781494" lon="34.920124054">
<ele>434.132813</ele>
<time>2013-11-22T12:46:19Z</time>
<speed>0.030000</speed>
<extensions>
<speed>0.0</speed>
<temp>0.00</temp>
<bpm>0</bpm>
<rpm>0.00</rpm>
</extensions>
</trkpt>
<trkpt lat="30.619787216" lon="34.920124054">
<ele>434.351563</ele>
<time>2013-11-22T12:46:24Z</time>
<speed>0.060000</speed>
<extensions>
<speed>0.1</speed>
<temp>0.00</temp>
<bpm>0</bpm>
<rpm>0.00</rpm>
</extensions>
</trkpt>
<trkpt lat="30.619794846" lon="34.920116425">
<ele>434.726563</ele>
<time>2013-11-22T12:46:29Z</time>
<speed>0.100000</speed>
<extensions>
<speed>0.1</speed>
<temp>0.00</temp>
<bpm>0</bpm>
<rpm>0.00</rpm>
</extensions>
</trkpt>
<trkpt lat="30.619806290" lon="34.920127869">
<ele>434.867188</ele>
<time>2013-11-22T12:46:34Z</time>
<speed>0.030000</speed>
<extensions>
<speed>0.0</speed>
<temp>0.00</temp>
<bpm>0</bpm>
<rpm>0.00</rpm>
</extensions>
</trkpt>
<trkpt lat="30.619819641" lon="34.920135498">
<ele>434.664063</ele>
<time>2013-11-22T12:46:39Z</time>
<speed>0.080000</speed>
<extensions>
<speed>0.1</speed>
<temp>0.00</temp>
<bpm>0</bpm>
<rpm>0.00</rpm>
</extensions>
</trkpt>
<trkpt lat="30.619825363" lon="34.920143127">
<ele>434.218750</ele>
<time>2013-11-22T12:46:44Z</time>
<speed>0.020000</speed>
<extensions>
<speed>0.0</speed>
<temp>0.00</temp>
<bpm>0</bpm>
<rpm>0.00</rpm>
</extensions>
</trkpt>
<trkpt lat="30.619829178" lon="34.920146942">
<ele>433.953125</ele>
<time>2013-11-22T12:46:49Z</time>
<speed>0.060000</speed>
<extensions>
<speed>0.1</speed>
<temp>0.00</temp>
<bpm>0</bpm>
<rpm>0.00</rpm>
</extensions>
</trkpt>
<trkpt lat="30.619827271" lon="34.920146942">
<ele>434.242188</ele>
<time>2013-11-22T12:46:54Z</time>
<speed>0.060000</speed>
<extensions>
<speed>0.1</speed>
<temp>0.00</temp>
<bpm>0</bpm>
<rpm>0.00</rpm>
</extensions>
</trkpt>
<trkpt lat="30.619834900" lon="34.920154572">
<ele>434.179688</ele>
<time>2013-11-22T12:46:59Z</time>
<speed>0.010000</speed>
<extensions>
<speed>0.0</speed>
<temp>0.00</temp>
<bpm>0</bpm>
<rpm>0.00</rpm>
</extensions>
</trkpt>
<trkpt lat="30.619840622" lon="34.920158386">
<ele>434.468750</ele>
<time>2013-11-22T12:47:04Z</time>
<speed>0.950000</speed>
<extensions>
<speed>1.0</speed>
<temp>0.00</temp>
<bpm>0</bpm>
<rpm>0.00</rpm>
</extensions>
</trkpt>
<trkpt lat="30.619892120" lon="34.920207977">
<ele>434.117188</ele>
<time>2013-11-22T12:47:09Z</time>
<speed>1.660000</speed>
<extensions>
<speed>1.7</speed>
<temp>0.00</temp>
<bpm>0</bpm>
<rpm>0.00</rpm>
</extensions>
</trkpt>
<trkpt lat="30.619953156" lon="34.920299530">
<ele>434.492188</ele>
<time>2013-11-22T12:47:14Z</time>
<speed>3.100000</speed>
<extensions>
<speed>3.1</speed>
<temp>0.00</temp>
<bpm>0</bpm>
<rpm>0.00</rpm>
</extensions>
</trkpt>
<trkpt lat="30.619987488" lon="34.920417786">
<ele>435.593750</ele>
<time>2013-11-22T12:47:19Z</time>
<speed>1.550000</speed>
<extensions>
<speed>1.5</speed>
<temp>0.00</temp>
<bpm>0</bpm>
<rpm>0.00</rpm>
</extensions>
</trkpt>
<trkpt lat="30.619997025" lon="34.920452118">
<ele>435.148438</ele>
<time>2013-11-22T12:47:24Z</time>
<speed>0.060000</speed>
<extensions>
<speed>0.1</speed>
<temp>0.00</temp>
<bpm>0</bpm>
<rpm>0.00</rpm>
</extensions>
</trkpt>
<trkpt lat="30.619997025" lon="34.920444489">
<ele>434.851563</ele>
<time>2013-11-22T12:47:29Z</time>
<speed>0.010000</speed>
<extensions>
<speed>0.0</speed>
<temp>0.00</temp>
<bpm>0</bpm>
<rpm>0.00</rpm>
</extensions>
</trkpt>
<trkpt lat="30.619998932" lon="34.920440674">
<ele>434.437500</ele>
<time>2013-11-22T12:47:34Z</time>
<extensions>
<speed>0.0</speed>
<temp>0.00</temp>
<bpm>0</bpm>
<rpm>0.00</rpm>
</extensions>
</trkpt>
<trkpt lat="30.619997025" lon="34.920436859">
<ele>434.093750</ele>
<time>2013-11-22T12:47:39Z</time>
<extensions>
<speed>0.0</speed>
<temp>0.00</temp>
<bpm>0</bpm>
<rpm>0.00</rpm>
</extensions>
</trkpt>
<trkpt lat="30.619997025" lon="34.920436859">
<ele>434.085938</ele>
<time>2013-11-22T12:47:44Z</time>
<speed>0.010000</speed>
<extensions>
<speed>0.0</speed>
<temp>0.00</temp>
<bpm>0</bpm>
<rpm>0.00</rpm>
</extensions>
</trkpt>
<trkpt lat="30.619993210" lon="34.920433044">
<ele>434.445313</ele>
<time>2013-11-22T12:47:49Z</time>
<extensions>
<speed>0.0</speed>
<temp>0.00</temp>
<bpm>0</bpm>
<rpm>0.00</rpm>
</extensions>
</trkpt>
<trkpt lat="30.619993210" lon="34.920429230">
<ele>434.640625</ele>
<time>2013-11-22T12:47:54Z</time>
<extensions>
<speed>0.0</speed>
<temp>0.00</temp>
<bpm>0</bpm>
<rpm>0.00</rpm>
</extensions>
</trkpt>
<trkpt lat="30.619991302" lon="34.920433044">
<ele>434.515625</ele>
<time>2013-11-22T12:47:59Z</time>
<speed>0.020000</speed>
<extensions>
<speed>0.0</speed>
<temp>0.00</temp>
<bpm>0</bpm>
<rpm>0.00</rpm>
</extensions>
</trkpt>
<trkpt lat="30.619958878" lon="34.920455933">
<ele>434.726563</ele>
<time>2013-11-22T12:48:04Z</time>
<speed>1.000000</speed>
<extensions>
<speed>1.0</speed>
<temp>0.00</temp>
<bpm>0</bpm>
<rpm>0.00</rpm>
</extensions>
</trkpt>
<trkpt lat="30.619911194" lon="34.920410156">
<ele>435.007813</ele>
<time>2013-11-22T12:48:09Z</time>
<speed>1.810000</speed>
<extensions>
<speed>1.8</speed>
<temp>0.00</temp>
<bpm>0</bpm>
<rpm>0.00</rpm>
</extensions>
</trkpt>
<trkpt lat="30.619836807" lon="34.920383453">
<ele>435.554688</ele>
<time>2013-11-22T12:48:14Z</time>
<speed>1.330000</speed>
<extensions>
<speed>1.3</speed>
<temp>0.00</temp>
<bpm>0</bpm>
<rpm>0.00</rpm>
</extensions>
</trkpt>
<trkpt lat="30.619762421" lon="34.920372009">
<ele>436.359375</ele>
<time>2013-11-22T12:48:19Z</time>
<speed>1.420000</speed>
<extensions>
<speed>1.4</speed>
<temp>0.00</temp>
<bpm>0</bpm>
<rpm>0.00</rpm>
</extensions>
</trkpt>
<trkpt lat="30.619703293" lon="34.920360565">
<ele>436.906250</ele>
<time>2013-11-22T12:48:24Z</time>
<speed>1.580000</speed>
<extensions>
<speed>1.6</speed>
<temp>0.00</temp>
<bpm>0</bpm>
<rpm>0.00</rpm>
</extensions>
</trkpt>
<trkpt lat="30.619647980" lon="34.920345306">
<ele>436.203125</ele>
<time>2013-11-22T12:48:29Z</time>
<speed>1.660000</speed>
<extensions>
<speed>1.7</speed>
<temp>0.00</temp>
<bpm>0</bpm>
<rpm>0.00</rpm>
</extensions>
</trkpt>
<trkpt lat="30.619569778" lon="34.920299530">
<ele>437.742188</ele>
<time>2013-11-22T12:48:34Z</time>
<speed>1.780000</speed>
<extensions>
<speed>1.8</speed>
<temp>0.00</temp>
<bpm>0</bpm>
<rpm>0.00</rpm>
</extensions>
</trkpt>
<trkpt lat="30.619550705" lon="34.920291901">
<ele>437.406250</ele>
<time>2013-11-22T12:48:39Z</time>
<speed>0.080000</speed>
<extensions>
<speed>0.1</speed>
<temp>0.00</temp>
<bpm>0</bpm>
<rpm>0.00</rpm>
</extensions>
</trkpt>
<trkpt lat="30.619552612" lon="34.920295715">
<ele>437.359375</ele>
<time>2013-11-22T12:48:44Z</time>
<extensions>
<speed>0.0</speed>
<temp>0.00</temp>
<bpm>0</bpm>
<rpm>0.00</rpm>
</extensions>
</trkpt>
<trkpt lat="30.619522095" lon="34.920284271">
<ele>437.007813</ele>
<time>2013-11-22T12:48:49Z</time>
<speed>1.370000</speed>
<extensions>
<speed>1.4</speed>
<temp>0.00</temp>
<bpm>0</bpm>
<rpm>0.00</rpm>
</extensions>
</trkpt>
<trkpt lat="30.619459152" lon="34.920249939">
<ele>436.773438</ele>
<time>2013-11-22T12:48:54Z</time>
<speed>1.420000</speed>
<extensions>
<speed>1.4</speed>
<temp>0.00</temp>
<bpm>0</bpm>
<rpm>0.00</rpm>
</extensions>
</trkpt>
<trkpt lat="30.619407654" lon="34.920234680">
<ele>438.093750</ele>
<time>2013-11-22T12:48:59Z</time>
<speed>1.430000</speed>
<extensions>
<speed>1.4</speed>
<temp>0.00</temp>
<bpm>0</bpm>
<rpm>0.00</rpm>
</extensions>
</trkpt>
<trkpt lat="30.619373322" lon="34.920211792">
<ele>437.187500</ele>
<time>2013-11-22T12:49:04Z</time>
<speed>0.100000</speed>
<extensions>
<speed>0.1</speed>
<temp>0.00</temp>
<bpm>0</bpm>
<rpm>0.00</rpm>
</extensions>
</trkpt>
<trkpt lat="30.619375229" lon="34.920207977">
<ele>436.718750</ele>
<time>2013-11-22T12:49:09Z</time>
<speed>0.030000</speed>
<extensions>
<speed>0.0</speed>
<temp>0.00</temp>
<bpm>0</bpm>
<rpm>0.00</rpm>
</extensions>
</trkpt>
<trkpt lat="30.619375229" lon="34.920207977">
<ele>436.781250</ele>
<time>2013-11-22T12:49:14Z</time>
<speed>0.010000</speed>
<extensions>
<speed>0.0</speed>
<temp>0.00</temp>
<bpm>0</bpm>
<rpm>0.00</rpm>
</extensions>
</trkpt>
<trkpt lat="30.619375229" lon="34.920207977">
<ele>436.804688</ele>
<time>2013-11-22T12:49:19Z</time>
<extensions>
<speed>0.0</speed>
<temp>0.00</temp>
<bpm>0</bpm>
<rpm>0.00</rpm>
</extensions>
</trkpt>
<trkpt lat="30.619375229" lon="34.920207977">
<ele>436.820313</ele>
<time>2013-11-22T12:49:24Z</time>
<extensions>
<speed>0.0</speed>
<temp>0.00</temp>
<bpm>0</bpm>
<rpm>0.00</rpm>
</extensions>
</trkpt>
<trkpt lat="30.619375229" lon="34.920207977">
<ele>436.828125</ele>
<time>2013-11-22T12:49:29Z</time>
<extensions>
<speed>0.0</speed>
<temp>0.00</temp>
<bpm>0</bpm>
<rpm>0.00</rpm>
</extensions>
</trkpt>
<trkpt lat="30.619375229" lon="34.920207977">
<ele>436.843750</ele>
<time>2013-11-22T12:49:34Z</time>
<extensions>
<speed>0.0</speed>
<temp>0.00</temp>
<bpm>0</bpm>
<rpm>0.00</rpm>
</extensions>
</trkpt>
<trkpt lat="30.619375229" lon="34.920207977">
<ele>436.859375</ele>
<time>2013-11-22T12:49:39Z</time>
<extensions>
<speed>0.0</speed>
<temp>0.00</temp>
<bpm>0</bpm>
<rpm>0.00</rpm>
</extensions>
</trkpt>
<trkpt lat="30.619375229" lon="34.920207977">
<ele>436.875000</ele>
<time>2013-11-22T12:49:44Z</time>
<extensions>
<speed>0.0</speed>
<temp>0.00</temp>
<bpm>0</bpm>
<rpm>0.00</rpm>
</extensions>
</trkpt>
<trkpt lat="30.619375229" lon="34.920207977">
<ele>436.882813</ele>
<time>2013-11-22T12:49:49Z</time>
<extensions>
<speed>0.0</speed>
<temp>0.00</temp>
<bpm>0</bpm>
<rpm>0.00</rpm>
</extensions>
</trkpt>
<trkpt lat="30.619375229" lon="34.920207977">
<ele>436.882813</ele>
<time>2013-11-22T12:49:54Z</time>
<extensions>
<speed>0.0</speed>
<temp>0.00</temp>
<bpm>0</bpm>
<rpm>0.00</rpm>
</extensions>
</trkpt>
<trkpt lat="30.619375229" lon="34.920207977">
<ele>436.875000</ele>
<time>2013-11-22T12:49:59Z</time>
<extensions>
<speed>0.0</speed>
<temp>0.00</temp>
<bpm>0</bpm>
<rpm>0.00</rpm>
</extensions>
</trkpt>
<trkpt lat="30.619375229" lon="34.920207977">
<ele>436.867188</ele>
<time>2013-11-22T12:50:04Z</time>
<speed>0.030000</speed>
<extensions>
<speed>0.0</speed>
<temp>0.00</temp>
<bpm>0</bpm>
<rpm>0.00</rpm>
</extensions>
</trkpt>
<trkpt lat="30.619316101" lon="34.920185089">
<ele>436.476563</ele>
<time>2013-11-22T12:50:09Z</time>
<speed>1.540000</speed>
<extensions>
<speed>1.5</speed>
<temp>0.00</temp>
<bpm>0</bpm>
<rpm>0.00</rpm>
</extensions>
</trkpt>
<trkpt lat="30.619203568" lon="34.920166016">
<ele>435.757813</ele>
<time>2013-11-22T12:50:14Z</time>
<speed>2.690000</speed>
<extensions>
<speed>2.7</speed>
<temp>0.00</temp>
<bpm>0</bpm>
<rpm>0.00</rpm>
</extensions>
</trkpt>
<trkpt lat="30.619060516" lon="34.920139313">
<ele>435.171875</ele>
<time>2013-11-22T12:50:19Z</time>
<speed>2.850000</speed>
<extensions>
<speed>2.9</speed>
<temp>0.00</temp>
<bpm>0</bpm>
<rpm>0.00</rpm>
</extensions>
</trkpt>
<trkpt lat="30.619031906" lon="34.920135498">
<ele>434.968750</ele>
<time>2013-11-22T12:50:24Z</time>
<extensions>
<speed>0.0</speed>
<temp>0.00</temp>
<bpm>0</bpm>
<rpm>0.00</rpm>
</extensions>
</trkpt>
<trkpt lat="30.618976593" lon="34.920146942">
<ele>435.039063</ele>
<time>2013-11-22T12:50:29Z</time>
<speed>2.400000</speed>
<extensions>
<speed>2.4</speed>
<temp>0.00</temp>
<bpm>0</bpm>
<rpm>0.00</rpm>
</extensions>
</trkpt>
<trkpt lat="30.618806839" lon="34.920154572">
<ele>431.851563</ele>
<time>2013-11-22T12:50:34Z</time>
<speed>3.920000</speed>
<extensions>
<speed>3.9</speed>
<temp>0.00</temp>
<bpm>0</bpm>
<rpm>0.00</rpm>
</extensions>
</trkpt>
<trkpt lat="30.618621826" lon="34.920150757">
<ele>428.804688</ele>
<time>2013-11-22T12:50:39Z</time>
<speed>3.920000</speed>
<extensions>
<speed>3.9</speed>
<temp>0.00</temp>
<bpm>0</bpm>
<rpm>0.00</rpm>
</extensions>
</trkpt>
<trkpt lat="30.618457794" lon="34.920143127">
<ele>427.648438</ele>
<time>2013-11-22T12:50:44Z</time>
<speed>2.960000</speed>
<extensions>
<speed>3.0</speed>
<temp>0.00</temp>
<bpm>0</bpm>
<rpm>0.00</rpm>
</extensions>
</trkpt>
<trkpt lat="30.618356705" lon="34.919963837">
<ele>425.562500</ele>
<time>2013-11-22T12:50:49Z</time>
<speed>4.040000</speed>
<extensions>
<speed>4.0</speed>
<temp>0.00</temp>
<bpm>0</bpm>
<rpm>0.00</rpm>
</extensions>
</trkpt>
<trkpt lat="30.618326187" lon="34.919742584">
<ele>424.531250</ele>
<time>2013-11-22T12:50:54Z</time>
<speed>4.250000</speed>
<extensions>
<speed>4.3</speed>
<temp>0.00</temp>
<bpm>0</bpm>
<rpm>0.00</rpm>
</extensions>
</trkpt>
<trkpt lat="30.618282318" lon="34.919532776">
<ele>423.921875</ele>
<time>2013-11-22T12:50:59Z</time>
<speed>3.850000</speed>
<extensions>
<speed>3.8</speed>
<temp>0.00</temp>
<bpm>0</bpm>
<rpm>0.00</rpm>
</extensions>
</trkpt>
<trkpt lat="30.618213654" lon="34.919357300">
<ele>422.742188</ele>
<time>2013-11-22T12:51:04Z</time>
<speed>3.540000</speed>
<extensions>
<speed>3.5</speed>
<temp>0.00</temp>
<bpm>0</bpm>
<rpm>0.00</rpm>
</extensions>
</trkpt>
<trkpt lat="30.618129730" lon="34.919178009">
<ele>419.031250</ele>
<time>2013-11-22T12:51:09Z</time>
<speed>4.020000</speed>
<extensions>
<speed>4.0</speed>
<temp>0.00</temp>
<bpm>0</bpm>
<rpm>0.00</rpm>
</extensions>
</trkpt>
<trkpt lat="30.618047714" lon="34.918975830">
<ele>419.945313</ele>
<time>2013-11-22T12:51:14Z</time>
<speed>3.780000</speed>
<extensions>
<speed>3.8</speed>
<temp>0.00</temp>
<bpm>0</bpm>
<rpm>0.00</rpm>
</extensions>
</trkpt>
<trkpt lat="30.618028641" lon="34.918830872">
<ele>420.664063</ele>
<time>2013-11-22T12:51:19Z</time>
<speed>1.750000</speed>
<extensions>
<speed>1.8</speed>
<temp>0.00</temp>
<bpm>0</bpm>
<rpm>0.00</rpm>
</extensions>
</trkpt>
<trkpt lat="30.618036270" lon="34.918708801">
<ele>420.632813</ele>
<time>2013-11-22T12:51:24Z</time>
<speed>2.580000</speed>
<extensions>
<speed>2.6</speed>
<temp>0.00</temp>
<bpm>0</bpm>
<rpm>0.00</rpm>
</extensions>
</trkpt>
<trkpt lat="30.618061066" lon="34.918586731">
<ele>420.242188</ele>
<time>2013-11-22T12:51:29Z</time>
<speed>3.090000</speed>
<extensions>
<speed>3.1</speed>
<temp>0.00</temp>
<bpm>0</bpm>
<rpm>0.00</rpm>
</extensions>
</trkpt>
<trkpt lat="30.618095398" lon="34.918434143">
<ele>421.117188</ele>
<time>2013-11-22T12:51:34Z</time>
<speed>3.450000</speed>
<extensions>
<speed>3.5</speed>
<temp>0.00</temp>
<bpm>0</bpm>
<rpm>0.00</rpm>
</extensions>
</trkpt>
<trkpt lat="30.618118286" lon="34.918289185">
<ele>422.976563</ele>
<time>2013-11-22T12:51:39Z</time>
<speed>3.170000</speed>
<extensions>
<speed>3.2</speed>
<temp>0.00</temp>
<bpm>0</bpm>
<rpm>0.00</rpm>
</extensions>
</trkpt>
<trkpt lat="30.618164063" lon="34.918121338">
<ele>425.093750</ele>
<time>2013-11-22T12:51:44Z</time>
<speed>3.310000</speed>
<extensions>
<speed>3.3</speed>
<temp>0.00</temp>
<bpm>0</bpm>
<rpm>0.00</rpm>
</extensions>
</trkpt>
<trkpt lat="30.618213654" lon="34.917953491">
<ele>426.179688</ele>
<time>2013-11-22T12:51:49Z</time>
<speed>3.110000</speed>
<extensions>
<speed>3.1</speed>
<temp>0.00</temp>
<bpm>0</bpm>
<rpm>0.00</rpm>
</extensions>
</trkpt>
<trkpt lat="30.618276596" lon="34.917808533">
<ele>426.109375</ele>
<time>2013-11-22T12:51:54Z</time>
<speed>3.030000</speed>
<extensions>
<speed>3.0</speed>
<temp>0.00</temp>
<bpm>0</bpm>
<rpm>0.00</rpm>
</extensions>
</trkpt>
<trkpt lat="30.618305206" lon="34.917621613">
<ele>423.375000</ele>
<time>2013-11-22T12:51:59Z</time>
<speed>3.260000</speed>
<extensions>
<speed>3.3</speed>
<temp>0.00</temp>
<bpm>0</bpm>
<rpm>0.00</rpm>
</extensions>
</trkpt>
<trkpt lat="30.618318558" lon="34.917461395">
<ele>423.015625</ele>
<time>2013-11-22T12:52:04Z</time>
<speed>2.680000</speed>
<extensions>
<speed>2.7</speed>
<temp>0.00</temp>
<bpm>0</bpm>
<rpm>0.00</rpm>
</extensions>
</trkpt>
<trkpt lat="30.618331909" lon="34.917407990">
<ele>420.328125</ele>
<time>2013-11-22T12:52:09Z</time>
<speed>0.080000</speed>
<extensions>
<speed>0.1</speed>
<temp>0.00</temp>
<bpm>0</bpm>
<rpm>0.00</rpm>
</extensions>
</trkpt>
<trkpt lat="30.618331909" lon="34.917411804">
<ele>420.093750</ele>
<time>2013-11-22T12:52:14Z</time>
<speed>0.080000</speed>
<extensions>
<speed>0.1</speed>
<temp>0.00</temp>
<bpm>0</bpm>
<rpm>0.00</rpm>
</extensions>
</trkpt>
<trkpt lat="30.618330002" lon="34.917411804">
<ele>420.164063</ele>
<time>2013-11-22T12:52:19Z</time>
<speed>0.130000</speed>
<extensions>
<speed>0.1</speed>
<temp>0.00</temp>
<bpm>0</bpm>
<rpm>0.00</rpm>
</extensions>
</trkpt>
<trkpt lat="30.618328094" lon="34.917411804">
<ele>420.281250</ele>
<time>2013-11-22T12:52:24Z</time>
<speed>0.050000</speed>
<extensions>
<speed>0.1</speed>
<temp>0.00</temp>
<bpm>0</bpm>
<rpm>0.00</rpm>
</extensions>
</trkpt>
<trkpt lat="30.618328094" lon="34.917411804">
<ele>420.312500</ele>
<time>2013-11-22T12:52:29Z</time>
<extensions>
<speed>0.0</speed>
<temp>0.00</temp>
<bpm>0</bpm>
<rpm>0.00</rpm>
</extensions>
</trkpt>
<trkpt lat="30.618328094" lon="34.917411804">
<ele>420.312500</ele>
<time>2013-11-22T12:52:34Z</time>
<extensions>
<speed>0.0</speed>
<temp>0.00</temp>
<bpm>0</bpm>
<rpm>0.00</rpm>
</extensions>
</trkpt>
<trkpt lat="30.618328094" lon="34.917411804">
<ele>420.320313</ele>
<time>2013-11-22T12:52:39Z</time>
<speed>0.020000</speed>
<extensions>
<speed>0.0</speed>
<temp>0.00</temp>
<bpm>0</bpm>
<rpm>0.00</rpm>
</extensions>
</trkpt>
<trkpt lat="30.618328094" lon="34.917411804">
<ele>420.328125</ele>
<time>2013-11-22T12:52:44Z</time>
<extensions>
<speed>0.0</speed>
<temp>0.00</temp>
<bpm>0</bpm>
<rpm>0.00</rpm>
</extensions>
</trkpt>
<trkpt lat="30.618328094" lon="34.917411804">
<ele>420.304688</ele>
<time>2013-11-22T12:52:49Z</time>
<speed>0.020000</speed>
<extensions>
<speed>0.0</speed>
<temp>0.00</temp>
<bpm>0</bpm>
<rpm>0.00</rpm>
</extensions>
</trkpt>
<trkpt lat="30.618328094" lon="34.917411804">
<ele>420.312500</ele>
<time>2013-11-22T12:52:54Z</time>
<speed>0.030000</speed>
<extensions>
<speed>0.0</speed>
<temp>0.00</temp>
<bpm>0</bpm>
<rpm>0.00</rpm>
</extensions>
</trkpt>
<trkpt lat="30.618328094" lon="34.917411804">
<ele>420.320313</ele>
<time>2013-11-22T12:52:59Z</time>
<extensions>
<speed>0.0</speed>
<temp>0.00</temp>
<bpm>0</bpm>
<rpm>0.00</rpm>
</extensions>
</trkpt>
<trkpt lat="30.618335724" lon="34.917404175">
<ele>420.429688</ele>
<time>2013-11-22T12:53:04Z</time>
<speed>0.300000</speed>
<extensions>
<speed>0.3</speed>
<temp>0.00</temp>
<bpm>0</bpm>
<rpm>0.00</rpm>
</extensions>
</trkpt>
<trkpt lat="30.618341446" lon="34.917400360">
<ele>420.929688</ele>
<time>2013-11-22T12:53:09Z</time>
<speed>0.040000</speed>
<extensions>
<speed>0.0</speed>
<temp>0.00</temp>
<bpm>0</bpm>
<rpm>0.00</rpm>
</extensions>
</trkpt>
<trkpt lat="30.618339539" lon="34.917400360">
<ele>421.460938</ele>
<time>2013-11-22T12:53:14Z</time>
<speed>0.010000</speed>
<extensions>
<speed>0.0</speed>
<temp>0.00</temp>
<bpm>0</bpm>
<rpm>0.00</rpm>
</extensions>
</trkpt>
<trkpt lat="30.618339539" lon="34.917400360">
<ele>421.460938</ele>
<time>2013-11-22T12:53:19Z</time>
<extensions>
<speed>0.0</speed>
<temp>0.00</temp>
<bpm>0</bpm>
<rpm>0.00</rpm>
</extensions>
</trkpt>
<trkpt lat="30.618339539" lon="34.917400360">
<ele>421.460938</ele>
<time>2013-11-22T12:53:24Z</time>
<speed>0.010000</speed>
<extensions>
<speed>0.0</speed>
<temp>0.00</temp>
<bpm>0</bpm>
<rpm>0.00</rpm>
</extensions>
</trkpt>
<trkpt lat="30.618339539" lon="34.917400360">
<ele>421.445313</ele>
<time>2013-11-22T12:53:29Z</time>
<extensions>
<speed>0.0</speed>
<temp>0.00</temp>
<bpm>0</bpm>
<rpm>0.00</rpm>
</extensions>
</trkpt>
<trkpt lat="30.618339539" lon="34.917400360">
<ele>421.445313</ele>
<time>2013-11-22T12:53:34Z</time>
<extensions>
<speed>0.0</speed>
<temp>0.00</temp>
<bpm>0</bpm>
<rpm>0.00</rpm>
</extensions>
</trkpt>
<trkpt lat="30.618339539" lon="34.917400360">
<ele>421.437500</ele>
<time>2013-11-22T12:53:39Z</time>
<speed>0.010000</speed>
<extensions>
<speed>0.0</speed>
<temp>0.00</temp>
<bpm>0</bpm>
<rpm>0.00</rpm>
</extensions>
</trkpt>
<trkpt lat="30.618339539" lon="34.917400360">
<ele>421.437500</ele>
<time>2013-11-22T12:53:44Z</time>
<extensions>
<speed>0.0</speed>
<temp>0.00</temp>
<bpm>0</bpm>
<rpm>0.00</rpm>
</extensions>
</trkpt>
<trkpt lat="30.618339539" lon="34.917400360">
<ele>421.437500</ele>
<time>2013-11-22T12:53:49Z</time>
<extensions>
<speed>0.0</speed>
<temp>0.00</temp>
<bpm>0</bpm>
<rpm>0.00</rpm>
</extensions>
</trkpt>
<trkpt lat="30.618339539" lon="34.917400360">
<ele>421.437500</ele>
<time>2013-11-22T12:53:54Z</time>
<extensions>
<speed>0.0</speed>
<temp>0.00</temp>
<bpm>0</bpm>
<rpm>0.00</rpm>
</extensions>
</trkpt>
<trkpt lat="30.618339539" lon="34.917400360">
<ele>421.453125</ele>
<time>2013-11-22T12:53:59Z</time>
<speed>0.170000</speed>
<extensions>
<speed>0.2</speed>
<temp>0.00</temp>
<bpm>0</bpm>
<rpm>0.00</rpm>
</extensions>
</trkpt>
<trkpt lat="30.618339539" lon="34.917400360">
<ele>421.570313</ele>
<time>2013-11-22T12:54:04Z</time>
<speed>0.010000</speed>
<extensions>
<speed>0.0</speed>
<temp>0.00</temp>
<bpm>0</bpm>
<rpm>0.00</rpm>
</extensions>
</trkpt>
<trkpt lat="30.618339539" lon="34.917400360">
<ele>421.578125</ele>
<time>2013-11-22T12:54:09Z</time>
<speed>0.010000</speed>
<extensions>
<speed>0.0</speed>
<temp>0.00</temp>
<bpm>0</bpm>
<rpm>0.00</rpm>
</extensions>
</trkpt>
<trkpt lat="30.618339539" lon="34.917400360">
<ele>421.578125</ele>
<time>2013-11-22T12:54:14Z</time>
<speed>0.010000</speed>
<extensions>
<speed>0.0</speed>
<temp>0.00</temp>
<bpm>0</bpm>
<rpm>0.00</rpm>
</extensions>
</trkpt>
<trkpt lat="30.618339539" lon="34.917400360">
<ele>421.585938</ele>
<time>2013-11-22T12:54:19Z</time>
<speed>0.020000</speed>
<extensions>
<speed>0.0</speed>
<temp>0.00</temp>
<bpm>0</bpm>
<rpm>0.00</rpm>
</extensions>
</trkpt>
<trkpt lat="30.618339539" lon="34.917400360">
<ele>421.593750</ele>
<time>2013-11-22T12:54:24Z</time>
<extensions>
<speed>0.0</speed>
<temp>0.00</temp>
<bpm>0</bpm>
<rpm>0.00</rpm>
</extensions>
</trkpt>
<trkpt lat="30.618339539" lon="34.917400360">
<ele>421.578125</ele>
<time>2013-11-22T12:54:29Z</time>
<speed>1.460000</speed>
<extensions>
<speed>1.5</speed>
<temp>0.00</temp>
<bpm>0</bpm>
<rpm>0.00</rpm>
</extensions>
</trkpt>
<trkpt lat="30.618402481" lon="34.917297363">
<ele>422.085938</ele>
<time>2013-11-22T12:54:34Z</time>
<speed>3.170000</speed>
<extensions>
<speed>3.2</speed>
<temp>0.00</temp>
<bpm>0</bpm>
<rpm>0.00</rpm>
</extensions>
</trkpt>
<trkpt lat="30.618486404" lon="34.917137146">
<ele>422.617188</ele>
<time>2013-11-22T12:54:39Z</time>
<speed>3.250000</speed>
<extensions>
<speed>3.2</speed>
<temp>0.00</temp>
<bpm>0</bpm>
<rpm>0.00</rpm>
</extensions>
</trkpt>
<trkpt lat="30.618583679" lon="34.917007446">
<ele>421.976563</ele>
<time>2013-11-22T12:54:44Z</time>
<speed>2.670000</speed>
<extensions>
<speed>2.7</speed>
<temp>0.00</temp>
<bpm>0</bpm>
<rpm>0.00</rpm>
</extensions>
</trkpt>
<trkpt lat="30.618703842" lon="34.916889191">
<ele>422.460938</ele>
<time>2013-11-22T12:54:49Z</time>
<speed>3.990000</speed>
<extensions>
<speed>4.0</speed>
<temp>0.00</temp>
<bpm>0</bpm>
<rpm>0.00</rpm>
</extensions>
</trkpt>
<trkpt lat="30.618848801" lon="34.916759491">
<ele>423.648438</ele>
<time>2013-11-22T12:54:54Z</time>
<speed>3.770000</speed>
<extensions>
<speed>3.8</speed>
<temp>0.00</temp>
<bpm>0</bpm>
<rpm>0.00</rpm>
</extensions>
</trkpt>
<trkpt lat="30.619016647" lon="34.916671753">
<ele>421.429688</ele>
<time>2013-11-22T12:54:59Z</time>
<speed>4.020000</speed>
<extensions>
<speed>4.0</speed>
<temp>0.00</temp>
<bpm>0</bpm>
<rpm>0.00</rpm>
</extensions>
</trkpt>
<trkpt lat="30.619205475" lon="34.916675568">
<ele>418.828125</ele>
<time>2013-11-22T12:55:04Z</time>
<speed>4.250000</speed>
<extensions>
<speed>4.3</speed>
<temp>0.00</temp>
<bpm>0</bpm>
<rpm>0.00</rpm>
</extensions>
</trkpt>
<trkpt lat="30.619386673" lon="34.916751862">
<ele>419.523438</ele>
<time>2013-11-22T12:55:09Z</time>
<speed>4.270000</speed>
<extensions>
<speed>4.3</speed>
<temp>0.00</temp>
<bpm>0</bpm>
<rpm>0.00</rpm>
</extensions>
</trkpt>
<trkpt lat="30.619581223" lon="34.916820526">
<ele>420.281250</ele>
<time>2013-11-22T12:55:14Z</time>
<speed>4.500000</speed>
<extensions>
<speed>4.5</speed>
<temp>0.00</temp>
<bpm>0</bpm>
<rpm>0.00</rpm>
</extensions>
</trkpt>
<trkpt lat="30.619771957" lon="34.916877747">
<ele>419.500000</ele>
<time>2013-11-22T12:55:19Z</time>
<speed>4.290000</speed>
<extensions>
<speed>4.3</speed>
<temp>0.00</temp>
<bpm>0</bpm>
<rpm>0.00</rpm>
</extensions>
</trkpt>
<trkpt lat="30.619977951" lon="34.916923523">
<ele>423.906250</ele>
<time>2013-11-22T12:55:24Z</time>
<speed>4.000000</speed>
<extensions>
<speed>4.0</speed>
<temp>0.00</temp>
<bpm>0</bpm>
<rpm>0.00</rpm>
</extensions>
</trkpt>
<trkpt lat="30.620143890" lon="34.916912079">
<ele>430.695313</ele>
<time>2013-11-22T12:55:29Z</time>
<speed>2.730000</speed>
<extensions>
<speed>2.7</speed>
<temp>0.00</temp>
<bpm>0</bpm>
<rpm>0.00</rpm>
</extensions>
</trkpt>
<trkpt lat="30.620237350" lon="34.916893005">
<ele>433.726563</ele>
<time>2013-11-22T12:55:34Z</time>
<speed>1.690000</speed>
<extensions>
<speed>1.7</speed>
<temp>0.00</temp>
<bpm>0</bpm>
<rpm>0.00</rpm>
</extensions>
</trkpt>
<trkpt lat="30.620328903" lon="34.916873932">
<ele>436.492188</ele>
<time>2013-11-22T12:55:39Z</time>
<speed>2.380000</speed>
<extensions>
<speed>2.4</speed>
<temp>0.00</temp>
<bpm>0</bpm>
<rpm>0.00</rpm>
</extensions>
</trkpt>
<trkpt lat="30.620458603" lon="34.916847229">
<ele>438.250000</ele>
<time>2013-11-22T12:55:44Z</time>
<speed>3.340000</speed>
<extensions>
<speed>3.3</speed>
<temp>0.00</temp>
<bpm>0</bpm>
<rpm>0.00</rpm>
</extensions>
</trkpt>
<trkpt lat="30.620613098" lon="34.916812897">
<ele>438.796875</ele>
<time>2013-11-22T12:55:49Z</time>
<speed>3.980000</speed>
<extensions>
<speed>4.0</speed>
<temp>0.00</temp>
<bpm>0</bpm>
<rpm>0.00</rpm>
</extensions>
</trkpt>
<trkpt lat="30.620796204" lon="34.916759491">
<ele>440.968750</ele>
<time>2013-11-22T12:55:54Z</time>
<speed>3.990000</speed>
<extensions>
<speed>4.0</speed>
<temp>0.00</temp>
<bpm>0</bpm>
<rpm>0.00</rpm>
</extensions>
</trkpt>
<trkpt lat="30.620979309" lon="34.916683197">
<ele>442.570313</ele>
<time>2013-11-22T12:55:59Z</time>
<speed>4.340000</speed>
<extensions>
<speed>4.3</speed>
<temp>0.00</temp>
<bpm>0</bpm>
<rpm>0.00</rpm>
</extensions>
</trkpt>
<trkpt lat="30.621152878" lon="34.916587830">
<ele>442.789063</ele>
<time>2013-11-22T12:56:04Z</time>
<speed>4.360000</speed>
<extensions>
<speed>4.4</speed>
<temp>0.00</temp>
<bpm>0</bpm>
<rpm>0.00</rpm>
</extensions>
</trkpt>
<trkpt lat="30.621292114" lon="34.916427612">
<ele>442.820313</ele>
<time>2013-11-22T12:56:09Z</time>
<speed>4.710000</speed>
<extensions>
<speed>4.7</speed>
<temp>0.00</temp>
<bpm>0</bpm>
<rpm>0.00</rpm>
</extensions>
</trkpt>
<trkpt lat="30.621431351" lon="34.916240692">
<ele>442.820313</ele>
<time>2013-11-22T12:56:14Z</time>
<speed>4.760000</speed>
<extensions>
<speed>4.8</speed>
<temp>0.00</temp>
<bpm>0</bpm>
<rpm>0.00</rpm>
</extensions>
</trkpt>
<trkpt lat="30.621620178" lon="34.916122437">
<ele>443.328125</ele>
<time>2013-11-22T12:56:19Z</time>
<speed>4.770000</speed>
<extensions>
<speed>4.8</speed>
<temp>0.00</temp>
<bpm>0</bpm>
<rpm>0.00</rpm>
</extensions>
</trkpt>
<trkpt lat="30.621829987" lon="34.916011810">
<ele>443.132813</ele>
<time>2013-11-22T12:56:24Z</time>
<speed>5.220000</speed>
<extensions>
<speed>5.2</speed>
<temp>0.00</temp>
<bpm>0</bpm>
<rpm>0.00</rpm>
</extensions>
</trkpt>
<trkpt lat="30.622016907" lon="34.915920258">
<ele>443.898438</ele>
<time>2013-11-22T12:56:29Z</time>
<speed>3.520000</speed>
<extensions>
<speed>3.5</speed>
<temp>0.00</temp>
<bpm>0</bpm>
<rpm>0.00</rpm>
</extensions>
</trkpt>
<trkpt lat="30.622106552" lon="34.915866852">
<ele>444.265625</ele>
<time>2013-11-22T12:56:34Z</time>
<speed>2.250000</speed>
<extensions>
<speed>2.3</speed>
<temp>0.00</temp>
<bpm>0</bpm>
<rpm>0.00</rpm>
</extensions>
</trkpt>
<trkpt lat="30.622203827" lon="34.915813446">
<ele>443.578125</ele>
<time>2013-11-22T12:56:39Z</time>
<speed>2.440000</speed>
<extensions>
<speed>2.4</speed>
<temp>0.00</temp>
<bpm>0</bpm>
<rpm>0.00</rpm>
</extensions>
</trkpt>
<trkpt lat="30.622291565" lon="34.915767670">
<ele>441.921875</ele>
<time>2013-11-22T12:56:44Z</time>
<speed>2.060000</speed>
<extensions>
<speed>2.1</speed>
<temp>0.00</temp>
<bpm>0</bpm>
<rpm>0.00</rpm>
</extensions>
</trkpt>
<trkpt lat="30.622388840" lon="34.915706635">
<ele>442.554688</ele>
<time>2013-11-22T12:56:49Z</time>
<speed>2.330000</speed>
<extensions>
<speed>2.3</speed>
<temp>0.00</temp>
<bpm>0</bpm>
<rpm>0.00</rpm>
</extensions>
</trkpt>
<trkpt lat="30.622493744" lon="34.915630341">
<ele>442.882813</ele>
<time>2013-11-22T12:56:54Z</time>
<speed>3.060000</speed>
<extensions>
<speed>3.1</speed>
<temp>0.00</temp>
<bpm>0</bpm>
<rpm>0.00</rpm>
</extensions>
</trkpt>
<trkpt lat="30.622612000" lon="34.915550232">
<ele>442.726563</ele>
<time>2013-11-22T12:56:59Z</time>
<speed>3.380000</speed>
<extensions>
<speed>3.4</speed>
<temp>0.00</temp>
<bpm>0</bpm>
<rpm>0.00</rpm>
</extensions>
</trkpt>
<trkpt lat="30.622739792" lon="34.915466309">
<ele>444.171875</ele>
<time>2013-11-22T12:57:04Z</time>
<speed>3.450000</speed>
<extensions>
<speed>3.5</speed>
<temp>0.00</temp>
<bpm>0</bpm>
<rpm>0.00</rpm>
</extensions>
</trkpt>
<trkpt lat="30.622907639" lon="34.915431976">
<ele>444.796875</ele>
<time>2013-11-22T12:57:09Z</time>
<speed>4.130000</speed>
<extensions>
<speed>4.1</speed>
<temp>0.00</temp>
<bpm>0</bpm>
<rpm>0.00</rpm>
</extensions>
</trkpt>
<trkpt lat="30.623065948" lon="34.915374756">
<ele>440.757813</ele>
<time>2013-11-22T12:57:14Z</time>
<speed>2.910000</speed>
<extensions>
<speed>2.9</speed>
<temp>0.00</temp>
<bpm>0</bpm>
<rpm>0.00</rpm>
</extensions>
</trkpt>
<trkpt lat="30.623189926" lon="34.915367126">
<ele>437.953125</ele>
<time>2013-11-22T12:57:19Z</time>
<speed>2.050000</speed>
<extensions>
<speed>2.1</speed>
<temp>0.00</temp>
<bpm>0</bpm>
<rpm>0.00</rpm>
</extensions>
</trkpt>
<trkpt lat="30.623329163" lon="34.915344238">
<ele>434.359375</ele>
<time>2013-11-22T12:57:24Z</time>
<speed>4.080000</speed>
<extensions>
<speed>4.1</speed>
<temp>0.00</temp>
<bpm>0</bpm>
<rpm>0.00</rpm>
</extensions>
</trkpt>
<trkpt lat="30.623558044" lon="34.915313721">
<ele>431.757813</ele>
<time>2013-11-22T12:57:29Z</time>
<speed>5.570000</speed>
<extensions>
<speed>5.6</speed>
<temp>0.00</temp>
<bpm>0</bpm>
<rpm>0.00</rpm>
</extensions>
</trkpt>
<trkpt lat="30.623773575" lon="34.915164948">
<ele>428.250000</ele>
<time>2013-11-22T12:57:34Z</time>
<speed>5.890000</speed>
<extensions>
<speed>5.9</speed>
<temp>0.00</temp>
<bpm>0</bpm>
<rpm>0.00</rpm>
</extensions>
</trkpt>
<trkpt lat="30.623922348" lon="34.914871216">
<ele>424.523438</ele>
<time>2013-11-22T12:57:39Z</time>
<speed>7.560000</speed>
<extensions>
<speed>7.6</speed>
<temp>0.00</temp>
<bpm>0</bpm>
<rpm>0.00</rpm>
</extensions>
</trkpt>
<trkpt lat="30.624008179" lon="34.914451599">
<ele>419.320313</ele>
<time>2013-11-22T12:57:44Z</time>
<speed>8.910000</speed>
<extensions>
<speed>8.9</speed>
<temp>0.00</temp>
<bpm>0</bpm>
<rpm>0.00</rpm>
</extensions>
</trkpt>
<trkpt lat="30.624017715" lon="34.914035797">
<ele>419.437500</ele>
<time>2013-11-22T12:57:49Z</time>
<speed>6.080000</speed>
<extensions>
<speed>6.1</speed>
<temp>0.00</temp>
<bpm>0</bpm>
<rpm>0.00</rpm>
</extensions>
</trkpt>
<trkpt lat="30.624021530" lon="34.913833618">
<ele>421.007813</ele>
<time>2013-11-22T12:57:54Z</time>
<speed>2.150000</speed>
<extensions>
<speed>2.1</speed>
<temp>0.00</temp>
<bpm>0</bpm>
<rpm>0.00</rpm>
</extensions>
</trkpt>
<trkpt lat="30.624010086" lon="34.913719177">
<ele>419.007813</ele>
<time>2013-11-22T12:57:59Z</time>
<speed>2.210000</speed>
<extensions>
<speed>2.2</speed>
<temp>0.00</temp>
<bpm>0</bpm>
<rpm>0.00</rpm>
</extensions>
</trkpt>
<trkpt lat="30.623979568" lon="34.913604736">
<ele>421.414063</ele>
<time>2013-11-22T12:58:04Z</time>
<speed>2.230000</speed>
<extensions>
<speed>2.2</speed>
<temp>0.00</temp>
<bpm>0</bpm>
<rpm>0.00</rpm>
</extensions>
</trkpt>
<trkpt lat="30.623941422" lon="34.913482666">
<ele>421.164063</ele>
<time>2013-11-22T12:58:09Z</time>
<speed>2.440000</speed>
<extensions>
<speed>2.4</speed>
<temp>0.00</temp>
<bpm>0</bpm>
<rpm>0.00</rpm>
</extensions>
</trkpt>
<trkpt lat="30.623893738" lon="34.913379669">
<ele>421.500000</ele>
<time>2013-11-22T12:58:14Z</time>
<speed>2.300000</speed>
<extensions>
<speed>2.3</speed>
<temp>0.00</temp>
<bpm>0</bpm>
<rpm>0.00</rpm>
</extensions>
</trkpt>
<trkpt lat="30.623832703" lon="34.913276672">
<ele>421.828125</ele>
<time>2013-11-22T12:58:19Z</time>
<speed>2.080000</speed>
<extensions>
<speed>2.1</speed>
<temp>0.00</temp>
<bpm>0</bpm>
<rpm>0.00</rpm>
</extensions>
</trkpt>
<trkpt lat="30.623769760" lon="34.913177490">
<ele>423.125000</ele>
<time>2013-11-22T12:58:24Z</time>
<speed>2.210000</speed>
<extensions>
<speed>2.2</speed>
<temp>0.00</temp>
<bpm>0</bpm>
<rpm>0.00</rpm>
</extensions>
</trkpt>
<trkpt lat="30.623693466" lon="34.913105011">
<ele>426.007813</ele>
<time>2013-11-22T12:58:29Z</time>
<speed>1.680000</speed>
<extensions>
<speed>1.7</speed>
<temp>0.00</temp>
<bpm>0</bpm>
<rpm>0.00</rpm>
</extensions>
</trkpt>
<trkpt lat="30.623655319" lon="34.913017273">
<ele>428.296875</ele>
<time>2013-11-22T12:58:34Z</time>
<speed>2.260000</speed>
<extensions>
<speed>2.3</speed>
<temp>0.00</temp>
<bpm>0</bpm>
<rpm>0.00</rpm>
</extensions>
</trkpt>
<trkpt lat="30.623592377" lon="34.912929535">
<ele>428.312500</ele>
<time>2013-11-22T12:58:39Z</time>
<speed>2.340000</speed>
<extensions>
<speed>2.3</speed>
<temp>0.00</temp>
<bpm>0</bpm>
<rpm>0.00</rpm>
</extensions>
</trkpt>
<trkpt lat="30.623550415" lon="34.912837982">
<ele>426.703125</ele>
<time>2013-11-22T12:58:44Z</time>
<speed>2.240000</speed>
<extensions>
<speed>2.2</speed>
<temp>0.00</temp>
<bpm>0</bpm>
<rpm>0.00</rpm>
</extensions>
</trkpt>
<trkpt lat="30.623485565" lon="34.912746429">
<ele>427.601563</ele>
<time>2013-11-22T12:58:49Z</time>
<speed>2.230000</speed>
<extensions>
<speed>2.2</speed>
<temp>0.00</temp>
<bpm>0</bpm>
<rpm>0.00</rpm>
</extensions>
</trkpt>
<trkpt lat="30.623411179" lon="34.912666321">
<ele>429.640625</ele>
<time>2013-11-22T12:58:54Z</time>
<speed>2.260000</speed>
<extensions>
<speed>2.3</speed>
<temp>0.00</temp>
<bpm>0</bpm>
<rpm>0.00</rpm>
</extensions>
</trkpt>
<trkpt lat="30.623369217" lon="34.912586212">
<ele>430.437500</ele>
<time>2013-11-22T12:58:59Z</time>
<speed>2.310000</speed>
<extensions>
<speed>2.3</speed>
<temp>0.00</temp>
<bpm>0</bpm>
<rpm>0.00</rpm>
</extensions>
</trkpt>
<trkpt lat="30.623315811" lon="34.912467957">
<ele>431.640625</ele>
<time>2013-11-22T12:59:04Z</time>
<speed>2.570000</speed>
<extensions>
<speed>2.6</speed>
<temp>0.00</temp>
<bpm>0</bpm>
<rpm>0.00</rpm>
</extensions>
</trkpt>
<trkpt lat="30.623241425" lon="34.912361145">
<ele>432.687500</ele>
<time>2013-11-22T12:59:09Z</time>
<speed>2.830000</speed>
<extensions>
<speed>2.8</speed>
<temp>0.00</temp>
<bpm>0</bpm>
<rpm>0.00</rpm>
</extensions>
</trkpt>
<trkpt lat="30.623163223" lon="34.912239075">
<ele>434.179688</ele>
<time>2013-11-22T12:59:14Z</time>
<speed>3.160000</speed>
<extensions>
<speed>3.2</speed>
<temp>0.00</temp>
<bpm>0</bpm>
<rpm>0.00</rpm>
</extensions>
</trkpt>
<trkpt lat="30.623039246" lon="34.912128448">
<ele>436.226563</ele>
<time>2013-11-22T12:59:19Z</time>
<speed>3.680000</speed>
<extensions>
<speed>3.7</speed>
<temp>0.00</temp>
<bpm>0</bpm>
<rpm>0.00</rpm>
</extensions>
</trkpt>
<trkpt lat="30.622890472" lon="34.912029266">
<ele>438.500000</ele>
<time>2013-11-22T12:59:24Z</time>
<speed>3.860000</speed>
<extensions>
<speed>3.9</speed>
<temp>0.00</temp>
<bpm>0</bpm>
<rpm>0.00</rpm>
</extensions>
</trkpt>
<trkpt lat="30.622739792" lon="34.911930084">
<ele>440.742188</ele>
<time>2013-11-22T12:59:29Z</time>
<speed>3.760000</speed>
<extensions>
<speed>3.8</speed>
<temp>0.00</temp>
<bpm>0</bpm>
<rpm>0.00</rpm>
</extensions>
</trkpt>
<trkpt lat="30.622612000" lon="34.911792755">
<ele>443.789063</ele>
<time>2013-11-22T12:59:34Z</time>
<speed>3.750000</speed>
<extensions>
<speed>3.8</speed>
<temp>0.00</temp>
<bpm>0</bpm>
<rpm>0.00</rpm>
</extensions>
</trkpt>
<trkpt lat="30.622480392" lon="34.911663055">
<ele>444.453125</ele>
<time>2013-11-22T12:59:39Z</time>
<speed>3.850000</speed>
<extensions>
<speed>3.8</speed>
<temp>0.00</temp>
<bpm>0</bpm>
<rpm>0.00</rpm>
</extensions>
</trkpt>
<trkpt lat="30.622364044" lon="34.911540985">
<ele>444.421875</ele>
<time>2013-11-22T12:59:44Z</time>
<speed>2.650000</speed>
<extensions>
<speed>2.6</speed>
<temp>0.00</temp>
<bpm>0</bpm>
<rpm>0.00</rpm>
</extensions>
</trkpt>
<trkpt lat="30.622257233" lon="34.911457062">
<ele>446.015625</ele>
<time>2013-11-22T12:59:49Z</time>
<speed>3.170000</speed>
<extensions>
<speed>3.2</speed>
<temp>0.00</temp>
<bpm>0</bpm>
<rpm>0.00</rpm>
</extensions>
</trkpt>
<trkpt lat="30.622137070" lon="34.911357880">
<ele>446.906250</ele>
<time>2013-11-22T12:59:54Z</time>
<speed>3.580000</speed>
<extensions>
<speed>3.6</speed>
<temp>0.00</temp>
<bpm>0</bpm>
<rpm>0.00</rpm>
</extensions>
</trkpt>
<trkpt lat="30.621997833" lon="34.911247253">
<ele>449.476563</ele>
<time>2013-11-22T12:59:59Z</time>
<speed>3.630000</speed>
<extensions>
<speed>3.6</speed>
<temp>0.00</temp>
<bpm>0</bpm>
<rpm>0.00</rpm>
</extensions>
</trkpt>
<trkpt lat="30.621856689" lon="34.911144257">
<ele>450.820313</ele>
<time>2013-11-22T13:00:04Z</time>
<speed>3.850000</speed>
<extensions>
<speed>3.8</speed>
<temp>0.00</temp>
<bpm>0</bpm>
<rpm>0.00</rpm>
</extensions>
</trkpt>
<trkpt lat="30.621711731" lon="34.911037445">
<ele>452.210938</ele>
<time>2013-11-22T13:00:09Z</time>
<speed>3.800000</speed>
<extensions>
<speed>3.8</speed>
<temp>0.00</temp>
<bpm>0</bpm>
<rpm>0.00</rpm>
</extensions>
</trkpt>
<trkpt lat="30.621574402" lon="34.910919189">
<ele>452.476563</ele>
<time>2013-11-22T13:00:14Z</time>
<speed>3.880000</speed>
<extensions>
<speed>3.9</speed>
<temp>0.00</temp>
<bpm>0</bpm>
<rpm>0.00</rpm>
</extensions>
</trkpt>
<trkpt lat="30.621452332" lon="34.910778046">
<ele>452.929688</ele>
<time>2013-11-22T13:00:19Z</time>
<speed>3.830000</speed>
<extensions>
<speed>3.8</speed>
<temp>0.00</temp>
<bpm>0</bpm>
<rpm>0.00</rpm>
</extensions>
</trkpt>
<trkpt lat="30.621366501" lon="34.910610199">
<ele>453.812500</ele>
<time>2013-11-22T13:00:24Z</time>
<speed>3.350000</speed>
<extensions>
<speed>3.4</speed>
<temp>0.00</temp>
<bpm>0</bpm>
<rpm>0.00</rpm>
</extensions>
</trkpt>
<trkpt lat="30.621301651" lon="34.910476685">
<ele>454.609375</ele>
<time>2013-11-22T13:00:29Z</time>
<speed>2.370000</speed>
<extensions>
<speed>2.4</speed>
<temp>0.00</temp>
<bpm>0</bpm>
<rpm>0.00</rpm>
</extensions>
</trkpt>
<trkpt lat="30.621253967" lon="34.910404205">
<ele>454.914063</ele>
<time>2013-11-22T13:00:34Z</time>
<speed>1.190000</speed>
<extensions>
<speed>1.2</speed>
<temp>0.00</temp>
<bpm>0</bpm>
<rpm>0.00</rpm>
</extensions>
</trkpt>
<trkpt lat="30.621238708" lon="34.910369873">
<ele>454.851563</ele>
<time>2013-11-22T13:00:39Z</time>
<speed>0.150000</speed>
<extensions>
<speed>0.2</speed>
<temp>0.00</temp>
<bpm>0</bpm>
<rpm>0.00</rpm>
</extensions>
</trkpt>
<trkpt lat="30.621240616" lon="34.910369873">
<ele>455.078125</ele>
<time>2013-11-22T13:00:44Z</time>
<speed>0.010000</speed>
<extensions>
<speed>0.0</speed>
<temp>0.00</temp>
<bpm>0</bpm>
<rpm>0.00</rpm>
</extensions>
</trkpt>
<trkpt lat="30.621242523" lon="34.910369873">
<ele>455.226563</ele>
<time>2013-11-22T13:00:49Z</time>
<speed>0.030000</speed>
<extensions>
<speed>0.0</speed>
<temp>0.00</temp>
<bpm>0</bpm>
<rpm>0.00</rpm>
</extensions>
</trkpt>
<trkpt lat="30.621236801" lon="34.910369873">
<ele>455.414063</ele>
<time>2013-11-22T13:00:54Z</time>
<speed>0.020000</speed>
<extensions>
<speed>0.0</speed>
<temp>0.00</temp>
<bpm>0</bpm>
<rpm>0.00</rpm>
</extensions>
</trkpt>
<trkpt lat="30.621236801" lon="34.910369873">
<ele>455.546875</ele>
<time>2013-11-22T13:00:59Z</time>
<speed>0.020000</speed>
<extensions>
<speed>0.0</speed>
<temp>0.00</temp>
<bpm>0</bpm>
<rpm>0.00</rpm>
</extensions>
</trkpt>
<trkpt lat="30.621236801" lon="34.910369873">
<ele>455.664063</ele>
<time>2013-11-22T13:01:04Z</time>
<extensions>
<speed>0.0</speed>
<temp>0.00</temp>
<bpm>0</bpm>
<rpm>0.00</rpm>
</extensions>
</trkpt>
<trkpt lat="30.621236801" lon="34.910369873">
<ele>455.742188</ele>
<time>2013-11-22T13:01:09Z</time>
<extensions>
<speed>0.0</speed>
<temp>0.00</temp>
<bpm>0</bpm>
<rpm>0.00</rpm>
</extensions>
</trkpt>
<trkpt lat="30.621232986" lon="34.910362244">
<ele>455.984375</ele>
<time>2013-11-22T13:01:14Z</time>
<speed>1.100000</speed>
<extensions>
<speed>1.1</speed>
<temp>0.00</temp>
<bpm>0</bpm>
<rpm>0.00</rpm>
</extensions>
</trkpt>
<trkpt lat="30.621194839" lon="34.910297394">
<ele>455.835938</ele>
<time>2013-11-22T13:01:19Z</time>
<speed>1.700000</speed>
<extensions>
<speed>1.7</speed>
<temp>0.00</temp>
<bpm>0</bpm>
<rpm>0.00</rpm>
</extensions>
</trkpt>
<trkpt lat="30.621200562" lon="34.910190582">
<ele>456.945313</ele>
<time>2013-11-22T13:01:24Z</time>
<speed>2.860000</speed>
<extensions>
<speed>2.9</speed>
<temp>0.00</temp>
<bpm>0</bpm>
<rpm>0.00</rpm>
</extensions>
</trkpt>
<trkpt lat="30.621301651" lon="34.910079956">
<ele>459.023438</ele>
<time>2013-11-22T13:01:29Z</time>
<speed>3.090000</speed>
<extensions>
<speed>3.1</speed>
<temp>0.00</temp>
<bpm>0</bpm>
<rpm>0.00</rpm>
</extensions>
</trkpt>
<trkpt lat="30.621355057" lon="34.909988403">
<ele>459.250000</ele>
<time>2013-11-22T13:01:34Z</time>
<speed>2.180000</speed>
<extensions>
<speed>2.2</speed>
<temp>0.00</temp>
<bpm>0</bpm>
<rpm>0.00</rpm>
</extensions>
</trkpt>
<trkpt lat="30.621414185" lon="34.909881592">
<ele>463.500000</ele>
<time>2013-11-22T13:01:39Z</time>
<speed>2.250000</speed>
<extensions>
<speed>2.3</speed>
<temp>0.00</temp>
<bpm>0</bpm>
<rpm>0.00</rpm>
</extensions>
</trkpt>
<trkpt lat="30.621414185" lon="34.909782410">
<ele>461.617188</ele>
<time>2013-11-22T13:01:44Z</time>
<speed>2.050000</speed>
<extensions>
<speed>2.1</speed>
<temp>0.00</temp>
<bpm>0</bpm>
<rpm>0.00</rpm>
</extensions>
</trkpt>
<trkpt lat="30.621328354" lon="34.909690857">
<ele>462.062500</ele>
<time>2013-11-22T13:01:49Z</time>
<speed>2.920000</speed>
<extensions>
<speed>2.9</speed>
<temp>0.00</temp>
<bpm>0</bpm>
<rpm>0.00</rpm>
</extensions>
</trkpt>
<trkpt lat="30.621246338" lon="34.909599304">
<ele>460.882813</ele>
<time>2013-11-22T13:01:54Z</time>
<speed>2.260000</speed>
<extensions>
<speed>2.3</speed>
<temp>0.00</temp>
<bpm>0</bpm>
<rpm>0.00</rpm>
</extensions>
</trkpt>
<trkpt lat="30.621192932" lon="34.909526825">
<ele>461.320313</ele>
<time>2013-11-22T13:01:59Z</time>
<speed>1.690000</speed>
<extensions>
<speed>1.7</speed>
<temp>0.00</temp>
<bpm>0</bpm>
<rpm>0.00</rpm>
</extensions>
</trkpt>
<trkpt lat="30.621202469" lon="34.909420013">
<ele>462.085938</ele>
<time>2013-11-22T13:02:04Z</time>
<speed>2.110000</speed>
<extensions>
<speed>2.1</speed>
<temp>0.00</temp>
<bpm>0</bpm>
<rpm>0.00</rpm>
</extensions>
</trkpt>
<trkpt lat="30.621261597" lon="34.909332275">
<ele>461.492188</ele>
<time>2013-11-22T13:02:09Z</time>
<speed>2.510000</speed>
<extensions>
<speed>2.5</speed>
<temp>0.00</temp>
<bpm>0</bpm>
<rpm>0.00</rpm>
</extensions>
</trkpt>
<trkpt lat="30.621318817" lon="34.909263611">
<ele>461.093750</ele>
<time>2013-11-22T13:02:14Z</time>
<speed>1.080000</speed>
<extensions>
<speed>1.1</speed>
<temp>0.00</temp>
<bpm>0</bpm>
<rpm>0.00</rpm>
</extensions>
</trkpt>
<trkpt lat="30.621315002" lon="34.909248352">
<ele>462.914063</ele>
<time>2013-11-22T13:02:19Z</time>
<speed>0.030000</speed>
<extensions>
<speed>0.0</speed>
<temp>0.00</temp>
<bpm>0</bpm>
<rpm>0.00</rpm>
</extensions>
</trkpt>
<trkpt lat="30.621315002" lon="34.909248352">
<ele>462.929688</ele>
<time>2013-11-22T13:02:24Z</time>
<speed>0.010000</speed>
<extensions>
<speed>0.0</speed>
<temp>0.00</temp>
<bpm>0</bpm>
<rpm>0.00</rpm>
</extensions>
</trkpt>
<trkpt lat="30.621315002" lon="34.909248352">
<ele>462.867188</ele>
<time>2013-11-22T13:02:29Z</time>
<speed>0.010000</speed>
<extensions>
<speed>0.0</speed>
<temp>0.00</temp>
<bpm>0</bpm>
<rpm>0.00</rpm>
</extensions>
</trkpt>
<trkpt lat="30.621315002" lon="34.909248352">
<ele>462.859375</ele>
<time>2013-11-22T13:02:34Z</time>
<speed>0.020000</speed>
<extensions>
<speed>0.0</speed>
<temp>0.00</temp>
<bpm>0</bpm>
<rpm>0.00</rpm>
</extensions>
</trkpt>
<trkpt lat="30.621315002" lon="34.909248352">
<ele>462.890625</ele>
<time>2013-11-22T13:02:39Z</time>
<speed>0.010000</speed>
<extensions>
<speed>0.0</speed>
<temp>0.00</temp>
<bpm>0</bpm>
<rpm>0.00</rpm>
</extensions>
</trkpt>
<trkpt lat="30.621315002" lon="34.909248352">
<ele>462.914063</ele>
<time>2013-11-22T13:02:44Z</time>
<extensions>
<speed>0.0</speed>
<temp>0.00</temp>
<bpm>0</bpm>
<rpm>0.00</rpm>
</extensions>
</trkpt>
<trkpt lat="30.621315002" lon="34.909248352">
<ele>462.929688</ele>
<time>2013-11-22T13:02:49Z</time>
<extensions>
<speed>0.0</speed>
<temp>0.00</temp>
<bpm>0</bpm>
<rpm>0.00</rpm>
</extensions>
</trkpt>
<trkpt lat="30.621315002" lon="34.909248352">
<ele>462.945313</ele>
<time>2013-11-22T13:02:54Z</time>
<extensions>
<speed>0.0</speed>
<temp>0.00</temp>
<bpm>0</bpm>
<rpm>0.00</rpm>
</extensions>
</trkpt>
<trkpt lat="30.621315002" lon="34.909248352">
<ele>462.968750</ele>
<time>2013-11-22T13:02:59Z</time>
<speed>0.010000</speed>
<extensions>
<speed>0.0</speed>
<temp>0.00</temp>
<bpm>0</bpm>
<rpm>0.00</rpm>
</extensions>
</trkpt>
<trkpt lat="30.621315002" lon="34.909248352">
<ele>462.984375</ele>
<time>2013-11-22T13:03:04Z</time>
<extensions>
<speed>0.0</speed>
<temp>0.00</temp>
<bpm>0</bpm>
<rpm>0.00</rpm>
</extensions>
</trkpt>
<trkpt lat="30.621315002" lon="34.909248352">
<ele>463.007813</ele>
<time>2013-11-22T13:03:09Z</time>
<speed>0.010000</speed>
<extensions>
<speed>0.0</speed>
<temp>0.00</temp>
<bpm>0</bpm>
<rpm>0.00</rpm>
</extensions>
</trkpt>
<trkpt lat="30.621315002" lon="34.909248352">
<ele>463.039063</ele>
<time>2013-11-22T13:03:14Z</time>
<extensions>
<speed>0.0</speed>
<temp>0.00</temp>
<bpm>0</bpm>
<rpm>0.00</rpm>
</extensions>
</trkpt>
<trkpt lat="30.621315002" lon="34.909248352">
<ele>463.062500</ele>
<time>2013-11-22T13:03:19Z</time>
<extensions>
<speed>0.0</speed>
<temp>0.00</temp>
<bpm>0</bpm>
<rpm>0.00</rpm>
</extensions>
</trkpt>
<trkpt lat="30.621315002" lon="34.909248352">
<ele>463.078125</ele>
<time>2013-11-22T13:03:24Z</time>
<extensions>
<speed>0.0</speed>
<temp>0.00</temp>
<bpm>0</bpm>
<rpm>0.00</rpm>
</extensions>
</trkpt>
<trkpt lat="30.621315002" lon="34.909248352">
<ele>463.093750</ele>
<time>2013-11-22T13:03:29Z</time>
<extensions>
<speed>0.0</speed>
<temp>0.00</temp>
<bpm>0</bpm>
<rpm>0.00</rpm>
</extensions>
</trkpt>
<trkpt lat="30.621315002" lon="34.909248352">
<ele>463.234375</ele>
<time>2013-11-22T13:03:34Z</time>
<speed>0.070000</speed>
<extensions>
<speed>0.1</speed>
<temp>0.00</temp>
<bpm>0</bpm>
<rpm>0.00</rpm>
</extensions>
</trkpt>
<trkpt lat="30.621315002" lon="34.909248352">
<ele>463.296875</ele>
<time>2013-11-22T13:03:39Z</time>
<speed>0.010000</speed>
<extensions>
<speed>0.0</speed>
<temp>0.00</temp>
<bpm>0</bpm>
<rpm>0.00</rpm>
</extensions>
</trkpt>
<trkpt lat="30.621315002" lon="34.909248352">
<ele>463.328125</ele>
<time>2013-11-22T13:03:44Z</time>
<extensions>
<speed>0.0</speed>
<temp>0.00</temp>
<bpm>0</bpm>
<rpm>0.00</rpm>
</extensions>
</trkpt>
<trkpt lat="30.621313095" lon="34.909248352">
<ele>463.359375</ele>
<time>2013-11-22T13:03:49Z</time>
<extensions>
<speed>0.0</speed>
<temp>0.00</temp>
<bpm>0</bpm>
<rpm>0.00</rpm>
</extensions>
</trkpt>
<trkpt lat="30.621313095" lon="34.909248352">
<ele>463.406250</ele>
<time>2013-11-22T13:03:54Z</time>
<speed>0.010000</speed>
<extensions>
<speed>0.0</speed>
<temp>0.00</temp>
<bpm>0</bpm>
<rpm>0.00</rpm>
</extensions>
</trkpt>
<trkpt lat="30.621313095" lon="34.909248352">
<ele>463.445313</ele>
<time>2013-11-22T13:03:59Z</time>
<speed>0.030000</speed>
<extensions>
<speed>0.0</speed>
<temp>0.00</temp>
<bpm>0</bpm>
<rpm>0.00</rpm>
</extensions>
</trkpt>
<trkpt lat="30.621313095" lon="34.909248352">
<ele>463.484375</ele>
<time>2013-11-22T13:04:04Z</time>
<speed>0.010000</speed>
<extensions>
<speed>0.0</speed>
<temp>0.00</temp>
<bpm>0</bpm>
<rpm>0.00</rpm>
</extensions>
</trkpt>
<trkpt lat="30.621313095" lon="34.909248352">
<ele>463.507813</ele>
<time>2013-11-22T13:04:09Z</time>
<extensions>
<speed>0.0</speed>
<temp>0.00</temp>
<bpm>0</bpm>
<rpm>0.00</rpm>
</extensions>
</trkpt>
<trkpt lat="30.621313095" lon="34.909248352">
<ele>463.523438</ele>
<time>2013-11-22T13:04:14Z</time>
<extensions>
<speed>0.0</speed>
<temp>0.00</temp>
<bpm>0</bpm>
<rpm>0.00</rpm>
</extensions>
</trkpt>
<trkpt lat="30.621313095" lon="34.909248352">
<ele>463.539063</ele>
<time>2013-11-22T13:04:19Z</time>
<extensions>
<speed>0.0</speed>
<temp>0.00</temp>
<bpm>0</bpm>
<rpm>0.00</rpm>
</extensions>
</trkpt>
<trkpt lat="30.621313095" lon="34.909248352">
<ele>463.546875</ele>
<time>2013-11-22T13:04:24Z</time>
<speed>0.010000</speed>
<extensions>
<speed>0.0</speed>
<temp>0.00</temp>
<bpm>0</bpm>
<rpm>0.00</rpm>
</extensions>
</trkpt>
<trkpt lat="30.621313095" lon="34.909248352">
<ele>463.562500</ele>
<time>2013-11-22T13:04:29Z</time>
<speed>0.040000</speed>
<extensions>
<speed>0.0</speed>
<temp>0.00</temp>
<bpm>0</bpm>
<rpm>0.00</rpm>
</extensions>
</trkpt>
<trkpt lat="30.621313095" lon="34.909248352">
<ele>463.570313</ele>
<time>2013-11-22T13:04:34Z</time>
<extensions>
<speed>0.0</speed>
<temp>0.00</temp>
<bpm>0</bpm>
<rpm>0.00</rpm>
</extensions>
</trkpt>
<trkpt lat="30.621313095" lon="34.909248352">
<ele>463.609375</ele>
<time>2013-11-22T13:04:39Z</time>
<speed>0.050000</speed>
<extensions>
<speed>0.1</speed>
<temp>0.00</temp>
<bpm>0</bpm>
<rpm>0.00</rpm>
</extensions>
</trkpt>
<trkpt lat="30.621313095" lon="34.909248352">
<ele>463.671875</ele>
<time>2013-11-22T13:04:44Z</time>
<speed>0.010000</speed>
<extensions>
<speed>0.0</speed>
<temp>0.00</temp>
<bpm>0</bpm>
<rpm>0.00</rpm>
</extensions>
</trkpt>
<trkpt lat="30.621313095" lon="34.909248352">
<ele>463.742188</ele>
<time>2013-11-22T13:04:49Z</time>
<extensions>
<speed>0.0</speed>
<temp>0.00</temp>
<bpm>0</bpm>
<rpm>0.00</rpm>
</extensions>
</trkpt>
<trkpt lat="30.621313095" lon="34.909244537">
<ele>464.335938</ele>
<time>2013-11-22T13:04:54Z</time>
<extensions>
<speed>0.0</speed>
<temp>0.00</temp>
<bpm>0</bpm>
<rpm>0.00</rpm>
</extensions>
</trkpt>
<trkpt lat="30.621307373" lon="34.909248352">
<ele>464.492188</ele>
<time>2013-11-22T13:04:59Z</time>
<speed>0.080000</speed>
<extensions>
<speed>0.1</speed>
<temp>0.00</temp>
<bpm>0</bpm>
<rpm>0.00</rpm>
</extensions>
</trkpt>
<trkpt lat="30.621299744" lon="34.909248352">
<ele>465.210938</ele>
<time>2013-11-22T13:05:04Z</time>
<speed>0.450000</speed>
<extensions>
<speed>0.5</speed>
<temp>0.00</temp>
<bpm>0</bpm>
<rpm>0.00</rpm>
</extensions>
</trkpt>
<trkpt lat="30.621292114" lon="34.909267426">
<ele>466.664063</ele>
<time>2013-11-22T13:05:09Z</time>
<speed>0.050000</speed>
<extensions>
<speed>0.1</speed>
<temp>0.00</temp>
<bpm>0</bpm>
<rpm>0.00</rpm>
</extensions>
</trkpt>
<trkpt lat="30.621294022" lon="34.909278870">
<ele>467.765625</ele>
<time>2013-11-22T13:05:14Z</time>
<extensions>
<speed>0.0</speed>
<temp>0.00</temp>
<bpm>0</bpm>
<rpm>0.00</rpm>
</extensions>
</trkpt>
<trkpt lat="30.621292114" lon="34.909286499">
<ele>468.304688</ele>
<time>2013-11-22T13:05:19Z</time>
<speed>0.010000</speed>
<extensions>
<speed>0.0</speed>
<temp>0.00</temp>
<bpm>0</bpm>
<rpm>0.00</rpm>
</extensions>
</trkpt>
<trkpt lat="30.621286392" lon="34.909294128">
<ele>469.109375</ele>
<time>2013-11-22T13:05:24Z</time>
<extensions>
<speed>0.0</speed>
<temp>0.00</temp>
<bpm>0</bpm>
<rpm>0.00</rpm>
</extensions>
</trkpt>
<trkpt lat="30.621284485" lon="34.909297943">
<ele>469.632813</ele>
<time>2013-11-22T13:05:29Z</time>
<extensions>
<speed>0.0</speed>
<temp>0.00</temp>
<bpm>0</bpm>
<rpm>0.00</rpm>
</extensions>
</trkpt>
<trkpt lat="30.621282578" lon="34.909301758">
<ele>470.117188</ele>
<time>2013-11-22T13:05:34Z</time>
<extensions>
<speed>0.0</speed>
<temp>0.00</temp>
<bpm>0</bpm>
<rpm>0.00</rpm>
</extensions>
</trkpt>
<trkpt lat="30.621282578" lon="34.909301758">
<ele>470.117188</ele>
<time>2013-11-22T13:05:39Z</time>
<extensions>
<speed>0.0</speed>
<temp>0.00</temp>
<bpm>0</bpm>
<rpm>0.00</rpm>
</extensions>
</trkpt>
<trkpt lat="30.621282578" lon="34.909301758">
<ele>470.125000</ele>
<time>2013-11-22T13:05:44Z</time>
<extensions>
<speed>0.0</speed>
<temp>0.00</temp>
<bpm>0</bpm>
<rpm>0.00</rpm>
</extensions>
</trkpt>
<trkpt lat="30.621282578" lon="34.909301758">
<ele>470.132813</ele>
<time>2013-11-22T13:05:49Z</time>
<extensions>
<speed>0.0</speed>
<temp>0.00</temp>
<bpm>0</bpm>
<rpm>0.00</rpm>
</extensions>
</trkpt>
<trkpt lat="30.621282578" lon="34.909301758">
<ele>470.140625</ele>
<time>2013-11-22T13:05:54Z</time>
<extensions>
<speed>0.0</speed>
<temp>0.00</temp>
<bpm>0</bpm>
<rpm>0.00</rpm>
</extensions>
</trkpt>
<trkpt lat="30.621282578" lon="34.909301758">
<ele>470.148438</ele>
<time>2013-11-22T13:05:59Z</time>
<extensions>
<speed>0.0</speed>
<temp>0.00</temp>
<bpm>0</bpm>
<rpm>0.00</rpm>
</extensions>
</trkpt>
<trkpt lat="30.621282578" lon="34.909301758">
<ele>470.156250</ele>
<time>2013-11-22T13:06:04Z</time>
<extensions>
<speed>0.0</speed>
<temp>0.00</temp>
<bpm>0</bpm>
<rpm>0.00</rpm>
</extensions>
</trkpt>
<trkpt lat="30.621282578" lon="34.909301758">
<ele>470.164063</ele>
<time>2013-11-22T13:06:09Z</time>
<extensions>
<speed>0.0</speed>
<temp>0.00</temp>
<bpm>0</bpm>
<rpm>0.00</rpm>
</extensions>
</trkpt>
<trkpt lat="30.621282578" lon="34.909301758">
<ele>470.164063</ele>
<time>2013-11-22T13:06:14Z</time>
<extensions>
<speed>0.0</speed>
<temp>0.00</temp>
<bpm>0</bpm>
<rpm>0.00</rpm>
</extensions>
</trkpt>
<trkpt lat="30.621280670" lon="34.909301758">
<ele>470.171875</ele>
<time>2013-11-22T13:06:19Z</time>
<extensions>
<speed>0.0</speed>
<temp>0.00</temp>
<bpm>0</bpm>
<rpm>0.00</rpm>
</extensions>
</trkpt>
<trkpt lat="30.621280670" lon="34.909301758">
<ele>470.179688</ele>
<time>2013-11-22T13:06:24Z</time>
<speed>0.010000</speed>
<extensions>
<speed>0.0</speed>
<temp>0.00</temp>
<bpm>0</bpm>
<rpm>0.00</rpm>
</extensions>
</trkpt>
<trkpt lat="30.621280670" lon="34.909301758">
<ele>470.179688</ele>
<time>2013-11-22T13:06:29Z</time>
<speed>0.010000</speed>
<extensions>
<speed>0.0</speed>
<temp>0.00</temp>
<bpm>0</bpm>
<rpm>0.00</rpm>
</extensions>
</trkpt>
<trkpt lat="30.621280670" lon="34.909301758">
<ele>470.187500</ele>
<time>2013-11-22T13:06:34Z</time>
<extensions>
<speed>0.0</speed>
<temp>0.00</temp>
<bpm>0</bpm>
<rpm>0.00</rpm>
</extensions>
</trkpt>
<trkpt lat="30.621280670" lon="34.909301758">
<ele>470.203125</ele>
<time>2013-11-22T13:06:39Z</time>
<extensions>
<speed>0.0</speed>
<temp>0.00</temp>
<bpm>0</bpm>
<rpm>0.00</rpm>
</extensions>
</trkpt>
<trkpt lat="30.621280670" lon="34.909301758">
<ele>470.234375</ele>
<time>2013-11-22T13:06:44Z</time>
<speed>0.030000</speed>
<extensions>
<speed>0.0</speed>
<temp>0.00</temp>
<bpm>0</bpm>
<rpm>0.00</rpm>
</extensions>
</trkpt>
<trkpt lat="30.621280670" lon="34.909301758">
<ele>470.242188</ele>
<time>2013-11-22T13:06:49Z</time>
<speed>0.010000</speed>
<extensions>
<speed>0.0</speed>
<temp>0.00</temp>
<bpm>0</bpm>
<rpm>0.00</rpm>
</extensions>
</trkpt>
<trkpt lat="30.621280670" lon="34.909301758">
<ele>470.242188</ele>
<time>2013-11-22T13:06:54Z</time>
<speed>0.380000</speed>
<extensions>
<speed>0.4</speed>
<temp>0.00</temp>
<bpm>0</bpm>
<rpm>0.00</rpm>
</extensions>
</trkpt>
<trkpt lat="30.621294022" lon="34.909282684">
<ele>469.234375</ele>
<time>2013-11-22T13:06:59Z</time>
<speed>0.060000</speed>
<extensions>
<speed>0.1</speed>
<temp>0.00</temp>
<bpm>0</bpm>
<rpm>0.00</rpm>
</extensions>
</trkpt>
<trkpt lat="30.621294022" lon="34.909282684">
<ele>469.203125</ele>
<time>2013-11-22T13:07:04Z</time>
<extensions>
<speed>0.0</speed>
<temp>0.00</temp>
<bpm>0</bpm>
<rpm>0.00</rpm>
</extensions>
</trkpt>
<trkpt lat="30.621294022" lon="34.909282684">
<ele>469.179688</ele>
<time>2013-11-22T13:07:09Z</time>
<speed>0.030000</speed>
<extensions>
<speed>0.0</speed>
<temp>0.00</temp>
<bpm>0</bpm>
<rpm>0.00</rpm>
</extensions>
</trkpt>
<trkpt lat="30.621292114" lon="34.909286499">
<ele>469.203125</ele>
<time>2013-11-22T13:07:14Z</time>
<speed>0.240000</speed>
<extensions>
<speed>0.2</speed>
<temp>0.00</temp>
<bpm>0</bpm>
<rpm>0.00</rpm>
</extensions>
</trkpt>
<trkpt lat="30.621297836" lon="34.909282684">
<ele>469.570313</ele>
<time>2013-11-22T13:07:19Z</time>
<speed>0.070000</speed>
<extensions>
<speed>0.1</speed>
<temp>0.00</temp>
<bpm>0</bpm>
<rpm>0.00</rpm>
</extensions>
</trkpt>
<trkpt lat="30.621305466" lon="34.909267426">
<ele>468.445313</ele>
<time>2013-11-22T13:07:24Z</time>
<speed>0.030000</speed>
<extensions>
<speed>0.0</speed>
<temp>0.00</temp>
<bpm>0</bpm>
<rpm>0.00</rpm>
</extensions>
</trkpt>
<trkpt lat="30.621315002" lon="34.909255981">
<ele>468.554688</ele>
<time>2013-11-22T13:07:29Z</time>
<extensions>
<speed>0.0</speed>
<temp>0.00</temp>
<bpm>0</bpm>
<rpm>0.00</rpm>
</extensions>
</trkpt>
<trkpt lat="30.621318817" lon="34.909240723">
<ele>468.109375</ele>
<time>2013-11-22T13:07:34Z</time>
<extensions>
<speed>0.0</speed>
<temp>0.00</temp>
<bpm>0</bpm>
<rpm>0.00</rpm>
</extensions>
</trkpt>
<trkpt lat="30.621320724" lon="34.909229279">
<ele>467.914063</ele>
<time>2013-11-22T13:07:39Z</time>
<extensions>
<speed>0.0</speed>
<temp>0.00</temp>
<bpm>0</bpm>
<rpm>0.00</rpm>
</extensions>
</trkpt>
<trkpt lat="30.621324539" lon="34.909221649">
<ele>467.476563</ele>
<time>2013-11-22T13:07:44Z</time>
<extensions>
<speed>0.0</speed>
<temp>0.00</temp>
<bpm>0</bpm>
<rpm>0.00</rpm>
</extensions>
</trkpt>
<trkpt lat="30.621324539" lon="34.909217834">
<ele>466.757813</ele>
<time>2013-11-22T13:07:49Z</time>
<speed>0.010000</speed>
<extensions>
<speed>0.0</speed>
<temp>0.00</temp>
<bpm>0</bpm>
<rpm>0.00</rpm>
</extensions>
</trkpt>
<trkpt lat="30.621326447" lon="34.909217834">
<ele>466.218750</ele>
<time>2013-11-22T13:07:54Z</time>
<extensions>
<speed>0.0</speed>
<temp>0.00</temp>
<bpm>0</bpm>
<rpm>0.00</rpm>
</extensions>
</trkpt>
<trkpt lat="30.621324539" lon="34.909217834">
<ele>465.867188</ele>
<time>2013-11-22T13:07:59Z</time>
<extensions>
<speed>0.0</speed>
<temp>0.00</temp>
<bpm>0</bpm>
<rpm>0.00</rpm>
</extensions>
</trkpt>
<trkpt lat="30.621326447" lon="34.909221649">
<ele>465.617188</ele>
<time>2013-11-22T13:08:04Z</time>
<extensions>
<speed>0.0</speed>
<temp>0.00</temp>
<bpm>0</bpm>
<rpm>0.00</rpm>
</extensions>
</trkpt>
<trkpt lat="30.621326447" lon="34.909221649">
<ele>465.437500</ele>
<time>2013-11-22T13:08:09Z</time>
<speed>0.010000</speed>
<extensions>
<speed>0.0</speed>
<temp>0.00</temp>
<bpm>0</bpm>
<rpm>0.00</rpm>
</extensions>
</trkpt>
<trkpt lat="30.621324539" lon="34.909221649">
<ele>465.273438</ele>
<time>2013-11-22T13:08:14Z</time>
<extensions>
<speed>0.0</speed>
<temp>0.00</temp>
<bpm>0</bpm>
<rpm>0.00</rpm>
</extensions>
</trkpt>
<trkpt lat="30.621324539" lon="34.909217834">
<ele>465.125000</ele>
<time>2013-11-22T13:08:19Z</time>
<extensions>
<speed>0.0</speed>
<temp>0.00</temp>
<bpm>0</bpm>
<rpm>0.00</rpm>
</extensions>
</trkpt>
<trkpt lat="30.621326447" lon="34.909214020">
<ele>464.960938</ele>
<time>2013-11-22T13:08:24Z</time>
<speed>0.010000</speed>
<extensions>
<speed>0.0</speed>
<temp>0.00</temp>
<bpm>0</bpm>
<rpm>0.00</rpm>
</extensions>
</trkpt>
<trkpt lat="30.621332169" lon="34.909214020">
<ele>465.132813</ele>
<time>2013-11-22T13:08:29Z</time>
<speed>0.220000</speed>
<extensions>
<speed>0.2</speed>
<temp>0.00</temp>
<bpm>0</bpm>
<rpm>0.00</rpm>
</extensions>
</trkpt>
<trkpt lat="30.621337891" lon="34.909229279">
<ele>466.312500</ele>
<time>2013-11-22T13:08:34Z</time>
<speed>0.020000</speed>
<extensions>
<speed>0.0</speed>
<temp>0.00</temp>
<bpm>0</bpm>
<rpm>0.00</rpm>
</extensions>
</trkpt>
<trkpt lat="30.621335983" lon="34.909225464">
<ele>466.726563</ele>
<time>2013-11-22T13:08:39Z</time>
<speed>0.200000</speed>
<extensions>
<speed>0.2</speed>
<temp>0.00</temp>
<bpm>0</bpm>
<rpm>0.00</rpm>
</extensions>
</trkpt>
<trkpt lat="30.621334076" lon="34.909229279">
<ele>467.945313</ele>
<time>2013-11-22T13:08:44Z</time>
<extensions>
<speed>0.0</speed>
<temp>0.00</temp>
<bpm>0</bpm>
<rpm>0.00</rpm>
</extensions>
</trkpt>
<trkpt lat="30.621335983" lon="34.909225464">
<ele>468.664063</ele>
<time>2013-11-22T13:08:49Z</time>
<speed>0.080000</speed>
<extensions>
<speed>0.1</speed>
<temp>0.00</temp>
<bpm>0</bpm>
<rpm>0.00</rpm>
</extensions>
</trkpt>
<trkpt lat="30.621332169" lon="34.909229279">
<ele>469.335938</ele>
<time>2013-11-22T13:08:54Z</time>
<speed>0.010000</speed>
<extensions>
<speed>0.0</speed>
<temp>0.00</temp>
<bpm>0</bpm>
<rpm>0.00</rpm>
</extensions>
</trkpt>
<trkpt lat="30.621335983" lon="34.909236908">
<ele>469.898438</ele>
<time>2013-11-22T13:08:59Z</time>
<speed>0.070000</speed>
<extensions>
<speed>0.1</speed>
<temp>0.00</temp>
<bpm>0</bpm>
<rpm>0.00</rpm>
</extensions>
</trkpt>
<trkpt lat="30.621341705" lon="34.909240723">
<ele>470.218750</ele>
<time>2013-11-22T13:09:04Z</time>
<speed>0.190000</speed>
<extensions>
<speed>0.2</speed>
<temp>0.00</temp>
<bpm>0</bpm>
<rpm>0.00</rpm>
</extensions>
</trkpt>
<trkpt lat="30.621337891" lon="34.909248352">
<ele>470.406250</ele>
<time>2013-11-22T13:09:09Z</time>
<speed>0.080000</speed>
<extensions>
<speed>0.1</speed>
<temp>0.00</temp>
<bpm>0</bpm>
<rpm>0.00</rpm>
</extensions>
</trkpt>
<trkpt lat="30.621339798" lon="34.909248352">
<ele>470.601563</ele>
<time>2013-11-22T13:09:14Z</time>
<speed>0.090000</speed>
<extensions>
<speed>0.1</speed>
<temp>0.00</temp>
<bpm>0</bpm>
<rpm>0.00</rpm>
</extensions>
</trkpt>
<trkpt lat="30.621341705" lon="34.909248352">
<ele>470.601563</ele>
<time>2013-11-22T13:09:19Z</time>
<speed>0.120000</speed>
<extensions>
<speed>0.1</speed>
<temp>0.00</temp>
<bpm>0</bpm>
<rpm>0.00</rpm>
</extensions>
</trkpt>
<trkpt lat="30.621339798" lon="34.909252167">
<ele>470.687500</ele>
<time>2013-11-22T13:09:24Z</time>
<speed>0.100000</speed>
<extensions>
<speed>0.1</speed>
<temp>0.00</temp>
<bpm>0</bpm>
<rpm>0.00</rpm>
</extensions>
</trkpt>
<trkpt lat="30.621337891" lon="34.909255981">
<ele>470.765625</ele>
<time>2013-11-22T13:09:29Z</time>
<speed>0.040000</speed>
<extensions>
<speed>0.0</speed>
<temp>0.00</temp>
<bpm>0</bpm>
<rpm>0.00</rpm>
</extensions>
</trkpt>
<trkpt lat="30.621334076" lon="34.909259796">
<ele>470.875000</ele>
<time>2013-11-22T13:09:34Z</time>
<speed>0.190000</speed>
<extensions>
<speed>0.2</speed>
<temp>0.00</temp>
<bpm>0</bpm>
<rpm>0.00</rpm>
</extensions>
</trkpt>
<trkpt lat="30.621326447" lon="34.909267426">
<ele>470.945313</ele>
<time>2013-11-22T13:09:39Z</time>
<speed>0.280000</speed>
<extensions>
<speed>0.3</speed>
<temp>0.00</temp>
<bpm>0</bpm>
<rpm>0.00</rpm>
</extensions>
</trkpt>
<trkpt lat="30.621316910" lon="34.909278870">
<ele>471.203125</ele>
<time>2013-11-22T13:09:44Z</time>
<speed>0.320000</speed>
<extensions>
<speed>0.3</speed>
<temp>0.00</temp>
<bpm>0</bpm>
<rpm>0.00</rpm>
</extensions>
</trkpt>
<trkpt lat="30.621305466" lon="34.909294128">
<ele>471.656250</ele>
<time>2013-11-22T13:09:49Z</time>
<speed>0.310000</speed>
<extensions>
<speed>0.3</speed>
<temp>0.00</temp>
<bpm>0</bpm>
<rpm>0.00</rpm>
</extensions>
</trkpt>
<trkpt lat="30.621311188" lon="34.909297943">
<ele>472.484375</ele>
<time>2013-11-22T13:09:54Z</time>
<speed>0.180000</speed>
<extensions>
<speed>0.2</speed>
<temp>0.00</temp>
<bpm>0</bpm>
<rpm>0.00</rpm>
</extensions>
</trkpt>
<trkpt lat="30.621311188" lon="34.909278870">
<ele>472.976563</ele>
<time>2013-11-22T13:09:59Z</time>
<speed>0.100000</speed>
<extensions>
<speed>0.1</speed>
<temp>0.00</temp>
<bpm>0</bpm>
<rpm>0.00</rpm>
</extensions>
</trkpt>
<trkpt lat="30.621313095" lon="34.909278870">
<ele>473.070313</ele>
<time>2013-11-22T13:10:04Z</time>
<speed>0.060000</speed>
<extensions>
<speed>0.1</speed>
<temp>0.00</temp>
<bpm>0</bpm>
<rpm>0.00</rpm>
</extensions>
</trkpt>
<trkpt lat="30.621313095" lon="34.909278870">
<ele>472.796875</ele>
<time>2013-11-22T13:10:09Z</time>
<speed>0.390000</speed>
<extensions>
<speed>0.4</speed>
<temp>0.00</temp>
<bpm>0</bpm>
<rpm>0.00</rpm>
</extensions>
</trkpt>
<trkpt lat="30.621263504" lon="34.909297943">
<ele>472.195313</ele>
<time>2013-11-22T13:10:14Z</time>
<speed>1.300000</speed>
<extensions>
<speed>1.3</speed>
<temp>0.00</temp>
<bpm>0</bpm>
<rpm>0.00</rpm>
</extensions>
</trkpt>
<trkpt lat="30.621221542" lon="34.909351349">
<ele>470.968750</ele>
<time>2013-11-22T13:10:19Z</time>
<speed>1.790000</speed>
<extensions>
<speed>1.8</speed>
<temp>0.00</temp>
<bpm>0</bpm>
<rpm>0.00</rpm>
</extensions>
</trkpt>
<trkpt lat="30.621185303" lon="34.909416199">
<ele>469.640625</ele>
<time>2013-11-22T13:10:24Z</time>
<speed>1.960000</speed>
<extensions>
<speed>2.0</speed>
<temp>0.00</temp>
<bpm>0</bpm>
<rpm>0.00</rpm>
</extensions>
</trkpt>
<trkpt lat="30.621183395" lon="34.909515381">
<ele>469.968750</ele>
<time>2013-11-22T13:10:29Z</time>
<speed>1.920000</speed>
<extensions>
<speed>1.9</speed>
<temp>0.00</temp>
<bpm>0</bpm>
<rpm>0.00</rpm>
</extensions>
</trkpt>
<trkpt lat="30.621231079" lon="34.909610748">
<ele>470.039063</ele>
<time>2013-11-22T13:10:34Z</time>
<speed>2.360000</speed>
<extensions>
<speed>2.4</speed>
<temp>0.00</temp>
<bpm>0</bpm>
<rpm>0.00</rpm>
</extensions>
</trkpt>
<trkpt lat="30.621288300" lon="34.909683228">
<ele>469.257813</ele>
<time>2013-11-22T13:10:39Z</time>
<speed>1.820000</speed>
<extensions>
<speed>1.8</speed>
<temp>0.00</temp>
<bpm>0</bpm>
<rpm>0.00</rpm>
</extensions>
</trkpt>
<trkpt lat="30.621364594" lon="34.909748077">
<ele>468.406250</ele>
<time>2013-11-22T13:10:44Z</time>
<speed>1.930000</speed>
<extensions>
<speed>1.9</speed>
<temp>0.00</temp>
<bpm>0</bpm>
<rpm>0.00</rpm>
</extensions>
</trkpt>
<trkpt lat="30.621419907" lon="34.909816742">
<ele>466.437500</ele>
<time>2013-11-22T13:10:49Z</time>
<speed>2.110000</speed>
<extensions>
<speed>2.1</speed>
<temp>0.00</temp>
<bpm>0</bpm>
<rpm>0.00</rpm>
</extensions>
</trkpt>
<trkpt lat="30.621360779" lon="34.909988403">
<ele>464.031250</ele>
<time>2013-11-22T13:10:54Z</time>
<speed>4.970000</speed>
<extensions>
<speed>5.0</speed>
<temp>0.00</temp>
<bpm>0</bpm>
<rpm>0.00</rpm>
</extensions>
</trkpt>
<trkpt lat="30.621208191" lon="34.910190582">
<ele>461.554688</ele>
<time>2013-11-22T13:10:59Z</time>
<speed>4.570000</speed>
<extensions>
<speed>4.6</speed>
<temp>0.00</temp>
<bpm>0</bpm>
<rpm>0.00</rpm>
</extensions>
</trkpt>
<trkpt lat="30.621051788" lon="34.910202026">
<ele>461.406250</ele>
<time>2013-11-22T13:11:04Z</time>
<speed>4.020000</speed>
<extensions>
<speed>4.0</speed>
<temp>0.00</temp>
<bpm>0</bpm>
<rpm>0.00</rpm>
</extensions>
</trkpt>
<trkpt lat="30.620910645" lon="34.910057068">
<ele>460.703125</ele>
<time>2013-11-22T13:11:09Z</time>
<speed>4.280000</speed>
<extensions>
<speed>4.3</speed>
<temp>0.00</temp>
<bpm>0</bpm>
<rpm>0.00</rpm>
</extensions>
</trkpt>
<trkpt lat="30.620780945" lon="34.909870148">
<ele>461.835938</ele>
<time>2013-11-22T13:11:14Z</time>
<speed>4.530000</speed>
<extensions>
<speed>4.5</speed>
<temp>0.00</temp>
<bpm>0</bpm>
<rpm>0.00</rpm>
</extensions>
</trkpt>
<trkpt lat="30.620683670" lon="34.909675598">
<ele>461.515625</ele>
<time>2013-11-22T13:11:19Z</time>
<speed>4.080000</speed>
<extensions>
<speed>4.1</speed>
<temp>0.00</temp>
<bpm>0</bpm>
<rpm>0.00</rpm>
</extensions>
</trkpt>
<trkpt lat="30.620540619" lon="34.909503937">
<ele>460.273438</ele>
<time>2013-11-22T13:11:24Z</time>
<speed>4.650000</speed>
<extensions>
<speed>4.6</speed>
<temp>0.00</temp>
<bpm>0</bpm>
<rpm>0.00</rpm>
</extensions>
</trkpt>
<trkpt lat="30.620414734" lon="34.909351349">
<ele>458.851563</ele>
<time>2013-11-22T13:11:29Z</time>
<speed>3.660000</speed>
<extensions>
<speed>3.7</speed>
<temp>0.00</temp>
<bpm>0</bpm>
<rpm>0.00</rpm>
</extensions>
</trkpt>
<trkpt lat="30.620311737" lon="34.909198761">
<ele>459.296875</ele>
<time>2013-11-22T13:11:34Z</time>
<speed>3.140000</speed>
<extensions>
<speed>3.1</speed>
<temp>0.00</temp>
<bpm>0</bpm>
<rpm>0.00</rpm>
</extensions>
</trkpt>
<trkpt lat="30.620218277" lon="34.909065247">
<ele>459.875000</ele>
<time>2013-11-22T13:11:39Z</time>
<speed>3.180000</speed>
<extensions>
<speed>3.2</speed>
<temp>0.00</temp>
<bpm>0</bpm>
<rpm>0.00</rpm>
</extensions>
</trkpt>
<trkpt lat="30.620159149" lon="34.908962250">
<ele>460.789063</ele>
<time>2013-11-22T13:11:44Z</time>
<speed>1.970000</speed>
<extensions>
<speed>2.0</speed>
<temp>0.00</temp>
<bpm>0</bpm>
<rpm>0.00</rpm>
</extensions>
</trkpt>
<trkpt lat="30.620100021" lon="34.908912659">
<ele>459.250000</ele>
<time>2013-11-22T13:11:49Z</time>
<speed>2.100000</speed>
<extensions>
<speed>2.1</speed>
<temp>0.00</temp>
<bpm>0</bpm>
<rpm>0.00</rpm>
</extensions>
</trkpt>
<trkpt lat="30.620018005" lon="34.908790588">
<ele>461.257813</ele>
<time>2013-11-22T13:11:54Z</time>
<speed>3.260000</speed>
<extensions>
<speed>3.3</speed>
<temp>0.00</temp>
<bpm>0</bpm>
<rpm>0.00</rpm>
</extensions>
</trkpt>
<trkpt lat="30.619926453" lon="34.908649445">
<ele>463.382813</ele>
<time>2013-11-22T13:11:59Z</time>
<speed>3.830000</speed>
<extensions>
<speed>3.8</speed>
<temp>0.00</temp>
<bpm>0</bpm>
<rpm>0.00</rpm>
</extensions>
</trkpt>
<trkpt lat="30.619840622" lon="34.908462524">
<ele>464.296875</ele>
<time>2013-11-22T13:12:04Z</time>
<speed>4.180000</speed>
<extensions>
<speed>4.2</speed>
<temp>0.00</temp>
<bpm>0</bpm>
<rpm>0.00</rpm>
</extensions>
</trkpt>
<trkpt lat="30.619762421" lon="34.908241272">
<ele>464.398438</ele>
<time>2013-11-22T13:12:09Z</time>
<speed>4.640000</speed>
<extensions>
<speed>4.6</speed>
<temp>0.00</temp>
<bpm>0</bpm>
<rpm>0.00</rpm>
</extensions>
</trkpt>
<trkpt lat="30.619693756" lon="34.908008575">
<ele>465.210938</ele>
<time>2013-11-22T13:12:14Z</time>
<speed>5.110000</speed>
<extensions>
<speed>5.1</speed>
<temp>0.00</temp>
<bpm>0</bpm>
<rpm>0.00</rpm>
</extensions>
</trkpt>
<trkpt lat="30.619613647" lon="34.907737732">
<ele>466.703125</ele>
<time>2013-11-22T13:12:19Z</time>
<speed>5.910000</speed>
<extensions>
<speed>5.9</speed>
<temp>0.00</temp>
<bpm>0</bpm>
<rpm>0.00</rpm>
</extensions>
</trkpt>
<trkpt lat="30.619579315" lon="34.907432556">
<ele>468.398438</ele>
<time>2013-11-22T13:12:24Z</time>
<speed>5.730000</speed>
<extensions>
<speed>5.7</speed>
<temp>0.00</temp>
<bpm>0</bpm>
<rpm>0.00</rpm>
</extensions>
</trkpt>
<trkpt lat="30.619556427" lon="34.907150269">
<ele>471.078125</ele>
<time>2013-11-22T13:12:29Z</time>
<speed>5.420000</speed>
<extensions>
<speed>5.4</speed>
<temp>0.00</temp>
<bpm>0</bpm>
<rpm>0.00</rpm>
</extensions>
</trkpt>
<trkpt lat="30.619478226" lon="34.906879425">
<ele>473.734375</ele>
<time>2013-11-22T13:12:34Z</time>
<speed>5.000000</speed>
<extensions>
<speed>5.0</speed>
<temp>0.00</temp>
<bpm>0</bpm>
<rpm>0.00</rpm>
</extensions>
</trkpt>
<trkpt lat="30.619392395" lon="34.906684875">
<ele>475.648438</ele>
<time>2013-11-22T13:12:39Z</time>
<speed>3.510000</speed>
<extensions>
<speed>3.5</speed>
<temp>0.00</temp>
<bpm>0</bpm>
<rpm>0.00</rpm>
</extensions>
</trkpt>
<trkpt lat="30.619333267" lon="34.906528473">
<ele>477.070313</ele>
<time>2013-11-22T13:12:44Z</time>
<speed>3.060000</speed>
<extensions>
<speed>3.1</speed>
<temp>0.00</temp>
<bpm>0</bpm>
<rpm>0.00</rpm>
</extensions>
</trkpt>
<trkpt lat="30.619279861" lon="34.906391144">
<ele>478.679688</ele>
<time>2013-11-22T13:12:49Z</time>
<speed>2.880000</speed>
<extensions>
<speed>2.9</speed>
<temp>0.00</temp>
<bpm>0</bpm>
<rpm>0.00</rpm>
</extensions>
</trkpt>
<trkpt lat="30.619226456" lon="34.906250000">
<ele>480.312500</ele>
<time>2013-11-22T13:12:54Z</time>
<speed>3.020000</speed>
<extensions>
<speed>3.0</speed>
<temp>0.00</temp>
<bpm>0</bpm>
<rpm>0.00</rpm>
</extensions>
</trkpt>
<trkpt lat="30.619184494" lon="34.906101227">
<ele>482.179688</ele>
<time>2013-11-22T13:12:59Z</time>
<speed>2.580000</speed>
<extensions>
<speed>2.6</speed>
<temp>0.00</temp>
<bpm>0</bpm>
<rpm>0.00</rpm>
</extensions>
</trkpt>
<trkpt lat="30.619152069" lon="34.905990601">
<ele>482.375000</ele>
<time>2013-11-22T13:13:04Z</time>
<speed>2.330000</speed>
<extensions>
<speed>2.3</speed>
<temp>0.00</temp>
<bpm>0</bpm>
<rpm>0.00</rpm>
</extensions>
</trkpt>
<trkpt lat="30.619102478" lon="34.905872345">
<ele>482.554688</ele>
<time>2013-11-22T13:13:09Z</time>
<speed>2.970000</speed>
<extensions>
<speed>3.0</speed>
<temp>0.00</temp>
<bpm>0</bpm>
<rpm>0.00</rpm>
</extensions>
</trkpt>
<trkpt lat="30.619039536" lon="34.905738831">
<ele>484.234375</ele>
<time>2013-11-22T13:13:14Z</time>
<speed>2.850000</speed>
<extensions>
<speed>2.9</speed>
<temp>0.00</temp>
<bpm>0</bpm>
<rpm>0.00</rpm>
</extensions>
</trkpt>
<trkpt lat="30.618991852" lon="34.905582428">
<ele>487.000000</ele>
<time>2013-11-22T13:13:19Z</time>
<speed>3.080000</speed>
<extensions>
<speed>3.1</speed>
<temp>0.00</temp>
<bpm>0</bpm>
<rpm>0.00</rpm>
</extensions>
</trkpt>
<trkpt lat="30.618957520" lon="34.905422211">
<ele>488.757813</ele>
<time>2013-11-22T13:13:24Z</time>
<speed>3.260000</speed>
<extensions>
<speed>3.3</speed>
<temp>0.00</temp>
<bpm>0</bpm>
<rpm>0.00</rpm>
</extensions>
</trkpt>
<trkpt lat="30.618928909" lon="34.905265808">
<ele>489.578125</ele>
<time>2013-11-22T13:13:29Z</time>
<speed>3.110000</speed>
<extensions>
<speed>3.1</speed>
<temp>0.00</temp>
<bpm>0</bpm>
<rpm>0.00</rpm>
</extensions>
</trkpt>
<trkpt lat="30.618913651" lon="34.905101776">
<ele>490.671875</ele>
<time>2013-11-22T13:13:34Z</time>
<speed>3.270000</speed>
<extensions>
<speed>3.3</speed>
<temp>0.00</temp>
<bpm>0</bpm>
<rpm>0.00</rpm>
</extensions>
</trkpt>
<trkpt lat="30.618875504" lon="34.904914856">
<ele>489.187500</ele>
<time>2013-11-22T13:13:39Z</time>
<speed>3.540000</speed>
<extensions>
<speed>3.5</speed>
<temp>0.00</temp>
<bpm>0</bpm>
<rpm>0.00</rpm>
</extensions>
</trkpt>
<trkpt lat="30.618780136" lon="34.904701233">
<ele>486.757813</ele>
<time>2013-11-22T13:13:44Z</time>
<speed>4.400000</speed>
<extensions>
<speed>4.4</speed>
<temp>0.00</temp>
<bpm>0</bpm>
<rpm>0.00</rpm>
</extensions>
</trkpt>
<trkpt lat="30.618671417" lon="34.904457092">
<ele>484.742188</ele>
<time>2013-11-22T13:13:49Z</time>
<speed>5.120000</speed>
<extensions>
<speed>5.1</speed>
<temp>0.00</temp>
<bpm>0</bpm>
<rpm>0.00</rpm>
</extensions>
</trkpt>
<trkpt lat="30.618530273" lon="34.904182434">
<ele>482.367188</ele>
<time>2013-11-22T13:13:54Z</time>
<speed>6.500000</speed>
<extensions>
<speed>6.5</speed>
<temp>0.00</temp>
<bpm>0</bpm>
<rpm>0.00</rpm>
</extensions>
</trkpt>
<trkpt lat="30.618356705" lon="34.903858185">
<ele>480.617188</ele>
<time>2013-11-22T13:13:59Z</time>
<speed>7.300000</speed>
<extensions>
<speed>7.3</speed>
<temp>0.00</temp>
<bpm>0</bpm>
<rpm>0.00</rpm>
</extensions>
</trkpt>
<trkpt lat="30.618181229" lon="34.903511047">
<ele>477.554688</ele>
<time>2013-11-22T13:14:04Z</time>
<speed>8.020000</speed>
<extensions>
<speed>8.0</speed>
<temp>0.00</temp>
<bpm>0</bpm>
<rpm>0.00</rpm>
</extensions>
</trkpt>
<trkpt lat="30.617971420" lon="34.903167725">
<ele>476.187500</ele>
<time>2013-11-22T13:14:09Z</time>
<speed>7.920000</speed>
<extensions>
<speed>7.9</speed>
<temp>0.00</temp>
<bpm>0</bpm>
<rpm>0.00</rpm>
</extensions>
</trkpt>
<trkpt lat="30.617677689" lon="34.902976990">
<ele>473.000000</ele>
<time>2013-11-22T13:14:14Z</time>
<speed>7.900000</speed>
<extensions>
<speed>7.9</speed>
<temp>0.00</temp>
<bpm>0</bpm>
<rpm>0.00</rpm>
</extensions>
</trkpt>
<trkpt lat="30.617469788" lon="34.902740479">
<ele>471.968750</ele>
<time>2013-11-22T13:14:19Z</time>
<speed>5.590000</speed>
<extensions>
<speed>5.6</speed>
<temp>0.00</temp>
<bpm>0</bpm>
<rpm>0.00</rpm>
</extensions>
</trkpt>
<trkpt lat="30.617408752" lon="34.902450562">
<ele>473.484375</ele>
<time>2013-11-22T13:14:24Z</time>
<speed>5.780000</speed>
<extensions>
<speed>5.8</speed>
<temp>0.00</temp>
<bpm>0</bpm>
<rpm>0.00</rpm>
</extensions>
</trkpt>
<trkpt lat="30.617435455" lon="34.902175903">
<ele>474.914063</ele>
<time>2013-11-22T13:14:29Z</time>
<speed>5.060000</speed>
<extensions>
<speed>5.1</speed>
<temp>0.00</temp>
<bpm>0</bpm>
<rpm>0.00</rpm>
</extensions>
</trkpt>
<trkpt lat="30.617504120" lon="34.901920319">
<ele>473.960938</ele>
<time>2013-11-22T13:14:34Z</time>
<speed>5.510000</speed>
<extensions>
<speed>5.5</speed>
<temp>0.00</temp>
<bpm>0</bpm>
<rpm>0.00</rpm>
</extensions>
</trkpt>
<trkpt lat="30.617561340" lon="34.901664734">
<ele>474.164063</ele>
<time>2013-11-22T13:14:39Z</time>
<speed>5.210000</speed>
<extensions>
<speed>5.2</speed>
<temp>0.00</temp>
<bpm>0</bpm>
<rpm>0.00</rpm>
</extensions>
</trkpt>
<trkpt lat="30.617582321" lon="34.901420593">
<ele>475.750000</ele>
<time>2013-11-22T13:14:44Z</time>
<speed>4.740000</speed>
<extensions>
<speed>4.7</speed>
<temp>0.00</temp>
<bpm>0</bpm>
<rpm>0.00</rpm>
</extensions>
</trkpt>
<trkpt lat="30.617614746" lon="34.901222229">
<ele>476.679688</ele>
<time>2013-11-22T13:14:49Z</time>
<speed>3.900000</speed>
<extensions>
<speed>3.9</speed>
<temp>0.00</temp>
<bpm>0</bpm>
<rpm>0.00</rpm>
</extensions>
</trkpt>
<trkpt lat="30.617645264" lon="34.901020050">
<ele>478.015625</ele>
<time>2013-11-22T13:14:54Z</time>
<speed>4.330000</speed>
<extensions>
<speed>4.3</speed>
<temp>0.00</temp>
<bpm>0</bpm>
<rpm>0.00</rpm>
</extensions>
</trkpt>
<trkpt lat="30.617671967" lon="34.900840759">
<ele>479.273438</ele>
<time>2013-11-22T13:14:59Z</time>
<speed>3.490000</speed>
<extensions>
<speed>3.5</speed>
<temp>0.00</temp>
<bpm>0</bpm>
<rpm>0.00</rpm>
</extensions>
</trkpt>
<trkpt lat="30.617702484" lon="34.900642395">
<ele>480.359375</ele>
<time>2013-11-22T13:15:04Z</time>
<speed>3.940000</speed>
<extensions>
<speed>3.9</speed>
<temp>0.00</temp>
<bpm>0</bpm>
<rpm>0.00</rpm>
</extensions>
</trkpt>
<trkpt lat="30.617736816" lon="34.900428772">
<ele>482.171875</ele>
<time>2013-11-22T13:15:09Z</time>
<speed>3.960000</speed>
<extensions>
<speed>4.0</speed>
<temp>0.00</temp>
<bpm>0</bpm>
<rpm>0.00</rpm>
</extensions>
</trkpt>
<trkpt lat="30.617769241" lon="34.900203705">
<ele>483.843750</ele>
<time>2013-11-22T13:15:14Z</time>
<speed>4.390000</speed>
<extensions>
<speed>4.4</speed>
<temp>0.00</temp>
<bpm>0</bpm>
<rpm>0.00</rpm>
</extensions>
</trkpt>
<trkpt lat="30.617790222" lon="34.899948120">
<ele>485.289063</ele>
<time>2013-11-22T13:15:19Z</time>
<speed>4.430000</speed>
<extensions>
<speed>4.4</speed>
<temp>0.00</temp>
<bpm>0</bpm>
<rpm>0.00</rpm>
</extensions>
</trkpt>
<trkpt lat="30.617809296" lon="34.899688721">
<ele>486.515625</ele>
<time>2013-11-22T13:15:24Z</time>
<speed>4.180000</speed>
<extensions>
<speed>4.2</speed>
<temp>0.00</temp>
<bpm>0</bpm>
<rpm>0.00</rpm>
</extensions>
</trkpt>
<trkpt lat="30.617826462" lon="34.899475098">
<ele>487.445313</ele>
<time>2013-11-22T13:15:29Z</time>
<speed>4.190000</speed>
<extensions>
<speed>4.2</speed>
<temp>0.00</temp>
<bpm>0</bpm>
<rpm>0.00</rpm>
</extensions>
</trkpt>
<trkpt lat="30.617855072" lon="34.899276733">
<ele>487.328125</ele>
<time>2013-11-22T13:15:34Z</time>
<speed>3.590000</speed>
<extensions>
<speed>3.6</speed>
<temp>0.00</temp>
<bpm>0</bpm>
<rpm>0.00</rpm>
</extensions>
</trkpt>
<trkpt lat="30.617904663" lon="34.899082184">
<ele>488.007813</ele>
<time>2013-11-22T13:15:39Z</time>
<speed>2.230000</speed>
<extensions>
<speed>2.2</speed>
<temp>0.00</temp>
<bpm>0</bpm>
<rpm>0.00</rpm>
</extensions>
</trkpt>
<trkpt lat="30.617946625" lon="34.898868561">
<ele>488.125000</ele>
<time>2013-11-22T13:15:44Z</time>
<speed>4.220000</speed>
<extensions>
<speed>4.2</speed>
<temp>0.00</temp>
<bpm>0</bpm>
<rpm>0.00</rpm>
</extensions>
</trkpt>
<trkpt lat="30.617992401" lon="34.898647308">
<ele>487.062500</ele>
<time>2013-11-22T13:15:49Z</time>
<speed>4.540000</speed>
<extensions>
<speed>4.5</speed>
<temp>0.00</temp>
<bpm>0</bpm>
<rpm>0.00</rpm>
</extensions>
</trkpt>
<trkpt lat="30.618038177" lon="34.898418427">
<ele>486.617188</ele>
<time>2013-11-22T13:15:54Z</time>
<speed>4.520000</speed>
<extensions>
<speed>4.5</speed>
<temp>0.00</temp>
<bpm>0</bpm>
<rpm>0.00</rpm>
</extensions>
</trkpt>
<trkpt lat="30.618082047" lon="34.898197174">
<ele>486.625000</ele>
<time>2013-11-22T13:15:59Z</time>
<speed>3.600000</speed>
<extensions>
<speed>3.6</speed>
<temp>0.00</temp>
<bpm>0</bpm>
<rpm>0.00</rpm>
</extensions>
</trkpt>
<trkpt lat="30.618101120" lon="34.898033142">
<ele>487.671875</ele>
<time>2013-11-22T13:16:04Z</time>
<speed>2.560000</speed>
<extensions>
<speed>2.6</speed>
<temp>0.00</temp>
<bpm>0</bpm>
<rpm>0.00</rpm>
</extensions>
</trkpt>
<trkpt lat="30.618127823" lon="34.897876740">
<ele>488.992188</ele>
<time>2013-11-22T13:16:09Z</time>
<speed>2.710000</speed>
<extensions>
<speed>2.7</speed>
<temp>0.00</temp>
<bpm>0</bpm>
<rpm>0.00</rpm>
</extensions>
</trkpt>
<trkpt lat="30.618139267" lon="34.897705078">
<ele>490.531250</ele>
<time>2013-11-22T13:16:14Z</time>
<speed>2.780000</speed>
<extensions>
<speed>2.8</speed>
<temp>0.00</temp>
<bpm>0</bpm>
<rpm>0.00</rpm>
</extensions>
</trkpt>
<trkpt lat="30.618131638" lon="34.897560120">
<ele>492.164063</ele>
<time>2013-11-22T13:16:19Z</time>
<speed>2.650000</speed>
<extensions>
<speed>2.6</speed>
<temp>0.00</temp>
<bpm>0</bpm>
<rpm>0.00</rpm>
</extensions>
</trkpt>
<trkpt lat="30.618108749" lon="34.897415161">
<ele>495.101563</ele>
<time>2013-11-22T13:16:24Z</time>
<speed>2.230000</speed>
<extensions>
<speed>2.2</speed>
<temp>0.00</temp>
<bpm>0</bpm>
<rpm>0.00</rpm>
</extensions>
</trkpt>
<trkpt lat="30.618093491" lon="34.897296906">
<ele>498.343750</ele>
<time>2013-11-22T13:16:29Z</time>
<speed>2.280000</speed>
<extensions>
<speed>2.3</speed>
<temp>0.00</temp>
<bpm>0</bpm>
<rpm>0.00</rpm>
</extensions>
</trkpt>
<trkpt lat="30.618051529" lon="34.897178650">
<ele>499.265625</ele>
<time>2013-11-22T13:16:34Z</time>
<speed>2.530000</speed>
<extensions>
<speed>2.5</speed>
<temp>0.00</temp>
<bpm>0</bpm>
<rpm>0.00</rpm>
</extensions>
</trkpt>
<trkpt lat="30.618003845" lon="34.897075653">
<ele>497.851563</ele>
<time>2013-11-22T13:16:39Z</time>
<speed>1.670000</speed>
<extensions>
<speed>1.7</speed>
<temp>0.00</temp>
<bpm>0</bpm>
<rpm>0.00</rpm>
</extensions>
</trkpt>
<trkpt lat="30.617956161" lon="34.896987915">
<ele>497.109375</ele>
<time>2013-11-22T13:16:44Z</time>
<speed>2.150000</speed>
<extensions>
<speed>2.1</speed>
<temp>0.00</temp>
<bpm>0</bpm>
<rpm>0.00</rpm>
</extensions>
</trkpt>
<trkpt lat="30.617889404" lon="34.896896362">
<ele>496.203125</ele>
<time>2013-11-22T13:16:49Z</time>
<speed>2.140000</speed>
<extensions>
<speed>2.1</speed>
<temp>0.00</temp>
<bpm>0</bpm>
<rpm>0.00</rpm>
</extensions>
</trkpt>
<trkpt lat="30.617801666" lon="34.896850586">
<ele>492.890625</ele>
<time>2013-11-22T13:16:54Z</time>
<speed>2.070000</speed>
<extensions>
<speed>2.1</speed>
<temp>0.00</temp>
<bpm>0</bpm>
<rpm>0.00</rpm>
</extensions>
</trkpt>
<trkpt lat="30.617727280" lon="34.896789551">
<ele>488.656250</ele>
<time>2013-11-22T13:16:59Z</time>
<speed>2.220000</speed>
<extensions>
<speed>2.2</speed>
<temp>0.00</temp>
<bpm>0</bpm>
<rpm>0.00</rpm>
</extensions>
</trkpt>
<trkpt lat="30.617691040" lon="34.896751404">
<ele>486.617188</ele>
<time>2013-11-22T13:17:04Z</time>
<speed>0.810000</speed>
<extensions>
<speed>0.8</speed>
<temp>0.00</temp>
<bpm>0</bpm>
<rpm>0.00</rpm>
</extensions>
</trkpt>
<trkpt lat="30.617630005" lon="34.896686554">
<ele>484.390625</ele>
<time>2013-11-22T13:17:09Z</time>
<speed>1.860000</speed>
<extensions>
<speed>1.9</speed>
<temp>0.00</temp>
<bpm>0</bpm>
<rpm>0.00</rpm>
</extensions>
</trkpt>
<trkpt lat="30.617565155" lon="34.896629333">
<ele>484.562500</ele>
<time>2013-11-22T13:17:14Z</time>
<speed>1.760000</speed>
<extensions>
<speed>1.8</speed>
<temp>0.00</temp>
<bpm>0</bpm>
<rpm>0.00</rpm>
</extensions>
</trkpt>
<trkpt lat="30.617507935" lon="34.896579742">
<ele>484.328125</ele>
<time>2013-11-22T13:17:19Z</time>
<speed>1.830000</speed>
<extensions>
<speed>1.8</speed>
<temp>0.00</temp>
<bpm>0</bpm>
<rpm>0.00</rpm>
</extensions>
</trkpt>
<trkpt lat="30.617443085" lon="34.896507263">
<ele>485.125000</ele>
<time>2013-11-22T13:17:24Z</time>
<speed>1.980000</speed>
<extensions>
<speed>2.0</speed>
<temp>0.00</temp>
<bpm>0</bpm>
<rpm>0.00</rpm>
</extensions>
</trkpt>
<trkpt lat="30.617382050" lon="34.896438599">
<ele>485.039063</ele>
<time>2013-11-22T13:17:29Z</time>
<speed>2.160000</speed>
<extensions>
<speed>2.2</speed>
<temp>0.00</temp>
<bpm>0</bpm>
<rpm>0.00</rpm>
</extensions>
</trkpt>
<trkpt lat="30.617322922" lon="34.896369934">
<ele>484.382813</ele>
<time>2013-11-22T13:17:34Z</time>
<speed>1.080000</speed>
<extensions>
<speed>1.1</speed>
<temp>0.00</temp>
<bpm>0</bpm>
<rpm>0.00</rpm>
</extensions>
</trkpt>
<trkpt lat="30.617273331" lon="34.896308899">
<ele>484.007813</ele>
<time>2013-11-22T13:17:39Z</time>
<speed>1.630000</speed>
<extensions>
<speed>1.6</speed>
<temp>0.00</temp>
<bpm>0</bpm>
<rpm>0.00</rpm>
</extensions>
</trkpt>
<trkpt lat="30.617219925" lon="34.896224976">
<ele>483.914063</ele>
<time>2013-11-22T13:17:44Z</time>
<speed>1.910000</speed>
<extensions>
<speed>1.9</speed>
<temp>0.00</temp>
<bpm>0</bpm>
<rpm>0.00</rpm>
</extensions>
</trkpt>
<trkpt lat="30.617176056" lon="34.896137238">
<ele>484.750000</ele>
<time>2013-11-22T13:17:49Z</time>
<speed>2.050000</speed>
<extensions>
<speed>2.1</speed>
<temp>0.00</temp>
<bpm>0</bpm>
<rpm>0.00</rpm>
</extensions>
</trkpt>
<trkpt lat="30.617136002" lon="34.896034241">
<ele>486.132813</ele>
<time>2013-11-22T13:17:54Z</time>
<speed>2.070000</speed>
<extensions>
<speed>2.1</speed>
<temp>0.00</temp>
<bpm>0</bpm>
<rpm>0.00</rpm>
</extensions>
</trkpt>
<trkpt lat="30.617101669" lon="34.895923615">
<ele>487.859375</ele>
<time>2013-11-22T13:17:59Z</time>
<speed>2.300000</speed>
<extensions>
<speed>2.3</speed>
<temp>0.00</temp>
<bpm>0</bpm>
<rpm>0.00</rpm>
</extensions>
</trkpt>
<trkpt lat="30.617076874" lon="34.895793915">
<ele>488.812500</ele>
<time>2013-11-22T13:18:04Z</time>
<speed>2.580000</speed>
<extensions>
<speed>2.6</speed>
<temp>0.00</temp>
<bpm>0</bpm>
<rpm>0.00</rpm>
</extensions>
</trkpt>
<trkpt lat="30.617063522" lon="34.895641327">
<ele>491.078125</ele>
<time>2013-11-22T13:18:09Z</time>
<speed>2.920000</speed>
<extensions>
<speed>2.9</speed>
<temp>0.00</temp>
<bpm>0</bpm>
<rpm>0.00</rpm>
</extensions>
</trkpt>
<trkpt lat="30.617055893" lon="34.895500183">
<ele>493.257813</ele>
<time>2013-11-22T13:18:14Z</time>
<speed>3.160000</speed>
<extensions>
<speed>3.2</speed>
<temp>0.00</temp>
<bpm>0</bpm>
<rpm>0.00</rpm>
</extensions>
</trkpt>
<trkpt lat="30.617034912" lon="34.895309448">
<ele>494.882813</ele>
<time>2013-11-22T13:18:19Z</time>
<speed>3.480000</speed>
<extensions>
<speed>3.5</speed>
<temp>0.00</temp>
<bpm>0</bpm>
<rpm>0.00</rpm>
</extensions>
</trkpt>
<trkpt lat="30.617055893" lon="34.895145416">
<ele>497.257813</ele>
<time>2013-11-22T13:18:24Z</time>
<speed>3.430000</speed>
<extensions>
<speed>3.4</speed>
<temp>0.00</temp>
<bpm>0</bpm>
<rpm>0.00</rpm>
</extensions>
</trkpt>
<trkpt lat="30.617074966" lon="34.894947052">
<ele>498.789063</ele>
<time>2013-11-22T13:18:29Z</time>
<speed>4.140000</speed>
<extensions>
<speed>4.1</speed>
<temp>0.00</temp>
<bpm>0</bpm>
<rpm>0.00</rpm>
</extensions>
</trkpt>
<trkpt lat="30.617086411" lon="34.894710541">
<ele>499.156250</ele>
<time>2013-11-22T13:18:34Z</time>
<speed>4.750000</speed>
<extensions>
<speed>4.8</speed>
<temp>0.00</temp>
<bpm>0</bpm>
<rpm>0.00</rpm>
</extensions>
</trkpt>
<trkpt lat="30.617128372" lon="34.894390106">
<ele>499.757813</ele>
<time>2013-11-22T13:18:39Z</time>
<speed>7.190000</speed>
<extensions>
<speed>7.2</speed>
<temp>0.00</temp>
<bpm>0</bpm>
<rpm>0.00</rpm>
</extensions>
</trkpt>
<trkpt lat="30.617156982" lon="34.894020081">
<ele>500.484375</ele>
<time>2013-11-22T13:18:44Z</time>
<speed>7.100000</speed>
<extensions>
<speed>7.1</speed>
<temp>0.00</temp>
<bpm>0</bpm>
<rpm>0.00</rpm>
</extensions>
</trkpt>
<trkpt lat="30.617181778" lon="34.893646240">
<ele>499.585938</ele>
<time>2013-11-22T13:18:49Z</time>
<speed>7.230000</speed>
<extensions>
<speed>7.2</speed>
<temp>0.00</temp>
<bpm>0</bpm>
<rpm>0.00</rpm>
</extensions>
</trkpt>
<trkpt lat="30.617198944" lon="34.893287659">
<ele>500.054688</ele>
<time>2013-11-22T13:18:54Z</time>
<speed>6.470000</speed>
<extensions>
<speed>6.5</speed>
<temp>0.00</temp>
<bpm>0</bpm>
<rpm>0.00</rpm>
</extensions>
</trkpt>
<trkpt lat="30.617212296" lon="34.892967224">
<ele>499.546875</ele>
<time>2013-11-22T13:18:59Z</time>
<speed>7.760000</speed>
<extensions>
<speed>7.8</speed>
<temp>0.00</temp>
<bpm>0</bpm>
<rpm>0.00</rpm>
</extensions>
</trkpt>
<trkpt lat="30.617221832" lon="34.892642975">
<ele>500.000000</ele>
<time>2013-11-22T13:19:04Z</time>
<speed>5.420000</speed>
<extensions>
<speed>5.4</speed>
<temp>0.00</temp>
<bpm>0</bpm>
<rpm>0.00</rpm>
</extensions>
</trkpt>
<trkpt lat="30.617246628" lon="34.892410278">
<ele>499.828125</ele>
<time>2013-11-22T13:19:09Z</time>
<speed>3.450000</speed>
<extensions>
<speed>3.5</speed>
<temp>0.00</temp>
<bpm>0</bpm>
<rpm>0.00</rpm>
</extensions>
</trkpt>
<trkpt lat="30.617252350" lon="34.892284393">
<ele>500.539063</ele>
<time>2013-11-22T13:19:14Z</time>
<speed>1.970000</speed>
<extensions>
<speed>2.0</speed>
<temp>0.00</temp>
<bpm>0</bpm>
<rpm>0.00</rpm>
</extensions>
</trkpt>
<trkpt lat="30.617259979" lon="34.892177582">
<ele>502.523438</ele>
<time>2013-11-22T13:19:19Z</time>
<speed>1.580000</speed>
<extensions>
<speed>1.6</speed>
<temp>0.00</temp>
<bpm>0</bpm>
<rpm>0.00</rpm>
</extensions>
</trkpt>
<trkpt lat="30.617252350" lon="34.892101288">
<ele>503.632813</ele>
<time>2013-11-22T13:19:24Z</time>
<speed>1.050000</speed>
<extensions>
<speed>1.0</speed>
<temp>0.00</temp>
<bpm>0</bpm>
<rpm>0.00</rpm>
</extensions>
</trkpt>
<trkpt lat="30.617252350" lon="34.892002106">
<ele>505.335938</ele>
<time>2013-11-22T13:19:29Z</time>
<speed>2.360000</speed>
<extensions>
<speed>2.4</speed>
<temp>0.00</temp>
<bpm>0</bpm>
<rpm>0.00</rpm>
</extensions>
</trkpt>
<trkpt lat="30.617231369" lon="34.891864777">
<ele>507.109375</ele>
<time>2013-11-22T13:19:34Z</time>
<speed>2.600000</speed>
<extensions>
<speed>2.6</speed>
<temp>0.00</temp>
<bpm>0</bpm>
<rpm>0.00</rpm>
</extensions>
</trkpt>
<trkpt lat="30.617210388" lon="34.891723633">
<ele>508.429688</ele>
<time>2013-11-22T13:19:39Z</time>
<speed>2.800000</speed>
<extensions>
<speed>2.8</speed>
<temp>0.00</temp>
<bpm>0</bpm>
<rpm>0.00</rpm>
</extensions>
</trkpt>
<trkpt lat="30.617160797" lon="34.891567230">
<ele>510.070313</ele>
<time>2013-11-22T13:19:44Z</time>
<speed>3.020000</speed>
<extensions>
<speed>3.0</speed>
<temp>0.00</temp>
<bpm>0</bpm>
<rpm>0.00</rpm>
</extensions>
</trkpt>
<trkpt lat="30.617122650" lon="34.891445160">
<ele>510.437500</ele>
<time>2013-11-22T13:19:49Z</time>
<speed>1.600000</speed>
<extensions>
<speed>1.6</speed>
<temp>0.00</temp>
<bpm>0</bpm>
<rpm>0.00</rpm>
</extensions>
</trkpt>
<trkpt lat="30.617067337" lon="34.891368866">
<ele>509.289063</ele>
<time>2013-11-22T13:19:54Z</time>
<speed>2.170000</speed>
<extensions>
<speed>2.2</speed>
<temp>0.00</temp>
<bpm>0</bpm>
<rpm>0.00</rpm>
</extensions>
</trkpt>
<trkpt lat="30.617029190" lon="34.891216278">
<ele>509.390625</ele>
<time>2013-11-22T13:19:59Z</time>
<speed>3.600000</speed>
<extensions>
<speed>3.6</speed>
<temp>0.00</temp>
<bpm>0</bpm>
<rpm>0.00</rpm>
</extensions>
</trkpt>
<trkpt lat="30.617053986" lon="34.891044617">
<ele>508.632813</ele>
<time>2013-11-22T13:20:04Z</time>
<speed>3.540000</speed>
<extensions>
<speed>3.5</speed>
<temp>0.00</temp>
<bpm>0</bpm>
<rpm>0.00</rpm>
</extensions>
</trkpt>
<trkpt lat="30.617111206" lon="34.890892029">
<ele>508.976563</ele>
<time>2013-11-22T13:20:09Z</time>
<speed>3.400000</speed>
<extensions>
<speed>3.4</speed>
<temp>0.00</temp>
<bpm>0</bpm>
<rpm>0.00</rpm>
</extensions>
</trkpt>
<trkpt lat="30.617183685" lon="34.890731812">
<ele>508.851563</ele>
<time>2013-11-22T13:20:14Z</time>
<speed>4.150000</speed>
<extensions>
<speed>4.1</speed>
<temp>0.00</temp>
<bpm>0</bpm>
<rpm>0.00</rpm>
</extensions>
</trkpt>
<trkpt lat="30.617280960" lon="34.890571594">
<ele>509.875000</ele>
<time>2013-11-22T13:20:19Z</time>
<speed>3.490000</speed>
<extensions>
<speed>3.5</speed>
<temp>0.00</temp>
<bpm>0</bpm>
<rpm>0.00</rpm>
</extensions>
</trkpt>
<trkpt lat="30.617387772" lon="34.890430450">
<ele>510.992188</ele>
<time>2013-11-22T13:20:24Z</time>
<speed>3.220000</speed>
<extensions>
<speed>3.2</speed>
<temp>0.00</temp>
<bpm>0</bpm>
<rpm>0.00</rpm>
</extensions>
</trkpt>
<trkpt lat="30.617540359" lon="34.890445709">
<ele>507.507813</ele>
<time>2013-11-22T13:20:29Z</time>
<speed>2.620000</speed>
<extensions>
<speed>2.6</speed>
<temp>0.00</temp>
<bpm>0</bpm>
<rpm>0.00</rpm>
</extensions>
</trkpt>
<trkpt lat="30.617620468" lon="34.890468597">
<ele>503.953125</ele>
<time>2013-11-22T13:20:34Z</time>
<speed>1.000000</speed>
<extensions>
<speed>1.0</speed>
<temp>0.00</temp>
<bpm>0</bpm>
<rpm>0.00</rpm>
</extensions>
</trkpt>
<trkpt lat="30.617628098" lon="34.890476227">
<ele>502.070313</ele>
<time>2013-11-22T13:20:39Z</time>
<speed>0.050000</speed>
<extensions>
<speed>0.1</speed>
<temp>0.00</temp>
<bpm>0</bpm>
<rpm>0.00</rpm>
</extensions>
</trkpt>
<trkpt lat="30.617624283" lon="34.890472412">
<ele>500.250000</ele>
<time>2013-11-22T13:20:44Z</time>
<speed>0.020000</speed>
<extensions>
<speed>0.0</speed>
<temp>0.00</temp>
<bpm>0</bpm>
<rpm>0.00</rpm>
</extensions>
</trkpt>
<trkpt lat="30.617624283" lon="34.890472412">
<ele>500.156250</ele>
<time>2013-11-22T13:20:49Z</time>
<speed>0.020000</speed>
<extensions>
<speed>0.0</speed>
<temp>0.00</temp>
<bpm>0</bpm>
<rpm>0.00</rpm>
</extensions>
</trkpt>
<trkpt lat="30.617624283" lon="34.890476227">
<ele>500.125000</ele>
<time>2013-11-22T13:20:54Z</time>
<extensions>
<speed>0.0</speed>
<temp>0.00</temp>
<bpm>0</bpm>
<rpm>0.00</rpm>
</extensions>
</trkpt>
<trkpt lat="30.617628098" lon="34.890476227">
<ele>500.101563</ele>
<time>2013-11-22T13:20:59Z</time>
<speed>1.190000</speed>
<extensions>
<speed>1.2</speed>
<temp>0.00</temp>
<bpm>0</bpm>
<rpm>0.00</rpm>
</extensions>
</trkpt>
<trkpt lat="30.617628098" lon="34.890392303">
<ele>499.507813</ele>
<time>2013-11-22T13:21:04Z</time>
<speed>2.360000</speed>
<extensions>
<speed>2.4</speed>
<temp>0.00</temp>
<bpm>0</bpm>
<rpm>0.00</rpm>
</extensions>
</trkpt>
<trkpt lat="30.617509842" lon="34.890399933">
<ele>498.515625</ele>
<time>2013-11-22T13:21:09Z</time>
<speed>3.000000</speed>
<extensions>
<speed>3.0</speed>
<temp>0.00</temp>
<bpm>0</bpm>
<rpm>0.00</rpm>
</extensions>
</trkpt>
<trkpt lat="30.617429733" lon="34.890361786">
<ele>498.429688</ele>
<time>2013-11-22T13:21:14Z</time>
<speed>2.700000</speed>
<extensions>
<speed>2.7</speed>
<temp>0.00</temp>
<bpm>0</bpm>
<rpm>0.00</rpm>
</extensions>
</trkpt>
<trkpt lat="30.617441177" lon="34.890174866">
<ele>501.687500</ele>
<time>2013-11-22T13:21:19Z</time>
<speed>3.780000</speed>
<extensions>
<speed>3.8</speed>
<temp>0.00</temp>
<bpm>0</bpm>
<rpm>0.00</rpm>
</extensions>
</trkpt>
<trkpt lat="30.617458344" lon="34.889965057">
<ele>504.195313</ele>
<time>2013-11-22T13:21:24Z</time>
<speed>3.230000</speed>
<extensions>
<speed>3.2</speed>
<temp>0.00</temp>
<bpm>0</bpm>
<rpm>0.00</rpm>
</extensions>
</trkpt>
<trkpt lat="30.617488861" lon="34.889797211">
<ele>505.070313</ele>
<time>2013-11-22T13:21:29Z</time>
<speed>3.290000</speed>
<extensions>
<speed>3.3</speed>
<temp>0.00</temp>
<bpm>0</bpm>
<rpm>0.00</rpm>
</extensions>
</trkpt>
<trkpt lat="30.617563248" lon="34.889621735">
<ele>505.429688</ele>
<time>2013-11-22T13:21:34Z</time>
<speed>3.880000</speed>
<extensions>
<speed>3.9</speed>
<temp>0.00</temp>
<bpm>0</bpm>
<rpm>0.00</rpm>
</extensions>
</trkpt>
<trkpt lat="30.617614746" lon="34.889434814">
<ele>505.609375</ele>
<time>2013-11-22T13:21:39Z</time>
<speed>3.820000</speed>
<extensions>
<speed>3.8</speed>
<temp>0.00</temp>
<bpm>0</bpm>
<rpm>0.00</rpm>
</extensions>
</trkpt>
<trkpt lat="30.617601395" lon="34.889213562">
<ele>506.406250</ele>
<time>2013-11-22T13:21:44Z</time>
<speed>4.820000</speed>
<extensions>
<speed>4.8</speed>
<temp>0.00</temp>
<bpm>0</bpm>
<rpm>0.00</rpm>
</extensions>
</trkpt>
<trkpt lat="30.617525101" lon="34.888923645">
<ele>506.414063</ele>
<time>2013-11-22T13:21:49Z</time>
<speed>5.950000</speed>
<extensions>
<speed>6.0</speed>
<temp>0.00</temp>
<bpm>0</bpm>
<rpm>0.00</rpm>
</extensions>
</trkpt>
<trkpt lat="30.617385864" lon="34.888626099">
<ele>503.062500</ele>
<time>2013-11-22T13:21:54Z</time>
<speed>7.150000</speed>
<extensions>
<speed>7.1</speed>
<temp>0.00</temp>
<bpm>0</bpm>
<rpm>0.00</rpm>
</extensions>
</trkpt>
<trkpt lat="30.617233276" lon="34.888298035">
<ele>500.539063</ele>
<time>2013-11-22T13:21:59Z</time>
<speed>6.750000</speed>
<extensions>
<speed>6.7</speed>
<temp>0.00</temp>
<bpm>0</bpm>
<rpm>0.00</rpm>
</extensions>
</trkpt>
<trkpt lat="30.617036819" lon="34.888065338">
<ele>500.125000</ele>
<time>2013-11-22T13:22:04Z</time>
<speed>5.690000</speed>
<extensions>
<speed>5.7</speed>
<temp>0.00</temp>
<bpm>0</bpm>
<rpm>0.00</rpm>
</extensions>
</trkpt>
<trkpt lat="30.616863251" lon="34.887855530">
<ele>498.671875</ele>
<time>2013-11-22T13:22:09Z</time>
<speed>6.220000</speed>
<extensions>
<speed>6.2</speed>
<temp>0.00</temp>
<bpm>0</bpm>
<rpm>0.00</rpm>
</extensions>
</trkpt>
<trkpt lat="30.616687775" lon="34.887557983">
<ele>496.476563</ele>
<time>2013-11-22T13:22:14Z</time>
<speed>7.320000</speed>
<extensions>
<speed>7.3</speed>
<temp>0.00</temp>
<bpm>0</bpm>
<rpm>0.00</rpm>
</extensions>
</trkpt>
<trkpt lat="30.616531372" lon="34.887275696">
<ele>496.750000</ele>
<time>2013-11-22T13:22:19Z</time>
<speed>5.660000</speed>
<extensions>
<speed>5.7</speed>
<temp>0.00</temp>
<bpm>0</bpm>
<rpm>0.00</rpm>
</extensions>
</trkpt>
<trkpt lat="30.616395950" lon="34.887069702">
<ele>496.812500</ele>
<time>2013-11-22T13:22:24Z</time>
<speed>4.060000</speed>
<extensions>
<speed>4.1</speed>
<temp>0.00</temp>
<bpm>0</bpm>
<rpm>0.00</rpm>
</extensions>
</trkpt>
<trkpt lat="30.616302490" lon="34.886943817">
<ele>496.539063</ele>
<time>2013-11-22T13:22:29Z</time>
<speed>2.420000</speed>
<extensions>
<speed>2.4</speed>
<temp>0.00</temp>
<bpm>0</bpm>
<rpm>0.00</rpm>
</extensions>
</trkpt>
<trkpt lat="30.616241455" lon="34.886878967">
<ele>495.812500</ele>
<time>2013-11-22T13:22:34Z</time>
<speed>1.420000</speed>
<extensions>
<speed>1.4</speed>
<temp>0.00</temp>
<bpm>0</bpm>
<rpm>0.00</rpm>
</extensions>
</trkpt>
<trkpt lat="30.616189957" lon="34.886795044">
<ele>495.437500</ele>
<time>2013-11-22T13:22:39Z</time>
<speed>1.880000</speed>
<extensions>
<speed>1.9</speed>
<temp>0.00</temp>
<bpm>0</bpm>
<rpm>0.00</rpm>
</extensions>
</trkpt>
<trkpt lat="30.616130829" lon="34.886707306">
<ele>494.875000</ele>
<time>2013-11-22T13:22:44Z</time>
<speed>2.260000</speed>
<extensions>
<speed>2.3</speed>
<temp>0.00</temp>
<bpm>0</bpm>
<rpm>0.00</rpm>
</extensions>
</trkpt>
<trkpt lat="30.616058350" lon="34.886608124">
<ele>495.062500</ele>
<time>2013-11-22T13:22:49Z</time>
<speed>2.460000</speed>
<extensions>
<speed>2.5</speed>
<temp>0.00</temp>
<bpm>0</bpm>
<rpm>0.00</rpm>
</extensions>
</trkpt>
<trkpt lat="30.615982056" lon="34.886501312">
<ele>495.109375</ele>
<time>2013-11-22T13:22:54Z</time>
<speed>3.140000</speed>
<extensions>
<speed>3.1</speed>
<temp>0.00</temp>
<bpm>0</bpm>
<rpm>0.00</rpm>
</extensions>
</trkpt>
<trkpt lat="30.615869522" lon="34.886390686">
<ele>494.257813</ele>
<time>2013-11-22T13:22:59Z</time>
<speed>3.750000</speed>
<extensions>
<speed>3.8</speed>
<temp>0.00</temp>
<bpm>0</bpm>
<rpm>0.00</rpm>
</extensions>
</trkpt>
<trkpt lat="30.615741730" lon="34.886241913">
<ele>492.820313</ele>
<time>2013-11-22T13:23:04Z</time>
<speed>4.180000</speed>
<extensions>
<speed>4.2</speed>
<temp>0.00</temp>
<bpm>0</bpm>
<rpm>0.00</rpm>
</extensions>
</trkpt>
<trkpt lat="30.615627289" lon="34.886081696">
<ele>493.359375</ele>
<time>2013-11-22T13:23:09Z</time>
<speed>3.130000</speed>
<extensions>
<speed>3.1</speed>
<temp>0.00</temp>
<bpm>0</bpm>
<rpm>0.00</rpm>
</extensions>
</trkpt>
<trkpt lat="30.615539551" lon="34.885948181">
<ele>492.914063</ele>
<time>2013-11-22T13:23:14Z</time>
<speed>2.620000</speed>
<extensions>
<speed>2.6</speed>
<temp>0.00</temp>
<bpm>0</bpm>
<rpm>0.00</rpm>
</extensions>
</trkpt>
<trkpt lat="30.615459442" lon="34.885883331">
<ele>491.390625</ele>
<time>2013-11-22T13:23:19Z</time>
<speed>2.410000</speed>
<extensions>
<speed>2.4</speed>
<temp>0.00</temp>
<bpm>0</bpm>
<rpm>0.00</rpm>
</extensions>
</trkpt>
<trkpt lat="30.615346909" lon="34.885814667">
<ele>489.390625</ele>
<time>2013-11-22T13:23:24Z</time>
<speed>3.310000</speed>
<extensions>
<speed>3.3</speed>
<temp>0.00</temp>
<bpm>0</bpm>
<rpm>0.00</rpm>
</extensions>
</trkpt>
<trkpt lat="30.615196228" lon="34.885715485">
<ele>487.437500</ele>
<time>2013-11-22T13:23:29Z</time>
<speed>4.420000</speed>
<extensions>
<speed>4.4</speed>
<temp>0.00</temp>
<bpm>0</bpm>
<rpm>0.00</rpm>
</extensions>
</trkpt>
<trkpt lat="30.615011215" lon="34.885559082">
<ele>486.000000</ele>
<time>2013-11-22T13:23:34Z</time>
<speed>6.340000</speed>
<extensions>
<speed>6.3</speed>
<temp>0.00</temp>
<bpm>0</bpm>
<rpm>0.00</rpm>
</extensions>
</trkpt>
<trkpt lat="30.614814758" lon="34.885368347">
<ele>485.179688</ele>
<time>2013-11-22T13:23:39Z</time>
<speed>5.340000</speed>
<extensions>
<speed>5.3</speed>
<temp>0.00</temp>
<bpm>0</bpm>
<rpm>0.00</rpm>
</extensions>
</trkpt>
<trkpt lat="30.614641190" lon="34.885196686">
<ele>484.929688</ele>
<time>2013-11-22T13:23:44Z</time>
<speed>5.090000</speed>
<extensions>
<speed>5.1</speed>
<temp>0.00</temp>
<bpm>0</bpm>
<rpm>0.00</rpm>
</extensions>
</trkpt>
<trkpt lat="30.614446640" lon="34.885028839">
<ele>483.390625</ele>
<time>2013-11-22T13:23:49Z</time>
<speed>5.740000</speed>
<extensions>
<speed>5.7</speed>
<temp>0.00</temp>
<bpm>0</bpm>
<rpm>0.00</rpm>
</extensions>
</trkpt>
<trkpt lat="30.614271164" lon="34.884868622">
<ele>483.140625</ele>
<time>2013-11-22T13:23:54Z</time>
<speed>3.900000</speed>
<extensions>
<speed>3.9</speed>
<temp>0.00</temp>
<bpm>0</bpm>
<rpm>0.00</rpm>
</extensions>
</trkpt>
<trkpt lat="30.614139557" lon="34.884696960">
<ele>484.421875</ele>
<time>2013-11-22T13:23:59Z</time>
<speed>4.230000</speed>
<extensions>
<speed>4.2</speed>
<temp>0.00</temp>
<bpm>0</bpm>
<rpm>0.00</rpm>
</extensions>
</trkpt>
<trkpt lat="30.614105225" lon="34.884506226">
<ele>486.718750</ele>
<time>2013-11-22T13:24:04Z</time>
<speed>2.680000</speed>
<extensions>
<speed>2.7</speed>
<temp>0.00</temp>
<bpm>0</bpm>
<rpm>0.00</rpm>
</extensions>
</trkpt>
<trkpt lat="30.614097595" lon="34.884365082">
<ele>489.078125</ele>
<time>2013-11-22T13:24:09Z</time>
<speed>2.630000</speed>
<extensions>
<speed>2.6</speed>
<temp>0.00</temp>
<bpm>0</bpm>
<rpm>0.00</rpm>
</extensions>
</trkpt>
<trkpt lat="30.614091873" lon="34.884231567">
<ele>491.468750</ele>
<time>2013-11-22T13:24:14Z</time>
<speed>2.620000</speed>
<extensions>
<speed>2.6</speed>
<temp>0.00</temp>
<bpm>0</bpm>
<rpm>0.00</rpm>
</extensions>
</trkpt>
<trkpt lat="30.614091873" lon="34.884075165">
<ele>493.554688</ele>
<time>2013-11-22T13:24:19Z</time>
<speed>3.310000</speed>
<extensions>
<speed>3.3</speed>
<temp>0.00</temp>
<bpm>0</bpm>
<rpm>0.00</rpm>
</extensions>
</trkpt>
<trkpt lat="30.614086151" lon="34.883945465">
<ele>495.171875</ele>
<time>2013-11-22T13:24:24Z</time>
<speed>2.520000</speed>
<extensions>
<speed>2.5</speed>
<temp>0.00</temp>
<bpm>0</bpm>
<rpm>0.00</rpm>
</extensions>
</trkpt>
<trkpt lat="30.614070892" lon="34.883789063">
<ele>497.156250</ele>
<time>2013-11-22T13:24:29Z</time>
<speed>2.820000</speed>
<extensions>
<speed>2.8</speed>
<temp>0.00</temp>
<bpm>0</bpm>
<rpm>0.00</rpm>
</extensions>
</trkpt>
<trkpt lat="30.614059448" lon="34.883674622">
<ele>498.335938</ele>
<time>2013-11-22T13:24:34Z</time>
<speed>2.390000</speed>
<extensions>
<speed>2.4</speed>
<temp>0.00</temp>
<bpm>0</bpm>
<rpm>0.00</rpm>
</extensions>
</trkpt>
<trkpt lat="30.614009857" lon="34.883499146">
<ele>497.789063</ele>
<time>2013-11-22T13:24:39Z</time>
<speed>3.660000</speed>
<extensions>
<speed>3.7</speed>
<temp>0.00</temp>
<bpm>0</bpm>
<rpm>0.00</rpm>
</extensions>
</trkpt>
<trkpt lat="30.613931656" lon="34.883369446">
<ele>498.765625</ele>
<time>2013-11-22T13:24:44Z</time>
<speed>3.170000</speed>
<extensions>
<speed>3.2</speed>
<temp>0.00</temp>
<bpm>0</bpm>
<rpm>0.00</rpm>
</extensions>
</trkpt>
<trkpt lat="30.613838196" lon="34.883197784">
<ele>497.617188</ele>
<time>2013-11-22T13:24:49Z</time>
<speed>4.200000</speed>
<extensions>
<speed>4.2</speed>
<temp>0.00</temp>
<bpm>0</bpm>
<rpm>0.00</rpm>
</extensions>
</trkpt>
<trkpt lat="30.613761902" lon="34.882987976">
<ele>496.367188</ele>
<time>2013-11-22T13:24:54Z</time>
<speed>4.930000</speed>
<extensions>
<speed>4.9</speed>
<temp>0.00</temp>
<bpm>0</bpm>
<rpm>0.00</rpm>
</extensions>
</trkpt>
<trkpt lat="30.613685608" lon="34.882774353">
<ele>496.726563</ele>
<time>2013-11-22T13:24:59Z</time>
<speed>4.270000</speed>
<extensions>
<speed>4.3</speed>
<temp>0.00</temp>
<bpm>0</bpm>
<rpm>0.00</rpm>
</extensions>
</trkpt>
<trkpt lat="30.613571167" lon="34.882591248">
<ele>497.289063</ele>
<time>2013-11-22T13:25:04Z</time>
<speed>4.510000</speed>
<extensions>
<speed>4.5</speed>
<temp>0.00</temp>
<bpm>0</bpm>
<rpm>0.00</rpm>
</extensions>
</trkpt>
<trkpt lat="30.613466263" lon="34.882411957">
<ele>497.812500</ele>
<time>2013-11-22T13:25:09Z</time>
<speed>3.560000</speed>
<extensions>
<speed>3.6</speed>
<temp>0.00</temp>
<bpm>0</bpm>
<rpm>0.00</rpm>
</extensions>
</trkpt>
<trkpt lat="30.613409042" lon="34.882202148">
<ele>498.656250</ele>
<time>2013-11-22T13:25:14Z</time>
<speed>4.220000</speed>
<extensions>
<speed>4.2</speed>
<temp>0.00</temp>
<bpm>0</bpm>
<rpm>0.00</rpm>
</extensions>
</trkpt>
<trkpt lat="30.613332748" lon="34.881977081">
<ele>499.289063</ele>
<time>2013-11-22T13:25:19Z</time>
<speed>4.120000</speed>
<extensions>
<speed>4.1</speed>
<temp>0.00</temp>
<bpm>0</bpm>
<rpm>0.00</rpm>
</extensions>
</trkpt>
<trkpt lat="30.613265991" lon="34.881767273">
<ele>501.265625</ele>
<time>2013-11-22T13:25:24Z</time>
<speed>4.420000</speed>
<extensions>
<speed>4.4</speed>
<temp>0.00</temp>
<bpm>0</bpm>
<rpm>0.00</rpm>
</extensions>
</trkpt>
<trkpt lat="30.613197327" lon="34.881549835">
<ele>503.062500</ele>
<time>2013-11-22T13:25:29Z</time>
<speed>4.370000</speed>
<extensions>
<speed>4.4</speed>
<temp>0.00</temp>
<bpm>0</bpm>
<rpm>0.00</rpm>
</extensions>
</trkpt>
<trkpt lat="30.613103867" lon="34.881359100">
<ele>501.492188</ele>
<time>2013-11-22T13:25:34Z</time>
<speed>4.800000</speed>
<extensions>
<speed>4.8</speed>
<temp>0.00</temp>
<bpm>0</bpm>
<rpm>0.00</rpm>
</extensions>
</trkpt>
<trkpt lat="30.612943649" lon="34.881153107">
<ele>499.171875</ele>
<time>2013-11-22T13:25:39Z</time>
<speed>6.020000</speed>
<extensions>
<speed>6.0</speed>
<temp>0.00</temp>
<bpm>0</bpm>
<rpm>0.00</rpm>
</extensions>
</trkpt>
<trkpt lat="30.612792969" lon="34.880954742">
<ele>499.593750</ele>
<time>2013-11-22T13:25:44Z</time>
<speed>4.200000</speed>
<extensions>
<speed>4.2</speed>
<temp>0.00</temp>
<bpm>0</bpm>
<rpm>0.00</rpm>
</extensions>
</trkpt>
<trkpt lat="30.612697601" lon="34.880756378">
<ele>499.476563</ele>
<time>2013-11-22T13:25:49Z</time>
<speed>4.510000</speed>
<extensions>
<speed>4.5</speed>
<temp>0.00</temp>
<bpm>0</bpm>
<rpm>0.00</rpm>
</extensions>
</trkpt>
<trkpt lat="30.612604141" lon="34.880561829">
<ele>498.117188</ele>
<time>2013-11-22T13:25:54Z</time>
<speed>4.200000</speed>
<extensions>
<speed>4.2</speed>
<temp>0.00</temp>
<bpm>0</bpm>
<rpm>0.00</rpm>
</extensions>
</trkpt>
<trkpt lat="30.612501144" lon="34.880401611">
<ele>497.109375</ele>
<time>2013-11-22T13:25:59Z</time>
<speed>4.230000</speed>
<extensions>
<speed>4.2</speed>
<temp>0.00</temp>
<bpm>0</bpm>
<rpm>0.00</rpm>
</extensions>
</trkpt>
<trkpt lat="30.612384796" lon="34.880237579">
<ele>495.320313</ele>
<time>2013-11-22T13:26:04Z</time>
<speed>4.090000</speed>
<extensions>
<speed>4.1</speed>
<temp>0.00</temp>
<bpm>0</bpm>
<rpm>0.00</rpm>
</extensions>
</trkpt>
<trkpt lat="30.612251282" lon="34.880088806">
<ele>495.242188</ele>
<time>2013-11-22T13:26:09Z</time>
<speed>3.980000</speed>
<extensions>
<speed>4.0</speed>
<temp>0.00</temp>
<bpm>0</bpm>
<rpm>0.00</rpm>
</extensions>
</trkpt>
<trkpt lat="30.612148285" lon="34.879917145">
<ele>495.632813</ele>
<time>2013-11-22T13:26:14Z</time>
<speed>3.980000</speed>
<extensions>
<speed>4.0</speed>
<temp>0.00</temp>
<bpm>0</bpm>
<rpm>0.00</rpm>
</extensions>
</trkpt>
<trkpt lat="30.612047195" lon="34.879737854">
<ele>497.164063</ele>
<time>2013-11-22T13:26:19Z</time>
<speed>4.020000</speed>
<extensions>
<speed>4.0</speed>
<temp>0.00</temp>
<bpm>0</bpm>
<rpm>0.00</rpm>
</extensions>
</trkpt>
<trkpt lat="30.611932755" lon="34.879562378">
<ele>498.851563</ele>
<time>2013-11-22T13:26:24Z</time>
<speed>4.410000</speed>
<extensions>
<speed>4.4</speed>
<temp>0.00</temp>
<bpm>0</bpm>
<rpm>0.00</rpm>
</extensions>
</trkpt>
<trkpt lat="30.611780167" lon="34.879440308">
<ele>500.257813</ele>
<time>2013-11-22T13:26:29Z</time>
<speed>3.920000</speed>
<extensions>
<speed>3.9</speed>
<temp>0.00</temp>
<bpm>0</bpm>
<rpm>0.00</rpm>
</extensions>
</trkpt>
<trkpt lat="30.611673355" lon="34.879375458">
<ele>500.960938</ele>
<time>2013-11-22T13:26:34Z</time>
<speed>2.260000</speed>
<extensions>
<speed>2.3</speed>
<temp>0.00</temp>
<bpm>0</bpm>
<rpm>0.00</rpm>
</extensions>
</trkpt>
<trkpt lat="30.611604691" lon="34.879268646">
<ele>499.250000</ele>
<time>2013-11-22T13:26:39Z</time>
<speed>2.860000</speed>
<extensions>
<speed>2.9</speed>
<temp>0.00</temp>
<bpm>0</bpm>
<rpm>0.00</rpm>
</extensions>
</trkpt>
<trkpt lat="30.611499786" lon="34.879138947">
<ele>499.031250</ele>
<time>2013-11-22T13:26:44Z</time>
<speed>3.160000</speed>
<extensions>
<speed>3.2</speed>
<temp>0.00</temp>
<bpm>0</bpm>
<rpm>0.00</rpm>
</extensions>
</trkpt>
<trkpt lat="30.611413956" lon="34.879028320">
<ele>498.351563</ele>
<time>2013-11-22T13:26:49Z</time>
<speed>3.150000</speed>
<extensions>
<speed>3.2</speed>
<temp>0.00</temp>
<bpm>0</bpm>
<rpm>0.00</rpm>
</extensions>
</trkpt>
<trkpt lat="30.611331940" lon="34.878883362">
<ele>498.039063</ele>
<time>2013-11-22T13:26:54Z</time>
<speed>2.920000</speed>
<extensions>
<speed>2.9</speed>
<temp>0.00</temp>
<bpm>0</bpm>
<rpm>0.00</rpm>
</extensions>
</trkpt>
<trkpt lat="30.611230850" lon="34.878765106">
<ele>497.015625</ele>
<time>2013-11-22T13:26:59Z</time>
<speed>3.750000</speed>
<extensions>
<speed>3.8</speed>
<temp>0.00</temp>
<bpm>0</bpm>
<rpm>0.00</rpm>
</extensions>
</trkpt>
<trkpt lat="30.611122131" lon="34.878662109">
<ele>494.828125</ele>
<time>2013-11-22T13:27:04Z</time>
<speed>2.530000</speed>
<extensions>
<speed>2.5</speed>
<temp>0.00</temp>
<bpm>0</bpm>
<rpm>0.00</rpm>
</extensions>
</trkpt>
<trkpt lat="30.611009598" lon="34.878562927">
<ele>493.203125</ele>
<time>2013-11-22T13:27:09Z</time>
<speed>3.480000</speed>
<extensions>
<speed>3.5</speed>
<temp>0.00</temp>
<bpm>0</bpm>
<rpm>0.00</rpm>
</extensions>
</trkpt>
<trkpt lat="30.610887527" lon="34.878440857">
<ele>493.835938</ele>
<time>2013-11-22T13:27:14Z</time>
<speed>3.420000</speed>
<extensions>
<speed>3.4</speed>
<temp>0.00</temp>
<bpm>0</bpm>
<rpm>0.00</rpm>
</extensions>
</trkpt>
<trkpt lat="30.610774994" lon="34.878314972">
<ele>494.640625</ele>
<time>2013-11-22T13:27:19Z</time>
<speed>3.690000</speed>
<extensions>
<speed>3.7</speed>
<temp>0.00</temp>
<bpm>0</bpm>
<rpm>0.00</rpm>
</extensions>
</trkpt>
<trkpt lat="30.610675812" lon="34.878177643">
<ele>494.343750</ele>
<time>2013-11-22T13:27:24Z</time>
<speed>2.960000</speed>
<extensions>
<speed>3.0</speed>
<temp>0.00</temp>
<bpm>0</bpm>
<rpm>0.00</rpm>
</extensions>
</trkpt>
<trkpt lat="30.610569000" lon="34.878036499">
<ele>497.406250</ele>
<time>2013-11-22T13:27:29Z</time>
<speed>3.600000</speed>
<extensions>
<speed>3.6</speed>
<temp>0.00</temp>
<bpm>0</bpm>
<rpm>0.00</rpm>
</extensions>
</trkpt>
<trkpt lat="30.610475540" lon="34.877895355">
<ele>497.101563</ele>
<time>2013-11-22T13:27:34Z</time>
<speed>2.950000</speed>
<extensions>
<speed>2.9</speed>
<temp>0.00</temp>
<bpm>0</bpm>
<rpm>0.00</rpm>
</extensions>
</trkpt>
<trkpt lat="30.610401154" lon="34.877758026">
<ele>497.796875</ele>
<time>2013-11-22T13:27:39Z</time>
<speed>3.470000</speed>
<extensions>
<speed>3.5</speed>
<temp>0.00</temp>
<bpm>0</bpm>
<rpm>0.00</rpm>
</extensions>
</trkpt>
<trkpt lat="30.610372543" lon="34.877525330">
<ele>498.500000</ele>
<time>2013-11-22T13:27:44Z</time>
<speed>5.000000</speed>
<extensions>
<speed>5.0</speed>
<temp>0.00</temp>
<bpm>0</bpm>
<rpm>0.00</rpm>
</extensions>
</trkpt>
<trkpt lat="30.610363007" lon="34.877250671">
<ele>498.984375</ele>
<time>2013-11-22T13:27:49Z</time>
<speed>5.020000</speed>
<extensions>
<speed>5.0</speed>
<temp>0.00</temp>
<bpm>0</bpm>
<rpm>0.00</rpm>
</extensions>
</trkpt>
<trkpt lat="30.610321045" lon="34.877014160">
<ele>501.328125</ele>
<time>2013-11-22T13:27:54Z</time>
<speed>3.820000</speed>
<extensions>
<speed>3.8</speed>
<temp>0.00</temp>
<bpm>0</bpm>
<rpm>0.00</rpm>
</extensions>
</trkpt>
<trkpt lat="30.610277176" lon="34.876754761">
<ele>502.101563</ele>
<time>2013-11-22T13:27:59Z</time>
<speed>5.040000</speed>
<extensions>
<speed>5.0</speed>
<temp>0.00</temp>
<bpm>0</bpm>
<rpm>0.00</rpm>
</extensions>
</trkpt>
<trkpt lat="30.610214233" lon="34.876533508">
<ele>502.007813</ele>
<time>2013-11-22T13:28:04Z</time>
<speed>4.000000</speed>
<extensions>
<speed>4.0</speed>
<temp>0.00</temp>
<bpm>0</bpm>
<rpm>0.00</rpm>
</extensions>
</trkpt>
<trkpt lat="30.610115051" lon="34.876361847">
<ele>503.140625</ele>
<time>2013-11-22T13:28:09Z</time>
<speed>4.290000</speed>
<extensions>
<speed>4.3</speed>
<temp>0.00</temp>
<bpm>0</bpm>
<rpm>0.00</rpm>
</extensions>
</trkpt>
<trkpt lat="30.609979630" lon="34.876194000">
<ele>502.468750</ele>
<time>2013-11-22T13:28:14Z</time>
<speed>4.520000</speed>
<extensions>
<speed>4.5</speed>
<temp>0.00</temp>
<bpm>0</bpm>
<rpm>0.00</rpm>
</extensions>
</trkpt>
<trkpt lat="30.609870911" lon="34.876029968">
<ele>500.554688</ele>
<time>2013-11-22T13:28:19Z</time>
<speed>4.420000</speed>
<extensions>
<speed>4.4</speed>
<temp>0.00</temp>
<bpm>0</bpm>
<rpm>0.00</rpm>
</extensions>
</trkpt>
<trkpt lat="30.609752655" lon="34.875804901">
<ele>500.554688</ele>
<time>2013-11-22T13:28:24Z</time>
<speed>5.360000</speed>
<extensions>
<speed>5.4</speed>
<temp>0.00</temp>
<bpm>0</bpm>
<rpm>0.00</rpm>
</extensions>
</trkpt>
<trkpt lat="30.609609604" lon="34.875625610">
<ele>500.218750</ele>
<time>2013-11-22T13:28:29Z</time>
<speed>4.010000</speed>
<extensions>
<speed>4.0</speed>
<temp>0.00</temp>
<bpm>0</bpm>
<rpm>0.00</rpm>
</extensions>
</trkpt>
<trkpt lat="30.609460831" lon="34.875526428">
<ele>498.398438</ele>
<time>2013-11-22T13:28:34Z</time>
<speed>4.300000</speed>
<extensions>
<speed>4.3</speed>
<temp>0.00</temp>
<bpm>0</bpm>
<rpm>0.00</rpm>
</extensions>
</trkpt>
<trkpt lat="30.609283447" lon="34.875396729">
<ele>495.179688</ele>
<time>2013-11-22T13:28:39Z</time>
<speed>5.020000</speed>
<extensions>
<speed>5.0</speed>
<temp>0.00</temp>
<bpm>0</bpm>
<rpm>0.00</rpm>
</extensions>
</trkpt>
<trkpt lat="30.609111786" lon="34.875267029">
<ele>495.335938</ele>
<time>2013-11-22T13:28:44Z</time>
<speed>3.810000</speed>
<extensions>
<speed>3.8</speed>
<temp>0.00</temp>
<bpm>0</bpm>
<rpm>0.00</rpm>
</extensions>
</trkpt>
<trkpt lat="30.608980179" lon="34.875198364">
<ele>496.187500</ele>
<time>2013-11-22T13:28:49Z</time>
<speed>2.250000</speed>
<extensions>
<speed>2.3</speed>
<temp>0.00</temp>
<bpm>0</bpm>
<rpm>0.00</rpm>
</extensions>
</trkpt>
<trkpt lat="30.608884811" lon="34.875137329">
<ele>494.007813</ele>
<time>2013-11-22T13:28:54Z</time>
<speed>3.000000</speed>
<extensions>
<speed>3.0</speed>
<temp>0.00</temp>
<bpm>0</bpm>
<rpm>0.00</rpm>
</extensions>
</trkpt>
<trkpt lat="30.608732224" lon="34.875068665">
<ele>493.929688</ele>
<time>2013-11-22T13:28:59Z</time>
<speed>3.780000</speed>
<extensions>
<speed>3.8</speed>
<temp>0.00</temp>
<bpm>0</bpm>
<rpm>0.00</rpm>
</extensions>
</trkpt>
<trkpt lat="30.608554840" lon="34.874961853">
<ele>493.601563</ele>
<time>2013-11-22T13:29:04Z</time>
<speed>4.170000</speed>
<extensions>
<speed>4.2</speed>
<temp>0.00</temp>
<bpm>0</bpm>
<rpm>0.00</rpm>
</extensions>
</trkpt>
<trkpt lat="30.608381271" lon="34.874851227">
<ele>491.210938</ele>
<time>2013-11-22T13:29:09Z</time>
<speed>3.920000</speed>
<extensions>
<speed>3.9</speed>
<temp>0.00</temp>
<bpm>0</bpm>
<rpm>0.00</rpm>
</extensions>
</trkpt>
<trkpt lat="30.608238220" lon="34.874740601">
<ele>490.789063</ele>
<time>2013-11-22T13:29:14Z</time>
<speed>4.240000</speed>
<extensions>
<speed>4.2</speed>
<temp>0.00</temp>
<bpm>0</bpm>
<rpm>0.00</rpm>
</extensions>
</trkpt>
<trkpt lat="30.608060837" lon="34.874637604">
<ele>491.539063</ele>
<time>2013-11-22T13:29:19Z</time>
<speed>3.640000</speed>
<extensions>
<speed>3.6</speed>
<temp>0.00</temp>
<bpm>0</bpm>
<rpm>0.00</rpm>
</extensions>
</trkpt>
<trkpt lat="30.607919693" lon="34.874557495">
<ele>492.453125</ele>
<time>2013-11-22T13:29:24Z</time>
<speed>3.500000</speed>
<extensions>
<speed>3.5</speed>
<temp>0.00</temp>
<bpm>0</bpm>
<rpm>0.00</rpm>
</extensions>
</trkpt>
<trkpt lat="30.607770920" lon="34.874469757">
<ele>493.132813</ele>
<time>2013-11-22T13:29:29Z</time>
<speed>3.590000</speed>
<extensions>
<speed>3.6</speed>
<temp>0.00</temp>
<bpm>0</bpm>
<rpm>0.00</rpm>
</extensions>
</trkpt>
<trkpt lat="30.607606888" lon="34.874389648">
<ele>493.546875</ele>
<time>2013-11-22T13:29:34Z</time>
<speed>2.900000</speed>
<extensions>
<speed>2.9</speed>
<temp>0.00</temp>
<bpm>0</bpm>
<rpm>0.00</rpm>
</extensions>
</trkpt>
<trkpt lat="30.607521057" lon="34.874359131">
<ele>493.093750</ele>
<time>2013-11-22T13:29:39Z</time>
<speed>1.540000</speed>
<extensions>
<speed>1.5</speed>
<temp>0.00</temp>
<bpm>0</bpm>
<rpm>0.00</rpm>
</extensions>
</trkpt>
<trkpt lat="30.607425690" lon="34.874328613">
<ele>493.117188</ele>
<time>2013-11-22T13:29:44Z</time>
<speed>1.900000</speed>
<extensions>
<speed>1.9</speed>
<temp>0.00</temp>
<bpm>0</bpm>
<rpm>0.00</rpm>
</extensions>
</trkpt>
<trkpt lat="30.607305527" lon="34.874290466">
<ele>496.968750</ele>
<time>2013-11-22T13:29:49Z</time>
<speed>2.010000</speed>
<extensions>
<speed>2.0</speed>
<temp>0.00</temp>
<bpm>0</bpm>
<rpm>0.00</rpm>
</extensions>
</trkpt>
<trkpt lat="30.607198715" lon="34.874282837">
<ele>499.601563</ele>
<time>2013-11-22T13:29:54Z</time>
<speed>1.890000</speed>
<extensions>
<speed>1.9</speed>
<temp>0.00</temp>
<bpm>0</bpm>
<rpm>0.00</rpm>
</extensions>
</trkpt>
<trkpt lat="30.607107162" lon="34.874275208">
<ele>499.546875</ele>
<time>2013-11-22T13:29:59Z</time>
<speed>2.200000</speed>
<extensions>
<speed>2.2</speed>
<temp>0.00</temp>
<bpm>0</bpm>
<rpm>0.00</rpm>
</extensions>
</trkpt>
<trkpt lat="30.607009888" lon="34.874275208">
<ele>500.531250</ele>
<time>2013-11-22T13:30:04Z</time>
<speed>2.270000</speed>
<extensions>
<speed>2.3</speed>
<temp>0.00</temp>
<bpm>0</bpm>
<rpm>0.00</rpm>
</extensions>
</trkpt>
<trkpt lat="30.606920242" lon="34.874271393">
<ele>501.140625</ele>
<time>2013-11-22T13:30:09Z</time>
<speed>2.330000</speed>
<extensions>
<speed>2.3</speed>
<temp>0.00</temp>
<bpm>0</bpm>
<rpm>0.00</rpm>
</extensions>
</trkpt>
<trkpt lat="30.606834412" lon="34.874259949">
<ele>500.242188</ele>
<time>2013-11-22T13:30:14Z</time>
<speed>2.210000</speed>
<extensions>
<speed>2.2</speed>
<temp>0.00</temp>
<bpm>0</bpm>
<rpm>0.00</rpm>
</extensions>
</trkpt>
<trkpt lat="30.606727600" lon="34.874248505">
<ele>500.031250</ele>
<time>2013-11-22T13:30:19Z</time>
<speed>2.400000</speed>
<extensions>
<speed>2.4</speed>
<temp>0.00</temp>
<bpm>0</bpm>
<rpm>0.00</rpm>
</extensions>
</trkpt>
<trkpt lat="30.606624603" lon="34.874237061">
<ele>499.914063</ele>
<time>2013-11-22T13:30:24Z</time>
<speed>2.750000</speed>
<extensions>
<speed>2.7</speed>
<temp>0.00</temp>
<bpm>0</bpm>
<rpm>0.00</rpm>
</extensions>
</trkpt>
<trkpt lat="30.606513977" lon="34.874221802">
<ele>500.710938</ele>
<time>2013-11-22T13:30:29Z</time>
<speed>2.290000</speed>
<extensions>
<speed>2.3</speed>
<temp>0.00</temp>
<bpm>0</bpm>
<rpm>0.00</rpm>
</extensions>
</trkpt>
<trkpt lat="30.606391907" lon="34.874206543">
<ele>500.726563</ele>
<time>2013-11-22T13:30:34Z</time>
<speed>2.690000</speed>
<extensions>
<speed>2.7</speed>
<temp>0.00</temp>
<bpm>0</bpm>
<rpm>0.00</rpm>
</extensions>
</trkpt>
<trkpt lat="30.606285095" lon="34.874202728">
<ele>500.789063</ele>
<time>2013-11-22T13:30:39Z</time>
<speed>2.920000</speed>
<extensions>
<speed>2.9</speed>
<temp>0.00</temp>
<bpm>0</bpm>
<rpm>0.00</rpm>
</extensions>
</trkpt>
<trkpt lat="30.606164932" lon="34.874206543">
<ele>500.859375</ele>
<time>2013-11-22T13:30:44Z</time>
<speed>2.120000</speed>
<extensions>
<speed>2.1</speed>
<temp>0.00</temp>
<bpm>0</bpm>
<rpm>0.00</rpm>
</extensions>
</trkpt>
<trkpt lat="30.606054306" lon="34.874195099">
<ele>502.289063</ele>
<time>2013-11-22T13:30:49Z</time>
<speed>2.110000</speed>
<extensions>
<speed>2.1</speed>
<temp>0.00</temp>
<bpm>0</bpm>
<rpm>0.00</rpm>
</extensions>
</trkpt>
<trkpt lat="30.605987549" lon="34.874191284">
<ele>501.984375</ele>
<time>2013-11-22T13:30:54Z</time>
<speed>0.900000</speed>
<extensions>
<speed>0.9</speed>
<temp>0.00</temp>
<bpm>0</bpm>
<rpm>0.00</rpm>
</extensions>
</trkpt>
<trkpt lat="30.605932236" lon="34.874191284">
<ele>502.437500</ele>
<time>2013-11-22T13:30:59Z</time>
<speed>0.920000</speed>
<extensions>
<speed>0.9</speed>
<temp>0.00</temp>
<bpm>0</bpm>
<rpm>0.00</rpm>
</extensions>
</trkpt>
<trkpt lat="30.605878830" lon="34.874210358">
<ele>502.460938</ele>
<time>2013-11-22T13:31:04Z</time>
<speed>1.190000</speed>
<extensions>
<speed>1.2</speed>
<temp>0.00</temp>
<bpm>0</bpm>
<rpm>0.00</rpm>
</extensions>
</trkpt>
<trkpt lat="30.605812073" lon="34.874229431">
<ele>502.757813</ele>
<time>2013-11-22T13:31:09Z</time>
<speed>1.630000</speed>
<extensions>
<speed>1.6</speed>
<temp>0.00</temp>
<bpm>0</bpm>
<rpm>0.00</rpm>
</extensions>
</trkpt>
<trkpt lat="30.605710983" lon="34.874244690">
<ele>502.859375</ele>
<time>2013-11-22T13:31:14Z</time>
<speed>2.900000</speed>
<extensions>
<speed>2.9</speed>
<temp>0.00</temp>
<bpm>0</bpm>
<rpm>0.00</rpm>
</extensions>
</trkpt>
<trkpt lat="30.605575562" lon="34.874252319">
<ele>502.273438</ele>
<time>2013-11-22T13:31:19Z</time>
<speed>2.130000</speed>
<extensions>
<speed>2.1</speed>
<temp>0.00</temp>
<bpm>0</bpm>
<rpm>0.00</rpm>
</extensions>
</trkpt>
<trkpt lat="30.605495453" lon="34.874248505">
<ele>502.250000</ele>
<time>2013-11-22T13:31:24Z</time>
<speed>1.590000</speed>
<extensions>
<speed>1.6</speed>
<temp>0.00</temp>
<bpm>0</bpm>
<rpm>0.00</rpm>
</extensions>
</trkpt>
<trkpt lat="30.605426788" lon="34.874252319">
<ele>503.437500</ele>
<time>2013-11-22T13:31:29Z</time>
<speed>1.360000</speed>
<extensions>
<speed>1.4</speed>
<temp>0.00</temp>
<bpm>0</bpm>
<rpm>0.00</rpm>
</extensions>
</trkpt>
<trkpt lat="30.605363846" lon="34.874233246">
<ele>505.390625</ele>
<time>2013-11-22T13:31:34Z</time>
<speed>1.760000</speed>
<extensions>
<speed>1.8</speed>
<temp>0.00</temp>
<bpm>0</bpm>
<rpm>0.00</rpm>
</extensions>
</trkpt>
<trkpt lat="30.605272293" lon="34.874233246">
<ele>505.320313</ele>
<time>2013-11-22T13:31:39Z</time>
<speed>2.100000</speed>
<extensions>
<speed>2.1</speed>
<temp>0.00</temp>
<bpm>0</bpm>
<rpm>0.00</rpm>
</extensions>
</trkpt>
<trkpt lat="30.605178833" lon="34.874217987">
<ele>506.312500</ele>
<time>2013-11-22T13:31:44Z</time>
<speed>2.070000</speed>
<extensions>
<speed>2.1</speed>
<temp>0.00</temp>
<bpm>0</bpm>
<rpm>0.00</rpm>
</extensions>
</trkpt>
<trkpt lat="30.605081558" lon="34.874221802">
<ele>507.070313</ele>
<time>2013-11-22T13:31:49Z</time>
<speed>1.890000</speed>
<extensions>
<speed>1.9</speed>
<temp>0.00</temp>
<bpm>0</bpm>
<rpm>0.00</rpm>
</extensions>
</trkpt>
<trkpt lat="30.604991913" lon="34.874217987">
<ele>508.132813</ele>
<time>2013-11-22T13:31:54Z</time>
<speed>2.030000</speed>
<extensions>
<speed>2.0</speed>
<temp>0.00</temp>
<bpm>0</bpm>
<rpm>0.00</rpm>
</extensions>
</trkpt>
<trkpt lat="30.604887009" lon="34.874221802">
<ele>508.523438</ele>
<time>2013-11-22T13:31:59Z</time>
<speed>2.100000</speed>
<extensions>
<speed>2.1</speed>
<temp>0.00</temp>
<bpm>0</bpm>
<rpm>0.00</rpm>
</extensions>
</trkpt>
<trkpt lat="30.604784012" lon="34.874214172">
<ele>510.078125</ele>
<time>2013-11-22T13:32:04Z</time>
<speed>2.270000</speed>
<extensions>
<speed>2.3</speed>
<temp>0.00</temp>
<bpm>0</bpm>
<rpm>0.00</rpm>
</extensions>
</trkpt>
<trkpt lat="30.604684830" lon="34.874217987">
<ele>509.765625</ele>
<time>2013-11-22T13:32:09Z</time>
<speed>2.380000</speed>
<extensions>
<speed>2.4</speed>
<temp>0.00</temp>
<bpm>0</bpm>
<rpm>0.00</rpm>
</extensions>
</trkpt>
<trkpt lat="30.604591370" lon="34.874206543">
<ele>511.085938</ele>
<time>2013-11-22T13:32:14Z</time>
<speed>1.310000</speed>
<extensions>
<speed>1.3</speed>
<temp>0.00</temp>
<bpm>0</bpm>
<rpm>0.00</rpm>
</extensions>
</trkpt>
<trkpt lat="30.604539871" lon="34.874206543">
<ele>510.921875</ele>
<time>2013-11-22T13:32:19Z</time>
<speed>1.660000</speed>
<extensions>
<speed>1.7</speed>
<temp>0.00</temp>
<bpm>0</bpm>
<rpm>0.00</rpm>
</extensions>
</trkpt>
<trkpt lat="30.604442596" lon="34.874187469">
<ele>511.421875</ele>
<time>2013-11-22T13:32:24Z</time>
<speed>2.890000</speed>
<extensions>
<speed>2.9</speed>
<temp>0.00</temp>
<bpm>0</bpm>
<rpm>0.00</rpm>
</extensions>
</trkpt>
<trkpt lat="30.604339600" lon="34.874122620">
<ele>512.625000</ele>
<time>2013-11-22T13:32:29Z</time>
<speed>3.100000</speed>
<extensions>
<speed>3.1</speed>
<temp>0.00</temp>
<bpm>0</bpm>
<rpm>0.00</rpm>
</extensions>
</trkpt>
<trkpt lat="30.604213715" lon="34.874019623">
<ele>513.531250</ele>
<time>2013-11-22T13:32:34Z</time>
<speed>3.670000</speed>
<extensions>
<speed>3.7</speed>
<temp>0.00</temp>
<bpm>0</bpm>
<rpm>0.00</rpm>
</extensions>
</trkpt>
<trkpt lat="30.604080200" lon="34.873886108">
<ele>514.578125</ele>
<time>2013-11-22T13:32:39Z</time>
<speed>4.250000</speed>
<extensions>
<speed>4.3</speed>
<temp>0.00</temp>
<bpm>0</bpm>
<rpm>0.00</rpm>
</extensions>
</trkpt>
<trkpt lat="30.603933334" lon="34.873737335">
<ele>514.703125</ele>
<time>2013-11-22T13:32:44Z</time>
<speed>4.380000</speed>
<extensions>
<speed>4.4</speed>
<temp>0.00</temp>
<bpm>0</bpm>
<rpm>0.00</rpm>
</extensions>
</trkpt>
<trkpt lat="30.603786469" lon="34.873558044">
<ele>516.546875</ele>
<time>2013-11-22T13:32:49Z</time>
<speed>4.760000</speed>
<extensions>
<speed>4.8</speed>
<temp>0.00</temp>
<bpm>0</bpm>
<rpm>0.00</rpm>
</extensions>
</trkpt>
<trkpt lat="30.603635788" lon="34.873348236">
<ele>517.859375</ele>
<time>2013-11-22T13:32:54Z</time>
<speed>4.920000</speed>
<extensions>
<speed>4.9</speed>
<temp>0.00</temp>
<bpm>0</bpm>
<rpm>0.00</rpm>
</extensions>
</trkpt>
<trkpt lat="30.603532791" lon="34.873142242">
<ele>517.625000</ele>
<time>2013-11-22T13:32:59Z</time>
<speed>4.250000</speed>
<extensions>
<speed>4.3</speed>
<temp>0.00</temp>
<bpm>0</bpm>
<rpm>0.00</rpm>
</extensions>
</trkpt>
<trkpt lat="30.603452682" lon="34.872943878">
<ele>517.812500</ele>
<time>2013-11-22T13:33:04Z</time>
<speed>4.120000</speed>
<extensions>
<speed>4.1</speed>
<temp>0.00</temp>
<bpm>0</bpm>
<rpm>0.00</rpm>
</extensions>
</trkpt>
<trkpt lat="30.603357315" lon="34.872741699">
<ele>518.203125</ele>
<time>2013-11-22T13:33:09Z</time>
<speed>4.660000</speed>
<extensions>
<speed>4.7</speed>
<temp>0.00</temp>
<bpm>0</bpm>
<rpm>0.00</rpm>
</extensions>
</trkpt>
<trkpt lat="30.603237152" lon="34.872470856">
<ele>517.484375</ele>
<time>2013-11-22T13:33:14Z</time>
<speed>6.220000</speed>
<extensions>
<speed>6.2</speed>
<temp>0.00</temp>
<bpm>0</bpm>
<rpm>0.00</rpm>
</extensions>
</trkpt>
<trkpt lat="30.603164673" lon="34.872268677">
<ele>518.750000</ele>
<time>2013-11-22T13:33:19Z</time>
<speed>3.550000</speed>
<extensions>
<speed>3.5</speed>
<temp>0.00</temp>
<bpm>0</bpm>
<rpm>0.00</rpm>
</extensions>
</trkpt>
<trkpt lat="30.603084564" lon="34.872112274">
<ele>519.171875</ele>
<time>2013-11-22T13:33:24Z</time>
<speed>3.990000</speed>
<extensions>
<speed>4.0</speed>
<temp>0.00</temp>
<bpm>0</bpm>
<rpm>0.00</rpm>
</extensions>
</trkpt>
<trkpt lat="30.602956772" lon="34.871974945">
<ele>516.578125</ele>
<time>2013-11-22T13:33:29Z</time>
<speed>4.100000</speed>
<extensions>
<speed>4.1</speed>
<temp>0.00</temp>
<bpm>0</bpm>
<rpm>0.00</rpm>
</extensions>
</trkpt>
<trkpt lat="30.602828979" lon="34.871852875">
<ele>516.671875</ele>
<time>2013-11-22T13:33:34Z</time>
<speed>3.150000</speed>
<extensions>
<speed>3.2</speed>
<temp>0.00</temp>
<bpm>0</bpm>
<rpm>0.00</rpm>
</extensions>
</trkpt>
<trkpt lat="30.602769852" lon="34.871784210">
<ele>515.625000</ele>
<time>2013-11-22T13:33:39Z</time>
<speed>1.560000</speed>
<extensions>
<speed>1.6</speed>
<temp>0.00</temp>
<bpm>0</bpm>
<rpm>0.00</rpm>
</extensions>
</trkpt>
<trkpt lat="30.602725983" lon="34.871734619">
<ele>515.046875</ele>
<time>2013-11-22T13:33:44Z</time>
<speed>1.460000</speed>
<extensions>
<speed>1.5</speed>
<temp>0.00</temp>
<bpm>0</bpm>
<rpm>0.00</rpm>
</extensions>
</trkpt>
<trkpt lat="30.602672577" lon="34.871692657">
<ele>514.859375</ele>
<time>2013-11-22T13:33:49Z</time>
<speed>1.640000</speed>
<extensions>
<speed>1.6</speed>
<temp>0.00</temp>
<bpm>0</bpm>
<rpm>0.00</rpm>
</extensions>
</trkpt>
<trkpt lat="30.602607727" lon="34.871650696">
<ele>515.015625</ele>
<time>2013-11-22T13:33:54Z</time>
<speed>1.460000</speed>
<extensions>
<speed>1.5</speed>
<temp>0.00</temp>
<bpm>0</bpm>
<rpm>0.00</rpm>
</extensions>
</trkpt>
<trkpt lat="30.602542877" lon="34.871608734">
<ele>514.703125</ele>
<time>2013-11-22T13:33:59Z</time>
<speed>1.190000</speed>
<extensions>
<speed>1.2</speed>
<temp>0.00</temp>
<bpm>0</bpm>
<rpm>0.00</rpm>
</extensions>
</trkpt>
<trkpt lat="30.602483749" lon="34.871574402">
<ele>514.609375</ele>
<time>2013-11-22T13:34:04Z</time>
<speed>1.220000</speed>
<extensions>
<speed>1.2</speed>
<temp>0.00</temp>
<bpm>0</bpm>
<rpm>0.00</rpm>
</extensions>
</trkpt>
<trkpt lat="30.602424622" lon="34.871547699">
<ele>513.984375</ele>
<time>2013-11-22T13:34:09Z</time>
<speed>1.430000</speed>
<extensions>
<speed>1.4</speed>
<temp>0.00</temp>
<bpm>0</bpm>
<rpm>0.00</rpm>
</extensions>
</trkpt>
<trkpt lat="30.602359772" lon="34.871517181">
<ele>514.796875</ele>
<time>2013-11-22T13:34:14Z</time>
<speed>1.440000</speed>
<extensions>
<speed>1.4</speed>
<temp>0.00</temp>
<bpm>0</bpm>
<rpm>0.00</rpm>
</extensions>
</trkpt>
<trkpt lat="30.602319717" lon="34.871471405">
<ele>514.312500</ele>
<time>2013-11-22T13:34:19Z</time>
<speed>1.420000</speed>
<extensions>
<speed>1.4</speed>
<temp>0.00</temp>
<bpm>0</bpm>
<rpm>0.00</rpm>
</extensions>
</trkpt>
<trkpt lat="30.602268219" lon="34.871444702">
<ele>515.546875</ele>
<time>2013-11-22T13:34:24Z</time>
<speed>1.470000</speed>
<extensions>
<speed>1.5</speed>
<temp>0.00</temp>
<bpm>0</bpm>
<rpm>0.00</rpm>
</extensions>
</trkpt>
<trkpt lat="30.602224350" lon="34.871398926">
<ele>515.687500</ele>
<time>2013-11-22T13:34:29Z</time>
<speed>1.600000</speed>
<extensions>
<speed>1.6</speed>
<temp>0.00</temp>
<bpm>0</bpm>
<rpm>0.00</rpm>
</extensions>
</trkpt>
<trkpt lat="30.602151871" lon="34.871345520">
<ele>515.968750</ele>
<time>2013-11-22T13:34:34Z</time>
<speed>1.810000</speed>
<extensions>
<speed>1.8</speed>
<temp>0.00</temp>
<bpm>0</bpm>
<rpm>0.00</rpm>
</extensions>
</trkpt>
<trkpt lat="30.602113724" lon="34.871250153">
<ele>519.312500</ele>
<time>2013-11-22T13:34:39Z</time>
<speed>1.670000</speed>
<extensions>
<speed>1.7</speed>
<temp>0.00</temp>
<bpm>0</bpm>
<rpm>0.00</rpm>
</extensions>
</trkpt>
<trkpt lat="30.602108002" lon="34.871150970">
<ele>522.093750</ele>
<time>2013-11-22T13:34:44Z</time>
<speed>1.820000</speed>
<extensions>
<speed>1.8</speed>
<temp>0.00</temp>
<bpm>0</bpm>
<rpm>0.00</rpm>
</extensions>
</trkpt>
<trkpt lat="30.602128983" lon="34.871067047">
<ele>524.093750</ele>
<time>2013-11-22T13:34:49Z</time>
<speed>1.530000</speed>
<extensions>
<speed>1.5</speed>
<temp>0.00</temp>
<bpm>0</bpm>
<rpm>0.00</rpm>
</extensions>
</trkpt>
<trkpt lat="30.602123260" lon="34.870998383">
<ele>523.390625</ele>
<time>2013-11-22T13:34:54Z</time>
<speed>0.410000</speed>
<extensions>
<speed>0.4</speed>
<temp>0.00</temp>
<bpm>0</bpm>
<rpm>0.00</rpm>
</extensions>
</trkpt>
<trkpt lat="30.602117538" lon="34.870994568">
<ele>524.562500</ele>
<time>2013-11-22T13:34:59Z</time>
<speed>0.010000</speed>
<extensions>
<speed>0.0</speed>
<temp>0.00</temp>
<bpm>0</bpm>
<rpm>0.00</rpm>
</extensions>
</trkpt>
<trkpt lat="30.602109909" lon="34.870998383">
<ele>524.765625</ele>
<time>2013-11-22T13:35:04Z</time>
<speed>0.060000</speed>
<extensions>
<speed>0.1</speed>
<temp>0.00</temp>
<bpm>0</bpm>
<rpm>0.00</rpm>
</extensions>
</trkpt>
<trkpt lat="30.602100372" lon="34.871002197">
<ele>525.484375</ele>
<time>2013-11-22T13:35:09Z</time>
<speed>0.030000</speed>
<extensions>
<speed>0.0</speed>
<temp>0.00</temp>
<bpm>0</bpm>
<rpm>0.00</rpm>
</extensions>
</trkpt>
<trkpt lat="30.602102280" lon="34.871002197">
<ele>526.015625</ele>
<time>2013-11-22T13:35:14Z</time>
<speed>0.010000</speed>
<extensions>
<speed>0.0</speed>
<temp>0.00</temp>
<bpm>0</bpm>
<rpm>0.00</rpm>
</extensions>
</trkpt>
<trkpt lat="30.602094650" lon="34.870998383">
<ele>526.687500</ele>
<time>2013-11-22T13:35:19Z</time>
<extensions>
<speed>0.0</speed>
<temp>0.00</temp>
<bpm>0</bpm>
<rpm>0.00</rpm>
</extensions>
</trkpt>
<trkpt lat="30.602096558" lon="34.871002197">
<ele>527.078125</ele>
<time>2013-11-22T13:35:24Z</time>
<speed>0.010000</speed>
<extensions>
<speed>0.0</speed>
<temp>0.00</temp>
<bpm>0</bpm>
<rpm>0.00</rpm>
</extensions>
</trkpt>
<trkpt lat="30.602090836" lon="34.871006012">
<ele>527.281250</ele>
<time>2013-11-22T13:35:29Z</time>
<speed>0.010000</speed>
<extensions>
<speed>0.0</speed>
<temp>0.00</temp>
<bpm>0</bpm>
<rpm>0.00</rpm>
</extensions>
</trkpt>
<trkpt lat="30.602090836" lon="34.871009827">
<ele>528.187500</ele>
<time>2013-11-22T13:35:34Z</time>
<speed>0.010000</speed>
<extensions>
<speed>0.0</speed>
<temp>0.00</temp>
<bpm>0</bpm>
<rpm>0.00</rpm>
</extensions>
</trkpt>
<trkpt lat="30.602090836" lon="34.871009827">
<ele>528.187500</ele>
<time>2013-11-22T13:35:39Z</time>
<extensions>
<speed>0.0</speed>
<temp>0.00</temp>
<bpm>0</bpm>
<rpm>0.00</rpm>
</extensions>
</trkpt>
<trkpt lat="30.602090836" lon="34.871009827">
<ele>528.187500</ele>
<time>2013-11-22T13:35:44Z</time>
<speed>0.010000</speed>
<extensions>
<speed>0.0</speed>
<temp>0.00</temp>
<bpm>0</bpm>
<rpm>0.00</rpm>
</extensions>
</trkpt>
<trkpt lat="30.602096558" lon="34.871013641">
<ele>528.218750</ele>
<time>2013-11-22T13:35:49Z</time>
<speed>0.500000</speed>
<extensions>
<speed>0.5</speed>
<temp>0.00</temp>
<bpm>0</bpm>
<rpm>0.00</rpm>
</extensions>
</trkpt>
<trkpt lat="30.602102280" lon="34.871013641">
<ele>528.359375</ele>
<time>2013-11-22T13:35:54Z</time>
<speed>0.010000</speed>
<extensions>
<speed>0.0</speed>
<temp>0.00</temp>
<bpm>0</bpm>
<rpm>0.00</rpm>
</extensions>
</trkpt>
<trkpt lat="30.602102280" lon="34.871013641">
<ele>528.406250</ele>
<time>2013-11-22T13:35:59Z</time>
<speed>0.020000</speed>
<extensions>
<speed>0.0</speed>
<temp>0.00</temp>
<bpm>0</bpm>
<rpm>0.00</rpm>
</extensions>
</trkpt>
<trkpt lat="30.602125168" lon="34.870986938">
<ele>528.625000</ele>
<time>2013-11-22T13:36:04Z</time>
<speed>1.660000</speed>
<extensions>
<speed>1.7</speed>
<temp>0.00</temp>
<bpm>0</bpm>
<rpm>0.00</rpm>
</extensions>
</trkpt>
<trkpt lat="30.602226257" lon="34.870891571">
<ele>528.718750</ele>
<time>2013-11-22T13:36:09Z</time>
<speed>3.260000</speed>
<extensions>
<speed>3.3</speed>
<temp>0.00</temp>
<bpm>0</bpm>
<rpm>0.00</rpm>
</extensions>
</trkpt>
<trkpt lat="30.602319717" lon="34.870796204">
<ele>528.625000</ele>
<time>2013-11-22T13:36:14Z</time>
<speed>1.210000</speed>
<extensions>
<speed>1.2</speed>
<temp>0.00</temp>
<bpm>0</bpm>
<rpm>0.00</rpm>
</extensions>
</trkpt>
<trkpt lat="30.602371216" lon="34.870746613">
<ele>529.812500</ele>
<time>2013-11-22T13:36:19Z</time>
<speed>1.090000</speed>
<extensions>
<speed>1.1</speed>
<temp>0.00</temp>
<bpm>0</bpm>
<rpm>0.00</rpm>
</extensions>
</trkpt>
<trkpt lat="30.602373123" lon="34.870731354">
<ele>530.531250</ele>
<time>2013-11-22T13:36:24Z</time>
<speed>0.020000</speed>
<extensions>
<speed>0.0</speed>
<temp>0.00</temp>
<bpm>0</bpm>
<rpm>0.00</rpm>
</extensions>
</trkpt>
<trkpt lat="30.602371216" lon="34.870735168">
<ele>530.593750</ele>
<time>2013-11-22T13:36:29Z</time>
<extensions>
<speed>0.0</speed>
<temp>0.00</temp>
<bpm>0</bpm>
<rpm>0.00</rpm>
</extensions>
</trkpt>
<trkpt lat="30.602371216" lon="34.870735168">
<ele>530.734375</ele>
<time>2013-11-22T13:36:34Z</time>
<speed>0.040000</speed>
<extensions>
<speed>0.0</speed>
<temp>0.00</temp>
<bpm>0</bpm>
<rpm>0.00</rpm>
</extensions>
</trkpt>
<trkpt lat="30.602373123" lon="34.870735168">
<ele>530.765625</ele>
<time>2013-11-22T13:36:39Z</time>
<speed>0.970000</speed>
<extensions>
<speed>1.0</speed>
<temp>0.00</temp>
<bpm>0</bpm>
<rpm>0.00</rpm>
</extensions>
</trkpt>
<trkpt lat="30.602449417" lon="34.870674133">
<ele>530.656250</ele>
<time>2013-11-22T13:36:44Z</time>
<speed>2.440000</speed>
<extensions>
<speed>2.4</speed>
<temp>0.00</temp>
<bpm>0</bpm>
<rpm>0.00</rpm>
</extensions>
</trkpt>
<trkpt lat="30.602519989" lon="34.870594025">
<ele>530.796875</ele>
<time>2013-11-22T13:36:49Z</time>
<speed>1.560000</speed>
<extensions>
<speed>1.6</speed>
<temp>0.00</temp>
<bpm>0</bpm>
<rpm>0.00</rpm>
</extensions>
</trkpt>
<trkpt lat="30.602596283" lon="34.870502472">
<ele>529.906250</ele>
<time>2013-11-22T13:36:54Z</time>
<speed>4.070000</speed>
<extensions>
<speed>4.1</speed>
<temp>0.00</temp>
<bpm>0</bpm>
<rpm>0.00</rpm>
</extensions>
</trkpt>
<trkpt lat="30.602745056" lon="34.870315552">
<ele>530.578125</ele>
<time>2013-11-22T13:36:59Z</time>
<speed>5.560000</speed>
<extensions>
<speed>5.6</speed>
<temp>0.00</temp>
<bpm>0</bpm>
<rpm>0.00</rpm>
</extensions>
</trkpt>
<trkpt lat="30.602920532" lon="34.870044708">
<ele>530.281250</ele>
<time>2013-11-22T13:37:04Z</time>
<speed>7.220000</speed>
<extensions>
<speed>7.2</speed>
<temp>0.00</temp>
<bpm>0</bpm>
<rpm>0.00</rpm>
</extensions>
</trkpt>
<trkpt lat="30.603134155" lon="34.869686127">
<ele>529.000000</ele>
<time>2013-11-22T13:37:09Z</time>
<speed>8.890000</speed>
<extensions>
<speed>8.9</speed>
<temp>0.00</temp>
<bpm>0</bpm>
<rpm>0.00</rpm>
</extensions>
</trkpt>
<trkpt lat="30.603376389" lon="34.869274139">
<ele>527.609375</ele>
<time>2013-11-22T13:37:14Z</time>
<speed>10.130000</speed>
<extensions>
<speed>10.1</speed>
<temp>0.00</temp>
<bpm>0</bpm>
<rpm>0.00</rpm>
</extensions>
</trkpt>
<trkpt lat="30.603631973" lon="34.868808746">
<ele>525.343750</ele>
<time>2013-11-22T13:37:19Z</time>
<speed>11.000000</speed>
<extensions>
<speed>11.0</speed>
<temp>0.00</temp>
<bpm>0</bpm>
<rpm>0.00</rpm>
</extensions>
</trkpt>
<trkpt lat="30.603912354" lon="34.868267059">
<ele>523.296875</ele>
<time>2013-11-22T13:37:24Z</time>
<speed>13.160000</speed>
<extensions>
<speed>13.2</speed>
<temp>0.00</temp>
<bpm>0</bpm>
<rpm>0.00</rpm>
</extensions>
</trkpt>
<trkpt lat="30.604251862" lon="34.867618561">
<ele>521.500000</ele>
<time>2013-11-22T13:37:29Z</time>
<speed>15.170000</speed>
<extensions>
<speed>15.2</speed>
<temp>0.00</temp>
<bpm>0</bpm>
<rpm>0.00</rpm>
</extensions>
</trkpt>
<trkpt lat="30.604623795" lon="34.866909027">
<ele>519.671875</ele>
<time>2013-11-22T13:37:34Z</time>
<speed>15.250000</speed>
<extensions>
<speed>15.3</speed>
<temp>0.00</temp>
<bpm>0</bpm>
<rpm>0.00</rpm>
</extensions>
</trkpt>
<trkpt lat="30.604967117" lon="34.866283417">
<ele>517.312500</ele>
<time>2013-11-22T13:37:39Z</time>
<speed>13.390000</speed>
<extensions>
<speed>13.4</speed>
<temp>0.00</temp>
<bpm>0</bpm>
<rpm>0.00</rpm>
</extensions>
</trkpt>
<trkpt lat="30.605302811" lon="34.865779877">
<ele>517.187500</ele>
<time>2013-11-22T13:37:44Z</time>
<speed>10.970000</speed>
<extensions>
<speed>11.0</speed>
<temp>0.00</temp>
<bpm>0</bpm>
<rpm>0.00</rpm>
</extensions>
</trkpt>
<trkpt lat="30.605630875" lon="34.865394592">
<ele>518.968750</ele>
<time>2013-11-22T13:37:49Z</time>
<speed>9.420000</speed>
<extensions>
<speed>9.4</speed>
<temp>0.00</temp>
<bpm>0</bpm>
<rpm>0.00</rpm>
</extensions>
</trkpt>
<trkpt lat="30.605943680" lon="34.865081787">
<ele>519.203125</ele>
<time>2013-11-22T13:37:54Z</time>
<speed>8.580000</speed>
<extensions>
<speed>8.6</speed>
<temp>0.00</temp>
<bpm>0</bpm>
<rpm>0.00</rpm>
</extensions>
</trkpt>
<trkpt lat="30.606241226" lon="34.864852905">
<ele>520.812500</ele>
<time>2013-11-22T13:37:59Z</time>
<speed>7.430000</speed>
<extensions>
<speed>7.4</speed>
<temp>0.00</temp>
<bpm>0</bpm>
<rpm>0.00</rpm>
</extensions>
</trkpt>
<trkpt lat="30.606536865" lon="34.864658356">
<ele>520.453125</ele>
<time>2013-11-22T13:38:04Z</time>
<speed>7.470000</speed>
<extensions>
<speed>7.5</speed>
<temp>0.00</temp>
<bpm>0</bpm>
<rpm>0.00</rpm>
</extensions>
</trkpt>
<trkpt lat="30.606832504" lon="34.864509583">
<ele>519.937500</ele>
<time>2013-11-22T13:38:09Z</time>
<speed>6.440000</speed>
<extensions>
<speed>6.4</speed>
<temp>0.00</temp>
<bpm>0</bpm>
<rpm>0.00</rpm>
</extensions>
</trkpt>
<trkpt lat="30.607057571" lon="34.864395142">
<ele>520.437500</ele>
<time>2013-11-22T13:38:14Z</time>
<speed>4.610000</speed>
<extensions>
<speed>4.6</speed>
<temp>0.00</temp>
<bpm>0</bpm>
<rpm>0.00</rpm>
</extensions>
</trkpt>
<trkpt lat="30.607219696" lon="34.864318848">
<ele>519.734375</ele>
<time>2013-11-22T13:38:19Z</time>
<speed>3.480000</speed>
<extensions>
<speed>3.5</speed>
<temp>0.00</temp>
<bpm>0</bpm>
<rpm>0.00</rpm>
</extensions>
</trkpt>
<trkpt lat="30.607347488" lon="34.864246368">
<ele>517.406250</ele>
<time>2013-11-22T13:38:24Z</time>
<speed>2.710000</speed>
<extensions>
<speed>2.7</speed>
<temp>0.00</temp>
<bpm>0</bpm>
<rpm>0.00</rpm>
</extensions>
</trkpt>
<trkpt lat="30.607456207" lon="34.864196777">
<ele>517.921875</ele>
<time>2013-11-22T13:38:29Z</time>
<speed>3.110000</speed>
<extensions>
<speed>3.1</speed>
<temp>0.00</temp>
<bpm>0</bpm>
<rpm>0.00</rpm>
</extensions>
</trkpt>
<trkpt lat="30.607612610" lon="34.864109039">
<ele>518.171875</ele>
<time>2013-11-22T13:38:34Z</time>
<speed>4.280000</speed>
<extensions>
<speed>4.3</speed>
<temp>0.00</temp>
<bpm>0</bpm>
<rpm>0.00</rpm>
</extensions>
</trkpt>
<trkpt lat="30.607805252" lon="34.864017487">
<ele>517.453125</ele>
<time>2013-11-22T13:38:39Z</time>
<speed>4.820000</speed>
<extensions>
<speed>4.8</speed>
<temp>0.00</temp>
<bpm>0</bpm>
<rpm>0.00</rpm>
</extensions>
</trkpt>
<trkpt lat="30.608005524" lon="34.863910675">
<ele>518.093750</ele>
<time>2013-11-22T13:38:44Z</time>
<speed>4.830000</speed>
<extensions>
<speed>4.8</speed>
<temp>0.00</temp>
<bpm>0</bpm>
<rpm>0.00</rpm>
</extensions>
</trkpt>
<trkpt lat="30.608211517" lon="34.863800049">
<ele>519.953125</ele>
<time>2013-11-22T13:38:49Z</time>
<speed>4.920000</speed>
<extensions>
<speed>4.9</speed>
<temp>0.00</temp>
<bpm>0</bpm>
<rpm>0.00</rpm>
</extensions>
</trkpt>
<trkpt lat="30.608423233" lon="34.863685608">
<ele>521.140625</ele>
<time>2013-11-22T13:38:54Z</time>
<speed>4.630000</speed>
<extensions>
<speed>4.6</speed>
<temp>0.00</temp>
<bpm>0</bpm>
<rpm>0.00</rpm>
</extensions>
</trkpt>
<trkpt lat="30.608606339" lon="34.863563538">
<ele>522.640625</ele>
<time>2013-11-22T13:38:59Z</time>
<speed>4.970000</speed>
<extensions>
<speed>5.0</speed>
<temp>0.00</temp>
<bpm>0</bpm>
<rpm>0.00</rpm>
</extensions>
</trkpt>
<trkpt lat="30.608812332" lon="34.863426208">
<ele>524.015625</ele>
<time>2013-11-22T13:39:04Z</time>
<speed>5.760000</speed>
<extensions>
<speed>5.8</speed>
<temp>0.00</temp>
<bpm>0</bpm>
<rpm>0.00</rpm>
</extensions>
</trkpt>
<trkpt lat="30.609039307" lon="34.863239288">
<ele>524.281250</ele>
<time>2013-11-22T13:39:09Z</time>
<speed>6.480000</speed>
<extensions>
<speed>6.5</speed>
<temp>0.00</temp>
<bpm>0</bpm>
<rpm>0.00</rpm>
</extensions>
</trkpt>
<trkpt lat="30.609287262" lon="34.863018036">
<ele>520.546875</ele>
<time>2013-11-22T13:39:14Z</time>
<speed>7.790000</speed>
<extensions>
<speed>7.8</speed>
<temp>0.00</temp>
<bpm>0</bpm>
<rpm>0.00</rpm>
</extensions>
</trkpt>
<trkpt lat="30.609586716" lon="34.862743378">
<ele>515.812500</ele>
<time>2013-11-22T13:39:19Z</time>
<speed>9.610000</speed>
<extensions>
<speed>9.6</speed>
<temp>0.00</temp>
<bpm>0</bpm>
<rpm>0.00</rpm>
</extensions>
</trkpt>
<trkpt lat="30.609952927" lon="34.862407684">
<ele>511.296875</ele>
<time>2013-11-22T13:39:24Z</time>
<speed>11.210000</speed>
<extensions>
<speed>11.2</speed>
<temp>0.00</temp>
<bpm>0</bpm>
<rpm>0.00</rpm>
</extensions>
</trkpt>
<trkpt lat="30.610355377" lon="34.862018585">
<ele>508.820313</ele>
<time>2013-11-22T13:39:29Z</time>
<speed>11.460000</speed>
<extensions>
<speed>11.5</speed>
<temp>0.00</temp>
<bpm>0</bpm>
<rpm>0.00</rpm>
</extensions>
</trkpt>
<trkpt lat="30.610757828" lon="34.861625671">
<ele>506.789063</ele>
<time>2013-11-22T13:39:34Z</time>
<speed>10.810000</speed>
<extensions>
<speed>10.8</speed>
<temp>0.00</temp>
<bpm>0</bpm>
<rpm>0.00</rpm>
</extensions>
</trkpt>
<trkpt lat="30.611112595" lon="34.861278534">
<ele>506.187500</ele>
<time>2013-11-22T13:39:39Z</time>
<speed>9.330000</speed>
<extensions>
<speed>9.3</speed>
<temp>0.00</temp>
<bpm>0</bpm>
<rpm>0.00</rpm>
</extensions>
</trkpt>
<trkpt lat="30.611413956" lon="34.860980988">
<ele>506.335938</ele>
<time>2013-11-22T13:39:44Z</time>
<speed>8.240000</speed>
<extensions>
<speed>8.2</speed>
<temp>0.00</temp>
<bpm>0</bpm>
<rpm>0.00</rpm>
</extensions>
</trkpt>
<trkpt lat="30.611665726" lon="34.860725403">
<ele>507.218750</ele>
<time>2013-11-22T13:39:49Z</time>
<speed>7.110000</speed>
<extensions>
<speed>7.1</speed>
<temp>0.00</temp>
<bpm>0</bpm>
<rpm>0.00</rpm>
</extensions>
</trkpt>
<trkpt lat="30.611907959" lon="34.860507965">
<ele>507.296875</ele>
<time>2013-11-22T13:39:54Z</time>
<speed>6.500000</speed>
<extensions>
<speed>6.5</speed>
<temp>0.00</temp>
<bpm>0</bpm>
<rpm>0.00</rpm>
</extensions>
</trkpt>
<trkpt lat="30.612100601" lon="34.860298157">
<ele>505.648438</ele>
<time>2013-11-22T13:39:59Z</time>
<speed>5.720000</speed>
<extensions>
<speed>5.7</speed>
<temp>0.00</temp>
<bpm>0</bpm>
<rpm>0.00</rpm>
</extensions>
</trkpt>
<trkpt lat="30.612241745" lon="34.860111237">
<ele>507.476563</ele>
<time>2013-11-22T13:40:04Z</time>
<speed>5.000000</speed>
<extensions>
<speed>5.0</speed>
<temp>0.00</temp>
<bpm>0</bpm>
<rpm>0.00</rpm>
</extensions>
</trkpt>
<trkpt lat="30.612384796" lon="34.859893799">
<ele>505.031250</ele>
<time>2013-11-22T13:40:09Z</time>
<speed>5.230000</speed>
<extensions>
<speed>5.2</speed>
<temp>0.00</temp>
<bpm>0</bpm>
<rpm>0.00</rpm>
</extensions>
</trkpt>
<trkpt lat="30.612499237" lon="34.859687805">
<ele>508.164063</ele>
<time>2013-11-22T13:40:14Z</time>
<speed>4.340000</speed>
<extensions>
<speed>4.3</speed>
<temp>0.00</temp>
<bpm>0</bpm>
<rpm>0.00</rpm>
</extensions>
</trkpt>
<trkpt lat="30.612586975" lon="34.859470367">
<ele>505.671875</ele>
<time>2013-11-22T13:40:19Z</time>
<speed>5.040000</speed>
<extensions>
<speed>5.0</speed>
<temp>0.00</temp>
<bpm>0</bpm>
<rpm>0.00</rpm>
</extensions>
</trkpt>
<trkpt lat="30.612670898" lon="34.859218597">
<ele>503.140625</ele>
<time>2013-11-22T13:40:24Z</time>
<speed>4.500000</speed>
<extensions>
<speed>4.5</speed>
<temp>0.00</temp>
<bpm>0</bpm>
<rpm>0.00</rpm>
</extensions>
</trkpt>
<trkpt lat="30.612741470" lon="34.858978271">
<ele>506.429688</ele>
<time>2013-11-22T13:40:29Z</time>
<speed>4.490000</speed>
<extensions>
<speed>4.5</speed>
<temp>0.00</temp>
<bpm>0</bpm>
<rpm>0.00</rpm>
</extensions>
</trkpt>
<trkpt lat="30.612800598" lon="34.858741760">
<ele>509.382813</ele>
<time>2013-11-22T13:40:34Z</time>
<speed>4.380000</speed>
<extensions>
<speed>4.4</speed>
<temp>0.00</temp>
<bpm>0</bpm>
<rpm>0.00</rpm>
</extensions>
</trkpt>
<trkpt lat="30.612842560" lon="34.858505249">
<ele>510.906250</ele>
<time>2013-11-22T13:40:39Z</time>
<speed>4.550000</speed>
<extensions>
<speed>4.5</speed>
<temp>0.00</temp>
<bpm>0</bpm>
<rpm>0.00</rpm>
</extensions>
</trkpt>
<trkpt lat="30.612886429" lon="34.858257294">
<ele>512.375000</ele>
<time>2013-11-22T13:40:44Z</time>
<speed>4.560000</speed>
<extensions>
<speed>4.6</speed>
<temp>0.00</temp>
<bpm>0</bpm>
<rpm>0.00</rpm>
</extensions>
</trkpt>
<trkpt lat="30.612922668" lon="34.858024597">
<ele>514.343750</ele>
<time>2013-11-22T13:40:49Z</time>
<speed>4.250000</speed>
<extensions>
<speed>4.3</speed>
<temp>0.00</temp>
<bpm>0</bpm>
<rpm>0.00</rpm>
</extensions>
</trkpt>
<trkpt lat="30.612949371" lon="34.857803345">
<ele>514.640625</ele>
<time>2013-11-22T13:40:54Z</time>
<speed>4.640000</speed>
<extensions>
<speed>4.6</speed>
<temp>0.00</temp>
<bpm>0</bpm>
<rpm>0.00</rpm>
</extensions>
</trkpt>
<trkpt lat="30.612970352" lon="34.857547760">
<ele>514.765625</ele>
<time>2013-11-22T13:40:59Z</time>
<speed>5.230000</speed>
<extensions>
<speed>5.2</speed>
<temp>0.00</temp>
<bpm>0</bpm>
<rpm>0.00</rpm>
</extensions>
</trkpt>
<trkpt lat="30.613006592" lon="34.857269287">
<ele>513.593750</ele>
<time>2013-11-22T13:41:04Z</time>
<speed>5.650000</speed>
<extensions>
<speed>5.7</speed>
<temp>0.00</temp>
<bpm>0</bpm>
<rpm>0.00</rpm>
</extensions>
</trkpt>
<trkpt lat="30.613054276" lon="34.856979370">
<ele>514.062500</ele>
<time>2013-11-22T13:41:09Z</time>
<speed>5.380000</speed>
<extensions>
<speed>5.4</speed>
<temp>0.00</temp>
<bpm>0</bpm>
<rpm>0.00</rpm>
</extensions>
</trkpt>
<trkpt lat="30.613080978" lon="34.856723785">
<ele>515.109375</ele>
<time>2013-11-22T13:41:14Z</time>
<speed>3.530000</speed>
<extensions>
<speed>3.5</speed>
<temp>0.00</temp>
<bpm>0</bpm>
<rpm>0.00</rpm>
</extensions>
</trkpt>
<trkpt lat="30.613140106" lon="34.856491089">
<ele>514.578125</ele>
<time>2013-11-22T13:41:19Z</time>
<speed>4.980000</speed>
<extensions>
<speed>5.0</speed>
<temp>0.00</temp>
<bpm>0</bpm>
<rpm>0.00</rpm>
</extensions>
</trkpt>
<trkpt lat="30.613206863" lon="34.856277466">
<ele>514.937500</ele>
<time>2013-11-22T13:41:24Z</time>
<speed>3.610000</speed>
<extensions>
<speed>3.6</speed>
<temp>0.00</temp>
<bpm>0</bpm>
<rpm>0.00</rpm>
</extensions>
</trkpt>
<trkpt lat="30.613265991" lon="34.856105804">
<ele>515.968750</ele>
<time>2013-11-22T13:41:29Z</time>
<speed>3.340000</speed>
<extensions>
<speed>3.3</speed>
<temp>0.00</temp>
<bpm>0</bpm>
<rpm>0.00</rpm>
</extensions>
</trkpt>
<trkpt lat="30.613336563" lon="34.855926514">
<ele>518.437500</ele>
<time>2013-11-22T13:41:34Z</time>
<speed>4.030000</speed>
<extensions>
<speed>4.0</speed>
<temp>0.00</temp>
<bpm>0</bpm>
<rpm>0.00</rpm>
</extensions>
</trkpt>
<trkpt lat="30.613412857" lon="34.855735779">
<ele>518.656250</ele>
<time>2013-11-22T13:41:39Z</time>
<speed>4.170000</speed>
<extensions>
<speed>4.2</speed>
<temp>0.00</temp>
<bpm>0</bpm>
<rpm>0.00</rpm>
</extensions>
</trkpt>
<trkpt lat="30.613491058" lon="34.855548859">
<ele>519.828125</ele>
<time>2013-11-22T13:41:44Z</time>
<speed>3.400000</speed>
<extensions>
<speed>3.4</speed>
<temp>0.00</temp>
<bpm>0</bpm>
<rpm>0.00</rpm>
</extensions>
</trkpt>
<trkpt lat="30.613552094" lon="34.855438232">
<ele>522.984375</ele>
<time>2013-11-22T13:41:49Z</time>
<speed>1.790000</speed>
<extensions>
<speed>1.8</speed>
<temp>0.00</temp>
<bpm>0</bpm>
<rpm>0.00</rpm>
</extensions>
</trkpt>
<trkpt lat="30.613601685" lon="34.855339050">
<ele>524.062500</ele>
<time>2013-11-22T13:41:54Z</time>
<speed>2.680000</speed>
<extensions>
<speed>2.7</speed>
<temp>0.00</temp>
<bpm>0</bpm>
<rpm>0.00</rpm>
</extensions>
</trkpt>
<trkpt lat="30.613672256" lon="34.855201721">
<ele>523.734375</ele>
<time>2013-11-22T13:41:59Z</time>
<speed>3.420000</speed>
<extensions>
<speed>3.4</speed>
<temp>0.00</temp>
<bpm>0</bpm>
<rpm>0.00</rpm>
</extensions>
</trkpt>
<trkpt lat="30.613723755" lon="34.855064392">
<ele>520.234375</ele>
<time>2013-11-22T13:42:04Z</time>
<speed>3.010000</speed>
<extensions>
<speed>3.0</speed>
<temp>0.00</temp>
<bpm>0</bpm>
<rpm>0.00</rpm>
</extensions>
</trkpt>
<trkpt lat="30.613794327" lon="34.854919434">
<ele>518.312500</ele>
<time>2013-11-22T13:42:09Z</time>
<speed>3.740000</speed>
<extensions>
<speed>3.7</speed>
<temp>0.00</temp>
<bpm>0</bpm>
<rpm>0.00</rpm>
</extensions>
</trkpt>
<trkpt lat="30.613866806" lon="34.854736328">
<ele>516.312500</ele>
<time>2013-11-22T13:42:14Z</time>
<speed>4.390000</speed>
<extensions>
<speed>4.4</speed>
<temp>0.00</temp>
<bpm>0</bpm>
<rpm>0.00</rpm>
</extensions>
</trkpt>
<trkpt lat="30.613964081" lon="34.854515076">
<ele>517.265625</ele>
<time>2013-11-22T13:42:19Z</time>
<speed>4.360000</speed>
<extensions>
<speed>4.4</speed>
<temp>0.00</temp>
<bpm>0</bpm>
<rpm>0.00</rpm>
</extensions>
</trkpt>
<trkpt lat="30.614021301" lon="34.854331970">
<ele>514.812500</ele>
<time>2013-11-22T13:42:24Z</time>
<speed>4.060000</speed>
<extensions>
<speed>4.1</speed>
<temp>0.00</temp>
<bpm>0</bpm>
<rpm>0.00</rpm>
</extensions>
</trkpt>
<trkpt lat="30.614103317" lon="34.854110718">
<ele>514.343750</ele>
<time>2013-11-22T13:42:29Z</time>
<speed>4.620000</speed>
<extensions>
<speed>4.6</speed>
<temp>0.00</temp>
<bpm>0</bpm>
<rpm>0.00</rpm>
</extensions>
</trkpt>
<trkpt lat="30.614160538" lon="34.853946686">
<ele>513.750000</ele>
<time>2013-11-22T13:42:34Z</time>
<speed>3.050000</speed>
<extensions>
<speed>3.0</speed>
<temp>0.00</temp>
<bpm>0</bpm>
<rpm>0.00</rpm>
</extensions>
</trkpt>
<trkpt lat="30.614234924" lon="34.853767395">
<ele>517.468750</ele>
<time>2013-11-22T13:42:39Z</time>
<speed>3.790000</speed>
<extensions>
<speed>3.8</speed>
<temp>0.00</temp>
<bpm>0</bpm>
<rpm>0.00</rpm>
</extensions>
</trkpt>
<trkpt lat="30.614284515" lon="34.853588104">
<ele>516.296875</ele>
<time>2013-11-22T13:42:44Z</time>
<speed>3.160000</speed>
<extensions>
<speed>3.2</speed>
<temp>0.00</temp>
<bpm>0</bpm>
<rpm>0.00</rpm>
</extensions>
</trkpt>
<trkpt lat="30.614313126" lon="34.853481293">
<ele>514.984375</ele>
<time>2013-11-22T13:42:49Z</time>
<speed>1.690000</speed>
<extensions>
<speed>1.7</speed>
<temp>0.00</temp>
<bpm>0</bpm>
<rpm>0.00</rpm>
</extensions>
</trkpt>
<trkpt lat="30.614353180" lon="34.853363037">
<ele>515.546875</ele>
<time>2013-11-22T13:42:54Z</time>
<speed>2.620000</speed>
<extensions>
<speed>2.6</speed>
<temp>0.00</temp>
<bpm>0</bpm>
<rpm>0.00</rpm>
</extensions>
</trkpt>
<trkpt lat="30.614381790" lon="34.853229523">
<ele>514.265625</ele>
<time>2013-11-22T13:42:59Z</time>
<speed>3.280000</speed>
<extensions>
<speed>3.3</speed>
<temp>0.00</temp>
<bpm>0</bpm>
<rpm>0.00</rpm>
</extensions>
</trkpt>
<trkpt lat="30.614433289" lon="34.853046417">
<ele>514.546875</ele>
<time>2013-11-22T13:43:04Z</time>
<speed>4.030000</speed>
<extensions>
<speed>4.0</speed>
<temp>0.00</temp>
<bpm>0</bpm>
<rpm>0.00</rpm>
</extensions>
</trkpt>
<trkpt lat="30.614488602" lon="34.852844238">
<ele>514.468750</ele>
<time>2013-11-22T13:43:09Z</time>
<speed>3.480000</speed>
<extensions>
<speed>3.5</speed>
<temp>0.00</temp>
<bpm>0</bpm>
<rpm>0.00</rpm>
</extensions>
</trkpt>
<trkpt lat="30.614521027" lon="34.852680206">
<ele>513.515625</ele>
<time>2013-11-22T13:43:14Z</time>
<speed>3.650000</speed>
<extensions>
<speed>3.7</speed>
<temp>0.00</temp>
<bpm>0</bpm>
<rpm>0.00</rpm>
</extensions>
</trkpt>
<trkpt lat="30.614583969" lon="34.852470398">
<ele>516.390625</ele>
<time>2013-11-22T13:43:19Z</time>
<speed>4.360000</speed>
<extensions>
<speed>4.4</speed>
<temp>0.00</temp>
<bpm>0</bpm>
<rpm>0.00</rpm>
</extensions>
</trkpt>
<trkpt lat="30.614643097" lon="34.852264404">
<ele>518.062500</ele>
<time>2013-11-22T13:43:24Z</time>
<speed>4.060000</speed>
<extensions>
<speed>4.1</speed>
<temp>0.00</temp>
<bpm>0</bpm>
<rpm>0.00</rpm>
</extensions>
</trkpt>
<trkpt lat="30.614690781" lon="34.852043152">
<ele>518.578125</ele>
<time>2013-11-22T13:43:29Z</time>
<speed>4.070000</speed>
<extensions>
<speed>4.1</speed>
<temp>0.00</temp>
<bpm>0</bpm>
<rpm>0.00</rpm>
</extensions>
</trkpt>
<trkpt lat="30.614727020" lon="34.851844788">
<ele>518.265625</ele>
<time>2013-11-22T13:43:34Z</time>
<speed>4.280000</speed>
<extensions>
<speed>4.3</speed>
<temp>0.00</temp>
<bpm>0</bpm>
<rpm>0.00</rpm>
</extensions>
</trkpt>
<trkpt lat="30.614786148" lon="34.851623535">
<ele>519.203125</ele>
<time>2013-11-22T13:43:39Z</time>
<speed>3.910000</speed>
<extensions>
<speed>3.9</speed>
<temp>0.00</temp>
<bpm>0</bpm>
<rpm>0.00</rpm>
</extensions>
</trkpt>
<trkpt lat="30.614830017" lon="34.851417542">
<ele>516.828125</ele>
<time>2013-11-22T13:43:44Z</time>
<speed>4.380000</speed>
<extensions>
<speed>4.4</speed>
<temp>0.00</temp>
<bpm>0</bpm>
<rpm>0.00</rpm>
</extensions>
</trkpt>
<trkpt lat="30.614891052" lon="34.851207733">
<ele>516.968750</ele>
<time>2013-11-22T13:43:49Z</time>
<speed>3.860000</speed>
<extensions>
<speed>3.9</speed>
<temp>0.00</temp>
<bpm>0</bpm>
<rpm>0.00</rpm>
</extensions>
</trkpt>
<trkpt lat="30.614961624" lon="34.851001740">
<ele>516.859375</ele>
<time>2013-11-22T13:43:54Z</time>
<speed>4.560000</speed>
<extensions>
<speed>4.6</speed>
<temp>0.00</temp>
<bpm>0</bpm>
<rpm>0.00</rpm>
</extensions>
</trkpt>
<trkpt lat="30.615041733" lon="34.850795746">
<ele>515.656250</ele>
<time>2013-11-22T13:43:59Z</time>
<speed>4.430000</speed>
<extensions>
<speed>4.4</speed>
<temp>0.00</temp>
<bpm>0</bpm>
<rpm>0.00</rpm>
</extensions>
</trkpt>
<trkpt lat="30.615123749" lon="34.850620270">
<ele>517.234375</ele>
<time>2013-11-22T13:44:04Z</time>
<speed>3.290000</speed>
<extensions>
<speed>3.3</speed>
<temp>0.00</temp>
<bpm>0</bpm>
<rpm>0.00</rpm>
</extensions>
</trkpt>
<trkpt lat="30.615213394" lon="34.850452423">
<ele>518.609375</ele>
<time>2013-11-22T13:44:09Z</time>
<speed>4.150000</speed>
<extensions>
<speed>4.1</speed>
<temp>0.00</temp>
<bpm>0</bpm>
<rpm>0.00</rpm>
</extensions>
</trkpt>
<trkpt lat="30.615339279" lon="34.850257874">
<ele>521.562500</ele>
<time>2013-11-22T13:44:14Z</time>
<speed>5.160000</speed>
<extensions>
<speed>5.2</speed>
<temp>0.00</temp>
<bpm>0</bpm>
<rpm>0.00</rpm>
</extensions>
</trkpt>
<trkpt lat="30.615476608" lon="34.850051880">
<ele>523.187500</ele>
<time>2013-11-22T13:44:19Z</time>
<speed>4.130000</speed>
<extensions>
<speed>4.1</speed>
<temp>0.00</temp>
<bpm>0</bpm>
<rpm>0.00</rpm>
</extensions>
</trkpt>
<trkpt lat="30.615594864" lon="34.849903107">
<ele>524.171875</ele>
<time>2013-11-22T13:44:24Z</time>
<speed>3.300000</speed>
<extensions>
<speed>3.3</speed>
<temp>0.00</temp>
<bpm>0</bpm>
<rpm>0.00</rpm>
</extensions>
</trkpt>
<trkpt lat="30.615703583" lon="34.849765778">
<ele>523.671875</ele>
<time>2013-11-22T13:44:29Z</time>
<speed>4.010000</speed>
<extensions>
<speed>4.0</speed>
<temp>0.00</temp>
<bpm>0</bpm>
<rpm>0.00</rpm>
</extensions>
</trkpt>
<trkpt lat="30.615840912" lon="34.849601746">
<ele>522.921875</ele>
<time>2013-11-22T13:44:34Z</time>
<speed>4.450000</speed>
<extensions>
<speed>4.5</speed>
<temp>0.00</temp>
<bpm>0</bpm>
<rpm>0.00</rpm>
</extensions>
</trkpt>
<trkpt lat="30.616003036" lon="34.849430084">
<ele>523.968750</ele>
<time>2013-11-22T13:44:39Z</time>
<speed>5.230000</speed>
<extensions>
<speed>5.2</speed>
<temp>0.00</temp>
<bpm>0</bpm>
<rpm>0.00</rpm>
</extensions>
</trkpt>
<trkpt lat="30.616178513" lon="34.849220276">
<ele>525.515625</ele>
<time>2013-11-22T13:44:44Z</time>
<speed>4.910000</speed>
<extensions>
<speed>4.9</speed>
<temp>0.00</temp>
<bpm>0</bpm>
<rpm>0.00</rpm>
</extensions>
</trkpt>
<trkpt lat="30.616312027" lon="34.849082947">
<ele>526.125000</ele>
<time>2013-11-22T13:44:49Z</time>
<speed>3.870000</speed>
<extensions>
<speed>3.9</speed>
<temp>0.00</temp>
<bpm>0</bpm>
<rpm>0.00</rpm>
</extensions>
</trkpt>
<trkpt lat="30.616451263" lon="34.848922729">
<ele>525.593750</ele>
<time>2013-11-22T13:44:54Z</time>
<speed>4.930000</speed>
<extensions>
<speed>4.9</speed>
<temp>0.00</temp>
<bpm>0</bpm>
<rpm>0.00</rpm>
</extensions>
</trkpt>
<trkpt lat="30.616607666" lon="34.848739624">
<ele>521.781250</ele>
<time>2013-11-22T13:44:59Z</time>
<speed>4.310000</speed>
<extensions>
<speed>4.3</speed>
<temp>0.00</temp>
<bpm>0</bpm>
<rpm>0.00</rpm>
</extensions>
</trkpt>
<trkpt lat="30.616739273" lon="34.848587036">
<ele>520.687500</ele>
<time>2013-11-22T13:45:04Z</time>
<speed>4.020000</speed>
<extensions>
<speed>4.0</speed>
<temp>0.00</temp>
<bpm>0</bpm>
<rpm>0.00</rpm>
</extensions>
</trkpt>
<trkpt lat="30.616865158" lon="34.848438263">
<ele>522.015625</ele>
<time>2013-11-22T13:45:09Z</time>
<speed>4.320000</speed>
<extensions>
<speed>4.3</speed>
<temp>0.00</temp>
<bpm>0</bpm>
<rpm>0.00</rpm>
</extensions>
</trkpt>
<trkpt lat="30.616996765" lon="34.848285675">
<ele>524.328125</ele>
<time>2013-11-22T13:45:14Z</time>
<speed>4.190000</speed>
<extensions>
<speed>4.2</speed>
<temp>0.00</temp>
<bpm>0</bpm>
<rpm>0.00</rpm>
</extensions>
</trkpt>
<trkpt lat="30.617130280" lon="34.848133087">
<ele>525.984375</ele>
<time>2013-11-22T13:45:19Z</time>
<speed>4.120000</speed>
<extensions>
<speed>4.1</speed>
<temp>0.00</temp>
<bpm>0</bpm>
<rpm>0.00</rpm>
</extensions>
</trkpt>
<trkpt lat="30.617248535" lon="34.847984314">
<ele>528.609375</ele>
<time>2013-11-22T13:45:24Z</time>
<speed>4.020000</speed>
<extensions>
<speed>4.0</speed>
<temp>0.00</temp>
<bpm>0</bpm>
<rpm>0.00</rpm>
</extensions>
</trkpt>
<trkpt lat="30.617368698" lon="34.847827911">
<ele>531.406250</ele>
<time>2013-11-22T13:45:29Z</time>
<speed>3.900000</speed>
<extensions>
<speed>3.9</speed>
<temp>0.00</temp>
<bpm>0</bpm>
<rpm>0.00</rpm>
</extensions>
</trkpt>
<trkpt lat="30.617488861" lon="34.847675323">
<ele>533.640625</ele>
<time>2013-11-22T13:45:34Z</time>
<speed>4.080000</speed>
<extensions>
<speed>4.1</speed>
<temp>0.00</temp>
<bpm>0</bpm>
<rpm>0.00</rpm>
</extensions>
</trkpt>
<trkpt lat="30.617626190" lon="34.847515106">
<ele>535.015625</ele>
<time>2013-11-22T13:45:39Z</time>
<speed>4.250000</speed>
<extensions>
<speed>4.3</speed>
<temp>0.00</temp>
<bpm>0</bpm>
<rpm>0.00</rpm>
</extensions>
</trkpt>
<trkpt lat="30.617765427" lon="34.847366333">
<ele>533.000000</ele>
<time>2013-11-22T13:45:44Z</time>
<speed>4.430000</speed>
<extensions>
<speed>4.4</speed>
<temp>0.00</temp>
<bpm>0</bpm>
<rpm>0.00</rpm>
</extensions>
</trkpt>
<trkpt lat="30.617893219" lon="34.847217560">
<ele>532.625000</ele>
<time>2013-11-22T13:45:49Z</time>
<speed>3.770000</speed>
<extensions>
<speed>3.8</speed>
<temp>0.00</temp>
<bpm>0</bpm>
<rpm>0.00</rpm>
</extensions>
</trkpt>
<trkpt lat="30.617992401" lon="34.847110748">
<ele>533.640625</ele>
<time>2013-11-22T13:45:54Z</time>
<speed>2.810000</speed>
<extensions>
<speed>2.8</speed>
<temp>0.00</temp>
<bpm>0</bpm>
<rpm>0.00</rpm>
</extensions>
</trkpt>
<trkpt lat="30.618061066" lon="34.847038269">
<ele>531.171875</ele>
<time>2013-11-22T13:45:59Z</time>
<speed>1.820000</speed>
<extensions>
<speed>1.8</speed>
<temp>0.00</temp>
<bpm>0</bpm>
<rpm>0.00</rpm>
</extensions>
</trkpt>
<trkpt lat="30.618110657" lon="34.846969604">
<ele>528.843750</ele>
<time>2013-11-22T13:46:04Z</time>
<speed>1.030000</speed>
<extensions>
<speed>1.0</speed>
<temp>0.00</temp>
<bpm>0</bpm>
<rpm>0.00</rpm>
</extensions>
</trkpt>
<trkpt lat="30.618143082" lon="34.846923828">
<ele>526.312500</ele>
<time>2013-11-22T13:46:09Z</time>
<speed>1.600000</speed>
<extensions>
<speed>1.6</speed>
<temp>0.00</temp>
<bpm>0</bpm>
<rpm>0.00</rpm>
</extensions>
</trkpt>
<trkpt lat="30.618186951" lon="34.846885681">
<ele>522.546875</ele>
<time>2013-11-22T13:46:14Z</time>
<speed>1.800000</speed>
<extensions>
<speed>1.8</speed>
<temp>0.00</temp>
<bpm>0</bpm>
<rpm>0.00</rpm>
</extensions>
</trkpt>
<trkpt lat="30.618278503" lon="34.846786499">
<ele>520.687500</ele>
<time>2013-11-22T13:46:19Z</time>
<speed>3.420000</speed>
<extensions>
<speed>3.4</speed>
<temp>0.00</temp>
<bpm>0</bpm>
<rpm>0.00</rpm>
</extensions>
</trkpt>
<trkpt lat="30.618410110" lon="34.846645355">
<ele>521.562500</ele>
<time>2013-11-22T13:46:24Z</time>
<speed>4.190000</speed>
<extensions>
<speed>4.2</speed>
<temp>0.00</temp>
<bpm>0</bpm>
<rpm>0.00</rpm>
</extensions>
</trkpt>
<trkpt lat="30.618545532" lon="34.846488953">
<ele>522.500000</ele>
<time>2013-11-22T13:46:29Z</time>
<speed>4.070000</speed>
<extensions>
<speed>4.1</speed>
<temp>0.00</temp>
<bpm>0</bpm>
<rpm>0.00</rpm>
</extensions>
</trkpt>
<trkpt lat="30.618680954" lon="34.846328735">
<ele>525.078125</ele>
<time>2013-11-22T13:46:34Z</time>
<speed>4.510000</speed>
<extensions>
<speed>4.5</speed>
<temp>0.00</temp>
<bpm>0</bpm>
<rpm>0.00</rpm>
</extensions>
</trkpt>
<trkpt lat="30.618829727" lon="34.846164703">
<ele>527.203125</ele>
<time>2013-11-22T13:46:39Z</time>
<speed>3.830000</speed>
<extensions>
<speed>3.8</speed>
<temp>0.00</temp>
<bpm>0</bpm>
<rpm>0.00</rpm>
</extensions>
</trkpt>
<trkpt lat="30.618961334" lon="34.845993042">
<ele>528.296875</ele>
<time>2013-11-22T13:46:44Z</time>
<speed>4.600000</speed>
<extensions>
<speed>4.6</speed>
<temp>0.00</temp>
<bpm>0</bpm>
<rpm>0.00</rpm>
</extensions>
</trkpt>
<trkpt lat="30.619104385" lon="34.845825195">
<ele>529.187500</ele>
<time>2013-11-22T13:46:49Z</time>
<speed>4.970000</speed>
<extensions>
<speed>5.0</speed>
<temp>0.00</temp>
<bpm>0</bpm>
<rpm>0.00</rpm>
</extensions>
</trkpt>
<trkpt lat="30.619274139" lon="34.845630646">
<ele>528.265625</ele>
<time>2013-11-22T13:46:54Z</time>
<speed>6.510000</speed>
<extensions>
<speed>6.5</speed>
<temp>0.00</temp>
<bpm>0</bpm>
<rpm>0.00</rpm>
</extensions>
</trkpt>
<trkpt lat="30.619421005" lon="34.845451355">
<ele>526.796875</ele>
<time>2013-11-22T13:46:59Z</time>
<speed>4.500000</speed>
<extensions>
<speed>4.5</speed>
<temp>0.00</temp>
<bpm>0</bpm>
<rpm>0.00</rpm>
</extensions>
</trkpt>
<trkpt lat="30.619558334" lon="34.845287323">
<ele>526.921875</ele>
<time>2013-11-22T13:47:04Z</time>
<speed>4.510000</speed>
<extensions>
<speed>4.5</speed>
<temp>0.00</temp>
<bpm>0</bpm>
<rpm>0.00</rpm>
</extensions>
</trkpt>
<trkpt lat="30.619701385" lon="34.845104218">
<ele>528.468750</ele>
<time>2013-11-22T13:47:09Z</time>
<speed>4.830000</speed>
<extensions>
<speed>4.8</speed>
<temp>0.00</temp>
<bpm>0</bpm>
<rpm>0.00</rpm>
</extensions>
</trkpt>
<trkpt lat="30.619852066" lon="34.844932556">
<ele>528.609375</ele>
<time>2013-11-22T13:47:14Z</time>
<speed>5.020000</speed>
<extensions>
<speed>5.0</speed>
<temp>0.00</temp>
<bpm>0</bpm>
<rpm>0.00</rpm>
</extensions>
</trkpt>
<trkpt lat="30.619998932" lon="34.844768524">
<ele>528.078125</ele>
<time>2013-11-22T13:47:19Z</time>
<speed>4.510000</speed>
<extensions>
<speed>4.5</speed>
<temp>0.00</temp>
<bpm>0</bpm>
<rpm>0.00</rpm>
</extensions>
</trkpt>
<trkpt lat="30.620147705" lon="34.844585419">
<ele>528.437500</ele>
<time>2013-11-22T13:47:24Z</time>
<speed>4.990000</speed>
<extensions>
<speed>5.0</speed>
<temp>0.00</temp>
<bpm>0</bpm>
<rpm>0.00</rpm>
</extensions>
</trkpt>
<trkpt lat="30.620296478" lon="34.844417572">
<ele>528.921875</ele>
<time>2013-11-22T13:47:29Z</time>
<speed>4.710000</speed>
<extensions>
<speed>4.7</speed>
<temp>0.00</temp>
<bpm>0</bpm>
<rpm>0.00</rpm>
</extensions>
</trkpt>
<trkpt lat="30.620450974" lon="34.844242096">
<ele>529.109375</ele>
<time>2013-11-22T13:47:34Z</time>
<speed>4.540000</speed>
<extensions>
<speed>4.5</speed>
<temp>0.00</temp>
<bpm>0</bpm>
<rpm>0.00</rpm>
</extensions>
</trkpt>
<trkpt lat="30.620599747" lon="34.844085693">
<ele>529.296875</ele>
<time>2013-11-22T13:47:39Z</time>
<speed>4.540000</speed>
<extensions>
<speed>4.5</speed>
<temp>0.00</temp>
<bpm>0</bpm>
<rpm>0.00</rpm>
</extensions>
</trkpt>
<trkpt lat="30.620750427" lon="34.843940735">
<ele>530.062500</ele>
<time>2013-11-22T13:47:44Z</time>
<speed>3.660000</speed>
<extensions>
<speed>3.7</speed>
<temp>0.00</temp>
<bpm>0</bpm>
<rpm>0.00</rpm>
</extensions>
</trkpt>
<trkpt lat="30.620887756" lon="34.843822479">
<ele>531.187500</ele>
<time>2013-11-22T13:47:49Z</time>
<speed>3.920000</speed>
<extensions>
<speed>3.9</speed>
<temp>0.00</temp>
<bpm>0</bpm>
<rpm>0.00</rpm>
</extensions>
</trkpt>
<trkpt lat="30.621026993" lon="34.843700409">
<ele>532.375000</ele>
<time>2013-11-22T13:47:54Z</time>
<speed>3.680000</speed>
<extensions>
<speed>3.7</speed>
<temp>0.00</temp>
<bpm>0</bpm>
<rpm>0.00</rpm>
</extensions>
</trkpt>
<trkpt lat="30.621118546" lon="34.843582153">
<ele>532.968750</ele>
<time>2013-11-22T13:47:59Z</time>
<speed>3.040000</speed>
<extensions>
<speed>3.0</speed>
<temp>0.00</temp>
<bpm>0</bpm>
<rpm>0.00</rpm>
</extensions>
</trkpt>
<trkpt lat="30.621040344" lon="34.843486786">
<ele>532.031250</ele>
<time>2013-11-22T13:48:04Z</time>
<speed>1.720000</speed>
<extensions>
<speed>1.7</speed>
<temp>0.00</temp>
<bpm>0</bpm>
<rpm>0.00</rpm>
</extensions>
</trkpt>
<trkpt lat="30.621036530" lon="34.843502045">
<ele>531.046875</ele>
<time>2013-11-22T13:48:09Z</time>
<speed>0.020000</speed>
<extensions>
<speed>0.0</speed>
<temp>0.00</temp>
<bpm>0</bpm>
<rpm>0.00</rpm>
</extensions>
</trkpt>
<trkpt lat="30.621036530" lon="34.843502045">
<ele>530.906250</ele>
<time>2013-11-22T13:48:14Z</time>
<speed>0.090000</speed>
<extensions>
<speed>0.1</speed>
<temp>0.00</temp>
<bpm>0</bpm>
<rpm>0.00</rpm>
</extensions>
</trkpt>
<trkpt lat="30.621036530" lon="34.843502045">
<ele>530.921875</ele>
<time>2013-11-22T13:48:19Z</time>
<speed>0.010000</speed>
<extensions>
<speed>0.0</speed>
<temp>0.00</temp>
<bpm>0</bpm>
<rpm>0.00</rpm>
</extensions>
</trkpt>
<trkpt lat="30.621036530" lon="34.843502045">
<ele>530.984375</ele>
<time>2013-11-22T13:48:24Z</time>
<speed>0.030000</speed>
<extensions>
<speed>0.0</speed>
<temp>0.00</temp>
<bpm>0</bpm>
<rpm>0.00</rpm>
</extensions>
</trkpt>
<trkpt lat="30.621036530" lon="34.843502045">
<ele>531.000000</ele>
<time>2013-11-22T13:48:29Z</time>
<speed>0.020000</speed>
<extensions>
<speed>0.0</speed>
<temp>0.00</temp>
<bpm>0</bpm>
<rpm>0.00</rpm>
</extensions>
</trkpt>
<trkpt lat="30.621034622" lon="34.843502045">
<ele>531.093750</ele>
<time>2013-11-22T13:48:34Z</time>
<speed>0.020000</speed>
<extensions>
<speed>0.0</speed>
<temp>0.00</temp>
<bpm>0</bpm>
<rpm>0.00</rpm>
</extensions>
</trkpt>
<trkpt lat="30.621034622" lon="34.843502045">
<ele>531.250000</ele>
<time>2013-11-22T13:48:39Z</time>
<speed>0.010000</speed>
<extensions>
<speed>0.0</speed>
<temp>0.00</temp>
<bpm>0</bpm>
<rpm>0.00</rpm>
</extensions>
</trkpt>
<trkpt lat="30.621034622" lon="34.843502045">
<ele>531.281250</ele>
<time>2013-11-22T13:48:44Z</time>
<speed>0.020000</speed>
<extensions>
<speed>0.0</speed>
<temp>0.00</temp>
<bpm>0</bpm>
<rpm>0.00</rpm>
</extensions>
</trkpt>
<trkpt lat="30.621034622" lon="34.843502045">
<ele>531.265625</ele>
<time>2013-11-22T13:48:49Z</time>
<extensions>
<speed>0.0</speed>
<temp>0.00</temp>
<bpm>0</bpm>
<rpm>0.00</rpm>
</extensions>
</trkpt>
<trkpt lat="30.621034622" lon="34.843502045">
<ele>531.250000</ele>
<time>2013-11-22T13:48:54Z</time>
<speed>0.010000</speed>
<extensions>
<speed>0.0</speed>
<temp>0.00</temp>
<bpm>0</bpm>
<rpm>0.00</rpm>
</extensions>
</trkpt>
<trkpt lat="30.621034622" lon="34.843502045">
<ele>531.218750</ele>
<time>2013-11-22T13:48:59Z</time>
<extensions>
<speed>0.0</speed>
<temp>0.00</temp>
<bpm>0</bpm>
<rpm>0.00</rpm>
</extensions>
</trkpt>
<trkpt lat="30.621034622" lon="34.843502045">
<ele>531.171875</ele>
<time>2013-11-22T13:49:04Z</time>
<speed>0.010000</speed>
<extensions>
<speed>0.0</speed>
<temp>0.00</temp>
<bpm>0</bpm>
<rpm>0.00</rpm>
</extensions>
</trkpt>
<trkpt lat="30.621034622" lon="34.843505859">
<ele>531.156250</ele>
<time>2013-11-22T13:49:09Z</time>
<speed>0.010000</speed>
<extensions>
<speed>0.0</speed>
<temp>0.00</temp>
<bpm>0</bpm>
<rpm>0.00</rpm>
</extensions>
</trkpt>
<trkpt lat="30.621034622" lon="34.843505859">
<ele>531.156250</ele>
<time>2013-11-22T13:49:14Z</time>
<extensions>
<speed>0.0</speed>
<temp>0.00</temp>
<bpm>0</bpm>
<rpm>0.00</rpm>
</extensions>
</trkpt>
<trkpt lat="30.621034622" lon="34.843505859">
<ele>531.125000</ele>
<time>2013-11-22T13:49:19Z</time>
<speed>0.010000</speed>
<extensions>
<speed>0.0</speed>
<temp>0.00</temp>
<bpm>0</bpm>
<rpm>0.00</rpm>
</extensions>
</trkpt>
<trkpt lat="30.621034622" lon="34.843505859">
<ele>531.109375</ele>
<time>2013-11-22T13:49:24Z</time>
<extensions>
<speed>0.0</speed>
<temp>0.00</temp>
<bpm>0</bpm>
<rpm>0.00</rpm>
</extensions>
</trkpt>
<trkpt lat="30.621034622" lon="34.843505859">
<ele>531.093750</ele>
<time>2013-11-22T13:49:29Z</time>
<speed>0.020000</speed>
<extensions>
<speed>0.0</speed>
<temp>0.00</temp>
<bpm>0</bpm>
<rpm>0.00</rpm>
</extensions>
</trkpt>
<trkpt lat="30.621036530" lon="34.843505859">
<ele>531.078125</ele>
<time>2013-11-22T13:49:34Z</time>
<speed>0.010000</speed>
<extensions>
<speed>0.0</speed>
<temp>0.00</temp>
<bpm>0</bpm>
<rpm>0.00</rpm>
</extensions>
</trkpt>
<trkpt lat="30.621036530" lon="34.843505859">
<ele>531.062500</ele>
<time>2013-11-22T13:49:39Z</time>
<extensions>
<speed>0.0</speed>
<temp>0.00</temp>
<bpm>0</bpm>
<rpm>0.00</rpm>
</extensions>
</trkpt>
<trkpt lat="30.621036530" lon="34.843505859">
<ele>531.046875</ele>
<time>2013-11-22T13:49:44Z</time>
<speed>0.010000</speed>
<extensions>
<speed>0.0</speed>
<temp>0.00</temp>
<bpm>0</bpm>
<rpm>0.00</rpm>
</extensions>
</trkpt>
<trkpt lat="30.621036530" lon="34.843505859">
<ele>531.031250</ele>
<time>2013-11-22T13:49:49Z</time>
<speed>0.010000</speed>
<extensions>
<speed>0.0</speed>
<temp>0.00</temp>
<bpm>0</bpm>
<rpm>0.00</rpm>
</extensions>
</trkpt>
<trkpt lat="30.621036530" lon="34.843505859">
<ele>531.031250</ele>
<time>2013-11-22T13:49:54Z</time>
<speed>0.040000</speed>
<extensions>
<speed>0.0</speed>
<temp>0.00</temp>
<bpm>0</bpm>
<rpm>0.00</rpm>
</extensions>
</trkpt>
<trkpt lat="30.621042252" lon="34.843490601">
<ele>531.125000</ele>
<time>2013-11-22T13:49:59Z</time>
<speed>0.140000</speed>
<extensions>
<speed>0.1</speed>
<temp>0.00</temp>
<bpm>0</bpm>
<rpm>0.00</rpm>
</extensions>
</trkpt>
<trkpt lat="30.621049881" lon="34.843482971">
<ele>531.203125</ele>
<time>2013-11-22T13:50:04Z</time>
<speed>0.460000</speed>
<extensions>
<speed>0.5</speed>
<temp>0.00</temp>
<bpm>0</bpm>
<rpm>0.00</rpm>
</extensions>
</trkpt>
<trkpt lat="30.621042252" lon="34.843467712">
<ele>531.343750</ele>
<time>2013-11-22T13:50:09Z</time>
<speed>0.070000</speed>
<extensions>
<speed>0.1</speed>
<temp>0.00</temp>
<bpm>0</bpm>
<rpm>0.00</rpm>
</extensions>
</trkpt>
<trkpt lat="30.621042252" lon="34.843467712">
<ele>531.328125</ele>
<time>2013-11-22T13:50:14Z</time>
<extensions>
<speed>0.0</speed>
<temp>0.00</temp>
<bpm>0</bpm>
<rpm>0.00</rpm>
</extensions>
</trkpt>
<trkpt lat="30.621040344" lon="34.843467712">
<ele>531.125000</ele>
<time>2013-11-22T13:50:19Z</time>
<speed>0.030000</speed>
<extensions>
<speed>0.0</speed>
<temp>0.00</temp>
<bpm>0</bpm>
<rpm>0.00</rpm>
</extensions>
</trkpt>
<trkpt lat="30.621040344" lon="34.843467712">
<ele>531.031250</ele>
<time>2013-11-22T13:50:24Z</time>
<extensions>
<speed>0.0</speed>
<temp>0.00</temp>
<bpm>0</bpm>
<rpm>0.00</rpm>
</extensions>
</trkpt>
<trkpt lat="30.621040344" lon="34.843467712">
<ele>530.968750</ele>
<time>2013-11-22T13:50:29Z</time>
<extensions>
<speed>0.0</speed>
<temp>0.00</temp>
<bpm>0</bpm>
<rpm>0.00</rpm>
</extensions>
</trkpt>
<trkpt lat="30.621040344" lon="34.843467712">
<ele>530.906250</ele>
<time>2013-11-22T13:50:34Z</time>
<speed>0.010000</speed>
<extensions>
<speed>0.0</speed>
<temp>0.00</temp>
<bpm>0</bpm>
<rpm>0.00</rpm>
</extensions>
</trkpt>
<trkpt lat="30.621040344" lon="34.843467712">
<ele>530.859375</ele>
<time>2013-11-22T13:50:39Z</time>
<extensions>
<speed>0.0</speed>
<temp>0.00</temp>
<bpm>0</bpm>
<rpm>0.00</rpm>
</extensions>
</trkpt>
<trkpt lat="30.621038437" lon="34.843467712">
<ele>530.843750</ele>
<time>2013-11-22T13:50:44Z</time>
<speed>0.160000</speed>
<extensions>
<speed>0.2</speed>
<temp>0.00</temp>
<bpm>0</bpm>
<rpm>0.00</rpm>
</extensions>
</trkpt>
<trkpt lat="30.621038437" lon="34.843467712">
<ele>530.828125</ele>
<time>2013-11-22T13:50:49Z</time>
<extensions>
<speed>0.0</speed>
<temp>0.00</temp>
<bpm>0</bpm>
<rpm>0.00</rpm>
</extensions>
</trkpt>
<trkpt lat="30.621038437" lon="34.843467712">
<ele>530.796875</ele>
<time>2013-11-22T13:50:54Z</time>
<extensions>
<speed>0.0</speed>
<temp>0.00</temp>
<bpm>0</bpm>
<rpm>0.00</rpm>
</extensions>
</trkpt>
<trkpt lat="30.621038437" lon="34.843467712">
<ele>530.765625</ele>
<time>2013-11-22T13:50:59Z</time>
<speed>0.450000</speed>
<extensions>
<speed>0.5</speed>
<temp>0.00</temp>
<bpm>0</bpm>
<rpm>0.00</rpm>
</extensions>
</trkpt>
<trkpt lat="30.621038437" lon="34.843460083">
<ele>530.765625</ele>
<time>2013-11-22T13:51:04Z</time>
<speed>0.010000</speed>
<extensions>
<speed>0.0</speed>
<temp>0.00</temp>
<bpm>0</bpm>
<rpm>0.00</rpm>
</extensions>
</trkpt>
<trkpt lat="30.621038437" lon="34.843460083">
<ele>530.703125</ele>
<time>2013-11-22T13:51:09Z</time>
<extensions>
<speed>0.0</speed>
<temp>0.00</temp>
<bpm>0</bpm>
<rpm>0.00</rpm>
</extensions>
</trkpt>
<trkpt lat="30.621038437" lon="34.843460083">
<ele>530.671875</ele>
<time>2013-11-22T13:51:14Z</time>
<extensions>
<speed>0.0</speed>
<temp>0.00</temp>
<bpm>0</bpm>
<rpm>0.00</rpm>
</extensions>
</trkpt>
<trkpt lat="30.621036530" lon="34.843460083">
<ele>530.625000</ele>
<time>2013-11-22T13:51:19Z</time>
<extensions>
<speed>0.0</speed>
<temp>0.00</temp>
<bpm>0</bpm>
<rpm>0.00</rpm>
</extensions>
</trkpt>
<trkpt lat="30.621036530" lon="34.843460083">
<ele>530.593750</ele>
<time>2013-11-22T13:51:24Z</time>
<speed>0.010000</speed>
<extensions>
<speed>0.0</speed>
<temp>0.00</temp>
<bpm>0</bpm>
<rpm>0.00</rpm>
</extensions>
</trkpt>
<trkpt lat="30.621036530" lon="34.843460083">
<ele>530.562500</ele>
<time>2013-11-22T13:51:29Z</time>
<extensions>
<speed>0.0</speed>
<temp>0.00</temp>
<bpm>0</bpm>
<rpm>0.00</rpm>
</extensions>
</trkpt>
<trkpt lat="30.621036530" lon="34.843460083">
<ele>530.531250</ele>
<time>2013-11-22T13:51:34Z</time>
<speed>0.010000</speed>
<extensions>
<speed>0.0</speed>
<temp>0.00</temp>
<bpm>0</bpm>
<rpm>0.00</rpm>
</extensions>
</trkpt>
<trkpt lat="30.621036530" lon="34.843460083">
<ele>530.484375</ele>
<time>2013-11-22T13:51:39Z</time>
<extensions>
<speed>0.0</speed>
<temp>0.00</temp>
<bpm>0</bpm>
<rpm>0.00</rpm>
</extensions>
</trkpt>
<trkpt lat="30.621036530" lon="34.843460083">
<ele>530.468750</ele>
<time>2013-11-22T13:51:44Z</time>
<extensions>
<speed>0.0</speed>
<temp>0.00</temp>
<bpm>0</bpm>
<rpm>0.00</rpm>
</extensions>
</trkpt>
<trkpt lat="30.621036530" lon="34.843460083">
<ele>530.421875</ele>
<time>2013-11-22T13:51:49Z</time>
<extensions>
<speed>0.0</speed>
<temp>0.00</temp>
<bpm>0</bpm>
<rpm>0.00</rpm>
</extensions>
</trkpt>
<trkpt lat="30.621036530" lon="34.843452454">
<ele>530.531250</ele>
<time>2013-11-22T13:51:54Z</time>
<speed>0.070000</speed>
<extensions>
<speed>0.1</speed>
<temp>0.00</temp>
<bpm>0</bpm>
<rpm>0.00</rpm>
</extensions>
</trkpt>
<trkpt lat="30.621036530" lon="34.843452454">
<ele>530.734375</ele>
<time>2013-11-22T13:51:59Z</time>
<extensions>
<speed>0.0</speed>
<temp>0.00</temp>
<bpm>0</bpm>
<rpm>0.00</rpm>
</extensions>
</trkpt>
<trkpt lat="30.621036530" lon="34.843452454">
<ele>530.734375</ele>
<time>2013-11-22T13:52:04Z</time>
<extensions>
<speed>0.0</speed>
<temp>0.00</temp>
<bpm>0</bpm>
<rpm>0.00</rpm>
</extensions>
</trkpt>
<trkpt lat="30.621034622" lon="34.843452454">
<ele>530.703125</ele>
<time>2013-11-22T13:52:09Z</time>
<speed>0.010000</speed>
<extensions>
<speed>0.0</speed>
<temp>0.00</temp>
<bpm>0</bpm>
<rpm>0.00</rpm>
</extensions>
</trkpt>
<trkpt lat="30.621034622" lon="34.843452454">
<ele>530.687500</ele>
<time>2013-11-22T13:52:14Z</time>
<extensions>
<speed>0.0</speed>
<temp>0.00</temp>
<bpm>0</bpm>
<rpm>0.00</rpm>
</extensions>
</trkpt>
<trkpt lat="30.621034622" lon="34.843452454">
<ele>530.671875</ele>
<time>2013-11-22T13:52:19Z</time>
<extensions>
<speed>0.0</speed>
<temp>0.00</temp>
<bpm>0</bpm>
<rpm>0.00</rpm>
</extensions>
</trkpt>
<trkpt lat="30.621034622" lon="34.843452454">
<ele>530.671875</ele>
<time>2013-11-22T13:52:24Z</time>
<extensions>
<speed>0.0</speed>
<temp>0.00</temp>
<bpm>0</bpm>
<rpm>0.00</rpm>
</extensions>
</trkpt>
<trkpt lat="30.621034622" lon="34.843452454">
<ele>530.640625</ele>
<time>2013-11-22T13:52:29Z</time>
<extensions>
<speed>0.0</speed>
<temp>0.00</temp>
<bpm>0</bpm>
<rpm>0.00</rpm>
</extensions>
</trkpt>
<trkpt lat="30.621032715" lon="34.843452454">
<ele>530.625000</ele>
<time>2013-11-22T13:52:34Z</time>
<speed>0.010000</speed>
<extensions>
<speed>0.0</speed>
<temp>0.00</temp>
<bpm>0</bpm>
<rpm>0.00</rpm>
</extensions>
</trkpt>
<trkpt lat="30.621032715" lon="34.843452454">
<ele>530.593750</ele>
<time>2013-11-22T13:52:39Z</time>
<extensions>
<speed>0.0</speed>
<temp>0.00</temp>
<bpm>0</bpm>
<rpm>0.00</rpm>
</extensions>
</trkpt>
<trkpt lat="30.621032715" lon="34.843452454">
<ele>530.562500</ele>
<time>2013-11-22T13:52:44Z</time>
<extensions>
<speed>0.0</speed>
<temp>0.00</temp>
<bpm>0</bpm>
<rpm>0.00</rpm>
</extensions>
</trkpt>
<trkpt lat="30.621032715" lon="34.843452454">
<ele>530.546875</ele>
<time>2013-11-22T13:52:49Z</time>
<extensions>
<speed>0.0</speed>
<temp>0.00</temp>
<bpm>0</bpm>
<rpm>0.00</rpm>
</extensions>
</trkpt>
<trkpt lat="30.621032715" lon="34.843452454">
<ele>530.515625</ele>
<time>2013-11-22T13:52:54Z</time>
<extensions>
<speed>0.0</speed>
<temp>0.00</temp>
<bpm>0</bpm>
<rpm>0.00</rpm>
</extensions>
</trkpt>
<trkpt lat="30.621032715" lon="34.843452454">
<ele>530.484375</ele>
<time>2013-11-22T13:52:59Z</time>
<extensions>
<speed>0.0</speed>
<temp>0.00</temp>
<bpm>0</bpm>
<rpm>0.00</rpm>
</extensions>
</trkpt>
<trkpt lat="30.621032715" lon="34.843452454">
<ele>530.468750</ele>
<time>2013-11-22T13:53:04Z</time>
<extensions>
<speed>0.0</speed>
<temp>0.00</temp>
<bpm>0</bpm>
<rpm>0.00</rpm>
</extensions>
</trkpt>
<trkpt lat="30.621032715" lon="34.843452454">
<ele>530.437500</ele>
<time>2013-11-22T13:53:09Z</time>
<extensions>
<speed>0.0</speed>
<temp>0.00</temp>
<bpm>0</bpm>
<rpm>0.00</rpm>
</extensions>
</trkpt>
<trkpt lat="30.621032715" lon="34.843452454">
<ele>530.421875</ele>
<time>2013-11-22T13:53:14Z</time>
<extensions>
<speed>0.0</speed>
<temp>0.00</temp>
<bpm>0</bpm>
<rpm>0.00</rpm>
</extensions>
</trkpt>
<trkpt lat="30.621030807" lon="34.843452454">
<ele>530.390625</ele>
<time>2013-11-22T13:53:19Z</time>
<speed>0.010000</speed>
<extensions>
<speed>0.0</speed>
<temp>0.00</temp>
<bpm>0</bpm>
<rpm>0.00</rpm>
</extensions>
</trkpt>
<trkpt lat="30.621030807" lon="34.843452454">
<ele>530.343750</ele>
<time>2013-11-22T13:53:24Z</time>
<extensions>
<speed>0.0</speed>
<temp>0.00</temp>
<bpm>0</bpm>
<rpm>0.00</rpm>
</extensions>
</trkpt>
<trkpt lat="30.621030807" lon="34.843452454">
<ele>530.312500</ele>
<time>2013-11-22T13:53:29Z</time>
<speed>0.010000</speed>
<extensions>
<speed>0.0</speed>
<temp>0.00</temp>
<bpm>0</bpm>
<rpm>0.00</rpm>
</extensions>
</trkpt>
<trkpt lat="30.621030807" lon="34.843452454">
<ele>530.281250</ele>
<time>2013-11-22T13:53:34Z</time>
<speed>0.010000</speed>
<extensions>
<speed>0.0</speed>
<temp>0.00</temp>
<bpm>0</bpm>
<rpm>0.00</rpm>
</extensions>
</trkpt>
<trkpt lat="30.621030807" lon="34.843452454">
<ele>530.250000</ele>
<time>2013-11-22T13:53:39Z</time>
<extensions>
<speed>0.0</speed>
<temp>0.00</temp>
<bpm>0</bpm>
<rpm>0.00</rpm>
</extensions>
</trkpt>
<trkpt lat="30.621030807" lon="34.843452454">
<ele>530.218750</ele>
<time>2013-11-22T13:53:44Z</time>
<speed>0.010000</speed>
<extensions>
<speed>0.0</speed>
<temp>0.00</temp>
<bpm>0</bpm>
<rpm>0.00</rpm>
</extensions>
</trkpt>
<trkpt lat="30.621028900" lon="34.843452454">
<ele>530.187500</ele>
<time>2013-11-22T13:53:49Z</time>
<extensions>
<speed>0.0</speed>
<temp>0.00</temp>
<bpm>0</bpm>
<rpm>0.00</rpm>
</extensions>
</trkpt>
<trkpt lat="30.621028900" lon="34.843452454">
<ele>530.171875</ele>
<time>2013-11-22T13:53:54Z</time>
<extensions>
<speed>0.0</speed>
<temp>0.00</temp>
<bpm>0</bpm>
<rpm>0.00</rpm>
</extensions>
</trkpt>
<trkpt lat="30.621026993" lon="34.843460083">
<ele>530.187500</ele>
<time>2013-11-22T13:53:59Z</time>
<speed>0.260000</speed>
<extensions>
<speed>0.3</speed>
<temp>0.00</temp>
<bpm>0</bpm>
<rpm>0.00</rpm>
</extensions>
</trkpt>
<trkpt lat="30.621034622" lon="34.843460083">
<ele>530.093750</ele>
<time>2013-11-22T13:54:04Z</time>
<speed>1.620000</speed>
<extensions>
<speed>1.6</speed>
<temp>0.00</temp>
<bpm>0</bpm>
<rpm>0.00</rpm>
</extensions>
</trkpt>
<trkpt lat="30.621116638" lon="34.843463898">
<ele>530.437500</ele>
<time>2013-11-22T13:54:09Z</time>
<speed>2.590000</speed>
<extensions>
<speed>2.6</speed>
<temp>0.00</temp>
<bpm>0</bpm>
<rpm>0.00</rpm>
</extensions>
</trkpt>
<trkpt lat="30.621221542" lon="34.843475342">
<ele>530.671875</ele>
<time>2013-11-22T13:54:14Z</time>
<speed>2.810000</speed>
<extensions>
<speed>2.8</speed>
<temp>0.00</temp>
<bpm>0</bpm>
<rpm>0.00</rpm>
</extensions>
</trkpt>
<trkpt lat="30.621339798" lon="34.843433380">
<ele>530.500000</ele>
<time>2013-11-22T13:54:19Z</time>
<speed>2.690000</speed>
<extensions>
<speed>2.7</speed>
<temp>0.00</temp>
<bpm>0</bpm>
<rpm>0.00</rpm>
</extensions>
</trkpt>
<trkpt lat="30.621448517" lon="34.843330383">
<ele>529.968750</ele>
<time>2013-11-22T13:54:24Z</time>
<speed>3.180000</speed>
<extensions>
<speed>3.2</speed>
<temp>0.00</temp>
<bpm>0</bpm>
<rpm>0.00</rpm>
</extensions>
</trkpt>
<trkpt lat="30.621555328" lon="34.843219757">
<ele>529.015625</ele>
<time>2013-11-22T13:54:29Z</time>
<speed>3.010000</speed>
<extensions>
<speed>3.0</speed>
<temp>0.00</temp>
<bpm>0</bpm>
<rpm>0.00</rpm>
</extensions>
</trkpt>
<trkpt lat="30.621662140" lon="34.843109131">
<ele>528.390625</ele>
<time>2013-11-22T13:54:34Z</time>
<speed>2.970000</speed>
<extensions>
<speed>3.0</speed>
<temp>0.00</temp>
<bpm>0</bpm>
<rpm>0.00</rpm>
</extensions>
</trkpt>
<trkpt lat="30.621774673" lon="34.842998505">
<ele>527.265625</ele>
<time>2013-11-22T13:54:39Z</time>
<speed>3.160000</speed>
<extensions>
<speed>3.2</speed>
<temp>0.00</temp>
<bpm>0</bpm>
<rpm>0.00</rpm>
</extensions>
</trkpt>
<trkpt lat="30.621906281" lon="34.842872620">
<ele>526.109375</ele>
<time>2013-11-22T13:54:44Z</time>
<speed>3.650000</speed>
<extensions>
<speed>3.7</speed>
<temp>0.00</temp>
<bpm>0</bpm>
<rpm>0.00</rpm>
</extensions>
</trkpt>
<trkpt lat="30.622045517" lon="34.842742920">
<ele>525.109375</ele>
<time>2013-11-22T13:54:49Z</time>
<speed>3.890000</speed>
<extensions>
<speed>3.9</speed>
<temp>0.00</temp>
<bpm>0</bpm>
<rpm>0.00</rpm>
</extensions>
</trkpt>
<trkpt lat="30.622190475" lon="34.842601776">
<ele>524.718750</ele>
<time>2013-11-22T13:54:54Z</time>
<speed>4.410000</speed>
<extensions>
<speed>4.4</speed>
<temp>0.00</temp>
<bpm>0</bpm>
<rpm>0.00</rpm>
</extensions>
</trkpt>
<trkpt lat="30.622360229" lon="34.842445374">
<ele>523.343750</ele>
<time>2013-11-22T13:54:59Z</time>
<speed>4.890000</speed>
<extensions>
<speed>4.9</speed>
<temp>0.00</temp>
<bpm>0</bpm>
<rpm>0.00</rpm>
</extensions>
</trkpt>
<trkpt lat="30.622541428" lon="34.842288971">
<ele>522.390625</ele>
<time>2013-11-22T13:55:04Z</time>
<speed>5.080000</speed>
<extensions>
<speed>5.1</speed>
<temp>0.00</temp>
<bpm>0</bpm>
<rpm>0.00</rpm>
</extensions>
</trkpt>
<trkpt lat="30.622741699" lon="34.842113495">
<ele>521.046875</ele>
<time>2013-11-22T13:55:09Z</time>
<speed>5.760000</speed>
<extensions>
<speed>5.8</speed>
<temp>0.00</temp>
<bpm>0</bpm>
<rpm>0.00</rpm>
</extensions>
</trkpt>
<trkpt lat="30.622932434" lon="34.841945648">
<ele>521.609375</ele>
<time>2013-11-22T13:55:14Z</time>
<speed>4.950000</speed>
<extensions>
<speed>4.9</speed>
<temp>0.00</temp>
<bpm>0</bpm>
<rpm>0.00</rpm>
</extensions>
</trkpt>
<trkpt lat="30.623111725" lon="34.841777802">
<ele>522.031250</ele>
<time>2013-11-22T13:55:19Z</time>
<speed>5.260000</speed>
<extensions>
<speed>5.3</speed>
<temp>0.00</temp>
<bpm>0</bpm>
<rpm>0.00</rpm>
</extensions>
</trkpt>
<trkpt lat="30.623294830" lon="34.841602325">
<ele>522.656250</ele>
<time>2013-11-22T13:55:24Z</time>
<speed>5.520000</speed>
<extensions>
<speed>5.5</speed>
<temp>0.00</temp>
<bpm>0</bpm>
<rpm>0.00</rpm>
</extensions>
</trkpt>
<trkpt lat="30.623485565" lon="34.841415405">
<ele>522.625000</ele>
<time>2013-11-22T13:55:29Z</time>
<speed>5.630000</speed>
<extensions>
<speed>5.6</speed>
<temp>0.00</temp>
<bpm>0</bpm>
<rpm>0.00</rpm>
</extensions>
</trkpt>
<trkpt lat="30.623668671" lon="34.841186523">
<ele>522.281250</ele>
<time>2013-11-22T13:55:34Z</time>
<speed>5.780000</speed>
<extensions>
<speed>5.8</speed>
<temp>0.00</temp>
<bpm>0</bpm>
<rpm>0.00</rpm>
</extensions>
</trkpt>
<trkpt lat="30.623834610" lon="34.840953827">
<ele>522.156250</ele>
<time>2013-11-22T13:55:39Z</time>
<speed>6.170000</speed>
<extensions>
<speed>6.2</speed>
<temp>0.00</temp>
<bpm>0</bpm>
<rpm>0.00</rpm>
</extensions>
</trkpt>
<trkpt lat="30.623981476" lon="34.840698242">
<ele>520.625000</ele>
<time>2013-11-22T13:55:44Z</time>
<speed>6.050000</speed>
<extensions>
<speed>6.1</speed>
<temp>0.00</temp>
<bpm>0</bpm>
<rpm>0.00</rpm>
</extensions>
</trkpt>
<trkpt lat="30.624101639" lon="34.840423584">
<ele>518.984375</ele>
<time>2013-11-22T13:55:49Z</time>
<speed>5.760000</speed>
<extensions>
<speed>5.8</speed>
<temp>0.00</temp>
<bpm>0</bpm>
<rpm>0.00</rpm>
</extensions>
</trkpt>
<trkpt lat="30.624179840" lon="34.840133667">
<ele>515.531250</ele>
<time>2013-11-22T13:55:54Z</time>
<speed>6.080000</speed>
<extensions>
<speed>6.1</speed>
<temp>0.00</temp>
<bpm>0</bpm>
<rpm>0.00</rpm>
</extensions>
</trkpt>
<trkpt lat="30.624231339" lon="34.839820862">
<ele>514.578125</ele>
<time>2013-11-22T13:55:59Z</time>
<speed>6.170000</speed>
<extensions>
<speed>6.2</speed>
<temp>0.00</temp>
<bpm>0</bpm>
<rpm>0.00</rpm>
</extensions>
</trkpt>
<trkpt lat="30.624250412" lon="34.839508057">
<ele>516.078125</ele>
<time>2013-11-22T13:56:04Z</time>
<speed>6.110000</speed>
<extensions>
<speed>6.1</speed>
<temp>0.00</temp>
<bpm>0</bpm>
<rpm>0.00</rpm>
</extensions>
</trkpt>
<trkpt lat="30.624269485" lon="34.839191437">
<ele>520.031250</ele>
<time>2013-11-22T13:56:09Z</time>
<speed>5.250000</speed>
<extensions>
<speed>5.2</speed>
<temp>0.00</temp>
<bpm>0</bpm>
<rpm>0.00</rpm>
</extensions>
</trkpt>
<trkpt lat="30.624277115" lon="34.838947296">
<ele>522.265625</ele>
<time>2013-11-22T13:56:14Z</time>
<speed>4.380000</speed>
<extensions>
<speed>4.4</speed>
<temp>0.00</temp>
<bpm>0</bpm>
<rpm>0.00</rpm>
</extensions>
</trkpt>
<trkpt lat="30.624296188" lon="34.838710785">
<ele>524.859375</ele>
<time>2013-11-22T13:56:19Z</time>
<speed>4.530000</speed>
<extensions>
<speed>4.5</speed>
<temp>0.00</temp>
<bpm>0</bpm>
<rpm>0.00</rpm>
</extensions>
</trkpt>
<trkpt lat="30.624301910" lon="34.838466644">
<ele>529.062500</ele>
<time>2013-11-22T13:56:24Z</time>
<speed>4.580000</speed>
<extensions>
<speed>4.6</speed>
<temp>0.00</temp>
<bpm>0</bpm>
<rpm>0.00</rpm>
</extensions>
</trkpt>
<trkpt lat="30.624320984" lon="34.838222504">
<ele>534.296875</ele>
<time>2013-11-22T13:56:29Z</time>
<speed>4.320000</speed>
<extensions>
<speed>4.3</speed>
<temp>0.00</temp>
<bpm>0</bpm>
<rpm>0.00</rpm>
</extensions>
</trkpt>
<trkpt lat="30.624334335" lon="34.838020325">
<ele>538.062500</ele>
<time>2013-11-22T13:56:34Z</time>
<speed>3.970000</speed>
<extensions>
<speed>4.0</speed>
<temp>0.00</temp>
<bpm>0</bpm>
<rpm>0.00</rpm>
</extensions>
</trkpt>
<trkpt lat="30.624353409" lon="34.837795258">
<ele>544.546875</ele>
<time>2013-11-22T13:56:39Z</time>
<speed>3.810000</speed>
<extensions>
<speed>3.8</speed>
<temp>0.00</temp>
<bpm>0</bpm>
<rpm>0.00</rpm>
</extensions>
</trkpt>
<trkpt lat="30.624366760" lon="34.837581635">
<ele>550.421875</ele>
<time>2013-11-22T13:56:44Z</time>
<speed>4.170000</speed>
<extensions>
<speed>4.2</speed>
<temp>0.00</temp>
<bpm>0</bpm>
<rpm>0.00</rpm>
</extensions>
</trkpt>
<trkpt lat="30.624387741" lon="34.837364197">
<ele>554.328125</ele>
<time>2013-11-22T13:56:49Z</time>
<speed>3.620000</speed>
<extensions>
<speed>3.6</speed>
<temp>0.00</temp>
<bpm>0</bpm>
<rpm>0.00</rpm>
</extensions>
</trkpt>
<trkpt lat="30.624401093" lon="34.837165833">
<ele>558.390625</ele>
<time>2013-11-22T13:56:54Z</time>
<speed>3.920000</speed>
<extensions>
<speed>3.9</speed>
<temp>0.00</temp>
<bpm>0</bpm>
<rpm>0.00</rpm>
</extensions>
</trkpt>
<trkpt lat="30.624403000" lon="34.836971283">
<ele>560.265625</ele>
<time>2013-11-22T13:56:59Z</time>
<speed>3.110000</speed>
<extensions>
<speed>3.1</speed>
<temp>0.00</temp>
<bpm>0</bpm>
<rpm>0.00</rpm>
</extensions>
</trkpt>
<trkpt lat="30.624416351" lon="34.836799622">
<ele>563.296875</ele>
<time>2013-11-22T13:57:04Z</time>
<speed>3.690000</speed>
<extensions>
<speed>3.7</speed>
<temp>0.00</temp>
<bpm>0</bpm>
<rpm>0.00</rpm>
</extensions>
</trkpt>
<trkpt lat="30.624399185" lon="34.836601257">
<ele>567.093750</ele>
<time>2013-11-22T13:57:09Z</time>
<speed>3.780000</speed>
<extensions>
<speed>3.8</speed>
<temp>0.00</temp>
<bpm>0</bpm>
<rpm>0.00</rpm>
</extensions>
</trkpt>
<trkpt lat="30.624410629" lon="34.836433411">
<ele>570.593750</ele>
<time>2013-11-22T13:57:14Z</time>
<speed>2.400000</speed>
<extensions>
<speed>2.4</speed>
<temp>0.00</temp>
<bpm>0</bpm>
<rpm>0.00</rpm>
</extensions>
</trkpt>
<trkpt lat="30.624408722" lon="34.836296082">
<ele>571.875000</ele>
<time>2013-11-22T13:57:19Z</time>
<speed>3.410000</speed>
<extensions>
<speed>3.4</speed>
<temp>0.00</temp>
<bpm>0</bpm>
<rpm>0.00</rpm>
</extensions>
</trkpt>
<trkpt lat="30.624431610" lon="34.836109161">
<ele>569.328125</ele>
<time>2013-11-22T13:57:24Z</time>
<speed>3.780000</speed>
<extensions>
<speed>3.8</speed>
<temp>0.00</temp>
<bpm>0</bpm>
<rpm>0.00</rpm>
</extensions>
</trkpt>
<trkpt lat="30.624441147" lon="34.835933685">
<ele>569.562500</ele>
<time>2013-11-22T13:57:29Z</time>
<speed>3.010000</speed>
<extensions>
<speed>3.0</speed>
<temp>0.00</temp>
<bpm>0</bpm>
<rpm>0.00</rpm>
</extensions>
</trkpt>
<trkpt lat="30.624452591" lon="34.835758209">
<ele>569.687500</ele>
<time>2013-11-22T13:57:34Z</time>
<speed>3.750000</speed>
<extensions>
<speed>3.8</speed>
<temp>0.00</temp>
<bpm>0</bpm>
<rpm>0.00</rpm>
</extensions>
</trkpt>
<trkpt lat="30.624465942" lon="34.835559845">
<ele>568.140625</ele>
<time>2013-11-22T13:57:39Z</time>
<speed>3.990000</speed>
<extensions>
<speed>4.0</speed>
<temp>0.00</temp>
<bpm>0</bpm>
<rpm>0.00</rpm>
</extensions>
</trkpt>
<trkpt lat="30.624483109" lon="34.835346222">
<ele>569.921875</ele>
<time>2013-11-22T13:57:44Z</time>
<speed>4.120000</speed>
<extensions>
<speed>4.1</speed>
<temp>0.00</temp>
<bpm>0</bpm>
<rpm>0.00</rpm>
</extensions>
</trkpt>
<trkpt lat="30.624490738" lon="34.835124969">
<ele>572.843750</ele>
<time>2013-11-22T13:57:49Z</time>
<speed>4.370000</speed>
<extensions>
<speed>4.4</speed>
<temp>0.00</temp>
<bpm>0</bpm>
<rpm>0.00</rpm>
</extensions>
</trkpt>
<trkpt lat="30.624488831" lon="34.834938049">
<ele>574.546875</ele>
<time>2013-11-22T13:57:54Z</time>
<speed>2.860000</speed>
<extensions>
<speed>2.9</speed>
<temp>0.00</temp>
<bpm>0</bpm>
<rpm>0.00</rpm>
</extensions>
</trkpt>
<trkpt lat="30.624494553" lon="34.834766388">
<ele>575.265625</ele>
<time>2013-11-22T13:57:59Z</time>
<speed>3.640000</speed>
<extensions>
<speed>3.6</speed>
<temp>0.00</temp>
<bpm>0</bpm>
<rpm>0.00</rpm>
</extensions>
</trkpt>
<trkpt lat="30.624494553" lon="34.834579468">
<ele>577.343750</ele>
<time>2013-11-22T13:58:04Z</time>
<speed>4.010000</speed>
<extensions>
<speed>4.0</speed>
<temp>0.00</temp>
<bpm>0</bpm>
<rpm>0.00</rpm>
</extensions>
</trkpt>
<trkpt lat="30.624509811" lon="34.834373474">
<ele>578.843750</ele>
<time>2013-11-22T13:58:09Z</time>
<speed>3.840000</speed>
<extensions>
<speed>3.8</speed>
<temp>0.00</temp>
<bpm>0</bpm>
<rpm>0.00</rpm>
</extensions>
</trkpt>
<trkpt lat="30.624515533" lon="34.834159851">
<ele>584.218750</ele>
<time>2013-11-22T13:58:14Z</time>
<speed>4.230000</speed>
<extensions>
<speed>4.2</speed>
<temp>0.00</temp>
<bpm>0</bpm>
<rpm>0.00</rpm>
</extensions>
</trkpt>
<trkpt lat="30.624530792" lon="34.833938599">
<ele>585.218750</ele>
<time>2013-11-22T13:58:19Z</time>
<speed>4.410000</speed>
<extensions>
<speed>4.4</speed>
<temp>0.00</temp>
<bpm>0</bpm>
<rpm>0.00</rpm>
</extensions>
</trkpt>
<trkpt lat="30.624555588" lon="34.833717346">
<ele>583.343750</ele>
<time>2013-11-22T13:58:24Z</time>
<speed>4.180000</speed>
<extensions>
<speed>4.2</speed>
<temp>0.00</temp>
<bpm>0</bpm>
<rpm>0.00</rpm>
</extensions>
</trkpt>
<trkpt lat="30.624551773" lon="34.833541870">
<ele>583.109375</ele>
<time>2013-11-22T13:58:29Z</time>
<speed>3.540000</speed>
<extensions>
<speed>3.5</speed>
<temp>0.00</temp>
<bpm>0</bpm>
<rpm>0.00</rpm>
</extensions>
</trkpt>
<trkpt lat="30.624563217" lon="34.833343506">
<ele>585.593750</ele>
<time>2013-11-22T13:58:34Z</time>
<speed>4.020000</speed>
<extensions>
<speed>4.0</speed>
<temp>0.00</temp>
<bpm>0</bpm>
<rpm>0.00</rpm>
</extensions>
</trkpt>
<trkpt lat="30.624578476" lon="34.833141327">
<ele>586.296875</ele>
<time>2013-11-22T13:58:39Z</time>
<speed>3.340000</speed>
<extensions>
<speed>3.3</speed>
<temp>0.00</temp>
<bpm>0</bpm>
<rpm>0.00</rpm>
</extensions>
</trkpt>
<trkpt lat="30.624593735" lon="34.832981110">
<ele>583.421875</ele>
<time>2013-11-22T13:58:44Z</time>
<speed>3.600000</speed>
<extensions>
<speed>3.6</speed>
<temp>0.00</temp>
<bpm>0</bpm>
<rpm>0.00</rpm>
</extensions>
</trkpt>
<trkpt lat="30.624595642" lon="34.832786560">
<ele>581.015625</ele>
<time>2013-11-22T13:58:49Z</time>
<speed>3.810000</speed>
<extensions>
<speed>3.8</speed>
<temp>0.00</temp>
<bpm>0</bpm>
<rpm>0.00</rpm>
</extensions>
</trkpt>
<trkpt lat="30.624622345" lon="34.832584381">
<ele>579.578125</ele>
<time>2013-11-22T13:58:54Z</time>
<speed>3.820000</speed>
<extensions>
<speed>3.8</speed>
<temp>0.00</temp>
<bpm>0</bpm>
<rpm>0.00</rpm>
</extensions>
</trkpt>
<trkpt lat="30.624647141" lon="34.832416534">
<ele>578.375000</ele>
<time>2013-11-22T13:58:59Z</time>
<speed>3.580000</speed>
<extensions>
<speed>3.6</speed>
<temp>0.00</temp>
<bpm>0</bpm>
<rpm>0.00</rpm>
</extensions>
</trkpt>
<trkpt lat="30.624668121" lon="34.832214355">
<ele>574.828125</ele>
<time>2013-11-22T13:59:04Z</time>
<speed>4.030000</speed>
<extensions>
<speed>4.0</speed>
<temp>0.00</temp>
<bpm>0</bpm>
<rpm>0.00</rpm>
</extensions>
</trkpt>
<trkpt lat="30.624679565" lon="34.832000732">
<ele>575.265625</ele>
<time>2013-11-22T13:59:09Z</time>
<speed>4.280000</speed>
<extensions>
<speed>4.3</speed>
<temp>0.00</temp>
<bpm>0</bpm>
<rpm>0.00</rpm>
</extensions>
</trkpt>
<trkpt lat="30.624702454" lon="34.831771851">
<ele>572.468750</ele>
<time>2013-11-22T13:59:14Z</time>
<speed>4.340000</speed>
<extensions>
<speed>4.3</speed>
<temp>0.00</temp>
<bpm>0</bpm>
<rpm>0.00</rpm>
</extensions>
</trkpt>
<trkpt lat="30.624721527" lon="34.831542969">
<ele>571.671875</ele>
<time>2013-11-22T13:59:19Z</time>
<speed>4.660000</speed>
<extensions>
<speed>4.7</speed>
<temp>0.00</temp>
<bpm>0</bpm>
<rpm>0.00</rpm>
</extensions>
</trkpt>
<trkpt lat="30.624721527" lon="34.831325531">
<ele>572.812500</ele>
<time>2013-11-22T13:59:24Z</time>
<speed>4.330000</speed>
<extensions>
<speed>4.3</speed>
<temp>0.00</temp>
<bpm>0</bpm>
<rpm>0.00</rpm>
</extensions>
</trkpt>
<trkpt lat="30.624732971" lon="34.831100464">
<ele>571.406250</ele>
<time>2013-11-22T13:59:29Z</time>
<speed>4.290000</speed>
<extensions>
<speed>4.3</speed>
<temp>0.00</temp>
<bpm>0</bpm>
<rpm>0.00</rpm>
</extensions>
</trkpt>
<trkpt lat="30.624732971" lon="34.830871582">
<ele>573.343750</ele>
<time>2013-11-22T13:59:34Z</time>
<speed>4.460000</speed>
<extensions>
<speed>4.5</speed>
<temp>0.00</temp>
<bpm>0</bpm>
<rpm>0.00</rpm>
</extensions>
</trkpt>
<trkpt lat="30.624732971" lon="34.830684662">
<ele>578.312500</ele>
<time>2013-11-22T13:59:39Z</time>
<speed>3.520000</speed>
<extensions>
<speed>3.5</speed>
<temp>0.00</temp>
<bpm>0</bpm>
<rpm>0.00</rpm>
</extensions>
</trkpt>
<trkpt lat="30.624740601" lon="34.830486298">
<ele>581.609375</ele>
<time>2013-11-22T13:59:44Z</time>
<speed>4.080000</speed>
<extensions>
<speed>4.1</speed>
<temp>0.00</temp>
<bpm>0</bpm>
<rpm>0.00</rpm>
</extensions>
</trkpt>
<trkpt lat="30.624746323" lon="34.830314636">
<ele>581.031250</ele>
<time>2013-11-22T13:59:49Z</time>
<speed>3.280000</speed>
<extensions>
<speed>3.3</speed>
<temp>0.00</temp>
<bpm>0</bpm>
<rpm>0.00</rpm>
</extensions>
</trkpt>
<trkpt lat="30.624769211" lon="34.830120087">
<ele>576.328125</ele>
<time>2013-11-22T13:59:54Z</time>
<speed>3.640000</speed>
<extensions>
<speed>3.6</speed>
<temp>0.00</temp>
<bpm>0</bpm>
<rpm>0.00</rpm>
</extensions>
</trkpt>
<trkpt lat="30.624773026" lon="34.829956055">
<ele>571.109375</ele>
<time>2013-11-22T13:59:59Z</time>
<speed>3.530000</speed>
<extensions>
<speed>3.5</speed>
<temp>0.00</temp>
<bpm>0</bpm>
<rpm>0.00</rpm>
</extensions>
</trkpt>
<trkpt lat="30.624788284" lon="34.829761505">
<ele>568.875000</ele>
<time>2013-11-22T14:00:04Z</time>
<speed>3.800000</speed>
<extensions>
<speed>3.8</speed>
<temp>0.00</temp>
<bpm>0</bpm>
<rpm>0.00</rpm>
</extensions>
</trkpt>
<trkpt lat="30.624801636" lon="34.829563141">
<ele>568.968750</ele>
<time>2013-11-22T14:00:09Z</time>
<speed>3.890000</speed>
<extensions>
<speed>3.9</speed>
<temp>0.00</temp>
<bpm>0</bpm>
<rpm>0.00</rpm>
</extensions>
</trkpt>
<trkpt lat="30.624811172" lon="34.829372406">
<ele>570.312500</ele>
<time>2013-11-22T14:00:14Z</time>
<speed>4.090000</speed>
<extensions>
<speed>4.1</speed>
<temp>0.00</temp>
<bpm>0</bpm>
<rpm>0.00</rpm>
</extensions>
</trkpt>
<trkpt lat="30.624826431" lon="34.829158783">
<ele>570.390625</ele>
<time>2013-11-22T14:00:19Z</time>
<speed>4.060000</speed>
<extensions>
<speed>4.1</speed>
<temp>0.00</temp>
<bpm>0</bpm>
<rpm>0.00</rpm>
</extensions>
</trkpt>
<trkpt lat="30.624855042" lon="34.828941345">
<ele>569.218750</ele>
<time>2013-11-22T14:00:24Z</time>
<speed>4.250000</speed>
<extensions>
<speed>4.3</speed>
<temp>0.00</temp>
<bpm>0</bpm>
<rpm>0.00</rpm>
</extensions>
</trkpt>
<trkpt lat="30.624874115" lon="34.828716278">
<ele>568.750000</ele>
<time>2013-11-22T14:00:29Z</time>
<speed>4.190000</speed>
<extensions>
<speed>4.2</speed>
<temp>0.00</temp>
<bpm>0</bpm>
<rpm>0.00</rpm>
</extensions>
</trkpt>
<trkpt lat="30.624897003" lon="34.828498840">
<ele>567.921875</ele>
<time>2013-11-22T14:00:34Z</time>
<speed>4.010000</speed>
<extensions>
<speed>4.0</speed>
<temp>0.00</temp>
<bpm>0</bpm>
<rpm>0.00</rpm>
</extensions>
</trkpt>
<trkpt lat="30.624904633" lon="34.828311920">
<ele>568.718750</ele>
<time>2013-11-22T14:00:39Z</time>
<speed>3.560000</speed>
<extensions>
<speed>3.6</speed>
<temp>0.00</temp>
<bpm>0</bpm>
<rpm>0.00</rpm>
</extensions>
</trkpt>
<trkpt lat="30.624912262" lon="34.828109741">
<ele>572.156250</ele>
<time>2013-11-22T14:00:44Z</time>
<speed>4.040000</speed>
<extensions>
<speed>4.0</speed>
<temp>0.00</temp>
<bpm>0</bpm>
<rpm>0.00</rpm>
</extensions>
</trkpt>
<trkpt lat="30.624914169" lon="34.827972412">
<ele>574.281250</ele>
<time>2013-11-22T14:00:49Z</time>
<speed>1.770000</speed>
<extensions>
<speed>1.8</speed>
<temp>0.00</temp>
<bpm>0</bpm>
<rpm>0.00</rpm>
</extensions>
</trkpt>
<trkpt lat="30.624916077" lon="34.827846527">
<ele>575.546875</ele>
<time>2013-11-22T14:00:54Z</time>
<speed>2.590000</speed>
<extensions>
<speed>2.6</speed>
<temp>0.00</temp>
<bpm>0</bpm>
<rpm>0.00</rpm>
</extensions>
</trkpt>
<trkpt lat="30.624923706" lon="34.827709198">
<ele>576.234375</ele>
<time>2013-11-22T14:00:59Z</time>
<speed>2.560000</speed>
<extensions>
<speed>2.6</speed>
<temp>0.00</temp>
<bpm>0</bpm>
<rpm>0.00</rpm>
</extensions>
</trkpt>
<trkpt lat="30.624938965" lon="34.827545166">
<ele>575.640625</ele>
<time>2013-11-22T14:01:04Z</time>
<speed>3.130000</speed>
<extensions>
<speed>3.1</speed>
<temp>0.00</temp>
<bpm>0</bpm>
<rpm>0.00</rpm>
</extensions>
</trkpt>
<trkpt lat="30.624944687" lon="34.827384949">
<ele>576.421875</ele>
<time>2013-11-22T14:01:09Z</time>
<speed>3.330000</speed>
<extensions>
<speed>3.3</speed>
<temp>0.00</temp>
<bpm>0</bpm>
<rpm>0.00</rpm>
</extensions>
</trkpt>
<trkpt lat="30.624956131" lon="34.827236176">
<ele>576.718750</ele>
<time>2013-11-22T14:01:14Z</time>
<speed>2.620000</speed>
<extensions>
<speed>2.6</speed>
<temp>0.00</temp>
<bpm>0</bpm>
<rpm>0.00</rpm>
</extensions>
</trkpt>
<trkpt lat="30.624961853" lon="34.827110291">
<ele>577.671875</ele>
<time>2013-11-22T14:01:19Z</time>
<speed>2.410000</speed>
<extensions>
<speed>2.4</speed>
<temp>0.00</temp>
<bpm>0</bpm>
<rpm>0.00</rpm>
</extensions>
</trkpt>
<trkpt lat="30.624973297" lon="34.826984406">
<ele>578.750000</ele>
<time>2013-11-22T14:01:24Z</time>
<speed>2.530000</speed>
<extensions>
<speed>2.5</speed>
<temp>0.00</temp>
<bpm>0</bpm>
<rpm>0.00</rpm>
</extensions>
</trkpt>
<trkpt lat="30.624975204" lon="34.826885223">
<ele>581.515625</ele>
<time>2013-11-22T14:01:29Z</time>
<speed>1.350000</speed>
<extensions>
<speed>1.4</speed>
<temp>0.00</temp>
<bpm>0</bpm>
<rpm>0.00</rpm>
</extensions>
</trkpt>
<trkpt lat="30.624980927" lon="34.826778412">
<ele>581.296875</ele>
<time>2013-11-22T14:01:34Z</time>
<speed>2.320000</speed>
<extensions>
<speed>2.3</speed>
<temp>0.00</temp>
<bpm>0</bpm>
<rpm>0.00</rpm>
</extensions>
</trkpt>
<trkpt lat="30.624990463" lon="34.826652527">
<ele>580.515625</ele>
<time>2013-11-22T14:01:39Z</time>
<speed>2.260000</speed>
<extensions>
<speed>2.3</speed>
<temp>0.00</temp>
<bpm>0</bpm>
<rpm>0.00</rpm>
</extensions>
</trkpt>
<trkpt lat="30.625011444" lon="34.826526642">
<ele>579.765625</ele>
<time>2013-11-22T14:01:44Z</time>
<speed>2.100000</speed>
<extensions>
<speed>2.1</speed>
<temp>0.00</temp>
<bpm>0</bpm>
<rpm>0.00</rpm>
</extensions>
</trkpt>
<trkpt lat="30.625024796" lon="34.826404572">
<ele>579.093750</ele>
<time>2013-11-22T14:01:49Z</time>
<speed>2.300000</speed>
<extensions>
<speed>2.3</speed>
<temp>0.00</temp>
<bpm>0</bpm>
<rpm>0.00</rpm>
</extensions>
</trkpt>
<trkpt lat="30.625017166" lon="34.826297760">
<ele>581.234375</ele>
<time>2013-11-22T14:01:54Z</time>
<speed>1.390000</speed>
<extensions>
<speed>1.4</speed>
<temp>0.00</temp>
<bpm>0</bpm>
<rpm>0.00</rpm>
</extensions>
</trkpt>
<trkpt lat="30.625030518" lon="34.826225281">
<ele>582.015625</ele>
<time>2013-11-22T14:01:59Z</time>
<speed>1.560000</speed>
<extensions>
<speed>1.6</speed>
<temp>0.00</temp>
<bpm>0</bpm>
<rpm>0.00</rpm>
</extensions>
</trkpt>
<trkpt lat="30.625026703" lon="34.826145172">
<ele>583.078125</ele>
<time>2013-11-22T14:02:04Z</time>
<speed>1.830000</speed>
<extensions>
<speed>1.8</speed>
<temp>0.00</temp>
<bpm>0</bpm>
<rpm>0.00</rpm>
</extensions>
</trkpt>
<trkpt lat="30.625026703" lon="34.826061249">
<ele>583.921875</ele>
<time>2013-11-22T14:02:09Z</time>
<speed>1.850000</speed>
<extensions>
<speed>1.8</speed>
<temp>0.00</temp>
<bpm>0</bpm>
<rpm>0.00</rpm>
</extensions>
</trkpt>
<trkpt lat="30.625024796" lon="34.825958252">
<ele>585.890625</ele>
<time>2013-11-22T14:02:14Z</time>
<speed>1.780000</speed>
<extensions>
<speed>1.8</speed>
<temp>0.00</temp>
<bpm>0</bpm>
<rpm>0.00</rpm>
</extensions>
</trkpt>
<trkpt lat="30.625026703" lon="34.825862885">
<ele>586.828125</ele>
<time>2013-11-22T14:02:19Z</time>
<speed>2.030000</speed>
<extensions>
<speed>2.0</speed>
<temp>0.00</temp>
<bpm>0</bpm>
<rpm>0.00</rpm>
</extensions>
</trkpt>
<trkpt lat="30.625032425" lon="34.825744629">
<ele>587.843750</ele>
<time>2013-11-22T14:02:24Z</time>
<speed>2.320000</speed>
<extensions>
<speed>2.3</speed>
<temp>0.00</temp>
<bpm>0</bpm>
<rpm>0.00</rpm>
</extensions>
</trkpt>
<trkpt lat="30.625038147" lon="34.825630188">
<ele>588.343750</ele>
<time>2013-11-22T14:02:29Z</time>
<speed>2.150000</speed>
<extensions>
<speed>2.1</speed>
<temp>0.00</temp>
<bpm>0</bpm>
<rpm>0.00</rpm>
</extensions>
</trkpt>
<trkpt lat="30.625032425" lon="34.825511932">
<ele>588.140625</ele>
<time>2013-11-22T14:02:34Z</time>
<speed>2.190000</speed>
<extensions>
<speed>2.2</speed>
<temp>0.00</temp>
<bpm>0</bpm>
<rpm>0.00</rpm>
</extensions>
</trkpt>
<trkpt lat="30.625034332" lon="34.825401306">
<ele>589.484375</ele>
<time>2013-11-22T14:02:39Z</time>
<speed>2.160000</speed>
<extensions>
<speed>2.2</speed>
<temp>0.00</temp>
<bpm>0</bpm>
<rpm>0.00</rpm>
</extensions>
</trkpt>
<trkpt lat="30.625028610" lon="34.825286865">
<ele>590.390625</ele>
<time>2013-11-22T14:02:44Z</time>
<speed>2.240000</speed>
<extensions>
<speed>2.2</speed>
<temp>0.00</temp>
<bpm>0</bpm>
<rpm>0.00</rpm>
</extensions>
</trkpt>
<trkpt lat="30.625036240" lon="34.825172424">
<ele>588.093750</ele>
<time>2013-11-22T14:02:49Z</time>
<speed>2.260000</speed>
<extensions>
<speed>2.3</speed>
<temp>0.00</temp>
<bpm>0</bpm>
<rpm>0.00</rpm>
</extensions>
</trkpt>
<trkpt lat="30.625040054" lon="34.825057983">
<ele>586.281250</ele>
<time>2013-11-22T14:02:54Z</time>
<speed>2.020000</speed>
<extensions>
<speed>2.0</speed>
<temp>0.00</temp>
<bpm>0</bpm>
<rpm>0.00</rpm>
</extensions>
</trkpt>
<trkpt lat="30.625034332" lon="34.824954987">
<ele>585.515625</ele>
<time>2013-11-22T14:02:59Z</time>
<speed>1.960000</speed>
<extensions>
<speed>2.0</speed>
<temp>0.00</temp>
<bpm>0</bpm>
<rpm>0.00</rpm>
</extensions>
</trkpt>
<trkpt lat="30.625015259" lon="34.824863434">
<ele>586.187500</ele>
<time>2013-11-22T14:03:04Z</time>
<speed>1.940000</speed>
<extensions>
<speed>1.9</speed>
<temp>0.00</temp>
<bpm>0</bpm>
<rpm>0.00</rpm>
</extensions>
</trkpt>
<trkpt lat="30.624990463" lon="34.824768066">
<ele>585.687500</ele>
<time>2013-11-22T14:03:09Z</time>
<speed>2.160000</speed>
<extensions>
<speed>2.2</speed>
<temp>0.00</temp>
<bpm>0</bpm>
<rpm>0.00</rpm>
</extensions>
</trkpt>
<trkpt lat="30.624965668" lon="34.824653625">
<ele>586.078125</ele>
<time>2013-11-22T14:03:14Z</time>
<speed>2.220000</speed>
<extensions>
<speed>2.2</speed>
<temp>0.00</temp>
<bpm>0</bpm>
<rpm>0.00</rpm>
</extensions>
</trkpt>
<trkpt lat="30.624942780" lon="34.824535370">
<ele>586.125000</ele>
<time>2013-11-22T14:03:19Z</time>
<speed>2.300000</speed>
<extensions>
<speed>2.3</speed>
<temp>0.00</temp>
<bpm>0</bpm>
<rpm>0.00</rpm>
</extensions>
</trkpt>
<trkpt lat="30.624908447" lon="34.824424744">
<ele>587.593750</ele>
<time>2013-11-22T14:03:24Z</time>
<speed>2.210000</speed>
<extensions>
<speed>2.2</speed>
<temp>0.00</temp>
<bpm>0</bpm>
<rpm>0.00</rpm>
</extensions>
</trkpt>
<trkpt lat="30.624885559" lon="34.824314117">
<ele>587.390625</ele>
<time>2013-11-22T14:03:29Z</time>
<speed>1.800000</speed>
<extensions>
<speed>1.8</speed>
<temp>0.00</temp>
<bpm>0</bpm>
<rpm>0.00</rpm>
</extensions>
</trkpt>
<trkpt lat="30.624855042" lon="34.824199677">
<ele>588.500000</ele>
<time>2013-11-22T14:03:34Z</time>
<speed>2.440000</speed>
<extensions>
<speed>2.4</speed>
<temp>0.00</temp>
<bpm>0</bpm>
<rpm>0.00</rpm>
</extensions>
</trkpt>
<trkpt lat="30.624820709" lon="34.824081421">
<ele>589.406250</ele>
<time>2013-11-22T14:03:39Z</time>
<speed>2.130000</speed>
<extensions>
<speed>2.1</speed>
<temp>0.00</temp>
<bpm>0</bpm>
<rpm>0.00</rpm>
</extensions>
</trkpt>
<trkpt lat="30.624795914" lon="34.823974609">
<ele>588.187500</ele>
<time>2013-11-22T14:03:44Z</time>
<speed>2.170000</speed>
<extensions>
<speed>2.2</speed>
<temp>0.00</temp>
<bpm>0</bpm>
<rpm>0.00</rpm>
</extensions>
</trkpt>
<trkpt lat="30.624763489" lon="34.823871613">
<ele>588.484375</ele>
<time>2013-11-22T14:03:49Z</time>
<speed>2.190000</speed>
<extensions>
<speed>2.2</speed>
<temp>0.00</temp>
<bpm>0</bpm>
<rpm>0.00</rpm>
</extensions>
</trkpt>
<trkpt lat="30.624729156" lon="34.823814392">
<ele>588.562500</ele>
<time>2013-11-22T14:03:54Z</time>
<speed>1.800000</speed>
<extensions>
<speed>1.8</speed>
<temp>0.00</temp>
<bpm>0</bpm>
<rpm>0.00</rpm>
</extensions>
</trkpt>
<trkpt lat="30.624702454" lon="34.823726654">
<ele>588.296875</ele>
<time>2013-11-22T14:03:59Z</time>
<speed>1.980000</speed>
<extensions>
<speed>2.0</speed>
<temp>0.00</temp>
<bpm>0</bpm>
<rpm>0.00</rpm>
</extensions>
</trkpt>
<trkpt lat="30.624649048" lon="34.823635101">
<ele>590.250000</ele>
<time>2013-11-22T14:04:04Z</time>
<speed>2.120000</speed>
<extensions>
<speed>2.1</speed>
<temp>0.00</temp>
<bpm>0</bpm>
<rpm>0.00</rpm>
</extensions>
</trkpt>
<trkpt lat="30.624597549" lon="34.823535919">
<ele>591.406250</ele>
<time>2013-11-22T14:04:09Z</time>
<speed>2.180000</speed>
<extensions>
<speed>2.2</speed>
<temp>0.00</temp>
<bpm>0</bpm>
<rpm>0.00</rpm>
</extensions>
</trkpt>
<trkpt lat="30.624559402" lon="34.823440552">
<ele>591.718750</ele>
<time>2013-11-22T14:04:14Z</time>
<speed>1.630000</speed>
<extensions>
<speed>1.6</speed>
<temp>0.00</temp>
<bpm>0</bpm>
<rpm>0.00</rpm>
</extensions>
</trkpt>
<trkpt lat="30.624540329" lon="34.823390961">
<ele>592.406250</ele>
<time>2013-11-22T14:04:19Z</time>
<speed>1.590000</speed>
<extensions>
<speed>1.6</speed>
<temp>0.00</temp>
<bpm>0</bpm>
<rpm>0.00</rpm>
</extensions>
</trkpt>
<trkpt lat="30.624490738" lon="34.823299408">
<ele>592.421875</ele>
<time>2013-11-22T14:04:24Z</time>
<speed>2.200000</speed>
<extensions>
<speed>2.2</speed>
<temp>0.00</temp>
<bpm>0</bpm>
<rpm>0.00</rpm>
</extensions>
</trkpt>
<trkpt lat="30.624439240" lon="34.823207855">
<ele>592.828125</ele>
<time>2013-11-22T14:04:29Z</time>
<speed>2.150000</speed>
<extensions>
<speed>2.1</speed>
<temp>0.00</temp>
<bpm>0</bpm>
<rpm>0.00</rpm>
</extensions>
</trkpt>
<trkpt lat="30.624385834" lon="34.823116302">
<ele>592.453125</ele>
<time>2013-11-22T14:04:34Z</time>
<speed>2.360000</speed>
<extensions>
<speed>2.4</speed>
<temp>0.00</temp>
<bpm>0</bpm>
<rpm>0.00</rpm>
</extensions>
</trkpt>
<trkpt lat="30.624326706" lon="34.823020935">
<ele>592.203125</ele>
<time>2013-11-22T14:04:39Z</time>
<speed>2.270000</speed>
<extensions>
<speed>2.3</speed>
<temp>0.00</temp>
<bpm>0</bpm>
<rpm>0.00</rpm>
</extensions>
</trkpt>
<trkpt lat="30.624300003" lon="34.822963715">
<ele>590.703125</ele>
<time>2013-11-22T14:04:44Z</time>
<speed>0.860000</speed>
<extensions>
<speed>0.9</speed>
<temp>0.00</temp>
<bpm>0</bpm>
<rpm>0.00</rpm>
</extensions>
</trkpt>
<trkpt lat="30.624246597" lon="34.822895050">
<ele>592.000000</ele>
<time>2013-11-22T14:04:49Z</time>
<speed>2.150000</speed>
<extensions>
<speed>2.1</speed>
<temp>0.00</temp>
<bpm>0</bpm>
<rpm>0.00</rpm>
</extensions>
</trkpt>
<trkpt lat="30.624187469" lon="34.822795868">
<ele>592.750000</ele>
<time>2013-11-22T14:04:54Z</time>
<speed>2.090000</speed>
<extensions>
<speed>2.1</speed>
<temp>0.00</temp>
<bpm>0</bpm>
<rpm>0.00</rpm>
</extensions>
</trkpt>
<trkpt lat="30.624118805" lon="34.822715759">
<ele>593.937500</ele>
<time>2013-11-22T14:04:59Z</time>
<speed>2.180000</speed>
<extensions>
<speed>2.2</speed>
<temp>0.00</temp>
<bpm>0</bpm>
<rpm>0.00</rpm>
</extensions>
</trkpt>
<trkpt lat="30.624059677" lon="34.822631836">
<ele>594.390625</ele>
<time>2013-11-22T14:05:04Z</time>
<speed>2.120000</speed>
<extensions>
<speed>2.1</speed>
<temp>0.00</temp>
<bpm>0</bpm>
<rpm>0.00</rpm>
</extensions>
</trkpt>
<trkpt lat="30.624023438" lon="34.822570801">
<ele>594.031250</ele>
<time>2013-11-22T14:05:09Z</time>
<speed>2.040000</speed>
<extensions>
<speed>2.0</speed>
<temp>0.00</temp>
<bpm>0</bpm>
<rpm>0.00</rpm>
</extensions>
</trkpt>
<trkpt lat="30.623971939" lon="34.822483063">
<ele>592.984375</ele>
<time>2013-11-22T14:05:14Z</time>
<speed>2.170000</speed>
<extensions>
<speed>2.2</speed>
<temp>0.00</temp>
<bpm>0</bpm>
<rpm>0.00</rpm>
</extensions>
</trkpt>
<trkpt lat="30.623903275" lon="34.822376251">
<ele>597.765625</ele>
<time>2013-11-22T14:05:19Z</time>
<speed>2.310000</speed>
<extensions>
<speed>2.3</speed>
<temp>0.00</temp>
<bpm>0</bpm>
<rpm>0.00</rpm>
</extensions>
</trkpt>
<trkpt lat="30.623844147" lon="34.822273254">
<ele>597.437500</ele>
<time>2013-11-22T14:05:24Z</time>
<speed>2.300000</speed>
<extensions>
<speed>2.3</speed>
<temp>0.00</temp>
<bpm>0</bpm>
<rpm>0.00</rpm>
</extensions>
</trkpt>
<trkpt lat="30.623775482" lon="34.822185516">
<ele>598.890625</ele>
<time>2013-11-22T14:05:29Z</time>
<speed>2.410000</speed>
<extensions>
<speed>2.4</speed>
<temp>0.00</temp>
<bpm>0</bpm>
<rpm>0.00</rpm>
</extensions>
</trkpt>
<trkpt lat="30.623708725" lon="34.822086334">
<ele>599.296875</ele>
<time>2013-11-22T14:05:34Z</time>
<speed>2.450000</speed>
<extensions>
<speed>2.4</speed>
<temp>0.00</temp>
<bpm>0</bpm>
<rpm>0.00</rpm>
</extensions>
</trkpt>
<trkpt lat="30.623638153" lon="34.821987152">
<ele>600.578125</ele>
<time>2013-11-22T14:05:39Z</time>
<speed>2.250000</speed>
<extensions>
<speed>2.3</speed>
<temp>0.00</temp>
<bpm>0</bpm>
<rpm>0.00</rpm>
</extensions>
</trkpt>
<trkpt lat="30.623571396" lon="34.821914673">
<ele>602.890625</ele>
<time>2013-11-22T14:05:44Z</time>
<speed>2.320000</speed>
<extensions>
<speed>2.3</speed>
<temp>0.00</temp>
<bpm>0</bpm>
<rpm>0.00</rpm>
</extensions>
</trkpt>
<trkpt lat="30.623510361" lon="34.821807861">
<ele>602.390625</ele>
<time>2013-11-22T14:05:49Z</time>
<speed>2.380000</speed>
<extensions>
<speed>2.4</speed>
<temp>0.00</temp>
<bpm>0</bpm>
<rpm>0.00</rpm>
</extensions>
</trkpt>
<trkpt lat="30.623456955" lon="34.821712494">
<ele>601.437500</ele>
<time>2013-11-22T14:05:54Z</time>
<speed>1.300000</speed>
<extensions>
<speed>1.3</speed>
<temp>0.00</temp>
<bpm>0</bpm>
<rpm>0.00</rpm>
</extensions>
</trkpt>
<trkpt lat="30.623407364" lon="34.821640015">
<ele>602.078125</ele>
<time>2013-11-22T14:05:59Z</time>
<speed>2.320000</speed>
<extensions>
<speed>2.3</speed>
<temp>0.00</temp>
<bpm>0</bpm>
<rpm>0.00</rpm>
</extensions>
</trkpt>
<trkpt lat="30.623342514" lon="34.821556091">
<ele>604.390625</ele>
<time>2013-11-22T14:06:04Z</time>
<speed>2.270000</speed>
<extensions>
<speed>2.3</speed>
<temp>0.00</temp>
<bpm>0</bpm>
<rpm>0.00</rpm>
</extensions>
</trkpt>
<trkpt lat="30.623285294" lon="34.821472168">
<ele>604.953125</ele>
<time>2013-11-22T14:06:09Z</time>
<speed>2.330000</speed>
<extensions>
<speed>2.3</speed>
<temp>0.00</temp>
<bpm>0</bpm>
<rpm>0.00</rpm>
</extensions>
</trkpt>
<trkpt lat="30.623224258" lon="34.821376801">
<ele>605.406250</ele>
<time>2013-11-22T14:06:14Z</time>
<speed>2.190000</speed>
<extensions>
<speed>2.2</speed>
<temp>0.00</temp>
<bpm>0</bpm>
<rpm>0.00</rpm>
</extensions>
</trkpt>
<trkpt lat="30.623195648" lon="34.821292877">
<ele>604.906250</ele>
<time>2013-11-22T14:06:19Z</time>
<speed>1.340000</speed>
<extensions>
<speed>1.3</speed>
<temp>0.00</temp>
<bpm>0</bpm>
<rpm>0.00</rpm>
</extensions>
</trkpt>
<trkpt lat="30.623138428" lon="34.821208954">
<ele>606.343750</ele>
<time>2013-11-22T14:06:24Z</time>
<speed>2.130000</speed>
<extensions>
<speed>2.1</speed>
<temp>0.00</temp>
<bpm>0</bpm>
<rpm>0.00</rpm>
</extensions>
</trkpt>
<trkpt lat="30.623085022" lon="34.821117401">
<ele>606.093750</ele>
<time>2013-11-22T14:06:29Z</time>
<speed>2.090000</speed>
<extensions>
<speed>2.1</speed>
<temp>0.00</temp>
<bpm>0</bpm>
<rpm>0.00</rpm>
</extensions>
</trkpt>
<trkpt lat="30.623033524" lon="34.821052551">
<ele>608.093750</ele>
<time>2013-11-22T14:06:34Z</time>
<speed>0.810000</speed>
<extensions>
<speed>0.8</speed>
<temp>0.00</temp>
<bpm>0</bpm>
<rpm>0.00</rpm>
</extensions>
</trkpt>
<trkpt lat="30.622991562" lon="34.820999146">
<ele>611.078125</ele>
<time>2013-11-22T14:06:39Z</time>
<speed>1.870000</speed>
<extensions>
<speed>1.9</speed>
<temp>0.00</temp>
<bpm>0</bpm>
<rpm>0.00</rpm>
</extensions>
</trkpt>
<trkpt lat="30.622932434" lon="34.820915222">
<ele>613.328125</ele>
<time>2013-11-22T14:06:44Z</time>
<speed>2.040000</speed>
<extensions>
<speed>2.0</speed>
<temp>0.00</temp>
<bpm>0</bpm>
<rpm>0.00</rpm>
</extensions>
</trkpt>
<trkpt lat="30.622879028" lon="34.820816040">
<ele>614.359375</ele>
<time>2013-11-22T14:06:49Z</time>
<speed>2.120000</speed>
<extensions>
<speed>2.1</speed>
<temp>0.00</temp>
<bpm>0</bpm>
<rpm>0.00</rpm>
</extensions>
</trkpt>
<trkpt lat="30.622821808" lon="34.820705414">
<ele>613.921875</ele>
<time>2013-11-22T14:06:54Z</time>
<speed>2.240000</speed>
<extensions>
<speed>2.2</speed>
<temp>0.00</temp>
<bpm>0</bpm>
<rpm>0.00</rpm>
</extensions>
</trkpt>
<trkpt lat="30.622762680" lon="34.820617676">
<ele>613.609375</ele>
<time>2013-11-22T14:06:59Z</time>
<speed>2.370000</speed>
<extensions>
<speed>2.4</speed>
<temp>0.00</temp>
<bpm>0</bpm>
<rpm>0.00</rpm>
</extensions>
</trkpt>
<trkpt lat="30.622686386" lon="34.820518494">
<ele>616.734375</ele>
<time>2013-11-22T14:07:04Z</time>
<speed>2.470000</speed>
<extensions>
<speed>2.5</speed>
<temp>0.00</temp>
<bpm>0</bpm>
<rpm>0.00</rpm>
</extensions>
</trkpt>
<trkpt lat="30.622621536" lon="34.820411682">
<ele>616.875000</ele>
<time>2013-11-22T14:07:09Z</time>
<speed>1.960000</speed>
<extensions>
<speed>2.0</speed>
<temp>0.00</temp>
<bpm>0</bpm>
<rpm>0.00</rpm>
</extensions>
</trkpt>
<trkpt lat="30.622564316" lon="34.820346832">
<ele>617.140625</ele>
<time>2013-11-22T14:07:14Z</time>
<speed>2.270000</speed>
<extensions>
<speed>2.3</speed>
<temp>0.00</temp>
<bpm>0</bpm>
<rpm>0.00</rpm>
</extensions>
</trkpt>
<trkpt lat="30.622524261" lon="34.820278168">
<ele>616.703125</ele>
<time>2013-11-22T14:07:19Z</time>
<speed>1.980000</speed>
<extensions>
<speed>2.0</speed>
<temp>0.00</temp>
<bpm>0</bpm>
<rpm>0.00</rpm>
</extensions>
</trkpt>
<trkpt lat="30.622457504" lon="34.820194244">
<ele>616.421875</ele>
<time>2013-11-22T14:07:24Z</time>
<speed>2.160000</speed>
<extensions>
<speed>2.2</speed>
<temp>0.00</temp>
<bpm>0</bpm>
<rpm>0.00</rpm>
</extensions>
</trkpt>
<trkpt lat="30.622379303" lon="34.820095062">
<ele>617.703125</ele>
<time>2013-11-22T14:07:29Z</time>
<speed>2.660000</speed>
<extensions>
<speed>2.7</speed>
<temp>0.00</temp>
<bpm>0</bpm>
<rpm>0.00</rpm>
</extensions>
</trkpt>
<trkpt lat="30.622293472" lon="34.820003510">
<ele>617.437500</ele>
<time>2013-11-22T14:07:34Z</time>
<speed>2.400000</speed>
<extensions>
<speed>2.4</speed>
<temp>0.00</temp>
<bpm>0</bpm>
<rpm>0.00</rpm>
</extensions>
</trkpt>
<trkpt lat="30.622253418" lon="34.819938660">
<ele>616.421875</ele>
<time>2013-11-22T14:07:39Z</time>
<speed>1.340000</speed>
<extensions>
<speed>1.3</speed>
<temp>0.00</temp>
<bpm>0</bpm>
<rpm>0.00</rpm>
</extensions>
</trkpt>
<trkpt lat="30.622186661" lon="34.819873810">
<ele>616.250000</ele>
<time>2013-11-22T14:07:44Z</time>
<speed>2.510000</speed>
<extensions>
<speed>2.5</speed>
<temp>0.00</temp>
<bpm>0</bpm>
<rpm>0.00</rpm>
</extensions>
</trkpt>
<trkpt lat="30.622085571" lon="34.819789886">
<ele>617.250000</ele>
<time>2013-11-22T14:07:49Z</time>
<speed>2.820000</speed>
<extensions>
<speed>2.8</speed>
<temp>0.00</temp>
<bpm>0</bpm>
<rpm>0.00</rpm>
</extensions>
</trkpt>
<trkpt lat="30.621982574" lon="34.819698334">
<ele>619.750000</ele>
<time>2013-11-22T14:07:54Z</time>
<speed>2.610000</speed>
<extensions>
<speed>2.6</speed>
<temp>0.00</temp>
<bpm>0</bpm>
<rpm>0.00</rpm>
</extensions>
</trkpt>
<trkpt lat="30.621904373" lon="34.819633484">
<ele>620.937500</ele>
<time>2013-11-22T14:07:59Z</time>
<speed>2.130000</speed>
<extensions>
<speed>2.1</speed>
<temp>0.00</temp>
<bpm>0</bpm>
<rpm>0.00</rpm>
</extensions>
</trkpt>
<trkpt lat="30.621809006" lon="34.819580078">
<ele>621.671875</ele>
<time>2013-11-22T14:08:04Z</time>
<speed>2.300000</speed>
<extensions>
<speed>2.3</speed>
<temp>0.00</temp>
<bpm>0</bpm>
<rpm>0.00</rpm>
</extensions>
</trkpt>
<trkpt lat="30.621719360" lon="34.819526672">
<ele>619.250000</ele>
<time>2013-11-22T14:08:09Z</time>
<speed>2.220000</speed>
<extensions>
<speed>2.2</speed>
<temp>0.00</temp>
<bpm>0</bpm>
<rpm>0.00</rpm>
</extensions>
</trkpt>
<trkpt lat="30.621608734" lon="34.819465637">
<ele>618.046875</ele>
<time>2013-11-22T14:08:14Z</time>
<speed>2.160000</speed>
<extensions>
<speed>2.2</speed>
<temp>0.00</temp>
<bpm>0</bpm>
<rpm>0.00</rpm>
</extensions>
</trkpt>
<trkpt lat="30.621511459" lon="34.819412231">
<ele>617.703125</ele>
<time>2013-11-22T14:08:19Z</time>
<speed>2.330000</speed>
<extensions>
<speed>2.3</speed>
<temp>0.00</temp>
<bpm>0</bpm>
<rpm>0.00</rpm>
</extensions>
</trkpt>
<trkpt lat="30.621414185" lon="34.819370270">
<ele>617.515625</ele>
<time>2013-11-22T14:08:24Z</time>
<speed>2.310000</speed>
<extensions>
<speed>2.3</speed>
<temp>0.00</temp>
<bpm>0</bpm>
<rpm>0.00</rpm>
</extensions>
</trkpt>
<trkpt lat="30.621328354" lon="34.819332123">
<ele>617.390625</ele>
<time>2013-11-22T14:08:29Z</time>
<speed>2.010000</speed>
<extensions>
<speed>2.0</speed>
<temp>0.00</temp>
<bpm>0</bpm>
<rpm>0.00</rpm>
</extensions>
</trkpt>
<trkpt lat="30.621253967" lon="34.819293976">
<ele>616.328125</ele>
<time>2013-11-22T14:08:34Z</time>
<speed>1.950000</speed>
<extensions>
<speed>1.9</speed>
<temp>0.00</temp>
<bpm>0</bpm>
<rpm>0.00</rpm>
</extensions>
</trkpt>
<trkpt lat="30.621177673" lon="34.819271088">
<ele>614.734375</ele>
<time>2013-11-22T14:08:39Z</time>
<speed>1.970000</speed>
<extensions>
<speed>2.0</speed>
<temp>0.00</temp>
<bpm>0</bpm>
<rpm>0.00</rpm>
</extensions>
</trkpt>
<trkpt lat="30.621093750" lon="34.819240570">
<ele>615.031250</ele>
<time>2013-11-22T14:08:44Z</time>
<speed>1.850000</speed>
<extensions>
<speed>1.8</speed>
<temp>0.00</temp>
<bpm>0</bpm>
<rpm>0.00</rpm>
</extensions>
</trkpt>
<trkpt lat="30.621009827" lon="34.819206238">
<ele>615.750000</ele>
<time>2013-11-22T14:08:49Z</time>
<speed>2.180000</speed>
<extensions>
<speed>2.2</speed>
<temp>0.00</temp>
<bpm>0</bpm>
<rpm>0.00</rpm>
</extensions>
</trkpt>
<trkpt lat="30.620925903" lon="34.819183350">
<ele>615.812500</ele>
<time>2013-11-22T14:08:54Z</time>
<speed>2.000000</speed>
<extensions>
<speed>2.0</speed>
<temp>0.00</temp>
<bpm>0</bpm>
<rpm>0.00</rpm>
</extensions>
</trkpt>
<trkpt lat="30.620826721" lon="34.819152832">
<ele>616.625000</ele>
<time>2013-11-22T14:08:59Z</time>
<speed>2.130000</speed>
<extensions>
<speed>2.1</speed>
<temp>0.00</temp>
<bpm>0</bpm>
<rpm>0.00</rpm>
</extensions>
</trkpt>
<trkpt lat="30.620729446" lon="34.819118500">
<ele>616.062500</ele>
<time>2013-11-22T14:09:04Z</time>
<speed>1.640000</speed>
<extensions>
<speed>1.6</speed>
<temp>0.00</temp>
<bpm>0</bpm>
<rpm>0.00</rpm>
</extensions>
</trkpt>
<trkpt lat="30.620639801" lon="34.819087982">
<ele>615.437500</ele>
<time>2013-11-22T14:09:09Z</time>
<speed>2.030000</speed>
<extensions>
<speed>2.0</speed>
<temp>0.00</temp>
<bpm>0</bpm>
<rpm>0.00</rpm>
</extensions>
</trkpt>
<trkpt lat="30.620550156" lon="34.819057465">
<ele>616.593750</ele>
<time>2013-11-22T14:09:14Z</time>
<speed>1.930000</speed>
<extensions>
<speed>1.9</speed>
<temp>0.00</temp>
<bpm>0</bpm>
<rpm>0.00</rpm>
</extensions>
</trkpt>
<trkpt lat="30.620466232" lon="34.819007874">
<ele>618.312500</ele>
<time>2013-11-22T14:09:19Z</time>
<speed>1.930000</speed>
<extensions>
<speed>1.9</speed>
<temp>0.00</temp>
<bpm>0</bpm>
<rpm>0.00</rpm>
</extensions>
</trkpt>
<trkpt lat="30.620403290" lon="34.818939209">
<ele>621.484375</ele>
<time>2013-11-22T14:09:24Z</time>
<speed>2.390000</speed>
<extensions>
<speed>2.4</speed>
<temp>0.00</temp>
<bpm>0</bpm>
<rpm>0.00</rpm>
</extensions>
</trkpt>
<trkpt lat="30.620359421" lon="34.818855286">
<ele>625.468750</ele>
<time>2013-11-22T14:09:29Z</time>
<speed>1.980000</speed>
<extensions>
<speed>2.0</speed>
<temp>0.00</temp>
<bpm>0</bpm>
<rpm>0.00</rpm>
</extensions>
</trkpt>
<trkpt lat="30.620346069" lon="34.818737030">
<ele>626.937500</ele>
<time>2013-11-22T14:09:34Z</time>
<speed>2.010000</speed>
<extensions>
<speed>2.0</speed>
<temp>0.00</temp>
<bpm>0</bpm>
<rpm>0.00</rpm>
</extensions>
</trkpt>
<trkpt lat="30.620349884" lon="34.818618774">
<ele>629.625000</ele>
<time>2013-11-22T14:09:39Z</time>
<speed>1.840000</speed>
<extensions>
<speed>1.8</speed>
<temp>0.00</temp>
<bpm>0</bpm>
<rpm>0.00</rpm>
</extensions>
</trkpt>
<trkpt lat="30.620374680" lon="34.818527222">
<ele>631.203125</ele>
<time>2013-11-22T14:09:44Z</time>
<speed>1.460000</speed>
<extensions>
<speed>1.5</speed>
<temp>0.00</temp>
<bpm>0</bpm>
<rpm>0.00</rpm>
</extensions>
</trkpt>
<trkpt lat="30.620433807" lon="34.818454742">
<ele>630.953125</ele>
<time>2013-11-22T14:09:49Z</time>
<speed>1.690000</speed>
<extensions>
<speed>1.7</speed>
<temp>0.00</temp>
<bpm>0</bpm>
<rpm>0.00</rpm>
</extensions>
</trkpt>
<trkpt lat="30.620498657" lon="34.818382263">
<ele>630.750000</ele>
<time>2013-11-22T14:09:54Z</time>
<speed>1.480000</speed>
<extensions>
<speed>1.5</speed>
<temp>0.00</temp>
<bpm>0</bpm>
<rpm>0.00</rpm>
</extensions>
</trkpt>
<trkpt lat="30.620569229" lon="34.818351746">
<ele>631.578125</ele>
<time>2013-11-22T14:09:59Z</time>
<speed>1.680000</speed>
<extensions>
<speed>1.7</speed>
<temp>0.00</temp>
<bpm>0</bpm>
<rpm>0.00</rpm>
</extensions>
</trkpt>
<trkpt lat="30.620634079" lon="34.818336487">
<ele>633.000000</ele>
<time>2013-11-22T14:10:04Z</time>
<speed>1.060000</speed>
<extensions>
<speed>1.1</speed>
<temp>0.00</temp>
<bpm>0</bpm>
<rpm>0.00</rpm>
</extensions>
</trkpt>
<trkpt lat="30.620664597" lon="34.818347931">
<ele>633.265625</ele>
<time>2013-11-22T14:10:09Z</time>
<speed>1.100000</speed>
<extensions>
<speed>1.1</speed>
<temp>0.00</temp>
<bpm>0</bpm>
<rpm>0.00</rpm>
</extensions>
</trkpt>
<trkpt lat="30.620731354" lon="34.818367004">
<ele>633.406250</ele>
<time>2013-11-22T14:10:14Z</time>
<speed>1.670000</speed>
<extensions>
<speed>1.7</speed>
<temp>0.00</temp>
<bpm>0</bpm>
<rpm>0.00</rpm>
</extensions>
</trkpt>
<trkpt lat="30.620809555" lon="34.818386078">
<ele>634.171875</ele>
<time>2013-11-22T14:10:19Z</time>
<speed>1.850000</speed>
<extensions>
<speed>1.8</speed>
<temp>0.00</temp>
<bpm>0</bpm>
<rpm>0.00</rpm>
</extensions>
</trkpt>
<trkpt lat="30.620887756" lon="34.818408966">
<ele>636.265625</ele>
<time>2013-11-22T14:10:24Z</time>
<speed>1.820000</speed>
<extensions>
<speed>1.8</speed>
<temp>0.00</temp>
<bpm>0</bpm>
<rpm>0.00</rpm>
</extensions>
</trkpt>
<trkpt lat="30.620971680" lon="34.818431854">
<ele>638.062500</ele>
<time>2013-11-22T14:10:29Z</time>
<speed>1.850000</speed>
<extensions>
<speed>1.8</speed>
<temp>0.00</temp>
<bpm>0</bpm>
<rpm>0.00</rpm>
</extensions>
</trkpt>
<trkpt lat="30.621042252" lon="34.818439484">
<ele>637.781250</ele>
<time>2013-11-22T14:10:34Z</time>
<speed>2.340000</speed>
<extensions>
<speed>2.3</speed>
<temp>0.00</temp>
<bpm>0</bpm>
<rpm>0.00</rpm>
</extensions>
</trkpt>
<trkpt lat="30.621084213" lon="34.818458557">
<ele>636.406250</ele>
<time>2013-11-22T14:10:39Z</time>
<speed>0.040000</speed>
<extensions>
<speed>0.0</speed>
<temp>0.00</temp>
<bpm>0</bpm>
<rpm>0.00</rpm>
</extensions>
</trkpt>
<trkpt lat="30.621084213" lon="34.818458557">
<ele>636.203125</ele>
<time>2013-11-22T14:10:44Z</time>
<extensions>
<speed>0.0</speed>
<temp>0.00</temp>
<bpm>0</bpm>
<rpm>0.00</rpm>
</extensions>
</trkpt>
<trkpt lat="30.621084213" lon="34.818458557">
<ele>636.156250</ele>
<time>2013-11-22T14:10:49Z</time>
<speed>0.010000</speed>
<extensions>
<speed>0.0</speed>
<temp>0.00</temp>
<bpm>0</bpm>
<rpm>0.00</rpm>
</extensions>
</trkpt>
<trkpt lat="30.621084213" lon="34.818458557">
<ele>636.140625</ele>
<time>2013-11-22T14:10:54Z</time>
<extensions>
<speed>0.0</speed>
<temp>0.00</temp>
<bpm>0</bpm>
<rpm>0.00</rpm>
</extensions>
</trkpt>
<trkpt lat="30.621084213" lon="34.818458557">
<ele>636.140625</ele>
<time>2013-11-22T14:10:59Z</time>
<extensions>
<speed>0.0</speed>
<temp>0.00</temp>
<bpm>0</bpm>
<rpm>0.00</rpm>
</extensions>
</trkpt>
<trkpt lat="30.621084213" lon="34.818458557">
<ele>636.140625</ele>
<time>2013-11-22T14:11:04Z</time>
<speed>0.010000</speed>
<extensions>
<speed>0.0</speed>
<temp>0.00</temp>
<bpm>0</bpm>
<rpm>0.00</rpm>
</extensions>
</trkpt>
<trkpt lat="30.621084213" lon="34.818458557">
<ele>636.125000</ele>
<time>2013-11-22T14:11:09Z</time>
<extensions>
<speed>0.0</speed>
<temp>0.00</temp>
<bpm>0</bpm>
<rpm>0.00</rpm>
</extensions>
</trkpt>
<trkpt lat="30.621084213" lon="34.818458557">
<ele>636.109375</ele>
<time>2013-11-22T14:11:14Z</time>
<speed>0.010000</speed>
<extensions>
<speed>0.0</speed>
<temp>0.00</temp>
<bpm>0</bpm>
<rpm>0.00</rpm>
</extensions>
</trkpt>
<trkpt lat="30.621084213" lon="34.818458557">
<ele>636.093750</ele>
<time>2013-11-22T14:11:19Z</time>
<speed>1.300000</speed>
<extensions>
<speed>1.3</speed>
<temp>0.00</temp>
<bpm>0</bpm>
<rpm>0.00</rpm>
</extensions>
</trkpt>
<trkpt lat="30.621154785" lon="34.818470001">
<ele>636.640625</ele>
<time>2013-11-22T14:11:24Z</time>
<speed>1.750000</speed>
<extensions>
<speed>1.8</speed>
<temp>0.00</temp>
<bpm>0</bpm>
<rpm>0.00</rpm>
</extensions>
</trkpt>
<trkpt lat="30.621236801" lon="34.818492889">
<ele>637.046875</ele>
<time>2013-11-22T14:11:29Z</time>
<speed>1.770000</speed>
<extensions>
<speed>1.8</speed>
<temp>0.00</temp>
<bpm>0</bpm>
<rpm>0.00</rpm>
</extensions>
</trkpt>
<trkpt lat="30.621315002" lon="34.818511963">
<ele>638.109375</ele>
<time>2013-11-22T14:11:34Z</time>
<speed>1.760000</speed>
<extensions>
<speed>1.8</speed>
<temp>0.00</temp>
<bpm>0</bpm>
<rpm>0.00</rpm>
</extensions>
</trkpt>
<trkpt lat="30.621391296" lon="34.818538666">
<ele>637.750000</ele>
<time>2013-11-22T14:11:39Z</time>
<speed>1.680000</speed>
<extensions>
<speed>1.7</speed>
<temp>0.00</temp>
<bpm>0</bpm>
<rpm>0.00</rpm>
</extensions>
</trkpt>
<trkpt lat="30.621463776" lon="34.818565369">
<ele>637.765625</ele>
<time>2013-11-22T14:11:44Z</time>
<speed>1.570000</speed>
<extensions>
<speed>1.6</speed>
<temp>0.00</temp>
<bpm>0</bpm>
<rpm>0.00</rpm>
</extensions>
</trkpt>
<trkpt lat="30.621522903" lon="34.818580627">
<ele>637.921875</ele>
<time>2013-11-22T14:11:49Z</time>
<speed>1.720000</speed>
<extensions>
<speed>1.7</speed>
<temp>0.00</temp>
<bpm>0</bpm>
<rpm>0.00</rpm>
</extensions>
</trkpt>
<trkpt lat="30.621604919" lon="34.818611145">
<ele>637.765625</ele>
<time>2013-11-22T14:11:54Z</time>
<speed>1.780000</speed>
<extensions>
<speed>1.8</speed>
<temp>0.00</temp>
<bpm>0</bpm>
<rpm>0.00</rpm>
</extensions>
</trkpt>
<trkpt lat="30.621681213" lon="34.818637848">
<ele>638.640625</ele>
<time>2013-11-22T14:11:59Z</time>
<speed>1.850000</speed>
<extensions>
<speed>1.8</speed>
<temp>0.00</temp>
<bpm>0</bpm>
<rpm>0.00</rpm>
</extensions>
</trkpt>
<trkpt lat="30.621711731" lon="34.818645477">
<ele>639.281250</ele>
<time>2013-11-22T14:12:04Z</time>
<extensions>
<speed>0.0</speed>
<temp>0.00</temp>
<bpm>0</bpm>
<rpm>0.00</rpm>
</extensions>
</trkpt>
<trkpt lat="30.621713638" lon="34.818645477">
<ele>639.140625</ele>
<time>2013-11-22T14:12:09Z</time>
<speed>0.020000</speed>
<extensions>
<speed>0.0</speed>
<temp>0.00</temp>
<bpm>0</bpm>
<rpm>0.00</rpm>
</extensions>
</trkpt>
<trkpt lat="30.621713638" lon="34.818645477">
<ele>639.125000</ele>
<time>2013-11-22T14:12:14Z</time>
<extensions>
<speed>0.0</speed>
<temp>0.00</temp>
<bpm>0</bpm>
<rpm>0.00</rpm>
</extensions>
</trkpt>
<trkpt lat="30.621749878" lon="34.818649292">
<ele>639.718750</ele>
<time>2013-11-22T14:12:19Z</time>
<speed>1.920000</speed>
<extensions>
<speed>1.9</speed>
<temp>0.00</temp>
<bpm>0</bpm>
<rpm>0.00</rpm>
</extensions>
</trkpt>
<trkpt lat="30.621835709" lon="34.818664551">
<ele>640.796875</ele>
<time>2013-11-22T14:12:24Z</time>
<speed>2.000000</speed>
<extensions>
<speed>2.0</speed>
<temp>0.00</temp>
<bpm>0</bpm>
<rpm>0.00</rpm>
</extensions>
</trkpt>
<trkpt lat="30.621934891" lon="34.818683624">
<ele>641.484375</ele>
<time>2013-11-22T14:12:29Z</time>
<speed>2.110000</speed>
<extensions>
<speed>2.1</speed>
<temp>0.00</temp>
<bpm>0</bpm>
<rpm>0.00</rpm>
</extensions>
</trkpt>
<trkpt lat="30.622020721" lon="34.818710327">
<ele>641.718750</ele>
<time>2013-11-22T14:12:34Z</time>
<speed>1.390000</speed>
<extensions>
<speed>1.4</speed>
<temp>0.00</temp>
<bpm>0</bpm>
<rpm>0.00</rpm>
</extensions>
</trkpt>
<trkpt lat="30.622097015" lon="34.818729401">
<ele>642.296875</ele>
<time>2013-11-22T14:12:39Z</time>
<speed>1.970000</speed>
<extensions>
<speed>2.0</speed>
<temp>0.00</temp>
<bpm>0</bpm>
<rpm>0.00</rpm>
</extensions>
</trkpt>
<trkpt lat="30.622179031" lon="34.818763733">
<ele>642.859375</ele>
<time>2013-11-22T14:12:44Z</time>
<speed>1.800000</speed>
<extensions>
<speed>1.8</speed>
<temp>0.00</temp>
<bpm>0</bpm>
<rpm>0.00</rpm>
</extensions>
</trkpt>
<trkpt lat="30.622268677" lon="34.818786621">
<ele>643.843750</ele>
<time>2013-11-22T14:12:49Z</time>
<speed>2.040000</speed>
<extensions>
<speed>2.0</speed>
<temp>0.00</temp>
<bpm>0</bpm>
<rpm>0.00</rpm>
</extensions>
</trkpt>
<trkpt lat="30.622346878" lon="34.818820953">
<ele>643.687500</ele>
<time>2013-11-22T14:12:54Z</time>
<speed>1.980000</speed>
<extensions>
<speed>2.0</speed>
<temp>0.00</temp>
<bpm>0</bpm>
<rpm>0.00</rpm>
</extensions>
</trkpt>
<trkpt lat="30.622438431" lon="34.818855286">
<ele>644.703125</ele>
<time>2013-11-22T14:12:59Z</time>
<speed>1.990000</speed>
<extensions>
<speed>2.0</speed>
<temp>0.00</temp>
<bpm>0</bpm>
<rpm>0.00</rpm>
</extensions>
</trkpt>
<trkpt lat="30.622526169" lon="34.818874359">
<ele>645.500000</ele>
<time>2013-11-22T14:13:04Z</time>
<speed>2.110000</speed>
<extensions>
<speed>2.1</speed>
<temp>0.00</temp>
<bpm>0</bpm>
<rpm>0.00</rpm>
</extensions>
</trkpt>
<trkpt lat="30.622591019" lon="34.818893433">
<ele>645.359375</ele>
<time>2013-11-22T14:13:09Z</time>
<speed>0.980000</speed>
<extensions>
<speed>1.0</speed>
<temp>0.00</temp>
<bpm>0</bpm>
<rpm>0.00</rpm>
</extensions>
</trkpt>
<trkpt lat="30.622663498" lon="34.818923950">
<ele>645.562500</ele>
<time>2013-11-22T14:13:14Z</time>
<speed>2.060000</speed>
<extensions>
<speed>2.1</speed>
<temp>0.00</temp>
<bpm>0</bpm>
<rpm>0.00</rpm>
</extensions>
</trkpt>
<trkpt lat="30.622766495" lon="34.818939209">
<ele>647.328125</ele>
<time>2013-11-22T14:13:19Z</time>
<speed>2.190000</speed>
<extensions>
<speed>2.2</speed>
<temp>0.00</temp>
<bpm>0</bpm>
<rpm>0.00</rpm>
</extensions>
</trkpt>
<trkpt lat="30.622865677" lon="34.818954468">
<ele>646.984375</ele>
<time>2013-11-22T14:13:24Z</time>
<speed>2.670000</speed>
<extensions>
<speed>2.7</speed>
<temp>0.00</temp>
<bpm>0</bpm>
<rpm>0.00</rpm>
</extensions>
</trkpt>
<trkpt lat="30.622962952" lon="34.818943024">
<ele>648.984375</ele>
<time>2013-11-22T14:13:29Z</time>
<speed>1.460000</speed>
<extensions>
<speed>1.5</speed>
<temp>0.00</temp>
<bpm>0</bpm>
<rpm>0.00</rpm>
</extensions>
</trkpt>
<trkpt lat="30.623050690" lon="34.818893433">
<ele>650.734375</ele>
<time>2013-11-22T14:13:34Z</time>
<speed>1.920000</speed>
<extensions>
<speed>1.9</speed>
<temp>0.00</temp>
<bpm>0</bpm>
<rpm>0.00</rpm>
</extensions>
</trkpt>
<trkpt lat="30.623121262" lon="34.818801880">
<ele>651.671875</ele>
<time>2013-11-22T14:13:39Z</time>
<speed>2.070000</speed>
<extensions>
<speed>2.1</speed>
<temp>0.00</temp>
<bpm>0</bpm>
<rpm>0.00</rpm>
</extensions>
</trkpt>
<trkpt lat="30.623106003" lon="34.818721771">
<ele>651.875000</ele>
<time>2013-11-22T14:13:44Z</time>
<speed>2.800000</speed>
<extensions>
<speed>2.8</speed>
<temp>0.00</temp>
<bpm>0</bpm>
<rpm>0.00</rpm>
</extensions>
</trkpt>
<trkpt lat="30.623001099" lon="34.818546295">
<ele>651.890625</ele>
<time>2013-11-22T14:13:49Z</time>
<speed>4.120000</speed>
<extensions>
<speed>4.1</speed>
<temp>0.00</temp>
<bpm>0</bpm>
<rpm>0.00</rpm>
</extensions>
</trkpt>
<trkpt lat="30.622917175" lon="34.818435669">
<ele>651.984375</ele>
<time>2013-11-22T14:13:54Z</time>
<speed>1.880000</speed>
<extensions>
<speed>1.9</speed>
<temp>0.00</temp>
<bpm>0</bpm>
<rpm>0.00</rpm>
</extensions>
</trkpt>
<trkpt lat="30.622833252" lon="34.818397522">
<ele>653.812500</ele>
<time>2013-11-22T14:13:59Z</time>
<speed>2.180000</speed>
<extensions>
<speed>2.2</speed>
<temp>0.00</temp>
<bpm>0</bpm>
<rpm>0.00</rpm>
</extensions>
</trkpt>
<trkpt lat="30.622728348" lon="34.818355560">
<ele>653.515625</ele>
<time>2013-11-22T14:14:04Z</time>
<speed>2.080000</speed>
<extensions>
<speed>2.1</speed>
<temp>0.00</temp>
<bpm>0</bpm>
<rpm>0.00</rpm>
</extensions>
</trkpt>
<trkpt lat="30.622631073" lon="34.818317413">
<ele>654.671875</ele>
<time>2013-11-22T14:14:09Z</time>
<speed>2.050000</speed>
<extensions>
<speed>2.1</speed>
<temp>0.00</temp>
<bpm>0</bpm>
<rpm>0.00</rpm>
</extensions>
</trkpt>
<trkpt lat="30.622556686" lon="34.818294525">
<ele>655.734375</ele>
<time>2013-11-22T14:14:14Z</time>
<speed>1.850000</speed>
<extensions>
<speed>1.8</speed>
<temp>0.00</temp>
<bpm>0</bpm>
<rpm>0.00</rpm>
</extensions>
</trkpt>
<trkpt lat="30.622478485" lon="34.818256378">
<ele>656.531250</ele>
<time>2013-11-22T14:14:19Z</time>
<speed>2.010000</speed>
<extensions>
<speed>2.0</speed>
<temp>0.00</temp>
<bpm>0</bpm>
<rpm>0.00</rpm>
</extensions>
</trkpt>
<trkpt lat="30.622398376" lon="34.818218231">
<ele>657.171875</ele>
<time>2013-11-22T14:14:24Z</time>
<speed>2.380000</speed>
<extensions>
<speed>2.4</speed>
<temp>0.00</temp>
<bpm>0</bpm>
<rpm>0.00</rpm>
</extensions>
</trkpt>
<trkpt lat="30.622297287" lon="34.818180084">
<ele>657.421875</ele>
<time>2013-11-22T14:14:29Z</time>
<speed>2.190000</speed>
<extensions>
<speed>2.2</speed>
<temp>0.00</temp>
<bpm>0</bpm>
<rpm>0.00</rpm>
</extensions>
</trkpt>
<trkpt lat="30.622243881" lon="34.818153381">
<ele>658.062500</ele>
<time>2013-11-22T14:14:34Z</time>
<speed>1.900000</speed>
<extensions>
<speed>1.9</speed>
<temp>0.00</temp>
<bpm>0</bpm>
<rpm>0.00</rpm>
</extensions>
</trkpt>
<trkpt lat="30.622173309" lon="34.818119049">
<ele>659.093750</ele>
<time>2013-11-22T14:14:39Z</time>
<speed>1.410000</speed>
<extensions>
<speed>1.4</speed>
<temp>0.00</temp>
<bpm>0</bpm>
<rpm>0.00</rpm>
</extensions>
</trkpt>
<trkpt lat="30.622140884" lon="34.818107605">
<ele>657.750000</ele>
<time>2013-11-22T14:14:44Z</time>
<speed>1.040000</speed>
<extensions>
<speed>1.0</speed>
<temp>0.00</temp>
<bpm>0</bpm>
<rpm>0.00</rpm>
</extensions>
</trkpt>
<trkpt lat="30.622041702" lon="34.818065643">
<ele>657.218750</ele>
<time>2013-11-22T14:14:49Z</time>
<speed>2.310000</speed>
<extensions>
<speed>2.3</speed>
<temp>0.00</temp>
<bpm>0</bpm>
<rpm>0.00</rpm>
</extensions>
</trkpt>
<trkpt lat="30.621950150" lon="34.818023682">
<ele>657.671875</ele>
<time>2013-11-22T14:14:54Z</time>
<speed>2.260000</speed>
<extensions>
<speed>2.3</speed>
<temp>0.00</temp>
<bpm>0</bpm>
<rpm>0.00</rpm>
</extensions>
</trkpt>
<trkpt lat="30.621860504" lon="34.817977905">
<ele>658.406250</ele>
<time>2013-11-22T14:14:59Z</time>
<speed>2.170000</speed>
<extensions>
<speed>2.2</speed>
<temp>0.00</temp>
<bpm>0</bpm>
<rpm>0.00</rpm>
</extensions>
</trkpt>
<trkpt lat="30.621761322" lon="34.817932129">
<ele>658.531250</ele>
<time>2013-11-22T14:15:04Z</time>
<speed>2.280000</speed>
<extensions>
<speed>2.3</speed>
<temp>0.00</temp>
<bpm>0</bpm>
<rpm>0.00</rpm>
</extensions>
</trkpt>
<trkpt lat="30.621673584" lon="34.817886353">
<ele>659.562500</ele>
<time>2013-11-22T14:15:09Z</time>
<speed>2.370000</speed>
<extensions>
<speed>2.4</speed>
<temp>0.00</temp>
<bpm>0</bpm>
<rpm>0.00</rpm>
</extensions>
</trkpt>
<trkpt lat="30.621576309" lon="34.817844391">
<ele>660.203125</ele>
<time>2013-11-22T14:15:14Z</time>
<speed>1.710000</speed>
<extensions>
<speed>1.7</speed>
<temp>0.00</temp>
<bpm>0</bpm>
<rpm>0.00</rpm>
</extensions>
</trkpt>
<trkpt lat="30.621536255" lon="34.817825317">
<ele>661.328125</ele>
<time>2013-11-22T14:15:19Z</time>
<speed>1.030000</speed>
<extensions>
<speed>1.0</speed>
<temp>0.00</temp>
<bpm>0</bpm>
<rpm>0.00</rpm>
</extensions>
</trkpt>
<trkpt lat="30.621435165" lon="34.817787170">
<ele>661.546875</ele>
<time>2013-11-22T14:15:24Z</time>
<speed>2.540000</speed>
<extensions>
<speed>2.5</speed>
<temp>0.00</temp>
<bpm>0</bpm>
<rpm>0.00</rpm>
</extensions>
</trkpt>
<trkpt lat="30.621358871" lon="34.817749023">
<ele>663.656250</ele>
<time>2013-11-22T14:15:29Z</time>
<speed>2.340000</speed>
<extensions>
<speed>2.3</speed>
<temp>0.00</temp>
<bpm>0</bpm>
<rpm>0.00</rpm>
</extensions>
</trkpt>
<trkpt lat="30.621284485" lon="34.817703247">
<ele>664.546875</ele>
<time>2013-11-22T14:15:34Z</time>
<speed>1.930000</speed>
<extensions>
<speed>1.9</speed>
<temp>0.00</temp>
<bpm>0</bpm>
<rpm>0.00</rpm>
</extensions>
</trkpt>
<trkpt lat="30.621248245" lon="34.817630768">
<ele>666.359375</ele>
<time>2013-11-22T14:15:39Z</time>
<speed>1.780000</speed>
<extensions>
<speed>1.8</speed>
<temp>0.00</temp>
<bpm>0</bpm>
<rpm>0.00</rpm>
</extensions>
</trkpt>
<trkpt lat="30.621246338" lon="34.817531586">
<ele>667.484375</ele>
<time>2013-11-22T14:15:44Z</time>
<speed>1.950000</speed>
<extensions>
<speed>1.9</speed>
<temp>0.00</temp>
<bpm>0</bpm>
<rpm>0.00</rpm>
</extensions>
</trkpt>
<trkpt lat="30.621290207" lon="34.817443848">
<ele>670.859375</ele>
<time>2013-11-22T14:15:49Z</time>
<speed>2.050000</speed>
<extensions>
<speed>2.1</speed>
<temp>0.00</temp>
<bpm>0</bpm>
<rpm>0.00</rpm>
</extensions>
</trkpt>
<trkpt lat="30.621355057" lon="34.817436218">
<ele>671.296875</ele>
<time>2013-11-22T14:15:54Z</time>
<speed>1.040000</speed>
<extensions>
<speed>1.0</speed>
<temp>0.00</temp>
<bpm>0</bpm>
<rpm>0.00</rpm>
</extensions>
</trkpt>
<trkpt lat="30.621440887" lon="34.817478180">
<ele>671.562500</ele>
<time>2013-11-22T14:15:59Z</time>
<speed>2.830000</speed>
<extensions>
<speed>2.8</speed>
<temp>0.00</temp>
<bpm>0</bpm>
<rpm>0.00</rpm>
</extensions>
</trkpt>
<trkpt lat="30.621492386" lon="34.817501068">
<ele>672.296875</ele>
<time>2013-11-22T14:16:04Z</time>
<speed>0.050000</speed>
<extensions>
<speed>0.1</speed>
<temp>0.00</temp>
<bpm>0</bpm>
<rpm>0.00</rpm>
</extensions>
</trkpt>
<trkpt lat="30.621490479" lon="34.817497253">
<ele>672.453125</ele>
<time>2013-11-22T14:16:09Z</time>
<speed>0.010000</speed>
<extensions>
<speed>0.0</speed>
<temp>0.00</temp>
<bpm>0</bpm>
<rpm>0.00</rpm>
</extensions>
</trkpt>
<trkpt lat="30.621490479" lon="34.817497253">
<ele>672.500000</ele>
<time>2013-11-22T14:16:14Z</time>
<speed>0.010000</speed>
<extensions>
<speed>0.0</speed>
<temp>0.00</temp>
<bpm>0</bpm>
<rpm>0.00</rpm>
</extensions>
</trkpt>
<trkpt lat="30.621490479" lon="34.817497253">
<ele>672.515625</ele>
<time>2013-11-22T14:16:19Z</time>
<extensions>
<speed>0.0</speed>
<temp>0.00</temp>
<bpm>0</bpm>
<rpm>0.00</rpm>
</extensions>
</trkpt>
<trkpt lat="30.621490479" lon="34.817497253">
<ele>672.484375</ele>
<time>2013-11-22T14:16:24Z</time>
<extensions>
<speed>0.0</speed>
<temp>0.00</temp>
<bpm>0</bpm>
<rpm>0.00</rpm>
</extensions>
</trkpt>
<trkpt lat="30.621490479" lon="34.817497253">
<ele>672.484375</ele>
<time>2013-11-22T14:16:29Z</time>
<extensions>
<speed>0.0</speed>
<temp>0.00</temp>
<bpm>0</bpm>
<rpm>0.00</rpm>
</extensions>
</trkpt>
<trkpt lat="30.621490479" lon="34.817497253">
<ele>672.468750</ele>
<time>2013-11-22T14:16:34Z</time>
<speed>0.020000</speed>
<extensions>
<speed>0.0</speed>
<temp>0.00</temp>
<bpm>0</bpm>
<rpm>0.00</rpm>
</extensions>
</trkpt>
<trkpt lat="30.621490479" lon="34.817497253">
<ele>672.453125</ele>
<time>2013-11-22T14:16:39Z</time>
<extensions>
<speed>0.0</speed>
<temp>0.00</temp>
<bpm>0</bpm>
<rpm>0.00</rpm>
</extensions>
</trkpt>
<trkpt lat="30.621490479" lon="34.817497253">
<ele>672.453125</ele>
<time>2013-11-22T14:16:44Z</time>
<extensions>
<speed>0.0</speed>
<temp>0.00</temp>
<bpm>0</bpm>
<rpm>0.00</rpm>
</extensions>
</trkpt>
<trkpt lat="30.621488571" lon="34.817497253">
<ele>672.468750</ele>
<time>2013-11-22T14:16:49Z</time>
<speed>0.010000</speed>
<extensions>
<speed>0.0</speed>
<temp>0.00</temp>
<bpm>0</bpm>
<rpm>0.00</rpm>
</extensions>
</trkpt>
<trkpt lat="30.621488571" lon="34.817497253">
<ele>672.468750</ele>
<time>2013-11-22T14:16:54Z</time>
<speed>0.010000</speed>
<extensions>
<speed>0.0</speed>
<temp>0.00</temp>
<bpm>0</bpm>
<rpm>0.00</rpm>
</extensions>
</trkpt>
<trkpt lat="30.621528625" lon="34.817504883">
<ele>672.578125</ele>
<time>2013-11-22T14:16:59Z</time>
<speed>1.780000</speed>
<extensions>
<speed>1.8</speed>
<temp>0.00</temp>
<bpm>0</bpm>
<rpm>0.00</rpm>
</extensions>
</trkpt>
<trkpt lat="30.621618271" lon="34.817531586">
<ele>673.140625</ele>
<time>2013-11-22T14:17:04Z</time>
<speed>2.020000</speed>
<extensions>
<speed>2.0</speed>
<temp>0.00</temp>
<bpm>0</bpm>
<rpm>0.00</rpm>
</extensions>
</trkpt>
<trkpt lat="30.621704102" lon="34.817562103">
<ele>673.078125</ele>
<time>2013-11-22T14:17:09Z</time>
<speed>2.110000</speed>
<extensions>
<speed>2.1</speed>
<temp>0.00</temp>
<bpm>0</bpm>
<rpm>0.00</rpm>
</extensions>
</trkpt>
<trkpt lat="30.621765137" lon="34.817581177">
<ele>672.406250</ele>
<time>2013-11-22T14:17:14Z</time>
<speed>1.300000</speed>
<extensions>
<speed>1.3</speed>
<temp>0.00</temp>
<bpm>0</bpm>
<rpm>0.00</rpm>
</extensions>
</trkpt>
<trkpt lat="30.621841431" lon="34.817604065">
<ele>672.078125</ele>
<time>2013-11-22T14:17:19Z</time>
<speed>1.980000</speed>
<extensions>
<speed>2.0</speed>
<temp>0.00</temp>
<bpm>0</bpm>
<rpm>0.00</rpm>
</extensions>
</trkpt>
<trkpt lat="30.621919632" lon="34.817626953">
<ele>672.109375</ele>
<time>2013-11-22T14:17:24Z</time>
<speed>1.880000</speed>
<extensions>
<speed>1.9</speed>
<temp>0.00</temp>
<bpm>0</bpm>
<rpm>0.00</rpm>
</extensions>
</trkpt>
<trkpt lat="30.622009277" lon="34.817649841">
<ele>673.531250</ele>
<time>2013-11-22T14:17:29Z</time>
<speed>1.910000</speed>
<extensions>
<speed>1.9</speed>
<temp>0.00</temp>
<bpm>0</bpm>
<rpm>0.00</rpm>
</extensions>
</trkpt>
<trkpt lat="30.622070313" lon="34.817653656">
<ele>675.390625</ele>
<time>2013-11-22T14:17:34Z</time>
<speed>1.460000</speed>
<extensions>
<speed>1.5</speed>
<temp>0.00</temp>
<bpm>0</bpm>
<rpm>0.00</rpm>
</extensions>
</trkpt>
<trkpt lat="30.622142792" lon="34.817672729">
<ele>676.937500</ele>
<time>2013-11-22T14:17:39Z</time>
<speed>1.940000</speed>
<extensions>
<speed>1.9</speed>
<temp>0.00</temp>
<bpm>0</bpm>
<rpm>0.00</rpm>
</extensions>
</trkpt>
<trkpt lat="30.622220993" lon="34.817699432">
<ele>677.437500</ele>
<time>2013-11-22T14:17:44Z</time>
<speed>0.890000</speed>
<extensions>
<speed>0.9</speed>
<temp>0.00</temp>
<bpm>0</bpm>
<rpm>0.00</rpm>
</extensions>
</trkpt>
<trkpt lat="30.622285843" lon="34.817703247">
<ele>678.812500</ele>
<time>2013-11-22T14:17:49Z</time>
<speed>1.810000</speed>
<extensions>
<speed>1.8</speed>
<temp>0.00</temp>
<bpm>0</bpm>
<rpm>0.00</rpm>
</extensions>
</trkpt>
<trkpt lat="30.622367859" lon="34.817741394">
<ele>678.156250</ele>
<time>2013-11-22T14:17:54Z</time>
<speed>1.980000</speed>
<extensions>
<speed>2.0</speed>
<temp>0.00</temp>
<bpm>0</bpm>
<rpm>0.00</rpm>
</extensions>
</trkpt>
<trkpt lat="30.622451782" lon="34.817779541">
<ele>678.921875</ele>
<time>2013-11-22T14:17:59Z</time>
<speed>1.790000</speed>
<extensions>
<speed>1.8</speed>
<temp>0.00</temp>
<bpm>0</bpm>
<rpm>0.00</rpm>
</extensions>
</trkpt>
<trkpt lat="30.622537613" lon="34.817810059">
<ele>679.578125</ele>
<time>2013-11-22T14:18:04Z</time>
<speed>1.610000</speed>
<extensions>
<speed>1.6</speed>
<temp>0.00</temp>
<bpm>0</bpm>
<rpm>0.00</rpm>
</extensions>
</trkpt>
<trkpt lat="30.622596741" lon="34.817836761">
<ele>679.609375</ele>
<time>2013-11-22T14:18:09Z</time>
<speed>1.920000</speed>
<extensions>
<speed>1.9</speed>
<temp>0.00</temp>
<bpm>0</bpm>
<rpm>0.00</rpm>
</extensions>
</trkpt>
<trkpt lat="30.622686386" lon="34.817874908">
<ele>680.250000</ele>
<time>2013-11-22T14:18:14Z</time>
<speed>1.930000</speed>
<extensions>
<speed>1.9</speed>
<temp>0.00</temp>
<bpm>0</bpm>
<rpm>0.00</rpm>
</extensions>
</trkpt>
<trkpt lat="30.622777939" lon="34.817893982">
<ele>681.640625</ele>
<time>2013-11-22T14:18:19Z</time>
<speed>2.040000</speed>
<extensions>
<speed>2.0</speed>
<temp>0.00</temp>
<bpm>0</bpm>
<rpm>0.00</rpm>
</extensions>
</trkpt>
<trkpt lat="30.622856140" lon="34.817916870">
<ele>682.906250</ele>
<time>2013-11-22T14:18:24Z</time>
<speed>1.130000</speed>
<extensions>
<speed>1.1</speed>
<temp>0.00</temp>
<bpm>0</bpm>
<rpm>0.00</rpm>
</extensions>
</trkpt>
<trkpt lat="30.622926712" lon="34.817943573">
<ele>683.937500</ele>
<time>2013-11-22T14:18:29Z</time>
<speed>1.780000</speed>
<extensions>
<speed>1.8</speed>
<temp>0.00</temp>
<bpm>0</bpm>
<rpm>0.00</rpm>
</extensions>
</trkpt>
<trkpt lat="30.623014450" lon="34.817974091">
<ele>685.250000</ele>
<time>2013-11-22T14:18:34Z</time>
<speed>1.790000</speed>
<extensions>
<speed>1.8</speed>
<temp>0.00</temp>
<bpm>0</bpm>
<rpm>0.00</rpm>
</extensions>
</trkpt>
<trkpt lat="30.623075485" lon="34.817993164">
<ele>685.437500</ele>
<time>2013-11-22T14:18:39Z</time>
<speed>1.850000</speed>
<extensions>
<speed>1.8</speed>
<temp>0.00</temp>
<bpm>0</bpm>
<rpm>0.00</rpm>
</extensions>
</trkpt>
<trkpt lat="30.623149872" lon="34.818019867">
<ele>686.281250</ele>
<time>2013-11-22T14:18:44Z</time>
<speed>1.770000</speed>
<extensions>
<speed>1.8</speed>
<temp>0.00</temp>
<bpm>0</bpm>
<rpm>0.00</rpm>
</extensions>
</trkpt>
<trkpt lat="30.623233795" lon="34.818046570">
<ele>687.734375</ele>
<time>2013-11-22T14:18:49Z</time>
<speed>1.960000</speed>
<extensions>
<speed>2.0</speed>
<temp>0.00</temp>
<bpm>0</bpm>
<rpm>0.00</rpm>
</extensions>
</trkpt>
<trkpt lat="30.623327255" lon="34.818080902">
<ele>688.875000</ele>
<time>2013-11-22T14:18:54Z</time>
<speed>1.690000</speed>
<extensions>
<speed>1.7</speed>
<temp>0.00</temp>
<bpm>0</bpm>
<rpm>0.00</rpm>
</extensions>
</trkpt>
<trkpt lat="30.623384476" lon="34.818077087">
<ele>689.031250</ele>
<time>2013-11-22T14:18:59Z</time>
<speed>1.490000</speed>
<extensions>
<speed>1.5</speed>
<temp>0.00</temp>
<bpm>0</bpm>
<rpm>0.00</rpm>
</extensions>
</trkpt>
<trkpt lat="30.623430252" lon="34.818038940">
<ele>689.734375</ele>
<time>2013-11-22T14:19:04Z</time>
<speed>1.400000</speed>
<extensions>
<speed>1.4</speed>
<temp>0.00</temp>
<bpm>0</bpm>
<rpm>0.00</rpm>
</extensions>
</trkpt>
<trkpt lat="30.623485565" lon="34.817962646">
<ele>690.968750</ele>
<time>2013-11-22T14:19:09Z</time>
<speed>1.270000</speed>
<extensions>
<speed>1.3</speed>
<temp>0.00</temp>
<bpm>0</bpm>
<rpm>0.00</rpm>
</extensions>
</trkpt>
<trkpt lat="30.623521805" lon="34.817897797">
<ele>692.390625</ele>
<time>2013-11-22T14:19:14Z</time>
<speed>1.930000</speed>
<extensions>
<speed>1.9</speed>
<temp>0.00</temp>
<bpm>0</bpm>
<rpm>0.00</rpm>
</extensions>
</trkpt>
<trkpt lat="30.623529434" lon="34.817813873">
<ele>693.187500</ele>
<time>2013-11-22T14:19:19Z</time>
<speed>0.890000</speed>
<extensions>
<speed>0.9</speed>
<temp>0.00</temp>
<bpm>0</bpm>
<rpm>0.00</rpm>
</extensions>
</trkpt>
<trkpt lat="30.623498917" lon="34.817756653">
<ele>693.093750</ele>
<time>2013-11-22T14:19:24Z</time>
<speed>1.880000</speed>
<extensions>
<speed>1.9</speed>
<temp>0.00</temp>
<bpm>0</bpm>
<rpm>0.00</rpm>
</extensions>
</trkpt>
<trkpt lat="30.623449326" lon="34.817695618">
<ele>693.515625</ele>
<time>2013-11-22T14:19:29Z</time>
<speed>0.640000</speed>
<extensions>
<speed>0.6</speed>
<temp>0.00</temp>
<bpm>0</bpm>
<rpm>0.00</rpm>
</extensions>
</trkpt>
<trkpt lat="30.623399734" lon="34.817665100">
<ele>693.453125</ele>
<time>2013-11-22T14:19:34Z</time>
<speed>1.280000</speed>
<extensions>
<speed>1.3</speed>
<temp>0.00</temp>
<bpm>0</bpm>
<rpm>0.00</rpm>
</extensions>
</trkpt>
<trkpt lat="30.623334885" lon="34.817646027">
<ele>693.515625</ele>
<time>2013-11-22T14:19:39Z</time>
<speed>1.810000</speed>
<extensions>
<speed>1.8</speed>
<temp>0.00</temp>
<bpm>0</bpm>
<rpm>0.00</rpm>
</extensions>
</trkpt>
<trkpt lat="30.623256683" lon="34.817615509">
<ele>693.718750</ele>
<time>2013-11-22T14:19:44Z</time>
<speed>1.800000</speed>
<extensions>
<speed>1.8</speed>
<temp>0.00</temp>
<bpm>0</bpm>
<rpm>0.00</rpm>
</extensions>
</trkpt>
<trkpt lat="30.623210907" lon="34.817600250">
<ele>694.765625</ele>
<time>2013-11-22T14:19:49Z</time>
<speed>0.080000</speed>
<extensions>
<speed>0.1</speed>
<temp>0.00</temp>
<bpm>0</bpm>
<rpm>0.00</rpm>
</extensions>
</trkpt>
<trkpt lat="30.623212814" lon="34.817600250">
<ele>695.265625</ele>
<time>2013-11-22T14:19:54Z</time>
<speed>0.170000</speed>
<extensions>
<speed>0.2</speed>
<temp>0.00</temp>
<bpm>0</bpm>
<rpm>0.00</rpm>
</extensions>
</trkpt>
<trkpt lat="30.623216629" lon="34.817600250">
<ele>695.703125</ele>
<time>2013-11-22T14:19:59Z</time>
<speed>0.200000</speed>
<extensions>
<speed>0.2</speed>
<temp>0.00</temp>
<bpm>0</bpm>
<rpm>0.00</rpm>
</extensions>
</trkpt>
<trkpt lat="30.623163223" lon="34.817584991">
<ele>696.234375</ele>
<time>2013-11-22T14:20:04Z</time>
<speed>1.630000</speed>
<extensions>
<speed>1.6</speed>
<temp>0.00</temp>
<bpm>0</bpm>
<rpm>0.00</rpm>
</extensions>
</trkpt>
<trkpt lat="30.623050690" lon="34.817531586">
<ele>694.734375</ele>
<time>2013-11-22T14:20:09Z</time>
<speed>1.800000</speed>
<extensions>
<speed>1.8</speed>
<temp>0.00</temp>
<bpm>0</bpm>
<rpm>0.00</rpm>
</extensions>
</trkpt>
<trkpt lat="30.622972488" lon="34.817493439">
<ele>694.421875</ele>
<time>2013-11-22T14:20:14Z</time>
<speed>1.690000</speed>
<extensions>
<speed>1.7</speed>
<temp>0.00</temp>
<bpm>0</bpm>
<rpm>0.00</rpm>
</extensions>
</trkpt>
<trkpt lat="30.622903824" lon="34.817455292">
<ele>693.625000</ele>
<time>2013-11-22T14:20:19Z</time>
<speed>1.180000</speed>
<extensions>
<speed>1.2</speed>
<temp>0.00</temp>
<bpm>0</bpm>
<rpm>0.00</rpm>
</extensions>
</trkpt>
<trkpt lat="30.622846603" lon="34.817424774">
<ele>693.093750</ele>
<time>2013-11-22T14:20:24Z</time>
<speed>1.950000</speed>
<extensions>
<speed>1.9</speed>
<temp>0.00</temp>
<bpm>0</bpm>
<rpm>0.00</rpm>
</extensions>
</trkpt>
<trkpt lat="30.622756958" lon="34.817386627">
<ele>693.140625</ele>
<time>2013-11-22T14:20:29Z</time>
<speed>1.840000</speed>
<extensions>
<speed>1.8</speed>
<temp>0.00</temp>
<bpm>0</bpm>
<rpm>0.00</rpm>
</extensions>
</trkpt>
<trkpt lat="30.622705460" lon="34.817363739">
<ele>693.468750</ele>
<time>2013-11-22T14:20:34Z</time>
<speed>1.720000</speed>
<extensions>
<speed>1.7</speed>
<temp>0.00</temp>
<bpm>0</bpm>
<rpm>0.00</rpm>
</extensions>
</trkpt>
<trkpt lat="30.622598648" lon="34.817310333">
<ele>693.031250</ele>
<time>2013-11-22T14:20:39Z</time>
<speed>1.680000</speed>
<extensions>
<speed>1.7</speed>
<temp>0.00</temp>
<bpm>0</bpm>
<rpm>0.00</rpm>
</extensions>
</trkpt>
<trkpt lat="30.622556686" lon="34.817295074">
<ele>693.812500</ele>
<time>2013-11-22T14:20:44Z</time>
<speed>1.240000</speed>
<extensions>
<speed>1.2</speed>
<temp>0.00</temp>
<bpm>0</bpm>
<rpm>0.00</rpm>
</extensions>
</trkpt>
<trkpt lat="30.622455597" lon="34.817245483">
<ele>694.359375</ele>
<time>2013-11-22T14:20:49Z</time>
<speed>2.580000</speed>
<extensions>
<speed>2.6</speed>
<temp>0.00</temp>
<bpm>0</bpm>
<rpm>0.00</rpm>
</extensions>
</trkpt>
<trkpt lat="30.622343063" lon="34.817203522">
<ele>695.468750</ele>
<time>2013-11-22T14:20:54Z</time>
<speed>1.950000</speed>
<extensions>
<speed>1.9</speed>
<temp>0.00</temp>
<bpm>0</bpm>
<rpm>0.00</rpm>
</extensions>
</trkpt>
<trkpt lat="30.622249603" lon="34.817153931">
<ele>696.218750</ele>
<time>2013-11-22T14:20:59Z</time>
<speed>1.960000</speed>
<extensions>
<speed>2.0</speed>
<temp>0.00</temp>
<bpm>0</bpm>
<rpm>0.00</rpm>
</extensions>
</trkpt>
<trkpt lat="30.622165680" lon="34.817115784">
<ele>696.765625</ele>
<time>2013-11-22T14:21:04Z</time>
<speed>1.990000</speed>
<extensions>
<speed>2.0</speed>
<temp>0.00</temp>
<bpm>0</bpm>
<rpm>0.00</rpm>
</extensions>
</trkpt>
<trkpt lat="30.622098923" lon="34.817070007">
<ele>697.328125</ele>
<time>2013-11-22T14:21:09Z</time>
<speed>1.620000</speed>
<extensions>
<speed>1.6</speed>
<temp>0.00</temp>
<bpm>0</bpm>
<rpm>0.00</rpm>
</extensions>
</trkpt>
<trkpt lat="30.622030258" lon="34.817016602">
<ele>698.312500</ele>
<time>2013-11-22T14:21:14Z</time>
<speed>2.010000</speed>
<extensions>
<speed>2.0</speed>
<temp>0.00</temp>
<bpm>0</bpm>
<rpm>0.00</rpm>
</extensions>
</trkpt>
<trkpt lat="30.621990204" lon="34.816978455">
<ele>699.453125</ele>
<time>2013-11-22T14:21:19Z</time>
<speed>1.620000</speed>
<extensions>
<speed>1.6</speed>
<temp>0.00</temp>
<bpm>0</bpm>
<rpm>0.00</rpm>
</extensions>
</trkpt>
<trkpt lat="30.621908188" lon="34.816905975">
<ele>700.640625</ele>
<time>2013-11-22T14:21:24Z</time>
<speed>2.540000</speed>
<extensions>
<speed>2.5</speed>
<temp>0.00</temp>
<bpm>0</bpm>
<rpm>0.00</rpm>
</extensions>
</trkpt>
<trkpt lat="30.621831894" lon="34.816837311">
<ele>703.093750</ele>
<time>2013-11-22T14:21:29Z</time>
<speed>1.540000</speed>
<extensions>
<speed>1.5</speed>
<temp>0.00</temp>
<bpm>0</bpm>
<rpm>0.00</rpm>
</extensions>
</trkpt>
<trkpt lat="30.621807098" lon="34.816787720">
<ele>703.390625</ele>
<time>2013-11-22T14:21:34Z</time>
<speed>1.770000</speed>
<extensions>
<speed>1.8</speed>
<temp>0.00</temp>
<bpm>0</bpm>
<rpm>0.00</rpm>
</extensions>
</trkpt>
<trkpt lat="30.621755600" lon="34.816707611">
<ele>705.437500</ele>
<time>2013-11-22T14:21:39Z</time>
<speed>2.090000</speed>
<extensions>
<speed>2.1</speed>
<temp>0.00</temp>
<bpm>0</bpm>
<rpm>0.00</rpm>
</extensions>
</trkpt>
<trkpt lat="30.621704102" lon="34.816604614">
<ele>706.406250</ele>
<time>2013-11-22T14:21:44Z</time>
<speed>3.010000</speed>
<extensions>
<speed>3.0</speed>
<temp>0.00</temp>
<bpm>0</bpm>
<rpm>0.00</rpm>
</extensions>
</trkpt>
<trkpt lat="30.621646881" lon="34.816490173">
<ele>707.781250</ele>
<time>2013-11-22T14:21:49Z</time>
<speed>1.550000</speed>
<extensions>
<speed>1.5</speed>
<temp>0.00</temp>
<bpm>0</bpm>
<rpm>0.00</rpm>
</extensions>
</trkpt>
<trkpt lat="30.621606827" lon="34.816417694">
<ele>707.937500</ele>
<time>2013-11-22T14:21:54Z</time>
<speed>2.220000</speed>
<extensions>
<speed>2.2</speed>
<temp>0.00</temp>
<bpm>0</bpm>
<rpm>0.00</rpm>
</extensions>
</trkpt>
<trkpt lat="30.621528625" lon="34.816303253">
<ele>708.562500</ele>
<time>2013-11-22T14:21:59Z</time>
<speed>3.430000</speed>
<extensions>
<speed>3.4</speed>
<temp>0.00</temp>
<bpm>0</bpm>
<rpm>0.00</rpm>
</extensions>
</trkpt>
<trkpt lat="30.621458054" lon="34.816200256">
<ele>709.671875</ele>
<time>2013-11-22T14:22:04Z</time>
<speed>1.450000</speed>
<extensions>
<speed>1.4</speed>
<temp>0.00</temp>
<bpm>0</bpm>
<rpm>0.00</rpm>
</extensions>
</trkpt>
<trkpt lat="30.621406555" lon="34.816143036">
<ele>711.578125</ele>
<time>2013-11-22T14:22:09Z</time>
<speed>1.550000</speed>
<extensions>
<speed>1.5</speed>
<temp>0.00</temp>
<bpm>0</bpm>
<rpm>0.00</rpm>
</extensions>
</trkpt>
<trkpt lat="30.621330261" lon="34.816082001">
<ele>711.281250</ele>
<time>2013-11-22T14:22:14Z</time>
<speed>2.380000</speed>
<extensions>
<speed>2.4</speed>
<temp>0.00</temp>
<bpm>0</bpm>
<rpm>0.00</rpm>
</extensions>
</trkpt>
<trkpt lat="30.621255875" lon="34.816017151">
<ele>711.187500</ele>
<time>2013-11-22T14:22:19Z</time>
<speed>1.730000</speed>
<extensions>
<speed>1.7</speed>
<temp>0.00</temp>
<bpm>0</bpm>
<rpm>0.00</rpm>
</extensions>
</trkpt>
<trkpt lat="30.621166229" lon="34.815940857">
<ele>711.343750</ele>
<time>2013-11-22T14:22:24Z</time>
<speed>2.760000</speed>
<extensions>
<speed>2.8</speed>
<temp>0.00</temp>
<bpm>0</bpm>
<rpm>0.00</rpm>
</extensions>
</trkpt>
<trkpt lat="30.621103287" lon="34.815864563">
<ele>710.781250</ele>
<time>2013-11-22T14:22:29Z</time>
<speed>1.960000</speed>
<extensions>
<speed>2.0</speed>
<temp>0.00</temp>
<bpm>0</bpm>
<rpm>0.00</rpm>
</extensions>
</trkpt>
<trkpt lat="30.621011734" lon="34.815780640">
<ele>710.421875</ele>
<time>2013-11-22T14:22:34Z</time>
<speed>2.180000</speed>
<extensions>
<speed>2.2</speed>
<temp>0.00</temp>
<bpm>0</bpm>
<rpm>0.00</rpm>
</extensions>
</trkpt>
<trkpt lat="30.620944977" lon="34.815727234">
<ele>710.218750</ele>
<time>2013-11-22T14:22:39Z</time>
<speed>1.680000</speed>
<extensions>
<speed>1.7</speed>
<temp>0.00</temp>
<bpm>0</bpm>
<rpm>0.00</rpm>
</extensions>
</trkpt>
<trkpt lat="30.620841980" lon="34.815658569">
<ele>710.359375</ele>
<time>2013-11-22T14:22:44Z</time>
<speed>3.060000</speed>
<extensions>
<speed>3.1</speed>
<temp>0.00</temp>
<bpm>0</bpm>
<rpm>0.00</rpm>
</extensions>
</trkpt>
<trkpt lat="30.620740891" lon="34.815582275">
<ele>710.671875</ele>
<time>2013-11-22T14:22:49Z</time>
<speed>2.760000</speed>
<extensions>
<speed>2.8</speed>
<temp>0.00</temp>
<bpm>0</bpm>
<rpm>0.00</rpm>
</extensions>
</trkpt>
<trkpt lat="30.620651245" lon="34.815490723">
<ele>710.421875</ele>
<time>2013-11-22T14:22:54Z</time>
<speed>2.500000</speed>
<extensions>
<speed>2.5</speed>
<temp>0.00</temp>
<bpm>0</bpm>
<rpm>0.00</rpm>
</extensions>
</trkpt>
<trkpt lat="30.620567322" lon="34.815429688">
<ele>711.796875</ele>
<time>2013-11-22T14:22:59Z</time>
<speed>1.810000</speed>
<extensions>
<speed>1.8</speed>
<temp>0.00</temp>
<bpm>0</bpm>
<rpm>0.00</rpm>
</extensions>
</trkpt>
<trkpt lat="30.620471954" lon="34.815372467">
<ele>713.453125</ele>
<time>2013-11-22T14:23:04Z</time>
<speed>2.590000</speed>
<extensions>
<speed>2.6</speed>
<temp>0.00</temp>
<bpm>0</bpm>
<rpm>0.00</rpm>
</extensions>
</trkpt>
<trkpt lat="30.620359421" lon="34.815307617">
<ele>713.500000</ele>
<time>2013-11-22T14:23:09Z</time>
<speed>2.830000</speed>
<extensions>
<speed>2.8</speed>
<temp>0.00</temp>
<bpm>0</bpm>
<rpm>0.00</rpm>
</extensions>
</trkpt>
<trkpt lat="30.620243073" lon="34.815254211">
<ele>713.671875</ele>
<time>2013-11-22T14:23:14Z</time>
<speed>2.500000</speed>
<extensions>
<speed>2.5</speed>
<temp>0.00</temp>
<bpm>0</bpm>
<rpm>0.00</rpm>
</extensions>
</trkpt>
<trkpt lat="30.620090485" lon="34.815212250">
<ele>713.640625</ele>
<time>2013-11-22T14:23:19Z</time>
<speed>3.150000</speed>
<extensions>
<speed>3.2</speed>
<temp>0.00</temp>
<bpm>0</bpm>
<rpm>0.00</rpm>
</extensions>
</trkpt>
<trkpt lat="30.619985580" lon="34.815162659">
<ele>714.234375</ele>
<time>2013-11-22T14:23:24Z</time>
<speed>2.420000</speed>
<extensions>
<speed>2.4</speed>
<temp>0.00</temp>
<bpm>0</bpm>
<rpm>0.00</rpm>
</extensions>
</trkpt>
<trkpt lat="30.619871140" lon="34.815105438">
<ele>715.031250</ele>
<time>2013-11-22T14:23:29Z</time>
<speed>2.150000</speed>
<extensions>
<speed>2.1</speed>
<temp>0.00</temp>
<bpm>0</bpm>
<rpm>0.00</rpm>
</extensions>
</trkpt>
<trkpt lat="30.619777679" lon="34.815025330">
<ele>715.625000</ele>
<time>2013-11-22T14:23:34Z</time>
<speed>2.940000</speed>
<extensions>
<speed>2.9</speed>
<temp>0.00</temp>
<bpm>0</bpm>
<rpm>0.00</rpm>
</extensions>
</trkpt>
<trkpt lat="30.619707108" lon="34.814952850">
<ele>716.906250</ele>
<time>2013-11-22T14:23:39Z</time>
<speed>1.110000</speed>
<extensions>
<speed>1.1</speed>
<temp>0.00</temp>
<bpm>0</bpm>
<rpm>0.00</rpm>
</extensions>
</trkpt>
<trkpt lat="30.619659424" lon="34.814880371">
<ele>718.203125</ele>
<time>2013-11-22T14:23:44Z</time>
<speed>2.160000</speed>
<extensions>
<speed>2.2</speed>
<temp>0.00</temp>
<bpm>0</bpm>
<rpm>0.00</rpm>
</extensions>
</trkpt>
<trkpt lat="30.619573593" lon="34.814750671">
<ele>718.984375</ele>
<time>2013-11-22T14:23:49Z</time>
<speed>3.140000</speed>
<extensions>
<speed>3.1</speed>
<temp>0.00</temp>
<bpm>0</bpm>
<rpm>0.00</rpm>
</extensions>
</trkpt>
<trkpt lat="30.619499207" lon="34.814598083">
<ele>719.921875</ele>
<time>2013-11-22T14:23:54Z</time>
<speed>3.340000</speed>
<extensions>
<speed>3.3</speed>
<temp>0.00</temp>
<bpm>0</bpm>
<rpm>0.00</rpm>
</extensions>
</trkpt>
<trkpt lat="30.619434357" lon="34.814430237">
<ele>721.234375</ele>
<time>2013-11-22T14:23:59Z</time>
<speed>2.580000</speed>
<extensions>
<speed>2.6</speed>
<temp>0.00</temp>
<bpm>0</bpm>
<rpm>0.00</rpm>
</extensions>
</trkpt>
<trkpt lat="30.619400024" lon="34.814281464">
<ele>722.906250</ele>
<time>2013-11-22T14:24:04Z</time>
<speed>3.180000</speed>
<extensions>
<speed>3.2</speed>
<temp>0.00</temp>
<bpm>0</bpm>
<rpm>0.00</rpm>
</extensions>
</trkpt>
<trkpt lat="30.619346619" lon="34.814121246">
<ele>723.906250</ele>
<time>2013-11-22T14:24:09Z</time>
<speed>3.100000</speed>
<extensions>
<speed>3.1</speed>
<temp>0.00</temp>
<bpm>0</bpm>
<rpm>0.00</rpm>
</extensions>
</trkpt>
<trkpt lat="30.619293213" lon="34.814025879">
<ele>724.625000</ele>
<time>2013-11-22T14:24:14Z</time>
<speed>1.950000</speed>
<extensions>
<speed>1.9</speed>
<temp>0.00</temp>
<bpm>0</bpm>
<rpm>0.00</rpm>
</extensions>
</trkpt>
<trkpt lat="30.619253159" lon="34.813941956">
<ele>725.421875</ele>
<time>2013-11-22T14:24:19Z</time>
<speed>1.050000</speed>
<extensions>
<speed>1.0</speed>
<temp>0.00</temp>
<bpm>0</bpm>
<rpm>0.00</rpm>
</extensions>
</trkpt>
<trkpt lat="30.619216919" lon="34.813877106">
<ele>726.406250</ele>
<time>2013-11-22T14:24:24Z</time>
<speed>2.120000</speed>
<extensions>
<speed>2.1</speed>
<temp>0.00</temp>
<bpm>0</bpm>
<rpm>0.00</rpm>
</extensions>
</trkpt>
<trkpt lat="30.619176865" lon="34.813785553">
<ele>727.062500</ele>
<time>2013-11-22T14:24:29Z</time>
<speed>1.030000</speed>
<extensions>
<speed>1.0</speed>
<temp>0.00</temp>
<bpm>0</bpm>
<rpm>0.00</rpm>
</extensions>
</trkpt>
<trkpt lat="30.619136810" lon="34.813713074">
<ele>727.937500</ele>
<time>2013-11-22T14:24:34Z</time>
<speed>2.040000</speed>
<extensions>
<speed>2.0</speed>
<temp>0.00</temp>
<bpm>0</bpm>
<rpm>0.00</rpm>
</extensions>
</trkpt>
<trkpt lat="30.619089127" lon="34.813632965">
<ele>729.046875</ele>
<time>2013-11-22T14:24:39Z</time>
<speed>1.520000</speed>
<extensions>
<speed>1.5</speed>
<temp>0.00</temp>
<bpm>0</bpm>
<rpm>0.00</rpm>
</extensions>
</trkpt>
<trkpt lat="30.619050980" lon="34.813541412">
<ele>730.390625</ele>
<time>2013-11-22T14:24:44Z</time>
<speed>2.020000</speed>
<extensions>
<speed>2.0</speed>
<temp>0.00</temp>
<bpm>0</bpm>
<rpm>0.00</rpm>
</extensions>
</trkpt>
<trkpt lat="30.619001389" lon="34.813457489">
<ele>731.937500</ele>
<time>2013-11-22T14:24:49Z</time>
<speed>2.160000</speed>
<extensions>
<speed>2.2</speed>
<temp>0.00</temp>
<bpm>0</bpm>
<rpm>0.00</rpm>
</extensions>
</trkpt>
<trkpt lat="30.618955612" lon="34.813358307">
<ele>733.265625</ele>
<time>2013-11-22T14:24:54Z</time>
<speed>2.340000</speed>
<extensions>
<speed>2.3</speed>
<temp>0.00</temp>
<bpm>0</bpm>
<rpm>0.00</rpm>
</extensions>
</trkpt>
<trkpt lat="30.618906021" lon="34.813247681">
<ele>735.062500</ele>
<time>2013-11-22T14:24:59Z</time>
<speed>1.930000</speed>
<extensions>
<speed>1.9</speed>
<temp>0.00</temp>
<bpm>0</bpm>
<rpm>0.00</rpm>
</extensions>
</trkpt>
<trkpt lat="30.618883133" lon="34.813190460">
<ele>736.328125</ele>
<time>2013-11-22T14:25:04Z</time>
<speed>1.480000</speed>
<extensions>
<speed>1.5</speed>
<temp>0.00</temp>
<bpm>0</bpm>
<rpm>0.00</rpm>
</extensions>
</trkpt>
<trkpt lat="30.618839264" lon="34.813110352">
<ele>738.015625</ele>
<time>2013-11-22T14:25:09Z</time>
<speed>1.160000</speed>
<extensions>
<speed>1.2</speed>
<temp>0.00</temp>
<bpm>0</bpm>
<rpm>0.00</rpm>
</extensions>
</trkpt>
<trkpt lat="30.618827820" lon="34.813045502">
<ele>738.765625</ele>
<time>2013-11-22T14:25:14Z</time>
<speed>0.750000</speed>
<extensions>
<speed>0.8</speed>
<temp>0.00</temp>
<bpm>0</bpm>
<rpm>0.00</rpm>
</extensions>
</trkpt>
<trkpt lat="30.618793488" lon="34.812995911">
<ele>739.671875</ele>
<time>2013-11-22T14:25:19Z</time>
<speed>1.300000</speed>
<extensions>
<speed>1.3</speed>
<temp>0.00</temp>
<bpm>0</bpm>
<rpm>0.00</rpm>
</extensions>
</trkpt>
<trkpt lat="30.618768692" lon="34.812927246">
<ele>740.812500</ele>
<time>2013-11-22T14:25:24Z</time>
<speed>1.690000</speed>
<extensions>
<speed>1.7</speed>
<temp>0.00</temp>
<bpm>0</bpm>
<rpm>0.00</rpm>
</extensions>
</trkpt>
<trkpt lat="30.618736267" lon="34.812858582">
<ele>742.093750</ele>
<time>2013-11-22T14:25:29Z</time>
<speed>1.090000</speed>
<extensions>
<speed>1.1</speed>
<temp>0.00</temp>
<bpm>0</bpm>
<rpm>0.00</rpm>
</extensions>
</trkpt>
<trkpt lat="30.618686676" lon="34.812816620">
<ele>742.796875</ele>
<time>2013-11-22T14:25:34Z</time>
<speed>1.540000</speed>
<extensions>
<speed>1.5</speed>
<temp>0.00</temp>
<bpm>0</bpm>
<rpm>0.00</rpm>
</extensions>
</trkpt>
<trkpt lat="30.618654251" lon="34.812728882">
<ele>743.921875</ele>
<time>2013-11-22T14:25:39Z</time>
<speed>1.730000</speed>
<extensions>
<speed>1.7</speed>
<temp>0.00</temp>
<bpm>0</bpm>
<rpm>0.00</rpm>
</extensions>
</trkpt>
<trkpt lat="30.618619919" lon="34.812644958">
<ele>745.843750</ele>
<time>2013-11-22T14:25:44Z</time>
<speed>2.000000</speed>
<extensions>
<speed>2.0</speed>
<temp>0.00</temp>
<bpm>0</bpm>
<rpm>0.00</rpm>
</extensions>
</trkpt>
<trkpt lat="30.618587494" lon="34.812545776">
<ele>747.156250</ele>
<time>2013-11-22T14:25:49Z</time>
<speed>2.080000</speed>
<extensions>
<speed>2.1</speed>
<temp>0.00</temp>
<bpm>0</bpm>
<rpm>0.00</rpm>
</extensions>
</trkpt>
<trkpt lat="30.618553162" lon="34.812469482">
<ele>748.359375</ele>
<time>2013-11-22T14:25:54Z</time>
<speed>1.860000</speed>
<extensions>
<speed>1.9</speed>
<temp>0.00</temp>
<bpm>0</bpm>
<rpm>0.00</rpm>
</extensions>
</trkpt>
<trkpt lat="30.618528366" lon="34.812377930">
<ele>749.296875</ele>
<time>2013-11-22T14:25:59Z</time>
<speed>1.710000</speed>
<extensions>
<speed>1.7</speed>
<temp>0.00</temp>
<bpm>0</bpm>
<rpm>0.00</rpm>
</extensions>
</trkpt>
<trkpt lat="30.618492126" lon="34.812294006">
<ele>750.421875</ele>
<time>2013-11-22T14:26:04Z</time>
<speed>1.890000</speed>
<extensions>
<speed>1.9</speed>
<temp>0.00</temp>
<bpm>0</bpm>
<rpm>0.00</rpm>
</extensions>
</trkpt>
<trkpt lat="30.618459702" lon="34.812194824">
<ele>751.171875</ele>
<time>2013-11-22T14:26:09Z</time>
<speed>1.960000</speed>
<extensions>
<speed>2.0</speed>
<temp>0.00</temp>
<bpm>0</bpm>
<rpm>0.00</rpm>
</extensions>
</trkpt>
<trkpt lat="30.618413925" lon="34.812110901">
<ele>751.937500</ele>
<time>2013-11-22T14:26:14Z</time>
<speed>0.970000</speed>
<extensions>
<speed>1.0</speed>
<temp>0.00</temp>
<bpm>0</bpm>
<rpm>0.00</rpm>
</extensions>
</trkpt>
<trkpt lat="30.618381500" lon="34.812053680">
<ele>752.375000</ele>
<time>2013-11-22T14:26:19Z</time>
<speed>1.860000</speed>
<extensions>
<speed>1.9</speed>
<temp>0.00</temp>
<bpm>0</bpm>
<rpm>0.00</rpm>
</extensions>
</trkpt>
<trkpt lat="30.618345261" lon="34.811969757">
<ele>752.312500</ele>
<time>2013-11-22T14:26:24Z</time>
<speed>1.960000</speed>
<extensions>
<speed>2.0</speed>
<temp>0.00</temp>
<bpm>0</bpm>
<rpm>0.00</rpm>
</extensions>
</trkpt>
<trkpt lat="30.618301392" lon="34.811878204">
<ele>752.609375</ele>
<time>2013-11-22T14:26:29Z</time>
<speed>1.990000</speed>
<extensions>
<speed>2.0</speed>
<temp>0.00</temp>
<bpm>0</bpm>
<rpm>0.00</rpm>
</extensions>
</trkpt>
<trkpt lat="30.618274689" lon="34.811809540">
<ele>752.234375</ele>
<time>2013-11-22T14:26:34Z</time>
<speed>0.840000</speed>
<extensions>
<speed>0.8</speed>
<temp>0.00</temp>
<bpm>0</bpm>
<rpm>0.00</rpm>
</extensions>
</trkpt>
<trkpt lat="30.618251801" lon="34.811737061">
<ele>751.250000</ele>
<time>2013-11-22T14:26:39Z</time>
<speed>1.800000</speed>
<extensions>
<speed>1.8</speed>
<temp>0.00</temp>
<bpm>0</bpm>
<rpm>0.00</rpm>
</extensions>
</trkpt>
<trkpt lat="30.618217468" lon="34.811645508">
<ele>750.750000</ele>
<time>2013-11-22T14:26:44Z</time>
<speed>1.710000</speed>
<extensions>
<speed>1.7</speed>
<temp>0.00</temp>
<bpm>0</bpm>
<rpm>0.00</rpm>
</extensions>
</trkpt>
<trkpt lat="30.618192673" lon="34.811584473">
<ele>749.625000</ele>
<time>2013-11-22T14:26:49Z</time>
<speed>1.630000</speed>
<extensions>
<speed>1.6</speed>
<temp>0.00</temp>
<bpm>0</bpm>
<rpm>0.00</rpm>
</extensions>
</trkpt>
<trkpt lat="30.618167877" lon="34.811511993">
<ele>748.671875</ele>
<time>2013-11-22T14:26:54Z</time>
<speed>1.750000</speed>
<extensions>
<speed>1.8</speed>
<temp>0.00</temp>
<bpm>0</bpm>
<rpm>0.00</rpm>
</extensions>
</trkpt>
<trkpt lat="30.618139267" lon="34.811420441">
<ele>746.484375</ele>
<time>2013-11-22T14:26:59Z</time>
<speed>2.040000</speed>
<extensions>
<speed>2.0</speed>
<temp>0.00</temp>
<bpm>0</bpm>
<rpm>0.00</rpm>
</extensions>
</trkpt>
<trkpt lat="30.618093491" lon="34.811340332">
<ele>745.140625</ele>
<time>2013-11-22T14:27:04Z</time>
<speed>1.770000</speed>
<extensions>
<speed>1.8</speed>
<temp>0.00</temp>
<bpm>0</bpm>
<rpm>0.00</rpm>
</extensions>
</trkpt>
<trkpt lat="30.618062973" lon="34.811264038">
<ele>744.046875</ele>
<time>2013-11-22T14:27:09Z</time>
<speed>1.320000</speed>
<extensions>
<speed>1.3</speed>
<temp>0.00</temp>
<bpm>0</bpm>
<rpm>0.00</rpm>
</extensions>
</trkpt>
<trkpt lat="30.618019104" lon="34.811203003">
<ele>742.125000</ele>
<time>2013-11-22T14:27:14Z</time>
<speed>1.920000</speed>
<extensions>
<speed>1.9</speed>
<temp>0.00</temp>
<bpm>0</bpm>
<rpm>0.00</rpm>
</extensions>
</trkpt>
<trkpt lat="30.617996216" lon="34.811111450">
<ele>738.562500</ele>
<time>2013-11-22T14:27:19Z</time>
<speed>0.810000</speed>
<extensions>
<speed>0.8</speed>
<temp>0.00</temp>
<bpm>0</bpm>
<rpm>0.00</rpm>
</extensions>
</trkpt>
<trkpt lat="30.617963791" lon="34.811031342">
<ele>735.187500</ele>
<time>2013-11-22T14:27:24Z</time>
<speed>1.830000</speed>
<extensions>
<speed>1.8</speed>
<temp>0.00</temp>
<bpm>0</bpm>
<rpm>0.00</rpm>
</extensions>
</trkpt>
<trkpt lat="30.617940903" lon="34.810955048">
<ele>732.828125</ele>
<time>2013-11-22T14:27:29Z</time>
<speed>0.510000</speed>
<extensions>
<speed>0.5</speed>
<temp>0.00</temp>
<bpm>0</bpm>
<rpm>0.00</rpm>
</extensions>
</trkpt>
<trkpt lat="30.617898941" lon="34.810901642">
<ele>731.125000</ele>
<time>2013-11-22T14:27:34Z</time>
<speed>1.790000</speed>
<extensions>
<speed>1.8</speed>
<temp>0.00</temp>
<bpm>0</bpm>
<rpm>0.00</rpm>
</extensions>
</trkpt>
<trkpt lat="30.617860794" lon="34.810829163">
<ele>728.796875</ele>
<time>2013-11-22T14:27:39Z</time>
<speed>1.700000</speed>
<extensions>
<speed>1.7</speed>
<temp>0.00</temp>
<bpm>0</bpm>
<rpm>0.00</rpm>
</extensions>
</trkpt>
<trkpt lat="30.617830276" lon="34.810745239">
<ele>726.625000</ele>
<time>2013-11-22T14:27:44Z</time>
<speed>1.900000</speed>
<extensions>
<speed>1.9</speed>
<temp>0.00</temp>
<bpm>0</bpm>
<rpm>0.00</rpm>
</extensions>
</trkpt>
<trkpt lat="30.617794037" lon="34.810691833">
<ele>723.531250</ele>
<time>2013-11-22T14:27:49Z</time>
<speed>0.890000</speed>
<extensions>
<speed>0.9</speed>
<temp>0.00</temp>
<bpm>0</bpm>
<rpm>0.00</rpm>
</extensions>
</trkpt>
<trkpt lat="30.617736816" lon="34.810596466">
<ele>720.437500</ele>
<time>2013-11-22T14:27:54Z</time>
<speed>2.190000</speed>
<extensions>
<speed>2.2</speed>
<temp>0.00</temp>
<bpm>0</bpm>
<rpm>0.00</rpm>
</extensions>
</trkpt>
<trkpt lat="30.617626190" lon="34.810539246">
<ele>722.859375</ele>
<time>2013-11-22T14:27:59Z</time>
<speed>1.450000</speed>
<extensions>
<speed>1.4</speed>
<temp>0.00</temp>
<bpm>0</bpm>
<rpm>0.00</rpm>
</extensions>
</trkpt>
<trkpt lat="30.617582321" lon="34.810489655">
<ele>722.687500</ele>
<time>2013-11-22T14:28:04Z</time>
<speed>1.810000</speed>
<extensions>
<speed>1.8</speed>
<temp>0.00</temp>
<bpm>0</bpm>
<rpm>0.00</rpm>
</extensions>
</trkpt>
<trkpt lat="30.617509842" lon="34.810413361">
<ele>722.500000</ele>
<time>2013-11-22T14:28:09Z</time>
<speed>2.210000</speed>
<extensions>
<speed>2.2</speed>
<temp>0.00</temp>
<bpm>0</bpm>
<rpm>0.00</rpm>
</extensions>
</trkpt>
<trkpt lat="30.617469788" lon="34.810371399">
<ele>723.093750</ele>
<time>2013-11-22T14:28:14Z</time>
<speed>0.420000</speed>
<extensions>
<speed>0.4</speed>
<temp>0.00</temp>
<bpm>0</bpm>
<rpm>0.00</rpm>
</extensions>
</trkpt>
<trkpt lat="30.617477417" lon="34.810367584">
<ele>722.906250</ele>
<time>2013-11-22T14:28:19Z</time>
<speed>0.220000</speed>
<extensions>
<speed>0.2</speed>
<temp>0.00</temp>
<bpm>0</bpm>
<rpm>0.00</rpm>
</extensions>
</trkpt>
<trkpt lat="30.617479324" lon="34.810363770">
<ele>722.703125</ele>
<time>2013-11-22T14:28:24Z</time>
<speed>0.020000</speed>
<extensions>
<speed>0.0</speed>
<temp>0.00</temp>
<bpm>0</bpm>
<rpm>0.00</rpm>
</extensions>
</trkpt>
<trkpt lat="30.617479324" lon="34.810363770">
<ele>722.703125</ele>
<time>2013-11-22T14:28:29Z</time>
<speed>0.020000</speed>
<extensions>
<speed>0.0</speed>
<temp>0.00</temp>
<bpm>0</bpm>
<rpm>0.00</rpm>
</extensions>
</trkpt>
<trkpt lat="30.617479324" lon="34.810363770">
<ele>722.718750</ele>
<time>2013-11-22T14:28:34Z</time>
<speed>0.010000</speed>
<extensions>
<speed>0.0</speed>
<temp>0.00</temp>
<bpm>0</bpm>
<rpm>0.00</rpm>
</extensions>
</trkpt>
<trkpt lat="30.617479324" lon="34.810363770">
<ele>722.781250</ele>
<time>2013-11-22T14:28:39Z</time>
<speed>0.010000</speed>
<extensions>
<speed>0.0</speed>
<temp>0.00</temp>
<bpm>0</bpm>
<rpm>0.00</rpm>
</extensions>
</trkpt>
<trkpt lat="30.617464066" lon="34.810340881">
<ele>723.140625</ele>
<time>2013-11-22T14:28:44Z</time>
<speed>1.510000</speed>
<extensions>
<speed>1.5</speed>
<temp>0.00</temp>
<bpm>0</bpm>
<rpm>0.00</rpm>
</extensions>
</trkpt>
<trkpt lat="30.617416382" lon="34.810272217">
<ele>722.937500</ele>
<time>2013-11-22T14:28:49Z</time>
<speed>1.810000</speed>
<extensions>
<speed>1.8</speed>
<temp>0.00</temp>
<bpm>0</bpm>
<rpm>0.00</rpm>
</extensions>
</trkpt>
<trkpt lat="30.617364883" lon="34.810199738">
<ele>723.843750</ele>
<time>2013-11-22T14:28:54Z</time>
<speed>2.000000</speed>
<extensions>
<speed>2.0</speed>
<temp>0.00</temp>
<bpm>0</bpm>
<rpm>0.00</rpm>
</extensions>
</trkpt>
<trkpt lat="30.617313385" lon="34.810123444">
<ele>725.000000</ele>
<time>2013-11-22T14:28:59Z</time>
<speed>1.820000</speed>
<extensions>
<speed>1.8</speed>
<temp>0.00</temp>
<bpm>0</bpm>
<rpm>0.00</rpm>
</extensions>
</trkpt>
<trkpt lat="30.617244720" lon="34.810058594">
<ele>726.078125</ele>
<time>2013-11-22T14:29:04Z</time>
<speed>1.720000</speed>
<extensions>
<speed>1.7</speed>
<temp>0.00</temp>
<bpm>0</bpm>
<rpm>0.00</rpm>
</extensions>
</trkpt>
<trkpt lat="30.617183685" lon="34.809982300">
<ele>726.515625</ele>
<time>2013-11-22T14:29:09Z</time>
<speed>2.020000</speed>
<extensions>
<speed>2.0</speed>
<temp>0.00</temp>
<bpm>0</bpm>
<rpm>0.00</rpm>
</extensions>
</trkpt>
<trkpt lat="30.617120743" lon="34.809917450">
<ele>729.078125</ele>
<time>2013-11-22T14:29:14Z</time>
<speed>1.030000</speed>
<extensions>
<speed>1.0</speed>
<temp>0.00</temp>
<bpm>0</bpm>
<rpm>0.00</rpm>
</extensions>
</trkpt>
<trkpt lat="30.617055893" lon="34.809864044">
<ele>732.031250</ele>
<time>2013-11-22T14:29:19Z</time>
<speed>2.060000</speed>
<extensions>
<speed>2.1</speed>
<temp>0.00</temp>
<bpm>0</bpm>
<rpm>0.00</rpm>
</extensions>
</trkpt>
<trkpt lat="30.617006302" lon="34.809787750">
<ele>734.953125</ele>
<time>2013-11-22T14:29:24Z</time>
<speed>1.640000</speed>
<extensions>
<speed>1.6</speed>
<temp>0.00</temp>
<bpm>0</bpm>
<rpm>0.00</rpm>
</extensions>
</trkpt>
<trkpt lat="30.616943359" lon="34.809734344">
<ele>738.812500</ele>
<time>2013-11-22T14:29:29Z</time>
<speed>2.160000</speed>
<extensions>
<speed>2.2</speed>
<temp>0.00</temp>
<bpm>0</bpm>
<rpm>0.00</rpm>
</extensions>
</trkpt>
<trkpt lat="30.616876602" lon="34.809669495">
<ele>741.953125</ele>
<time>2013-11-22T14:29:34Z</time>
<speed>0.910000</speed>
<extensions>
<speed>0.9</speed>
<temp>0.00</temp>
<bpm>0</bpm>
<rpm>0.00</rpm>
</extensions>
</trkpt>
<trkpt lat="30.616827011" lon="34.809619904">
<ele>744.468750</ele>
<time>2013-11-22T14:29:39Z</time>
<speed>1.770000</speed>
<extensions>
<speed>1.8</speed>
<temp>0.00</temp>
<bpm>0</bpm>
<rpm>0.00</rpm>
</extensions>
</trkpt>
<trkpt lat="30.616773605" lon="34.809555054">
<ele>746.984375</ele>
<time>2013-11-22T14:29:44Z</time>
<speed>1.620000</speed>
<extensions>
<speed>1.6</speed>
<temp>0.00</temp>
<bpm>0</bpm>
<rpm>0.00</rpm>
</extensions>
</trkpt>
<trkpt lat="30.616722107" lon="34.809501648">
<ele>749.734375</ele>
<time>2013-11-22T14:29:49Z</time>
<speed>1.420000</speed>
<extensions>
<speed>1.4</speed>
<temp>0.00</temp>
<bpm>0</bpm>
<rpm>0.00</rpm>
</extensions>
</trkpt>
<trkpt lat="30.616670609" lon="34.809452057">
<ele>751.562500</ele>
<time>2013-11-22T14:29:54Z</time>
<speed>1.430000</speed>
<extensions>
<speed>1.4</speed>
<temp>0.00</temp>
<bpm>0</bpm>
<rpm>0.00</rpm>
</extensions>
</trkpt>
<trkpt lat="30.616628647" lon="34.809410095">
<ele>753.500000</ele>
<time>2013-11-22T14:29:59Z</time>
<speed>0.720000</speed>
<extensions>
<speed>0.7</speed>
<temp>0.00</temp>
<bpm>0</bpm>
<rpm>0.00</rpm>
</extensions>
</trkpt>
<trkpt lat="30.616594315" lon="34.809425354">
<ele>757.640625</ele>
<time>2013-11-22T14:30:04Z</time>
<speed>0.160000</speed>
<extensions>
<speed>0.2</speed>
<temp>0.00</temp>
<bpm>0</bpm>
<rpm>0.00</rpm>
</extensions>
</trkpt>
<trkpt lat="30.616594315" lon="34.809425354">
<ele>757.921875</ele>
<time>2013-11-22T14:30:09Z</time>
<extensions>
<speed>0.0</speed>
<temp>0.00</temp>
<bpm>0</bpm>
<rpm>0.00</rpm>
</extensions>
</trkpt>
<trkpt lat="30.616580963" lon="34.809417725">
<ele>758.421875</ele>
<time>2013-11-22T14:30:14Z</time>
<speed>0.930000</speed>
<extensions>
<speed>0.9</speed>
<temp>0.00</temp>
<bpm>0</bpm>
<rpm>0.00</rpm>
</extensions>
</trkpt>
<trkpt lat="30.616561890" lon="34.809410095">
<ele>758.781250</ele>
<time>2013-11-22T14:30:19Z</time>
<speed>0.060000</speed>
<extensions>
<speed>0.1</speed>
<temp>0.00</temp>
<bpm>0</bpm>
<rpm>0.00</rpm>
</extensions>
</trkpt>
<trkpt lat="30.616550446" lon="34.809406281">
<ele>758.343750</ele>
<time>2013-11-22T14:30:24Z</time>
<extensions>
<speed>0.0</speed>
<temp>0.00</temp>
<bpm>0</bpm>
<rpm>0.00</rpm>
</extensions>
</trkpt>
<trkpt lat="30.616548538" lon="34.809406281">
<ele>758.453125</ele>
<time>2013-11-22T14:30:29Z</time>
<extensions>
<speed>0.0</speed>
<temp>0.00</temp>
<bpm>0</bpm>
<rpm>0.00</rpm>
</extensions>
</trkpt>
<trkpt lat="30.616548538" lon="34.809406281">
<ele>758.562500</ele>
<time>2013-11-22T14:30:34Z</time>
<speed>0.030000</speed>
<extensions>
<speed>0.0</speed>
<temp>0.00</temp>
<bpm>0</bpm>
<rpm>0.00</rpm>
</extensions>
</trkpt>
<trkpt lat="30.616548538" lon="34.809406281">
<ele>758.578125</ele>
<time>2013-11-22T14:30:39Z</time>
<extensions>
<speed>0.0</speed>
<temp>0.00</temp>
<bpm>0</bpm>
<rpm>0.00</rpm>
</extensions>
</trkpt>
<trkpt lat="30.616548538" lon="34.809406281">
<ele>758.578125</ele>
<time>2013-11-22T14:30:44Z</time>
<speed>0.030000</speed>
<extensions>
<speed>0.0</speed>
<temp>0.00</temp>
<bpm>0</bpm>
<rpm>0.00</rpm>
</extensions>
</trkpt>
<trkpt lat="30.616548538" lon="34.809406281">
<ele>758.578125</ele>
<time>2013-11-22T14:30:49Z</time>
<speed>0.010000</speed>
<extensions>
<speed>0.0</speed>
<temp>0.00</temp>
<bpm>0</bpm>
<rpm>0.00</rpm>
</extensions>
</trkpt>
<trkpt lat="30.616548538" lon="34.809406281">
<ele>758.578125</ele>
<time>2013-11-22T14:30:54Z</time>
<extensions>
<speed>0.0</speed>
<temp>0.00</temp>
<bpm>0</bpm>
<rpm>0.00</rpm>
</extensions>
</trkpt>
<trkpt lat="30.616546631" lon="34.809406281">
<ele>758.625000</ele>
<time>2013-11-22T14:30:59Z</time>
<speed>0.930000</speed>
<extensions>
<speed>0.9</speed>
<temp>0.00</temp>
<bpm>0</bpm>
<rpm>0.00</rpm>
</extensions>
</trkpt>
<trkpt lat="30.616487503" lon="34.809360504">
<ele>760.484375</ele>
<time>2013-11-22T14:31:04Z</time>
<speed>1.650000</speed>
<extensions>
<speed>1.7</speed>
<temp>0.00</temp>
<bpm>0</bpm>
<rpm>0.00</rpm>
</extensions>
</trkpt>
<trkpt lat="30.616420746" lon="34.809299469">
<ele>762.421875</ele>
<time>2013-11-22T14:31:09Z</time>
<speed>1.680000</speed>
<extensions>
<speed>1.7</speed>
<temp>0.00</temp>
<bpm>0</bpm>
<rpm>0.00</rpm>
</extensions>
</trkpt>
<trkpt lat="30.616359711" lon="34.809249878">
<ele>764.171875</ele>
<time>2013-11-22T14:31:14Z</time>
<speed>1.600000</speed>
<extensions>
<speed>1.6</speed>
<temp>0.00</temp>
<bpm>0</bpm>
<rpm>0.00</rpm>
</extensions>
</trkpt>
<trkpt lat="30.616306305" lon="34.809219360">
<ele>766.000000</ele>
<time>2013-11-22T14:31:19Z</time>
<speed>0.960000</speed>
<extensions>
<speed>1.0</speed>
<temp>0.00</temp>
<bpm>0</bpm>
<rpm>0.00</rpm>
</extensions>
</trkpt>
<trkpt lat="30.616237640" lon="34.809196472">
<ele>766.968750</ele>
<time>2013-11-22T14:31:24Z</time>
<speed>1.520000</speed>
<extensions>
<speed>1.5</speed>
<temp>0.00</temp>
<bpm>0</bpm>
<rpm>0.00</rpm>
</extensions>
</trkpt>
<trkpt lat="30.616155624" lon="34.809173584">
<ele>767.953125</ele>
<time>2013-11-22T14:31:29Z</time>
<speed>1.300000</speed>
<extensions>
<speed>1.3</speed>
<temp>0.00</temp>
<bpm>0</bpm>
<rpm>0.00</rpm>
</extensions>
</trkpt>
<trkpt lat="30.616054535" lon="34.809181213">
<ele>769.640625</ele>
<time>2013-11-22T14:31:34Z</time>
<speed>1.250000</speed>
<extensions>
<speed>1.3</speed>
<temp>0.00</temp>
<bpm>0</bpm>
<rpm>0.00</rpm>
</extensions>
</trkpt>
<trkpt lat="30.615995407" lon="34.809188843">
<ele>771.234375</ele>
<time>2013-11-22T14:31:39Z</time>
<speed>1.760000</speed>
<extensions>
<speed>1.8</speed>
<temp>0.00</temp>
<bpm>0</bpm>
<rpm>0.00</rpm>
</extensions>
</trkpt>
<trkpt lat="30.615934372" lon="34.809181213">
<ele>773.875000</ele>
<time>2013-11-22T14:31:44Z</time>
<speed>1.620000</speed>
<extensions>
<speed>1.6</speed>
<temp>0.00</temp>
<bpm>0</bpm>
<rpm>0.00</rpm>
</extensions>
</trkpt>
<trkpt lat="30.615842819" lon="34.809196472">
<ele>775.203125</ele>
<time>2013-11-22T14:31:49Z</time>
<speed>1.980000</speed>
<extensions>
<speed>2.0</speed>
<temp>0.00</temp>
<bpm>0</bpm>
<rpm>0.00</rpm>
</extensions>
</trkpt>
<trkpt lat="30.615776062" lon="34.809192657">
<ele>776.890625</ele>
<time>2013-11-22T14:31:54Z</time>
<speed>1.910000</speed>
<extensions>
<speed>1.9</speed>
<temp>0.00</temp>
<bpm>0</bpm>
<rpm>0.00</rpm>
</extensions>
</trkpt>
<trkpt lat="30.615695953" lon="34.809207916">
<ele>778.187500</ele>
<time>2013-11-22T14:31:59Z</time>
<speed>2.390000</speed>
<extensions>
<speed>2.4</speed>
<temp>0.00</temp>
<bpm>0</bpm>
<rpm>0.00</rpm>
</extensions>
</trkpt>
<trkpt lat="30.615600586" lon="34.809226990">
<ele>780.140625</ele>
<time>2013-11-22T14:32:04Z</time>
<speed>2.270000</speed>
<extensions>
<speed>2.3</speed>
<temp>0.00</temp>
<bpm>0</bpm>
<rpm>0.00</rpm>
</extensions>
</trkpt>
<trkpt lat="30.615526199" lon="34.809234619">
<ele>780.937500</ele>
<time>2013-11-22T14:32:09Z</time>
<speed>1.710000</speed>
<extensions>
<speed>1.7</speed>
<temp>0.00</temp>
<bpm>0</bpm>
<rpm>0.00</rpm>
</extensions>
</trkpt>
<trkpt lat="30.615427017" lon="34.809226990">
<ele>779.968750</ele>
<time>2013-11-22T14:32:14Z</time>
<speed>1.970000</speed>
<extensions>
<speed>2.0</speed>
<temp>0.00</temp>
<bpm>0</bpm>
<rpm>0.00</rpm>
</extensions>
</trkpt>
<trkpt lat="30.615320206" lon="34.809219360">
<ele>779.687500</ele>
<time>2013-11-22T14:32:19Z</time>
<speed>2.050000</speed>
<extensions>
<speed>2.1</speed>
<temp>0.00</temp>
<bpm>0</bpm>
<rpm>0.00</rpm>
</extensions>
</trkpt>
<trkpt lat="30.615215302" lon="34.809204102">
<ele>779.531250</ele>
<time>2013-11-22T14:32:24Z</time>
<speed>2.110000</speed>
<extensions>
<speed>2.1</speed>
<temp>0.00</temp>
<bpm>0</bpm>
<rpm>0.00</rpm>
</extensions>
</trkpt>
<trkpt lat="30.615125656" lon="34.809192657">
<ele>778.453125</ele>
<time>2013-11-22T14:32:29Z</time>
<speed>2.270000</speed>
<extensions>
<speed>2.3</speed>
<temp>0.00</temp>
<bpm>0</bpm>
<rpm>0.00</rpm>
</extensions>
</trkpt>
<trkpt lat="30.615032196" lon="34.809173584">
<ele>778.640625</ele>
<time>2013-11-22T14:32:34Z</time>
<speed>2.150000</speed>
<extensions>
<speed>2.1</speed>
<temp>0.00</temp>
<bpm>0</bpm>
<rpm>0.00</rpm>
</extensions>
</trkpt>
<trkpt lat="30.614929199" lon="34.809146881">
<ele>777.578125</ele>
<time>2013-11-22T14:32:39Z</time>
<speed>2.230000</speed>
<extensions>
<speed>2.2</speed>
<temp>0.00</temp>
<bpm>0</bpm>
<rpm>0.00</rpm>
</extensions>
</trkpt>
<trkpt lat="30.614849091" lon="34.809139252">
<ele>780.000000</ele>
<time>2013-11-22T14:32:44Z</time>
<speed>1.720000</speed>
<extensions>
<speed>1.7</speed>
<temp>0.00</temp>
<bpm>0</bpm>
<rpm>0.00</rpm>
</extensions>
</trkpt>
<trkpt lat="30.614767075" lon="34.809123993">
<ele>780.312500</ele>
<time>2013-11-22T14:32:49Z</time>
<speed>2.030000</speed>
<extensions>
<speed>2.0</speed>
<temp>0.00</temp>
<bpm>0</bpm>
<rpm>0.00</rpm>
</extensions>
</trkpt>
<trkpt lat="30.614679337" lon="34.809108734">
<ele>780.843750</ele>
<time>2013-11-22T14:32:54Z</time>
<speed>2.050000</speed>
<extensions>
<speed>2.1</speed>
<temp>0.00</temp>
<bpm>0</bpm>
<rpm>0.00</rpm>
</extensions>
</trkpt>
<trkpt lat="30.614595413" lon="34.809089661">
<ele>781.718750</ele>
<time>2013-11-22T14:32:59Z</time>
<speed>1.890000</speed>
<extensions>
<speed>1.9</speed>
<temp>0.00</temp>
<bpm>0</bpm>
<rpm>0.00</rpm>
</extensions>
</trkpt>
<trkpt lat="30.614500046" lon="34.809082031">
<ele>783.234375</ele>
<time>2013-11-22T14:33:04Z</time>
<speed>2.000000</speed>
<extensions>
<speed>2.0</speed>
<temp>0.00</temp>
<bpm>0</bpm>
<rpm>0.00</rpm>
</extensions>
</trkpt>
<trkpt lat="30.614410400" lon="34.809070587">
<ele>783.937500</ele>
<time>2013-11-22T14:33:09Z</time>
<speed>2.110000</speed>
<extensions>
<speed>2.1</speed>
<temp>0.00</temp>
<bpm>0</bpm>
<rpm>0.00</rpm>
</extensions>
</trkpt>
<trkpt lat="30.614324570" lon="34.809059143">
<ele>783.718750</ele>
<time>2013-11-22T14:33:14Z</time>
<speed>2.190000</speed>
<extensions>
<speed>2.2</speed>
<temp>0.00</temp>
<bpm>0</bpm>
<rpm>0.00</rpm>
</extensions>
</trkpt>
<trkpt lat="30.614229202" lon="34.809036255">
<ele>783.562500</ele>
<time>2013-11-22T14:33:19Z</time>
<speed>1.440000</speed>
<extensions>
<speed>1.4</speed>
<temp>0.00</temp>
<bpm>0</bpm>
<rpm>0.00</rpm>
</extensions>
</trkpt>
<trkpt lat="30.614171982" lon="34.809040070">
<ele>783.828125</ele>
<time>2013-11-22T14:33:24Z</time>
<speed>1.640000</speed>
<extensions>
<speed>1.6</speed>
<temp>0.00</temp>
<bpm>0</bpm>
<rpm>0.00</rpm>
</extensions>
</trkpt>
<trkpt lat="30.614089966" lon="34.809020996">
<ele>784.328125</ele>
<time>2013-11-22T14:33:29Z</time>
<speed>1.960000</speed>
<extensions>
<speed>2.0</speed>
<temp>0.00</temp>
<bpm>0</bpm>
<rpm>0.00</rpm>
</extensions>
</trkpt>
<trkpt lat="30.613996506" lon="34.809005737">
<ele>784.781250</ele>
<time>2013-11-22T14:33:34Z</time>
<speed>1.930000</speed>
<extensions>
<speed>1.9</speed>
<temp>0.00</temp>
<bpm>0</bpm>
<rpm>0.00</rpm>
</extensions>
</trkpt>
<trkpt lat="30.613914490" lon="34.808990479">
<ele>785.359375</ele>
<time>2013-11-22T14:33:39Z</time>
<speed>0.940000</speed>
<extensions>
<speed>0.9</speed>
<temp>0.00</temp>
<bpm>0</bpm>
<rpm>0.00</rpm>
</extensions>
</trkpt>
<trkpt lat="30.613843918" lon="34.808975220">
<ele>786.031250</ele>
<time>2013-11-22T14:33:44Z</time>
<speed>1.920000</speed>
<extensions>
<speed>1.9</speed>
<temp>0.00</temp>
<bpm>0</bpm>
<rpm>0.00</rpm>
</extensions>
</trkpt>
<trkpt lat="30.613777161" lon="34.808963776">
<ele>786.625000</ele>
<time>2013-11-22T14:33:49Z</time>
<speed>1.750000</speed>
<extensions>
<speed>1.8</speed>
<temp>0.00</temp>
<bpm>0</bpm>
<rpm>0.00</rpm>
</extensions>
</trkpt>
<trkpt lat="30.613685608" lon="34.808952332">
<ele>786.953125</ele>
<time>2013-11-22T14:33:54Z</time>
<speed>1.900000</speed>
<extensions>
<speed>1.9</speed>
<temp>0.00</temp>
<bpm>0</bpm>
<rpm>0.00</rpm>
</extensions>
</trkpt>
<trkpt lat="30.613666534" lon="34.808944702">
<ele>786.421875</ele>
<time>2013-11-22T14:33:59Z</time>
<speed>0.160000</speed>
<extensions>
<speed>0.2</speed>
<temp>0.00</temp>
<bpm>0</bpm>
<rpm>0.00</rpm>
</extensions>
</trkpt>
<trkpt lat="30.613672256" lon="34.808937073">
<ele>785.500000</ele>
<time>2013-11-22T14:34:04Z</time>
<speed>0.070000</speed>
<extensions>
<speed>0.1</speed>
<temp>0.00</temp>
<bpm>0</bpm>
<rpm>0.00</rpm>
</extensions>
</trkpt>
<trkpt lat="30.613618851" lon="34.808917999">
<ele>785.765625</ele>
<time>2013-11-22T14:34:09Z</time>
<speed>1.720000</speed>
<extensions>
<speed>1.7</speed>
<temp>0.00</temp>
<bpm>0</bpm>
<rpm>0.00</rpm>
</extensions>
</trkpt>
<trkpt lat="30.613529205" lon="34.808906555">
<ele>787.468750</ele>
<time>2013-11-22T14:34:14Z</time>
<speed>1.900000</speed>
<extensions>
<speed>1.9</speed>
<temp>0.00</temp>
<bpm>0</bpm>
<rpm>0.00</rpm>
</extensions>
</trkpt>
<trkpt lat="30.613451004" lon="34.808895111">
<ele>787.781250</ele>
<time>2013-11-22T14:34:19Z</time>
<speed>2.000000</speed>
<extensions>
<speed>2.0</speed>
<temp>0.00</temp>
<bpm>0</bpm>
<rpm>0.00</rpm>
</extensions>
</trkpt>
<trkpt lat="30.613382339" lon="34.808883667">
<ele>788.984375</ele>
<time>2013-11-22T14:34:24Z</time>
<speed>1.320000</speed>
<extensions>
<speed>1.3</speed>
<temp>0.00</temp>
<bpm>0</bpm>
<rpm>0.00</rpm>
</extensions>
</trkpt>
<trkpt lat="30.613285065" lon="34.808879852">
<ele>789.968750</ele>
<time>2013-11-22T14:34:29Z</time>
<speed>1.580000</speed>
<extensions>
<speed>1.6</speed>
<temp>0.00</temp>
<bpm>0</bpm>
<rpm>0.00</rpm>
</extensions>
</trkpt>
<trkpt lat="30.613191605" lon="34.808860779">
<ele>790.906250</ele>
<time>2013-11-22T14:34:34Z</time>
<speed>2.350000</speed>
<extensions>
<speed>2.4</speed>
<temp>0.00</temp>
<bpm>0</bpm>
<rpm>0.00</rpm>
</extensions>
</trkpt>
<trkpt lat="30.613088608" lon="34.808845520">
<ele>792.375000</ele>
<time>2013-11-22T14:34:39Z</time>
<speed>1.760000</speed>
<extensions>
<speed>1.8</speed>
<temp>0.00</temp>
<bpm>0</bpm>
<rpm>0.00</rpm>
</extensions>
</trkpt>
<trkpt lat="30.613000870" lon="34.808837891">
<ele>793.593750</ele>
<time>2013-11-22T14:34:44Z</time>
<speed>1.970000</speed>
<extensions>
<speed>2.0</speed>
<temp>0.00</temp>
<bpm>0</bpm>
<rpm>0.00</rpm>
</extensions>
</trkpt>
<trkpt lat="30.612941742" lon="34.808822632">
<ele>793.531250</ele>
<time>2013-11-22T14:34:49Z</time>
<speed>0.060000</speed>
<extensions>
<speed>0.1</speed>
<temp>0.00</temp>
<bpm>0</bpm>
<rpm>0.00</rpm>
</extensions>
</trkpt>
<trkpt lat="30.612901688" lon="34.808811188">
<ele>793.796875</ele>
<time>2013-11-22T14:34:54Z</time>
<speed>1.800000</speed>
<extensions>
<speed>1.8</speed>
<temp>0.00</temp>
<bpm>0</bpm>
<rpm>0.00</rpm>
</extensions>
</trkpt>
<trkpt lat="30.612804413" lon="34.808807373">
<ele>795.781250</ele>
<time>2013-11-22T14:34:59Z</time>
<speed>2.080000</speed>
<extensions>
<speed>2.1</speed>
<temp>0.00</temp>
<bpm>0</bpm>
<rpm>0.00</rpm>
</extensions>
</trkpt>
<trkpt lat="30.612693787" lon="34.808792114">
<ele>797.125000</ele>
<time>2013-11-22T14:35:04Z</time>
<speed>2.250000</speed>
<extensions>
<speed>2.3</speed>
<temp>0.00</temp>
<bpm>0</bpm>
<rpm>0.00</rpm>
</extensions>
</trkpt>
<trkpt lat="30.612598419" lon="34.808780670">
<ele>798.406250</ele>
<time>2013-11-22T14:35:09Z</time>
<speed>1.600000</speed>
<extensions>
<speed>1.6</speed>
<temp>0.00</temp>
<bpm>0</bpm>
<rpm>0.00</rpm>
</extensions>
</trkpt>
<trkpt lat="30.612487793" lon="34.808757782">
<ele>799.171875</ele>
<time>2013-11-22T14:35:14Z</time>
<speed>2.450000</speed>
<extensions>
<speed>2.4</speed>
<temp>0.00</temp>
<bpm>0</bpm>
<rpm>0.00</rpm>
</extensions>
</trkpt>
<trkpt lat="30.612388611" lon="34.808742523">
<ele>799.484375</ele>
<time>2013-11-22T14:35:19Z</time>
<speed>1.580000</speed>
<extensions>
<speed>1.6</speed>
<temp>0.00</temp>
<bpm>0</bpm>
<rpm>0.00</rpm>
</extensions>
</trkpt>
<trkpt lat="30.612298965" lon="34.808734894">
<ele>801.906250</ele>
<time>2013-11-22T14:35:24Z</time>
<speed>1.660000</speed>
<extensions>
<speed>1.7</speed>
<temp>0.00</temp>
<bpm>0</bpm>
<rpm>0.00</rpm>
</extensions>
</trkpt>
<trkpt lat="30.612201691" lon="34.808723450">
<ele>802.546875</ele>
<time>2013-11-22T14:35:29Z</time>
<speed>2.400000</speed>
<extensions>
<speed>2.4</speed>
<temp>0.00</temp>
<bpm>0</bpm>
<rpm>0.00</rpm>
</extensions>
</trkpt>
<trkpt lat="30.612119675" lon="34.808704376">
<ele>802.031250</ele>
<time>2013-11-22T14:35:34Z</time>
<speed>2.010000</speed>
<extensions>
<speed>2.0</speed>
<temp>0.00</temp>
<bpm>0</bpm>
<rpm>0.00</rpm>
</extensions>
</trkpt>
<trkpt lat="30.612052917" lon="34.808696747">
<ele>801.171875</ele>
<time>2013-11-22T14:35:39Z</time>
<speed>1.380000</speed>
<extensions>
<speed>1.4</speed>
<temp>0.00</temp>
<bpm>0</bpm>
<rpm>0.00</rpm>
</extensions>
</trkpt>
<trkpt lat="30.611970901" lon="34.808677673">
<ele>803.312500</ele>
<time>2013-11-22T14:35:44Z</time>
<speed>1.920000</speed>
<extensions>
<speed>1.9</speed>
<temp>0.00</temp>
<bpm>0</bpm>
<rpm>0.00</rpm>
</extensions>
</trkpt>
<trkpt lat="30.611875534" lon="34.808658600">
<ele>804.421875</ele>
<time>2013-11-22T14:35:49Z</time>
<speed>1.350000</speed>
<extensions>
<speed>1.4</speed>
<temp>0.00</temp>
<bpm>0</bpm>
<rpm>0.00</rpm>
</extensions>
</trkpt>
<trkpt lat="30.611829758" lon="34.808639526">
<ele>803.953125</ele>
<time>2013-11-22T14:35:54Z</time>
<speed>1.340000</speed>
<extensions>
<speed>1.3</speed>
<temp>0.00</temp>
<bpm>0</bpm>
<rpm>0.00</rpm>
</extensions>
</trkpt>
<trkpt lat="30.611757278" lon="34.808628082">
<ele>804.890625</ele>
<time>2013-11-22T14:35:59Z</time>
<speed>1.930000</speed>
<extensions>
<speed>1.9</speed>
<temp>0.00</temp>
<bpm>0</bpm>
<rpm>0.00</rpm>
</extensions>
</trkpt>
<trkpt lat="30.611661911" lon="34.808589935">
<ele>805.421875</ele>
<time>2013-11-22T14:36:04Z</time>
<speed>2.290000</speed>
<extensions>
<speed>2.3</speed>
<temp>0.00</temp>
<bpm>0</bpm>
<rpm>0.00</rpm>
</extensions>
</trkpt>
<trkpt lat="30.611597061" lon="34.808582306">
<ele>805.328125</ele>
<time>2013-11-22T14:36:09Z</time>
<speed>1.440000</speed>
<extensions>
<speed>1.4</speed>
<temp>0.00</temp>
<bpm>0</bpm>
<rpm>0.00</rpm>
</extensions>
</trkpt>
<trkpt lat="30.611518860" lon="34.808559418">
<ele>806.234375</ele>
<time>2013-11-22T14:36:14Z</time>
<speed>1.700000</speed>
<extensions>
<speed>1.7</speed>
<temp>0.00</temp>
<bpm>0</bpm>
<rpm>0.00</rpm>
</extensions>
</trkpt>
<trkpt lat="30.611446381" lon="34.808540344">
<ele>808.156250</ele>
<time>2013-11-22T14:36:19Z</time>
<speed>1.520000</speed>
<extensions>
<speed>1.5</speed>
<temp>0.00</temp>
<bpm>0</bpm>
<rpm>0.00</rpm>
</extensions>
</trkpt>
<trkpt lat="30.611371994" lon="34.808521271">
<ele>808.328125</ele>
<time>2013-11-22T14:36:24Z</time>
<speed>1.580000</speed>
<extensions>
<speed>1.6</speed>
<temp>0.00</temp>
<bpm>0</bpm>
<rpm>0.00</rpm>
</extensions>
</trkpt>
<trkpt lat="30.611305237" lon="34.808502197">
<ele>809.312500</ele>
<time>2013-11-22T14:36:29Z</time>
<speed>1.420000</speed>
<extensions>
<speed>1.4</speed>
<temp>0.00</temp>
<bpm>0</bpm>
<rpm>0.00</rpm>
</extensions>
</trkpt>
<trkpt lat="30.611232758" lon="34.808475494">
<ele>809.765625</ele>
<time>2013-11-22T14:36:34Z</time>
<speed>1.680000</speed>
<extensions>
<speed>1.7</speed>
<temp>0.00</temp>
<bpm>0</bpm>
<rpm>0.00</rpm>
</extensions>
</trkpt>
<trkpt lat="30.611156464" lon="34.808460236">
<ele>810.859375</ele>
<time>2013-11-22T14:36:39Z</time>
<speed>1.770000</speed>
<extensions>
<speed>1.8</speed>
<temp>0.00</temp>
<bpm>0</bpm>
<rpm>0.00</rpm>
</extensions>
</trkpt>
<trkpt lat="30.611061096" lon="34.808433533">
<ele>812.343750</ele>
<time>2013-11-22T14:36:44Z</time>
<speed>1.910000</speed>
<extensions>
<speed>1.9</speed>
<temp>0.00</temp>
<bpm>0</bpm>
<rpm>0.00</rpm>
</extensions>
</trkpt>
<trkpt lat="30.610988617" lon="34.808414459">
<ele>813.062500</ele>
<time>2013-11-22T14:36:49Z</time>
<speed>1.800000</speed>
<extensions>
<speed>1.8</speed>
<temp>0.00</temp>
<bpm>0</bpm>
<rpm>0.00</rpm>
</extensions>
</trkpt>
<trkpt lat="30.610897064" lon="34.808391571">
<ele>814.421875</ele>
<time>2013-11-22T14:36:54Z</time>
<speed>2.040000</speed>
<extensions>
<speed>2.0</speed>
<temp>0.00</temp>
<bpm>0</bpm>
<rpm>0.00</rpm>
</extensions>
</trkpt>
<trkpt lat="30.610811234" lon="34.808361053">
<ele>816.796875</ele>
<time>2013-11-22T14:36:59Z</time>
<speed>1.870000</speed>
<extensions>
<speed>1.9</speed>
<temp>0.00</temp>
<bpm>0</bpm>
<rpm>0.00</rpm>
</extensions>
</trkpt>
<trkpt lat="30.610757828" lon="34.808345795">
<ele>818.281250</ele>
<time>2013-11-22T14:37:04Z</time>
<speed>1.070000</speed>
<extensions>
<speed>1.1</speed>
<temp>0.00</temp>
<bpm>0</bpm>
<rpm>0.00</rpm>
</extensions>
</trkpt>
<trkpt lat="30.610692978" lon="34.808330536">
<ele>820.187500</ele>
<time>2013-11-22T14:37:09Z</time>
<speed>1.780000</speed>
<extensions>
<speed>1.8</speed>
<temp>0.00</temp>
<bpm>0</bpm>
<rpm>0.00</rpm>
</extensions>
</trkpt>
<trkpt lat="30.610635757" lon="34.808319092">
<ele>821.031250</ele>
<time>2013-11-22T14:37:14Z</time>
<speed>1.030000</speed>
<extensions>
<speed>1.0</speed>
<temp>0.00</temp>
<bpm>0</bpm>
<rpm>0.00</rpm>
</extensions>
</trkpt>
<trkpt lat="30.610555649" lon="34.808300018">
<ele>822.921875</ele>
<time>2013-11-22T14:37:19Z</time>
<speed>1.660000</speed>
<extensions>
<speed>1.7</speed>
<temp>0.00</temp>
<bpm>0</bpm>
<rpm>0.00</rpm>
</extensions>
</trkpt>
<trkpt lat="30.610483170" lon="34.808280945">
<ele>823.500000</ele>
<time>2013-11-22T14:37:24Z</time>
<speed>1.580000</speed>
<extensions>
<speed>1.6</speed>
<temp>0.00</temp>
<bpm>0</bpm>
<rpm>0.00</rpm>
</extensions>
</trkpt>
<trkpt lat="30.610418320" lon="34.808258057">
<ele>823.296875</ele>
<time>2013-11-22T14:37:29Z</time>
<speed>1.650000</speed>
<extensions>
<speed>1.7</speed>
<temp>0.00</temp>
<bpm>0</bpm>
<rpm>0.00</rpm>
</extensions>
</trkpt>
<trkpt lat="30.610330582" lon="34.808235168">
<ele>825.140625</ele>
<time>2013-11-22T14:37:34Z</time>
<speed>1.860000</speed>
<extensions>
<speed>1.9</speed>
<temp>0.00</temp>
<bpm>0</bpm>
<rpm>0.00</rpm>
</extensions>
</trkpt>
<trkpt lat="30.610248566" lon="34.808208466">
<ele>826.046875</ele>
<time>2013-11-22T14:37:39Z</time>
<speed>1.820000</speed>
<extensions>
<speed>1.8</speed>
<temp>0.00</temp>
<bpm>0</bpm>
<rpm>0.00</rpm>
</extensions>
</trkpt>
<trkpt lat="30.610151291" lon="34.808185577">
<ele>828.390625</ele>
<time>2013-11-22T14:37:44Z</time>
<speed>1.710000</speed>
<extensions>
<speed>1.7</speed>
<temp>0.00</temp>
<bpm>0</bpm>
<rpm>0.00</rpm>
</extensions>
</trkpt>
<trkpt lat="30.610071182" lon="34.808151245">
<ele>828.687500</ele>
<time>2013-11-22T14:37:49Z</time>
<speed>1.730000</speed>
<extensions>
<speed>1.7</speed>
<temp>0.00</temp>
<bpm>0</bpm>
<rpm>0.00</rpm>
</extensions>
</trkpt>
<trkpt lat="30.609970093" lon="34.808105469">
<ele>829.515625</ele>
<time>2013-11-22T14:37:54Z</time>
<speed>1.800000</speed>
<extensions>
<speed>1.8</speed>
<temp>0.00</temp>
<bpm>0</bpm>
<rpm>0.00</rpm>
</extensions>
</trkpt>
<trkpt lat="30.609907150" lon="34.808032990">
<ele>829.203125</ele>
<time>2013-11-22T14:37:59Z</time>
<speed>1.850000</speed>
<extensions>
<speed>1.8</speed>
<temp>0.00</temp>
<bpm>0</bpm>
<rpm>0.00</rpm>
</extensions>
</trkpt>
<trkpt lat="30.609834671" lon="34.807945251">
<ele>829.000000</ele>
<time>2013-11-22T14:38:04Z</time>
<speed>2.040000</speed>
<extensions>
<speed>2.0</speed>
<temp>0.00</temp>
<bpm>0</bpm>
<rpm>0.00</rpm>
</extensions>
</trkpt>
<trkpt lat="30.609769821" lon="34.807857513">
<ele>829.781250</ele>
<time>2013-11-22T14:38:09Z</time>
<speed>1.960000</speed>
<extensions>
<speed>2.0</speed>
<temp>0.00</temp>
<bpm>0</bpm>
<rpm>0.00</rpm>
</extensions>
</trkpt>
<trkpt lat="30.609716415" lon="34.807758331">
<ele>831.484375</ele>
<time>2013-11-22T14:38:14Z</time>
<speed>2.010000</speed>
<extensions>
<speed>2.0</speed>
<temp>0.00</temp>
<bpm>0</bpm>
<rpm>0.00</rpm>
</extensions>
</trkpt>
<trkpt lat="30.609674454" lon="34.807647705">
<ele>833.375000</ele>
<time>2013-11-22T14:38:19Z</time>
<speed>1.990000</speed>
<extensions>
<speed>2.0</speed>
<temp>0.00</temp>
<bpm>0</bpm>
<rpm>0.00</rpm>
</extensions>
</trkpt>
<trkpt lat="30.609636307" lon="34.807548523">
<ele>835.531250</ele>
<time>2013-11-22T14:38:24Z</time>
<speed>1.530000</speed>
<extensions>
<speed>1.5</speed>
<temp>0.00</temp>
<bpm>0</bpm>
<rpm>0.00</rpm>
</extensions>
</trkpt>
<trkpt lat="30.609636307" lon="34.807464600">
<ele>837.765625</ele>
<time>2013-11-22T14:38:29Z</time>
<speed>1.520000</speed>
<extensions>
<speed>1.5</speed>
<temp>0.00</temp>
<bpm>0</bpm>
<rpm>0.00</rpm>
</extensions>
</trkpt>
<trkpt lat="30.609617233" lon="34.807395935">
<ele>839.765625</ele>
<time>2013-11-22T14:38:34Z</time>
<speed>1.420000</speed>
<extensions>
<speed>1.4</speed>
<temp>0.00</temp>
<bpm>0</bpm>
<rpm>0.00</rpm>
</extensions>
</trkpt>
<trkpt lat="30.609643936" lon="34.807262421">
<ele>840.718750</ele>
<time>2013-11-22T14:38:39Z</time>
<speed>2.140000</speed>
<extensions>
<speed>2.1</speed>
<temp>0.00</temp>
<bpm>0</bpm>
<rpm>0.00</rpm>
</extensions>
</trkpt>
<trkpt lat="30.609685898" lon="34.807094574">
<ele>841.937500</ele>
<time>2013-11-22T14:38:44Z</time>
<speed>1.660000</speed>
<extensions>
<speed>1.7</speed>
<temp>0.00</temp>
<bpm>0</bpm>
<rpm>0.00</rpm>
</extensions>
</trkpt>
<trkpt lat="30.609735489" lon="34.806987762">
<ele>843.515625</ele>
<time>2013-11-22T14:38:49Z</time>
<speed>2.150000</speed>
<extensions>
<speed>2.1</speed>
<temp>0.00</temp>
<bpm>0</bpm>
<rpm>0.00</rpm>
</extensions>
</trkpt>
<trkpt lat="30.609828949" lon="34.806838989">
<ele>844.265625</ele>
<time>2013-11-22T14:38:54Z</time>
<speed>3.450000</speed>
<extensions>
<speed>3.5</speed>
<temp>0.00</temp>
<bpm>0</bpm>
<rpm>0.00</rpm>
</extensions>
</trkpt>
<trkpt lat="30.609893799" lon="34.806751251">
<ele>843.171875</ele>
<time>2013-11-22T14:38:59Z</time>
<speed>1.400000</speed>
<extensions>
<speed>1.4</speed>
<temp>0.00</temp>
<bpm>0</bpm>
<rpm>0.00</rpm>
</extensions>
</trkpt>
<trkpt lat="30.609924316" lon="34.806697845">
<ele>842.765625</ele>
<time>2013-11-22T14:39:04Z</time>
<speed>1.610000</speed>
<extensions>
<speed>1.6</speed>
<temp>0.00</temp>
<bpm>0</bpm>
<rpm>0.00</rpm>
</extensions>
</trkpt>
<trkpt lat="30.609989166" lon="34.806587219">
<ele>842.687500</ele>
<time>2013-11-22T14:39:09Z</time>
<speed>2.840000</speed>
<extensions>
<speed>2.8</speed>
<temp>0.00</temp>
<bpm>0</bpm>
<rpm>0.00</rpm>
</extensions>
</trkpt>
<trkpt lat="30.610055923" lon="34.806457520">
<ele>842.640625</ele>
<time>2013-11-22T14:39:14Z</time>
<speed>2.970000</speed>
<extensions>
<speed>3.0</speed>
<temp>0.00</temp>
<bpm>0</bpm>
<rpm>0.00</rpm>
</extensions>
</trkpt>
<trkpt lat="30.610134125" lon="34.806343079">
<ele>842.781250</ele>
<time>2013-11-22T14:39:19Z</time>
<speed>2.170000</speed>
<extensions>
<speed>2.2</speed>
<temp>0.00</temp>
<bpm>0</bpm>
<rpm>0.00</rpm>
</extensions>
</trkpt>
<trkpt lat="30.610195160" lon="34.806240082">
<ele>843.812500</ele>
<time>2013-11-22T14:39:24Z</time>
<speed>2.580000</speed>
<extensions>
<speed>2.6</speed>
<temp>0.00</temp>
<bpm>0</bpm>
<rpm>0.00</rpm>
</extensions>
</trkpt>
<trkpt lat="30.610288620" lon="34.806118011">
<ele>845.078125</ele>
<time>2013-11-22T14:39:29Z</time>
<speed>3.250000</speed>
<extensions>
<speed>3.2</speed>
<temp>0.00</temp>
<bpm>0</bpm>
<rpm>0.00</rpm>
</extensions>
</trkpt>
<trkpt lat="30.610410690" lon="34.806007385">
<ele>845.125000</ele>
<time>2013-11-22T14:39:34Z</time>
<speed>3.000000</speed>
<extensions>
<speed>3.0</speed>
<temp>0.00</temp>
<bpm>0</bpm>
<rpm>0.00</rpm>
</extensions>
</trkpt>
<trkpt lat="30.610488892" lon="34.805919647">
<ele>843.093750</ele>
<time>2013-11-22T14:39:39Z</time>
<speed>1.750000</speed>
<extensions>
<speed>1.8</speed>
<temp>0.00</temp>
<bpm>0</bpm>
<rpm>0.00</rpm>
</extensions>
</trkpt>
<trkpt lat="30.610490799" lon="34.805904388">
<ele>839.843750</ele>
<time>2013-11-22T14:39:44Z</time>
<speed>0.030000</speed>
<extensions>
<speed>0.0</speed>
<temp>0.00</temp>
<bpm>0</bpm>
<rpm>0.00</rpm>
</extensions>
</trkpt>
<trkpt lat="30.610490799" lon="34.805904388">
<ele>839.656250</ele>
<time>2013-11-22T14:39:49Z</time>
<speed>0.010000</speed>
<extensions>
<speed>0.0</speed>
<temp>0.00</temp>
<bpm>0</bpm>
<rpm>0.00</rpm>
</extensions>
</trkpt>
<trkpt lat="30.610490799" lon="34.805904388">
<ele>839.640625</ele>
<time>2013-11-22T14:39:54Z</time>
<speed>0.010000</speed>
<extensions>
<speed>0.0</speed>
<temp>0.00</temp>
<bpm>0</bpm>
<rpm>0.00</rpm>
</extensions>
</trkpt>
<trkpt lat="30.610500336" lon="34.805892944">
<ele>839.984375</ele>
<time>2013-11-22T14:39:59Z</time>
<speed>0.900000</speed>
<extensions>
<speed>0.9</speed>
<temp>0.00</temp>
<bpm>0</bpm>
<rpm>0.00</rpm>
</extensions>
</trkpt>
<trkpt lat="30.610540390" lon="34.805835724">
<ele>841.078125</ele>
<time>2013-11-22T14:40:04Z</time>
<speed>2.300000</speed>
<extensions>
<speed>2.3</speed>
<temp>0.00</temp>
<bpm>0</bpm>
<rpm>0.00</rpm>
</extensions>
</trkpt>
<trkpt lat="30.610589981" lon="34.805740356">
<ele>840.078125</ele>
<time>2013-11-22T14:40:09Z</time>
<speed>1.980000</speed>
<extensions>
<speed>2.0</speed>
<temp>0.00</temp>
<bpm>0</bpm>
<rpm>0.00</rpm>
</extensions>
</trkpt>
<trkpt lat="30.610666275" lon="34.805648804">
<ele>841.031250</ele>
<time>2013-11-22T14:40:14Z</time>
<speed>3.060000</speed>
<extensions>
<speed>3.1</speed>
<temp>0.00</temp>
<bpm>0</bpm>
<rpm>0.00</rpm>
</extensions>
</trkpt>
<trkpt lat="30.610742569" lon="34.805534363">
<ele>841.953125</ele>
<time>2013-11-22T14:40:19Z</time>
<speed>2.350000</speed>
<extensions>
<speed>2.4</speed>
<temp>0.00</temp>
<bpm>0</bpm>
<rpm>0.00</rpm>
</extensions>
</trkpt>
<trkpt lat="30.610805511" lon="34.805461884">
<ele>842.500000</ele>
<time>2013-11-22T14:40:24Z</time>
<speed>1.580000</speed>
<extensions>
<speed>1.6</speed>
<temp>0.00</temp>
<bpm>0</bpm>
<rpm>0.00</rpm>
</extensions>
</trkpt>
<trkpt lat="30.610843658" lon="34.805408478">
<ele>841.812500</ele>
<time>2013-11-22T14:40:29Z</time>
<speed>1.990000</speed>
<extensions>
<speed>2.0</speed>
<temp>0.00</temp>
<bpm>0</bpm>
<rpm>0.00</rpm>
</extensions>
</trkpt>
<trkpt lat="30.610870361" lon="34.805305481">
<ele>841.500000</ele>
<time>2013-11-22T14:40:34Z</time>
<speed>2.480000</speed>
<extensions>
<speed>2.5</speed>
<temp>0.00</temp>
<bpm>0</bpm>
<rpm>0.00</rpm>
</extensions>
</trkpt>
<trkpt lat="30.610862732" lon="34.805179596">
<ele>840.750000</ele>
<time>2013-11-22T14:40:39Z</time>
<speed>2.740000</speed>
<extensions>
<speed>2.7</speed>
<temp>0.00</temp>
<bpm>0</bpm>
<rpm>0.00</rpm>
</extensions>
</trkpt>
<trkpt lat="30.610855103" lon="34.805053711">
<ele>840.015625</ele>
<time>2013-11-22T14:40:44Z</time>
<speed>2.720000</speed>
<extensions>
<speed>2.7</speed>
<temp>0.00</temp>
<bpm>0</bpm>
<rpm>0.00</rpm>
</extensions>
</trkpt>
<trkpt lat="30.610877991" lon="34.804950714">
<ele>839.375000</ele>
<time>2013-11-22T14:40:49Z</time>
<speed>2.240000</speed>
<extensions>
<speed>2.2</speed>
<temp>0.00</temp>
<bpm>0</bpm>
<rpm>0.00</rpm>
</extensions>
</trkpt>
<trkpt lat="30.610893250" lon="34.804855347">
<ele>840.234375</ele>
<time>2013-11-22T14:40:54Z</time>
<speed>2.130000</speed>
<extensions>
<speed>2.1</speed>
<temp>0.00</temp>
<bpm>0</bpm>
<rpm>0.00</rpm>
</extensions>
</trkpt>
<trkpt lat="30.610847473" lon="34.804748535">
<ele>841.859375</ele>
<time>2013-11-22T14:40:59Z</time>
<speed>2.240000</speed>
<extensions>
<speed>2.2</speed>
<temp>0.00</temp>
<bpm>0</bpm>
<rpm>0.00</rpm>
</extensions>
</trkpt>
<trkpt lat="30.610807419" lon="34.804843903">
<ele>843.359375</ele>
<time>2013-11-22T14:41:04Z</time>
<speed>2.920000</speed>
<extensions>
<speed>2.9</speed>
<temp>0.00</temp>
<bpm>0</bpm>
<rpm>0.00</rpm>
</extensions>
</trkpt>
<trkpt lat="30.610860825" lon="34.804904938">
<ele>843.750000</ele>
<time>2013-11-22T14:41:09Z</time>
<speed>0.710000</speed>
<extensions>
<speed>0.7</speed>
<temp>0.00</temp>
<bpm>0</bpm>
<rpm>0.00</rpm>
</extensions>
</trkpt>
<trkpt lat="30.610816956" lon="34.804920197">
<ele>844.125000</ele>
<time>2013-11-22T14:41:14Z</time>
<speed>3.160000</speed>
<extensions>
<speed>3.2</speed>
<temp>0.00</temp>
<bpm>0</bpm>
<rpm>0.00</rpm>
</extensions>
</trkpt>
<trkpt lat="30.610647202" lon="34.804950714">
<ele>844.812500</ele>
<time>2013-11-22T14:41:19Z</time>
<speed>4.250000</speed>
<extensions>
<speed>4.3</speed>
<temp>0.00</temp>
<bpm>0</bpm>
<rpm>0.00</rpm>
</extensions>
</trkpt>
<trkpt lat="30.610494614" lon="34.805103302">
<ele>843.296875</ele>
<time>2013-11-22T14:41:24Z</time>
<speed>4.640000</speed>
<extensions>
<speed>4.6</speed>
<temp>0.00</temp>
<bpm>0</bpm>
<rpm>0.00</rpm>
</extensions>
</trkpt>
<trkpt lat="30.610330582" lon="34.805259705">
<ele>842.703125</ele>
<time>2013-11-22T14:41:29Z</time>
<speed>4.380000</speed>
<extensions>
<speed>4.4</speed>
<temp>0.00</temp>
<bpm>0</bpm>
<rpm>0.00</rpm>
</extensions>
</trkpt>
<trkpt lat="30.610197067" lon="34.805374146">
<ele>842.843750</ele>
<time>2013-11-22T14:41:34Z</time>
<speed>2.960000</speed>
<extensions>
<speed>3.0</speed>
<temp>0.00</temp>
<bpm>0</bpm>
<rpm>0.00</rpm>
</extensions>
</trkpt>
<trkpt lat="30.610099792" lon="34.805454254">
<ele>842.140625</ele>
<time>2013-11-22T14:41:39Z</time>
<speed>2.530000</speed>
<extensions>
<speed>2.5</speed>
<temp>0.00</temp>
<bpm>0</bpm>
<rpm>0.00</rpm>
</extensions>
</trkpt>
<trkpt lat="30.610017776" lon="34.805522919">
<ele>842.828125</ele>
<time>2013-11-22T14:41:44Z</time>
<speed>2.170000</speed>
<extensions>
<speed>2.2</speed>
<temp>0.00</temp>
<bpm>0</bpm>
<rpm>0.00</rpm>
</extensions>
</trkpt>
<trkpt lat="30.609930038" lon="34.805580139">
<ele>843.984375</ele>
<time>2013-11-22T14:41:49Z</time>
<speed>2.010000</speed>
<extensions>
<speed>2.0</speed>
<temp>0.00</temp>
<bpm>0</bpm>
<rpm>0.00</rpm>
</extensions>
</trkpt>
<trkpt lat="30.609861374" lon="34.805641174">
<ele>844.906250</ele>
<time>2013-11-22T14:41:54Z</time>
<speed>1.810000</speed>
<extensions>
<speed>1.8</speed>
<temp>0.00</temp>
<bpm>0</bpm>
<rpm>0.00</rpm>
</extensions>
</trkpt>
<trkpt lat="30.609781265" lon="34.805694580">
<ele>845.984375</ele>
<time>2013-11-22T14:41:59Z</time>
<speed>1.890000</speed>
<extensions>
<speed>1.9</speed>
<temp>0.00</temp>
<bpm>0</bpm>
<rpm>0.00</rpm>
</extensions>
</trkpt>
<trkpt lat="30.609703064" lon="34.805747986">
<ele>847.375000</ele>
<time>2013-11-22T14:42:04Z</time>
<speed>1.950000</speed>
<extensions>
<speed>1.9</speed>
<temp>0.00</temp>
<bpm>0</bpm>
<rpm>0.00</rpm>
</extensions>
</trkpt>
<trkpt lat="30.609634399" lon="34.805801392">
<ele>848.578125</ele>
<time>2013-11-22T14:42:09Z</time>
<speed>2.020000</speed>
<extensions>
<speed>2.0</speed>
<temp>0.00</temp>
<bpm>0</bpm>
<rpm>0.00</rpm>
</extensions>
</trkpt>
<trkpt lat="30.609550476" lon="34.805858612">
<ele>850.156250</ele>
<time>2013-11-22T14:42:14Z</time>
<speed>2.410000</speed>
<extensions>
<speed>2.4</speed>
<temp>0.00</temp>
<bpm>0</bpm>
<rpm>0.00</rpm>
</extensions>
</trkpt>
<trkpt lat="30.609485626" lon="34.805915833">
<ele>850.750000</ele>
<time>2013-11-22T14:42:19Z</time>
<speed>1.590000</speed>
<extensions>
<speed>1.6</speed>
<temp>0.00</temp>
<bpm>0</bpm>
<rpm>0.00</rpm>
</extensions>
</trkpt>
<trkpt lat="30.609415054" lon="34.805976868">
<ele>852.406250</ele>
<time>2013-11-22T14:42:24Z</time>
<speed>1.930000</speed>
<extensions>
<speed>1.9</speed>
<temp>0.00</temp>
<bpm>0</bpm>
<rpm>0.00</rpm>
</extensions>
</trkpt>
<trkpt lat="30.609346390" lon="34.806026459">
<ele>852.750000</ele>
<time>2013-11-22T14:42:29Z</time>
<speed>0.660000</speed>
<extensions>
<speed>0.7</speed>
<temp>0.00</temp>
<bpm>0</bpm>
<rpm>0.00</rpm>
</extensions>
</trkpt>
<trkpt lat="30.609262466" lon="34.806018829">
<ele>852.687500</ele>
<time>2013-11-22T14:42:34Z</time>
<speed>3.140000</speed>
<extensions>
<speed>3.1</speed>
<temp>0.00</temp>
<bpm>0</bpm>
<rpm>0.00</rpm>
</extensions>
</trkpt>
<trkpt lat="30.609155655" lon="34.805953979">
<ele>853.046875</ele>
<time>2013-11-22T14:42:39Z</time>
<speed>2.890000</speed>
<extensions>
<speed>2.9</speed>
<temp>0.00</temp>
<bpm>0</bpm>
<rpm>0.00</rpm>
</extensions>
</trkpt>
<trkpt lat="30.609024048" lon="34.805877686">
<ele>852.953125</ele>
<time>2013-11-22T14:42:44Z</time>
<speed>2.690000</speed>
<extensions>
<speed>2.7</speed>
<temp>0.00</temp>
<bpm>0</bpm>
<rpm>0.00</rpm>
</extensions>
</trkpt>
<trkpt lat="30.608911514" lon="34.805801392">
<ele>853.156250</ele>
<time>2013-11-22T14:42:49Z</time>
<speed>3.950000</speed>
<extensions>
<speed>4.0</speed>
<temp>0.00</temp>
<bpm>0</bpm>
<rpm>0.00</rpm>
</extensions>
</trkpt>
<trkpt lat="30.608778000" lon="34.805744171">
<ele>853.078125</ele>
<time>2013-11-22T14:42:54Z</time>
<speed>2.340000</speed>
<extensions>
<speed>2.3</speed>
<temp>0.00</temp>
<bpm>0</bpm>
<rpm>0.00</rpm>
</extensions>
</trkpt>
<trkpt lat="30.608682632" lon="34.805770874">
<ele>851.906250</ele>
<time>2013-11-22T14:42:59Z</time>
<speed>1.990000</speed>
<extensions>
<speed>2.0</speed>
<temp>0.00</temp>
<bpm>0</bpm>
<rpm>0.00</rpm>
</extensions>
</trkpt>
<trkpt lat="30.608625412" lon="34.805801392">
<ele>852.875000</ele>
<time>2013-11-22T14:43:04Z</time>
<speed>1.500000</speed>
<extensions>
<speed>1.5</speed>
<temp>0.00</temp>
<bpm>0</bpm>
<rpm>0.00</rpm>
</extensions>
</trkpt>
<trkpt lat="30.608547211" lon="34.805839539">
<ele>853.875000</ele>
<time>2013-11-22T14:43:09Z</time>
<speed>1.950000</speed>
<extensions>
<speed>1.9</speed>
<temp>0.00</temp>
<bpm>0</bpm>
<rpm>0.00</rpm>
</extensions>
</trkpt>
<trkpt lat="30.608472824" lon="34.805866241">
<ele>854.046875</ele>
<time>2013-11-22T14:43:14Z</time>
<speed>1.120000</speed>
<extensions>
<speed>1.1</speed>
<temp>0.00</temp>
<bpm>0</bpm>
<rpm>0.00</rpm>
</extensions>
</trkpt>
<trkpt lat="30.608411789" lon="34.805881500">
<ele>854.796875</ele>
<time>2013-11-22T14:43:19Z</time>
<speed>1.720000</speed>
<extensions>
<speed>1.7</speed>
<temp>0.00</temp>
<bpm>0</bpm>
<rpm>0.00</rpm>
</extensions>
</trkpt>
<trkpt lat="30.608348846" lon="34.805858612">
<ele>855.671875</ele>
<time>2013-11-22T14:43:24Z</time>
<speed>1.090000</speed>
<extensions>
<speed>1.1</speed>
<temp>0.00</temp>
<bpm>0</bpm>
<rpm>0.00</rpm>
</extensions>
</trkpt>
<trkpt lat="30.608308792" lon="34.805900574">
<ele>854.906250</ele>
<time>2013-11-22T14:43:29Z</time>
<speed>1.120000</speed>
<extensions>
<speed>1.1</speed>
<temp>0.00</temp>
<bpm>0</bpm>
<rpm>0.00</rpm>
</extensions>
</trkpt>
<trkpt lat="30.608308792" lon="34.805946350">
<ele>854.328125</ele>
<time>2013-11-22T14:43:34Z</time>
<speed>0.780000</speed>
<extensions>
<speed>0.8</speed>
<temp>0.00</temp>
<bpm>0</bpm>
<rpm>0.00</rpm>
</extensions>
</trkpt>
<trkpt lat="30.608316422" lon="34.805965424">
<ele>854.328125</ele>
<time>2013-11-22T14:43:39Z</time>
<speed>0.150000</speed>
<extensions>
<speed>0.2</speed>
<temp>0.00</temp>
<bpm>0</bpm>
<rpm>0.00</rpm>
</extensions>
</trkpt>
<trkpt lat="30.608316422" lon="34.805976868">
<ele>854.328125</ele>
<time>2013-11-22T14:43:44Z</time>
<speed>0.330000</speed>
<extensions>
<speed>0.3</speed>
<temp>0.00</temp>
<bpm>0</bpm>
<rpm>0.00</rpm>
</extensions>
</trkpt>
<trkpt lat="30.608322144" lon="34.805992126">
<ele>854.406250</ele>
<time>2013-11-22T14:43:49Z</time>
<speed>0.690000</speed>
<extensions>
<speed>0.7</speed>
<temp>0.00</temp>
<bpm>0</bpm>
<rpm>0.00</rpm>
</extensions>
</trkpt>
<trkpt lat="30.608381271" lon="34.805988312">
<ele>854.046875</ele>
<time>2013-11-22T14:43:54Z</time>
<speed>1.470000</speed>
<extensions>
<speed>1.5</speed>
<temp>0.00</temp>
<bpm>0</bpm>
<rpm>0.00</rpm>
</extensions>
</trkpt>
<trkpt lat="30.608446121" lon="34.806034088">
<ele>854.953125</ele>
<time>2013-11-22T14:43:59Z</time>
<speed>1.810000</speed>
<extensions>
<speed>1.8</speed>
<temp>0.00</temp>
<bpm>0</bpm>
<rpm>0.00</rpm>
</extensions>
</trkpt>
<trkpt lat="30.608440399" lon="34.806125641">
<ele>855.703125</ele>
<time>2013-11-22T14:44:04Z</time>
<speed>1.920000</speed>
<extensions>
<speed>1.9</speed>
<temp>0.00</temp>
<bpm>0</bpm>
<rpm>0.00</rpm>
</extensions>
</trkpt>
<trkpt lat="30.608392715" lon="34.806205750">
<ele>855.890625</ele>
<time>2013-11-22T14:44:09Z</time>
<speed>1.100000</speed>
<extensions>
<speed>1.1</speed>
<temp>0.00</temp>
<bpm>0</bpm>
<rpm>0.00</rpm>
</extensions>
</trkpt>
<trkpt lat="30.608392715" lon="34.806236267">
<ele>855.359375</ele>
<time>2013-11-22T14:44:14Z</time>
<speed>0.720000</speed>
<extensions>
<speed>0.7</speed>
<temp>0.00</temp>
<bpm>0</bpm>
<rpm>0.00</rpm>
</extensions>
</trkpt>
<trkpt lat="30.608404160" lon="34.806251526">
<ele>855.968750</ele>
<time>2013-11-22T14:44:19Z</time>
<speed>0.800000</speed>
<extensions>
<speed>0.8</speed>
<temp>0.00</temp>
<bpm>0</bpm>
<rpm>0.00</rpm>
</extensions>
</trkpt>
<trkpt lat="30.608444214" lon="34.806266785">
<ele>857.171875</ele>
<time>2013-11-22T14:44:24Z</time>
<speed>1.630000</speed>
<extensions>
<speed>1.6</speed>
<temp>0.00</temp>
<bpm>0</bpm>
<rpm>0.00</rpm>
</extensions>
</trkpt>
<trkpt lat="30.608486176" lon="34.806339264">
<ele>857.718750</ele>
<time>2013-11-22T14:44:29Z</time>
<speed>1.230000</speed>
<extensions>
<speed>1.2</speed>
<temp>0.00</temp>
<bpm>0</bpm>
<rpm>0.00</rpm>
</extensions>
</trkpt>
<trkpt lat="30.608446121" lon="34.806388855">
<ele>858.031250</ele>
<time>2013-11-22T14:44:34Z</time>
<speed>1.960000</speed>
<extensions>
<speed>2.0</speed>
<temp>0.00</temp>
<bpm>0</bpm>
<rpm>0.00</rpm>
</extensions>
</trkpt>
<trkpt lat="30.608402252" lon="34.806465149">
<ele>859.062500</ele>
<time>2013-11-22T14:44:39Z</time>
<speed>1.110000</speed>
<extensions>
<speed>1.1</speed>
<temp>0.00</temp>
<bpm>0</bpm>
<rpm>0.00</rpm>
</extensions>
</trkpt>
<trkpt lat="30.608364105" lon="34.806480408">
<ele>859.125000</ele>
<time>2013-11-22T14:44:44Z</time>
<speed>1.240000</speed>
<extensions>
<speed>1.2</speed>
<temp>0.00</temp>
<bpm>0</bpm>
<rpm>0.00</rpm>
</extensions>
</trkpt>
<trkpt lat="30.608360291" lon="34.806446075">
<ele>858.734375</ele>
<time>2013-11-22T14:44:49Z</time>
<speed>0.260000</speed>
<extensions>
<speed>0.3</speed>
<temp>0.00</temp>
<bpm>0</bpm>
<rpm>0.00</rpm>
</extensions>
</trkpt>
<trkpt lat="30.608354568" lon="34.806438446">
<ele>858.484375</ele>
<time>2013-11-22T14:44:54Z</time>
<speed>0.690000</speed>
<extensions>
<speed>0.7</speed>
<temp>0.00</temp>
<bpm>0</bpm>
<rpm>0.00</rpm>
</extensions>
</trkpt>
<trkpt lat="30.608276367" lon="34.806373596">
<ele>857.203125</ele>
<time>2013-11-22T14:44:59Z</time>
<speed>3.300000</speed>
<extensions>
<speed>3.3</speed>
<temp>0.00</temp>
<bpm>0</bpm>
<rpm>0.00</rpm>
</extensions>
</trkpt>
<trkpt lat="30.608150482" lon="34.806301117">
<ele>857.781250</ele>
<time>2013-11-22T14:45:04Z</time>
<speed>2.880000</speed>
<extensions>
<speed>2.9</speed>
<temp>0.00</temp>
<bpm>0</bpm>
<rpm>0.00</rpm>
</extensions>
</trkpt>
<trkpt lat="30.608100891" lon="34.806285858">
<ele>857.578125</ele>
<time>2013-11-22T14:45:09Z</time>
<speed>0.050000</speed>
<extensions>
<speed>0.1</speed>
<temp>0.00</temp>
<bpm>0</bpm>
<rpm>0.00</rpm>
</extensions>
</trkpt>
<trkpt lat="30.608100891" lon="34.806285858">
<ele>857.062500</ele>
<time>2013-11-22T14:45:14Z</time>
<speed>0.020000</speed>
<extensions>
<speed>0.0</speed>
<temp>0.00</temp>
<bpm>0</bpm>
<rpm>0.00</rpm>
</extensions>
</trkpt>
<trkpt lat="30.608098984" lon="34.806285858">
<ele>857.015625</ele>
<time>2013-11-22T14:45:19Z</time>
<speed>0.050000</speed>
<extensions>
<speed>0.1</speed>
<temp>0.00</temp>
<bpm>0</bpm>
<rpm>0.00</rpm>
</extensions>
</trkpt>
<trkpt lat="30.608097076" lon="34.806285858">
<ele>856.968750</ele>
<time>2013-11-22T14:45:24Z</time>
<speed>1.350000</speed>
<extensions>
<speed>1.4</speed>
<temp>0.00</temp>
<bpm>0</bpm>
<rpm>0.00</rpm>
</extensions>
</trkpt>
<trkpt lat="30.608041763" lon="34.806282043">
<ele>857.859375</ele>
<time>2013-11-22T14:45:29Z</time>
<speed>0.980000</speed>
<extensions>
<speed>1.0</speed>
<temp>0.00</temp>
<bpm>0</bpm>
<rpm>0.00</rpm>
</extensions>
</trkpt>
<trkpt lat="30.608009338" lon="34.806297302">
<ele>857.953125</ele>
<time>2013-11-22T14:45:34Z</time>
<speed>0.960000</speed>
<extensions>
<speed>1.0</speed>
<temp>0.00</temp>
<bpm>0</bpm>
<rpm>0.00</rpm>
</extensions>
</trkpt>
<trkpt lat="30.607965469" lon="34.806324005">
<ele>858.125000</ele>
<time>2013-11-22T14:45:39Z</time>
<speed>1.300000</speed>
<extensions>
<speed>1.3</speed>
<temp>0.00</temp>
<bpm>0</bpm>
<rpm>0.00</rpm>
</extensions>
</trkpt>
<trkpt lat="30.607919693" lon="34.806358337">
<ele>858.671875</ele>
<time>2013-11-22T14:45:44Z</time>
<speed>0.740000</speed>
<extensions>
<speed>0.7</speed>
<temp>0.00</temp>
<bpm>0</bpm>
<rpm>0.00</rpm>
</extensions>
</trkpt>
<trkpt lat="30.607912064" lon="34.806362152">
<ele>858.500000</ele>
<time>2013-11-22T14:45:49Z</time>
<speed>0.020000</speed>
<extensions>
<speed>0.0</speed>
<temp>0.00</temp>
<bpm>0</bpm>
<rpm>0.00</rpm>
</extensions>
</trkpt>
<trkpt lat="30.607912064" lon="34.806362152">
<ele>858.593750</ele>
<time>2013-11-22T14:45:54Z</time>
<speed>0.010000</speed>
<extensions>
<speed>0.0</speed>
<temp>0.00</temp>
<bpm>0</bpm>
<rpm>0.00</rpm>
</extensions>
</trkpt>
<trkpt lat="30.607912064" lon="34.806362152">
<ele>858.625000</ele>
<time>2013-11-22T14:45:59Z</time>
<speed>0.010000</speed>
<extensions>
<speed>0.0</speed>
<temp>0.00</temp>
<bpm>0</bpm>
<rpm>0.00</rpm>
</extensions>
</trkpt>
<trkpt lat="30.607912064" lon="34.806362152">
<ele>858.640625</ele>
<time>2013-11-22T14:46:04Z</time>
<extensions>
<speed>0.0</speed>
<temp>0.00</temp>
<bpm>0</bpm>
<rpm>0.00</rpm>
</extensions>
</trkpt>
<trkpt lat="30.607912064" lon="34.806362152">
<ele>858.625000</ele>
<time>2013-11-22T14:46:09Z</time>
<speed>0.010000</speed>
<extensions>
<speed>0.0</speed>
<temp>0.00</temp>
<bpm>0</bpm>
<rpm>0.00</rpm>
</extensions>
</trkpt>
<trkpt lat="30.607912064" lon="34.806362152">
<ele>858.625000</ele>
<time>2013-11-22T14:46:14Z</time>
<extensions>
<speed>0.0</speed>
<temp>0.00</temp>
<bpm>0</bpm>
<rpm>0.00</rpm>
</extensions>
</trkpt>
<trkpt lat="30.607912064" lon="34.806362152">
<ele>858.640625</ele>
<time>2013-11-22T14:46:19Z</time>
<extensions>
<speed>0.0</speed>
<temp>0.00</temp>
<bpm>0</bpm>
<rpm>0.00</rpm>
</extensions>
</trkpt>
<trkpt lat="30.607912064" lon="34.806362152">
<ele>858.640625</ele>
<time>2013-11-22T14:46:24Z</time>
<extensions>
<speed>0.0</speed>
<temp>0.00</temp>
<bpm>0</bpm>
<rpm>0.00</rpm>
</extensions>
</trkpt>
<trkpt lat="30.607912064" lon="34.806362152">
<ele>858.656250</ele>
<time>2013-11-22T14:46:29Z</time>
<speed>0.010000</speed>
<extensions>
<speed>0.0</speed>
<temp>0.00</temp>
<bpm>0</bpm>
<rpm>0.00</rpm>
</extensions>
</trkpt>
<trkpt lat="30.607912064" lon="34.806362152">
<ele>858.656250</ele>
<time>2013-11-22T14:46:34Z</time>
<extensions>
<speed>0.0</speed>
<temp>0.00</temp>
<bpm>0</bpm>
<rpm>0.00</rpm>
</extensions>
</trkpt>
<trkpt lat="30.607912064" lon="34.806362152">
<ele>858.656250</ele>
<time>2013-11-22T14:46:39Z</time>
<extensions>
<speed>0.0</speed>
<temp>0.00</temp>
<bpm>0</bpm>
<rpm>0.00</rpm>
</extensions>
</trkpt>
<trkpt lat="30.607912064" lon="34.806362152">
<ele>858.640625</ele>
<time>2013-11-22T14:46:44Z</time>
<extensions>
<speed>0.0</speed>
<temp>0.00</temp>
<bpm>0</bpm>
<rpm>0.00</rpm>
</extensions>
</trkpt>
<trkpt lat="30.607912064" lon="34.806362152">
<ele>858.640625</ele>
<time>2013-11-22T14:46:49Z</time>
<speed>0.020000</speed>
<extensions>
<speed>0.0</speed>
<temp>0.00</temp>
<bpm>0</bpm>
<rpm>0.00</rpm>
</extensions>
</trkpt>
<trkpt lat="30.607912064" lon="34.806362152">
<ele>858.625000</ele>
<time>2013-11-22T14:46:54Z</time>
<speed>0.010000</speed>
<extensions>
<speed>0.0</speed>
<temp>0.00</temp>
<bpm>0</bpm>
<rpm>0.00</rpm>
</extensions>
</trkpt>
<trkpt lat="30.607912064" lon="34.806362152">
<ele>858.625000</ele>
<time>2013-11-22T14:46:59Z</time>
<extensions>
<speed>0.0</speed>
<temp>0.00</temp>
<bpm>0</bpm>
<rpm>0.00</rpm>
</extensions>
</trkpt>
<trkpt lat="30.607912064" lon="34.806362152">
<ele>858.609375</ele>
<time>2013-11-22T14:47:04Z</time>
<extensions>
<speed>0.0</speed>
<temp>0.00</temp>
<bpm>0</bpm>
<rpm>0.00</rpm>
</extensions>
</trkpt>
<trkpt lat="30.607912064" lon="34.806362152">
<ele>858.609375</ele>
<time>2013-11-22T14:47:09Z</time>
<extensions>
<speed>0.0</speed>
<temp>0.00</temp>
<bpm>0</bpm>
<rpm>0.00</rpm>
</extensions>
</trkpt>
<trkpt lat="30.607912064" lon="34.806362152">
<ele>858.609375</ele>
<time>2013-11-22T14:47:14Z</time>
<extensions>
<speed>0.0</speed>
<temp>0.00</temp>
<bpm>0</bpm>
<rpm>0.00</rpm>
</extensions>
</trkpt>
<trkpt lat="30.607912064" lon="34.806362152">
<ele>858.593750</ele>
<time>2013-11-22T14:47:19Z</time>
<speed>0.010000</speed>
<extensions>
<speed>0.0</speed>
<temp>0.00</temp>
<bpm>0</bpm>
<rpm>0.00</rpm>
</extensions>
</trkpt>
<trkpt lat="30.607912064" lon="34.806362152">
<ele>858.593750</ele>
<time>2013-11-22T14:47:24Z</time>
<extensions>
<speed>0.0</speed>
<temp>0.00</temp>
<bpm>0</bpm>
<rpm>0.00</rpm>
</extensions>
</trkpt>
<trkpt lat="30.607912064" lon="34.806362152">
<ele>858.593750</ele>
<time>2013-11-22T14:47:29Z</time>
<speed>0.010000</speed>
<extensions>
<speed>0.0</speed>
<temp>0.00</temp>
<bpm>0</bpm>
<rpm>0.00</rpm>
</extensions>
</trkpt>
<trkpt lat="30.607912064" lon="34.806362152">
<ele>858.578125</ele>
<time>2013-11-22T14:47:34Z</time>
<extensions>
<speed>0.0</speed>
<temp>0.00</temp>
<bpm>0</bpm>
<rpm>0.00</rpm>
</extensions>
</trkpt>
<trkpt lat="30.607912064" lon="34.806358337">
<ele>858.578125</ele>
<time>2013-11-22T14:47:39Z</time>
<extensions>
<speed>0.0</speed>
<temp>0.00</temp>
<bpm>0</bpm>
<rpm>0.00</rpm>
</extensions>
</trkpt>
<trkpt lat="30.607912064" lon="34.806358337">
<ele>858.562500</ele>
<time>2013-11-22T14:47:44Z</time>
<extensions>
<speed>0.0</speed>
<temp>0.00</temp>
<bpm>0</bpm>
<rpm>0.00</rpm>
</extensions>
</trkpt>
<trkpt lat="30.607912064" lon="34.806358337">
<ele>858.562500</ele>
<time>2013-11-22T14:47:49Z</time>
<speed>0.010000</speed>
<extensions>
<speed>0.0</speed>
<temp>0.00</temp>
<bpm>0</bpm>
<rpm>0.00</rpm>
</extensions>
</trkpt>
<trkpt lat="30.607912064" lon="34.806358337">
<ele>858.546875</ele>
<time>2013-11-22T14:47:54Z</time>
<speed>0.010000</speed>
<extensions>
<speed>0.0</speed>
<temp>0.00</temp>
<bpm>0</bpm>
<rpm>0.00</rpm>
</extensions>
</trkpt>
<trkpt lat="30.607912064" lon="34.806358337">
<ele>858.531250</ele>
<time>2013-11-22T14:47:59Z</time>
<speed>0.010000</speed>
<extensions>
<speed>0.0</speed>
<temp>0.00</temp>
<bpm>0</bpm>
<rpm>0.00</rpm>
</extensions>
</trkpt>
<trkpt lat="30.607912064" lon="34.806358337">
<ele>858.531250</ele>
<time>2013-11-22T14:48:04Z</time>
<extensions>
<speed>0.0</speed>
<temp>0.00</temp>
<bpm>0</bpm>
<rpm>0.00</rpm>
</extensions>
</trkpt>
<trkpt lat="30.607912064" lon="34.806358337">
<ele>858.515625</ele>
<time>2013-11-22T14:48:09Z</time>
<extensions>
<speed>0.0</speed>
<temp>0.00</temp>
<bpm>0</bpm>
<rpm>0.00</rpm>
</extensions>
</trkpt>
<trkpt lat="30.607912064" lon="34.806358337">
<ele>858.500000</ele>
<time>2013-11-22T14:48:14Z</time>
<extensions>
<speed>0.0</speed>
<temp>0.00</temp>
<bpm>0</bpm>
<rpm>0.00</rpm>
</extensions>
</trkpt>
<trkpt lat="30.607912064" lon="34.806358337">
<ele>858.500000</ele>
<time>2013-11-22T14:48:19Z</time>
<speed>0.010000</speed>
<extensions>
<speed>0.0</speed>
<temp>0.00</temp>
<bpm>0</bpm>
<rpm>0.00</rpm>
</extensions>
</trkpt>
<trkpt lat="30.607912064" lon="34.806358337">
<ele>858.500000</ele>
<time>2013-11-22T14:48:24Z</time>
<speed>0.010000</speed>
<extensions>
<speed>0.0</speed>
<temp>0.00</temp>
<bpm>0</bpm>
<rpm>0.00</rpm>
</extensions>
</trkpt>
<trkpt lat="30.607912064" lon="34.806358337">
<ele>858.484375</ele>
<time>2013-11-22T14:48:29Z</time>
<extensions>
<speed>0.0</speed>
<temp>0.00</temp>
<bpm>0</bpm>
<rpm>0.00</rpm>
</extensions>
</trkpt>
<trkpt lat="30.607912064" lon="34.806358337">
<ele>858.484375</ele>
<time>2013-11-22T14:48:34Z</time>
<speed>0.010000</speed>
<extensions>
<speed>0.0</speed>
<temp>0.00</temp>
<bpm>0</bpm>
<rpm>0.00</rpm>
</extensions>
</trkpt>
<trkpt lat="30.607912064" lon="34.806358337">
<ele>858.468750</ele>
<time>2013-11-22T14:48:39Z</time>
<extensions>
<speed>0.0</speed>
<temp>0.00</temp>
<bpm>0</bpm>
<rpm>0.00</rpm>
</extensions>
</trkpt>
<trkpt lat="30.607912064" lon="34.806358337">
<ele>858.468750</ele>
<time>2013-11-22T14:48:44Z</time>
<extensions>
<speed>0.0</speed>
<temp>0.00</temp>
<bpm>0</bpm>
<rpm>0.00</rpm>
</extensions>
</trkpt>
<trkpt lat="30.607912064" lon="34.806358337">
<ele>858.453125</ele>
<time>2013-11-22T14:48:49Z</time>
<extensions>
<speed>0.0</speed>
<temp>0.00</temp>
<bpm>0</bpm>
<rpm>0.00</rpm>
</extensions>
</trkpt>
<trkpt lat="30.607912064" lon="34.806358337">
<ele>858.437500</ele>
<time>2013-11-22T14:48:54Z</time>
<extensions>
<speed>0.0</speed>
<temp>0.00</temp>
<bpm>0</bpm>
<rpm>0.00</rpm>
</extensions>
</trkpt>
<trkpt lat="30.607913971" lon="34.806358337">
<ele>858.421875</ele>
<time>2013-11-22T14:48:59Z</time>
<speed>0.010000</speed>
<extensions>
<speed>0.0</speed>
<temp>0.00</temp>
<bpm>0</bpm>
<rpm>0.00</rpm>
</extensions>
</trkpt>
<trkpt lat="30.607913971" lon="34.806358337">
<ele>858.421875</ele>
<time>2013-11-22T14:49:04Z</time>
<extensions>
<speed>0.0</speed>
<temp>0.00</temp>
<bpm>0</bpm>
<rpm>0.00</rpm>
</extensions>
</trkpt>
<trkpt lat="30.607913971" lon="34.806358337">
<ele>858.421875</ele>
<time>2013-11-22T14:49:09Z</time>
<extensions>
<speed>0.0</speed>
<temp>0.00</temp>
<bpm>0</bpm>
<rpm>0.00</rpm>
</extensions>
</trkpt>
<trkpt lat="30.607913971" lon="34.806358337">
<ele>858.406250</ele>
<time>2013-11-22T14:49:14Z</time>
<extensions>
<speed>0.0</speed>
<temp>0.00</temp>
<bpm>0</bpm>
<rpm>0.00</rpm>
</extensions>
</trkpt>
<trkpt lat="30.607913971" lon="34.806358337">
<ele>858.406250</ele>
<time>2013-11-22T14:49:19Z</time>
<extensions>
<speed>0.0</speed>
<temp>0.00</temp>
<bpm>0</bpm>
<rpm>0.00</rpm>
</extensions>
</trkpt>
<trkpt lat="30.607913971" lon="34.806358337">
<ele>858.390625</ele>
<time>2013-11-22T14:49:24Z</time>
<extensions>
<speed>0.0</speed>
<temp>0.00</temp>
<bpm>0</bpm>
<rpm>0.00</rpm>
</extensions>
</trkpt>
<trkpt lat="30.607913971" lon="34.806358337">
<ele>858.390625</ele>
<time>2013-11-22T14:49:29Z</time>
<speed>0.010000</speed>
<extensions>
<speed>0.0</speed>
<temp>0.00</temp>
<bpm>0</bpm>
<rpm>0.00</rpm>
</extensions>
</trkpt>
<trkpt lat="30.607913971" lon="34.806358337">
<ele>858.390625</ele>
<time>2013-11-22T14:49:34Z</time>
<extensions>
<speed>0.0</speed>
<temp>0.00</temp>
<bpm>0</bpm>
<rpm>0.00</rpm>
</extensions>
</trkpt>
<trkpt lat="30.607913971" lon="34.806358337">
<ele>858.390625</ele>
<time>2013-11-22T14:49:39Z</time>
<extensions>
<speed>0.0</speed>
<temp>0.00</temp>
<bpm>0</bpm>
<rpm>0.00</rpm>
</extensions>
</trkpt>
<trkpt lat="30.607913971" lon="34.806358337">
<ele>858.375000</ele>
<time>2013-11-22T14:49:44Z</time>
<speed>0.010000</speed>
<extensions>
<speed>0.0</speed>
<temp>0.00</temp>
<bpm>0</bpm>
<rpm>0.00</rpm>
</extensions>
</trkpt>
<trkpt lat="30.607913971" lon="34.806358337">
<ele>858.375000</ele>
<time>2013-11-22T14:49:49Z</time>
<speed>0.010000</speed>
<extensions>
<speed>0.0</speed>
<temp>0.00</temp>
<bpm>0</bpm>
<rpm>0.00</rpm>
</extensions>
</trkpt>
<trkpt lat="30.607913971" lon="34.806358337">
<ele>858.375000</ele>
<time>2013-11-22T14:49:54Z</time>
<extensions>
<speed>0.0</speed>
<temp>0.00</temp>
<bpm>0</bpm>
<rpm>0.00</rpm>
</extensions>
</trkpt>
<trkpt lat="30.607913971" lon="34.806358337">
<ele>858.375000</ele>
<time>2013-11-22T14:49:59Z</time>
<extensions>
<speed>0.0</speed>
<temp>0.00</temp>
<bpm>0</bpm>
<rpm>0.00</rpm>
</extensions>
</trkpt>
<trkpt lat="30.607913971" lon="34.806358337">
<ele>858.375000</ele>
<time>2013-11-22T14:50:04Z</time>
<extensions>
<speed>0.0</speed>
<temp>0.00</temp>
<bpm>0</bpm>
<rpm>0.00</rpm>
</extensions>
</trkpt>
<trkpt lat="30.607913971" lon="34.806358337">
<ele>858.375000</ele>
<time>2013-11-22T14:50:09Z</time>
<extensions>
<speed>0.0</speed>
<temp>0.00</temp>
<bpm>0</bpm>
<rpm>0.00</rpm>
</extensions>
</trkpt>
<trkpt lat="30.607913971" lon="34.806358337">
<ele>858.375000</ele>
<time>2013-11-22T14:50:14Z</time>
<extensions>
<speed>0.0</speed>
<temp>0.00</temp>
<bpm>0</bpm>
<rpm>0.00</rpm>
</extensions>
</trkpt>
<trkpt lat="30.607913971" lon="34.806358337">
<ele>858.359375</ele>
<time>2013-11-22T14:50:19Z</time>
<extensions>
<speed>0.0</speed>
<temp>0.00</temp>
<bpm>0</bpm>
<rpm>0.00</rpm>
</extensions>
</trkpt>
<trkpt lat="30.607913971" lon="34.806358337">
<ele>858.375000</ele>
<time>2013-11-22T14:50:24Z</time>
<speed>0.160000</speed>
<extensions>
<speed>0.2</speed>
<temp>0.00</temp>
<bpm>0</bpm>
<rpm>0.00</rpm>
</extensions>
</trkpt>
<trkpt lat="30.607913971" lon="34.806362152">
<ele>858.343750</ele>
<time>2013-11-22T14:50:29Z</time>
<speed>0.140000</speed>
<extensions>
<speed>0.1</speed>
<temp>0.00</temp>
<bpm>0</bpm>
<rpm>0.00</rpm>
</extensions>
</trkpt>
<trkpt lat="30.607919693" lon="34.806350708">
<ele>858.218750</ele>
<time>2013-11-22T14:50:34Z</time>
<speed>0.680000</speed>
<extensions>
<speed>0.7</speed>
<temp>0.00</temp>
<bpm>0</bpm>
<rpm>0.00</rpm>
</extensions>
</trkpt>
<trkpt lat="30.607921600" lon="34.806343079">
<ele>858.156250</ele>
<time>2013-11-22T14:50:39Z</time>
<speed>0.020000</speed>
<extensions>
<speed>0.0</speed>
<temp>0.00</temp>
<bpm>0</bpm>
<rpm>0.00</rpm>
</extensions>
</trkpt>
<trkpt lat="30.607921600" lon="34.806320190">
<ele>858.140625</ele>
<time>2013-11-22T14:50:44Z</time>
<speed>1.640000</speed>
<extensions>
<speed>1.6</speed>
<temp>0.00</temp>
<bpm>0</bpm>
<rpm>0.00</rpm>
</extensions>
</trkpt>
<trkpt lat="30.607927322" lon="34.806224823">
<ele>857.734375</ele>
<time>2013-11-22T14:50:49Z</time>
<speed>1.970000</speed>
<extensions>
<speed>2.0</speed>
<temp>0.00</temp>
<bpm>0</bpm>
<rpm>0.00</rpm>
</extensions>
</trkpt>
<trkpt lat="30.607913971" lon="34.806148529">
<ele>857.062500</ele>
<time>2013-11-22T14:50:54Z</time>
<speed>1.220000</speed>
<extensions>
<speed>1.2</speed>
<temp>0.00</temp>
<bpm>0</bpm>
<rpm>0.00</rpm>
</extensions>
</trkpt>
<trkpt lat="30.607892990" lon="34.806121826">
<ele>856.718750</ele>
<time>2013-11-22T14:50:59Z</time>
<speed>0.690000</speed>
<extensions>
<speed>0.7</speed>
<temp>0.00</temp>
<bpm>0</bpm>
<rpm>0.00</rpm>
</extensions>
</trkpt>
<trkpt lat="30.607833862" lon="34.806114197">
<ele>856.562500</ele>
<time>2013-11-22T14:51:04Z</time>
<speed>1.770000</speed>
<extensions>
<speed>1.8</speed>
<temp>0.00</temp>
<bpm>0</bpm>
<rpm>0.00</rpm>
</extensions>
</trkpt>
<trkpt lat="30.607797623" lon="34.806114197">
<ele>855.875000</ele>
<time>2013-11-22T14:51:09Z</time>
<speed>0.160000</speed>
<extensions>
<speed>0.2</speed>
<temp>0.00</temp>
<bpm>0</bpm>
<rpm>0.00</rpm>
</extensions>
</trkpt>
<trkpt lat="30.607795715" lon="34.806114197">
<ele>855.406250</ele>
<time>2013-11-22T14:51:14Z</time>
<speed>0.050000</speed>
<extensions>
<speed>0.1</speed>
<temp>0.00</temp>
<bpm>0</bpm>
<rpm>0.00</rpm>
</extensions>
</trkpt>
<trkpt lat="30.607797623" lon="34.806114197">
<ele>855.312500</ele>
<time>2013-11-22T14:51:19Z</time>
<extensions>
<speed>0.0</speed>
<temp>0.00</temp>
<bpm>0</bpm>
<rpm>0.00</rpm>
</extensions>
</trkpt>
<trkpt lat="30.607797623" lon="34.806114197">
<ele>855.281250</ele>
<time>2013-11-22T14:51:24Z</time>
<speed>0.260000</speed>
<extensions>
<speed>0.3</speed>
<temp>0.00</temp>
<bpm>0</bpm>
<rpm>0.00</rpm>
</extensions>
</trkpt>
<trkpt lat="30.607784271" lon="34.806121826">
<ele>855.140625</ele>
<time>2013-11-22T14:51:29Z</time>
<speed>0.730000</speed>
<extensions>
<speed>0.7</speed>
<temp>0.00</temp>
<bpm>0</bpm>
<rpm>0.00</rpm>
</extensions>
</trkpt>
<trkpt lat="30.607738495" lon="34.806095123">
<ele>854.312500</ele>
<time>2013-11-22T14:51:34Z</time>
<speed>2.000000</speed>
<extensions>
<speed>2.0</speed>
<temp>0.00</temp>
<bpm>0</bpm>
<rpm>0.00</rpm>
</extensions>
</trkpt>
<trkpt lat="30.607683182" lon="34.806056976">
<ele>853.156250</ele>
<time>2013-11-22T14:51:39Z</time>
<speed>1.330000</speed>
<extensions>
<speed>1.3</speed>
<temp>0.00</temp>
<bpm>0</bpm>
<rpm>0.00</rpm>
</extensions>
</trkpt>
<trkpt lat="30.607662201" lon="34.806015015">
<ele>852.250000</ele>
<time>2013-11-22T14:51:44Z</time>
<speed>1.180000</speed>
<extensions>
<speed>1.2</speed>
<temp>0.00</temp>
<bpm>0</bpm>
<rpm>0.00</rpm>
</extensions>
</trkpt>
<trkpt lat="30.607645035" lon="34.805988312">
<ele>852.296875</ele>
<time>2013-11-22T14:51:49Z</time>
<speed>0.740000</speed>
<extensions>
<speed>0.7</speed>
<temp>0.00</temp>
<bpm>0</bpm>
<rpm>0.00</rpm>
</extensions>
</trkpt>
<trkpt lat="30.607666016" lon="34.805931091">
<ele>851.875000</ele>
<time>2013-11-22T14:51:54Z</time>
<speed>1.050000</speed>
<extensions>
<speed>1.0</speed>
<temp>0.00</temp>
<bpm>0</bpm>
<rpm>0.00</rpm>
</extensions>
</trkpt>
<trkpt lat="30.607667923" lon="34.805904388">
<ele>851.109375</ele>
<time>2013-11-22T14:51:59Z</time>
<speed>0.230000</speed>
<extensions>
<speed>0.2</speed>
<temp>0.00</temp>
<bpm>0</bpm>
<rpm>0.00</rpm>
</extensions>
</trkpt>
<trkpt lat="30.607646942" lon="34.805885315">
<ele>850.203125</ele>
<time>2013-11-22T14:52:04Z</time>
<speed>0.790000</speed>
<extensions>
<speed>0.8</speed>
<temp>0.00</temp>
<bpm>0</bpm>
<rpm>0.00</rpm>
</extensions>
</trkpt>
<trkpt lat="30.607606888" lon="34.805862427">
<ele>849.296875</ele>
<time>2013-11-22T14:52:09Z</time>
<speed>1.460000</speed>
<extensions>
<speed>1.5</speed>
<temp>0.00</temp>
<bpm>0</bpm>
<rpm>0.00</rpm>
</extensions>
</trkpt>
<trkpt lat="30.607584000" lon="34.805786133">
<ele>847.406250</ele>
<time>2013-11-22T14:52:14Z</time>
<speed>2.220000</speed>
<extensions>
<speed>2.2</speed>
<temp>0.00</temp>
<bpm>0</bpm>
<rpm>0.00</rpm>
</extensions>
</trkpt>
<trkpt lat="30.607584000" lon="34.805694580">
<ele>845.359375</ele>
<time>2013-11-22T14:52:19Z</time>
<speed>0.640000</speed>
<extensions>
<speed>0.6</speed>
<temp>0.00</temp>
<bpm>0</bpm>
<rpm>0.00</rpm>
</extensions>
</trkpt>
<trkpt lat="30.607622147" lon="34.805644989">
<ele>844.437500</ele>
<time>2013-11-22T14:52:24Z</time>
<speed>1.590000</speed>
<extensions>
<speed>1.6</speed>
<temp>0.00</temp>
<bpm>0</bpm>
<rpm>0.00</rpm>
</extensions>
</trkpt>
<trkpt lat="30.607675552" lon="34.805572510">
<ele>843.781250</ele>
<time>2013-11-22T14:52:29Z</time>
<speed>1.720000</speed>
<extensions>
<speed>1.7</speed>
<temp>0.00</temp>
<bpm>0</bpm>
<rpm>0.00</rpm>
</extensions>
</trkpt>
<trkpt lat="30.607690811" lon="34.805511475">
<ele>842.031250</ele>
<time>2013-11-22T14:52:34Z</time>
<speed>1.980000</speed>
<extensions>
<speed>2.0</speed>
<temp>0.00</temp>
<bpm>0</bpm>
<rpm>0.00</rpm>
</extensions>
</trkpt>
<trkpt lat="30.607673645" lon="34.805370331">
<ele>840.671875</ele>
<time>2013-11-22T14:52:39Z</time>
<speed>3.800000</speed>
<extensions>
<speed>3.8</speed>
<temp>0.00</temp>
<bpm>0</bpm>
<rpm>0.00</rpm>
</extensions>
</trkpt>
<trkpt lat="30.607717514" lon="34.805210114">
<ele>839.968750</ele>
<time>2013-11-22T14:52:44Z</time>
<speed>3.050000</speed>
<extensions>
<speed>3.0</speed>
<temp>0.00</temp>
<bpm>0</bpm>
<rpm>0.00</rpm>
</extensions>
</trkpt>
<trkpt lat="30.607851028" lon="34.805091858">
<ele>840.859375</ele>
<time>2013-11-22T14:52:49Z</time>
<speed>3.690000</speed>
<extensions>
<speed>3.7</speed>
<temp>0.00</temp>
<bpm>0</bpm>
<rpm>0.00</rpm>
</extensions>
</trkpt>
<trkpt lat="30.607978821" lon="34.804985046">
<ele>841.625000</ele>
<time>2013-11-22T14:52:54Z</time>
<speed>2.840000</speed>
<extensions>
<speed>2.8</speed>
<temp>0.00</temp>
<bpm>0</bpm>
<rpm>0.00</rpm>
</extensions>
</trkpt>
<trkpt lat="30.608068466" lon="34.804904938">
<ele>841.531250</ele>
<time>2013-11-22T14:52:59Z</time>
<speed>2.390000</speed>
<extensions>
<speed>2.4</speed>
<temp>0.00</temp>
<bpm>0</bpm>
<rpm>0.00</rpm>
</extensions>
</trkpt>
<trkpt lat="30.608165741" lon="34.804813385">
<ele>841.125000</ele>
<time>2013-11-22T14:53:04Z</time>
<speed>3.230000</speed>
<extensions>
<speed>3.2</speed>
<temp>0.00</temp>
<bpm>0</bpm>
<rpm>0.00</rpm>
</extensions>
</trkpt>
<trkpt lat="30.608261108" lon="34.804729462">
<ele>840.515625</ele>
<time>2013-11-22T14:53:09Z</time>
<speed>2.950000</speed>
<extensions>
<speed>2.9</speed>
<temp>0.00</temp>
<bpm>0</bpm>
<rpm>0.00</rpm>
</extensions>
</trkpt>
<trkpt lat="30.608373642" lon="34.804637909">
<ele>841.343750</ele>
<time>2013-11-22T14:53:14Z</time>
<speed>2.680000</speed>
<extensions>
<speed>2.7</speed>
<temp>0.00</temp>
<bpm>0</bpm>
<rpm>0.00</rpm>
</extensions>
</trkpt>
<trkpt lat="30.608478546" lon="34.804569244">
<ele>843.406250</ele>
<time>2013-11-22T14:53:19Z</time>
<speed>2.280000</speed>
<extensions>
<speed>2.3</speed>
<temp>0.00</temp>
<bpm>0</bpm>
<rpm>0.00</rpm>
</extensions>
</trkpt>
<trkpt lat="30.608549118" lon="34.804538727">
<ele>844.593750</ele>
<time>2013-11-22T14:53:24Z</time>
<speed>1.650000</speed>
<extensions>
<speed>1.7</speed>
<temp>0.00</temp>
<bpm>0</bpm>
<rpm>0.00</rpm>
</extensions>
</trkpt>
<trkpt lat="30.608699799" lon="34.804546356">
<ele>843.500000</ele>
<time>2013-11-22T14:53:29Z</time>
<speed>4.510000</speed>
<extensions>
<speed>4.5</speed>
<temp>0.00</temp>
<bpm>0</bpm>
<rpm>0.00</rpm>
</extensions>
</trkpt>
<trkpt lat="30.608888626" lon="34.804485321">
<ele>843.609375</ele>
<time>2013-11-22T14:53:34Z</time>
<speed>3.910000</speed>
<extensions>
<speed>3.9</speed>
<temp>0.00</temp>
<bpm>0</bpm>
<rpm>0.00</rpm>
</extensions>
</trkpt>
<trkpt lat="30.609052658" lon="34.804374695">
<ele>842.953125</ele>
<time>2013-11-22T14:53:39Z</time>
<speed>4.420000</speed>
<extensions>
<speed>4.4</speed>
<temp>0.00</temp>
<bpm>0</bpm>
<rpm>0.00</rpm>
</extensions>
</trkpt>
<trkpt lat="30.609226227" lon="34.804244995">
<ele>843.218750</ele>
<time>2013-11-22T14:53:44Z</time>
<speed>4.180000</speed>
<extensions>
<speed>4.2</speed>
<temp>0.00</temp>
<bpm>0</bpm>
<rpm>0.00</rpm>
</extensions>
</trkpt>
<trkpt lat="30.609342575" lon="34.804134369">
<ele>842.781250</ele>
<time>2013-11-22T14:53:49Z</time>
<speed>2.940000</speed>
<extensions>
<speed>2.9</speed>
<temp>0.00</temp>
<bpm>0</bpm>
<rpm>0.00</rpm>
</extensions>
</trkpt>
<trkpt lat="30.609485626" lon="34.804195404">
<ele>842.968750</ele>
<time>2013-11-22T14:53:54Z</time>
<speed>4.450000</speed>
<extensions>
<speed>4.5</speed>
<temp>0.00</temp>
<bpm>0</bpm>
<rpm>0.00</rpm>
</extensions>
</trkpt>
<trkpt lat="30.609722137" lon="34.804309845">
<ele>841.593750</ele>
<time>2013-11-22T14:53:59Z</time>
<speed>7.060000</speed>
<extensions>
<speed>7.1</speed>
<temp>0.00</temp>
<bpm>0</bpm>
<rpm>0.00</rpm>
</extensions>
</trkpt>
<trkpt lat="30.610054016" lon="34.804439545">
<ele>840.187500</ele>
<time>2013-11-22T14:54:04Z</time>
<speed>8.050000</speed>
<extensions>
<speed>8.0</speed>
<temp>0.00</temp>
<bpm>0</bpm>
<rpm>0.00</rpm>
</extensions>
</trkpt>
<trkpt lat="30.610374451" lon="34.804565430">
<ele>839.921875</ele>
<time>2013-11-22T14:54:09Z</time>
<speed>6.740000</speed>
<extensions>
<speed>6.7</speed>
<temp>0.00</temp>
<bpm>0</bpm>
<rpm>0.00</rpm>
</extensions>
</trkpt>
<trkpt lat="30.610584259" lon="34.804649353">
<ele>841.890625</ele>
<time>2013-11-22T14:54:14Z</time>
<speed>3.480000</speed>
<extensions>
<speed>3.5</speed>
<temp>0.00</temp>
<bpm>0</bpm>
<rpm>0.00</rpm>
</extensions>
</trkpt>
<trkpt lat="30.610704422" lon="34.804733276">
<ele>840.812500</ele>
<time>2013-11-22T14:54:19Z</time>
<speed>2.980000</speed>
<extensions>
<speed>3.0</speed>
<temp>0.00</temp>
<bpm>0</bpm>
<rpm>0.00</rpm>
</extensions>
</trkpt>
<trkpt lat="30.610826492" lon="34.804744720">
<ele>840.687500</ele>
<time>2013-11-22T14:54:24Z</time>
<speed>2.990000</speed>
<extensions>
<speed>3.0</speed>
<temp>0.00</temp>
<bpm>0</bpm>
<rpm>0.00</rpm>
</extensions>
</trkpt>
<trkpt lat="30.610921860" lon="34.804668427">
<ele>841.296875</ele>
<time>2013-11-22T14:54:29Z</time>
<speed>1.960000</speed>
<extensions>
<speed>2.0</speed>
<temp>0.00</temp>
<bpm>0</bpm>
<rpm>0.00</rpm>
</extensions>
</trkpt>
<trkpt lat="30.610977173" lon="34.804615021">
<ele>840.765625</ele>
<time>2013-11-22T14:54:34Z</time>
<speed>1.570000</speed>
<extensions>
<speed>1.6</speed>
<temp>0.00</temp>
<bpm>0</bpm>
<rpm>0.00</rpm>
</extensions>
</trkpt>
<trkpt lat="30.611028671" lon="34.804561615">
<ele>840.062500</ele>
<time>2013-11-22T14:54:39Z</time>
<speed>1.830000</speed>
<extensions>
<speed>1.8</speed>
<temp>0.00</temp>
<bpm>0</bpm>
<rpm>0.00</rpm>
</extensions>
</trkpt>
<trkpt lat="30.611089706" lon="34.804508209">
<ele>839.359375</ele>
<time>2013-11-22T14:54:44Z</time>
<speed>1.480000</speed>
<extensions>
<speed>1.5</speed>
<temp>0.00</temp>
<bpm>0</bpm>
<rpm>0.00</rpm>
</extensions>
</trkpt>
<trkpt lat="30.611146927" lon="34.804458618">
<ele>839.140625</ele>
<time>2013-11-22T14:54:49Z</time>
<speed>1.680000</speed>
<extensions>
<speed>1.7</speed>
<temp>0.00</temp>
<bpm>0</bpm>
<rpm>0.00</rpm>
</extensions>
</trkpt>
<trkpt lat="30.611202240" lon="34.804416656">
<ele>839.187500</ele>
<time>2013-11-22T14:54:54Z</time>
<speed>1.430000</speed>
<extensions>
<speed>1.4</speed>
<temp>0.00</temp>
<bpm>0</bpm>
<rpm>0.00</rpm>
</extensions>
</trkpt>
<trkpt lat="30.611267090" lon="34.804416656">
<ele>838.687500</ele>
<time>2013-11-22T14:54:59Z</time>
<speed>1.680000</speed>
<extensions>
<speed>1.7</speed>
<temp>0.00</temp>
<bpm>0</bpm>
<rpm>0.00</rpm>
</extensions>
</trkpt>
<trkpt lat="30.611331940" lon="34.804382324">
<ele>838.468750</ele>
<time>2013-11-22T14:55:04Z</time>
<speed>1.370000</speed>
<extensions>
<speed>1.4</speed>
<temp>0.00</temp>
<bpm>0</bpm>
<rpm>0.00</rpm>
</extensions>
</trkpt>
<trkpt lat="30.611375809" lon="34.804340363">
<ele>837.796875</ele>
<time>2013-11-22T14:55:09Z</time>
<speed>1.320000</speed>
<extensions>
<speed>1.3</speed>
<temp>0.00</temp>
<bpm>0</bpm>
<rpm>0.00</rpm>
</extensions>
</trkpt>
<trkpt lat="30.611385345" lon="34.804332733">
<ele>837.562500</ele>
<time>2013-11-22T14:55:14Z</time>
<speed>0.060000</speed>
<extensions>
<speed>0.1</speed>
<temp>0.00</temp>
<bpm>0</bpm>
<rpm>0.00</rpm>
</extensions>
</trkpt>
<trkpt lat="30.611385345" lon="34.804332733">
<ele>837.640625</ele>
<time>2013-11-22T14:55:19Z</time>
<extensions>
<speed>0.0</speed>
<temp>0.00</temp>
<bpm>0</bpm>
<rpm>0.00</rpm>
</extensions>
</trkpt>
<trkpt lat="30.611385345" lon="34.804332733">
<ele>837.656250</ele>
<time>2013-11-22T14:55:24Z</time>
<speed>0.030000</speed>
<extensions>
<speed>0.0</speed>
<temp>0.00</temp>
<bpm>0</bpm>
<rpm>0.00</rpm>
</extensions>
</trkpt>
<trkpt lat="30.611385345" lon="34.804332733">
<ele>837.703125</ele>
<time>2013-11-22T14:55:29Z</time>
<speed>0.010000</speed>
<extensions>
<speed>0.0</speed>
<temp>0.00</temp>
<bpm>0</bpm>
<rpm>0.00</rpm>
</extensions>
</trkpt>
<trkpt lat="30.611385345" lon="34.804332733">
<ele>837.734375</ele>
<time>2013-11-22T14:55:34Z</time>
<speed>0.030000</speed>
<extensions>
<speed>0.0</speed>
<temp>0.00</temp>
<bpm>0</bpm>
<rpm>0.00</rpm>
</extensions>
</trkpt>
<trkpt lat="30.611385345" lon="34.804332733">
<ele>837.718750</ele>
<time>2013-11-22T14:55:39Z</time>
<speed>0.030000</speed>
<extensions>
<speed>0.0</speed>
<temp>0.00</temp>
<bpm>0</bpm>
<rpm>0.00</rpm>
</extensions>
</trkpt>
<trkpt lat="30.611385345" lon="34.804332733">
<ele>837.734375</ele>
<time>2013-11-22T14:55:44Z</time>
<extensions>
<speed>0.0</speed>
<temp>0.00</temp>
<bpm>0</bpm>
<rpm>0.00</rpm>
</extensions>
</trkpt>
<trkpt lat="30.611385345" lon="34.804332733">
<ele>837.750000</ele>
<time>2013-11-22T14:55:49Z</time>
<extensions>
<speed>0.0</speed>
<temp>0.00</temp>
<bpm>0</bpm>
<rpm>0.00</rpm>
</extensions>
</trkpt>
<trkpt lat="30.611385345" lon="34.804332733">
<ele>837.750000</ele>
<time>2013-11-22T14:55:54Z</time>
<speed>0.160000</speed>
<extensions>
<speed>0.2</speed>
<temp>0.00</temp>
<bpm>0</bpm>
<rpm>0.00</rpm>
</extensions>
</trkpt>
<trkpt lat="30.611387253" lon="34.804332733">
<ele>837.843750</ele>
<time>2013-11-22T14:55:59Z</time>
<extensions>
<speed>0.0</speed>
<temp>0.00</temp>
<bpm>0</bpm>
<rpm>0.00</rpm>
</extensions>
</trkpt>
<trkpt lat="30.611387253" lon="34.804332733">
<ele>837.843750</ele>
<time>2013-11-22T14:56:04Z</time>
<speed>0.020000</speed>
<extensions>
<speed>0.0</speed>
<temp>0.00</temp>
<bpm>0</bpm>
<rpm>0.00</rpm>
</extensions>
</trkpt>
<trkpt lat="30.611385345" lon="34.804328918">
<ele>837.687500</ele>
<time>2013-11-22T14:56:09Z</time>
<speed>2.110000</speed>
<extensions>
<speed>2.1</speed>
<temp>0.00</temp>
<bpm>0</bpm>
<rpm>0.00</rpm>
</extensions>
</trkpt>
<trkpt lat="30.611474991" lon="34.804347992">
<ele>836.812500</ele>
<time>2013-11-22T14:56:14Z</time>
<speed>2.550000</speed>
<extensions>
<speed>2.6</speed>
<temp>0.00</temp>
<bpm>0</bpm>
<rpm>0.00</rpm>
</extensions>
</trkpt>
<trkpt lat="30.611581802" lon="34.804378510">
<ele>836.375000</ele>
<time>2013-11-22T14:56:19Z</time>
<speed>2.460000</speed>
<extensions>
<speed>2.5</speed>
<temp>0.00</temp>
<bpm>0</bpm>
<rpm>0.00</rpm>
</extensions>
</trkpt>
<trkpt lat="30.611703873" lon="34.804321289">
<ele>834.812500</ele>
<time>2013-11-22T14:56:24Z</time>
<speed>2.600000</speed>
<extensions>
<speed>2.6</speed>
<temp>0.00</temp>
<bpm>0</bpm>
<rpm>0.00</rpm>
</extensions>
</trkpt>
<trkpt lat="30.611812592" lon="34.804199219">
<ele>836.046875</ele>
<time>2013-11-22T14:56:29Z</time>
<speed>3.500000</speed>
<extensions>
<speed>3.5</speed>
<temp>0.00</temp>
<bpm>0</bpm>
<rpm>0.00</rpm>
</extensions>
</trkpt>
<trkpt lat="30.611936569" lon="34.804065704">
<ele>835.296875</ele>
<time>2013-11-22T14:56:34Z</time>
<speed>3.350000</speed>
<extensions>
<speed>3.4</speed>
<temp>0.00</temp>
<bpm>0</bpm>
<rpm>0.00</rpm>
</extensions>
</trkpt>
<trkpt lat="30.612136841" lon="34.803970337">
<ele>834.296875</ele>
<time>2013-11-22T14:56:39Z</time>
<speed>4.380000</speed>
<extensions>
<speed>4.4</speed>
<temp>0.00</temp>
<bpm>0</bpm>
<rpm>0.00</rpm>
</extensions>
</trkpt>
<trkpt lat="30.612360001" lon="34.803901672">
<ele>832.703125</ele>
<time>2013-11-22T14:56:44Z</time>
<speed>4.350000</speed>
<extensions>
<speed>4.3</speed>
<temp>0.00</temp>
<bpm>0</bpm>
<rpm>0.00</rpm>
</extensions>
</trkpt>
<trkpt lat="30.612487793" lon="34.803882599">
<ele>833.000000</ele>
<time>2013-11-22T14:56:49Z</time>
<speed>1.650000</speed>
<extensions>
<speed>1.7</speed>
<temp>0.00</temp>
<bpm>0</bpm>
<rpm>0.00</rpm>
</extensions>
</trkpt>
<trkpt lat="30.612533569" lon="34.803955078">
<ele>833.781250</ele>
<time>2013-11-22T14:56:54Z</time>
<speed>2.450000</speed>
<extensions>
<speed>2.4</speed>
<temp>0.00</temp>
<bpm>0</bpm>
<rpm>0.00</rpm>
</extensions>
</trkpt>
<trkpt lat="30.612565994" lon="34.804100037">
<ele>833.203125</ele>
<time>2013-11-22T14:56:59Z</time>
<speed>3.060000</speed>
<extensions>
<speed>3.1</speed>
<temp>0.00</temp>
<bpm>0</bpm>
<rpm>0.00</rpm>
</extensions>
</trkpt>
<trkpt lat="30.612655640" lon="34.804256439">
<ele>832.687500</ele>
<time>2013-11-22T14:57:04Z</time>
<speed>3.550000</speed>
<extensions>
<speed>3.5</speed>
<temp>0.00</temp>
<bpm>0</bpm>
<rpm>0.00</rpm>
</extensions>
</trkpt>
<trkpt lat="30.612779617" lon="34.804359436">
<ele>832.984375</ele>
<time>2013-11-22T14:57:09Z</time>
<speed>3.480000</speed>
<extensions>
<speed>3.5</speed>
<temp>0.00</temp>
<bpm>0</bpm>
<rpm>0.00</rpm>
</extensions>
</trkpt>
<trkpt lat="30.612951279" lon="34.804351807">
<ele>832.718750</ele>
<time>2013-11-22T14:57:14Z</time>
<speed>4.220000</speed>
<extensions>
<speed>4.2</speed>
<temp>0.00</temp>
<bpm>0</bpm>
<rpm>0.00</rpm>
</extensions>
</trkpt>
<trkpt lat="30.613128662" lon="34.804229736">
<ele>830.609375</ele>
<time>2013-11-22T14:57:19Z</time>
<speed>5.020000</speed>
<extensions>
<speed>5.0</speed>
<temp>0.00</temp>
<bpm>0</bpm>
<rpm>0.00</rpm>
</extensions>
</trkpt>
<trkpt lat="30.613225937" lon="34.804000854">
<ele>829.359375</ele>
<time>2013-11-22T14:57:24Z</time>
<speed>5.150000</speed>
<extensions>
<speed>5.2</speed>
<temp>0.00</temp>
<bpm>0</bpm>
<rpm>0.00</rpm>
</extensions>
</trkpt>
<trkpt lat="30.613412857" lon="34.803840637">
<ele>828.296875</ele>
<time>2013-11-22T14:57:29Z</time>
<speed>5.490000</speed>
<extensions>
<speed>5.5</speed>
<temp>0.00</temp>
<bpm>0</bpm>
<rpm>0.00</rpm>
</extensions>
</trkpt>
<trkpt lat="30.613660812" lon="34.803749084">
<ele>827.343750</ele>
<time>2013-11-22T14:57:34Z</time>
<speed>5.500000</speed>
<extensions>
<speed>5.5</speed>
<temp>0.00</temp>
<bpm>0</bpm>
<rpm>0.00</rpm>
</extensions>
</trkpt>
<trkpt lat="30.613889694" lon="34.803684235">
<ele>827.437500</ele>
<time>2013-11-22T14:57:39Z</time>
<speed>5.010000</speed>
<extensions>
<speed>5.0</speed>
<temp>0.00</temp>
<bpm>0</bpm>
<rpm>0.00</rpm>
</extensions>
</trkpt>
<trkpt lat="30.614128113" lon="34.803646088">
<ele>828.328125</ele>
<time>2013-11-22T14:57:44Z</time>
<speed>5.500000</speed>
<extensions>
<speed>5.5</speed>
<temp>0.00</temp>
<bpm>0</bpm>
<rpm>0.00</rpm>
</extensions>
</trkpt>
<trkpt lat="30.614334106" lon="34.803600311">
<ele>828.937500</ele>
<time>2013-11-22T14:57:49Z</time>
<speed>4.130000</speed>
<extensions>
<speed>4.1</speed>
<temp>0.00</temp>
<bpm>0</bpm>
<rpm>0.00</rpm>
</extensions>
</trkpt>
<trkpt lat="30.614530563" lon="34.803565979">
<ele>831.171875</ele>
<time>2013-11-22T14:57:54Z</time>
<speed>5.000000</speed>
<extensions>
<speed>5.0</speed>
<temp>0.00</temp>
<bpm>0</bpm>
<rpm>0.00</rpm>
</extensions>
</trkpt>
<trkpt lat="30.614768982" lon="34.803546906">
<ele>832.468750</ele>
<time>2013-11-22T14:57:59Z</time>
<speed>4.590000</speed>
<extensions>
<speed>4.6</speed>
<temp>0.00</temp>
<bpm>0</bpm>
<rpm>0.00</rpm>
</extensions>
</trkpt>
<trkpt lat="30.614969254" lon="34.803539276">
<ele>833.296875</ele>
<time>2013-11-22T14:58:04Z</time>
<speed>4.940000</speed>
<extensions>
<speed>4.9</speed>
<temp>0.00</temp>
<bpm>0</bpm>
<rpm>0.00</rpm>
</extensions>
</trkpt>
<trkpt lat="30.615150452" lon="34.803546906">
<ele>833.953125</ele>
<time>2013-11-22T14:58:09Z</time>
<speed>3.220000</speed>
<extensions>
<speed>3.2</speed>
<temp>0.00</temp>
<bpm>0</bpm>
<rpm>0.00</rpm>
</extensions>
</trkpt>
<trkpt lat="30.615299225" lon="34.803539276">
<ele>834.796875</ele>
<time>2013-11-22T14:58:14Z</time>
<speed>3.720000</speed>
<extensions>
<speed>3.7</speed>
<temp>0.00</temp>
<bpm>0</bpm>
<rpm>0.00</rpm>
</extensions>
</trkpt>
<trkpt lat="30.615482330" lon="34.803546906">
<ele>835.718750</ele>
<time>2013-11-22T14:58:19Z</time>
<speed>3.980000</speed>
<extensions>
<speed>4.0</speed>
<temp>0.00</temp>
<bpm>0</bpm>
<rpm>0.00</rpm>
</extensions>
</trkpt>
<trkpt lat="30.615663528" lon="34.803550720">
<ele>837.078125</ele>
<time>2013-11-22T14:58:24Z</time>
<speed>4.520000</speed>
<extensions>
<speed>4.5</speed>
<temp>0.00</temp>
<bpm>0</bpm>
<rpm>0.00</rpm>
</extensions>
</trkpt>
<trkpt lat="30.615840912" lon="34.803546906">
<ele>838.203125</ele>
<time>2013-11-22T14:58:29Z</time>
<speed>3.270000</speed>
<extensions>
<speed>3.3</speed>
<temp>0.00</temp>
<bpm>0</bpm>
<rpm>0.00</rpm>
</extensions>
</trkpt>
<trkpt lat="30.616004944" lon="34.803565979">
<ele>839.109375</ele>
<time>2013-11-22T14:58:34Z</time>
<speed>4.470000</speed>
<extensions>
<speed>4.5</speed>
<temp>0.00</temp>
<bpm>0</bpm>
<rpm>0.00</rpm>
</extensions>
</trkpt>
<trkpt lat="30.616189957" lon="34.803565979">
<ele>838.953125</ele>
<time>2013-11-22T14:58:39Z</time>
<speed>3.590000</speed>
<extensions>
<speed>3.6</speed>
<temp>0.00</temp>
<bpm>0</bpm>
<rpm>0.00</rpm>
</extensions>
</trkpt>
<trkpt lat="30.616378784" lon="34.803573608">
<ele>838.890625</ele>
<time>2013-11-22T14:58:44Z</time>
<speed>4.790000</speed>
<extensions>
<speed>4.8</speed>
<temp>0.00</temp>
<bpm>0</bpm>
<rpm>0.00</rpm>
</extensions>
</trkpt>
<trkpt lat="30.616603851" lon="34.803577423">
<ele>838.453125</ele>
<time>2013-11-22T14:58:49Z</time>
<speed>4.730000</speed>
<extensions>
<speed>4.7</speed>
<temp>0.00</temp>
<bpm>0</bpm>
<rpm>0.00</rpm>
</extensions>
</trkpt>
<trkpt lat="30.616821289" lon="34.803585052">
<ele>838.546875</ele>
<time>2013-11-22T14:58:54Z</time>
<speed>4.850000</speed>
<extensions>
<speed>4.8</speed>
<temp>0.00</temp>
<bpm>0</bpm>
<rpm>0.00</rpm>
</extensions>
</trkpt>
<trkpt lat="30.617029190" lon="34.803592682">
<ele>838.781250</ele>
<time>2013-11-22T14:58:59Z</time>
<speed>4.600000</speed>
<extensions>
<speed>4.6</speed>
<temp>0.00</temp>
<bpm>0</bpm>
<rpm>0.00</rpm>
</extensions>
</trkpt>
<trkpt lat="30.617242813" lon="34.803600311">
<ele>838.031250</ele>
<time>2013-11-22T14:59:04Z</time>
<speed>4.600000</speed>
<extensions>
<speed>4.6</speed>
<temp>0.00</temp>
<bpm>0</bpm>
<rpm>0.00</rpm>
</extensions>
</trkpt>
<trkpt lat="30.617467880" lon="34.803607941">
<ele>837.359375</ele>
<time>2013-11-22T14:59:09Z</time>
<speed>4.840000</speed>
<extensions>
<speed>4.8</speed>
<temp>0.00</temp>
<bpm>0</bpm>
<rpm>0.00</rpm>
</extensions>
</trkpt>
<trkpt lat="30.617692947" lon="34.803619385">
<ele>836.703125</ele>
<time>2013-11-22T14:59:14Z</time>
<speed>5.370000</speed>
<extensions>
<speed>5.4</speed>
<temp>0.00</temp>
<bpm>0</bpm>
<rpm>0.00</rpm>
</extensions>
</trkpt>
<trkpt lat="30.617954254" lon="34.803627014">
<ele>835.609375</ele>
<time>2013-11-22T14:59:19Z</time>
<speed>6.070000</speed>
<extensions>
<speed>6.1</speed>
<temp>0.00</temp>
<bpm>0</bpm>
<rpm>0.00</rpm>
</extensions>
</trkpt>
<trkpt lat="30.618259430" lon="34.803638458">
<ele>833.921875</ele>
<time>2013-11-22T14:59:24Z</time>
<speed>7.060000</speed>
<extensions>
<speed>7.1</speed>
<temp>0.00</temp>
<bpm>0</bpm>
<rpm>0.00</rpm>
</extensions>
</trkpt>
<trkpt lat="30.618597031" lon="34.803665161">
<ele>832.984375</ele>
<time>2013-11-22T14:59:29Z</time>
<speed>7.800000</speed>
<extensions>
<speed>7.8</speed>
<temp>0.00</temp>
<bpm>0</bpm>
<rpm>0.00</rpm>
</extensions>
</trkpt>
<trkpt lat="30.618951797" lon="34.803676605">
<ele>832.328125</ele>
<time>2013-11-22T14:59:34Z</time>
<speed>7.820000</speed>
<extensions>
<speed>7.8</speed>
<temp>0.00</temp>
<bpm>0</bpm>
<rpm>0.00</rpm>
</extensions>
</trkpt>
<trkpt lat="30.619293213" lon="34.803684235">
<ele>831.953125</ele>
<time>2013-11-22T14:59:39Z</time>
<speed>7.480000</speed>
<extensions>
<speed>7.5</speed>
<temp>0.00</temp>
<bpm>0</bpm>
<rpm>0.00</rpm>
</extensions>
</trkpt>
<trkpt lat="30.619621277" lon="34.803699493">
<ele>831.640625</ele>
<time>2013-11-22T14:59:44Z</time>
<speed>7.030000</speed>
<extensions>
<speed>7.0</speed>
<temp>0.00</temp>
<bpm>0</bpm>
<rpm>0.00</rpm>
</extensions>
</trkpt>
<trkpt lat="30.619930267" lon="34.803718567">
<ele>831.578125</ele>
<time>2013-11-22T14:59:49Z</time>
<speed>6.310000</speed>
<extensions>
<speed>6.3</speed>
<temp>0.00</temp>
<bpm>0</bpm>
<rpm>0.00</rpm>
</extensions>
</trkpt>
<trkpt lat="30.620218277" lon="34.803741455">
<ele>830.703125</ele>
<time>2013-11-22T14:59:54Z</time>
<speed>5.970000</speed>
<extensions>
<speed>6.0</speed>
<temp>0.00</temp>
<bpm>0</bpm>
<rpm>0.00</rpm>
</extensions>
</trkpt>
<trkpt lat="30.620483398" lon="34.803749084">
<ele>830.687500</ele>
<time>2013-11-22T14:59:59Z</time>
<speed>5.940000</speed>
<extensions>
<speed>5.9</speed>
<temp>0.00</temp>
<bpm>0</bpm>
<rpm>0.00</rpm>
</extensions>
</trkpt>
<trkpt lat="30.620746613" lon="34.803756714">
<ele>830.484375</ele>
<time>2013-11-22T15:00:04Z</time>
<speed>6.050000</speed>
<extensions>
<speed>6.1</speed>
<temp>0.00</temp>
<bpm>0</bpm>
<rpm>0.00</rpm>
</extensions>
</trkpt>
<trkpt lat="30.621028900" lon="34.803771973">
<ele>829.937500</ele>
<time>2013-11-22T15:00:09Z</time>
<speed>6.400000</speed>
<extensions>
<speed>6.4</speed>
<temp>0.00</temp>
<bpm>0</bpm>
<rpm>0.00</rpm>
</extensions>
</trkpt>
<trkpt lat="30.621339798" lon="34.803802490">
<ele>828.062500</ele>
<time>2013-11-22T15:00:14Z</time>
<speed>7.010000</speed>
<extensions>
<speed>7.0</speed>
<temp>0.00</temp>
<bpm>0</bpm>
<rpm>0.00</rpm>
</extensions>
</trkpt>
<trkpt lat="30.621656418" lon="34.803813934">
<ele>827.093750</ele>
<time>2013-11-22T15:00:19Z</time>
<speed>6.730000</speed>
<extensions>
<speed>6.7</speed>
<temp>0.00</temp>
<bpm>0</bpm>
<rpm>0.00</rpm>
</extensions>
</trkpt>
<trkpt lat="30.621961594" lon="34.803844452">
<ele>825.171875</ele>
<time>2013-11-22T15:00:24Z</time>
<speed>6.430000</speed>
<extensions>
<speed>6.4</speed>
<temp>0.00</temp>
<bpm>0</bpm>
<rpm>0.00</rpm>
</extensions>
</trkpt>
<trkpt lat="30.622125626" lon="34.803627014">
<ele>823.937500</ele>
<time>2013-11-22T15:00:29Z</time>
<speed>5.420000</speed>
<extensions>
<speed>5.4</speed>
<temp>0.00</temp>
<bpm>0</bpm>
<rpm>0.00</rpm>
</extensions>
</trkpt>
<trkpt lat="30.622117996" lon="34.803401947">
<ele>825.062500</ele>
<time>2013-11-22T15:00:34Z</time>
<speed>3.310000</speed>
<extensions>
<speed>3.3</speed>
<temp>0.00</temp>
<bpm>0</bpm>
<rpm>0.00</rpm>
</extensions>
</trkpt>
<trkpt lat="30.622100830" lon="34.803253174">
<ele>825.953125</ele>
<time>2013-11-22T15:00:39Z</time>
<speed>3.490000</speed>
<extensions>
<speed>3.5</speed>
<temp>0.00</temp>
<bpm>0</bpm>
<rpm>0.00</rpm>
</extensions>
</trkpt>
<trkpt lat="30.622079849" lon="34.803024292">
<ele>826.750000</ele>
<time>2013-11-22T15:00:44Z</time>
<speed>4.640000</speed>
<extensions>
<speed>4.6</speed>
<temp>0.00</temp>
<bpm>0</bpm>
<rpm>0.00</rpm>
</extensions>
</trkpt>
<trkpt lat="30.622070313" lon="34.802795410">
<ele>827.781250</ele>
<time>2013-11-22T15:00:49Z</time>
<speed>3.840000</speed>
<extensions>
<speed>3.8</speed>
<temp>0.00</temp>
<bpm>0</bpm>
<rpm>0.00</rpm>
</extensions>
</trkpt>
<trkpt lat="30.622064590" lon="34.802581787">
<ele>829.078125</ele>
<time>2013-11-22T15:00:54Z</time>
<speed>4.550000</speed>
<extensions>
<speed>4.5</speed>
<temp>0.00</temp>
<bpm>0</bpm>
<rpm>0.00</rpm>
</extensions>
</trkpt>
<trkpt lat="30.622058868" lon="34.802410126">
<ele>830.140625</ele>
<time>2013-11-22T15:00:59Z</time>
<speed>2.750000</speed>
<extensions>
<speed>2.7</speed>
<temp>0.00</temp>
<bpm>0</bpm>
<rpm>0.00</rpm>
</extensions>
</trkpt>
<trkpt lat="30.622051239" lon="34.802314758">
<ele>831.921875</ele>
<time>2013-11-22T15:01:04Z</time>
<speed>1.180000</speed>
<extensions>
<speed>1.2</speed>
<temp>0.00</temp>
<bpm>0</bpm>
<rpm>0.00</rpm>
</extensions>
</trkpt>
<trkpt lat="30.622034073" lon="34.802219391">
<ele>832.859375</ele>
<time>2013-11-22T15:01:09Z</time>
<speed>2.180000</speed>
<extensions>
<speed>2.2</speed>
<temp>0.00</temp>
<bpm>0</bpm>
<rpm>0.00</rpm>
</extensions>
</trkpt>
<trkpt lat="30.622003555" lon="34.802104950">
<ele>832.625000</ele>
<time>2013-11-22T15:01:14Z</time>
<speed>2.590000</speed>
<extensions>
<speed>2.6</speed>
<temp>0.00</temp>
<bpm>0</bpm>
<rpm>0.00</rpm>
</extensions>
</trkpt>
<trkpt lat="30.621988297" lon="34.801982880">
<ele>831.453125</ele>
<time>2013-11-22T15:01:19Z</time>
<speed>2.380000</speed>
<extensions>
<speed>2.4</speed>
<temp>0.00</temp>
<bpm>0</bpm>
<rpm>0.00</rpm>
</extensions>
</trkpt>
<trkpt lat="30.621959686" lon="34.801868439">
<ele>829.890625</ele>
<time>2013-11-22T15:01:24Z</time>
<speed>2.720000</speed>
<extensions>
<speed>2.7</speed>
<temp>0.00</temp>
<bpm>0</bpm>
<rpm>0.00</rpm>
</extensions>
</trkpt>
<trkpt lat="30.621925354" lon="34.801719666">
<ele>828.765625</ele>
<time>2013-11-22T15:01:29Z</time>
<speed>2.940000</speed>
<extensions>
<speed>2.9</speed>
<temp>0.00</temp>
<bpm>0</bpm>
<rpm>0.00</rpm>
</extensions>
</trkpt>
<trkpt lat="30.621881485" lon="34.801586151">
<ele>828.812500</ele>
<time>2013-11-22T15:01:34Z</time>
<speed>2.620000</speed>
<extensions>
<speed>2.6</speed>
<temp>0.00</temp>
<bpm>0</bpm>
<rpm>0.00</rpm>
</extensions>
</trkpt>
<trkpt lat="30.621845245" lon="34.801475525">
<ele>827.890625</ele>
<time>2013-11-22T15:01:39Z</time>
<speed>1.850000</speed>
<extensions>
<speed>1.8</speed>
<temp>0.00</temp>
<bpm>0</bpm>
<rpm>0.00</rpm>
</extensions>
</trkpt>
<trkpt lat="30.621810913" lon="34.801383972">
<ele>827.828125</ele>
<time>2013-11-22T15:01:44Z</time>
<speed>2.220000</speed>
<extensions>
<speed>2.2</speed>
<temp>0.00</temp>
<bpm>0</bpm>
<rpm>0.00</rpm>
</extensions>
</trkpt>
<trkpt lat="30.621780396" lon="34.801254272">
<ele>826.984375</ele>
<time>2013-11-22T15:01:49Z</time>
<speed>2.860000</speed>
<extensions>
<speed>2.9</speed>
<temp>0.00</temp>
<bpm>0</bpm>
<rpm>0.00</rpm>
</extensions>
</trkpt>
<trkpt lat="30.621711731" lon="34.801116943">
<ele>826.703125</ele>
<time>2013-11-22T15:01:54Z</time>
<speed>2.730000</speed>
<extensions>
<speed>2.7</speed>
<temp>0.00</temp>
<bpm>0</bpm>
<rpm>0.00</rpm>
</extensions>
</trkpt>
<trkpt lat="30.621587753" lon="34.801155090">
<ele>825.437500</ele>
<time>2013-11-22T15:01:59Z</time>
<speed>3.190000</speed>
<extensions>
<speed>3.2</speed>
<temp>0.00</temp>
<bpm>0</bpm>
<rpm>0.00</rpm>
</extensions>
</trkpt>
<trkpt lat="30.621417999" lon="34.801231384">
<ele>826.906250</ele>
<time>2013-11-22T15:02:04Z</time>
<speed>4.240000</speed>
<extensions>
<speed>4.2</speed>
<temp>0.00</temp>
<bpm>0</bpm>
<rpm>0.00</rpm>
</extensions>
</trkpt>
<trkpt lat="30.621263504" lon="34.801269531">
<ele>826.203125</ele>
<time>2013-11-22T15:02:09Z</time>
<speed>3.030000</speed>
<extensions>
<speed>3.0</speed>
<temp>0.00</temp>
<bpm>0</bpm>
<rpm>0.00</rpm>
</extensions>
</trkpt>
<trkpt lat="30.621221542" lon="34.801170349">
<ele>825.312500</ele>
<time>2013-11-22T15:02:14Z</time>
<speed>1.740000</speed>
<extensions>
<speed>1.7</speed>
<temp>0.00</temp>
<bpm>0</bpm>
<rpm>0.00</rpm>
</extensions>
</trkpt>
<trkpt lat="30.621248245" lon="34.801227570">
<ele>825.718750</ele>
<time>2013-11-22T15:02:19Z</time>
<speed>2.730000</speed>
<extensions>
<speed>2.7</speed>
<temp>0.00</temp>
<bpm>0</bpm>
<rpm>0.00</rpm>
</extensions>
</trkpt>
<trkpt lat="30.621351242" lon="34.801246643">
<ele>826.546875</ele>
<time>2013-11-22T15:02:24Z</time>
<speed>2.910000</speed>
<extensions>
<speed>2.9</speed>
<temp>0.00</temp>
<bpm>0</bpm>
<rpm>0.00</rpm>
</extensions>
</trkpt>
<trkpt lat="30.621469498" lon="34.801185608">
<ele>827.906250</ele>
<time>2013-11-22T15:02:29Z</time>
<speed>2.740000</speed>
<extensions>
<speed>2.7</speed>
<temp>0.00</temp>
<bpm>0</bpm>
<rpm>0.00</rpm>
</extensions>
</trkpt>
<trkpt lat="30.621591568" lon="34.801124573">
<ele>827.171875</ele>
<time>2013-11-22T15:02:34Z</time>
<speed>2.710000</speed>
<extensions>
<speed>2.7</speed>
<temp>0.00</temp>
<bpm>0</bpm>
<rpm>0.00</rpm>
</extensions>
</trkpt>
<trkpt lat="30.621673584" lon="34.801048279">
<ele>826.859375</ele>
<time>2013-11-22T15:02:39Z</time>
<speed>2.920000</speed>
<extensions>
<speed>2.9</speed>
<temp>0.00</temp>
<bpm>0</bpm>
<rpm>0.00</rpm>
</extensions>
</trkpt>
<trkpt lat="30.621660233" lon="34.800903320">
<ele>826.875000</ele>
<time>2013-11-22T15:02:44Z</time>
<speed>3.310000</speed>
<extensions>
<speed>3.3</speed>
<temp>0.00</temp>
<bpm>0</bpm>
<rpm>0.00</rpm>
</extensions>
</trkpt>
<trkpt lat="30.621591568" lon="34.800735474">
<ele>827.468750</ele>
<time>2013-11-22T15:02:49Z</time>
<speed>3.940000</speed>
<extensions>
<speed>3.9</speed>
<temp>0.00</temp>
<bpm>0</bpm>
<rpm>0.00</rpm>
</extensions>
</trkpt>
<trkpt lat="30.621488571" lon="34.800594330">
<ele>828.937500</ele>
<time>2013-11-22T15:02:54Z</time>
<speed>3.730000</speed>
<extensions>
<speed>3.7</speed>
<temp>0.00</temp>
<bpm>0</bpm>
<rpm>0.00</rpm>
</extensions>
</trkpt>
<trkpt lat="30.621383667" lon="34.800434113">
<ele>828.625000</ele>
<time>2013-11-22T15:02:59Z</time>
<speed>3.780000</speed>
<extensions>
<speed>3.8</speed>
<temp>0.00</temp>
<bpm>0</bpm>
<rpm>0.00</rpm>
</extensions>
</trkpt>
<trkpt lat="30.621284485" lon="34.800304413">
<ele>827.171875</ele>
<time>2013-11-22T15:03:04Z</time>
<speed>2.630000</speed>
<extensions>
<speed>2.6</speed>
<temp>0.00</temp>
<bpm>0</bpm>
<rpm>0.00</rpm>
</extensions>
</trkpt>
<trkpt lat="30.621126175" lon="34.800338745">
<ele>826.890625</ele>
<time>2013-11-22T15:03:09Z</time>
<speed>4.130000</speed>
<extensions>
<speed>4.1</speed>
<temp>0.00</temp>
<bpm>0</bpm>
<rpm>0.00</rpm>
</extensions>
</trkpt>
<trkpt lat="30.620952606" lon="34.800449371">
<ele>828.296875</ele>
<time>2013-11-22T15:03:14Z</time>
<speed>3.530000</speed>
<extensions>
<speed>3.5</speed>
<temp>0.00</temp>
<bpm>0</bpm>
<rpm>0.00</rpm>
</extensions>
</trkpt>
<trkpt lat="30.620820999" lon="34.800518036">
<ele>827.906250</ele>
<time>2013-11-22T15:03:19Z</time>
<speed>3.060000</speed>
<extensions>
<speed>3.1</speed>
<temp>0.00</temp>
<bpm>0</bpm>
<rpm>0.00</rpm>
</extensions>
</trkpt>
<trkpt lat="30.620662689" lon="34.800590515">
<ele>826.765625</ele>
<time>2013-11-22T15:03:24Z</time>
<speed>3.130000</speed>
<extensions>
<speed>3.1</speed>
<temp>0.00</temp>
<bpm>0</bpm>
<rpm>0.00</rpm>
</extensions>
</trkpt>
<trkpt lat="30.620559692" lon="34.800674438">
<ele>825.734375</ele>
<time>2013-11-22T15:03:29Z</time>
<speed>3.120000</speed>
<extensions>
<speed>3.1</speed>
<temp>0.00</temp>
<bpm>0</bpm>
<rpm>0.00</rpm>
</extensions>
</trkpt>
<trkpt lat="30.620429993" lon="34.800754547">
<ele>825.812500</ele>
<time>2013-11-22T15:03:34Z</time>
<speed>2.530000</speed>
<extensions>
<speed>2.5</speed>
<temp>0.00</temp>
<bpm>0</bpm>
<rpm>0.00</rpm>
</extensions>
</trkpt>
<trkpt lat="30.620353699" lon="34.800788879">
<ele>824.843750</ele>
<time>2013-11-22T15:03:39Z</time>
<speed>0.730000</speed>
<extensions>
<speed>0.7</speed>
<temp>0.00</temp>
<bpm>0</bpm>
<rpm>0.00</rpm>
</extensions>
</trkpt>
<trkpt lat="30.620311737" lon="34.800785065">
<ele>824.062500</ele>
<time>2013-11-22T15:03:44Z</time>
<speed>1.190000</speed>
<extensions>
<speed>1.2</speed>
<temp>0.00</temp>
<bpm>0</bpm>
<rpm>0.00</rpm>
</extensions>
</trkpt>
<trkpt lat="30.620258331" lon="34.800823212">
<ele>823.968750</ele>
<time>2013-11-22T15:03:49Z</time>
<speed>2.220000</speed>
<extensions>
<speed>2.2</speed>
<temp>0.00</temp>
<bpm>0</bpm>
<rpm>0.00</rpm>
</extensions>
</trkpt>
<trkpt lat="30.620176315" lon="34.800949097">
<ele>824.203125</ele>
<time>2013-11-22T15:03:54Z</time>
<speed>3.350000</speed>
<extensions>
<speed>3.4</speed>
<temp>0.00</temp>
<bpm>0</bpm>
<rpm>0.00</rpm>
</extensions>
</trkpt>
<trkpt lat="30.620065689" lon="34.801040649">
<ele>825.453125</ele>
<time>2013-11-22T15:03:59Z</time>
<speed>2.600000</speed>
<extensions>
<speed>2.6</speed>
<temp>0.00</temp>
<bpm>0</bpm>
<rpm>0.00</rpm>
</extensions>
</trkpt>
<trkpt lat="30.619958878" lon="34.801101685">
<ele>826.093750</ele>
<time>2013-11-22T15:04:04Z</time>
<speed>2.960000</speed>
<extensions>
<speed>3.0</speed>
<temp>0.00</temp>
<bpm>0</bpm>
<rpm>0.00</rpm>
</extensions>
</trkpt>
<trkpt lat="30.619840622" lon="34.801124573">
<ele>826.078125</ele>
<time>2013-11-22T15:04:09Z</time>
<speed>2.080000</speed>
<extensions>
<speed>2.1</speed>
<temp>0.00</temp>
<bpm>0</bpm>
<rpm>0.00</rpm>
</extensions>
</trkpt>
<trkpt lat="30.619762421" lon="34.801189423">
<ele>826.265625</ele>
<time>2013-11-22T15:04:14Z</time>
<speed>1.590000</speed>
<extensions>
<speed>1.6</speed>
<temp>0.00</temp>
<bpm>0</bpm>
<rpm>0.00</rpm>
</extensions>
</trkpt>
<trkpt lat="30.619718552" lon="34.801185608">
<ele>825.093750</ele>
<time>2013-11-22T15:04:19Z</time>
<speed>0.120000</speed>
<extensions>
<speed>0.1</speed>
<temp>0.00</temp>
<bpm>0</bpm>
<rpm>0.00</rpm>
</extensions>
</trkpt>
<trkpt lat="30.619718552" lon="34.801185608">
<ele>825.031250</ele>
<time>2013-11-22T15:04:24Z</time>
<speed>0.010000</speed>
<extensions>
<speed>0.0</speed>
<temp>0.00</temp>
<bpm>0</bpm>
<rpm>0.00</rpm>
</extensions>
</trkpt>
<trkpt lat="30.619718552" lon="34.801185608">
<ele>825.109375</ele>
<time>2013-11-22T15:04:29Z</time>
<speed>0.010000</speed>
<extensions>
<speed>0.0</speed>
<temp>0.00</temp>
<bpm>0</bpm>
<rpm>0.00</rpm>
</extensions>
</trkpt>
<trkpt lat="30.619718552" lon="34.801185608">
<ele>825.125000</ele>
<time>2013-11-22T15:04:34Z</time>
<speed>0.020000</speed>
<extensions>
<speed>0.0</speed>
<temp>0.00</temp>
<bpm>0</bpm>
<rpm>0.00</rpm>
</extensions>
</trkpt>
<trkpt lat="30.619720459" lon="34.801185608">
<ele>825.187500</ele>
<time>2013-11-22T15:04:39Z</time>
<extensions>
<speed>0.0</speed>
<temp>0.00</temp>
<bpm>0</bpm>
<rpm>0.00</rpm>
</extensions>
</trkpt>
<trkpt lat="30.619720459" lon="34.801185608">
<ele>825.218750</ele>
<time>2013-11-22T15:04:44Z</time>
<speed>0.020000</speed>
<extensions>
<speed>0.0</speed>
<temp>0.00</temp>
<bpm>0</bpm>
<rpm>0.00</rpm>
</extensions>
</trkpt>
<trkpt lat="30.619703293" lon="34.801204681">
<ele>825.109375</ele>
<time>2013-11-22T15:04:49Z</time>
<speed>1.420000</speed>
<extensions>
<speed>1.4</speed>
<temp>0.00</temp>
<bpm>0</bpm>
<rpm>0.00</rpm>
</extensions>
</trkpt>
<trkpt lat="30.619661331" lon="34.801303864">
<ele>825.500000</ele>
<time>2013-11-22T15:04:54Z</time>
<speed>2.440000</speed>
<extensions>
<speed>2.4</speed>
<temp>0.00</temp>
<bpm>0</bpm>
<rpm>0.00</rpm>
</extensions>
</trkpt>
<trkpt lat="30.619621277" lon="34.801441193">
<ele>826.015625</ele>
<time>2013-11-22T15:04:59Z</time>
<speed>3.280000</speed>
<extensions>
<speed>3.3</speed>
<temp>0.00</temp>
<bpm>0</bpm>
<rpm>0.00</rpm>
</extensions>
</trkpt>
<trkpt lat="30.619606018" lon="34.801654816">
<ele>826.734375</ele>
<time>2013-11-22T15:05:04Z</time>
<speed>3.830000</speed>
<extensions>
<speed>3.8</speed>
<temp>0.00</temp>
<bpm>0</bpm>
<rpm>0.00</rpm>
</extensions>
</trkpt>
<trkpt lat="30.619594574" lon="34.801860809">
<ele>827.859375</ele>
<time>2013-11-22T15:05:09Z</time>
<speed>3.290000</speed>
<extensions>
<speed>3.3</speed>
<temp>0.00</temp>
<bpm>0</bpm>
<rpm>0.00</rpm>
</extensions>
</trkpt>
<trkpt lat="30.619573593" lon="34.802036285">
<ele>827.781250</ele>
<time>2013-11-22T15:05:14Z</time>
<speed>3.820000</speed>
<extensions>
<speed>3.8</speed>
<temp>0.00</temp>
<bpm>0</bpm>
<rpm>0.00</rpm>
</extensions>
</trkpt>
<trkpt lat="30.619560242" lon="34.802192688">
<ele>828.203125</ele>
<time>2013-11-22T15:05:19Z</time>
<speed>2.040000</speed>
<extensions>
<speed>2.0</speed>
<temp>0.00</temp>
<bpm>0</bpm>
<rpm>0.00</rpm>
</extensions>
</trkpt>
<trkpt lat="30.619525909" lon="34.802257538">
<ele>828.187500</ele>
<time>2013-11-22T15:05:24Z</time>
<speed>1.650000</speed>
<extensions>
<speed>1.7</speed>
<temp>0.00</temp>
<bpm>0</bpm>
<rpm>0.00</rpm>
</extensions>
</trkpt>
<trkpt lat="30.619453430" lon="34.802276611">
<ele>827.906250</ele>
<time>2013-11-22T15:05:29Z</time>
<speed>1.250000</speed>
<extensions>
<speed>1.3</speed>
<temp>0.00</temp>
<bpm>0</bpm>
<rpm>0.00</rpm>
</extensions>
</trkpt>
<trkpt lat="30.619384766" lon="34.802276611">
<ele>828.484375</ele>
<time>2013-11-22T15:05:34Z</time>
<speed>2.750000</speed>
<extensions>
<speed>2.7</speed>
<temp>0.00</temp>
<bpm>0</bpm>
<rpm>0.00</rpm>
</extensions>
</trkpt>
<trkpt lat="30.619268417" lon="34.802280426">
<ele>829.203125</ele>
<time>2013-11-22T15:05:39Z</time>
<speed>2.040000</speed>
<extensions>
<speed>2.0</speed>
<temp>0.00</temp>
<bpm>0</bpm>
<rpm>0.00</rpm>
</extensions>
</trkpt>
<trkpt lat="30.619176865" lon="34.802268982">
<ele>828.890625</ele>
<time>2013-11-22T15:05:44Z</time>
<speed>2.170000</speed>
<extensions>
<speed>2.2</speed>
<temp>0.00</temp>
<bpm>0</bpm>
<rpm>0.00</rpm>
</extensions>
</trkpt>
<trkpt lat="30.619077682" lon="34.802291870">
<ele>829.453125</ele>
<time>2013-11-22T15:05:49Z</time>
<speed>1.750000</speed>
<extensions>
<speed>1.8</speed>
<temp>0.00</temp>
<bpm>0</bpm>
<rpm>0.00</rpm>
</extensions>
</trkpt>
<trkpt lat="30.619041443" lon="34.802299500">
<ele>830.156250</ele>
<time>2013-11-22T15:05:54Z</time>
<speed>0.020000</speed>
<extensions>
<speed>0.0</speed>
<temp>0.00</temp>
<bpm>0</bpm>
<rpm>0.00</rpm>
</extensions>
</trkpt>
<trkpt lat="30.619041443" lon="34.802295685">
<ele>830.078125</ele>
<time>2013-11-22T15:05:59Z</time>
<speed>0.010000</speed>
<extensions>
<speed>0.0</speed>
<temp>0.00</temp>
<bpm>0</bpm>
<rpm>0.00</rpm>
</extensions>
</trkpt>
<trkpt lat="30.619041443" lon="34.802295685">
<ele>830.031250</ele>
<time>2013-11-22T15:06:04Z</time>
<speed>0.040000</speed>
<extensions>
<speed>0.0</speed>
<temp>0.00</temp>
<bpm>0</bpm>
<rpm>0.00</rpm>
</extensions>
</trkpt>
<trkpt lat="30.619041443" lon="34.802295685">
<ele>830.046875</ele>
<time>2013-11-22T15:06:09Z</time>
<speed>0.020000</speed>
<extensions>
<speed>0.0</speed>
<temp>0.00</temp>
<bpm>0</bpm>
<rpm>0.00</rpm>
</extensions>
</trkpt>
<trkpt lat="30.619041443" lon="34.802295685">
<ele>830.062500</ele>
<time>2013-11-22T15:06:14Z</time>
<speed>0.010000</speed>
<extensions>
<speed>0.0</speed>
<temp>0.00</temp>
<bpm>0</bpm>
<rpm>0.00</rpm>
</extensions>
</trkpt>
<trkpt lat="30.619043350" lon="34.802295685">
<ele>830.109375</ele>
<time>2013-11-22T15:06:19Z</time>
<extensions>
<speed>0.0</speed>
<temp>0.00</temp>
<bpm>0</bpm>
<rpm>0.00</rpm>
</extensions>
</trkpt>
<trkpt lat="30.619041443" lon="34.802295685">
<ele>830.140625</ele>
<time>2013-11-22T15:06:24Z</time>
<speed>0.870000</speed>
<extensions>
<speed>0.9</speed>
<temp>0.00</temp>
<bpm>0</bpm>
<rpm>0.00</rpm>
</extensions>
</trkpt>
<trkpt lat="30.618949890" lon="34.802276611">
<ele>830.656250</ele>
<time>2013-11-22T15:06:29Z</time>
<speed>2.880000</speed>
<extensions>
<speed>2.9</speed>
<temp>0.00</temp>
<bpm>0</bpm>
<rpm>0.00</rpm>
</extensions>
</trkpt>
<trkpt lat="30.618804932" lon="34.802295685">
<ele>830.984375</ele>
<time>2013-11-22T15:06:34Z</time>
<speed>2.690000</speed>
<extensions>
<speed>2.7</speed>
<temp>0.00</temp>
<bpm>0</bpm>
<rpm>0.00</rpm>
</extensions>
</trkpt>
<trkpt lat="30.618703842" lon="34.802303314">
<ele>830.812500</ele>
<time>2013-11-22T15:06:39Z</time>
<speed>2.650000</speed>
<extensions>
<speed>2.6</speed>
<temp>0.00</temp>
<bpm>0</bpm>
<rpm>0.00</rpm>
</extensions>
</trkpt>
<trkpt lat="30.618589401" lon="34.802227020">
<ele>830.640625</ele>
<time>2013-11-22T15:06:44Z</time>
<speed>3.130000</speed>
<extensions>
<speed>3.1</speed>
<temp>0.00</temp>
<bpm>0</bpm>
<rpm>0.00</rpm>
</extensions>
</trkpt>
<trkpt lat="30.618537903" lon="34.802051544">
<ele>827.921875</ele>
<time>2013-11-22T15:06:49Z</time>
<speed>3.250000</speed>
<extensions>
<speed>3.2</speed>
<temp>0.00</temp>
<bpm>0</bpm>
<rpm>0.00</rpm>
</extensions>
</trkpt>
<trkpt lat="30.618516922" lon="34.801864624">
<ele>825.625000</ele>
<time>2013-11-22T15:06:54Z</time>
<speed>3.630000</speed>
<extensions>
<speed>3.6</speed>
<temp>0.00</temp>
<bpm>0</bpm>
<rpm>0.00</rpm>
</extensions>
</trkpt>
<trkpt lat="30.618522644" lon="34.801727295">
<ele>823.234375</ele>
<time>2013-11-22T15:06:59Z</time>
<speed>1.190000</speed>
<extensions>
<speed>1.2</speed>
<temp>0.00</temp>
<bpm>0</bpm>
<rpm>0.00</rpm>
</extensions>
</trkpt>
<trkpt lat="30.618535995" lon="34.801677704">
<ele>823.140625</ele>
<time>2013-11-22T15:07:04Z</time>
<speed>0.820000</speed>
<extensions>
<speed>0.8</speed>
<temp>0.00</temp>
<bpm>0</bpm>
<rpm>0.00</rpm>
</extensions>
</trkpt>
<trkpt lat="30.618532181" lon="34.801666260">
<ele>822.468750</ele>
<time>2013-11-22T15:07:09Z</time>
<speed>0.100000</speed>
<extensions>
<speed>0.1</speed>
<temp>0.00</temp>
<bpm>0</bpm>
<rpm>0.00</rpm>
</extensions>
</trkpt>
<trkpt lat="30.618534088" lon="34.801662445">
<ele>822.390625</ele>
<time>2013-11-22T15:07:14Z</time>
<speed>0.850000</speed>
<extensions>
<speed>0.8</speed>
<temp>0.00</temp>
<bpm>0</bpm>
<rpm>0.00</rpm>
</extensions>
</trkpt>
<trkpt lat="30.618551254" lon="34.801647186">
<ele>822.937500</ele>
<time>2013-11-22T15:07:19Z</time>
<speed>0.180000</speed>
<extensions>
<speed>0.2</speed>
<temp>0.00</temp>
<bpm>0</bpm>
<rpm>0.00</rpm>
</extensions>
</trkpt>
<trkpt lat="30.618562698" lon="34.801639557">
<ele>823.281250</ele>
<time>2013-11-22T15:07:24Z</time>
<speed>1.210000</speed>
<extensions>
<speed>1.2</speed>
<temp>0.00</temp>
<bpm>0</bpm>
<rpm>0.00</rpm>
</extensions>
</trkpt>
<trkpt lat="30.618572235" lon="34.801639557">
<ele>824.062500</ele>
<time>2013-11-22T15:07:29Z</time>
<speed>0.570000</speed>
<extensions>
<speed>0.6</speed>
<temp>0.00</temp>
<bpm>0</bpm>
<rpm>0.00</rpm>
</extensions>
</trkpt>
<trkpt lat="30.618570328" lon="34.801651001">
<ele>824.062500</ele>
<time>2013-11-22T15:07:34Z</time>
<speed>0.630000</speed>
<extensions>
<speed>0.6</speed>
<temp>0.00</temp>
<bpm>0</bpm>
<rpm>0.00</rpm>
</extensions>
</trkpt>
<trkpt lat="30.618574142" lon="34.801670074">
<ele>824.109375</ele>
<time>2013-11-22T15:07:39Z</time>
<speed>0.450000</speed>
<extensions>
<speed>0.5</speed>
<temp>0.00</temp>
<bpm>0</bpm>
<rpm>0.00</rpm>
</extensions>
</trkpt>
<trkpt lat="30.618583679" lon="34.801708221">
<ele>824.390625</ele>
<time>2013-11-22T15:07:44Z</time>
<speed>0.450000</speed>
<extensions>
<speed>0.5</speed>
<temp>0.00</temp>
<bpm>0</bpm>
<rpm>0.00</rpm>
</extensions>
</trkpt>
<trkpt lat="30.618604660" lon="34.801692963">
<ele>824.968750</ele>
<time>2013-11-22T15:07:49Z</time>
<speed>0.020000</speed>
<extensions>
<speed>0.0</speed>
<temp>0.00</temp>
<bpm>0</bpm>
<rpm>0.00</rpm>
</extensions>
</trkpt>
<trkpt lat="30.618604660" lon="34.801696777">
<ele>825.125000</ele>
<time>2013-11-22T15:07:54Z</time>
<speed>0.050000</speed>
<extensions>
<speed>0.1</speed>
<temp>0.00</temp>
<bpm>0</bpm>
<rpm>0.00</rpm>
</extensions>
</trkpt>
<trkpt lat="30.618604660" lon="34.801696777">
<ele>825.296875</ele>
<time>2013-11-22T15:07:59Z</time>
<speed>0.020000</speed>
<extensions>
<speed>0.0</speed>
<temp>0.00</temp>
<bpm>0</bpm>
<rpm>0.00</rpm>
</extensions>
</trkpt>
<trkpt lat="30.618604660" lon="34.801696777">
<ele>825.421875</ele>
<time>2013-11-22T15:08:04Z</time>
<speed>0.010000</speed>
<extensions>
<speed>0.0</speed>
<temp>0.00</temp>
<bpm>0</bpm>
<rpm>0.00</rpm>
</extensions>
</trkpt>
<trkpt lat="30.618604660" lon="34.801696777">
<ele>825.437500</ele>
<time>2013-11-22T15:08:09Z</time>
<extensions>
<speed>0.0</speed>
<temp>0.00</temp>
<bpm>0</bpm>
<rpm>0.00</rpm>
</extensions>
</trkpt>
<trkpt lat="30.618604660" lon="34.801696777">
<ele>825.437500</ele>
<time>2013-11-22T15:08:14Z</time>
<extensions>
<speed>0.0</speed>
<temp>0.00</temp>
<bpm>0</bpm>
<rpm>0.00</rpm>
</extensions>
</trkpt>
<trkpt lat="30.618604660" lon="34.801696777">
<ele>825.453125</ele>
<time>2013-11-22T15:08:19Z</time>
<speed>0.040000</speed>
<extensions>
<speed>0.0</speed>
<temp>0.00</temp>
<bpm>0</bpm>
<rpm>0.00</rpm>
</extensions>
</trkpt>
<trkpt lat="30.618604660" lon="34.801696777">
<ele>825.468750</ele>
<time>2013-11-22T15:08:24Z</time>
<speed>0.030000</speed>
<extensions>
<speed>0.0</speed>
<temp>0.00</temp>
<bpm>0</bpm>
<rpm>0.00</rpm>
</extensions>
</trkpt>
<trkpt lat="30.618604660" lon="34.801696777">
<ele>825.468750</ele>
<time>2013-11-22T15:08:29Z</time>
<speed>0.050000</speed>
<extensions>
<speed>0.1</speed>
<temp>0.00</temp>
<bpm>0</bpm>
<rpm>0.00</rpm>
</extensions>
</trkpt>
<trkpt lat="30.618604660" lon="34.801696777">
<ele>825.484375</ele>
<time>2013-11-22T15:08:34Z</time>
<speed>0.100000</speed>
<extensions>
<speed>0.1</speed>
<temp>0.00</temp>
<bpm>0</bpm>
<rpm>0.00</rpm>
</extensions>
</trkpt>
<trkpt lat="30.618604660" lon="34.801696777">
<ele>825.500000</ele>
<time>2013-11-22T15:08:39Z</time>
<speed>0.010000</speed>
<extensions>
<speed>0.0</speed>
<temp>0.00</temp>
<bpm>0</bpm>
<rpm>0.00</rpm>
</extensions>
</trkpt>
<trkpt lat="30.618604660" lon="34.801696777">
<ele>825.515625</ele>
<time>2013-11-22T15:08:44Z</time>
<speed>0.030000</speed>
<extensions>
<speed>0.0</speed>
<temp>0.00</temp>
<bpm>0</bpm>
<rpm>0.00</rpm>
</extensions>
</trkpt>
<trkpt lat="30.618604660" lon="34.801696777">
<ele>825.515625</ele>
<time>2013-11-22T15:08:49Z</time>
<speed>0.010000</speed>
<extensions>
<speed>0.0</speed>
<temp>0.00</temp>
<bpm>0</bpm>
<rpm>0.00</rpm>
</extensions>
</trkpt>
</trkseg>
</trk>
</gpx>